<?xml version='1.0' encoding='UTF-8'?><gpx version="1.1" creator="JPX - https://github.com/jenetics/jpx" xmlns="http://www.topografix.com/GPX/1/1"><trk><trkseg><trkpt lat="43.58655055826253" lon="12.50788143576236"><ele>346.0</ele><time>2026-05-01T13:43:04Z</time></trkpt><trkpt lat="43.58660948722624" lon="12.507912652849377"><ele>346.0</ele><time>2026-05-01T13:43:06Z</time></trkpt><trkpt lat="43.586660367306294" lon="12.507857362430572"><ele>346.0</ele><time>2026-05-01T13:43:25Z</time></trkpt><trkpt lat="43.58673810737961" lon="12.50788737722836"><ele>346.0</ele><time>2026-05-01T13:43:27Z</time></trkpt><trkpt lat="43.586843819205725" lon="12.507972366539104"><ele>346.0</ele><time>2026-05-01T13:43:29Z</time></trkpt><trkpt lat="43.5869076666393" lon="12.508055348396496"><ele>346.0</ele><time>2026-05-01T13:43:30Z</time></trkpt><trkpt lat="43.58697288386906" lon="12.508094561415358"><ele>345.16666666666663</ele><time>2026-05-01T13:43:31Z</time></trkpt><trkpt lat="43.58703448784052" lon="12.508131601895279"><ele>344.3333333333333</ele><time>2026-05-01T13:43:32Z</time></trkpt><trkpt lat="43.587097987088875" lon="12.50816978194347"><ele>343.5</ele><time>2026-05-01T13:43:33Z</time></trkpt><trkpt lat="43.58715670078107" lon="12.50820508459424"><ele>342.6666666666667</ele><time>2026-05-01T13:43:34Z</time></trkpt><trkpt lat="43.58721787786886" lon="12.508241868405072"><ele>341.83333333333337</ele><time>2026-05-01T13:43:35Z</time></trkpt><trkpt lat="43.58734094773309" lon="12.508291138412629"><ele>341.0</ele><time>2026-05-01T13:43:37Z</time></trkpt><trkpt lat="43.58740293380604" lon="12.508332049180812"><ele>341.0</ele><time>2026-05-01T13:43:38Z</time></trkpt><trkpt lat="43.58746922138227" lon="12.508371840227976"><ele>341.0</ele><time>2026-05-01T13:43:39Z</time></trkpt><trkpt lat="43.587533891396646" lon="12.508432744501494"><ele>341.0</ele><time>2026-05-01T13:43:40Z</time></trkpt><trkpt lat="43.58760959786314" lon="12.508478548409116"><ele>341.0</ele><time>2026-05-01T13:43:41Z</time></trkpt><trkpt lat="43.58769343712073" lon="12.50850429820569"><ele>341.0</ele><time>2026-05-01T13:43:42Z</time></trkpt><trkpt lat="43.58777242665804" lon="12.508553302208824"><ele>341.0</ele><time>2026-05-01T13:43:43Z</time></trkpt><trkpt lat="43.58785092178728" lon="12.50860719847794"><ele>340.4</ele><time>2026-05-01T13:43:44Z</time></trkpt><trkpt lat="43.58793554347742" lon="12.508651455183553"><ele>339.8</ele><time>2026-05-01T13:43:45Z</time></trkpt><trkpt lat="43.588009275660376" lon="12.508720361329347"><ele>339.2</ele><time>2026-05-01T13:43:46Z</time></trkpt><trkpt lat="43.588099461185394" lon="12.508750130130283"><ele>338.59999999999997</ele><time>2026-05-01T13:43:47Z</time></trkpt><trkpt lat="43.588174694061905" lon="12.5088092574052"><ele>338.0</ele><time>2026-05-01T13:43:48Z</time></trkpt><trkpt lat="43.58825836620699" lon="12.50885785105733"><ele>338.0</ele><time>2026-05-01T13:43:49Z</time></trkpt><trkpt lat="43.58834177138853" lon="12.508905348599983"><ele>338.0</ele><time>2026-05-01T13:43:50Z</time></trkpt><trkpt lat="43.58842626792326" lon="12.508956477221037"><ele>338.0</ele><time>2026-05-01T13:43:51Z</time></trkpt><trkpt lat="43.58850785578203" lon="12.509006010359812"><ele>338.0</ele><time>2026-05-01T13:43:52Z</time></trkpt><trkpt lat="43.58859182837675" lon="12.50904684753298"><ele>338.0</ele><time>2026-05-01T13:43:53Z</time></trkpt><trkpt lat="43.588676483145036" lon="12.50910129488854"><ele>338.1666666666667</ele><time>2026-05-01T13:43:54Z</time></trkpt><trkpt lat="43.58876015009423" lon="12.50916996249955"><ele>338.33333333333337</ele><time>2026-05-01T13:43:55Z</time></trkpt><trkpt lat="43.58884642609172" lon="12.50920167229758"><ele>338.5</ele><time>2026-05-01T13:43:56Z</time></trkpt><trkpt lat="43.58892737922741" lon="12.509241549886509"><ele>338.6666666666667</ele><time>2026-05-01T13:43:57Z</time></trkpt><trkpt lat="43.58899084089575" lon="12.509287194244397"><ele>338.8333333333333</ele><time>2026-05-01T13:43:58Z</time></trkpt><trkpt lat="43.58905457998715" lon="12.509322232453787"><ele>339.0</ele><time>2026-05-01T13:43:59Z</time></trkpt><trkpt lat="43.58911798718961" lon="12.509357674498679"><ele>339.0</ele><time>2026-05-01T13:44:00Z</time></trkpt><trkpt lat="43.589221078772724" lon="12.5094359365479"><ele>339.0</ele><time>2026-05-01T13:44:02Z</time></trkpt><trkpt lat="43.58930791388557" lon="12.50950170526128"><ele>339.0</ele><time>2026-05-01T13:44:04Z</time></trkpt><trkpt lat="43.589351683304756" lon="12.509585746615057"><ele>339.0</ele><time>2026-05-01T13:44:07Z</time></trkpt><trkpt lat="43.58940889729987" lon="12.50964379664957"><ele>339.0</ele><time>2026-05-01T13:44:10Z</time></trkpt><trkpt lat="43.589505420048695" lon="12.509642573436887"><ele>338.4</ele><time>2026-05-01T13:44:12Z</time></trkpt><trkpt lat="43.58958649493198" lon="12.509678140788031"><ele>337.79999999999995</ele><time>2026-05-01T13:44:14Z</time></trkpt><trkpt lat="43.589673067631416" lon="12.509735996377007"><ele>337.20000000000005</ele><time>2026-05-01T13:44:16Z</time></trkpt><trkpt lat="43.589769298758235" lon="12.509789499767274"><ele>336.6</ele><time>2026-05-01T13:44:18Z</time></trkpt><trkpt lat="43.589866690083454" lon="12.509841761586134"><ele>336.0</ele><time>2026-05-01T13:44:20Z</time></trkpt><trkpt lat="43.589958071124066" lon="12.509896349862622"><ele>336.0</ele><time>2026-05-01T13:44:22Z</time></trkpt><trkpt lat="43.59004465028005" lon="12.509944040329936"><ele>336.0</ele><time>2026-05-01T13:44:24Z</time></trkpt><trkpt lat="43.59013579147637" lon="12.509993957615235"><ele>336.0</ele><time>2026-05-01T13:44:27Z</time></trkpt><trkpt lat="43.59020121941701" lon="12.510004709218984"><ele>336.0</ele><time>2026-05-01T13:44:29Z</time></trkpt><trkpt lat="43.59028204565284" lon="12.510050160356824"><ele>336.0</ele><time>2026-05-01T13:44:31Z</time></trkpt><trkpt lat="43.59038813661357" lon="12.510082253568084"><ele>339.0</ele><time>2026-05-01T13:44:33Z</time></trkpt><trkpt lat="43.59048885691221" lon="12.510136604297644"><ele>342.0</ele><time>2026-05-01T13:44:35Z</time></trkpt><trkpt lat="43.59058211214758" lon="12.51018661005818"><ele>345.0</ele><time>2026-05-01T13:44:37Z</time></trkpt><trkpt lat="43.59064634019639" lon="12.51022116317642"><ele>348.0</ele><time>2026-05-01T13:44:39Z</time></trkpt><trkpt lat="43.59071521723632" lon="12.510090565183187"><ele>351.0</ele><time>2026-05-01T13:44:40Z</time></trkpt><trkpt lat="43.59076236201151" lon="12.509906123564434"><ele>351.0</ele><time>2026-05-01T13:44:42Z</time></trkpt><trkpt lat="43.59079226923097" lon="12.509805025535924"><ele>351.0</ele><time>2026-05-01T13:44:43Z</time></trkpt><trkpt lat="43.59082125801005" lon="12.509704747673426"><ele>351.0</ele><time>2026-05-01T13:44:44Z</time></trkpt><trkpt lat="43.590856775619585" lon="12.509600072033221"><ele>351.0</ele><time>2026-05-01T13:44:45Z</time></trkpt><trkpt lat="43.59089058173053" lon="12.509484272223599"><ele>351.0</ele><time>2026-05-01T13:44:46Z</time></trkpt><trkpt lat="43.59092883583139" lon="12.509362680973286"><ele>351.0</ele><time>2026-05-01T13:44:47Z</time></trkpt><trkpt lat="43.59097080149075" lon="12.50923804339301"><ele>349.8</ele><time>2026-05-01T13:44:48Z</time></trkpt><trkpt lat="43.591011376127014" lon="12.50910909889326"><ele>348.6</ele><time>2026-05-01T13:44:49Z</time></trkpt><trkpt lat="43.591047037262186" lon="12.508966152072496"><ele>347.4</ele><time>2026-05-01T13:44:50Z</time></trkpt><trkpt lat="43.591073896319585" lon="12.508820173513268"><ele>346.2</ele><time>2026-05-01T13:44:51Z</time></trkpt><trkpt lat="43.5910931177048" lon="12.508696950086346"><ele>345.0</ele><time>2026-05-01T13:44:52Z</time></trkpt><trkpt lat="43.5911163710836" lon="12.508562825958222"><ele>344.2</ele><time>2026-05-01T13:44:53Z</time></trkpt><trkpt lat="43.591136023620734" lon="12.508442278156224"><ele>343.4</ele><time>2026-05-01T13:44:54Z</time></trkpt><trkpt lat="43.59115041900034" lon="12.508324053106175"><ele>342.6</ele><time>2026-05-01T13:44:55Z</time></trkpt><trkpt lat="43.59115952533983" lon="12.508195922408378"><ele>341.8</ele><time>2026-05-01T13:44:56Z</time></trkpt><trkpt lat="43.59117201644644" lon="12.508066558311302"><ele>341.0</ele><time>2026-05-01T13:44:57Z</time></trkpt><trkpt lat="43.59118948764781" lon="12.507931328068747"><ele>345.0</ele><time>2026-05-01T13:44:58Z</time></trkpt><trkpt lat="43.59122649485938" lon="12.507802614099038"><ele>349.0</ele><time>2026-05-01T13:44:59Z</time></trkpt><trkpt lat="43.591275563639165" lon="12.507672668139499"><ele>353.0</ele><time>2026-05-01T13:45:00Z</time></trkpt><trkpt lat="43.59133076885386" lon="12.507537251499615"><ele>357.0</ele><time>2026-05-01T13:45:01Z</time></trkpt><trkpt lat="43.59137986539826" lon="12.507407136959275"><ele>361.0</ele><time>2026-05-01T13:45:02Z</time></trkpt><trkpt lat="43.59142608613352" lon="12.507274635757335"><ele>361.0</ele><time>2026-05-01T13:45:03Z</time></trkpt><trkpt lat="43.591476533941716" lon="12.507142137875883"><ele>361.0</ele><time>2026-05-01T13:45:04Z</time></trkpt><trkpt lat="43.59153194346301" lon="12.507010137259506"><ele>361.0</ele><time>2026-05-01T13:45:05Z</time></trkpt><trkpt lat="43.5915823767685" lon="12.506878117302994"><ele>361.0</ele><time>2026-05-01T13:45:06Z</time></trkpt><trkpt lat="43.591633997050444" lon="12.506747053495817"><ele>361.0</ele><time>2026-05-01T13:45:07Z</time></trkpt><trkpt lat="43.5916953081893" lon="12.506609911951985"><ele>358.5</ele><time>2026-05-01T13:45:08Z</time></trkpt><trkpt lat="43.59173758294657" lon="12.506474113011837"><ele>356.0</ele><time>2026-05-01T13:45:09Z</time></trkpt><trkpt lat="43.59179733736352" lon="12.506332173978137"><ele>353.5</ele><time>2026-05-01T13:45:10Z</time></trkpt><trkpt lat="43.59185800292854" lon="12.506193299126707"><ele>351.0</ele><time>2026-05-01T13:45:11Z</time></trkpt><trkpt lat="43.59192187089321" lon="12.506043423262089"><ele>349.25</ele><time>2026-05-01T13:45:12Z</time></trkpt><trkpt lat="43.59196730260656" lon="12.505896656634498"><ele>347.5</ele><time>2026-05-01T13:45:13Z</time></trkpt><trkpt lat="43.59203873767757" lon="12.505760283434638"><ele>345.75</ele><time>2026-05-01T13:45:14Z</time></trkpt><trkpt lat="43.592097573368925" lon="12.505616915606156"><ele>344.0</ele><time>2026-05-01T13:45:15Z</time></trkpt><trkpt lat="43.59215634765676" lon="12.505472471231"><ele>345.75</ele><time>2026-05-01T13:45:16Z</time></trkpt><trkpt lat="43.59221881377185" lon="12.505331503669607"><ele>347.5</ele><time>2026-05-01T13:45:17Z</time></trkpt><trkpt lat="43.59227276355387" lon="12.505196024399176"><ele>349.25</ele><time>2026-05-01T13:45:18Z</time></trkpt><trkpt lat="43.592356947435476" lon="12.505067132503992"><ele>351.0</ele><time>2026-05-01T13:45:19Z</time></trkpt><trkpt lat="43.59241925301842" lon="12.504927717898532"><ele>351.0</ele><time>2026-05-01T13:45:20Z</time></trkpt><trkpt lat="43.5924985577711" lon="12.504786372836097"><ele>351.0</ele><time>2026-05-01T13:45:21Z</time></trkpt><trkpt lat="43.592582059493935" lon="12.504652659971784"><ele>351.0</ele><time>2026-05-01T13:45:22Z</time></trkpt><trkpt lat="43.59265425183033" lon="12.504538809493955"><ele>351.0</ele><time>2026-05-01T13:45:23Z</time></trkpt><trkpt lat="43.592723953345846" lon="12.504420513535774"><ele>352.25</ele><time>2026-05-01T13:45:24Z</time></trkpt><trkpt lat="43.59279484579224" lon="12.504299449220882"><ele>353.5</ele><time>2026-05-01T13:45:25Z</time></trkpt><trkpt lat="43.5928645072583" lon="12.504177220715565"><ele>354.75</ele><time>2026-05-01T13:45:26Z</time></trkpt><trkpt lat="43.592935570836765" lon="12.504050008036376"><ele>356.0</ele><time>2026-05-01T13:45:27Z</time></trkpt><trkpt lat="43.5930109737139" lon="12.503920394515225"><ele>356.0</ele><time>2026-05-01T13:45:28Z</time></trkpt><trkpt lat="43.59308595921928" lon="12.503790181599996"><ele>356.0</ele><time>2026-05-01T13:45:29Z</time></trkpt><trkpt lat="43.59316543464581" lon="12.503656274708128"><ele>356.0</ele><time>2026-05-01T13:45:30Z</time></trkpt><trkpt lat="43.59324700961014" lon="12.50352105612236"><ele>356.0</ele><time>2026-05-01T13:45:31Z</time></trkpt><trkpt lat="43.59332867086757" lon="12.503385006419126"><ele>354.25</ele><time>2026-05-01T13:45:32Z</time></trkpt><trkpt lat="43.593410220864364" lon="12.503247947432877"><ele>352.5</ele><time>2026-05-01T13:45:33Z</time></trkpt><trkpt lat="43.59349288042083" lon="12.503112016185762"><ele>350.75</ele><time>2026-05-01T13:45:34Z</time></trkpt><trkpt lat="43.5935769076281" lon="12.502985502402518"><ele>349.0</ele><time>2026-05-01T13:45:35Z</time></trkpt><trkpt lat="43.59366406958953" lon="12.502871547320229"><ele>349.5</ele><time>2026-05-01T13:45:36Z</time></trkpt><trkpt lat="43.5937499031263" lon="12.502765003886177"><ele>350.0</ele><time>2026-05-01T13:45:37Z</time></trkpt><trkpt lat="43.59383468211948" lon="12.50267132229465"><ele>350.5</ele><time>2026-05-01T13:45:38Z</time></trkpt><trkpt lat="43.593934791382885" lon="12.502583795408253"><ele>351.0</ele><time>2026-05-01T13:45:39Z</time></trkpt><trkpt lat="43.594032972059885" lon="12.502500109642368"><ele>351.0</ele><time>2026-05-01T13:45:40Z</time></trkpt><trkpt lat="43.594143145695085" lon="12.502410975030248"><ele>351.0</ele><time>2026-05-01T13:45:41Z</time></trkpt><trkpt lat="43.59425136606445" lon="12.502313439106402"><ele>351.0</ele><time>2026-05-01T13:45:42Z</time></trkpt><trkpt lat="43.5943607255936" lon="12.502211991606858"><ele>351.0</ele><time>2026-05-01T13:45:43Z</time></trkpt><trkpt lat="43.59447936573724" lon="12.502112675454152"><ele>350.0</ele><time>2026-05-01T13:45:44Z</time></trkpt><trkpt lat="43.59460685775364" lon="12.502008574934791"><ele>349.0</ele><time>2026-05-01T13:45:45Z</time></trkpt><trkpt lat="43.594746134485504" lon="12.501911705119378"><ele>348.0</ele><time>2026-05-01T13:45:46Z</time></trkpt><trkpt lat="43.59490048223369" lon="12.50183753968607"><ele>348.0</ele><time>2026-05-01T13:45:47Z</time></trkpt><trkpt lat="43.59507259617041" lon="12.501792270976456"><ele>348.0</ele><time>2026-05-01T13:45:48Z</time></trkpt><trkpt lat="43.595262307783564" lon="12.501769932294472"><ele>348.0</ele><time>2026-05-01T13:45:49Z</time></trkpt><trkpt lat="43.59544685066737" lon="12.501752388005169"><ele>348.75</ele><time>2026-05-01T13:45:50Z</time></trkpt><trkpt lat="43.59560690771625" lon="12.501738406506206"><ele>349.5</ele><time>2026-05-01T13:45:51Z</time></trkpt><trkpt lat="43.59575457601262" lon="12.501720067434634"><ele>350.25</ele><time>2026-05-01T13:45:52Z</time></trkpt><trkpt lat="43.59589003259668" lon="12.501707352576407"><ele>351.0</ele><time>2026-05-01T13:45:53Z</time></trkpt><trkpt lat="43.596021295356486" lon="12.501704243792936"><ele>351.0</ele><time>2026-05-01T13:45:54Z</time></trkpt><trkpt lat="43.596167164388106" lon="12.501709702188649"><ele>351.0</ele><time>2026-05-01T13:45:55Z</time></trkpt><trkpt lat="43.596321188213075" lon="12.50170622179055"><ele>351.0</ele><time>2026-05-01T13:45:56Z</time></trkpt><trkpt lat="43.59646373752383" lon="12.501653200055193"><ele>351.0</ele><time>2026-05-01T13:45:57Z</time></trkpt><trkpt lat="43.59650478410032" lon="12.5015809052367"><ele>350.5</ele><time>2026-05-01T13:45:58Z</time></trkpt><trkpt lat="43.59662559240578" lon="12.50152521243369"><ele>350.0</ele><time>2026-05-01T13:45:59Z</time></trkpt><trkpt lat="43.59674574734987" lon="12.501451210283369"><ele>349.5</ele><time>2026-05-01T13:46:00Z</time></trkpt><trkpt lat="43.59686868776889" lon="12.501375293174576"><ele>349.0</ele><time>2026-05-01T13:46:00.999Z</time></trkpt><trkpt lat="43.59699001839107" lon="12.5013008520702"><ele>349.0</ele><time>2026-05-01T13:46:01.999Z</time></trkpt><trkpt lat="43.59711057624094" lon="12.5012192759866"><ele>349.0</ele><time>2026-05-01T13:46:02.999Z</time></trkpt><trkpt lat="43.59723334135411" lon="12.50114235511534"><ele>349.0</ele><time>2026-05-01T13:46:03.999Z</time></trkpt><trkpt lat="43.59735725469751" lon="12.501067332994454"><ele>349.0</ele><time>2026-05-01T13:46:04.999Z</time></trkpt><trkpt lat="43.597475448696976" lon="12.500993363761083"><ele>349.0</ele><time>2026-05-01T13:46:05.999Z</time></trkpt><trkpt lat="43.59759178035178" lon="12.500921323564198"><ele>349.0</ele><time>2026-05-01T13:46:06.999Z</time></trkpt><trkpt lat="43.597704446340664" lon="12.500848575008714"><ele>349.0</ele><time>2026-05-01T13:46:07.999Z</time></trkpt><trkpt lat="43.59779760873983" lon="12.500787144466273"><ele>349.0</ele><time>2026-05-01T13:46:08.999Z</time></trkpt><trkpt lat="43.59788519019679" lon="12.500745554784737"><ele>349.0</ele><time>2026-05-01T13:46:09.999Z</time></trkpt><trkpt lat="43.597961203767014" lon="12.500698298241364"><ele>350.4</ele><time>2026-05-01T13:46:10.999Z</time></trkpt><trkpt lat="43.59803821902427" lon="12.500651121945449"><ele>351.79999999999995</ele><time>2026-05-01T13:46:12.999Z</time></trkpt><trkpt lat="43.59811675832638" lon="12.500602745227091"><ele>353.20000000000005</ele><time>2026-05-01T13:48:56Z</time></trkpt><trkpt lat="43.59819372707717" lon="12.500537794663348"><ele>354.6</ele><time>2026-05-01T13:48:59Z</time></trkpt><trkpt lat="43.59831114518664" lon="12.500482293447236"><ele>356.0</ele><time>2026-05-01T13:49:01Z</time></trkpt><trkpt lat="43.598375498372064" lon="12.500442398045468"><ele>355.33333333333337</ele><time>2026-05-01T13:49:02Z</time></trkpt><trkpt lat="43.59845143650887" lon="12.500395320618061"><ele>354.6666666666667</ele><time>2026-05-01T13:49:03Z</time></trkpt><trkpt lat="43.59852325709418" lon="12.500350795828965"><ele>354.0</ele><time>2026-05-01T13:49:04Z</time></trkpt><trkpt lat="43.59860159627203" lon="12.50030222989168"><ele>353.3333333333333</ele><time>2026-05-01T13:49:05Z</time></trkpt><trkpt lat="43.59868042245713" lon="12.500233185127625"><ele>352.66666666666663</ele><time>2026-05-01T13:49:06Z</time></trkpt><trkpt lat="43.59876461577906" lon="12.500181702242488"><ele>352.0</ele><time>2026-05-01T13:49:07Z</time></trkpt><trkpt lat="43.59884885834365" lon="12.500132100168665"><ele>352.0</ele><time>2026-05-01T13:49:08Z</time></trkpt><trkpt lat="43.598931727982524" lon="12.500080733777018"><ele>352.0</ele><time>2026-05-01T13:49:09Z</time></trkpt><trkpt lat="43.599017059067265" lon="12.500040423070232"><ele>352.0</ele><time>2026-05-01T13:49:10Z</time></trkpt><trkpt lat="43.59909276863623" lon="12.499978949003047"><ele>352.0</ele><time>2026-05-01T13:49:11Z</time></trkpt><trkpt lat="43.59917225913886" lon="12.499931047860606"><ele>352.0</ele><time>2026-05-01T13:49:12Z</time></trkpt><trkpt lat="43.59925053869712" lon="12.49988142007567"><ele>352.0</ele><time>2026-05-01T13:49:13Z</time></trkpt><trkpt lat="43.599331343556614" lon="12.499828215986016"><ele>352.0</ele><time>2026-05-01T13:49:14Z</time></trkpt><trkpt lat="43.59941066290129" lon="12.499774679040064"><ele>352.0</ele><time>2026-05-01T13:49:15Z</time></trkpt><trkpt lat="43.599486322286026" lon="12.49971496070591"><ele>352.0</ele><time>2026-05-01T13:49:16Z</time></trkpt><trkpt lat="43.59955443165188" lon="12.499651097674247"><ele>352.0</ele><time>2026-05-01T13:49:17Z</time></trkpt><trkpt lat="43.599615598218755" lon="12.499582017470416"><ele>352.0</ele><time>2026-05-01T13:49:18Z</time></trkpt><trkpt lat="43.59968140585626" lon="12.499514618301795"><ele>352.0</ele><time>2026-05-01T13:49:19Z</time></trkpt><trkpt lat="43.599755298325285" lon="12.499440164480994"><ele>352.25</ele><time>2026-05-01T13:49:20Z</time></trkpt><trkpt lat="43.599835154257114" lon="12.499354709443839"><ele>352.5</ele><time>2026-05-01T13:49:21Z</time></trkpt><trkpt lat="43.599923307720516" lon="12.499242271201872"><ele>352.75</ele><time>2026-05-01T13:49:22Z</time></trkpt><trkpt lat="43.600028100863675" lon="12.499104066674048"><ele>353.0</ele><time>2026-05-01T13:49:23Z</time></trkpt><trkpt lat="43.60015112337379" lon="12.498934935680333"><ele>354.0</ele><time>2026-05-01T13:49:24Z</time></trkpt><trkpt lat="43.60028333043625" lon="12.498728920867634"><ele>355.0</ele><time>2026-05-01T13:49:25Z</time></trkpt><trkpt lat="43.60040177310226" lon="12.498500052985396"><ele>356.0</ele><time>2026-05-01T13:49:26Z</time></trkpt><trkpt lat="43.600518018831636" lon="12.49822479890569"><ele>356.0</ele><time>2026-05-01T13:49:27Z</time></trkpt><trkpt lat="43.600618810465114" lon="12.49794715225343"><ele>356.0</ele><time>2026-05-01T13:49:28Z</time></trkpt><trkpt lat="43.60069704980076" lon="12.497693344216328"><ele>356.0</ele><time>2026-05-01T13:49:29Z</time></trkpt><trkpt lat="43.60076380226802" lon="12.497464136963622"><ele>355.0</ele><time>2026-05-01T13:49:30Z</time></trkpt><trkpt lat="43.60085061366366" lon="12.49726270172035"><ele>354.0</ele><time>2026-05-01T13:49:31Z</time></trkpt><trkpt lat="43.60099185645922" lon="12.497071417113368"><ele>353.0</ele><time>2026-05-01T13:49:32Z</time></trkpt><trkpt lat="43.60118174626259" lon="12.496911968639797"><ele>358.0</ele><time>2026-05-01T13:49:33Z</time></trkpt><trkpt lat="43.60137336558707" lon="12.49670775863802"><ele>363.0</ele><time>2026-05-01T13:49:34Z</time></trkpt><trkpt lat="43.601570329348554" lon="12.496505949779312"><ele>363.0</ele><time>2026-05-01T13:49:35Z</time></trkpt><trkpt lat="43.60173664769466" lon="12.49629881483358"><ele>363.0</ele><time>2026-05-01T13:49:36Z</time></trkpt><trkpt lat="43.60188477488501" lon="12.49606310593189"><ele>365.0</ele><time>2026-05-01T13:49:37Z</time></trkpt><trkpt lat="43.602032071201535" lon="12.495805416934381"><ele>367.0</ele><time>2026-05-01T13:49:38Z</time></trkpt><trkpt lat="43.60216641789697" lon="12.495510224313556"><ele>362.5</ele><time>2026-05-01T13:49:39Z</time></trkpt><trkpt lat="43.60230870605186" lon="12.49519635834676"><ele>358.0</ele><time>2026-05-01T13:49:40Z</time></trkpt><trkpt lat="43.602485365388574" lon="12.494888182783694"><ele>358.0</ele><time>2026-05-01T13:49:41Z</time></trkpt><trkpt lat="43.60265587454713" lon="12.49461290210748"><ele>358.0</ele><time>2026-05-01T13:49:42Z</time></trkpt><trkpt lat="43.602830891781664" lon="12.4943379968588"><ele>357.3333333333333</ele><time>2026-05-01T13:49:43Z</time></trkpt><trkpt lat="43.6027655171067" lon="12.494067668653317"><ele>356.6666666666667</ele><time>2026-05-01T13:49:44Z</time></trkpt><trkpt lat="43.60288910013376" lon="12.493790932590352"><ele>356.0</ele><time>2026-05-01T13:49:45Z</time></trkpt><trkpt lat="43.60300338449419" lon="12.493537528679264"><ele>357.33333333333337</ele><time>2026-05-01T13:49:46.001Z</time></trkpt><trkpt lat="43.60310850957505" lon="12.493309417203617"><ele>358.6666666666667</ele><time>2026-05-01T13:49:47.001Z</time></trkpt><trkpt lat="43.60320491871972" lon="12.49309843551035"><ele>360.0</ele><time>2026-05-01T13:49:48.001Z</time></trkpt><trkpt lat="43.603308979969285" lon="12.49291633271813"><ele>360.0</ele><time>2026-05-01T13:49:49.001Z</time></trkpt><trkpt lat="43.603404029712394" lon="12.492754958753752"><ele>360.0</ele><time>2026-05-01T13:49:50.001Z</time></trkpt><trkpt lat="43.60350444176363" lon="12.492610424299388"><ele>360.0</ele><time>2026-05-01T13:49:51.001Z</time></trkpt><trkpt lat="43.60361836567576" lon="12.492466094429156"><ele>360.3333333333333</ele><time>2026-05-01T13:49:52.001Z</time></trkpt><trkpt lat="43.603732152751476" lon="12.492325070560849"><ele>360.66666666666663</ele><time>2026-05-01T13:49:53.001Z</time></trkpt><trkpt lat="43.60383501845956" lon="12.492166103657143"><ele>361.0</ele><time>2026-05-01T13:49:54.001Z</time></trkpt><trkpt lat="43.6039448282147" lon="12.492007402430765"><ele>361.0</ele><time>2026-05-01T13:49:55.001Z</time></trkpt><trkpt lat="43.604037914067874" lon="12.491812137084066"><ele>361.0</ele><time>2026-05-01T13:49:56.001Z</time></trkpt><trkpt lat="43.604137523555636" lon="12.4916064724832"><ele>361.0</ele><time>2026-05-01T13:49:57.001Z</time></trkpt><trkpt lat="43.60424258618828" lon="12.491384461486419"><ele>359.66666666666663</ele><time>2026-05-01T13:49:58.001Z</time></trkpt><trkpt lat="43.60435479627317" lon="12.491140073470051"><ele>358.3333333333333</ele><time>2026-05-01T13:49:59.001Z</time></trkpt><trkpt lat="43.60447930097694" lon="12.49087588927146"><ele>357.0</ele><time>2026-05-01T13:50:00.001Z</time></trkpt><trkpt lat="43.604620094137275" lon="12.490596803367328"><ele>358.6666666666667</ele><time>2026-05-01T13:50:01.001Z</time></trkpt><trkpt lat="43.60475085433025" lon="12.490347535059641"><ele>360.33333333333337</ele><time>2026-05-01T13:50:02.001Z</time></trkpt><trkpt lat="43.60489358659577" lon="12.490150543015984"><ele>362.0</ele><time>2026-05-01T13:50:03.001Z</time></trkpt><trkpt lat="43.60505649068415" lon="12.489994981677853"><ele>362.0</ele><time>2026-05-01T13:50:04.001Z</time></trkpt><trkpt lat="43.605238965005775" lon="12.489876326879989"><ele>362.0</ele><time>2026-05-01T13:50:05.001Z</time></trkpt><trkpt lat="43.60544428311796" lon="12.489746614402014"><ele>362.0</ele><time>2026-05-01T13:50:06.001Z</time></trkpt><trkpt lat="43.60567862477707" lon="12.489610364775702"><ele>362.6666666666667</ele><time>2026-05-01T13:50:07.001Z</time></trkpt><trkpt lat="43.60590139493676" lon="12.489490110072168"><ele>363.3333333333333</ele><time>2026-05-01T13:50:08.001Z</time></trkpt><trkpt lat="43.60609631746395" lon="12.489386636884708"><ele>364.0</ele><time>2026-05-01T13:50:09.001Z</time></trkpt><trkpt lat="43.606273136602994" lon="12.489273518079928"><ele>367.3333333333333</ele><time>2026-05-01T13:50:10.001Z</time></trkpt><trkpt lat="43.606451930258295" lon="12.489170111582508"><ele>370.6666666666667</ele><time>2026-05-01T13:50:11.001Z</time></trkpt><trkpt lat="43.60662766751985" lon="12.489041156874315"><ele>374.0</ele><time>2026-05-01T13:50:12.001Z</time></trkpt><trkpt lat="43.606802078310494" lon="12.488872314686411"><ele>375.5</ele><time>2026-05-01T13:50:13Z</time></trkpt><trkpt lat="43.60697439958591" lon="12.488659106765894"><ele>377.0</ele><time>2026-05-01T13:50:14Z</time></trkpt><trkpt lat="43.607149330121096" lon="12.488403149498955"><ele>377.0</ele><time>2026-05-01T13:50:15Z</time></trkpt><trkpt lat="43.60733301971672" lon="12.48811749879007"><ele>377.0</ele><time>2026-05-01T13:50:16Z</time></trkpt><trkpt lat="43.60754555797011" lon="12.487835413836965"><ele>373.0</ele><time>2026-05-01T13:50:17Z</time></trkpt><trkpt lat="43.60773993616844" lon="12.487516912427637"><ele>369.0</ele><time>2026-05-01T13:50:18Z</time></trkpt><trkpt lat="43.607929729961555" lon="12.487242185245204"><ele>372.5</ele><time>2026-05-01T13:50:19Z</time></trkpt><trkpt lat="43.60811259078092" lon="12.487008180308617"><ele>376.0</ele><time>2026-05-01T13:50:20Z</time></trkpt><trkpt lat="43.60826721597111" lon="12.48677652905644"><ele>376.0</ele><time>2026-05-01T13:50:21Z</time></trkpt><trkpt lat="43.60840296378779" lon="12.486545812745494"><ele>376.0</ele><time>2026-05-01T13:50:22Z</time></trkpt><trkpt lat="43.608533613582686" lon="12.486341710242666"><ele>376.0</ele><time>2026-05-01T13:50:23Z</time></trkpt><trkpt lat="43.608652819257365" lon="12.486134681088098"><ele>379.3333333333333</ele><time>2026-05-01T13:50:24Z</time></trkpt><trkpt lat="43.60874000434488" lon="12.485915878006454"><ele>382.66666666666663</ele><time>2026-05-01T13:50:25Z</time></trkpt><trkpt lat="43.6087929616701" lon="12.485711682363332"><ele>386.0</ele><time>2026-05-01T13:50:26Z</time></trkpt><trkpt lat="43.608868451701774" lon="12.485518379256527"><ele>383.0</ele><time>2026-05-01T13:50:27Z</time></trkpt><trkpt lat="43.608979938980355" lon="12.485346875661426"><ele>380.0</ele><time>2026-05-01T13:50:28Z</time></trkpt><trkpt lat="43.6091086458608" lon="12.485189242032796"><ele>377.0</ele><time>2026-05-01T13:50:29Z</time></trkpt><trkpt lat="43.609239226368864" lon="12.485023896078255"><ele>377.0</ele><time>2026-05-01T13:50:30Z</time></trkpt><trkpt lat="43.60938905225726" lon="12.484887794757793"><ele>377.0</ele><time>2026-05-01T13:50:31Z</time></trkpt><trkpt lat="43.609534264429094" lon="12.484749323126325"><ele>377.0</ele><time>2026-05-01T13:50:32Z</time></trkpt><trkpt lat="43.60967801428847" lon="12.484611053619606"><ele>376.0</ele><time>2026-05-01T13:50:33Z</time></trkpt><trkpt lat="43.6098219439026" lon="12.484475726732848"><ele>375.0</ele><time>2026-05-01T13:50:34Z</time></trkpt><trkpt lat="43.60996071547648" lon="12.48434238392934"><ele>374.0</ele><time>2026-05-01T13:50:35Z</time></trkpt><trkpt lat="43.610092903869536" lon="12.484198518883698"><ele>374.0</ele><time>2026-05-01T13:50:36Z</time></trkpt><trkpt lat="43.61021782225107" lon="12.484056724358506"><ele>374.0</ele><time>2026-05-01T13:50:37Z</time></trkpt><trkpt lat="43.61034073984892" lon="12.48393362726197"><ele>374.0</ele><time>2026-05-01T13:50:38Z</time></trkpt><trkpt lat="43.61045194834491" lon="12.483816498670054"><ele>375.75</ele><time>2026-05-01T13:50:39Z</time></trkpt><trkpt lat="43.61055335811214" lon="12.48370969043187"><ele>377.5</ele><time>2026-05-01T13:50:40Z</time></trkpt><trkpt lat="43.61057520790399" lon="12.48348703202054"><ele>379.25</ele><time>2026-05-01T13:50:41Z</time></trkpt><trkpt lat="43.61061826485705" lon="12.483328453821752"><ele>381.0</ele><time>2026-05-01T13:50:42Z</time></trkpt><trkpt lat="43.61064721701952" lon="12.483162152774334"><ele>381.0</ele><time>2026-05-01T13:50:43Z</time></trkpt><trkpt lat="43.61066147903499" lon="12.482984604673588"><ele>381.0</ele><time>2026-05-01T13:50:44Z</time></trkpt><trkpt lat="43.61067337276124" lon="12.482806693139755"><ele>381.0</ele><time>2026-05-01T13:50:45Z</time></trkpt><trkpt lat="43.61068806366513" lon="12.482627908617154"><ele>381.0</ele><time>2026-05-01T13:50:46Z</time></trkpt><trkpt lat="43.610709543284386" lon="12.482457554951623"><ele>381.5</ele><time>2026-05-01T13:50:47Z</time></trkpt><trkpt lat="43.610752492581206" lon="12.482297191411163"><ele>382.0</ele><time>2026-05-01T13:50:48Z</time></trkpt><trkpt lat="43.61083049970926" lon="12.48214122347165"><ele>382.5</ele><time>2026-05-01T13:50:49Z</time></trkpt><trkpt lat="43.61092825245447" lon="12.481996803821017"><ele>383.0</ele><time>2026-05-01T13:50:50Z</time></trkpt><trkpt lat="43.611033424230754" lon="12.481844547377932"><ele>384.6666666666667</ele><time>2026-05-01T13:50:51Z</time></trkpt><trkpt lat="43.61114487674361" lon="12.481684397908227"><ele>386.33333333333337</ele><time>2026-05-01T13:50:52Z</time></trkpt><trkpt lat="43.61126153153114" lon="12.481512466681187"><ele>388.0</ele><time>2026-05-01T13:50:53Z</time></trkpt><trkpt lat="43.61138286268647" lon="12.481330447381476"><ele>385.33333333333337</ele><time>2026-05-01T13:50:54Z</time></trkpt><trkpt lat="43.611506112392114" lon="12.48113089585622"><ele>382.6666666666667</ele><time>2026-05-01T13:50:55Z</time></trkpt><trkpt lat="43.6116343653066" lon="12.480920047439716"><ele>380.0</ele><time>2026-05-01T13:50:56Z</time></trkpt><trkpt lat="43.61176734378678" lon="12.480695221312196"><ele>380.0</ele><time>2026-05-01T13:50:57Z</time></trkpt><trkpt lat="43.61189075516634" lon="12.480450388644238"><ele>380.0</ele><time>2026-05-01T13:50:58Z</time></trkpt><trkpt lat="43.612010632353424" lon="12.48018465430267"><ele>380.0</ele><time>2026-05-01T13:50:59Z</time></trkpt><trkpt lat="43.612129930656145" lon="12.47990074086825"><ele>379.5</ele><time>2026-05-01T13:51:00Z</time></trkpt><trkpt lat="43.61223996181503" lon="12.479596781063323"><ele>379.0</ele><time>2026-05-01T13:51:01Z</time></trkpt><trkpt lat="43.61234151119393" lon="12.479276896954161"><ele>379.0</ele><time>2026-05-01T13:51:02Z</time></trkpt><trkpt lat="43.612439018668624" lon="12.478957478728258"><ele>379.0</ele><time>2026-05-01T13:51:03Z</time></trkpt><trkpt lat="43.612531119951974" lon="12.478661436610073"><ele>378.66666666666663</ele><time>2026-05-01T13:51:04Z</time></trkpt><trkpt lat="43.61262047254368" lon="12.478394455833365"><ele>378.3333333333333</ele><time>2026-05-01T13:51:05Z</time></trkpt><trkpt lat="43.612702905844664" lon="12.4781359881367"><ele>378.0</ele><time>2026-05-01T13:51:06Z</time></trkpt><trkpt lat="43.612779096872366" lon="12.477885026317038"><ele>378.3333333333333</ele><time>2026-05-01T13:51:07Z</time></trkpt><trkpt lat="43.61285654940608" lon="12.477655314550253"><ele>378.66666666666663</ele><time>2026-05-01T13:51:08Z</time></trkpt><trkpt lat="43.61293123301805" lon="12.477439147962071"><ele>379.0</ele><time>2026-05-01T13:51:09Z</time></trkpt><trkpt lat="43.61301182720319" lon="12.47721879252491"><ele>377.3333333333333</ele><time>2026-05-01T13:51:10Z</time></trkpt><trkpt lat="43.61310281333371" lon="12.476983491519718"><ele>375.6666666666667</ele><time>2026-05-01T13:51:11Z</time></trkpt><trkpt lat="43.61321219941909" lon="12.4767384999931"><ele>374.0</ele><time>2026-05-01T13:51:12Z</time></trkpt><trkpt lat="43.61332281542152" lon="12.476468205230875"><ele>374.5</ele><time>2026-05-01T13:51:13Z</time></trkpt><trkpt lat="43.61344305382025" lon="12.476169455287408"><ele>375.0</ele><time>2026-05-01T13:51:14Z</time></trkpt><trkpt lat="43.61358234780999" lon="12.475861801553814"><ele>376.0</ele><time>2026-05-01T13:51:15Z</time></trkpt><trkpt lat="43.613737062514275" lon="12.475542111075947"><ele>377.0</ele><time>2026-05-01T13:51:16Z</time></trkpt><trkpt lat="43.613887351739464" lon="12.475216981462243"><ele>377.0</ele><time>2026-05-01T13:51:17Z</time></trkpt><trkpt lat="43.61402060862824" lon="12.474893266507769"><ele>377.0</ele><time>2026-05-01T13:51:18Z</time></trkpt><trkpt lat="43.6141447680975" lon="12.474603541757256"><ele>374.33333333333337</ele><time>2026-05-01T13:51:19Z</time></trkpt><trkpt lat="43.61425403779152" lon="12.474346529865658"><ele>371.6666666666667</ele><time>2026-05-01T13:51:20Z</time></trkpt><trkpt lat="43.61435189639121" lon="12.474134497705762"><ele>369.0</ele><time>2026-05-01T13:51:21Z</time></trkpt><trkpt lat="43.61445344764523" lon="12.47397091959303"><ele>370.3333333333333</ele><time>2026-05-01T13:51:22Z</time></trkpt><trkpt lat="43.61458446603451" lon="12.473858946502117"><ele>371.66666666666663</ele><time>2026-05-01T13:51:23Z</time></trkpt><trkpt lat="43.614754328467185" lon="12.473783179447569"><ele>373.0</ele><time>2026-05-01T13:51:24Z</time></trkpt><trkpt lat="43.614964547322856" lon="12.473744138829632"><ele>373.0</ele><time>2026-05-01T13:51:25Z</time></trkpt><trkpt lat="43.61519836372769" lon="12.473700574750128"><ele>373.0</ele><time>2026-05-01T13:51:26Z</time></trkpt><trkpt lat="43.61544898038655" lon="12.473641803087222"><ele>376.0</ele><time>2026-05-01T13:51:27Z</time></trkpt><trkpt lat="43.615713762556034" lon="12.473574652972452"><ele>379.0</ele><time>2026-05-01T13:51:28Z</time></trkpt><trkpt lat="43.61597979775833" lon="12.473497666315161"><ele>382.0</ele><time>2026-05-01T13:51:29Z</time></trkpt><trkpt lat="43.61624889377624" lon="12.47342145199037"><ele>385.0</ele><time>2026-05-01T13:51:30Z</time></trkpt><trkpt lat="43.61649256839225" lon="12.473362848643017"><ele>385.0</ele><time>2026-05-01T13:51:31Z</time></trkpt><trkpt lat="43.616709366009616" lon="12.473311575960732"><ele>385.0</ele><time>2026-05-01T13:51:32Z</time></trkpt><trkpt lat="43.616916419152815" lon="12.473266151574922"><ele>385.0</ele><time>2026-05-01T13:51:33Z</time></trkpt><trkpt lat="43.61712602914772" lon="12.473255026536453"><ele>386.0</ele><time>2026-05-01T13:51:34.001Z</time></trkpt><trkpt lat="43.6173490689654" lon="12.473308092549017"><ele>387.0</ele><time>2026-05-01T13:51:35.001Z</time></trkpt><trkpt lat="43.61755771216562" lon="12.473404142331693"><ele>388.0</ele><time>2026-05-01T13:51:36.001Z</time></trkpt><trkpt lat="43.61774503600903" lon="12.473544302690035"><ele>390.0</ele><time>2026-05-01T13:51:37.001Z</time></trkpt><trkpt lat="43.61792654451483" lon="12.473726925774736"><ele>392.0</ele><time>2026-05-01T13:51:38.001Z</time></trkpt><trkpt lat="43.61809715651961" lon="12.47394277220537"><ele>392.5</ele><time>2026-05-01T13:51:39.001Z</time></trkpt><trkpt lat="43.61826947543359" lon="12.4741679703857"><ele>393.0</ele><time>2026-05-01T13:51:40.001Z</time></trkpt><trkpt lat="43.61845475755818" lon="12.474392788917319"><ele>396.5</ele><time>2026-05-01T13:51:41.001Z</time></trkpt><trkpt lat="43.618642163119084" lon="12.474616609113086"><ele>400.0</ele><time>2026-05-01T13:51:42.001Z</time></trkpt><trkpt lat="43.618823974479064" lon="12.474825060080926"><ele>400.0</ele><time>2026-05-01T13:51:43.001Z</time></trkpt><trkpt lat="43.61898527084807" lon="12.475006697791112"><ele>400.0</ele><time>2026-05-01T13:51:44.001Z</time></trkpt><trkpt lat="43.61913668437029" lon="12.47517923525218"><ele>400.0</ele><time>2026-05-01T13:51:45.001Z</time></trkpt><trkpt lat="43.61931000534247" lon="12.475332780605175"><ele>405.0</ele><time>2026-05-01T13:51:46.001Z</time></trkpt><trkpt lat="43.61951831471268" lon="12.475449912998911"><ele>410.0</ele><time>2026-05-01T13:51:47.001Z</time></trkpt><trkpt lat="43.6197576584357" lon="12.475545394144474"><ele>410.0</ele><time>2026-05-01T13:51:48.001Z</time></trkpt><trkpt lat="43.62000996364407" lon="12.475644241467075"><ele>410.0</ele><time>2026-05-01T13:51:49.001Z</time></trkpt><trkpt lat="43.62025069910078" lon="12.475751007515782"><ele>409.66666666666663</ele><time>2026-05-01T13:51:50.001Z</time></trkpt><trkpt lat="43.62047923814094" lon="12.475851408318439"><ele>409.33333333333337</ele><time>2026-05-01T13:51:51.001Z</time></trkpt><trkpt lat="43.62066891501346" lon="12.47593218588093"><ele>409.0</ele><time>2026-05-01T13:51:52.001Z</time></trkpt><trkpt lat="43.62083106119568" lon="12.476000314857538"><ele>409.0</ele><time>2026-05-01T13:51:53.001Z</time></trkpt><trkpt lat="43.620960479608904" lon="12.476017708114602"><ele>409.0</ele><time>2026-05-01T13:51:54.001Z</time></trkpt><trkpt lat="43.62109266509955" lon="12.475969441770461"><ele>409.0</ele><time>2026-05-01T13:51:55.001Z</time></trkpt><trkpt lat="43.621227093304455" lon="12.475855933329441"><ele>409.0</ele><time>2026-05-01T13:51:56.001Z</time></trkpt><trkpt lat="43.62134256635266" lon="12.475675165445086"><ele>410.33333333333337</ele><time>2026-05-01T13:51:57.001Z</time></trkpt><trkpt lat="43.62143836768931" lon="12.475456408911109"><ele>411.66666666666663</ele><time>2026-05-01T13:51:58.001Z</time></trkpt><trkpt lat="43.621554348230184" lon="12.475233025343341"><ele>413.0</ele><time>2026-05-01T13:51:59.001Z</time></trkpt><trkpt lat="43.6216863966362" lon="12.475052806545415"><ele>413.0</ele><time>2026-05-01T13:52:00.001Z</time></trkpt><trkpt lat="43.62184202434718" lon="12.474921857809678"><ele>413.0</ele><time>2026-05-01T13:52:01.001Z</time></trkpt><trkpt lat="43.622001397759995" lon="12.474853794679468"><ele>413.0</ele><time>2026-05-01T13:52:02.001Z</time></trkpt><trkpt lat="43.62217257138323" lon="12.474844917985003"><ele>417.0</ele><time>2026-05-01T13:52:03.001Z</time></trkpt><trkpt lat="43.62234419783269" lon="12.474882618827307"><ele>421.0</ele><time>2026-05-01T13:52:04.001Z</time></trkpt><trkpt lat="43.62250332949531" lon="12.474978210935241"><ele>425.0</ele><time>2026-05-01T13:52:05.001Z</time></trkpt><trkpt lat="43.62263044982029" lon="12.475134610903465"><ele>425.0</ele><time>2026-05-01T13:52:06.001Z</time></trkpt><trkpt lat="43.622746094090324" lon="12.475300907893299"><ele>425.0</ele><time>2026-05-01T13:52:07.001Z</time></trkpt><trkpt lat="43.622867021900696" lon="12.475430904677532"><ele>425.0</ele><time>2026-05-01T13:52:08.001Z</time></trkpt><trkpt lat="43.62302256753667" lon="12.475520249324727"><ele>429.3333333333333</ele><time>2026-05-01T13:52:09.001Z</time></trkpt><trkpt lat="43.623194829967694" lon="12.475575868271656"><ele>433.66666666666663</ele><time>2026-05-01T13:52:10.001Z</time></trkpt><trkpt lat="43.62336104588269" lon="12.475680898577272"><ele>438.0</ele><time>2026-05-01T13:52:11.001Z</time></trkpt><trkpt lat="43.623502320287294" lon="12.475840137443297"><ele>438.0</ele><time>2026-05-01T13:52:12.001Z</time></trkpt><trkpt lat="43.623632073405844" lon="12.47600776097622"><ele>438.0</ele><time>2026-05-01T13:52:13.001Z</time></trkpt><trkpt lat="43.62377605551398" lon="12.476198219559253"><ele>438.0</ele><time>2026-05-01T13:52:14.001Z</time></trkpt><trkpt lat="43.623933433976944" lon="12.476390493955606"><ele>440.0</ele><time>2026-05-01T13:52:15.001Z</time></trkpt><trkpt lat="43.624057203449325" lon="12.47655417228173"><ele>442.0</ele><time>2026-05-01T13:52:16.001Z</time></trkpt><trkpt lat="43.6241497623755" lon="12.476672790704802"><ele>444.0</ele><time>2026-05-01T13:52:17.001Z</time></trkpt><trkpt lat="43.624229658380976" lon="12.476766808989167"><ele>446.0</ele><time>2026-05-01T13:52:18.001Z</time></trkpt><trkpt lat="43.62430521433734" lon="12.476790255533706"><ele>446.0</ele><time>2026-05-01T13:52:19Z</time></trkpt><trkpt lat="43.62440971020842" lon="12.47679781976481"><ele>446.0</ele><time>2026-05-01T13:52:20Z</time></trkpt><trkpt lat="43.62453392901801" lon="12.47672894856797"><ele>446.0</ele><time>2026-05-01T13:52:21Z</time></trkpt><trkpt lat="43.62468766693302" lon="12.476615613211747"><ele>446.0</ele><time>2026-05-01T13:52:22Z</time></trkpt><trkpt lat="43.624828286433726" lon="12.476494674426748"><ele>447.25</ele><time>2026-05-01T13:52:23Z</time></trkpt><trkpt lat="43.62493114224357" lon="12.476380471727497"><ele>448.5</ele><time>2026-05-01T13:52:24Z</time></trkpt><trkpt lat="43.62500448734602" lon="12.476258054597768"><ele>449.75</ele><time>2026-05-01T13:52:25Z</time></trkpt><trkpt lat="43.625025907476264" lon="12.47609744275513"><ele>451.0</ele><time>2026-05-01T13:52:26Z</time></trkpt><trkpt lat="43.62501604128996" lon="12.475908314427537"><ele>452.33333333333337</ele><time>2026-05-01T13:52:27Z</time></trkpt><trkpt lat="43.624943215409836" lon="12.475707705451661"><ele>453.66666666666663</ele><time>2026-05-01T13:52:28Z</time></trkpt><trkpt lat="43.624857452889046" lon="12.475466932094811"><ele>455.0</ele><time>2026-05-01T13:52:29Z</time></trkpt><trkpt lat="43.624769654348455" lon="12.475210028962762"><ele>456.5</ele><time>2026-05-01T13:52:30Z</time></trkpt><trkpt lat="43.62470559352773" lon="12.474988151342014"><ele>458.0</ele><time>2026-05-01T13:52:31Z</time></trkpt><trkpt lat="43.62466696589255" lon="12.47488816305753"><ele>459.5</ele><time>2026-05-01T13:52:32Z</time></trkpt><trkpt lat="43.624663701434805" lon="12.474755275382757"><ele>461.0</ele><time>2026-05-01T13:52:33Z</time></trkpt><trkpt lat="43.62471897403716" lon="12.474636897628768"><ele>460.99999999999994</ele><time>2026-05-01T13:52:34Z</time></trkpt><trkpt lat="43.62481956501496" lon="12.474577816636703"><ele>461.0</ele><time>2026-05-01T13:52:35Z</time></trkpt><trkpt lat="43.6249076009869" lon="12.474581927326845"><ele>461.0</ele><time>2026-05-01T13:52:36Z</time></trkpt><trkpt lat="43.62494311488717" lon="12.474686001612682"><ele>461.0</ele><time>2026-05-01T13:52:37Z</time></trkpt><trkpt lat="43.62496678864651" lon="12.47479473625402"><ele>460.99999999999994</ele><time>2026-05-01T13:52:38Z</time></trkpt><trkpt lat="43.62494957774074" lon="12.47488492897864"><ele>461.0</ele><time>2026-05-01T13:52:39Z</time></trkpt><trkpt lat="43.62497173262391" lon="12.475092870671453"><ele>461.0</ele><time>2026-05-01T13:52:40Z</time></trkpt><trkpt lat="43.62503180726508" lon="12.475283789232636"><ele>461.0</ele><time>2026-05-01T13:52:41Z</time></trkpt><trkpt lat="43.62513453588765" lon="12.475446594225662"><ele>461.0</ele><time>2026-05-01T13:52:42Z</time></trkpt><trkpt lat="43.62528140535492" lon="12.475611680719078"><ele>465.66666666666663</ele><time>2026-05-01T13:52:43Z</time></trkpt><trkpt lat="43.625392455479556" lon="12.475839553638297"><ele>470.33333333333337</ele><time>2026-05-01T13:52:44Z</time></trkpt><trkpt lat="43.625482855527274" lon="12.476095169338684"><ele>475.0</ele><time>2026-05-01T13:52:45Z</time></trkpt><trkpt lat="43.625544091093914" lon="12.476361446436368"><ele>475.0</ele><time>2026-05-01T13:52:46Z</time></trkpt><trkpt lat="43.62559471661844" lon="12.476600205592675"><ele>475.0</ele><time>2026-05-01T13:52:47Z</time></trkpt><trkpt lat="43.625643538186544" lon="12.476823992074413"><ele>475.0</ele><time>2026-05-01T13:52:48Z</time></trkpt><trkpt lat="43.6257032949903" lon="12.477004306232608"><ele>474.2</ele><time>2026-05-01T13:52:49Z</time></trkpt><trkpt lat="43.625736663195276" lon="12.47714934353799"><ele>473.4</ele><time>2026-05-01T13:52:50Z</time></trkpt><trkpt lat="43.62578203450686" lon="12.477254033865313"><ele>472.6</ele><time>2026-05-01T13:52:51Z</time></trkpt><trkpt lat="43.62585933719059" lon="12.477317434769839"><ele>471.8</ele><time>2026-05-01T13:52:52Z</time></trkpt><trkpt lat="43.62595246839466" lon="12.477312140486072"><ele>471.0</ele><time>2026-05-01T13:52:53Z</time></trkpt><trkpt lat="43.62604421438715" lon="12.477257022407104"><ele>471.0</ele><time>2026-05-01T13:52:54Z</time></trkpt><trkpt lat="43.6261114839375" lon="12.47714467618388"><ele>471.0</ele><time>2026-05-01T13:52:55Z</time></trkpt><trkpt lat="43.626126622735676" lon="12.47698130892214"><ele>471.0</ele><time>2026-05-01T13:52:56Z</time></trkpt><trkpt lat="43.62609003403702" lon="12.476789017397527"><ele>471.0</ele><time>2026-05-01T13:52:57Z</time></trkpt><trkpt lat="43.62601950398019" lon="12.476602657342623"><ele>472.33333333333337</ele><time>2026-05-01T13:52:58Z</time></trkpt><trkpt lat="43.625933213106094" lon="12.476336124675454"><ele>473.6666666666667</ele><time>2026-05-01T13:52:59Z</time></trkpt><trkpt lat="43.62584635769816" lon="12.476040059720859"><ele>475.0</ele><time>2026-05-01T13:53:00Z</time></trkpt><trkpt lat="43.625732053368104" lon="12.475678868661172"><ele>478.0</ele><time>2026-05-01T13:53:01Z</time></trkpt><trkpt lat="43.625660955068746" lon="12.475443610318674"><ele>481.0</ele><time>2026-05-01T13:53:02Z</time></trkpt><trkpt lat="43.62559922292095" lon="12.475239580450053"><ele>484.0</ele><time>2026-05-01T13:53:03Z</time></trkpt><trkpt lat="43.625563555830915" lon="12.47507635176383"><ele>484.0</ele><time>2026-05-01T13:53:04Z</time></trkpt><trkpt lat="43.625560776420684" lon="12.474948169810382"><ele>484.0</ele><time>2026-05-01T13:53:05Z</time></trkpt><trkpt lat="43.62562643656673" lon="12.474844821657868"><ele>484.0</ele><time>2026-05-01T13:53:06Z</time></trkpt><trkpt lat="43.625702618212884" lon="12.474784605993896"><ele>484.0</ele><time>2026-05-01T13:53:07Z</time></trkpt><trkpt lat="43.6257967172666" lon="12.474755136239297"><ele>484.0</ele><time>2026-05-01T13:53:08Z</time></trkpt><trkpt lat="43.625885745154264" lon="12.474805756996266"><ele>484.0</ele><time>2026-05-01T13:53:09Z</time></trkpt><trkpt lat="43.62594194899479" lon="12.474939397651744"><ele>484.0</ele><time>2026-05-01T13:53:10Z</time></trkpt><trkpt lat="43.62592764765102" lon="12.475110844760763"><ele>484.0</ele><time>2026-05-01T13:53:11Z</time></trkpt><trkpt lat="43.62589830712584" lon="12.475283943438344"><ele>484.0</ele><time>2026-05-01T13:53:12Z</time></trkpt><trkpt lat="43.62591549325391" lon="12.475481598723336"><ele>484.33333333333337</ele><time>2026-05-01T13:53:13Z</time></trkpt><trkpt lat="43.62598804396231" lon="12.475693256675084"><ele>484.66666666666663</ele><time>2026-05-01T13:53:14Z</time></trkpt><trkpt lat="43.62610491901543" lon="12.475903402546017"><ele>485.0</ele><time>2026-05-01T13:53:15Z</time></trkpt><trkpt lat="43.626196780071844" lon="12.476064118345851"><ele>488.0</ele><time>2026-05-01T13:53:16Z</time></trkpt><trkpt lat="43.62627156993693" lon="12.47617911733286"><ele>491.0</ele><time>2026-05-01T13:53:17Z</time></trkpt><trkpt lat="43.62636936132398" lon="12.476242775140692"><ele>494.0</ele><time>2026-05-01T13:53:18Z</time></trkpt><trkpt lat="43.62650139006974" lon="12.476252803611063"><ele>497.0</ele><time>2026-05-01T13:53:19Z</time></trkpt><trkpt lat="43.62666742269592" lon="12.476191740880768"><ele>497.0</ele><time>2026-05-01T13:53:20Z</time></trkpt><trkpt lat="43.62685857600687" lon="12.476103029343472"><ele>497.0</ele><time>2026-05-01T13:53:21Z</time></trkpt><trkpt lat="43.62707308227895" lon="12.476017402994758"><ele>497.0</ele><time>2026-05-01T13:53:22Z</time></trkpt><trkpt lat="43.627303064384115" lon="12.475909310568394"><ele>501.0</ele><time>2026-05-01T13:53:23Z</time></trkpt><trkpt lat="43.62754847103656" lon="12.475817056278046"><ele>505.0</ele><time>2026-05-01T13:53:24Z</time></trkpt><trkpt lat="43.62779936290589" lon="12.475720608248004"><ele>509.0</ele><time>2026-05-01T13:53:25Z</time></trkpt><trkpt lat="43.6280211345897" lon="12.47563553196659"><ele>513.0</ele><time>2026-05-01T13:53:26.001Z</time></trkpt><trkpt lat="43.62819497501591" lon="12.475571412896077"><ele>517.0</ele><time>2026-05-01T13:53:27.001Z</time></trkpt><trkpt lat="43.62834257123326" lon="12.47550691361997"><ele>518.0</ele><time>2026-05-01T13:53:28.001Z</time></trkpt><trkpt lat="43.628472647583294" lon="12.475423849969255"><ele>519.0</ele><time>2026-05-01T13:53:29.001Z</time></trkpt><trkpt lat="43.628579951263134" lon="12.47526453315326"><ele>520.0</ele><time>2026-05-01T13:53:30.001Z</time></trkpt><trkpt lat="43.62865406350071" lon="12.475075959434067"><ele>520.0</ele><time>2026-05-01T13:53:31.001Z</time></trkpt><trkpt lat="43.62874088902335" lon="12.474933527888352"><ele>520.0</ele><time>2026-05-01T13:53:32.001Z</time></trkpt><trkpt lat="43.62879597082043" lon="12.474839389580978"><ele>520.0</ele><time>2026-05-01T13:53:33.001Z</time></trkpt><trkpt lat="43.62884907573743" lon="12.47476803021793"><ele>520.0</ele><time>2026-05-01T13:53:34.001Z</time></trkpt><trkpt lat="43.62890488580398" lon="12.474712341323494"><ele>520.0</ele><time>2026-05-01T13:53:35.001Z</time></trkpt><trkpt lat="43.62898554347281" lon="12.474715569491696"><ele>520.0</ele><time>2026-05-01T13:53:36.001Z</time></trkpt><trkpt lat="43.6290726075634" lon="12.474726478175485"><ele>520.0</ele><time>2026-05-01T13:53:37.001Z</time></trkpt><trkpt lat="43.62918732020062" lon="12.4747469503338"><ele>520.0</ele><time>2026-05-01T13:53:38.001Z</time></trkpt><trkpt lat="43.62933635129938" lon="12.474779992427203"><ele>520.0</ele><time>2026-05-01T13:53:39.001Z</time></trkpt><trkpt lat="43.62950328171293" lon="12.47481685881863"><ele>520.0</ele><time>2026-05-01T13:53:40.001Z</time></trkpt><trkpt lat="43.62966540667114" lon="12.474848003507809"><ele>520.5</ele><time>2026-05-01T13:53:41.001Z</time></trkpt><trkpt lat="43.629805740056995" lon="12.474869230674168"><ele>521.0</ele><time>2026-05-01T13:53:42.001Z</time></trkpt><trkpt lat="43.62993981317838" lon="12.474853472572274"><ele>521.5</ele><time>2026-05-01T13:53:43.001Z</time></trkpt><trkpt lat="43.63006307233902" lon="12.474781480886593"><ele>522.0</ele><time>2026-05-01T13:53:44.001Z</time></trkpt><trkpt lat="43.63017227572855" lon="12.474589884069832"><ele>522.0</ele><time>2026-05-01T13:53:45.001Z</time></trkpt><trkpt lat="43.630289098502224" lon="12.474365962680151"><ele>522.0</ele><time>2026-05-01T13:53:46.001Z</time></trkpt><trkpt lat="43.63044268717651" lon="12.474165372350335"><ele>522.0</ele><time>2026-05-01T13:53:47.001Z</time></trkpt><trkpt lat="43.63061053638702" lon="12.473980124219782"><ele>524.3333333333334</ele><time>2026-05-01T13:53:48.001Z</time></trkpt><trkpt lat="43.63077632908135" lon="12.473820301023606"><ele>526.6666666666667</ele><time>2026-05-01T13:53:49.001Z</time></trkpt><trkpt lat="43.63092286407586" lon="12.473673128174894"><ele>529.0</ele><time>2026-05-01T13:53:50.001Z</time></trkpt><trkpt lat="43.63106127340516" lon="12.47352818379747"><ele>532.0</ele><time>2026-05-01T13:53:51.001Z</time></trkpt><trkpt lat="43.631178180680465" lon="12.473404033789121"><ele>535.0</ele><time>2026-05-01T13:53:52.001Z</time></trkpt><trkpt lat="43.63127288707563" lon="12.473272157408168"><ele>538.0</ele><time>2026-05-01T13:53:53.001Z</time></trkpt><trkpt lat="43.63135542195419" lon="12.473187187519878"><ele>541.0</ele><time>2026-05-01T13:53:54.001Z</time></trkpt><trkpt lat="43.63144640804439" lon="12.473103356572233"><ele>541.0</ele><time>2026-05-01T13:53:55.001Z</time></trkpt><trkpt lat="43.63155405290321" lon="12.47295522189518"><ele>541.0</ele><time>2026-05-01T13:53:56.001Z</time></trkpt><trkpt lat="43.631672774277774" lon="12.472751170272444"><ele>541.0</ele><time>2026-05-01T13:53:57.001Z</time></trkpt><trkpt lat="43.6317779903439" lon="12.472540309833201"><ele>538.6666666666667</ele><time>2026-05-01T13:53:58.001Z</time></trkpt><trkpt lat="43.631882168723166" lon="12.472302627493162"><ele>536.3333333333334</ele><time>2026-05-01T13:53:59.001Z</time></trkpt><trkpt lat="43.631966442874024" lon="12.472077232539426"><ele>534.0</ele><time>2026-05-01T13:54:00.001Z</time></trkpt><trkpt lat="43.63204584413993" lon="12.471926756247743"><ele>533.6</ele><time>2026-05-01T13:54:01.001Z</time></trkpt><trkpt lat="43.63212729426409" lon="12.47182272406284"><ele>533.2</ele><time>2026-05-01T13:54:02.001Z</time></trkpt><trkpt lat="43.63222383366119" lon="12.471810551613846"><ele>532.8000000000001</ele><time>2026-05-01T13:54:03.001Z</time></trkpt><trkpt lat="43.632318251319596" lon="12.471814277199208"><ele>532.4</ele><time>2026-05-01T13:54:04.001Z</time></trkpt><trkpt lat="43.63241898399566" lon="12.471915285739126"><ele>532.0</ele><time>2026-05-01T13:54:05.001Z</time></trkpt><trkpt lat="43.63252207142145" lon="12.472034118775692"><ele>534.5</ele><time>2026-05-01T13:54:06.001Z</time></trkpt><trkpt lat="43.63263950575144" lon="12.472141644467257"><ele>537.0</ele><time>2026-05-01T13:54:07.001Z</time></trkpt><trkpt lat="43.63274604131056" lon="12.472232775868697"><ele>539.5</ele><time>2026-05-01T13:54:08.001Z</time></trkpt><trkpt lat="43.63285185108778" lon="12.47225612425571"><ele>542.0</ele><time>2026-05-01T13:54:09.001Z</time></trkpt><trkpt lat="43.632968284527585" lon="12.472213286883468"><ele>539.3333333333333</ele><time>2026-05-01T13:54:10.001Z</time></trkpt><trkpt lat="43.63306879405936" lon="12.472082819807468"><ele>536.6666666666666</ele><time>2026-05-01T13:54:11.001Z</time></trkpt><trkpt lat="43.633170563333344" lon="12.471879842078097"><ele>534.0</ele><time>2026-05-01T13:54:12.001Z</time></trkpt><trkpt lat="43.63328600615636" lon="12.471696547644921"><ele>534.0</ele><time>2026-05-01T13:54:13.001Z</time></trkpt><trkpt lat="43.63339667277489" lon="12.471568748222666"><ele>534.0</ele><time>2026-05-01T13:54:14.001Z</time></trkpt><trkpt lat="43.6335227489916" lon="12.471522819522923"><ele>534.0</ele><time>2026-05-01T13:54:15.001Z</time></trkpt><trkpt lat="43.63365808198432" lon="12.47149948636271"><ele>534.0</ele><time>2026-05-01T13:54:16.001Z</time></trkpt><trkpt lat="43.63381013156357" lon="12.471484620034756"><ele>534.6666666666666</ele><time>2026-05-01T13:54:17.001Z</time></trkpt><trkpt lat="43.633969049830846" lon="12.471438222333278"><ele>535.3333333333333</ele><time>2026-05-01T13:54:18.001Z</time></trkpt><trkpt lat="43.63413194051825" lon="12.471379829129084"><ele>536.0</ele><time>2026-05-01T13:54:19.001Z</time></trkpt><trkpt lat="43.63429128204227" lon="12.471264887493259"><ele>531.6666666666666</ele><time>2026-05-01T13:54:20.001Z</time></trkpt><trkpt lat="43.63444383369952" lon="12.471102077127442"><ele>527.3333333333334</ele><time>2026-05-01T13:54:21.001Z</time></trkpt><trkpt lat="43.634590259652725" lon="12.47091423334412"><ele>523.0</ele><time>2026-05-01T13:54:22.001Z</time></trkpt><trkpt lat="43.634723802318206" lon="12.470708622104672"><ele>523.0</ele><time>2026-05-01T13:54:23.001Z</time></trkpt><trkpt lat="43.634844479573694" lon="12.470538854613915"><ele>523.0</ele><time>2026-05-01T13:54:24.001Z</time></trkpt><trkpt lat="43.63494976958131" lon="12.470414498528022"><ele>523.0</ele><time>2026-05-01T13:54:25Z</time></trkpt><trkpt lat="43.6350405908124" lon="12.470332338191541"><ele>523.0</ele><time>2026-05-01T13:54:26Z</time></trkpt><trkpt lat="43.63515165583338" lon="12.47029208824805"><ele>521.5</ele><time>2026-05-01T13:54:27Z</time></trkpt><trkpt lat="43.63528082058395" lon="12.470344557795478"><ele>520.0</ele><time>2026-05-01T13:54:28Z</time></trkpt><trkpt lat="43.6354228735411" lon="12.470420794709081"><ele>518.5</ele><time>2026-05-01T13:54:29Z</time></trkpt><trkpt lat="43.63557331918237" lon="12.470495701691373"><ele>517.0</ele><time>2026-05-01T13:54:30Z</time></trkpt><trkpt lat="43.63570893506776" lon="12.470559016788123"><ele>517.0</ele><time>2026-05-01T13:54:31Z</time></trkpt><trkpt lat="43.635817327610994" lon="12.470571156564171"><ele>517.0</ele><time>2026-05-01T13:54:32Z</time></trkpt><trkpt lat="43.635923788077264" lon="12.470530326806072"><ele>517.0</ele><time>2026-05-01T13:54:33Z</time></trkpt><trkpt lat="43.636037694418896" lon="12.470436641403055"><ele>517.0</ele><time>2026-05-01T13:54:34Z</time></trkpt><trkpt lat="43.63614689346058" lon="12.470290789170452"><ele>512.75</ele><time>2026-05-01T13:54:35Z</time></trkpt><trkpt lat="43.63626861176605" lon="12.470147754045245"><ele>508.5</ele><time>2026-05-01T13:54:36Z</time></trkpt><trkpt lat="43.63639368171558" lon="12.47006280841047"><ele>504.25</ele><time>2026-05-01T13:54:37Z</time></trkpt><trkpt lat="43.63649831620871" lon="12.470007743637792"><ele>500.0</ele><time>2026-05-01T13:54:38Z</time></trkpt><trkpt lat="43.63660106585665" lon="12.470013722672265"><ele>500.0</ele><time>2026-05-01T13:54:39Z</time></trkpt><trkpt lat="43.63669963453834" lon="12.470071162507102"><ele>500.0</ele><time>2026-05-01T13:54:40Z</time></trkpt><trkpt lat="43.636778164698654" lon="12.47020862243199"><ele>500.0</ele><time>2026-05-01T13:54:41Z</time></trkpt><trkpt lat="43.63678182346417" lon="12.470387578953826"><ele>500.0</ele><time>2026-05-01T13:54:42Z</time></trkpt><trkpt lat="43.63679373021188" lon="12.470584447089687"><ele>502.75</ele><time>2026-05-01T13:54:43Z</time></trkpt><trkpt lat="43.636816210643886" lon="12.470789503374437"><ele>505.5</ele><time>2026-05-01T13:54:44Z</time></trkpt><trkpt lat="43.6368348665422" lon="12.470984976803985"><ele>508.25</ele><time>2026-05-01T13:54:45Z</time></trkpt><trkpt lat="43.63688441796929" lon="12.47113426295647"><ele>511.0</ele><time>2026-05-01T13:54:46Z</time></trkpt><trkpt lat="43.636963671342215" lon="12.471297499401384"><ele>505.6666666666667</ele><time>2026-05-01T13:54:47Z</time></trkpt><trkpt lat="43.63706554019929" lon="12.47143193212644"><ele>500.33333333333337</ele><time>2026-05-01T13:54:48Z</time></trkpt><trkpt lat="43.63721513821096" lon="12.471544247584516"><ele>495.0</ele><time>2026-05-01T13:54:49Z</time></trkpt><trkpt lat="43.637387160421355" lon="12.4716301688898"><ele>495.0</ele><time>2026-05-01T13:54:50Z</time></trkpt><trkpt lat="43.637564755651454" lon="12.4717041592525"><ele>495.0</ele><time>2026-05-01T13:54:51Z</time></trkpt><trkpt lat="43.63775581734583" lon="12.471788542326177"><ele>495.0</ele><time>2026-05-01T13:54:52Z</time></trkpt><trkpt lat="43.63791920575722" lon="12.471901969246586"><ele>492.66666666666663</ele><time>2026-05-01T13:54:53Z</time></trkpt><trkpt lat="43.63805987889292" lon="12.472005757259483"><ele>490.3333333333333</ele><time>2026-05-01T13:54:54Z</time></trkpt><trkpt lat="43.63818538655678" lon="12.47214061232587"><ele>488.0</ele><time>2026-05-01T13:54:55Z</time></trkpt><trkpt lat="43.63830506525747" lon="12.472304656822123"><ele>488.0</ele><time>2026-05-01T13:54:56Z</time></trkpt><trkpt lat="43.63842893582996" lon="12.472468858481404"><ele>488.0</ele><time>2026-05-01T13:54:57Z</time></trkpt><trkpt lat="43.63853127904052" lon="12.472634443686802"><ele>488.0</ele><time>2026-05-01T13:54:58Z</time></trkpt><trkpt lat="43.63863434772519" lon="12.472775592539913"><ele>482.0</ele><time>2026-05-01T13:54:59Z</time></trkpt><trkpt lat="43.63875601261323" lon="12.472870754016027"><ele>476.0</ele><time>2026-05-01T13:55:00Z</time></trkpt><trkpt lat="43.63890010590969" lon="12.472929717131814"><ele>470.0</ele><time>2026-05-01T13:55:01Z</time></trkpt><trkpt lat="43.63907183643075" lon="12.472936101411987"><ele>470.0</ele><time>2026-05-01T13:55:02Z</time></trkpt><trkpt lat="43.639261597896414" lon="12.472932387364907"><ele>470.0</ele><time>2026-05-01T13:55:03Z</time></trkpt><trkpt lat="43.63945721444224" lon="12.472954709456875"><ele>470.0</ele><time>2026-05-01T13:55:04Z</time></trkpt><trkpt lat="43.639628185031" lon="12.472956258159034"><ele>470.5</ele><time>2026-05-01T13:55:05Z</time></trkpt><trkpt lat="43.639773697193725" lon="12.472980659463898"><ele>471.0</ele><time>2026-05-01T13:55:06Z</time></trkpt><trkpt lat="43.639902786149925" lon="12.473060498606547"><ele>471.5</ele><time>2026-05-01T13:55:07Z</time></trkpt><trkpt lat="43.64002424732229" lon="12.473190057565287"><ele>472.0</ele><time>2026-05-01T13:55:08Z</time></trkpt><trkpt lat="43.64015677009721" lon="12.473353760338991"><ele>468.6666666666667</ele><time>2026-05-01T13:55:09Z</time></trkpt><trkpt lat="43.640314327242095" lon="12.47353468929404"><ele>465.33333333333337</ele><time>2026-05-01T13:55:10Z</time></trkpt><trkpt lat="43.64048189355928" lon="12.473751331445435"><ele>462.0</ele><time>2026-05-01T13:55:11Z</time></trkpt><trkpt lat="43.64066743131216" lon="12.473972639248736"><ele>462.0</ele><time>2026-05-01T13:55:12Z</time></trkpt><trkpt lat="43.64084787590887" lon="12.474198518457849"><ele>462.0</ele><time>2026-05-01T13:55:13Z</time></trkpt><trkpt lat="43.641015614281955" lon="12.474416713258545"><ele>458.33333333333337</ele><time>2026-05-01T13:55:14Z</time></trkpt><trkpt lat="43.64117060714356" lon="12.474627553535761"><ele>454.6666666666667</ele><time>2026-05-01T13:55:15Z</time></trkpt><trkpt lat="43.6412959708866" lon="12.474875373299968"><ele>451.0</ele><time>2026-05-01T13:55:16Z</time></trkpt><trkpt lat="43.64141601413336" lon="12.47513764261399"><ele>451.0</ele><time>2026-05-01T13:55:17Z</time></trkpt><trkpt lat="43.64153764266759" lon="12.47541657041542"><ele>451.0</ele><time>2026-05-01T13:55:18Z</time></trkpt><trkpt lat="43.641676698350075" lon="12.475678031881277"><ele>452.5</ele><time>2026-05-01T13:55:19Z</time></trkpt><trkpt lat="43.641824225978496" lon="12.47594043001828"><ele>454.0</ele><time>2026-05-01T13:55:20Z</time></trkpt><trkpt lat="43.641995578519825" lon="12.47618944791179"><ele>452.0</ele><time>2026-05-01T13:55:21.001Z</time></trkpt><trkpt lat="43.64217089592597" lon="12.476423122636431"><ele>450.0</ele><time>2026-05-01T13:55:22.001Z</time></trkpt><trkpt lat="43.64234103069949" lon="12.476626113909422"><ele>450.0</ele><time>2026-05-01T13:55:23.001Z</time></trkpt><trkpt lat="43.642489759285056" lon="12.476855430785127"><ele>450.0</ele><time>2026-05-01T13:55:24.001Z</time></trkpt><trkpt lat="43.642626472381195" lon="12.47710661978595"><ele>452.5</ele><time>2026-05-01T13:55:25.001Z</time></trkpt><trkpt lat="43.64274960682317" lon="12.47735744132495"><ele>455.0</ele><time>2026-05-01T13:55:26.001Z</time></trkpt><trkpt lat="43.64288819281877" lon="12.47761566628864"><ele>448.5</ele><time>2026-05-01T13:55:27.001Z</time></trkpt><trkpt lat="43.643036906803744" lon="12.477880495103639"><ele>442.0</ele><time>2026-05-01T13:55:28.001Z</time></trkpt><trkpt lat="43.64320053840218" lon="12.478133382187469"><ele>442.0</ele><time>2026-05-01T13:55:29.001Z</time></trkpt><trkpt lat="43.643355500252646" lon="12.47841891667514"><ele>442.0</ele><time>2026-05-01T13:55:30.001Z</time></trkpt><trkpt lat="43.64349992687018" lon="12.478656303208005"><ele>437.5</ele><time>2026-05-01T13:55:31.001Z</time></trkpt><trkpt lat="43.64366034923631" lon="12.478912772341717"><ele>433.0</ele><time>2026-05-01T13:55:32.001Z</time></trkpt><trkpt lat="43.64388726809596" lon="12.479063830043215"><ele>433.0</ele><time>2026-05-01T13:55:33.001Z</time></trkpt><trkpt lat="43.64407127947759" lon="12.479249488033753"><ele>433.0</ele><time>2026-05-01T13:55:34.001Z</time></trkpt><trkpt lat="43.64428690574995" lon="12.479402900994955"><ele>434.0</ele><time>2026-05-01T13:55:35.001Z</time></trkpt><trkpt lat="43.644514227243455" lon="12.479529465327863"><ele>435.0</ele><time>2026-05-01T13:55:36.001Z</time></trkpt><trkpt lat="43.64474506404388" lon="12.47964870622727"><ele>436.33333333333337</ele><time>2026-05-01T13:55:37.001Z</time></trkpt><trkpt lat="43.64495917176029" lon="12.479753830978398"><ele>437.6666666666667</ele><time>2026-05-01T13:55:38.001Z</time></trkpt><trkpt lat="43.64515834600309" lon="12.479862790457004"><ele>439.0</ele><time>2026-05-01T13:55:39.001Z</time></trkpt><trkpt lat="43.6453510634238" lon="12.479904298501667"><ele>435.0</ele><time>2026-05-01T13:55:40.001Z</time></trkpt><trkpt lat="43.645523065314364" lon="12.479910974303252"><ele>431.0</ele><time>2026-05-01T13:55:41.001Z</time></trkpt><trkpt lat="43.645713972919026" lon="12.479873571667424"><ele>427.0</ele><time>2026-05-01T13:55:42.001Z</time></trkpt><trkpt lat="43.64589775788324" lon="12.479814663202005"><ele>427.0</ele><time>2026-05-01T13:55:43.001Z</time></trkpt><trkpt lat="43.64608057289714" lon="12.479820039220119"><ele>427.0</ele><time>2026-05-01T13:55:44.001Z</time></trkpt><trkpt lat="43.64624779120726" lon="12.479923733367585"><ele>427.0</ele><time>2026-05-01T13:55:45.001Z</time></trkpt><trkpt lat="43.64642406674008" lon="12.480065431659513"><ele>430.5</ele><time>2026-05-01T13:55:46.001Z</time></trkpt><trkpt lat="43.64661897991972" lon="12.480208715822632"><ele>434.0</ele><time>2026-05-01T13:55:47.001Z</time></trkpt><trkpt lat="43.64682407285275" lon="12.480355755027684"><ele>427.5</ele><time>2026-05-01T13:55:48.001Z</time></trkpt><trkpt lat="43.647051754667544" lon="12.480505390012645"><ele>421.0</ele><time>2026-05-01T13:55:49.001Z</time></trkpt><trkpt lat="43.64729258007337" lon="12.480662581327074"><ele>421.0</ele><time>2026-05-01T13:55:50.001Z</time></trkpt><trkpt lat="43.64753225682429" lon="12.480820117888003"><ele>421.0</ele><time>2026-05-01T13:55:51.001Z</time></trkpt><trkpt lat="43.64778599723786" lon="12.480973663722393"><ele>420.0</ele><time>2026-05-01T13:55:52.001Z</time></trkpt><trkpt lat="43.648014939826076" lon="12.481167108651958"><ele>419.0</ele><time>2026-05-01T13:55:53.001Z</time></trkpt><trkpt lat="43.64822104520572" lon="12.481372143068747"><ele>419.0</ele><time>2026-05-01T13:55:54.001Z</time></trkpt><trkpt lat="43.64842316982288" lon="12.481581768216838"><ele>419.0</ele><time>2026-05-01T13:55:55.001Z</time></trkpt><trkpt lat="43.64862996756996" lon="12.481793260834113"><ele>420.0</ele><time>2026-05-01T13:55:56.001Z</time></trkpt><trkpt lat="43.648827234146424" lon="12.481988723571531"><ele>421.0</ele><time>2026-05-01T13:55:57.001Z</time></trkpt><trkpt lat="43.64900204721574" lon="12.482170689256813"><ele>416.0</ele><time>2026-05-01T13:55:58.001Z</time></trkpt><trkpt lat="43.649165739873204" lon="12.482317168571957"><ele>411.0</ele><time>2026-05-01T13:55:59.001Z</time></trkpt><trkpt lat="43.649309351917594" lon="12.482445021599219"><ele>406.0</ele><time>2026-05-01T13:56:00.001Z</time></trkpt><trkpt lat="43.64944852012807" lon="12.482533861997105"><ele>406.6666666666667</ele><time>2026-05-01T13:56:01.001Z</time></trkpt><trkpt lat="43.64960142048977" lon="12.482609754348221"><ele>407.33333333333337</ele><time>2026-05-01T13:56:02.001Z</time></trkpt><trkpt lat="43.64976324200944" lon="12.482675852924906"><ele>408.0</ele><time>2026-05-01T13:56:03.001Z</time></trkpt><trkpt lat="43.64993340898703" lon="12.482726185923212"><ele>408.0</ele><time>2026-05-01T13:56:04.001Z</time></trkpt><trkpt lat="43.65011308745028" lon="12.482758512226425"><ele>408.0</ele><time>2026-05-01T13:56:05.001Z</time></trkpt><trkpt lat="43.65029089211875" lon="12.482759011597446"><ele>408.0</ele><time>2026-05-01T13:56:06.001Z</time></trkpt><trkpt lat="43.65047770009219" lon="12.482743435509601"><ele>408.0</ele><time>2026-05-01T13:56:07.001Z</time></trkpt><trkpt lat="43.65066493961366" lon="12.482691443388145"><ele>408.0</ele><time>2026-05-01T13:56:08.001Z</time></trkpt><trkpt lat="43.650859024738565" lon="12.482607937986012"><ele>408.0</ele><time>2026-05-01T13:56:09.001Z</time></trkpt><trkpt lat="43.65105330825671" lon="12.482495479556361"><ele>407.0</ele><time>2026-05-01T13:56:10.001Z</time></trkpt><trkpt lat="43.65123195410719" lon="12.482368503339364"><ele>406.0</ele><time>2026-05-01T13:56:11.001Z</time></trkpt><trkpt lat="43.65140328147619" lon="12.482277778790431"><ele>405.0</ele><time>2026-05-01T13:56:12.001Z</time></trkpt><trkpt lat="43.65157498332171" lon="12.482234875600971"><ele>405.0</ele><time>2026-05-01T13:56:13.001Z</time></trkpt><trkpt lat="43.65174756144181" lon="12.482269546144485"><ele>405.0</ele><time>2026-05-01T13:56:14.001Z</time></trkpt><trkpt lat="43.65193062754433" lon="12.482388358200533"><ele>405.0</ele><time>2026-05-01T13:56:15.001Z</time></trkpt><trkpt lat="43.65211064181115" lon="12.482530060753692"><ele>407.66666666666663</ele><time>2026-05-01T13:56:16.001Z</time></trkpt><trkpt lat="43.65229891082802" lon="12.482648417431639"><ele>410.3333333333333</ele><time>2026-05-01T13:56:17.001Z</time></trkpt><trkpt lat="43.65252677525566" lon="12.482721978304635"><ele>413.0</ele><time>2026-05-01T13:56:18.001Z</time></trkpt><trkpt lat="43.65277215129672" lon="12.48276424036151"><ele>416.5</ele><time>2026-05-01T13:56:19.001Z</time></trkpt><trkpt lat="43.65302939367269" lon="12.482797580644082"><ele>420.0</ele><time>2026-05-01T13:56:20.001Z</time></trkpt><trkpt lat="43.65325942380618" lon="12.482877845822502"><ele>414.0</ele><time>2026-05-01T13:56:21.001Z</time></trkpt><trkpt lat="43.65348825412706" lon="12.483005180595203"><ele>408.0</ele><time>2026-05-01T13:56:22.001Z</time></trkpt><trkpt lat="43.653715091439146" lon="12.483172718411408"><ele>408.0</ele><time>2026-05-01T13:56:23.001Z</time></trkpt><trkpt lat="43.65394038583784" lon="12.483354835089944"><ele>408.0</ele><time>2026-05-01T13:56:24.001Z</time></trkpt><trkpt lat="43.654174171570496" lon="12.483540845957501"><ele>408.0</ele><time>2026-05-01T13:56:25.001Z</time></trkpt><trkpt lat="43.65439653237085" lon="12.483719569885405"><ele>408.0</ele><time>2026-05-01T13:56:26.001Z</time></trkpt><trkpt lat="43.654608410743165" lon="12.483900726634374"><ele>403.5</ele><time>2026-05-01T13:56:27.001Z</time></trkpt><trkpt lat="43.65479628432515" lon="12.484102646405285"><ele>399.0</ele><time>2026-05-01T13:56:28.001Z</time></trkpt><trkpt lat="43.65496583331366" lon="12.484342748080843"><ele>391.0</ele><time>2026-05-01T13:56:29.001Z</time></trkpt><trkpt lat="43.65512579335641" lon="12.484615984792867"><ele>383.0</ele><time>2026-05-01T13:56:30.001Z</time></trkpt><trkpt lat="43.6552845476415" lon="12.4849050657022"><ele>382.5</ele><time>2026-05-01T13:56:31Z</time></trkpt><trkpt lat="43.65545082205091" lon="12.48519260055895"><ele>382.0</ele><time>2026-05-01T13:56:32Z</time></trkpt><trkpt lat="43.655625860979605" lon="12.485479321447372"><ele>382.0</ele><time>2026-05-01T13:56:33Z</time></trkpt><trkpt lat="43.65579862545704" lon="12.485770012446624"><ele>382.0</ele><time>2026-05-01T13:56:34Z</time></trkpt><trkpt lat="43.65597517761863" lon="12.486060881183569"><ele>383.5</ele><time>2026-05-01T13:56:35Z</time></trkpt><trkpt lat="43.65615210746264" lon="12.486361497469922"><ele>385.0</ele><time>2026-05-01T13:56:36Z</time></trkpt><trkpt lat="43.65632811847884" lon="12.486659906524634"><ele>385.0</ele><time>2026-05-01T13:56:37Z</time></trkpt><trkpt lat="43.65649859540967" lon="12.486940650466483"><ele>385.0</ele><time>2026-05-01T13:56:38Z</time></trkpt><trkpt lat="43.65666571261383" lon="12.487207304253571"><ele>384.5</ele><time>2026-05-01T13:56:39Z</time></trkpt><trkpt lat="43.65682850766379" lon="12.487474532304386"><ele>384.0</ele><time>2026-05-01T13:56:40Z</time></trkpt><trkpt lat="43.65699193532222" lon="12.48773767441427"><ele>379.5</ele><time>2026-05-01T13:56:41Z</time></trkpt><trkpt lat="43.65713686399209" lon="12.48798745223298"><ele>375.0</ele><time>2026-05-01T13:56:42Z</time></trkpt><trkpt lat="43.657277763969844" lon="12.488225053092835"><ele>375.0</ele><time>2026-05-01T13:56:43Z</time></trkpt><trkpt lat="43.65741272726309" lon="12.488452340966901"><ele>375.0</ele><time>2026-05-01T13:56:44Z</time></trkpt><trkpt lat="43.65754219352535" lon="12.488663994733072"><ele>375.0</ele><time>2026-05-01T13:56:45Z</time></trkpt><trkpt lat="43.65765392531485" lon="12.48887515154282"><ele>375.3333333333333</ele><time>2026-05-01T13:56:46Z</time></trkpt><trkpt lat="43.65773968295374" lon="12.489103166876248"><ele>375.66666666666663</ele><time>2026-05-01T13:56:47Z</time></trkpt><trkpt lat="43.657792672315445" lon="12.489377015580962"><ele>376.0</ele><time>2026-05-01T13:56:48Z</time></trkpt><trkpt lat="43.65783333205772" lon="12.489674537759182"><ele>373.0</ele><time>2026-05-01T13:56:49Z</time></trkpt><trkpt lat="43.657892378698925" lon="12.489959152662562"><ele>370.0</ele><time>2026-05-01T13:56:50Z</time></trkpt><trkpt lat="43.65796413368644" lon="12.490230455851211"><ele>367.0</ele><time>2026-05-01T13:56:51Z</time></trkpt><trkpt lat="43.65804319201007" lon="12.490484277150191"><ele>361.5</ele><time>2026-05-01T13:56:52Z</time></trkpt><trkpt lat="43.6581475903747" lon="12.490732203541956"><ele>356.0</ele><time>2026-05-01T13:56:53Z</time></trkpt><trkpt lat="43.65829516941748" lon="12.490999907130819"><ele>351.5</ele><time>2026-05-01T13:56:54Z</time></trkpt><trkpt lat="43.658455874154456" lon="12.491262720643634"><ele>347.0</ele><time>2026-05-01T13:56:55Z</time></trkpt><trkpt lat="43.65860750607517" lon="12.49154084008297"><ele>347.5</ele><time>2026-05-01T13:56:56Z</time></trkpt><trkpt lat="43.658757632431126" lon="12.491830091266104"><ele>348.0</ele><time>2026-05-01T13:56:57Z</time></trkpt><trkpt lat="43.65889891795789" lon="12.492107600281855"><ele>348.0</ele><time>2026-05-01T13:56:58Z</time></trkpt><trkpt lat="43.65903066314979" lon="12.492374654648811"><ele>348.0</ele><time>2026-05-01T13:56:59Z</time></trkpt><trkpt lat="43.65914541556898" lon="12.492636386124772"><ele>348.0</ele><time>2026-05-01T13:57:00Z</time></trkpt><trkpt lat="43.659243324823315" lon="12.492904108587076"><ele>348.0</ele><time>2026-05-01T13:57:01Z</time></trkpt><trkpt lat="43.65931202983594" lon="12.493176114573918"><ele>348.0</ele><time>2026-05-01T13:57:02Z</time></trkpt><trkpt lat="43.65936603648177" lon="12.493437671881791"><ele>347.0</ele><time>2026-05-01T13:57:03Z</time></trkpt><trkpt lat="43.65941877076633" lon="12.493660680933647"><ele>346.0</ele><time>2026-05-01T13:57:04Z</time></trkpt><trkpt lat="43.65947839317398" lon="12.493837341555269"><ele>345.0</ele><time>2026-05-01T13:57:05Z</time></trkpt><trkpt lat="43.65953217314511" lon="12.493982533375371"><ele>344.0</ele><time>2026-05-01T13:57:06Z</time></trkpt><trkpt lat="43.65961145044547" lon="12.494091710922275"><ele>344.0</ele><time>2026-05-01T13:57:07Z</time></trkpt><trkpt lat="43.65973913624998" lon="12.494170137042941"><ele>344.0</ele><time>2026-05-01T13:57:08Z</time></trkpt><trkpt lat="43.65989513378784" lon="12.494217230267346"><ele>344.0</ele><time>2026-05-01T13:57:09Z</time></trkpt><trkpt lat="43.660056957932966" lon="12.494253478700589"><ele>344.0</ele><time>2026-05-01T13:57:10Z</time></trkpt><trkpt lat="43.660209529152404" lon="12.494287380165966"><ele>344.0</ele><time>2026-05-01T13:57:11Z</time></trkpt><trkpt lat="43.6603441580338" lon="12.4943378969964"><ele>344.0</ele><time>2026-05-01T13:57:12Z</time></trkpt><trkpt lat="43.660469448813" lon="12.494414536656"><ele>344.0</ele><time>2026-05-01T13:57:13Z</time></trkpt><trkpt lat="43.66058437281861" lon="12.494518657442597"><ele>345.33333333333337</ele><time>2026-05-01T13:57:14Z</time></trkpt><trkpt lat="43.66068029783424" lon="12.49467401505768"><ele>346.6666666666667</ele><time>2026-05-01T13:57:15Z</time></trkpt><trkpt lat="43.66076169832266" lon="12.49486115496324"><ele>348.0</ele><time>2026-05-01T13:57:16Z</time></trkpt><trkpt lat="43.66084191207072" lon="12.495057846506084"><ele>348.0</ele><time>2026-05-01T13:57:17.001Z</time></trkpt><trkpt lat="43.660942662986585" lon="12.495257723268487"><ele>348.0</ele><time>2026-05-01T13:57:18.001Z</time></trkpt><trkpt lat="43.661065054634" lon="12.495451398687065"><ele>348.0</ele><time>2026-05-01T13:57:19.001Z</time></trkpt><trkpt lat="43.66119994888285" lon="12.495654872786487"><ele>348.6666666666667</ele><time>2026-05-01T13:57:20.001Z</time></trkpt><trkpt lat="43.661340370275916" lon="12.495862147368381"><ele>349.33333333333337</ele><time>2026-05-01T13:57:21.001Z</time></trkpt><trkpt lat="43.66150000716081" lon="12.496069212467162"><ele>350.0</ele><time>2026-05-01T13:57:22.001Z</time></trkpt><trkpt lat="43.66168730243983" lon="12.496278625250625"><ele>350.0</ele><time>2026-05-01T13:57:23.001Z</time></trkpt><trkpt lat="43.661894094802264" lon="12.496488000187314"><ele>350.0</ele><time>2026-05-01T13:57:24.001Z</time></trkpt><trkpt lat="43.662113273357804" lon="12.496692054610813"><ele>348.5</ele><time>2026-05-01T13:57:25.001Z</time></trkpt><trkpt lat="43.66234289254812" lon="12.496901109689203"><ele>347.0</ele><time>2026-05-01T13:57:26.001Z</time></trkpt><trkpt lat="43.66257549627685" lon="12.497122877335006"><ele>344.0</ele><time>2026-05-01T13:57:27.001Z</time></trkpt><trkpt lat="43.662811914389145" lon="12.497351010633004"><ele>341.0</ele><time>2026-05-01T13:57:28.001Z</time></trkpt><trkpt lat="43.663041456446074" lon="12.497567097877225"><ele>341.0</ele><time>2026-05-01T13:57:29.001Z</time></trkpt><trkpt lat="43.66325364160797" lon="12.497768765973664"><ele>341.0</ele><time>2026-05-01T13:57:30.001Z</time></trkpt><trkpt lat="43.66344807781514" lon="12.497957497995248"><ele>339.6666666666667</ele><time>2026-05-01T13:57:31.001Z</time></trkpt><trkpt lat="43.66363422798664" lon="12.49812636909954"><ele>338.3333333333333</ele><time>2026-05-01T13:57:32.001Z</time></trkpt><trkpt lat="43.66382540899986" lon="12.498271282149796"><ele>337.0</ele><time>2026-05-01T13:57:33.001Z</time></trkpt><trkpt lat="43.66404208686037" lon="12.498391073231788"><ele>337.0</ele><time>2026-05-01T13:57:34.001Z</time></trkpt><trkpt lat="43.664277779371815" lon="12.498478307546456"><ele>337.0</ele><time>2026-05-01T13:57:35.001Z</time></trkpt><trkpt lat="43.6645263174211" lon="12.498543349001487"><ele>336.0</ele><time>2026-05-01T13:57:36.001Z</time></trkpt><trkpt lat="43.66476088173519" lon="12.498623457039342"><ele>335.0</ele><time>2026-05-01T13:57:37.001Z</time></trkpt><trkpt lat="43.66499317740676" lon="12.498739081615783"><ele>333.0</ele><time>2026-05-01T13:57:38.001Z</time></trkpt><trkpt lat="43.66521453360103" lon="12.498883550611128"><ele>331.0</ele><time>2026-05-01T13:57:39.001Z</time></trkpt><trkpt lat="43.66542955470035" lon="12.499042884230779"><ele>331.0</ele><time>2026-05-01T13:57:40.001Z</time></trkpt><trkpt lat="43.66563772385487" lon="12.499216701266883"><ele>331.0</ele><time>2026-05-01T13:57:41.001Z</time></trkpt><trkpt lat="43.665837609459786" lon="12.499414931858624"><ele>331.0</ele><time>2026-05-01T13:57:42.001Z</time></trkpt><trkpt lat="43.666035552755574" lon="12.499627356745384"><ele>331.0</ele><time>2026-05-01T13:57:43.001Z</time></trkpt><trkpt lat="43.66624039723692" lon="12.499843328293268"><ele>331.0</ele><time>2026-05-01T13:57:44.001Z</time></trkpt><trkpt lat="43.666446534697386" lon="12.500063792125292"><ele>331.0</ele><time>2026-05-01T13:57:45.001Z</time></trkpt><trkpt lat="43.66665280800083" lon="12.500287892327323"><ele>329.5</ele><time>2026-05-01T13:57:46.001Z</time></trkpt><trkpt lat="43.66685803797015" lon="12.500510768919135"><ele>328.0</ele><time>2026-05-01T13:57:47.001Z</time></trkpt><trkpt lat="43.66706031051541" lon="12.500739765505731"><ele>328.0</ele><time>2026-05-01T13:57:48.001Z</time></trkpt><trkpt lat="43.667263445127695" lon="12.500977899345003"><ele>328.0</ele><time>2026-05-01T13:57:49.001Z</time></trkpt><trkpt lat="43.667468541921345" lon="12.501221696873172"><ele>328.0</ele><time>2026-05-01T13:57:50.001Z</time></trkpt><trkpt lat="43.6676681279348" lon="12.501460698643527"><ele>328.0</ele><time>2026-05-01T13:57:51.001Z</time></trkpt><trkpt lat="43.66786906154572" lon="12.501696808494861"><ele>328.0</ele><time>2026-05-01T13:57:52.001Z</time></trkpt><trkpt lat="43.66806780664447" lon="12.501927708829477"><ele>328.0</ele><time>2026-05-01T13:57:53.001Z</time></trkpt><trkpt lat="43.66824584617359" lon="12.502148076186653"><ele>329.3333333333333</ele><time>2026-05-01T13:57:54.001Z</time></trkpt><trkpt lat="43.66841615003392" lon="12.502351334829008"><ele>330.6666666666667</ele><time>2026-05-01T13:57:55.001Z</time></trkpt><trkpt lat="43.668574553364834" lon="12.502541206329044"><ele>332.0</ele><time>2026-05-01T13:57:56.001Z</time></trkpt><trkpt lat="43.66871045968334" lon="12.502761709141758"><ele>328.0</ele><time>2026-05-01T13:57:57.001Z</time></trkpt><trkpt lat="43.668851655677834" lon="12.502984462419006"><ele>324.0</ele><time>2026-05-01T13:57:58.001Z</time></trkpt><trkpt lat="43.669000908118804" lon="12.503207328354987"><ele>320.0</ele><time>2026-05-01T13:57:59.001Z</time></trkpt><trkpt lat="43.66913844265719" lon="12.503451641280702"><ele>320.0</ele><time>2026-05-01T13:58:00.001Z</time></trkpt><trkpt lat="43.66927726399211" lon="12.503695892876378"><ele>320.0</ele><time>2026-05-01T13:58:01.001Z</time></trkpt><trkpt lat="43.6694171312069" lon="12.503934412449338"><ele>320.0</ele><time>2026-05-01T13:58:02.001Z</time></trkpt><trkpt lat="43.66956462761625" lon="12.504165180693484"><ele>318.6666666666667</ele><time>2026-05-01T13:58:03.001Z</time></trkpt><trkpt lat="43.669725495473486" lon="12.504376659695007"><ele>317.3333333333333</ele><time>2026-05-01T13:58:04.001Z</time></trkpt><trkpt lat="43.669897450306934" lon="12.504575163720023"><ele>316.0</ele><time>2026-05-01T13:58:05.001Z</time></trkpt><trkpt lat="43.67006349955475" lon="12.504756748087848"><ele>316.3333333333333</ele><time>2026-05-01T13:58:06.001Z</time></trkpt><trkpt lat="43.67023221140167" lon="12.504925350069184"><ele>316.6666666666667</ele><time>2026-05-01T13:58:07.001Z</time></trkpt><trkpt lat="43.670387797965546" lon="12.50507870100174"><ele>317.0</ele><time>2026-05-01T13:58:08.001Z</time></trkpt><trkpt lat="43.670530781292584" lon="12.505235749000574"><ele>317.0</ele><time>2026-05-01T13:58:09.001Z</time></trkpt><trkpt lat="43.67066815883659" lon="12.50538539461781"><ele>317.0</ele><time>2026-05-01T13:58:10.001Z</time></trkpt><trkpt lat="43.67080472565096" lon="12.505518635709105"><ele>317.0</ele><time>2026-05-01T13:58:11.001Z</time></trkpt><trkpt lat="43.67093322005859" lon="12.505645525033044"><ele>315.6666666666667</ele><time>2026-05-01T13:58:12.001Z</time></trkpt><trkpt lat="43.6710622550876" lon="12.505767766408923"><ele>314.3333333333333</ele><time>2026-05-01T13:58:13.001Z</time></trkpt><trkpt lat="43.6711920162381" lon="12.505897227481146"><ele>313.0</ele><time>2026-05-01T13:58:14.001Z</time></trkpt><trkpt lat="43.67130396186588" lon="12.506046535915115"><ele>313.0</ele><time>2026-05-01T13:58:15.001Z</time></trkpt><trkpt lat="43.67142952704154" lon="12.506213228510854"><ele>313.0</ele><time>2026-05-01T13:58:16.001Z</time></trkpt><trkpt lat="43.6715389264571" lon="12.50637796741298"><ele>313.0</ele><time>2026-05-01T13:58:17.001Z</time></trkpt><trkpt lat="43.67164636360382" lon="12.506548533897575"><ele>314.3333333333333</ele><time>2026-05-01T13:58:18.001Z</time></trkpt><trkpt lat="43.671752860282524" lon="12.506721391987108"><ele>315.6666666666667</ele><time>2026-05-01T13:58:19.001Z</time></trkpt><trkpt lat="43.67186785789654" lon="12.506884573951794"><ele>317.0</ele><time>2026-05-01T13:58:20.001Z</time></trkpt><trkpt lat="43.67196930403294" lon="12.50706176577203"><ele>315.0</ele><time>2026-05-01T13:58:21.001Z</time></trkpt><trkpt lat="43.67207697194956" lon="12.507244160514007"><ele>313.0</ele><time>2026-05-01T13:58:22.001Z</time></trkpt><trkpt lat="43.67218292161163" lon="12.507416598762525"><ele>311.0</ele><time>2026-05-01T13:58:23.001Z</time></trkpt><trkpt lat="43.672286128500474" lon="12.507588230536172"><ele>311.0</ele><time>2026-05-01T13:58:24.001Z</time></trkpt><trkpt lat="43.67238968847537" lon="12.507755711447786"><ele>311.0</ele><time>2026-05-01T13:58:25.001Z</time></trkpt><trkpt lat="43.672493326953266" lon="12.507924209592842"><ele>311.0</ele><time>2026-05-01T13:58:26.001Z</time></trkpt><trkpt lat="43.672591704477036" lon="12.508090526559485"><ele>313.0</ele><time>2026-05-01T13:58:27.001Z</time></trkpt><trkpt lat="43.67268640773317" lon="12.50825086638623"><ele>315.0</ele><time>2026-05-01T13:58:28.001Z</time></trkpt><trkpt lat="43.67277688135496" lon="12.50840936441764"><ele>317.0</ele><time>2026-05-01T13:58:29.001Z</time></trkpt><trkpt lat="43.67286921312351" lon="12.508559750573433"><ele>319.0</ele><time>2026-05-01T13:58:30.001Z</time></trkpt><trkpt lat="43.67296393720904" lon="12.508713970160256"><ele>315.75</ele><time>2026-05-01T13:58:31.001Z</time></trkpt><trkpt lat="43.673052632050826" lon="12.50886403125612"><ele>312.5</ele><time>2026-05-01T13:58:32.001Z</time></trkpt><trkpt lat="43.67313644654254" lon="12.509016623296427"><ele>309.25</ele><time>2026-05-01T13:58:33.001Z</time></trkpt><trkpt lat="43.67321387642687" lon="12.5091662747097"><ele>306.0</ele><time>2026-05-01T13:58:34.001Z</time></trkpt><trkpt lat="43.67327705235236" lon="12.509326590931547"><ele>306.0</ele><time>2026-05-01T13:58:35.001Z</time></trkpt><trkpt lat="43.67333600419038" lon="12.509491598576341"><ele>306.0</ele><time>2026-05-01T13:58:36.001Z</time></trkpt><trkpt lat="43.673396874021485" lon="12.509670323529251"><ele>306.0</ele><time>2026-05-01T13:58:37Z</time></trkpt><trkpt lat="43.6734462124345" lon="12.509875210801814"><ele>306.0</ele><time>2026-05-01T13:58:38Z</time></trkpt><trkpt lat="43.67351324323368" lon="12.51005892535461"><ele>306.3333333333333</ele><time>2026-05-01T13:58:39Z</time></trkpt><trkpt lat="43.673576477819346" lon="12.510255572967015"><ele>306.66666666666663</ele><time>2026-05-01T13:58:40Z</time></trkpt><trkpt lat="43.6736432347188" lon="12.510447082109003"><ele>307.0</ele><time>2026-05-01T13:58:41Z</time></trkpt><trkpt lat="43.67370541593969" lon="12.510641278412272"><ele>303.0</ele><time>2026-05-01T13:58:42Z</time></trkpt><trkpt lat="43.673766800692626" lon="12.510836985054445"><ele>299.0</ele><time>2026-05-01T13:58:43Z</time></trkpt><trkpt lat="43.673830833813234" lon="12.511027629164882"><ele>295.0</ele><time>2026-05-01T13:58:44Z</time></trkpt><trkpt lat="43.673899485331354" lon="12.511225249297059"><ele>294.66666666666663</ele><time>2026-05-01T13:58:45Z</time></trkpt><trkpt lat="43.67397528911004" lon="12.511445137210758"><ele>294.3333333333333</ele><time>2026-05-01T13:58:46Z</time></trkpt><trkpt lat="43.674031351898535" lon="12.511626150165208"><ele>294.0</ele><time>2026-05-01T13:58:47Z</time></trkpt><trkpt lat="43.67409971478122" lon="12.511821609578769"><ele>294.0</ele><time>2026-05-01T13:58:48Z</time></trkpt><trkpt lat="43.674162970309155" lon="12.51201899601145"><ele>294.0</ele><time>2026-05-01T13:58:49Z</time></trkpt><trkpt lat="43.67422790690594" lon="12.51221523063271"><ele>294.0</ele><time>2026-05-01T13:58:50Z</time></trkpt><trkpt lat="43.674296018873854" lon="12.512405213301967"><ele>294.25</ele><time>2026-05-01T13:58:51Z</time></trkpt><trkpt lat="43.67435477536363" lon="12.512585929564572"><ele>294.5</ele><time>2026-05-01T13:58:52Z</time></trkpt><trkpt lat="43.67441033333541" lon="12.512748945015483"><ele>294.75</ele><time>2026-05-01T13:58:53Z</time></trkpt><trkpt lat="43.67445805285583" lon="12.512926785211958"><ele>295.0</ele><time>2026-05-01T13:58:54Z</time></trkpt><trkpt lat="43.674510966284316" lon="12.513090741092808"><ele>294.4</ele><time>2026-05-01T13:58:55Z</time></trkpt><trkpt lat="43.67455948869583" lon="12.513246850083764"><ele>293.8</ele><time>2026-05-01T13:58:56Z</time></trkpt><trkpt lat="43.67460976576256" lon="12.513384842059953"><ele>293.2</ele><time>2026-05-01T13:58:57Z</time></trkpt><trkpt lat="43.67465341175685" lon="12.51350997222035"><ele>292.6</ele><time>2026-05-01T13:58:58Z</time></trkpt><trkpt lat="43.67469392675168" lon="12.51361881755384"><ele>292.0</ele><time>2026-05-01T13:58:59Z</time></trkpt><trkpt lat="43.6747243121502" lon="12.513699262162977"><ele>292.0</ele><time>2026-05-01T13:59:00Z</time></trkpt><trkpt lat="43.67477418526779" lon="12.51380978694364"><ele>292.0</ele><time>2026-05-01T13:59:02Z</time></trkpt><trkpt lat="43.674831737598254" lon="12.513871099501808"><ele>292.0</ele><time>2026-05-01T13:59:07Z</time></trkpt><trkpt lat="43.67488629837442" lon="12.51394061020504"><ele>292.0</ele><time>2026-05-01T13:59:10Z</time></trkpt><trkpt lat="43.674983986862884" lon="12.513835825753599"><ele>292.0</ele><time>2026-05-01T13:59:12Z</time></trkpt><trkpt lat="43.675046430203594" lon="12.513761360699368"><ele>292.0</ele><time>2026-05-01T13:59:13Z</time></trkpt><trkpt lat="43.67510854442231" lon="12.513691357842102"><ele>292.0</ele><time>2026-05-01T13:59:14Z</time></trkpt><trkpt lat="43.67518053294164" lon="12.513624891796042"><ele>292.0</ele><time>2026-05-01T13:59:15Z</time></trkpt><trkpt lat="43.67526726330984" lon="12.513541655367284"><ele>292.0</ele><time>2026-05-01T13:59:16Z</time></trkpt><trkpt lat="43.675358998795275" lon="12.513445936796922"><ele>292.0</ele><time>2026-05-01T13:59:17Z</time></trkpt><trkpt lat="43.67544828786246" lon="12.513346727578098"><ele>292.0</ele><time>2026-05-01T13:59:18Z</time></trkpt><trkpt lat="43.67554672106217" lon="12.513248602915612"><ele>291.25</ele><time>2026-05-01T13:59:19Z</time></trkpt><trkpt lat="43.67565038013631" lon="12.513143265662983"><ele>290.5</ele><time>2026-05-01T13:59:20Z</time></trkpt><trkpt lat="43.67576179408372" lon="12.513044545503876"><ele>289.75</ele><time>2026-05-01T13:59:21Z</time></trkpt><trkpt lat="43.67587760736861" lon="12.512964661733328"><ele>289.0</ele><time>2026-05-01T13:59:22Z</time></trkpt><trkpt lat="43.676006998130816" lon="12.512941240580806"><ele>287.5</ele><time>2026-05-01T13:59:23Z</time></trkpt><trkpt lat="43.67613979132521" lon="12.512913617011115"><ele>286.0</ele><time>2026-05-01T13:59:24Z</time></trkpt><trkpt lat="43.67628024220116" lon="12.512931995389945"><ele>284.5</ele><time>2026-05-01T13:59:25Z</time></trkpt><trkpt lat="43.67642212852178" lon="12.512949728262518"><ele>283.0</ele><time>2026-05-01T13:59:26Z</time></trkpt><trkpt lat="43.676558785753016" lon="12.512966503747293"><ele>283.0</ele><time>2026-05-01T13:59:27Z</time></trkpt><trkpt lat="43.676678481114344" lon="12.512973117580136"><ele>283.0</ele><time>2026-05-01T13:59:28Z</time></trkpt><trkpt lat="43.67678968878934" lon="12.512964178425527"><ele>283.0</ele><time>2026-05-01T13:59:29Z</time></trkpt><trkpt lat="43.67689655186353" lon="12.512928625322022"><ele>283.0</ele><time>2026-05-01T13:59:30Z</time></trkpt><trkpt lat="43.67700347531388" lon="12.512864181486423"><ele>284.75</ele><time>2026-05-01T13:59:31Z</time></trkpt><trkpt lat="43.67710106105391" lon="12.512770627820881"><ele>286.5</ele><time>2026-05-01T13:59:32Z</time></trkpt><trkpt lat="43.67718404180315" lon="12.512641358807743"><ele>288.25</ele><time>2026-05-01T13:59:33Z</time></trkpt><trkpt lat="43.67724687471985" lon="12.512491471837825"><ele>290.0</ele><time>2026-05-01T13:59:34Z</time></trkpt><trkpt lat="43.67728468962508" lon="12.512314152108637"><ele>290.0</ele><time>2026-05-01T13:59:35Z</time></trkpt><trkpt lat="43.67731181454356" lon="12.512123386689035"><ele>290.0</ele><time>2026-05-01T13:59:36Z</time></trkpt><trkpt lat="43.67734179561267" lon="12.511931191631621"><ele>290.0</ele><time>2026-05-01T13:59:37Z</time></trkpt><trkpt lat="43.677376200387926" lon="12.511739150979574"><ele>290.0</ele><time>2026-05-01T13:59:38Z</time></trkpt><trkpt lat="43.67739507394697" lon="12.511548882387059"><ele>290.25</ele><time>2026-05-01T13:59:39Z</time></trkpt><trkpt lat="43.677408884249" lon="12.511353248779988"><ele>290.5</ele><time>2026-05-01T13:59:40Z</time></trkpt><trkpt lat="43.67740981549676" lon="12.511150419656056"><ele>290.75</ele><time>2026-05-01T13:59:41Z</time></trkpt><trkpt lat="43.67740175657914" lon="12.510943484043821"><ele>291.0</ele><time>2026-05-01T13:59:42Z</time></trkpt><trkpt lat="43.677385053866104" lon="12.510726418721532"><ele>291.0</ele><time>2026-05-01T13:59:43Z</time></trkpt><trkpt lat="43.677350547806235" lon="12.510496226754329"><ele>291.0</ele><time>2026-05-01T13:59:44Z</time></trkpt><trkpt lat="43.67729167985938" lon="12.51025250289498"><ele>291.0</ele><time>2026-05-01T13:59:45Z</time></trkpt><trkpt lat="43.67719326416848" lon="12.509995824371398"><ele>292.0</ele><time>2026-05-01T13:59:46Z</time></trkpt><trkpt lat="43.67709543178502" lon="12.509693829924402"><ele>293.0</ele><time>2026-05-01T13:59:47Z</time></trkpt><trkpt lat="43.67697262199137" lon="12.509384849073404"><ele>294.0</ele><time>2026-05-01T13:59:48Z</time></trkpt><trkpt lat="43.67684423545783" lon="12.509065803973082"><ele>295.0</ele><time>2026-05-01T13:59:49Z</time></trkpt><trkpt lat="43.67671725007302" lon="12.508766098746914"><ele>296.3333333333333</ele><time>2026-05-01T13:59:50.001Z</time></trkpt><trkpt lat="43.67663200595344" lon="12.508483170674532"><ele>297.6666666666667</ele><time>2026-05-01T13:59:51.001Z</time></trkpt><trkpt lat="43.67656857524705" lon="12.508214309057957"><ele>299.0</ele><time>2026-05-01T13:59:52.001Z</time></trkpt><trkpt lat="43.67652756539061" lon="12.50795472450413"><ele>298.6666666666667</ele><time>2026-05-01T13:59:53.001Z</time></trkpt><trkpt lat="43.676510501601506" lon="12.507696641409096"><ele>298.3333333333333</ele><time>2026-05-01T13:59:54.001Z</time></trkpt><trkpt lat="43.676532435659695" lon="12.507429888826882"><ele>298.0</ele><time>2026-05-01T13:59:55.001Z</time></trkpt><trkpt lat="43.6765456328045" lon="12.507142079298026"><ele>298.5</ele><time>2026-05-01T13:59:56.001Z</time></trkpt><trkpt lat="43.67656411921526" lon="12.50683384389072"><ele>299.0</ele><time>2026-05-01T13:59:57.001Z</time></trkpt><trkpt lat="43.676585163766184" lon="12.506505201774093"><ele>300.0</ele><time>2026-05-01T13:59:58.001Z</time></trkpt><trkpt lat="43.6766079226293" lon="12.5061615111387"><ele>301.0</ele><time>2026-05-01T13:59:59.001Z</time></trkpt><trkpt lat="43.676631102965445" lon="12.505811455599405"><ele>301.0</ele><time>2026-05-01T14:00:00.001Z</time></trkpt><trkpt lat="43.67663599291662" lon="12.505458279021505"><ele>301.0</ele><time>2026-05-01T14:00:01.001Z</time></trkpt><trkpt lat="43.67664901582199" lon="12.505117071088527"><ele>303.0</ele><time>2026-05-01T14:00:02.001Z</time></trkpt><trkpt lat="43.67663239784834" lon="12.504777641080299"><ele>305.0</ele><time>2026-05-01T14:00:03.001Z</time></trkpt><trkpt lat="43.67659211304409" lon="12.504437718073307"><ele>305.5</ele><time>2026-05-01T14:00:04.001Z</time></trkpt><trkpt lat="43.67652623767118" lon="12.504107944747417"><ele>306.0</ele><time>2026-05-01T14:00:05.001Z</time></trkpt><trkpt lat="43.676448370525584" lon="12.503782316438581"><ele>302.5</ele><time>2026-05-01T14:00:06.001Z</time></trkpt><trkpt lat="43.67640273199835" lon="12.50348261267389"><ele>299.0</ele><time>2026-05-01T14:00:07.001Z</time></trkpt><trkpt lat="43.676331698336256" lon="12.50313774865976"><ele>297.0</ele><time>2026-05-01T14:00:08.001Z</time></trkpt><trkpt lat="43.676291819990325" lon="12.50281949861511"><ele>295.0</ele><time>2026-05-01T14:00:09.001Z</time></trkpt><trkpt lat="43.67627775262911" lon="12.502516667141471"><ele>295.0</ele><time>2026-05-01T14:00:10.001Z</time></trkpt><trkpt lat="43.67630536170996" lon="12.50221441855049"><ele>295.0</ele><time>2026-05-01T14:00:11.001Z</time></trkpt><trkpt lat="43.67632919362315" lon="12.501909931880682"><ele>295.0</ele><time>2026-05-01T14:00:12.001Z</time></trkpt><trkpt lat="43.67634734677192" lon="12.501610050799428"><ele>296.0</ele><time>2026-05-01T14:00:13.001Z</time></trkpt><trkpt lat="43.676371604309836" lon="12.501293374446337"><ele>297.0</ele><time>2026-05-01T14:00:14.001Z</time></trkpt><trkpt lat="43.676396613014916" lon="12.500992152402691"><ele>298.6666666666667</ele><time>2026-05-01T14:00:15.001Z</time></trkpt><trkpt lat="43.6764569070683" lon="12.500719953377596"><ele>300.33333333333337</ele><time>2026-05-01T14:00:16.001Z</time></trkpt><trkpt lat="43.67653271349176" lon="12.500468378346579"><ele>302.0</ele><time>2026-05-01T14:00:17.001Z</time></trkpt><trkpt lat="43.676648224625346" lon="12.500223595687197"><ele>304.0</ele><time>2026-05-01T14:00:18.001Z</time></trkpt><trkpt lat="43.67678774059035" lon="12.499989961153346"><ele>306.0</ele><time>2026-05-01T14:00:19.001Z</time></trkpt><trkpt lat="43.6769311605873" lon="12.49974534286013"><ele>308.0</ele><time>2026-05-01T14:00:20.001Z</time></trkpt><trkpt lat="43.67708612227192" lon="12.499509005938148"><ele>308.0</ele><time>2026-05-01T14:00:21.001Z</time></trkpt><trkpt lat="43.67722752746651" lon="12.499281153625637"><ele>308.0</ele><time>2026-05-01T14:00:22.001Z</time></trkpt><trkpt lat="43.677349691525166" lon="12.499062656092862"><ele>308.0</ele><time>2026-05-01T14:00:23.001Z</time></trkpt><trkpt lat="43.677460600918565" lon="12.498846047170149"><ele>308.33333333333337</ele><time>2026-05-01T14:00:24.001Z</time></trkpt><trkpt lat="43.6775473747745" lon="12.49863101214434"><ele>308.6666666666667</ele><time>2026-05-01T14:00:25.001Z</time></trkpt><trkpt lat="43.67760319951349" lon="12.498397435856802"><ele>309.0</ele><time>2026-05-01T14:00:26.001Z</time></trkpt><trkpt lat="43.6776420232699" lon="12.498167516513664"><ele>309.0</ele><time>2026-05-01T14:00:27.001Z</time></trkpt><trkpt lat="43.67767082746934" lon="12.4979590240064"><ele>309.0</ele><time>2026-05-01T14:00:28.001Z</time></trkpt><trkpt lat="43.677694124585194" lon="12.497743114449053"><ele>309.0</ele><time>2026-05-01T14:00:29.001Z</time></trkpt><trkpt lat="43.677715081009175" lon="12.49752568316597"><ele>309.25</ele><time>2026-05-01T14:00:30.001Z</time></trkpt><trkpt lat="43.677739507592975" lon="12.497316876494864"><ele>309.5</ele><time>2026-05-01T14:00:31.001Z</time></trkpt><trkpt lat="43.67776920257836" lon="12.497127183545455"><ele>309.75</ele><time>2026-05-01T14:00:32.001Z</time></trkpt><trkpt lat="43.677798090913925" lon="12.496950320045947"><ele>310.0</ele><time>2026-05-01T14:00:33.001Z</time></trkpt><trkpt lat="43.677815044992414" lon="12.496785469036361"><ele>309.0</ele><time>2026-05-01T14:00:34.001Z</time></trkpt><trkpt lat="43.67783441728575" lon="12.496632704324337"><ele>308.0</ele><time>2026-05-01T14:00:35.001Z</time></trkpt><trkpt lat="43.67785609223535" lon="12.496488097557126"><ele>307.0</ele><time>2026-05-01T14:00:36.001Z</time></trkpt><trkpt lat="43.67787702223717" lon="12.496345858991502"><ele>306.0</ele><time>2026-05-01T14:00:37.001Z</time></trkpt><trkpt lat="43.67789313055705" lon="12.496203340307568"><ele>305.0</ele><time>2026-05-01T14:00:38.001Z</time></trkpt><trkpt lat="43.677903882391576" lon="12.496063997406443"><ele>305.0</ele><time>2026-05-01T14:00:39.001Z</time></trkpt><trkpt lat="43.67791970929161" lon="12.495924017201844"><ele>305.0</ele><time>2026-05-01T14:00:40.001Z</time></trkpt><trkpt lat="43.677941073046256" lon="12.495782285856304"><ele>305.0</ele><time>2026-05-01T14:00:41.001Z</time></trkpt><trkpt lat="43.677961020937694" lon="12.495634443032623"><ele>305.0</ele><time>2026-05-01T14:00:42.001Z</time></trkpt><trkpt lat="43.67797771518147" lon="12.495479421381733"><ele>305.0</ele><time>2026-05-01T14:00:43Z</time></trkpt><trkpt lat="43.67799671684389" lon="12.495317456840052"><ele>305.0</ele><time>2026-05-01T14:00:44Z</time></trkpt><trkpt lat="43.67801544211288" lon="12.495152075687535"><ele>305.0</ele><time>2026-05-01T14:00:45Z</time></trkpt><trkpt lat="43.678034430893504" lon="12.494977259931595"><ele>305.0</ele><time>2026-05-01T14:00:46Z</time></trkpt><trkpt lat="43.678055893045126" lon="12.49479078937526"><ele>305.0</ele><time>2026-05-01T14:00:47Z</time></trkpt><trkpt lat="43.678079876420426" lon="12.494587176821462"><ele>305.0</ele><time>2026-05-01T14:00:48Z</time></trkpt><trkpt lat="43.678108006909895" lon="12.49437856785066"><ele>305.0</ele><time>2026-05-01T14:00:49Z</time></trkpt><trkpt lat="43.678130212057724" lon="12.49416901168552"><ele>305.0</ele><time>2026-05-01T14:00:50Z</time></trkpt><trkpt lat="43.678149038511314" lon="12.493978397821284"><ele>305.0</ele><time>2026-05-01T14:00:51Z</time></trkpt><trkpt lat="43.67816784364235" lon="12.493802383129358"><ele>304.5</ele><time>2026-05-01T14:00:52Z</time></trkpt><trkpt lat="43.6781867373859" lon="12.493626613586484"><ele>304.0</ele><time>2026-05-01T14:00:53Z</time></trkpt><trkpt lat="43.678207674670496" lon="12.493465730900061"><ele>303.5</ele><time>2026-05-01T14:00:54Z</time></trkpt><trkpt lat="43.678225783715924" lon="12.493308422970422"><ele>303.0</ele><time>2026-05-01T14:00:55Z</time></trkpt><trkpt lat="43.67824004573119" lon="12.493167839488626"><ele>303.0</ele><time>2026-05-01T14:00:56Z</time></trkpt><trkpt lat="43.67825303504509" lon="12.493040668001507"><ele>303.0</ele><time>2026-05-01T14:00:57Z</time></trkpt><trkpt lat="43.67827251834456" lon="12.492915246455288"><ele>303.0</ele><time>2026-05-01T14:00:58Z</time></trkpt><trkpt lat="43.67828454629949" lon="12.492791810347407"><ele>303.0</ele><time>2026-05-01T14:00:59Z</time></trkpt><trkpt lat="43.6783005966294" lon="12.49267258848167"><ele>303.0</ele><time>2026-05-01T14:01:00Z</time></trkpt><trkpt lat="43.6783117816588" lon="12.492543769511546"><ele>303.25</ele><time>2026-05-01T14:01:01Z</time></trkpt><trkpt lat="43.678326832677016" lon="12.49240479399804"><ele>303.5</ele><time>2026-05-01T14:01:02Z</time></trkpt><trkpt lat="43.678345276214934" lon="12.492252489777538"><ele>303.75</ele><time>2026-05-01T14:01:03Z</time></trkpt><trkpt lat="43.67836309432221" lon="12.492085105153905"><ele>304.0</ele><time>2026-05-01T14:01:04Z</time></trkpt><trkpt lat="43.678387911908075" lon="12.491902774213859"><ele>304.25</ele><time>2026-05-01T14:01:05Z</time></trkpt><trkpt lat="43.67841403505854" lon="12.491709538769832"><ele>304.5</ele><time>2026-05-01T14:01:06Z</time></trkpt><trkpt lat="43.67843591951715" lon="12.491509774749924"><ele>304.75</ele><time>2026-05-01T14:01:07Z</time></trkpt><trkpt lat="43.678459233207874" lon="12.491298450651852"><ele>305.0</ele><time>2026-05-01T14:01:08Z</time></trkpt><trkpt lat="43.678481210347634" lon="12.491081442357256"><ele>303.6666666666667</ele><time>2026-05-01T14:01:09Z</time></trkpt><trkpt lat="43.67850236106758" lon="12.490861141545473"><ele>302.3333333333333</ele><time>2026-05-01T14:01:10Z</time></trkpt><trkpt lat="43.67854118694593" lon="12.490642741829486"><ele>301.0</ele><time>2026-05-01T14:01:11Z</time></trkpt><trkpt lat="43.67856549492354" lon="12.490430254137573"><ele>300.3333333333333</ele><time>2026-05-01T14:01:12Z</time></trkpt><trkpt lat="43.678590043478366" lon="12.490218874774742"><ele>299.6666666666667</ele><time>2026-05-01T14:01:13Z</time></trkpt><trkpt lat="43.67861427680863" lon="12.49001059309458"><ele>299.0</ele><time>2026-05-01T14:01:14Z</time></trkpt><trkpt lat="43.678636708668854" lon="12.489812346849389"><ele>298.75</ele><time>2026-05-01T14:01:15Z</time></trkpt><trkpt lat="43.6786419102494" lon="12.489621274768174"><ele>298.5</ele><time>2026-05-01T14:01:16Z</time></trkpt><trkpt lat="43.67867974995823" lon="12.489437826662087"><ele>298.25</ele><time>2026-05-01T14:01:17Z</time></trkpt><trkpt lat="43.67870070142045" lon="12.48925551925893"><ele>298.0</ele><time>2026-05-01T14:01:18Z</time></trkpt><trkpt lat="43.67872062928089" lon="12.489082118659235"><ele>298.75</ele><time>2026-05-01T14:01:19Z</time></trkpt><trkpt lat="43.67872432472463" lon="12.488910028564543"><ele>299.5</ele><time>2026-05-01T14:01:20Z</time></trkpt><trkpt lat="43.67874668774301" lon="12.488748541101177"><ele>300.25</ele><time>2026-05-01T14:01:21Z</time></trkpt><trkpt lat="43.67877004440592" lon="12.48858798081329"><ele>301.0</ele><time>2026-05-01T14:01:22Z</time></trkpt><trkpt lat="43.67879024888974" lon="12.488423920311533"><ele>302.0</ele><time>2026-05-01T14:01:23Z</time></trkpt><trkpt lat="43.678808994832195" lon="12.488253161331224"><ele>303.0</ele><time>2026-05-01T14:01:24Z</time></trkpt><trkpt lat="43.678826369549604" lon="12.488074401735169"><ele>304.0</ele><time>2026-05-01T14:01:25Z</time></trkpt><trkpt lat="43.678848037925654" lon="12.487890696812396"><ele>305.0</ele><time>2026-05-01T14:01:26Z</time></trkpt><trkpt lat="43.67886926298127" lon="12.487701784296453"><ele>305.0</ele><time>2026-05-01T14:01:27Z</time></trkpt><trkpt lat="43.678888363335645" lon="12.487503504852397"><ele>305.0</ele><time>2026-05-01T14:01:28Z</time></trkpt><trkpt lat="43.67892795725039" lon="12.48730460808742"><ele>305.0</ele><time>2026-05-01T14:01:29Z</time></trkpt><trkpt lat="43.6789526483098" lon="12.48709521112787"><ele>305.0</ele><time>2026-05-01T14:01:30Z</time></trkpt><trkpt lat="43.67897673943212" lon="12.486890902040791"><ele>305.0</ele><time>2026-05-01T14:01:31Z</time></trkpt><trkpt lat="43.679000379233706" lon="12.486678425428334"><ele>305.0</ele><time>2026-05-01T14:01:32Z</time></trkpt><trkpt lat="43.679025591519064" lon="12.486450306369006"><ele>305.0</ele><time>2026-05-01T14:01:33Z</time></trkpt><trkpt lat="43.67904741248953" lon="12.486229598635529"><ele>304.6666666666667</ele><time>2026-05-01T14:01:34Z</time></trkpt><trkpt lat="43.67904362469881" lon="12.486002888596351"><ele>304.3333333333333</ele><time>2026-05-01T14:01:35Z</time></trkpt><trkpt lat="43.67904682831509" lon="12.485772834830666"><ele>304.0</ele><time>2026-05-01T14:01:36Z</time></trkpt><trkpt lat="43.679042953295536" lon="12.485542395621422"><ele>304.66666666666663</ele><time>2026-05-01T14:01:37Z</time></trkpt><trkpt lat="43.679022866896794" lon="12.485303602610157"><ele>305.3333333333333</ele><time>2026-05-01T14:01:38Z</time></trkpt><trkpt lat="43.67898435451766" lon="12.48505092625099"><ele>306.0</ele><time>2026-05-01T14:01:39Z</time></trkpt><trkpt lat="43.678925562126096" lon="12.48478994717495"><ele>306.0</ele><time>2026-05-01T14:01:40Z</time></trkpt><trkpt lat="43.678867789586555" lon="12.484503617050878"><ele>306.0</ele><time>2026-05-01T14:01:41Z</time></trkpt><trkpt lat="43.67878228952822" lon="12.484214364641169"><ele>306.0</ele><time>2026-05-01T14:01:42.001Z</time></trkpt><trkpt lat="43.678697906288754" lon="12.483932695074492"><ele>306.0</ele><time>2026-05-01T14:01:43.001Z</time></trkpt><trkpt lat="43.67860650921304" lon="12.483677573909358"><ele>306.0</ele><time>2026-05-01T14:01:44.001Z</time></trkpt><trkpt lat="43.678532281215205" lon="12.483432329516994"><ele>306.0</ele><time>2026-05-01T14:01:45.001Z</time></trkpt><trkpt lat="43.678461830919886" lon="12.483199110152396"><ele>306.0</ele><time>2026-05-01T14:01:46.001Z</time></trkpt><trkpt lat="43.67839629063084" lon="12.482984446066009"><ele>306.0</ele><time>2026-05-01T14:01:47.001Z</time></trkpt><trkpt lat="43.67835278357339" lon="12.48278226328047"><ele>306.0</ele><time>2026-05-01T14:01:48.001Z</time></trkpt><trkpt lat="43.67830280395304" lon="12.482615661137812"><ele>306.5</ele><time>2026-05-01T14:01:49.001Z</time></trkpt><trkpt lat="43.67826011848297" lon="12.482473373727947"><ele>307.0</ele><time>2026-05-01T14:01:50.001Z</time></trkpt><trkpt lat="43.67821708422657" lon="12.482328762447457"><ele>307.5</ele><time>2026-05-01T14:01:51.001Z</time></trkpt><trkpt lat="43.6781168827693" lon="12.482050620848588"><ele>308.0</ele><time>2026-05-01T14:01:52.001Z</time></trkpt><trkpt lat="43.67806773740483" lon="12.481874459446622"><ele>308.0</ele><time>2026-05-01T14:01:53.001Z</time></trkpt><trkpt lat="43.67802207567401" lon="12.481717902016769"><ele>308.0</ele><time>2026-05-01T14:01:54.001Z</time></trkpt><trkpt lat="43.67799046352359" lon="12.481545482268439"><ele>308.0</ele><time>2026-05-01T14:01:55.001Z</time></trkpt><trkpt lat="43.677948268387134" lon="12.481378322597404"><ele>308.0</ele><time>2026-05-01T14:01:56.001Z</time></trkpt><trkpt lat="43.67791589347161" lon="12.481206645649918"><ele>308.0</ele><time>2026-05-01T14:01:57.001Z</time></trkpt><trkpt lat="43.67789332769471" lon="12.481023548354907"><ele>308.0</ele><time>2026-05-01T14:01:58.001Z</time></trkpt><trkpt lat="43.67786485702428" lon="12.480832456721979"><ele>308.0</ele><time>2026-05-01T14:01:59.001Z</time></trkpt><trkpt lat="43.67786791108084" lon="12.480602536064186"><ele>308.0</ele><time>2026-05-01T14:02:00.001Z</time></trkpt><trkpt lat="43.67786110142323" lon="12.480353007306284"><ele>307.6666666666667</ele><time>2026-05-01T14:02:01.001Z</time></trkpt><trkpt lat="43.677855036012545" lon="12.480077110174882"><ele>307.3333333333333</ele><time>2026-05-01T14:02:02.001Z</time></trkpt><trkpt lat="43.677848747044244" lon="12.479783101102608"><ele>307.0</ele><time>2026-05-01T14:02:03.001Z</time></trkpt><trkpt lat="43.677827130864245" lon="12.479514769402341"><ele>306.66666666666663</ele><time>2026-05-01T14:02:04.001Z</time></trkpt><trkpt lat="43.67782684120082" lon="12.47926282808928"><ele>306.3333333333333</ele><time>2026-05-01T14:02:05.001Z</time></trkpt><trkpt lat="43.67781785743251" lon="12.479028132892205"><ele>306.0</ele><time>2026-05-01T14:02:06.001Z</time></trkpt><trkpt lat="43.67781555744046" lon="12.478809235199169"><ele>305.0</ele><time>2026-05-01T14:02:07.001Z</time></trkpt><trkpt lat="43.67781032371067" lon="12.478592669557258"><ele>304.0</ele><time>2026-05-01T14:02:08.001Z</time></trkpt><trkpt lat="43.677805518237136" lon="12.478386139980636"><ele>303.0</ele><time>2026-05-01T14:02:09.001Z</time></trkpt><trkpt lat="43.67779865181591" lon="12.478179128259342"><ele>303.0</ele><time>2026-05-01T14:02:10.001Z</time></trkpt><trkpt lat="43.67780653550709" lon="12.477969264957649"><ele>303.0</ele><time>2026-05-01T14:02:11.001Z</time></trkpt><trkpt lat="43.67778438632932" lon="12.477757717326975"><ele>303.0</ele><time>2026-05-01T14:02:12.001Z</time></trkpt><trkpt lat="43.677778572080925" lon="12.477534700267912"><ele>303.3333333333333</ele><time>2026-05-01T14:02:13.001Z</time></trkpt><trkpt lat="43.6777882585587" lon="12.477312486512728"><ele>303.66666666666663</ele><time>2026-05-01T14:02:14.001Z</time></trkpt><trkpt lat="43.677782198351075" lon="12.477085986218556"><ele>304.0</ele><time>2026-05-01T14:02:15.001Z</time></trkpt><trkpt lat="43.67777565520269" lon="12.476825787626412"><ele>304.3333333333333</ele><time>2026-05-01T14:02:16.001Z</time></trkpt><trkpt lat="43.677768977389995" lon="12.47655062063384"><ele>304.6666666666667</ele><time>2026-05-01T14:02:17.001Z</time></trkpt><trkpt lat="43.67776198015548" lon="12.476262291281722"><ele>305.0</ele><time>2026-05-01T14:02:18.001Z</time></trkpt><trkpt lat="43.677754776665985" lon="12.475965462766007"><ele>306.6666666666667</ele><time>2026-05-01T14:02:19.001Z</time></trkpt><trkpt lat="43.677734500256626" lon="12.475669139165856"><ele>308.3333333333333</ele><time>2026-05-01T14:02:20.001Z</time></trkpt><trkpt lat="43.67773129709677" lon="12.47538162313671"><ele>310.0</ele><time>2026-05-01T14:02:21.001Z</time></trkpt><trkpt lat="43.6777272312096" lon="12.475098763165846"><ele>310.3333333333333</ele><time>2026-05-01T14:02:22.001Z</time></trkpt><trkpt lat="43.67771927673194" lon="12.474814530960378"><ele>310.6666666666667</ele><time>2026-05-01T14:02:23.001Z</time></trkpt><trkpt lat="43.67770974139412" lon="12.474525090667795"><ele>311.0</ele><time>2026-05-01T14:02:24.001Z</time></trkpt><trkpt lat="43.67770647680613" lon="12.474245240150827"><ele>311.0</ele><time>2026-05-01T14:02:25.001Z</time></trkpt><trkpt lat="43.67769913892232" lon="12.473965357887515"><ele>311.0</ele><time>2026-05-01T14:02:26.001Z</time></trkpt><trkpt lat="43.677693054060285" lon="12.47369530003176"><ele>311.0</ele><time>2026-05-01T14:02:27.001Z</time></trkpt><trkpt lat="43.677682030364096" lon="12.47341737750764"><ele>311.0</ele><time>2026-05-01T14:02:28.001Z</time></trkpt><trkpt lat="43.677678755311454" lon="12.473153234334827"><ele>311.0</ele><time>2026-05-01T14:02:29.001Z</time></trkpt><trkpt lat="43.67767167089261" lon="12.472885783950415"><ele>311.0</ele><time>2026-05-01T14:02:30.001Z</time></trkpt><trkpt lat="43.677680751818535" lon="12.47261393280958"><ele>311.0</ele><time>2026-05-01T14:02:31.001Z</time></trkpt><trkpt lat="43.677658618266946" lon="12.472350075004158"><ele>311.0</ele><time>2026-05-01T14:02:32.001Z</time></trkpt><trkpt lat="43.67765328147434" lon="12.472089415054247"><ele>311.0</ele><time>2026-05-01T14:02:33.001Z</time></trkpt><trkpt lat="43.677662374650005" lon="12.471829586977602"><ele>310.6666666666667</ele><time>2026-05-01T14:02:34.001Z</time></trkpt><trkpt lat="43.677640154977475" lon="12.471580496725265"><ele>310.3333333333333</ele><time>2026-05-01T14:02:35.001Z</time></trkpt><trkpt lat="43.67763627865347" lon="12.471332673052641"><ele>310.0</ele><time>2026-05-01T14:02:36.001Z</time></trkpt><trkpt lat="43.67762829571296" lon="12.471086074653467"><ele>309.3333333333333</ele><time>2026-05-01T14:02:37.001Z</time></trkpt><trkpt lat="43.677624587173234" lon="12.470841761890599"><ele>308.6666666666667</ele><time>2026-05-01T14:02:38.001Z</time></trkpt><trkpt lat="43.67762724234197" lon="12.47060048038669"><ele>308.0</ele><time>2026-05-01T14:02:39.001Z</time></trkpt><trkpt lat="43.6776621950562" lon="12.47035176256086"><ele>306.0</ele><time>2026-05-01T14:02:40.001Z</time></trkpt><trkpt lat="43.677712321730574" lon="12.47012177458146"><ele>304.0</ele><time>2026-05-01T14:02:41.001Z</time></trkpt><trkpt lat="43.677775687700645" lon="12.469881052762624"><ele>302.0</ele><time>2026-05-01T14:02:42.001Z</time></trkpt><trkpt lat="43.67784938965189" lon="12.469623715611588"><ele>302.0</ele><time>2026-05-01T14:02:43.001Z</time></trkpt><trkpt lat="43.67791711065684" lon="12.469349281033056"><ele>302.0</ele><time>2026-05-01T14:02:44.001Z</time></trkpt><trkpt lat="43.67800084262554" lon="12.469082687065853"><ele>302.0</ele><time>2026-05-01T14:02:45.001Z</time></trkpt><trkpt lat="43.67806983270666" lon="12.468813174751947"><ele>304.6666666666667</ele><time>2026-05-01T14:02:46.001Z</time></trkpt><trkpt lat="43.67812766986993" lon="12.468550121138877"><ele>307.3333333333333</ele><time>2026-05-01T14:02:47.001Z</time></trkpt><trkpt lat="43.67816279882416" lon="12.46827365228792"><ele>310.0</ele><time>2026-05-01T14:02:48.001Z</time></trkpt><trkpt lat="43.678167088935695" lon="12.467997912902712"><ele>311.0</ele><time>2026-05-01T14:02:49Z</time></trkpt><trkpt lat="43.678157714833596" lon="12.467742998748326"><ele>312.0</ele><time>2026-05-01T14:02:50Z</time></trkpt><trkpt lat="43.678134878144235" lon="12.467488854956226"><ele>313.0</ele><time>2026-05-01T14:02:51Z</time></trkpt><trkpt lat="43.67810268119823" lon="12.467228284955805"><ele>313.66666666666663</ele><time>2026-05-01T14:02:52Z</time></trkpt><trkpt lat="43.67805327611052" lon="12.466971962373941"><ele>314.3333333333333</ele><time>2026-05-01T14:02:53Z</time></trkpt><trkpt lat="43.677978283483206" lon="12.466714589868229"><ele>315.0</ele><time>2026-05-01T14:02:54Z</time></trkpt><trkpt lat="43.67789309916003" lon="12.466465763031517"><ele>315.0</ele><time>2026-05-01T14:02:55Z</time></trkpt><trkpt lat="43.67780213224267" lon="12.466222691430016"><ele>315.0</ele><time>2026-05-01T14:02:56Z</time></trkpt><trkpt lat="43.67771375726977" lon="12.465980869026446"><ele>315.0</ele><time>2026-05-01T14:02:57Z</time></trkpt><trkpt lat="43.67762969585844" lon="12.465745537712698"><ele>316.0</ele><time>2026-05-01T14:02:58Z</time></trkpt><trkpt lat="43.67756539914916" lon="12.465508154153925"><ele>317.0</ele><time>2026-05-01T14:02:59Z</time></trkpt><trkpt lat="43.67748635357506" lon="12.465279742093632"><ele>318.0</ele><time>2026-05-01T14:03:00Z</time></trkpt><trkpt lat="43.67740084851082" lon="12.465032664436889"><ele>318.3333333333333</ele><time>2026-05-01T14:03:01Z</time></trkpt><trkpt lat="43.67731319565679" lon="12.464779380622938"><ele>318.66666666666663</ele><time>2026-05-01T14:03:02Z</time></trkpt><trkpt lat="43.67722363770522" lon="12.464521189553896"><ele>319.0</ele><time>2026-05-01T14:03:03Z</time></trkpt><trkpt lat="43.677129992111034" lon="12.464252908762562"><ele>319.0</ele><time>2026-05-01T14:03:04Z</time></trkpt><trkpt lat="43.677024448868245" lon="12.463988364650618"><ele>319.0</ele><time>2026-05-01T14:03:05Z</time></trkpt><trkpt lat="43.67693326580395" lon="12.463710830870037"><ele>319.0</ele><time>2026-05-01T14:03:06Z</time></trkpt><trkpt lat="43.67684038615998" lon="12.463434470167828"><ele>319.3333333333333</ele><time>2026-05-01T14:03:07Z</time></trkpt><trkpt lat="43.676745243298726" lon="12.463163790847753"><ele>319.6666666666667</ele><time>2026-05-01T14:03:08Z</time></trkpt><trkpt lat="43.676650597676534" lon="12.46290702976863"><ele>320.0</ele><time>2026-05-01T14:03:09Z</time></trkpt><trkpt lat="43.67655745828602" lon="12.462653397477869"><ele>320.33333333333337</ele><time>2026-05-01T14:03:10Z</time></trkpt><trkpt lat="43.67647057669255" lon="12.46240753677937"><ele>320.6666666666667</ele><time>2026-05-01T14:03:11Z</time></trkpt><trkpt lat="43.676399421989515" lon="12.462165914623494"><ele>321.0</ele><time>2026-05-01T14:03:12Z</time></trkpt><trkpt lat="43.676346616712785" lon="12.461895177032517"><ele>321.3333333333333</ele><time>2026-05-01T14:03:13Z</time></trkpt><trkpt lat="43.67630559707611" lon="12.461638002273176"><ele>321.66666666666663</ele><time>2026-05-01T14:03:14Z</time></trkpt><trkpt lat="43.67624379427392" lon="12.461431286269514"><ele>322.0</ele><time>2026-05-01T14:03:15Z</time></trkpt><trkpt lat="43.67620847986934" lon="12.461185525730658"><ele>322.0</ele><time>2026-05-01T14:03:16Z</time></trkpt><trkpt lat="43.676172426717606" lon="12.46092762638238"><ele>322.0</ele><time>2026-05-01T14:03:17Z</time></trkpt><trkpt lat="43.67613415000194" lon="12.460667433977903"><ele>322.0</ele><time>2026-05-01T14:03:18Z</time></trkpt><trkpt lat="43.67609186972472" lon="12.460408242321542"><ele>322.0</ele><time>2026-05-01T14:03:19Z</time></trkpt><trkpt lat="43.6760466661919" lon="12.460157840135771"><ele>322.0</ele><time>2026-05-01T14:03:20Z</time></trkpt><trkpt lat="43.6759867518949" lon="12.459917741382315"><ele>322.0</ele><time>2026-05-01T14:03:21Z</time></trkpt><trkpt lat="43.67590908249021" lon="12.459681493393274"><ele>322.3333333333333</ele><time>2026-05-01T14:03:22Z</time></trkpt><trkpt lat="43.67582636666061" lon="12.459449603183982"><ele>322.6666666666667</ele><time>2026-05-01T14:03:23Z</time></trkpt><trkpt lat="43.675749463041186" lon="12.459219932026292"><ele>323.0</ele><time>2026-05-01T14:03:24Z</time></trkpt><trkpt lat="43.67567352320207" lon="12.458986599431334"><ele>323.0</ele><time>2026-05-01T14:03:25Z</time></trkpt><trkpt lat="43.675600642221944" lon="12.458753377223427"><ele>323.0</ele><time>2026-05-01T14:03:26Z</time></trkpt><trkpt lat="43.67552445077184" lon="12.45852074877244"><ele>323.0</ele><time>2026-05-01T14:03:27Z</time></trkpt><trkpt lat="43.675448101874196" lon="12.458290220877739"><ele>323.0</ele><time>2026-05-01T14:03:28Z</time></trkpt><trkpt lat="43.67537414634718" lon="12.458054527989667"><ele>323.0</ele><time>2026-05-01T14:03:29Z</time></trkpt><trkpt lat="43.67530380764287" lon="12.457817562595295"><ele>323.0</ele><time>2026-05-01T14:03:30Z</time></trkpt><trkpt lat="43.67523391902859" lon="12.457595841795419"><ele>323.33333333333337</ele><time>2026-05-01T14:03:31Z</time></trkpt><trkpt lat="43.67516607813688" lon="12.457392127299958"><ele>323.6666666666667</ele><time>2026-05-01T14:03:32Z</time></trkpt><trkpt lat="43.67510140639937" lon="12.45719600422061"><ele>324.0</ele><time>2026-05-01T14:03:33Z</time></trkpt><trkpt lat="43.67503733032055" lon="12.457009289905594"><ele>324.0</ele><time>2026-05-01T14:03:34Z</time></trkpt><trkpt lat="43.674975731527965" lon="12.456819783573858"><ele>324.0</ele><time>2026-05-01T14:03:35Z</time></trkpt><trkpt lat="43.67491398348469" lon="12.456631208943119"><ele>324.0</ele><time>2026-05-01T14:03:36Z</time></trkpt><trkpt lat="43.674853024269474" lon="12.456436911417951"><ele>325.0</ele><time>2026-05-01T14:03:37Z</time></trkpt><trkpt lat="43.674790678543786" lon="12.45623694717933"><ele>326.0</ele><time>2026-05-01T14:03:38Z</time></trkpt><trkpt lat="43.674724332079236" lon="12.456034646950068"><ele>327.0</ele><time>2026-05-01T14:03:39Z</time></trkpt><trkpt lat="43.67464699975475" lon="12.4558175423939"><ele>327.0</ele><time>2026-05-01T14:03:40Z</time></trkpt><trkpt lat="43.674562169218376" lon="12.455566134431157"><ele>327.0</ele><time>2026-05-01T14:03:41Z</time></trkpt><trkpt lat="43.674465413550216" lon="12.455288782574378"><ele>327.0</ele><time>2026-05-01T14:03:42Z</time></trkpt><trkpt lat="43.67436675129175" lon="12.454983914580701"><ele>326.5</ele><time>2026-05-01T14:03:43Z</time></trkpt><trkpt lat="43.67428989448985" lon="12.454654422843516"><ele>326.0</ele><time>2026-05-01T14:03:44Z</time></trkpt><trkpt lat="43.67418621322106" lon="12.454334071711072"><ele>327.0</ele><time>2026-05-01T14:03:45.001Z</time></trkpt><trkpt lat="43.674078743072165" lon="12.454041328570082"><ele>328.0</ele><time>2026-05-01T14:03:46.001Z</time></trkpt><trkpt lat="43.67399564847741" lon="12.453761559022123"><ele>329.3333333333333</ele><time>2026-05-01T14:03:47.001Z</time></trkpt><trkpt lat="43.67391455864614" lon="12.453509657834353"><ele>330.6666666666667</ele><time>2026-05-01T14:03:48.001Z</time></trkpt><trkpt lat="43.67383360449818" lon="12.453261157554985"><ele>332.0</ele><time>2026-05-01T14:03:49.001Z</time></trkpt><trkpt lat="43.67375898504571" lon="12.453006873170757"><ele>334.0</ele><time>2026-05-01T14:03:50.001Z</time></trkpt><trkpt lat="43.67369629968047" lon="12.452747014861128"><ele>336.0</ele><time>2026-05-01T14:03:51.001Z</time></trkpt><trkpt lat="43.67365404392864" lon="12.452485243610043"><ele>338.0</ele><time>2026-05-01T14:03:52.001Z</time></trkpt><trkpt lat="43.67362666733771" lon="12.452225359539725"><ele>337.0</ele><time>2026-05-01T14:03:53.001Z</time></trkpt><trkpt lat="43.67360241565697" lon="12.45196868591803"><ele>336.0</ele><time>2026-05-01T14:03:54.001Z</time></trkpt><trkpt lat="43.67357650280385" lon="12.451719279911558"><ele>335.0</ele><time>2026-05-01T14:03:55.001Z</time></trkpt><trkpt lat="43.673553317988315" lon="12.451489134076345"><ele>335.33333333333337</ele><time>2026-05-01T14:03:56.001Z</time></trkpt><trkpt lat="43.673543667328154" lon="12.451269592001532"><ele>335.6666666666667</ele><time>2026-05-01T14:03:57.001Z</time></trkpt><trkpt lat="43.67355738198867" lon="12.45105358121605"><ele>336.0</ele><time>2026-05-01T14:03:58.001Z</time></trkpt><trkpt lat="43.67358479482554" lon="12.450833199207173"><ele>339.3333333333333</ele><time>2026-05-01T14:03:59.001Z</time></trkpt><trkpt lat="43.67362993767248" lon="12.450610590764967"><ele>342.66666666666663</ele><time>2026-05-01T14:04:00.001Z</time></trkpt><trkpt lat="43.67366063047842" lon="12.450368817706527"><ele>346.0</ele><time>2026-05-01T14:04:01.001Z</time></trkpt><trkpt lat="43.673695626209984" lon="12.450129169498394"><ele>347.3333333333333</ele><time>2026-05-01T14:04:02.001Z</time></trkpt><trkpt lat="43.67372384024028" lon="12.449889766447054"><ele>348.6666666666667</ele><time>2026-05-01T14:04:03.001Z</time></trkpt><trkpt lat="43.67375076244494" lon="12.449643733471234"><ele>350.0</ele><time>2026-05-01T14:04:04.001Z</time></trkpt><trkpt lat="43.67377236942068" lon="12.449401918551136"><ele>350.6666666666667</ele><time>2026-05-01T14:04:05.001Z</time></trkpt><trkpt lat="43.673771214998204" lon="12.449153979460597"><ele>351.3333333333333</ele><time>2026-05-01T14:04:06.001Z</time></trkpt><trkpt lat="43.67374807194071" lon="12.448909646210735"><ele>352.0</ele><time>2026-05-01T14:04:07.001Z</time></trkpt><trkpt lat="43.67372733247761" lon="12.448660823477205"><ele>355.0</ele><time>2026-05-01T14:04:08.001Z</time></trkpt><trkpt lat="43.67369514760729" lon="12.448406102882394"><ele>358.0</ele><time>2026-05-01T14:04:09.001Z</time></trkpt><trkpt lat="43.67367012774832" lon="12.448145154785504"><ele>361.0</ele><time>2026-05-01T14:04:10.001Z</time></trkpt><trkpt lat="43.67364418455553" lon="12.447884690652831"><ele>362.3333333333333</ele><time>2026-05-01T14:04:11.001Z</time></trkpt><trkpt lat="43.67361635601628" lon="12.4476197853772"><ele>363.6666666666667</ele><time>2026-05-01T14:04:12.001Z</time></trkpt><trkpt lat="43.67359190501719" lon="12.447355107239977"><ele>365.0</ele><time>2026-05-01T14:04:13.001Z</time></trkpt><trkpt lat="43.67355810230361" lon="12.447096242784877"><ele>357.0</ele><time>2026-05-01T14:04:14.001Z</time></trkpt><trkpt lat="43.67352059706517" lon="12.446845022299089"><ele>349.0</ele><time>2026-05-01T14:04:15.001Z</time></trkpt><trkpt lat="43.67348850027721" lon="12.446604284159973"><ele>341.0</ele><time>2026-05-01T14:04:16.001Z</time></trkpt><trkpt lat="43.67346689093142" lon="12.446360950091028"><ele>341.0</ele><time>2026-05-01T14:04:17.001Z</time></trkpt><trkpt lat="43.67344820812951" lon="12.44611094811062"><ele>341.0</ele><time>2026-05-01T14:04:18.001Z</time></trkpt><trkpt lat="43.67342801478808" lon="12.445864115957539"><ele>341.0</ele><time>2026-05-01T14:04:19.001Z</time></trkpt><trkpt lat="43.6734067350534" lon="12.44562384906625"><ele>341.6666666666667</ele><time>2026-05-01T14:04:20.001Z</time></trkpt><trkpt lat="43.67340483284271" lon="12.445396836533861"><ele>342.3333333333333</ele><time>2026-05-01T14:04:21.001Z</time></trkpt><trkpt lat="43.67339574233876" lon="12.445174377420702"><ele>343.0</ele><time>2026-05-01T14:04:22.001Z</time></trkpt><trkpt lat="43.67337760282253" lon="12.444933331304007"><ele>343.0</ele><time>2026-05-01T14:04:23.001Z</time></trkpt><trkpt lat="43.67336262398503" lon="12.444694847040935"><ele>343.0</ele><time>2026-05-01T14:04:24.001Z</time></trkpt><trkpt lat="43.673344772357076" lon="12.444453370835815"><ele>343.0</ele><time>2026-05-01T14:04:25.001Z</time></trkpt><trkpt lat="43.67333603093491" lon="12.444217292823904"><ele>343.0</ele><time>2026-05-01T14:04:26.001Z</time></trkpt><trkpt lat="43.6733339845469" lon="12.444007538721182"><ele>343.0</ele><time>2026-05-01T14:04:27.001Z</time></trkpt><trkpt lat="43.67332533845252" lon="12.44376117626426"><ele>343.0</ele><time>2026-05-01T14:04:28.001Z</time></trkpt><trkpt lat="43.67331853236406" lon="12.44351647311394"><ele>342.0</ele><time>2026-05-01T14:04:29.001Z</time></trkpt><trkpt lat="43.6733099077705" lon="12.4432700484354"><ele>341.0</ele><time>2026-05-01T14:04:30.001Z</time></trkpt><trkpt lat="43.67331472559585" lon="12.44303066544672"><ele>340.0</ele><time>2026-05-01T14:04:31.001Z</time></trkpt><trkpt lat="43.67332941115656" lon="12.442822927506137"><ele>340.3333333333333</ele><time>2026-05-01T14:04:32.001Z</time></trkpt><trkpt lat="43.67332952501125" lon="12.442569746261485"><ele>340.6666666666667</ele><time>2026-05-01T14:04:33.001Z</time></trkpt><trkpt lat="43.67333353613269" lon="12.44231439820004"><ele>341.0</ele><time>2026-05-01T14:04:34.001Z</time></trkpt><trkpt lat="43.67333264467735" lon="12.442076930498965"><ele>341.0</ele><time>2026-05-01T14:04:35.001Z</time></trkpt><trkpt lat="43.67332550202737" lon="12.44183249793361"><ele>341.0</ele><time>2026-05-01T14:04:36.001Z</time></trkpt><trkpt lat="43.67330817730971" lon="12.441578688630559"><ele>341.0</ele><time>2026-05-01T14:04:37.001Z</time></trkpt><trkpt lat="43.673286773923245" lon="12.441341857000863"><ele>343.33333333333337</ele><time>2026-05-01T14:04:38.001Z</time></trkpt><trkpt lat="43.67326205252382" lon="12.441111218865275"><ele>345.6666666666667</ele><time>2026-05-01T14:04:39.001Z</time></trkpt><trkpt lat="43.67324343182145" lon="12.440874041642159"><ele>348.0</ele><time>2026-05-01T14:04:40.001Z</time></trkpt><trkpt lat="43.673229296262384" lon="12.440650114886115"><ele>349.6666666666667</ele><time>2026-05-01T14:04:41.001Z</time></trkpt><trkpt lat="43.67321338867581" lon="12.440422250501264"><ele>351.33333333333337</ele><time>2026-05-01T14:04:42.001Z</time></trkpt><trkpt lat="43.67319624591093" lon="12.440191252460899"><ele>353.0</ele><time>2026-05-01T14:04:43.001Z</time></trkpt><trkpt lat="43.6731766649878" lon="12.439962980641758"><ele>353.0</ele><time>2026-05-01T14:04:44.001Z</time></trkpt><trkpt lat="43.673147901086026" lon="12.439735188173465"><ele>353.0</ele><time>2026-05-01T14:04:45.001Z</time></trkpt><trkpt lat="43.673117838174306" lon="12.439506368343151"><ele>353.0</ele><time>2026-05-01T14:04:46.001Z</time></trkpt><trkpt lat="43.67308164373521" lon="12.439278968273854"><ele>351.33333333333337</ele><time>2026-05-01T14:04:47.001Z</time></trkpt><trkpt lat="43.67303847109308" lon="12.439052846426348"><ele>349.6666666666667</ele><time>2026-05-01T14:04:48.001Z</time></trkpt><trkpt lat="43.672980442334215" lon="12.438831559224843"><ele>348.0</ele><time>2026-05-01T14:04:49.001Z</time></trkpt><trkpt lat="43.67290986521693" lon="12.43861397575499"><ele>345.3333333333333</ele><time>2026-05-01T14:04:50.001Z</time></trkpt><trkpt lat="43.672827845499384" lon="12.438402922786869"><ele>342.66666666666663</ele><time>2026-05-01T14:04:51.001Z</time></trkpt><trkpt lat="43.672739215831754" lon="12.438200339308668"><ele>340.0</ele><time>2026-05-01T14:04:52.001Z</time></trkpt><trkpt lat="43.672641382368234" lon="12.438004601885261"><ele>340.3333333333333</ele><time>2026-05-01T14:04:53.001Z</time></trkpt><trkpt lat="43.67253625681758" lon="12.437814500957192"><ele>340.6666666666667</ele><time>2026-05-01T14:04:54.001Z</time></trkpt><trkpt lat="43.67242465635407" lon="12.437627891744235"><ele>341.0</ele><time>2026-05-01T14:04:55Z</time></trkpt><trkpt lat="43.67230436037522" lon="12.43744402726874"><ele>341.0</ele><time>2026-05-01T14:04:56Z</time></trkpt><trkpt lat="43.672200249518376" lon="12.437238025703637"><ele>341.0</ele><time>2026-05-01T14:04:57Z</time></trkpt><trkpt lat="43.67206864072048" lon="12.437056119654834"><ele>341.0</ele><time>2026-05-01T14:04:58Z</time></trkpt><trkpt lat="43.67196024541082" lon="12.436841976236773"><ele>340.33333333333337</ele><time>2026-05-01T14:04:59Z</time></trkpt><trkpt lat="43.67183807959207" lon="12.43664038082024"><ele>339.6666666666667</ele><time>2026-05-01T14:05:00Z</time></trkpt><trkpt lat="43.67171628741379" lon="12.436438295479864"><ele>339.0</ele><time>2026-05-01T14:05:01Z</time></trkpt><trkpt lat="43.671596056059364" lon="12.436225862235412"><ele>339.0</ele><time>2026-05-01T14:05:02Z</time></trkpt><trkpt lat="43.67148357872177" lon="12.436007343663906"><ele>339.0</ele><time>2026-05-01T14:05:03Z</time></trkpt><trkpt lat="43.67137692715597" lon="12.435795467809632"><ele>339.0</ele><time>2026-05-01T14:05:04Z</time></trkpt><trkpt lat="43.671308231171416" lon="12.435540279867238"><ele>339.3333333333333</ele><time>2026-05-01T14:05:05Z</time></trkpt><trkpt lat="43.6712373242953" lon="12.435292276256648"><ele>339.66666666666663</ele><time>2026-05-01T14:05:06Z</time></trkpt><trkpt lat="43.67116813031332" lon="12.435048289531423"><ele>340.0</ele><time>2026-05-01T14:05:07Z</time></trkpt><trkpt lat="43.67112486808589" lon="12.434792414081045"><ele>340.3333333333333</ele><time>2026-05-01T14:05:08Z</time></trkpt><trkpt lat="43.671094429886885" lon="12.434528435482402"><ele>340.6666666666667</ele><time>2026-05-01T14:05:09Z</time></trkpt><trkpt lat="43.67105032928042" lon="12.434258528532014"><ele>341.0</ele><time>2026-05-01T14:05:10Z</time></trkpt><trkpt lat="43.67100856245385" lon="12.433989767482869"><ele>341.0</ele><time>2026-05-01T14:05:11Z</time></trkpt><trkpt lat="43.67096878584938" lon="12.433726780982868"><ele>341.0</ele><time>2026-05-01T14:05:12Z</time></trkpt><trkpt lat="43.67092190932998" lon="12.433519650158582"><ele>341.0</ele><time>2026-05-01T14:05:13Z</time></trkpt><trkpt lat="43.67088452349816" lon="12.4332723381122"><ele>341.0</ele><time>2026-05-01T14:05:14Z</time></trkpt><trkpt lat="43.670849368921125" lon="12.433025558491835"><ele>341.0</ele><time>2026-05-01T14:05:15Z</time></trkpt><trkpt lat="43.67081039796051" lon="12.432777686651628"><ele>341.0</ele><time>2026-05-01T14:05:16Z</time></trkpt><trkpt lat="43.67077324999989" lon="12.432534170674584"><ele>341.33333333333337</ele><time>2026-05-01T14:05:17Z</time></trkpt><trkpt lat="43.67073694016771" lon="12.432293647442464"><ele>341.6666666666667</ele><time>2026-05-01T14:05:18Z</time></trkpt><trkpt lat="43.67069922182837" lon="12.432060843844972"><ele>342.0</ele><time>2026-05-01T14:05:19Z</time></trkpt><trkpt lat="43.67066384426428" lon="12.431833278941793"><ele>342.25</ele><time>2026-05-01T14:05:20Z</time></trkpt><trkpt lat="43.67063094669679" lon="12.431621521051039"><ele>342.5</ele><time>2026-05-01T14:05:21Z</time></trkpt><trkpt lat="43.6705958769808" lon="12.431413610881368"><ele>342.75</ele><time>2026-05-01T14:05:22Z</time></trkpt><trkpt lat="43.67056820872001" lon="12.431231762501323"><ele>343.0</ele><time>2026-05-01T14:05:23Z</time></trkpt><trkpt lat="43.670547432313036" lon="12.431093252744754"><ele>343.0</ele><time>2026-05-01T14:05:24Z</time></trkpt><trkpt lat="43.6705292371383" lon="12.430966925295271"><ele>343.0</ele><time>2026-05-01T14:05:25Z</time></trkpt><trkpt lat="43.670538369696644" lon="12.43085511001974"><ele>343.0</ele><time>2026-05-01T14:05:26Z</time></trkpt><trkpt lat="43.670584447999836" lon="12.430765622432366"><ele>343.0</ele><time>2026-05-01T14:05:27Z</time></trkpt><trkpt lat="43.67067471137301" lon="12.430742459585517"><ele>343.0</ele><time>2026-05-01T14:05:28Z</time></trkpt><trkpt lat="43.67076972528993" lon="12.430676190278897"><ele>343.0</ele><time>2026-05-01T14:05:29Z</time></trkpt><trkpt lat="43.670872183377874" lon="12.430607125995495"><ele>343.0</ele><time>2026-05-01T14:05:30Z</time></trkpt><trkpt lat="43.67099149527019" lon="12.43054609120958"><ele>343.0</ele><time>2026-05-01T14:05:31Z</time></trkpt><trkpt lat="43.67111987968792" lon="12.430526706607699"><ele>343.0</ele><time>2026-05-01T14:05:32Z</time></trkpt><trkpt lat="43.671248936082364" lon="12.43052254828781"><ele>343.66666666666663</ele><time>2026-05-01T14:05:33Z</time></trkpt><trkpt lat="43.67138367093966" lon="12.430562160167378"><ele>344.3333333333333</ele><time>2026-05-01T14:05:34Z</time></trkpt><trkpt lat="43.67151107051965" lon="12.43058286340511"><ele>345.0</ele><time>2026-05-01T14:05:35Z</time></trkpt><trkpt lat="43.67169640105875" lon="12.430646793391052"><ele>345.0</ele><time>2026-05-01T14:05:36Z</time></trkpt><trkpt lat="43.671828828008216" lon="12.43056988073389"><ele>345.0</ele><time>2026-05-01T14:05:37Z</time></trkpt><trkpt lat="43.67182229124588" lon="12.430423320601337"><ele>345.0</ele><time>2026-05-01T14:05:38Z</time></trkpt><trkpt lat="43.67192091368846" lon="12.430274432782289"><ele>345.0</ele><time>2026-05-01T14:05:39Z</time></trkpt><trkpt lat="43.67203340645242" lon="12.430111956503236"><ele>344.6666666666667</ele><time>2026-05-01T14:05:40Z</time></trkpt><trkpt lat="43.67216123738479" lon="12.429935788405254"><ele>344.33333333333337</ele><time>2026-05-01T14:05:41Z</time></trkpt><trkpt lat="43.672301708737926" lon="12.429748075253848"><ele>344.0</ele><time>2026-05-01T14:05:42Z</time></trkpt><trkpt lat="43.672436501102396" lon="12.429565466625196"><ele>344.6666666666667</ele><time>2026-05-01T14:05:43Z</time></trkpt><trkpt lat="43.67256926511757" lon="12.429382777232664"><ele>345.3333333333333</ele><time>2026-05-01T14:05:44Z</time></trkpt><trkpt lat="43.67271024325868" lon="12.429220608079577"><ele>346.0</ele><time>2026-05-01T14:05:45Z</time></trkpt><trkpt lat="43.67282669495489" lon="12.42906963667386"><ele>347.0</ele><time>2026-05-01T14:05:46Z</time></trkpt><trkpt lat="43.67292722607906" lon="12.42895121216017"><ele>348.0</ele><time>2026-05-01T14:05:47Z</time></trkpt><trkpt lat="43.67301948987443" lon="12.428884031813459"><ele>349.0</ele><time>2026-05-01T14:05:48Z</time></trkpt><trkpt lat="43.673099533843015" lon="12.428887661316763"><ele>350.0</ele><time>2026-05-01T14:05:49.001Z</time></trkpt><trkpt lat="43.673187399570544" lon="12.42891930351663"><ele>351.0</ele><time>2026-05-01T14:05:50.001Z</time></trkpt><trkpt lat="43.673229050899316" lon="12.429055656701125"><ele>351.0</ele><time>2026-05-01T14:05:51.001Z</time></trkpt><trkpt lat="43.673321199839876" lon="12.429198256118237"><ele>351.0</ele><time>2026-05-01T14:05:52.001Z</time></trkpt><trkpt lat="43.67342245077071" lon="12.429368306196634"><ele>351.0</ele><time>2026-05-01T14:05:53.001Z</time></trkpt><trkpt lat="43.67354148475168" lon="12.429542367982666"><ele>350.75</ele><time>2026-05-01T14:05:54.001Z</time></trkpt><trkpt lat="43.67363725809259" lon="12.429709505101872"><ele>350.5</ele><time>2026-05-01T14:05:55.001Z</time></trkpt><trkpt lat="43.673727740315755" lon="12.429853730658"><ele>350.25</ele><time>2026-05-01T14:05:56.001Z</time></trkpt><trkpt lat="43.67382563498987" lon="12.42997172152298"><ele>350.0</ele><time>2026-05-01T14:05:57.001Z</time></trkpt><trkpt lat="43.673951530716785" lon="12.430027702601866"><ele>350.0</ele><time>2026-05-01T14:05:58.001Z</time></trkpt><trkpt lat="43.67410405481922" lon="12.430022334322535"><ele>350.0</ele><time>2026-05-01T14:05:59.001Z</time></trkpt><trkpt lat="43.67425846838697" lon="12.42995609020028"><ele>350.0</ele><time>2026-05-01T14:06:00.001Z</time></trkpt><trkpt lat="43.67439925230315" lon="12.429941042909249"><ele>350.75</ele><time>2026-05-01T14:06:01.001Z</time></trkpt><trkpt lat="43.6744942861017" lon="12.430034248584022"><ele>351.5</ele><time>2026-05-01T14:06:02.001Z</time></trkpt><trkpt lat="43.67458489894567" lon="12.430163168443842"><ele>352.25</ele><time>2026-05-01T14:06:03.001Z</time></trkpt><trkpt lat="43.67469034935579" lon="12.430308650981932"><ele>353.0</ele><time>2026-05-01T14:06:04.001Z</time></trkpt><trkpt lat="43.674789245161804" lon="12.430487602508832"><ele>353.0</ele><time>2026-05-01T14:06:05.001Z</time></trkpt><trkpt lat="43.67488857462627" lon="12.430641278037191"><ele>353.0</ele><time>2026-05-01T14:06:06.001Z</time></trkpt><trkpt lat="43.67498628881198" lon="12.43075502470069"><ele>353.0</ele><time>2026-05-01T14:06:07.001Z</time></trkpt><trkpt lat="43.67509537624555" lon="12.430800470726428"><ele>353.0</ele><time>2026-05-01T14:06:08.001Z</time></trkpt><trkpt lat="43.67521833229809" lon="12.430818210003862"><ele>354.6666666666667</ele><time>2026-05-01T14:06:09.001Z</time></trkpt><trkpt lat="43.67536956980519" lon="12.4307843625347"><ele>356.3333333333333</ele><time>2026-05-01T14:06:10.001Z</time></trkpt><trkpt lat="43.675531599717985" lon="12.430776085262165"><ele>358.0</ele><time>2026-05-01T14:06:11.001Z</time></trkpt><trkpt lat="43.675679370977285" lon="12.430870838411492"><ele>358.0</ele><time>2026-05-01T14:06:12.001Z</time></trkpt><trkpt lat="43.675851896137644" lon="12.43096421084568"><ele>358.0</ele><time>2026-05-01T14:06:13.001Z</time></trkpt><trkpt lat="43.676011782282075" lon="12.431099072176655"><ele>358.0</ele><time>2026-05-01T14:06:14.001Z</time></trkpt><trkpt lat="43.67617474470286" lon="12.431220912558386"><ele>359.0</ele><time>2026-05-01T14:06:15.001Z</time></trkpt><trkpt lat="43.67633726548309" lon="12.431330627272203"><ele>360.0</ele><time>2026-05-01T14:06:16.001Z</time></trkpt><trkpt lat="43.67649136013321" lon="12.431413544264231"><ele>361.0</ele><time>2026-05-01T14:06:17.001Z</time></trkpt><trkpt lat="43.67664262284052" lon="12.43147055836735"><ele>361.0</ele><time>2026-05-01T14:06:18.001Z</time></trkpt><trkpt lat="43.676794701384544" lon="12.431522430004602"><ele>361.0</ele><time>2026-05-01T14:06:19.001Z</time></trkpt><trkpt lat="43.67694349607645" lon="12.431583230788593"><ele>361.0</ele><time>2026-05-01T14:06:20.001Z</time></trkpt><trkpt lat="43.677093575578745" lon="12.431666522660736"><ele>362.66666666666663</ele><time>2026-05-01T14:06:21.001Z</time></trkpt><trkpt lat="43.677248160213374" lon="12.4317623524514"><ele>364.3333333333333</ele><time>2026-05-01T14:06:22.001Z</time></trkpt><trkpt lat="43.67740405416239" lon="12.431880510084932"><ele>366.0</ele><time>2026-05-01T14:06:23.001Z</time></trkpt><trkpt lat="43.677579238454676" lon="12.431994379943117"><ele>366.0</ele><time>2026-05-01T14:06:24.001Z</time></trkpt><trkpt lat="43.67775393252438" lon="12.432107931059809"><ele>366.0</ele><time>2026-05-01T14:06:25.001Z</time></trkpt><trkpt lat="43.67791413789522" lon="12.432217530769499"><ele>366.0</ele><time>2026-05-01T14:06:26.001Z</time></trkpt><trkpt lat="43.67804945687059" lon="12.43232131585038"><ele>366.75</ele><time>2026-05-01T14:06:27.001Z</time></trkpt><trkpt lat="43.67817019998284" lon="12.432397688377778"><ele>367.5</ele><time>2026-05-01T14:06:28.001Z</time></trkpt><trkpt lat="43.67827891352413" lon="12.432493727573554"><ele>368.25</ele><time>2026-05-01T14:06:29.001Z</time></trkpt><trkpt lat="43.67838600629274" lon="12.432623700389142"><ele>369.0</ele><time>2026-05-01T14:06:30.001Z</time></trkpt><trkpt lat="43.67853049353758" lon="12.432775607046263"><ele>369.6666666666667</ele><time>2026-05-01T14:06:31.001Z</time></trkpt><trkpt lat="43.67868769158731" lon="12.432941716902741"><ele>370.33333333333337</ele><time>2026-05-01T14:06:32.001Z</time></trkpt><trkpt lat="43.67884610830307" lon="12.433155448466731"><ele>371.0</ele><time>2026-05-01T14:06:33.001Z</time></trkpt><trkpt lat="43.679008166291126" lon="12.433382337893077"><ele>371.0</ele><time>2026-05-01T14:06:34.001Z</time></trkpt><trkpt lat="43.67916445400123" lon="12.43358898376853"><ele>371.0</ele><time>2026-05-01T14:06:35.001Z</time></trkpt><trkpt lat="43.67931148720673" lon="12.433788667160348"><ele>371.0</ele><time>2026-05-01T14:06:36.001Z</time></trkpt><trkpt lat="43.679452864715884" lon="12.433972930710407"><ele>371.6666666666667</ele><time>2026-05-01T14:06:37.001Z</time></trkpt><trkpt lat="43.679586690626664" lon="12.434145204783434"><ele>372.3333333333333</ele><time>2026-05-01T14:06:38.001Z</time></trkpt><trkpt lat="43.67971007513875" lon="12.434302367293277"><ele>373.0</ele><time>2026-05-01T14:06:39.001Z</time></trkpt><trkpt lat="43.67982722035846" lon="12.434461522314296"><ele>373.0</ele><time>2026-05-01T14:06:40.001Z</time></trkpt><trkpt lat="43.679953150743295" lon="12.434620804322435"><ele>373.0</ele><time>2026-05-01T14:06:41.001Z</time></trkpt><trkpt lat="43.680099408480515" lon="12.43475667470957"><ele>373.0</ele><time>2026-05-01T14:06:42.001Z</time></trkpt><trkpt lat="43.680265088933055" lon="12.434893360924017"><ele>371.3333333333333</ele><time>2026-05-01T14:06:43.001Z</time></trkpt><trkpt lat="43.680442073660025" lon="12.435012088792671"><ele>369.6666666666667</ele><time>2026-05-01T14:06:44.001Z</time></trkpt><trkpt lat="43.680614645721185" lon="12.435117278090905"><ele>368.0</ele><time>2026-05-01T14:06:45.001Z</time></trkpt><trkpt lat="43.68078382188447" lon="12.43519257684608"><ele>368.0</ele><time>2026-05-01T14:06:46.001Z</time></trkpt><trkpt lat="43.68096630961806" lon="12.435240999050404"><ele>368.0</ele><time>2026-05-01T14:06:47.001Z</time></trkpt><trkpt lat="43.68116627325224" lon="12.435268509504647"><ele>368.0</ele><time>2026-05-01T14:06:48.001Z</time></trkpt><trkpt lat="43.68136675728733" lon="12.435277710225389"><ele>367.6666666666667</ele><time>2026-05-01T14:06:49.001Z</time></trkpt><trkpt lat="43.68155386723551" lon="12.435283403980137"><ele>367.3333333333333</ele><time>2026-05-01T14:06:50.001Z</time></trkpt><trkpt lat="43.681720848491246" lon="12.435273533162214"><ele>367.0</ele><time>2026-05-01T14:06:51.001Z</time></trkpt><trkpt lat="43.68187187908971" lon="12.43522210668715"><ele>365.66666666666663</ele><time>2026-05-01T14:06:52.001Z</time></trkpt><trkpt lat="43.682008878749365" lon="12.435121973104733"><ele>364.3333333333333</ele><time>2026-05-01T14:06:53.001Z</time></trkpt><trkpt lat="43.68214624333827" lon="12.43501306674387"><ele>363.0</ele><time>2026-05-01T14:06:54.001Z</time></trkpt><trkpt lat="43.682281835653576" lon="12.434948384580698"><ele>363.0</ele><time>2026-05-01T14:06:55.001Z</time></trkpt><trkpt lat="43.68241940390393" lon="12.434967526001543"><ele>363.0</ele><time>2026-05-01T14:06:56.001Z</time></trkpt><trkpt lat="43.68253901143018" lon="12.435078892938275"><ele>363.0</ele><time>2026-05-01T14:06:57.001Z</time></trkpt><trkpt lat="43.68265215170051" lon="12.435203139065703"><ele>363.0</ele><time>2026-05-01T14:06:58.001Z</time></trkpt><trkpt lat="43.68271941673664" lon="12.435400894159306"><ele>363.3333333333333</ele><time>2026-05-01T14:06:59.001Z</time></trkpt><trkpt lat="43.682732355301596" lon="12.435626668811196"><ele>363.66666666666663</ele><time>2026-05-01T14:07:00.001Z</time></trkpt><trkpt lat="43.682709010825384" lon="12.435854382862022"><ele>364.0</ele><time>2026-05-01T14:07:01Z</time></trkpt><trkpt lat="43.68269702885204" lon="12.436091320815278"><ele>365.0</ele><time>2026-05-01T14:07:02Z</time></trkpt><trkpt lat="43.6826715216879" lon="12.436323101718886"><ele>366.0</ele><time>2026-05-01T14:07:03Z</time></trkpt><trkpt lat="43.6826834010199" lon="12.436563961240608"><ele>367.0</ele><time>2026-05-01T14:07:04Z</time></trkpt><trkpt lat="43.68272445494112" lon="12.436803068960856"><ele>371.0</ele><time>2026-05-01T14:07:05Z</time></trkpt><trkpt lat="43.68280317958613" lon="12.4370485304257"><ele>375.0</ele><time>2026-05-01T14:07:06Z</time></trkpt><trkpt lat="43.68290759278547" lon="12.437304559441111"><ele>379.0</ele><time>2026-05-01T14:07:07Z</time></trkpt><trkpt lat="43.683019275200145" lon="12.437561153801795"><ele>379.0</ele><time>2026-05-01T14:07:08Z</time></trkpt><trkpt lat="43.68312988289684" lon="12.437820577336637"><ele>379.0</ele><time>2026-05-01T14:07:09Z</time></trkpt><trkpt lat="43.68323816987402" lon="12.43808161435237"><ele>379.0</ele><time>2026-05-01T14:07:10Z</time></trkpt><trkpt lat="43.68333024696975" lon="12.438318404884146"><ele>378.0</ele><time>2026-05-01T14:07:11Z</time></trkpt><trkpt lat="43.683398327080965" lon="12.4385368228631"><ele>377.0</ele><time>2026-05-01T14:07:12Z</time></trkpt><trkpt lat="43.68345751360174" lon="12.438743250925738"><ele>376.0</ele><time>2026-05-01T14:07:13Z</time></trkpt><trkpt lat="43.68353364648957" lon="12.438937961746973"><ele>378.0</ele><time>2026-05-01T14:07:14Z</time></trkpt><trkpt lat="43.683647752831206" lon="12.439130700867375"><ele>380.0</ele><time>2026-05-01T14:07:15Z</time></trkpt><trkpt lat="43.683807345385084" lon="12.439322207624754"><ele>382.0</ele><time>2026-05-01T14:07:16Z</time></trkpt><trkpt lat="43.68398650214258" lon="12.439516670496722"><ele>378.0</ele><time>2026-05-01T14:07:17Z</time></trkpt><trkpt lat="43.68416713147164" lon="12.4397232525286"><ele>374.0</ele><time>2026-05-01T14:07:18Z</time></trkpt><trkpt lat="43.68433129866149" lon="12.439936052467818"><ele>375.6666666666667</ele><time>2026-05-01T14:07:19Z</time></trkpt><trkpt lat="43.68444492828017" lon="12.440155630172997"><ele>377.3333333333333</ele><time>2026-05-01T14:07:20Z</time></trkpt><trkpt lat="43.68453357591946" lon="12.440346801881722"><ele>379.0</ele><time>2026-05-01T14:07:21Z</time></trkpt><trkpt lat="43.684616838156316" lon="12.440513087961001"><ele>379.0</ele><time>2026-05-01T14:07:22Z</time></trkpt><trkpt lat="43.68468814660221" lon="12.440655824835796"><ele>379.0</ele><time>2026-05-01T14:07:23Z</time></trkpt><trkpt lat="43.68478893754722" lon="12.440766878922819"><ele>379.0</ele><time>2026-05-01T14:07:24Z</time></trkpt><trkpt lat="43.68494056726695" lon="12.44083784350459"><ele>379.0</ele><time>2026-05-01T14:07:25Z</time></trkpt><trkpt lat="43.6851307929679" lon="12.440861314839317"><ele>382.5</ele><time>2026-05-01T14:07:26Z</time></trkpt><trkpt lat="43.68534685692349" lon="12.44086938491911"><ele>386.0</ele><time>2026-05-01T14:07:27Z</time></trkpt><trkpt lat="43.685585803694025" lon="12.440892205633723"><ele>386.0</ele><time>2026-05-01T14:07:28Z</time></trkpt><trkpt lat="43.68584098966793" lon="12.440922801428503"><ele>386.0</ele><time>2026-05-01T14:07:29Z</time></trkpt><trkpt lat="43.68610362501235" lon="12.440959731216287"><ele>389.5</ele><time>2026-05-01T14:07:30Z</time></trkpt><trkpt lat="43.68637482250499" lon="12.441004040714352"><ele>393.0</ele><time>2026-05-01T14:07:31Z</time></trkpt><trkpt lat="43.68665795401743" lon="12.441050527428803"><ele>396.5</ele><time>2026-05-01T14:07:32Z</time></trkpt><trkpt lat="43.68694199209146" lon="12.441115575975504"><ele>400.0</ele><time>2026-05-01T14:07:33Z</time></trkpt><trkpt lat="43.68721825263106" lon="12.44123122809389"><ele>396.5</ele><time>2026-05-01T14:07:34Z</time></trkpt><trkpt lat="43.687485722029706" lon="12.441369899961726"><ele>393.0</ele><time>2026-05-01T14:07:35Z</time></trkpt><trkpt lat="43.68772925744947" lon="12.44152514139699"><ele>396.5</ele><time>2026-05-01T14:07:36Z</time></trkpt><trkpt lat="43.687960974922184" lon="12.441617788874177"><ele>400.0</ele><time>2026-05-01T14:07:37Z</time></trkpt><trkpt lat="43.68817868183796" lon="12.441701161492233"><ele>400.0</ele><time>2026-05-01T14:07:38Z</time></trkpt><trkpt lat="43.68837942314335" lon="12.441770221060187"><ele>400.0</ele><time>2026-05-01T14:07:39Z</time></trkpt><trkpt lat="43.68855335556687" lon="12.441896504901136"><ele>400.0</ele><time>2026-05-01T14:07:40Z</time></trkpt><trkpt lat="43.68872806500898" lon="12.441984812697333"><ele>401.6666666666667</ele><time>2026-05-01T14:07:41Z</time></trkpt><trkpt lat="43.68887683216645" lon="12.442090528230862"><ele>403.33333333333337</ele><time>2026-05-01T14:07:42Z</time></trkpt><trkpt lat="43.689021086349186" lon="12.442180975703785"><ele>405.0</ele><time>2026-05-01T14:07:43Z</time></trkpt><trkpt lat="43.689161497692126" lon="12.442250377520018"><ele>405.25</ele><time>2026-05-01T14:07:44Z</time></trkpt><trkpt lat="43.689297596546176" lon="12.44230000548396"><ele>405.5</ele><time>2026-05-01T14:07:45Z</time></trkpt><trkpt lat="43.68943259191234" lon="12.442353211632227"><ele>405.75</ele><time>2026-05-01T14:07:46Z</time></trkpt><trkpt lat="43.68957293513605" lon="12.442420298998393"><ele>406.0</ele><time>2026-05-01T14:07:47Z</time></trkpt><trkpt lat="43.689729458456334" lon="12.442505008842051"><ele>404.0</ele><time>2026-05-01T14:07:48Z</time></trkpt><trkpt lat="43.68989601378201" lon="12.44257992941861"><ele>402.0</ele><time>2026-05-01T14:07:49Z</time></trkpt><trkpt lat="43.69007760166878" lon="12.44263627898313"><ele>400.0</ele><time>2026-05-01T14:07:50Z</time></trkpt><trkpt lat="43.69026867908016" lon="12.442678825843783"><ele>399.0</ele><time>2026-05-01T14:07:51Z</time></trkpt><trkpt lat="43.69046733004082" lon="12.442717488059987"><ele>398.0</ele><time>2026-05-01T14:07:52Z</time></trkpt><trkpt lat="43.69066243984229" lon="12.442747907507982"><ele>397.0</ele><time>2026-05-01T14:07:53Z</time></trkpt><trkpt lat="43.69085721839831" lon="12.44277533725472"><ele>397.0</ele><time>2026-05-01T14:07:54Z</time></trkpt><trkpt lat="43.691050519853356" lon="12.442815598967083"><ele>397.0</ele><time>2026-05-01T14:07:55Z</time></trkpt><trkpt lat="43.6912341657667" lon="12.442885045830808"><ele>397.0</ele><time>2026-05-01T14:07:56Z</time></trkpt><trkpt lat="43.69140856735326" lon="12.442996097440133"><ele>393.33333333333337</ele><time>2026-05-01T14:07:57Z</time></trkpt><trkpt lat="43.69157766800779" lon="12.443138783648678"><ele>389.66666666666663</ele><time>2026-05-01T14:07:58Z</time></trkpt><trkpt lat="43.691734015347386" lon="12.443264415937449"><ele>386.0</ele><time>2026-05-01T14:07:59Z</time></trkpt><trkpt lat="43.69189497671861" lon="12.44339898491435"><ele>383.5</ele><time>2026-05-01T14:08:00Z</time></trkpt><trkpt lat="43.69197167455529" lon="12.443753577690362"><ele>381.0</ele><time>2026-05-01T14:08:01Z</time></trkpt><trkpt lat="43.692140311739415" lon="12.443880504385412"><ele>380.0</ele><time>2026-05-01T14:08:02Z</time></trkpt><trkpt lat="43.69231747241927" lon="12.444001461226986"><ele>379.0</ele><time>2026-05-01T14:08:03.001Z</time></trkpt><trkpt lat="43.69256256826803" lon="12.443967523749135"><ele>378.0</ele><time>2026-05-01T14:08:04.001Z</time></trkpt><trkpt lat="43.69273624033661" lon="12.444112624237118"><ele>376.3333333333333</ele><time>2026-05-01T14:08:05.001Z</time></trkpt><trkpt lat="43.69291327839651" lon="12.444261870969754"><ele>374.66666666666663</ele><time>2026-05-01T14:08:06.001Z</time></trkpt><trkpt lat="43.69308928064341" lon="12.444406531604171"><ele>373.0</ele><time>2026-05-01T14:08:07.001Z</time></trkpt><trkpt lat="43.693255242012036" lon="12.444541133013011"><ele>373.0</ele><time>2026-05-01T14:08:08.001Z</time></trkpt><trkpt lat="43.693418628539625" lon="12.44467764852397"><ele>373.0</ele><time>2026-05-01T14:08:09.001Z</time></trkpt><trkpt lat="43.693587630680796" lon="12.44481435328758"><ele>373.0</ele><time>2026-05-01T14:08:10.001Z</time></trkpt><trkpt lat="43.69375665919598" lon="12.444944147211963"><ele>374.66666666666663</ele><time>2026-05-01T14:08:11.001Z</time></trkpt><trkpt lat="43.69391734432177" lon="12.445061800896267"><ele>376.3333333333333</ele><time>2026-05-01T14:08:12.001Z</time></trkpt><trkpt lat="43.69408388043871" lon="12.445163506908852"><ele>378.0</ele><time>2026-05-01T14:08:13.001Z</time></trkpt><trkpt lat="43.694247800587995" lon="12.445262176426514"><ele>378.0</ele><time>2026-05-01T14:08:14.001Z</time></trkpt><trkpt lat="43.69440766697432" lon="12.445351207209166"><ele>378.0</ele><time>2026-05-01T14:08:15.001Z</time></trkpt><trkpt lat="43.69457480452867" lon="12.445434795113355"><ele>378.0</ele><time>2026-05-01T14:08:16.001Z</time></trkpt><trkpt lat="43.69474412961439" lon="12.445508663946763"><ele>376.3333333333333</ele><time>2026-05-01T14:08:17.001Z</time></trkpt><trkpt lat="43.69491362309564" lon="12.445576310505079"><ele>374.66666666666663</ele><time>2026-05-01T14:08:18.001Z</time></trkpt><trkpt lat="43.695083811028326" lon="12.445633344186366"><ele>373.0</ele><time>2026-05-01T14:08:19.001Z</time></trkpt><trkpt lat="43.69525878731821" lon="12.445680093470402"><ele>376.66666666666663</ele><time>2026-05-01T14:08:20.001Z</time></trkpt><trkpt lat="43.69543238576933" lon="12.445716887223535"><ele>380.3333333333333</ele><time>2026-05-01T14:08:21.001Z</time></trkpt><trkpt lat="43.6956083583365" lon="12.445752443388386"><ele>384.0</ele><time>2026-05-01T14:08:22.001Z</time></trkpt><trkpt lat="43.69578515249868" lon="12.445772850191576"><ele>384.0</ele><time>2026-05-01T14:08:23.001Z</time></trkpt><trkpt lat="43.69596419022148" lon="12.445778114203591"><ele>384.0</ele><time>2026-05-01T14:08:24.001Z</time></trkpt><trkpt lat="43.696142757094" lon="12.445770624784943"><ele>384.0</ele><time>2026-05-01T14:08:25.001Z</time></trkpt><trkpt lat="43.69633027495721" lon="12.44575099515922"><ele>392.0</ele><time>2026-05-01T14:08:26.024Z</time></trkpt><trkpt lat="43.696514890571514" lon="12.445722515793626"><ele>400.0</ele><time>2026-05-01T14:08:27.021Z</time></trkpt><trkpt lat="43.696702015548105" lon="12.445685503660188"><ele>408.0</ele><time>2026-05-01T14:08:28.022Z</time></trkpt><trkpt lat="43.69688874119544" lon="12.445643141048548"><ele>411.0</ele><time>2026-05-01T14:08:29.017Z</time></trkpt><trkpt lat="43.69708050126994" lon="12.445591154298004"><ele>414.0</ele><time>2026-05-01T14:08:30.016Z</time></trkpt><trkpt lat="43.697274027227635" lon="12.44553526914106"><ele>417.0</ele><time>2026-05-01T14:08:31.021Z</time></trkpt><trkpt lat="43.71695781596351" lon="12.438526963826677"><ele>385.0</ele><time>2026-05-01T14:10:10.001Z</time></trkpt><trkpt lat="43.717155960484895" lon="12.438212718368609"><ele>353.0</ele><time>2026-05-01T14:10:11.001Z</time></trkpt><trkpt lat="43.71729291003935" lon="12.438003282551355"><ele>354.6666666666667</ele><time>2026-05-01T14:10:12.001Z</time></trkpt><trkpt lat="43.717424271122276" lon="12.437813073510616"><ele>356.3333333333333</ele><time>2026-05-01T14:10:13.001Z</time></trkpt><trkpt lat="43.71754442623557" lon="12.437602743357914"><ele>358.0</ele><time>2026-05-01T14:10:14.001Z</time></trkpt><trkpt lat="43.717652697154726" lon="12.43737939179273"><ele>355.3333333333333</ele><time>2026-05-01T14:10:15.001Z</time></trkpt><trkpt lat="43.717787647831905" lon="12.43717696953428"><ele>352.6666666666667</ele><time>2026-05-01T14:10:16.001Z</time></trkpt><trkpt lat="43.71791521005644" lon="12.436953669982957"><ele>350.0</ele><time>2026-05-01T14:10:17.001Z</time></trkpt><trkpt lat="43.71804603887237" lon="12.436714840707458"><ele>350.0</ele><time>2026-05-01T14:10:18.001Z</time></trkpt><trkpt lat="43.7181794343765" lon="12.436462929400802"><ele>350.0</ele><time>2026-05-01T14:10:19.001Z</time></trkpt><trkpt lat="43.71831302045061" lon="12.43619069676935"><ele>352.0</ele><time>2026-05-01T14:10:20.001Z</time></trkpt><trkpt lat="43.71847447609802" lon="12.435930325893542"><ele>354.0</ele><time>2026-05-01T14:10:21.001Z</time></trkpt><trkpt lat="43.71863099623825" lon="12.43566518904687"><ele>349.0</ele><time>2026-05-01T14:10:22.001Z</time></trkpt><trkpt lat="43.71881020416987" lon="12.435400419396757"><ele>344.0</ele><time>2026-05-01T14:10:23.001Z</time></trkpt><trkpt lat="43.71898661656208" lon="12.435131150016268"><ele>344.0</ele><time>2026-05-01T14:10:24.001Z</time></trkpt><trkpt lat="43.71915012163345" lon="12.434843190643523"><ele>344.0</ele><time>2026-05-01T14:10:25.001Z</time></trkpt><trkpt lat="43.71932165730669" lon="12.434542128698132"><ele>345.0</ele><time>2026-05-01T14:10:26Z</time></trkpt><trkpt lat="43.719353165832565" lon="12.434412671561875"><ele>346.0</ele><time>2026-05-01T14:10:27Z</time></trkpt><trkpt lat="43.71949575926345" lon="12.434159882389055"><ele>347.0</ele><time>2026-05-01T14:10:28Z</time></trkpt><trkpt lat="43.719636079796324" lon="12.433902558547288"><ele>340.0</ele><time>2026-05-01T14:10:29Z</time></trkpt><trkpt lat="43.719778708955275" lon="12.43364744633498"><ele>333.0</ele><time>2026-05-01T14:10:30Z</time></trkpt><trkpt lat="43.719925247575965" lon="12.433399641645043"><ele>333.0</ele><time>2026-05-01T14:10:31Z</time></trkpt><trkpt lat="43.7200780872334" lon="12.433165573585367"><ele>333.0</ele><time>2026-05-01T14:10:32Z</time></trkpt><trkpt lat="43.72022885475735" lon="12.432943020082131"><ele>333.0</ele><time>2026-05-01T14:10:33Z</time></trkpt><trkpt lat="43.72038025168135" lon="12.432737670740007"><ele>329.3333333333333</ele><time>2026-05-01T14:10:34Z</time></trkpt><trkpt lat="43.720540048435" lon="12.4325529584773"><ele>325.66666666666663</ele><time>2026-05-01T14:10:35Z</time></trkpt><trkpt lat="43.72070165546864" lon="12.432374703345294"><ele>322.0</ele><time>2026-05-01T14:10:36Z</time></trkpt><trkpt lat="43.7208705742295" lon="12.432200766444977"><ele>322.0</ele><time>2026-05-01T14:10:37Z</time></trkpt><trkpt lat="43.72104485636504" lon="12.432039364455445"><ele>322.0</ele><time>2026-05-01T14:10:38Z</time></trkpt><trkpt lat="43.721225065987554" lon="12.43189185082584"><ele>322.0</ele><time>2026-05-01T14:10:39Z</time></trkpt><trkpt lat="43.72141219877156" lon="12.431757724027523"><ele>320.0</ele><time>2026-05-01T14:10:40Z</time></trkpt><trkpt lat="43.72160184327013" lon="12.431632972396372"><ele>318.0</ele><time>2026-05-01T14:10:41Z</time></trkpt><trkpt lat="43.721796169589375" lon="12.431521078015258"><ele>316.0</ele><time>2026-05-01T14:10:42Z</time></trkpt><trkpt lat="43.72199343161319" lon="12.431422593929046"><ele>315.0</ele><time>2026-05-01T14:10:43Z</time></trkpt><trkpt lat="43.7221965669537" lon="12.431348642882924"><ele>314.0</ele><time>2026-05-01T14:10:44Z</time></trkpt><trkpt lat="43.72240363492876" lon="12.431286062994557"><ele>313.0</ele><time>2026-05-01T14:10:45Z</time></trkpt><trkpt lat="43.72261137811571" lon="12.431233446899556"><ele>310.66666666666663</ele><time>2026-05-01T14:10:46Z</time></trkpt><trkpt lat="43.722827337912264" lon="12.431195882711469"><ele>308.3333333333333</ele><time>2026-05-01T14:10:47Z</time></trkpt><trkpt lat="43.723046653478605" lon="12.431170106144654"><ele>306.0</ele><time>2026-05-01T14:10:48Z</time></trkpt><trkpt lat="43.723262841752025" lon="12.431150877393506"><ele>306.0</ele><time>2026-05-01T14:10:49Z</time></trkpt><trkpt lat="43.72348019408912" lon="12.431140378367735"><ele>306.0</ele><time>2026-05-01T14:10:50Z</time></trkpt><trkpt lat="43.72370087792177" lon="12.431150478456077"><ele>306.0</ele><time>2026-05-01T14:10:51Z</time></trkpt><trkpt lat="43.72390673146165" lon="12.431163218718144"><ele>304.6666666666667</ele><time>2026-05-01T14:10:52Z</time></trkpt><trkpt lat="43.7241041340346" lon="12.43118769767735"><ele>303.33333333333337</ele><time>2026-05-01T14:10:53Z</time></trkpt><trkpt lat="43.7242995043604" lon="12.431217178248575"><ele>302.0</ele><time>2026-05-01T14:10:54Z</time></trkpt><trkpt lat="43.72449346068969" lon="12.431246512507231"><ele>299.0</ele><time>2026-05-01T14:10:55Z</time></trkpt><trkpt lat="43.724677678508634" lon="12.431267509881204"><ele>296.0</ele><time>2026-05-01T14:10:56Z</time></trkpt><trkpt lat="43.72486134373355" lon="12.431285704305413"><ele>293.0</ele><time>2026-05-01T14:10:57Z</time></trkpt><trkpt lat="43.72504748739771" lon="12.431302760117505"><ele>290.6666666666667</ele><time>2026-05-01T14:10:58Z</time></trkpt><trkpt lat="43.72523393603369" lon="12.431324980424254"><ele>288.3333333333333</ele><time>2026-05-01T14:10:59Z</time></trkpt><trkpt lat="43.72541672704643" lon="12.431347929798346"><ele>286.0</ele><time>2026-05-01T14:11:00Z</time></trkpt><trkpt lat="43.72559694567079" lon="12.431372859296406"><ele>286.0</ele><time>2026-05-01T14:11:01Z</time></trkpt><trkpt lat="43.72576839219965" lon="12.431397333435381"><ele>286.0</ele><time>2026-05-01T14:11:02Z</time></trkpt><trkpt lat="43.725933495098836" lon="12.431420496604641"><ele>286.0</ele><time>2026-05-01T14:11:03Z</time></trkpt><trkpt lat="43.72607181168273" lon="12.431440150144304"><ele>284.6</ele><time>2026-05-01T14:11:04Z</time></trkpt><trkpt lat="43.72619384997614" lon="12.431455862003226"><ele>283.20000000000005</ele><time>2026-05-01T14:11:05Z</time></trkpt><trkpt lat="43.72630678567917" lon="12.431469457895718"><ele>281.79999999999995</ele><time>2026-05-01T14:11:06Z</time></trkpt><trkpt lat="43.72640991927754" lon="12.431482850023125"><ele>280.4</ele><time>2026-05-01T14:11:07Z</time></trkpt><trkpt lat="43.72650491853333" lon="12.431497101707935"><ele>279.0</ele><time>2026-05-01T14:11:08Z</time></trkpt><trkpt lat="43.72659373740109" lon="12.431507948315517"><ele>279.0</ele><time>2026-05-01T14:11:09Z</time></trkpt><trkpt lat="43.726686749054515" lon="12.43151785258252"><ele>279.0</ele><time>2026-05-01T14:11:10Z</time></trkpt><trkpt lat="43.7267781570861" lon="12.431528382690857"><ele>279.0</ele><time>2026-05-01T14:11:11Z</time></trkpt><trkpt lat="43.726869755012466" lon="12.43154234443782"><ele>279.0</ele><time>2026-05-01T14:11:12Z</time></trkpt><trkpt lat="43.72696516811407" lon="12.431551355267398"><ele>279.0</ele><time>2026-05-01T14:11:13Z</time></trkpt><trkpt lat="43.727067043009676" lon="12.431563765986015"><ele>279.4</ele><time>2026-05-01T14:11:14Z</time></trkpt><trkpt lat="43.72717138550157" lon="12.431576830476661"><ele>279.79999999999995</ele><time>2026-05-01T14:11:15Z</time></trkpt><trkpt lat="43.727281473027574" lon="12.431591186987845"><ele>280.20000000000005</ele><time>2026-05-01T14:11:16Z</time></trkpt><trkpt lat="43.72738097952826" lon="12.431603368646103"><ele>280.6</ele><time>2026-05-01T14:11:17Z</time></trkpt><trkpt lat="43.72747047125" lon="12.431616588594453"><ele>281.0</ele><time>2026-05-01T14:11:18Z</time></trkpt><trkpt lat="43.72756290561128" lon="12.431627845998655"><ele>281.0</ele><time>2026-05-01T14:11:19Z</time></trkpt><trkpt lat="43.72765619642904" lon="12.431640748667409"><ele>281.0</ele><time>2026-05-01T14:11:20Z</time></trkpt><trkpt lat="43.727753173049415" lon="12.431653685703992"><ele>281.0</ele><time>2026-05-01T14:11:21Z</time></trkpt><trkpt lat="43.72785477930832" lon="12.431666940575738"><ele>281.0</ele><time>2026-05-01T14:11:22Z</time></trkpt><trkpt lat="43.727957032673324" lon="12.431679397100302"><ele>281.0</ele><time>2026-05-01T14:11:23Z</time></trkpt><trkpt lat="43.72806436125055" lon="12.431693197735099"><ele>282.40000000000003</ele><time>2026-05-01T14:11:24Z</time></trkpt><trkpt lat="43.72816911171023" lon="12.431706136881113"><ele>283.8</ele><time>2026-05-01T14:11:25.001Z</time></trkpt><trkpt lat="43.728276734997856" lon="12.431719676725447"><ele>285.20000000000005</ele><time>2026-05-01T14:11:26.001Z</time></trkpt><trkpt lat="43.728382467728196" lon="12.431731845898838"><ele>286.6</ele><time>2026-05-01T14:11:27.001Z</time></trkpt><trkpt lat="43.72847868686683" lon="12.431744927133353"><ele>288.0</ele><time>2026-05-01T14:11:28.001Z</time></trkpt><trkpt lat="43.72857209394219" lon="12.431754343029361"><ele>288.6666666666667</ele><time>2026-05-01T14:11:29.001Z</time></trkpt><trkpt lat="43.72866250251058" lon="12.431764019477274"><ele>289.3333333333333</ele><time>2026-05-01T14:11:30.001Z</time></trkpt><trkpt lat="43.7287538443923" lon="12.43177770375955"><ele>290.0</ele><time>2026-05-01T14:11:31.001Z</time></trkpt><trkpt lat="43.72883876705218" lon="12.431790148431066"><ele>290.66666666666663</ele><time>2026-05-01T14:11:32.001Z</time></trkpt><trkpt lat="43.72892329127169" lon="12.431801560513012"><ele>291.3333333333333</ele><time>2026-05-01T14:11:33.001Z</time></trkpt><trkpt lat="43.72900727756138" lon="12.431807883487116"><ele>292.0</ele><time>2026-05-01T14:11:34.001Z</time></trkpt><trkpt lat="43.72909039534475" lon="12.431815030167574"><ele>292.0</ele><time>2026-05-01T14:11:35.001Z</time></trkpt><trkpt lat="43.72917428647884" lon="12.431819763515051"><ele>292.0</ele><time>2026-05-01T14:11:36.001Z</time></trkpt><trkpt lat="43.729263388806416" lon="12.431827061080487"><ele>292.0</ele><time>2026-05-01T14:11:37.001Z</time></trkpt><trkpt lat="43.729354061202294" lon="12.43183943723722"><ele>292.0</ele><time>2026-05-01T14:11:38.001Z</time></trkpt><trkpt lat="43.729446269582546" lon="12.431854127447577"><ele>292.0</ele><time>2026-05-01T14:11:39.001Z</time></trkpt><trkpt lat="43.72953929697418" lon="12.431872082094607"><ele>292.16666666666663</ele><time>2026-05-01T14:11:40.001Z</time></trkpt><trkpt lat="43.72962634799778" lon="12.431884044400366"><ele>292.3333333333333</ele><time>2026-05-01T14:11:41.001Z</time></trkpt><trkpt lat="43.729705285243334" lon="12.431890973825501"><ele>292.5</ele><time>2026-05-01T14:11:42.001Z</time></trkpt><trkpt lat="43.72977348065958" lon="12.431898256189738"><ele>292.6666666666667</ele><time>2026-05-01T14:11:43.001Z</time></trkpt><trkpt lat="43.72987312823861" lon="12.431912824821769"><ele>292.83333333333337</ele><time>2026-05-01T14:11:45.001Z</time></trkpt><trkpt lat="43.72996261371369" lon="12.431950671747957"><ele>293.0</ele><time>2026-05-01T14:11:47.001Z</time></trkpt><trkpt lat="43.73010456023218" lon="12.43197887562341"><ele>293.0</ele><time>2026-05-01T14:11:49.001Z</time></trkpt><trkpt lat="43.73020083801814" lon="12.43198026635148"><ele>293.0</ele><time>2026-05-01T14:11:50.001Z</time></trkpt><trkpt lat="43.73032428911551" lon="12.43197022930011"><ele>293.0</ele><time>2026-05-01T14:11:51.001Z</time></trkpt><trkpt lat="43.73046837131583" lon="12.43195743187058"><ele>293.0</ele><time>2026-05-01T14:11:52.001Z</time></trkpt><trkpt lat="43.730614639764525" lon="12.431944660779337"><ele>294.6666666666667</ele><time>2026-05-01T14:11:53.001Z</time></trkpt><trkpt lat="43.730794773730885" lon="12.431932645153658"><ele>296.3333333333333</ele><time>2026-05-01T14:11:54.001Z</time></trkpt><trkpt lat="43.73098398204927" lon="12.431897607332475"><ele>298.0</ele><time>2026-05-01T14:11:55.001Z</time></trkpt><trkpt lat="43.73116913745661" lon="12.431866181698235"><ele>301.66666666666663</ele><time>2026-05-01T14:11:56.001Z</time></trkpt><trkpt lat="43.731349884763986" lon="12.431798685204942"><ele>305.3333333333333</ele><time>2026-05-01T14:11:57.001Z</time></trkpt><trkpt lat="43.73153965336071" lon="12.431719048914584"><ele>309.0</ele><time>2026-05-01T14:11:58.001Z</time></trkpt><trkpt lat="43.73174311530615" lon="12.431631696178691"><ele>313.5</ele><time>2026-05-01T14:11:59.001Z</time></trkpt><trkpt lat="43.731962861009094" lon="12.431541064315823"><ele>318.0</ele><time>2026-05-01T14:12:00.001Z</time></trkpt><trkpt lat="43.732199375921766" lon="12.431440363893879"><ele>318.0</ele><time>2026-05-01T14:12:01.001Z</time></trkpt><trkpt lat="43.732451810462344" lon="12.431318595675256"><ele>318.0</ele><time>2026-05-01T14:12:02.001Z</time></trkpt><trkpt lat="43.73273237957848" lon="12.431178161082835"><ele>313.0</ele><time>2026-05-01T14:12:03.001Z</time></trkpt><trkpt lat="43.73301999286342" lon="12.431063635939918"><ele>308.0</ele><time>2026-05-01T14:12:04.001Z</time></trkpt><trkpt lat="43.73330492594084" lon="12.430933534528437"><ele>313.0</ele><time>2026-05-01T14:12:05.001Z</time></trkpt><trkpt lat="43.73359523869041" lon="12.430801614147848"><ele>318.0</ele><time>2026-05-01T14:12:06.001Z</time></trkpt><trkpt lat="43.73386423643427" lon="12.430676736533261"><ele>318.0</ele><time>2026-05-01T14:12:07.001Z</time></trkpt><trkpt lat="43.73411175113252" lon="12.43056294483775"><ele>318.0</ele><time>2026-05-01T14:12:08.001Z</time></trkpt><trkpt lat="43.734371127565346" lon="12.43044112824796"><ele>316.5</ele><time>2026-05-01T14:12:09.001Z</time></trkpt><trkpt lat="43.734575636191366" lon="12.430351750798772"><ele>315.0</ele><time>2026-05-01T14:12:10.001Z</time></trkpt><trkpt lat="43.73479948197912" lon="12.43025202235386"><ele>315.0</ele><time>2026-05-01T14:12:11.001Z</time></trkpt><trkpt lat="43.735006361718355" lon="12.430133270968192"><ele>315.0</ele><time>2026-05-01T14:12:12.001Z</time></trkpt><trkpt lat="43.735214763599366" lon="12.430052670281956"><ele>315.0</ele><time>2026-05-01T14:12:13.001Z</time></trkpt><trkpt lat="43.73540281806934" lon="12.429914565438402"><ele>312.5</ele><time>2026-05-01T14:12:14.001Z</time></trkpt><trkpt lat="43.73560592036367" lon="12.429785194179253"><ele>310.0</ele><time>2026-05-01T14:12:15.001Z</time></trkpt><trkpt lat="43.73581364961186" lon="12.429640778432638"><ele>310.0</ele><time>2026-05-01T14:12:16.001Z</time></trkpt><trkpt lat="43.73602407489585" lon="12.429491040385779"><ele>310.0</ele><time>2026-05-01T14:12:17.001Z</time></trkpt><trkpt lat="43.73623754282405" lon="12.429341012179131"><ele>315.5</ele><time>2026-05-01T14:12:18.001Z</time></trkpt><trkpt lat="43.73645118059378" lon="12.429187699815035"><ele>321.0</ele><time>2026-05-01T14:12:19.001Z</time></trkpt><trkpt lat="43.736661003798815" lon="12.429048603797034"><ele>321.0</ele><time>2026-05-01T14:12:20.001Z</time></trkpt><trkpt lat="43.73686267970833" lon="12.42890923681266"><ele>321.0</ele><time>2026-05-01T14:12:21.001Z</time></trkpt><trkpt lat="43.737054023709646" lon="12.428779084073057"><ele>321.0</ele><time>2026-05-01T14:12:22Z</time></trkpt><trkpt lat="43.7372303452101" lon="12.428651668985971"><ele>321.3333333333333</ele><time>2026-05-01T14:12:23Z</time></trkpt><trkpt lat="43.737396450702754" lon="12.428530881161262"><ele>321.66666666666663</ele><time>2026-05-01T14:12:24Z</time></trkpt><trkpt lat="43.73755836673329" lon="12.42841105725365"><ele>322.0</ele><time>2026-05-01T14:12:25Z</time></trkpt><trkpt lat="43.73771438176654" lon="12.428286907332732"><ele>323.3333333333333</ele><time>2026-05-01T14:12:26Z</time></trkpt><trkpt lat="43.73786882177498" lon="12.42814353465159"><ele>324.6666666666667</ele><time>2026-05-01T14:12:27Z</time></trkpt><trkpt lat="43.73802118274372" lon="12.427964911764223"><ele>326.0</ele><time>2026-05-01T14:12:28Z</time></trkpt><trkpt lat="43.738181334563706" lon="12.427747639061186"><ele>326.0</ele><time>2026-05-01T14:12:29Z</time></trkpt><trkpt lat="43.73835720777887" lon="12.427508810587787"><ele>326.0</ele><time>2026-05-01T14:12:30Z</time></trkpt><trkpt lat="43.73853685316379" lon="12.427279017832817"><ele>328.0</ele><time>2026-05-01T14:12:31Z</time></trkpt><trkpt lat="43.73872095432581" lon="12.427048591477954"><ele>330.0</ele><time>2026-05-01T14:12:32Z</time></trkpt><trkpt lat="43.73890627810663" lon="12.426821944453648"><ele>330.0</ele><time>2026-05-01T14:12:33Z</time></trkpt><trkpt lat="43.7390780732089" lon="12.426590093178078"><ele>330.0</ele><time>2026-05-01T14:12:34Z</time></trkpt><trkpt lat="43.73925935704992" lon="12.426353248561787"><ele>335.0</ele><time>2026-05-01T14:12:35Z</time></trkpt><trkpt lat="43.739453697253225" lon="12.426129180143006"><ele>340.0</ele><time>2026-05-01T14:12:36Z</time></trkpt><trkpt lat="43.73964664768639" lon="12.42590378845381"><ele>340.0</ele><time>2026-05-01T14:12:37Z</time></trkpt><trkpt lat="43.739837862329644" lon="12.425680508736214"><ele>340.0</ele><time>2026-05-01T14:12:38Z</time></trkpt><trkpt lat="43.74003321748458" lon="12.425454624290252"><ele>343.0</ele><time>2026-05-01T14:12:39Z</time></trkpt><trkpt lat="43.74022970668369" lon="12.425233397351436"><ele>346.0</ele><time>2026-05-01T14:12:40Z</time></trkpt><trkpt lat="43.74042820613747" lon="12.425020874567137"><ele>346.0</ele><time>2026-05-01T14:12:41Z</time></trkpt><trkpt lat="43.740623671994" lon="12.42482130327407"><ele>346.0</ele><time>2026-05-01T14:12:42Z</time></trkpt><trkpt lat="43.7408206526593" lon="12.424648995498263"><ele>350.0</ele><time>2026-05-01T14:12:43Z</time></trkpt><trkpt lat="43.74100653275215" lon="12.424495761079578"><ele>354.0</ele><time>2026-05-01T14:12:44Z</time></trkpt><trkpt lat="43.74117916096682" lon="12.424346717707301"><ele>358.0</ele><time>2026-05-01T14:12:45Z</time></trkpt><trkpt lat="43.74133079482194" lon="12.424156646636293"><ele>358.0</ele><time>2026-05-01T14:12:46Z</time></trkpt><trkpt lat="43.74148524789041" lon="12.42395548451023"><ele>358.0</ele><time>2026-05-01T14:12:47Z</time></trkpt><trkpt lat="43.74163699839955" lon="12.423707688770392"><ele>358.0</ele><time>2026-05-01T14:12:48Z</time></trkpt><trkpt lat="43.741787865934725" lon="12.423443893026782"><ele>362.0</ele><time>2026-05-01T14:12:49Z</time></trkpt><trkpt lat="43.74193711344756" lon="12.423167881712581"><ele>366.0</ele><time>2026-05-01T14:12:50Z</time></trkpt><trkpt lat="43.742078655620354" lon="12.422855322004374"><ele>354.5</ele><time>2026-05-01T14:12:51Z</time></trkpt><trkpt lat="43.74221971836996" lon="12.422523836828333"><ele>343.0</ele><time>2026-05-01T14:12:52Z</time></trkpt><trkpt lat="43.74237464560399" lon="12.422206248250117"><ele>340.5</ele><time>2026-05-01T14:12:53Z</time></trkpt><trkpt lat="43.742532084344774" lon="12.421923678564553"><ele>338.0</ele><time>2026-05-01T14:12:54Z</time></trkpt><trkpt lat="43.74266287390975" lon="12.421610696663723"><ele>343.0</ele><time>2026-05-01T14:12:55Z</time></trkpt><trkpt lat="43.74280321119266" lon="12.421312729016437"><ele>348.0</ele><time>2026-05-01T14:12:56Z</time></trkpt><trkpt lat="43.742953414161676" lon="12.42102946936034"><ele>348.0</ele><time>2026-05-01T14:12:57Z</time></trkpt><trkpt lat="43.74310804230954" lon="12.420754384651138"><ele>348.0</ele><time>2026-05-01T14:12:58Z</time></trkpt><trkpt lat="43.74326647520351" lon="12.420479979166126"><ele>343.5</ele><time>2026-05-01T14:12:59Z</time></trkpt><trkpt lat="43.74342553408328" lon="12.420193904841943"><ele>339.0</ele><time>2026-05-01T14:13:00Z</time></trkpt><trkpt lat="43.74357924777955" lon="12.41989080234915"><ele>348.0</ele><time>2026-05-01T14:13:01Z</time></trkpt><trkpt lat="43.74373317288811" lon="12.419588807606127"><ele>357.0</ele><time>2026-05-01T14:13:02Z</time></trkpt><trkpt lat="43.74388136804323" lon="12.419258634853273"><ele>357.0</ele><time>2026-05-01T14:13:03Z</time></trkpt><trkpt lat="43.74402096036425" lon="12.418939279786375"><ele>357.0</ele><time>2026-05-01T14:13:04Z</time></trkpt><trkpt lat="43.74415763698139" lon="12.418628791209132"><ele>362.5</ele><time>2026-05-01T14:13:05Z</time></trkpt><trkpt lat="43.744285203032376" lon="12.418348774741233"><ele>368.0</ele><time>2026-05-01T14:13:06Z</time></trkpt><trkpt lat="43.74440726262832" lon="12.41808400839685"><ele>365.6666666666667</ele><time>2026-05-01T14:13:07Z</time></trkpt><trkpt lat="43.74451633495852" lon="12.417846634516195"><ele>363.3333333333333</ele><time>2026-05-01T14:13:08Z</time></trkpt><trkpt lat="43.744610535766455" lon="12.417588285280699"><ele>361.0</ele><time>2026-05-01T14:13:09Z</time></trkpt><trkpt lat="43.744693174367065" lon="12.41729750664973"><ele>354.0</ele><time>2026-05-01T14:13:10Z</time></trkpt><trkpt lat="43.7447734698653" lon="12.416988777192659"><ele>347.0</ele><time>2026-05-01T14:13:11Z</time></trkpt><trkpt lat="43.744855774606975" lon="12.416664428407925"><ele>347.0</ele><time>2026-05-01T14:13:12Z</time></trkpt><trkpt lat="43.74493540099018" lon="12.416330957706437"><ele>347.0</ele><time>2026-05-01T14:13:13Z</time></trkpt><trkpt lat="43.74502911709452" lon="12.416002329961133"><ele>342.5</ele><time>2026-05-01T14:13:14Z</time></trkpt><trkpt lat="43.74508244601173" lon="12.415664178111426"><ele>338.0</ele><time>2026-05-01T14:13:15Z</time></trkpt><trkpt lat="43.74515602367762" lon="12.41533958918934"><ele>344.0</ele><time>2026-05-01T14:13:16Z</time></trkpt><trkpt lat="43.74522796101835" lon="12.415020797196924"><ele>350.0</ele><time>2026-05-01T14:13:17Z</time></trkpt><trkpt lat="43.74530005731178" lon="12.4147135389312"><ele>347.6666666666667</ele><time>2026-05-01T14:13:18Z</time></trkpt><trkpt lat="43.7453542610456" lon="12.414423233025625"><ele>345.3333333333333</ele><time>2026-05-01T14:13:19Z</time></trkpt><trkpt lat="43.74538493496934" lon="12.41415718426557"><ele>343.0</ele><time>2026-05-01T14:13:20Z</time></trkpt><trkpt lat="43.74540549090033" lon="12.413902927791405"><ele>343.0</ele><time>2026-05-01T14:13:21Z</time></trkpt><trkpt lat="43.745431595341806" lon="12.413681323434124"><ele>343.0</ele><time>2026-05-01T14:13:22Z</time></trkpt><trkpt lat="43.7454835558662" lon="12.413491335622565"><ele>343.0</ele><time>2026-05-01T14:13:23Z</time></trkpt><trkpt lat="43.74556358969271" lon="12.413312483767108"><ele>343.0</ele><time>2026-05-01T14:13:24Z</time></trkpt><trkpt lat="43.74564900894542" lon="12.41313398801844"><ele>343.0</ele><time>2026-05-01T14:13:25Z</time></trkpt><trkpt lat="43.74590772833866" lon="12.412966560136836"><ele>343.0</ele><time>2026-05-01T14:13:26Z</time></trkpt><trkpt lat="43.74603899545249" lon="12.412778160162787"><ele>345.3333333333333</ele><time>2026-05-01T14:13:27Z</time></trkpt><trkpt lat="43.74617667171233" lon="12.412578309307433"><ele>347.6666666666667</ele><time>2026-05-01T14:13:28Z</time></trkpt><trkpt lat="43.74631964605943" lon="12.412362235180927"><ele>350.0</ele><time>2026-05-01T14:13:29Z</time></trkpt><trkpt lat="43.746470441645414" lon="12.41212762777777"><ele>350.0</ele><time>2026-05-01T14:13:30Z</time></trkpt><trkpt lat="43.74663320534956" lon="12.411876612696501"><ele>350.0</ele><time>2026-05-01T14:13:31Z</time></trkpt><trkpt lat="43.7467938201198" lon="12.41163543833294"><ele>351.6666666666667</ele><time>2026-05-01T14:13:32Z</time></trkpt><trkpt lat="43.74693682606074" lon="12.411411747403461"><ele>353.3333333333333</ele><time>2026-05-01T14:13:33Z</time></trkpt><trkpt lat="43.74708058964288" lon="12.41119131292681"><ele>355.0</ele><time>2026-05-01T14:13:34Z</time></trkpt><trkpt lat="43.74722314386708" lon="12.410991219038634"><ele>355.0</ele><time>2026-05-01T14:13:35Z</time></trkpt><trkpt lat="43.74736513353505" lon="12.410819757649474"><ele>355.0</ele><time>2026-05-01T14:13:36Z</time></trkpt><trkpt lat="43.74750507667565" lon="12.410674088626683"><ele>355.0</ele><time>2026-05-01T14:13:37Z</time></trkpt><trkpt lat="43.74764276824269" lon="12.4105358366997"><ele>356.75</ele><time>2026-05-01T14:13:38Z</time></trkpt><trkpt lat="43.747759240023534" lon="12.410395964826762"><ele>358.5</ele><time>2026-05-01T14:13:39Z</time></trkpt><trkpt lat="43.74785735751628" lon="12.410254975892789"><ele>360.25</ele><time>2026-05-01T14:13:40Z</time></trkpt><trkpt lat="43.74793917937279" lon="12.410094103253998"><ele>362.0</ele><time>2026-05-01T14:13:41Z</time></trkpt><trkpt lat="43.74800630418576" lon="12.409925724785237"><ele>362.0</ele><time>2026-05-01T14:13:42Z</time></trkpt><trkpt lat="43.748069816026096" lon="12.40974421942857"><ele>362.0</ele><time>2026-05-01T14:13:43Z</time></trkpt><trkpt lat="43.748134634851525" lon="12.409559081596285"><ele>362.0</ele><time>2026-05-01T14:13:44Z</time></trkpt><trkpt lat="43.74819827016063" lon="12.409377036540604"><ele>362.0</ele><time>2026-05-01T14:13:45Z</time></trkpt><trkpt lat="43.74826353232425" lon="12.409206354554229"><ele>360.25</ele><time>2026-05-01T14:13:46Z</time></trkpt><trkpt lat="43.74833937567905" lon="12.4090506058955"><ele>358.5</ele><time>2026-05-01T14:13:47Z</time></trkpt><trkpt lat="43.74843060080835" lon="12.408896966100043"><ele>356.75</ele><time>2026-05-01T14:13:48Z</time></trkpt><trkpt lat="43.74854134453174" lon="12.408752182992366"><ele>355.0</ele><time>2026-05-01T14:13:49Z</time></trkpt><trkpt lat="43.74866183473596" lon="12.40862354294034"><ele>355.0</ele><time>2026-05-01T14:13:50Z</time></trkpt><trkpt lat="43.74879128252554" lon="12.408489309796021"><ele>355.0</ele><time>2026-05-01T14:13:51Z</time></trkpt><trkpt lat="43.74892719777178" lon="12.408338949740465"><ele>355.0</ele><time>2026-05-01T14:13:52Z</time></trkpt><trkpt lat="43.74906948949446" lon="12.408195001923248"><ele>355.0</ele><time>2026-05-01T14:13:53Z</time></trkpt><trkpt lat="43.74922025994796" lon="12.408063020052083"><ele>355.0</ele><time>2026-05-01T14:13:54Z</time></trkpt><trkpt lat="43.74937462981076" lon="12.407928785959244"><ele>355.0</ele><time>2026-05-01T14:13:55Z</time></trkpt><trkpt lat="43.74955402576357" lon="12.407810689269299"><ele>356.0</ele><time>2026-05-01T14:13:56Z</time></trkpt><trkpt lat="43.74973403655628" lon="12.407693554403997"><ele>357.0</ele><time>2026-05-01T14:13:57Z</time></trkpt><trkpt lat="43.74994643187076" lon="12.40758244457286"><ele>358.0</ele><time>2026-05-01T14:13:58Z</time></trkpt><trkpt lat="43.750137817244095" lon="12.407466471816974"><ele>355.3333333333333</ele><time>2026-05-01T14:13:59Z</time></trkpt><trkpt lat="43.75030987009623" lon="12.407352863196852"><ele>352.6666666666667</ele><time>2026-05-01T14:14:00Z</time></trkpt><trkpt lat="43.750470358031585" lon="12.407248762302704"><ele>350.0</ele><time>2026-05-01T14:14:01Z</time></trkpt><trkpt lat="43.75062794123068" lon="12.4071563947292"><ele>350.0</ele><time>2026-05-01T14:14:02Z</time></trkpt><trkpt lat="43.75077532652421" lon="12.407045859936218"><ele>350.0</ele><time>2026-05-01T14:14:03Z</time></trkpt><trkpt lat="43.75091403852574" lon="12.406905768806293"><ele>350.0</ele><time>2026-05-01T14:14:04Z</time></trkpt><trkpt lat="43.751046192438366" lon="12.40674627144331"><ele>351.6666666666667</ele><time>2026-05-01T14:14:05Z</time></trkpt><trkpt lat="43.75117712263387" lon="12.406600297588092"><ele>353.3333333333333</ele><time>2026-05-01T14:14:06Z</time></trkpt><trkpt lat="43.75130364322115" lon="12.406447004829944"><ele>355.0</ele><time>2026-05-01T14:14:07Z</time></trkpt><trkpt lat="43.751425420861835" lon="12.406290625056407"><ele>355.0</ele><time>2026-05-01T14:14:08Z</time></trkpt><trkpt lat="43.751538361742384" lon="12.406147199377427"><ele>355.0</ele><time>2026-05-01T14:14:09Z</time></trkpt><trkpt lat="43.75165014119848" lon="12.406008593177786"><ele>355.0</ele><time>2026-05-01T14:14:10Z</time></trkpt><trkpt lat="43.75175404201771" lon="12.405886915236378"><ele>355.0</ele><time>2026-05-01T14:14:11Z</time></trkpt><trkpt lat="43.751864267355934" lon="12.405764088720222"><ele>356.25</ele><time>2026-05-01T14:14:12Z</time></trkpt><trkpt lat="43.75197129754614" lon="12.405639019890279"><ele>357.5</ele><time>2026-05-01T14:14:13Z</time></trkpt><trkpt lat="43.75207822274414" lon="12.405517427518353"><ele>358.75</ele><time>2026-05-01T14:14:14Z</time></trkpt><trkpt lat="43.75218604772274" lon="12.405395740733082"><ele>360.0</ele><time>2026-05-01T14:14:15Z</time></trkpt><trkpt lat="43.75229599388798" lon="12.405275207804813"><ele>360.0</ele><time>2026-05-01T14:14:16Z</time></trkpt><trkpt lat="43.75241066202414" lon="12.40515720894745"><ele>360.0</ele><time>2026-05-01T14:14:17Z</time></trkpt><trkpt lat="43.75251318267319" lon="12.405003047857916"><ele>360.0</ele><time>2026-05-01T14:14:18Z</time></trkpt><trkpt lat="43.752648392172716" lon="12.40488364986824"><ele>358.3333333333333</ele><time>2026-05-01T14:14:19Z</time></trkpt><trkpt lat="43.752779405233305" lon="12.40474562018518"><ele>356.66666666666663</ele><time>2026-05-01T14:14:20Z</time></trkpt><trkpt lat="43.75291526862063" lon="12.40459954218157"><ele>355.0</ele><time>2026-05-01T14:14:21Z</time></trkpt><trkpt lat="43.75306572367727" lon="12.404443021381923"><ele>355.0</ele><time>2026-05-01T14:14:22Z</time></trkpt><trkpt lat="43.75321729831335" lon="12.40428003096694"><ele>355.0</ele><time>2026-05-01T14:14:23Z</time></trkpt><trkpt lat="43.7533598065073" lon="12.404128981284648"><ele>355.0</ele><time>2026-05-01T14:14:24Z</time></trkpt><trkpt lat="43.753486656757524" lon="12.40398827925161"><ele>356.75</ele><time>2026-05-01T14:14:25Z</time></trkpt><trkpt lat="43.75359344970877" lon="12.403844522814124"><ele>358.5</ele><time>2026-05-01T14:14:26Z</time></trkpt><trkpt lat="43.75366990591953" lon="12.403668281494557"><ele>360.25</ele><time>2026-05-01T14:14:27Z</time></trkpt><trkpt lat="43.7537053367403" lon="12.403482364893703"><ele>362.0</ele><time>2026-05-01T14:14:28Z</time></trkpt><trkpt lat="43.75373487481452" lon="12.40330414388224"><ele>362.0</ele><time>2026-05-01T14:14:29Z</time></trkpt><trkpt lat="43.75380574568377" lon="12.403150952874737"><ele>362.0</ele><time>2026-05-01T14:14:30Z</time></trkpt><trkpt lat="43.753938098907646" lon="12.40305948297702"><ele>362.0</ele><time>2026-05-01T14:14:31Z</time></trkpt><trkpt lat="43.75409224412213" lon="12.402982839744348"><ele>362.0</ele><time>2026-05-01T14:14:32Z</time></trkpt><trkpt lat="43.75426955588737" lon="12.402903143459769"><ele>362.6666666666667</ele><time>2026-05-01T14:14:33Z</time></trkpt><trkpt lat="43.75445301717873" lon="12.402837854365714"><ele>363.3333333333333</ele><time>2026-05-01T14:14:34Z</time></trkpt><trkpt lat="43.75461548100004" lon="12.402751738458974"><ele>364.0</ele><time>2026-05-01T14:14:35Z</time></trkpt><trkpt lat="43.7547657498022" lon="12.402618503691581"><ele>364.0</ele><time>2026-05-01T14:14:36Z</time></trkpt><trkpt lat="43.75492207978983" lon="12.402429520991216"><ele>364.0</ele><time>2026-05-01T14:14:37Z</time></trkpt><trkpt lat="43.75508139291808" lon="12.402215202039887"><ele>364.0</ele><time>2026-05-01T14:14:38Z</time></trkpt><trkpt lat="43.75523446922482" lon="12.402022020343445"><ele>366.3333333333333</ele><time>2026-05-01T14:14:39Z</time></trkpt><trkpt lat="43.75536464106696" lon="12.401860580703623"><ele>368.6666666666667</ele><time>2026-05-01T14:14:40Z</time></trkpt><trkpt lat="43.755468740300884" lon="12.401689972623673"><ele>371.0</ele><time>2026-05-01T14:14:41Z</time></trkpt><trkpt lat="43.75553978096222" lon="12.401485951363481"><ele>370.6666666666667</ele><time>2026-05-01T14:14:42Z</time></trkpt><trkpt lat="43.755594802715436" lon="12.401242030958569"><ele>370.3333333333333</ele><time>2026-05-01T14:14:43Z</time></trkpt><trkpt lat="43.755626546830925" lon="12.400966735188623"><ele>370.0</ele><time>2026-05-01T14:14:44Z</time></trkpt><trkpt lat="43.7556276827934" lon="12.400675052144484"><ele>369.25</ele><time>2026-05-01T14:14:45Z</time></trkpt><trkpt lat="43.75562787427817" lon="12.400416416902825"><ele>368.5</ele><time>2026-05-01T14:14:46Z</time></trkpt><trkpt lat="43.755654278015264" lon="12.400238520853994"><ele>367.75</ele><time>2026-05-01T14:14:47Z</time></trkpt><trkpt lat="43.755715356339195" lon="12.400080624106943"><ele>367.0</ele><time>2026-05-01T14:14:48Z</time></trkpt><trkpt lat="43.75583438945801" lon="12.399976748684498"><ele>367.0</ele><time>2026-05-01T14:14:49Z</time></trkpt><trkpt lat="43.755970395824356" lon="12.399853673083125"><ele>367.0</ele><time>2026-05-01T14:14:50Z</time></trkpt><trkpt lat="43.75613750007409" lon="12.399761525073638"><ele>367.0</ele><time>2026-05-01T14:14:51Z</time></trkpt><trkpt lat="43.756305949915166" lon="12.399641562547435"><ele>369.0</ele><time>2026-05-01T14:14:52Z</time></trkpt><trkpt lat="43.7564555538418" lon="12.399493026696263"><ele>371.0</ele><time>2026-05-01T14:14:53Z</time></trkpt><trkpt lat="43.756583666119795" lon="12.399350731952929"><ele>373.0</ele><time>2026-05-01T14:14:54Z</time></trkpt><trkpt lat="43.75669660944442" lon="12.39916703641104"><ele>373.0</ele><time>2026-05-01T14:14:55Z</time></trkpt><trkpt lat="43.75677972010659" lon="12.398944498247236"><ele>373.0</ele><time>2026-05-01T14:14:56Z</time></trkpt><trkpt lat="43.756834581999954" lon="12.398701400655844"><ele>373.0</ele><time>2026-05-01T14:14:57Z</time></trkpt><trkpt lat="43.75687346868525" lon="12.398445516475695"><ele>379.75</ele><time>2026-05-01T14:14:58Z</time></trkpt><trkpt lat="43.756897106165304" lon="12.398229818666696"><ele>386.5</ele><time>2026-05-01T14:14:59Z</time></trkpt><trkpt lat="43.75690718689523" lon="12.398029224274266"><ele>393.25</ele><time>2026-05-01T14:15:00Z</time></trkpt><trkpt lat="43.7569157438396" lon="12.397829517240721"><ele>400.0</ele><time>2026-05-01T14:15:01Z</time></trkpt><trkpt lat="43.756936021960435" lon="12.397638911053955"><ele>400.25</ele><time>2026-05-01T14:15:02Z</time></trkpt><trkpt lat="43.75695795777678" lon="12.397451558517085"><ele>400.5</ele><time>2026-05-01T14:15:03Z</time></trkpt><trkpt lat="43.756988628776554" lon="12.397260677048301"><ele>400.75</ele><time>2026-05-01T14:15:04Z</time></trkpt><trkpt lat="43.757037784447064" lon="12.397058297190723"><ele>401.0</ele><time>2026-05-01T14:15:05Z</time></trkpt><trkpt lat="43.75710984709691" lon="12.396855193957885"><ele>397.3333333333333</ele><time>2026-05-01T14:15:06Z</time></trkpt><trkpt lat="43.7572105912955" lon="12.39664817759012"><ele>393.66666666666663</ele><time>2026-05-01T14:15:07Z</time></trkpt><trkpt lat="43.757331449113074" lon="12.396430761467826"><ele>390.0</ele><time>2026-05-01T14:15:08Z</time></trkpt><trkpt lat="43.757459978646736" lon="12.396204664406087"><ele>393.33333333333337</ele><time>2026-05-01T14:15:09Z</time></trkpt><trkpt lat="43.75757199859097" lon="12.395999674391215"><ele>396.6666666666667</ele><time>2026-05-01T14:15:10Z</time></trkpt><trkpt lat="43.75767072935394" lon="12.395819461131884"><ele>400.0</ele><time>2026-05-01T14:15:11Z</time></trkpt><trkpt lat="43.75776677961457" lon="12.39563336997505"><ele>399.0</ele><time>2026-05-01T14:15:12Z</time></trkpt><trkpt lat="43.75784735515801" lon="12.395413544475385"><ele>398.0</ele><time>2026-05-01T14:15:13Z</time></trkpt><trkpt lat="43.75791345137801" lon="12.39516375777213"><ele>397.0</ele><time>2026-05-01T14:15:14Z</time></trkpt><trkpt lat="43.75797605415852" lon="12.394947434744775"><ele>397.0</ele><time>2026-05-01T14:15:15Z</time></trkpt><trkpt lat="43.75803463382286" lon="12.394735333303641"><ele>397.0</ele><time>2026-05-01T14:15:16Z</time></trkpt><trkpt lat="43.75809989678951" lon="12.39455641593839"><ele>397.0</ele><time>2026-05-01T14:15:17Z</time></trkpt><trkpt lat="43.758188071255724" lon="12.394403038241148"><ele>396.0</ele><time>2026-05-01T14:15:18Z</time></trkpt><trkpt lat="43.758310802727074" lon="12.394269003012443"><ele>395.0</ele><time>2026-05-01T14:15:19Z</time></trkpt><trkpt lat="43.75845795317754" lon="12.394129041709522"><ele>394.0</ele><time>2026-05-01T14:15:20Z</time></trkpt><trkpt lat="43.75862470596931" lon="12.393986533046007"><ele>391.33333333333337</ele><time>2026-05-01T14:15:21Z</time></trkpt><trkpt lat="43.75879917145394" lon="12.393795451396224"><ele>388.66666666666663</ele><time>2026-05-01T14:15:22Z</time></trkpt><trkpt lat="43.75896536941719" lon="12.393625130986702"><ele>386.0</ele><time>2026-05-01T14:15:23Z</time></trkpt><trkpt lat="43.759117240897545" lon="12.393477332174312"><ele>386.0</ele><time>2026-05-01T14:15:24Z</time></trkpt><trkpt lat="43.759237411585005" lon="12.393329815829233"><ele>386.0</ele><time>2026-05-01T14:15:25Z</time></trkpt><trkpt lat="43.75934169514719" lon="12.393160133522766"><ele>386.0</ele><time>2026-05-01T14:15:26Z</time></trkpt><trkpt lat="43.75942787172307" lon="12.392928489192597"><ele>389.0</ele><time>2026-05-01T14:15:27Z</time></trkpt><trkpt lat="43.75950064574902" lon="12.392657788604044"><ele>392.0</ele><time>2026-05-01T14:15:28Z</time></trkpt><trkpt lat="43.759577808079015" lon="12.392381567471277"><ele>395.0</ele><time>2026-05-01T14:15:29Z</time></trkpt><trkpt lat="43.75965115470705" lon="12.392141254919379"><ele>395.0</ele><time>2026-05-01T14:15:30Z</time></trkpt><trkpt lat="43.759715790712335" lon="12.391931625184078"><ele>395.0</ele><time>2026-05-01T14:15:31Z</time></trkpt><trkpt lat="43.75977881582534" lon="12.391739928767"><ele>395.0</ele><time>2026-05-01T14:15:32Z</time></trkpt><trkpt lat="43.759886449340335" lon="12.391585760159128"><ele>395.0</ele><time>2026-05-01T14:15:33Z</time></trkpt><trkpt lat="43.76001228535904" lon="12.391441422451619"><ele>395.0</ele><time>2026-05-01T14:15:34Z</time></trkpt><trkpt lat="43.7601432372675" lon="12.391324750808128"><ele>395.0</ele><time>2026-05-01T14:15:35Z</time></trkpt><trkpt lat="43.760316160861755" lon="12.391324171587646"><ele>392.3333333333333</ele><time>2026-05-01T14:15:36Z</time></trkpt><trkpt lat="43.76050263024824" lon="12.39133129914202"><ele>389.66666666666663</ele><time>2026-05-01T14:15:37Z</time></trkpt><trkpt lat="43.76069298295024" lon="12.391342267235377"><ele>387.0</ele><time>2026-05-01T14:15:38Z</time></trkpt><trkpt lat="43.760864212111755" lon="12.391361880186789"><ele>393.33333333333337</ele><time>2026-05-01T14:15:39Z</time></trkpt><trkpt lat="43.76100918461657" lon="12.391346716020696"><ele>399.6666666666667</ele><time>2026-05-01T14:15:40Z</time></trkpt><trkpt lat="43.76114767603107" lon="12.391275287051032"><ele>406.0</ele><time>2026-05-01T14:15:41Z</time></trkpt><trkpt lat="43.761287770706765" lon="12.391152020951763"><ele>406.0</ele><time>2026-05-01T14:15:42Z</time></trkpt><trkpt lat="43.761424677147104" lon="12.390977164409271"><ele>406.0</ele><time>2026-05-01T14:15:43Z</time></trkpt><trkpt lat="43.76155060996464" lon="12.39080806937108"><ele>406.0</ele><time>2026-05-01T14:15:44Z</time></trkpt><trkpt lat="43.76164826427" lon="12.390650734619374"><ele>402.75</ele><time>2026-05-01T14:15:45Z</time></trkpt><trkpt lat="43.76172645594379" lon="12.390494972617056"><ele>399.5</ele><time>2026-05-01T14:15:46Z</time></trkpt><trkpt lat="43.76178299643111" lon="12.390313451290396"><ele>396.25</ele><time>2026-05-01T14:15:47Z</time></trkpt><trkpt lat="43.761805451357404" lon="12.390088866739564"><ele>393.0</ele><time>2026-05-01T14:15:48Z</time></trkpt><trkpt lat="43.761796838200844" lon="12.389818426891889"><ele>392.33333333333337</ele><time>2026-05-01T14:15:49Z</time></trkpt><trkpt lat="43.76178742075183" lon="12.389554888035324"><ele>391.6666666666667</ele><time>2026-05-01T14:15:50Z</time></trkpt><trkpt lat="43.761782066732216" lon="12.389317058539206"><ele>391.0</ele><time>2026-05-01T14:15:51Z</time></trkpt><trkpt lat="43.761789969708055" lon="12.389093729695956"><ele>391.0</ele><time>2026-05-01T14:15:52Z</time></trkpt><trkpt lat="43.76185212762051" lon="12.388901659369608"><ele>391.0</ele><time>2026-05-01T14:15:53Z</time></trkpt><trkpt lat="43.76194620330657" lon="12.388712177580588"><ele>391.0</ele><time>2026-05-01T14:15:54Z</time></trkpt><trkpt lat="43.76207864323986" lon="12.388577331962576"><ele>395.6666666666667</ele><time>2026-05-01T14:15:55Z</time></trkpt><trkpt lat="43.76223484334755" lon="12.388504554466605"><ele>400.33333333333337</ele><time>2026-05-01T14:15:56Z</time></trkpt><trkpt lat="43.762412669989956" lon="12.388427969724535"><ele>405.0</ele><time>2026-05-01T14:15:57Z</time></trkpt><trkpt lat="43.762616673948024" lon="12.388397130176935"><ele>410.0</ele><time>2026-05-01T14:15:58Z</time></trkpt><trkpt lat="43.76280932558514" lon="12.388341478769592"><ele>415.0</ele><time>2026-05-01T14:15:59Z</time></trkpt><trkpt lat="43.76297443058662" lon="12.388280846922946"><ele>420.0</ele><time>2026-05-01T14:16:00Z</time></trkpt><trkpt lat="43.7631245219449" lon="12.388204051716096"><ele>420.0</ele><time>2026-05-01T14:16:01Z</time></trkpt><trkpt lat="43.76326365262545" lon="12.388068997337449"><ele>420.0</ele><time>2026-05-01T14:16:02Z</time></trkpt><trkpt lat="43.7633951850193" lon="12.387875186275856"><ele>420.0</ele><time>2026-05-01T14:16:03Z</time></trkpt><trkpt lat="43.76351136554575" lon="12.38765827496237"><ele>421.33333333333337</ele><time>2026-05-01T14:16:04Z</time></trkpt><trkpt lat="43.76361050853903" lon="12.387444258126726"><ele>422.6666666666667</ele><time>2026-05-01T14:16:05Z</time></trkpt><trkpt lat="43.76369138234788" lon="12.387259728164393"><ele>424.0</ele><time>2026-05-01T14:16:06Z</time></trkpt><trkpt lat="43.76374680606751" lon="12.387090106553833"><ele>424.0</ele><time>2026-05-01T14:16:07Z</time></trkpt><trkpt lat="43.76376997391024" lon="12.386892713840592"><ele>424.0</ele><time>2026-05-01T14:16:08Z</time></trkpt><trkpt lat="43.76372164205564" lon="12.386637966358762"><ele>424.0</ele><time>2026-05-01T14:16:09Z</time></trkpt><trkpt lat="43.76366644548936" lon="12.386373184715461"><ele>425.0</ele><time>2026-05-01T14:16:10Z</time></trkpt><trkpt lat="43.76362944633366" lon="12.386090863937802"><ele>426.0</ele><time>2026-05-01T14:16:11Z</time></trkpt><trkpt lat="43.76356753756067" lon="12.385837610499335"><ele>427.0</ele><time>2026-05-01T14:16:12Z</time></trkpt><trkpt lat="43.76353337893812" lon="12.385580745441434"><ele>424.0</ele><time>2026-05-01T14:16:13Z</time></trkpt><trkpt lat="43.76353988200085" lon="12.38533705356086"><ele>421.0</ele><time>2026-05-01T14:16:14Z</time></trkpt><trkpt lat="43.763558087859714" lon="12.38511450205174"><ele>418.0</ele><time>2026-05-01T14:16:15Z</time></trkpt><trkpt lat="43.76359693045683" lon="12.384879014667062"><ele>411.6666666666667</ele><time>2026-05-01T14:16:16Z</time></trkpt><trkpt lat="43.76363699078408" lon="12.384653080141788"><ele>405.33333333333337</ele><time>2026-05-01T14:16:17Z</time></trkpt><trkpt lat="43.76367757798517" lon="12.384455502841478"><ele>399.0</ele><time>2026-05-01T14:16:18Z</time></trkpt><trkpt lat="43.7637238735108" lon="12.384255490670274"><ele>399.0</ele><time>2026-05-01T14:16:19Z</time></trkpt><trkpt lat="43.763760769388064" lon="12.384082028440618"><ele>399.0</ele><time>2026-05-01T14:16:20Z</time></trkpt><trkpt lat="43.76382365704053" lon="12.383927274344975"><ele>399.0</ele><time>2026-05-01T14:16:21Z</time></trkpt><trkpt lat="43.763894667626246" lon="12.383773709042954"><ele>399.0</ele><time>2026-05-01T14:16:22Z</time></trkpt><trkpt lat="43.76399883106221" lon="12.383675161652"><ele>399.25</ele><time>2026-05-01T14:16:23Z</time></trkpt><trkpt lat="43.7641113932199" lon="12.383705133442087"><ele>399.5</ele><time>2026-05-01T14:16:24Z</time></trkpt><trkpt lat="43.76423808503198" lon="12.383699897913973"><ele>399.75</ele><time>2026-05-01T14:16:25.001Z</time></trkpt><trkpt lat="43.764395379492704" lon="12.38366912637777"><ele>400.0</ele><time>2026-05-01T14:16:26.001Z</time></trkpt><trkpt lat="43.764326923341066" lon="12.383606241872316"><ele>400.0</ele><time>2026-05-01T14:16:27.001Z</time></trkpt><trkpt lat="43.7644562513308" lon="12.383587984000854"><ele>400.0</ele><time>2026-05-01T14:16:28.001Z</time></trkpt><trkpt lat="43.76457040734848" lon="12.383497820288188"><ele>400.0</ele><time>2026-05-01T14:16:29.001Z</time></trkpt><trkpt lat="43.76467828365932" lon="12.38338733266748"><ele>400.0</ele><time>2026-05-01T14:16:30.001Z</time></trkpt><trkpt lat="43.76477736050564" lon="12.383225832909709"><ele>400.0</ele><time>2026-05-01T14:16:31.001Z</time></trkpt><trkpt lat="43.76487290312216" lon="12.383034864275407"><ele>400.0</ele><time>2026-05-01T14:16:32.001Z</time></trkpt><trkpt lat="43.76498615628956" lon="12.382838471166021"><ele>400.0</ele><time>2026-05-01T14:16:33.001Z</time></trkpt><trkpt lat="43.76511305348234" lon="12.38264141003753"><ele>400.33333333333337</ele><time>2026-05-01T14:16:34Z</time></trkpt><trkpt lat="43.76524460142636" lon="12.382474511640774"><ele>400.66666666666663</ele><time>2026-05-01T14:16:35Z</time></trkpt><trkpt lat="43.76536365334308" lon="12.382349800674053"><ele>401.0</ele><time>2026-05-01T14:16:36Z</time></trkpt><trkpt lat="43.76548066869678" lon="12.382241325095753"><ele>404.0</ele><time>2026-05-01T14:16:37Z</time></trkpt><trkpt lat="43.76559970528071" lon="12.382139877609372"><ele>407.0</ele><time>2026-05-01T14:16:38Z</time></trkpt><trkpt lat="43.765725667762666" lon="12.382045453345693"><ele>410.0</ele><time>2026-05-01T14:16:39Z</time></trkpt><trkpt lat="43.76585813673032" lon="12.381949505633479"><ele>413.0</ele><time>2026-05-01T14:16:40Z</time></trkpt><trkpt lat="43.765974474986066" lon="12.381835264272956"><ele>411.5</ele><time>2026-05-01T14:16:41Z</time></trkpt><trkpt lat="43.76608220828854" lon="12.381756743906944"><ele>410.0</ele><time>2026-05-01T14:16:42Z</time></trkpt><trkpt lat="43.76617409839727" lon="12.381647019071478"><ele>408.5</ele><time>2026-05-01T14:16:43Z</time></trkpt><trkpt lat="43.76624820566398" lon="12.381541353938731"><ele>407.0</ele><time>2026-05-01T14:16:44Z</time></trkpt><trkpt lat="43.76627645071105" lon="12.381371491672693"><ele>408.3333333333333</ele><time>2026-05-01T14:16:45Z</time></trkpt><trkpt lat="43.76627652928283" lon="12.38117376025446"><ele>409.66666666666663</ele><time>2026-05-01T14:16:46Z</time></trkpt><trkpt lat="43.766258343012254" lon="12.3809641058447"><ele>411.0</ele><time>2026-05-01T14:16:47Z</time></trkpt><trkpt lat="43.7662404677826" lon="12.380735079090478"><ele>411.0</ele><time>2026-05-01T14:16:48Z</time></trkpt><trkpt lat="43.766204990622654" lon="12.380469848797457"><ele>411.0</ele><time>2026-05-01T14:16:49Z</time></trkpt><trkpt lat="43.76621364701091" lon="12.380226944273474"><ele>411.0</ele><time>2026-05-01T14:16:50Z</time></trkpt><trkpt lat="43.76621181353603" lon="12.37999751465038"><ele>411.0</ele><time>2026-05-01T14:16:51Z</time></trkpt><trkpt lat="43.76621361312304" lon="12.379774368890587"><ele>411.0</ele><time>2026-05-01T14:16:52Z</time></trkpt><trkpt lat="43.766205252579226" lon="12.37955860121937"><ele>411.0</ele><time>2026-05-01T14:16:53Z</time></trkpt><trkpt lat="43.766221548288904" lon="12.379360961499282"><ele>412.25</ele><time>2026-05-01T14:16:54Z</time></trkpt><trkpt lat="43.76624781662329" lon="12.37917467286122"><ele>413.5</ele><time>2026-05-01T14:16:55Z</time></trkpt><trkpt lat="43.766281644016395" lon="12.379010964475555"><ele>414.75</ele><time>2026-05-01T14:16:56Z</time></trkpt><trkpt lat="43.76630184180738" lon="12.378853364100765"><ele>416.0</ele><time>2026-05-01T14:16:57Z</time></trkpt><trkpt lat="43.76633195560222" lon="12.37869635906757"><ele>416.4</ele><time>2026-05-01T14:16:58Z</time></trkpt><trkpt lat="43.76635589259187" lon="12.378560275294094"><ele>416.8</ele><time>2026-05-01T14:16:59Z</time></trkpt><trkpt lat="43.76639096704858" lon="12.378433194218879"><ele>417.2</ele><time>2026-05-01T14:17:00Z</time></trkpt><trkpt lat="43.76641557021438" lon="12.378305132007828"><ele>417.59999999999997</ele><time>2026-05-01T14:17:01Z</time></trkpt><trkpt lat="43.76644190314589" lon="12.378173835466507"><ele>418.0</ele><time>2026-05-01T14:17:02Z</time></trkpt><trkpt lat="43.76647023870209" lon="12.378041465263093"><ele>418.5</ele><time>2026-05-01T14:17:03Z</time></trkpt><trkpt lat="43.766504494086135" lon="12.377902243729375"><ele>419.0</ele><time>2026-05-01T14:17:04Z</time></trkpt><trkpt lat="43.76653885441491" lon="12.377756321750194"><ele>419.5</ele><time>2026-05-01T14:17:05Z</time></trkpt><trkpt lat="43.76657378561596" lon="12.377594284004196"><ele>420.0</ele><time>2026-05-01T14:17:06Z</time></trkpt><trkpt lat="43.76661281450794" lon="12.37742472147605"><ele>420.0</ele><time>2026-05-01T14:17:07Z</time></trkpt><trkpt lat="43.76664653415929" lon="12.377247935786935"><ele>420.0</ele><time>2026-05-01T14:17:08Z</time></trkpt><trkpt lat="43.766657468522574" lon="12.377048044197517"><ele>420.0</ele><time>2026-05-01T14:17:09Z</time></trkpt><trkpt lat="43.766640049944456" lon="12.3768298650739"><ele>420.0</ele><time>2026-05-01T14:17:10Z</time></trkpt><trkpt lat="43.7665892832029" lon="12.376593518825263"><ele>422.0</ele><time>2026-05-01T14:17:11Z</time></trkpt><trkpt lat="43.7665283292351" lon="12.376339352841418"><ele>424.0</ele><time>2026-05-01T14:17:12Z</time></trkpt><trkpt lat="43.76645977019323" lon="12.376064333719667"><ele>426.0</ele><time>2026-05-01T14:17:13Z</time></trkpt><trkpt lat="43.766403315636985" lon="12.37575551121557"><ele>432.0</ele><time>2026-05-01T14:17:14Z</time></trkpt><trkpt lat="43.76631955864283" lon="12.375439568327145"><ele>438.0</ele><time>2026-05-01T14:17:15Z</time></trkpt><trkpt lat="43.7662452503677" lon="12.375123725623284"><ele>438.0</ele><time>2026-05-01T14:17:16Z</time></trkpt><trkpt lat="43.76617084559277" lon="12.374795662872705"><ele>438.0</ele><time>2026-05-01T14:17:17Z</time></trkpt><trkpt lat="43.76609553202124" lon="12.374467127233288"><ele>439.5</ele><time>2026-05-01T14:17:18Z</time></trkpt><trkpt lat="43.76601917932341" lon="12.374137516812832"><ele>441.0</ele><time>2026-05-01T14:17:19Z</time></trkpt><trkpt lat="43.765945047280184" lon="12.373798074853845"><ele>441.0</ele><time>2026-05-01T14:17:20Z</time></trkpt><trkpt lat="43.765876381163096" lon="12.373505159893329"><ele>441.0</ele><time>2026-05-01T14:17:21Z</time></trkpt><trkpt lat="43.765811317299956" lon="12.37323906882362"><ele>441.0</ele><time>2026-05-01T14:17:22Z</time></trkpt><trkpt lat="43.76576027279702" lon="12.372995493515273"><ele>444.0</ele><time>2026-05-01T14:17:23Z</time></trkpt><trkpt lat="43.76571977140387" lon="12.372769704464746"><ele>447.0</ele><time>2026-05-01T14:17:24Z</time></trkpt><trkpt lat="43.7657212493396" lon="12.372557023704596"><ele>450.0</ele><time>2026-05-01T14:17:25Z</time></trkpt><trkpt lat="43.76571785454328" lon="12.372322491983155"><ele>451.33333333333337</ele><time>2026-05-01T14:17:26Z</time></trkpt><trkpt lat="43.76574650337344" lon="12.372070802800238"><ele>452.6666666666667</ele><time>2026-05-01T14:17:27Z</time></trkpt><trkpt lat="43.76577934350727" lon="12.371829621492026"><ele>454.0</ele><time>2026-05-01T14:17:28Z</time></trkpt><trkpt lat="43.76579299759378" lon="12.371626344381959"><ele>454.0</ele><time>2026-05-01T14:17:29Z</time></trkpt><trkpt lat="43.7658047476718" lon="12.371452031560217"><ele>454.0</ele><time>2026-05-01T14:17:30Z</time></trkpt><trkpt lat="43.76582439747421" lon="12.37130983584665"><ele>454.0</ele><time>2026-05-01T14:17:31Z</time></trkpt><trkpt lat="43.765867714738164" lon="12.371178357265451"><ele>454.0</ele><time>2026-05-01T14:17:32Z</time></trkpt><trkpt lat="43.76594384775372" lon="12.371097217547497"><ele>454.0</ele><time>2026-05-01T14:17:33Z</time></trkpt><trkpt lat="43.76603475202348" lon="12.371083510259277"><ele>457.25</ele><time>2026-05-01T14:17:34Z</time></trkpt><trkpt lat="43.76612815681817" lon="12.371121579757254"><ele>460.5</ele><time>2026-05-01T14:17:35Z</time></trkpt><trkpt lat="43.76621200196042" lon="12.371205429517685"><ele>463.75</ele><time>2026-05-01T14:17:36Z</time></trkpt><trkpt lat="43.766250287282524" lon="12.371361655640985"><ele>467.0</ele><time>2026-05-01T14:17:37Z</time></trkpt><trkpt lat="43.76630247643358" lon="12.371547873592247"><ele>467.0</ele><time>2026-05-01T14:17:38Z</time></trkpt><trkpt lat="43.766359284892914" lon="12.371740536009487"><ele>467.0</ele><time>2026-05-01T14:17:39Z</time></trkpt><trkpt lat="43.766413003443745" lon="12.371899013601826"><ele>467.0</ele><time>2026-05-01T14:17:40Z</time></trkpt><trkpt lat="43.76648513875499" lon="12.37199716925389"><ele>467.0</ele><time>2026-05-01T14:17:41Z</time></trkpt><trkpt lat="43.76656559506186" lon="12.372071641953722"><ele>467.0</ele><time>2026-05-01T14:17:42Z</time></trkpt><trkpt lat="43.76666822281775" lon="12.372112313534254"><ele>467.00000000000006</ele><time>2026-05-01T14:17:43Z</time></trkpt><trkpt lat="43.766782223933006" lon="12.372093881244316"><ele>467.00000000000006</ele><time>2026-05-01T14:17:44Z</time></trkpt><trkpt lat="43.76688440244472" lon="12.372045695528954"><ele>467.0</ele><time>2026-05-01T14:17:45Z</time></trkpt><trkpt lat="43.76698118174138" lon="12.37195089690123"><ele>467.0</ele><time>2026-05-01T14:17:46Z</time></trkpt><trkpt lat="43.76705042896897" lon="12.371806518633946"><ele>467.0</ele><time>2026-05-01T14:17:47Z</time></trkpt><trkpt lat="43.76708650601826" lon="12.371644816626462"><ele>467.0</ele><time>2026-05-01T14:17:48Z</time></trkpt><trkpt lat="43.76707844959788" lon="12.371448791925252"><ele>467.0</ele><time>2026-05-01T14:17:49Z</time></trkpt><trkpt lat="43.767039426513165" lon="12.37123719471456"><ele>467.0</ele><time>2026-05-01T14:17:50Z</time></trkpt><trkpt lat="43.76696555299453" lon="12.371002725558435"><ele>471.0</ele><time>2026-05-01T14:17:51Z</time></trkpt><trkpt lat="43.766913850804734" lon="12.370754856421811"><ele>475.0</ele><time>2026-05-01T14:17:52Z</time></trkpt><trkpt lat="43.766879665249895" lon="12.370556823408185"><ele>479.0</ele><time>2026-05-01T14:17:53Z</time></trkpt><trkpt lat="43.76687094152592" lon="12.3703934787576"><ele>481.0</ele><time>2026-05-01T14:17:54Z</time></trkpt><trkpt lat="43.766864382065975" lon="12.37025284205883"><ele>483.0</ele><time>2026-05-01T14:17:55Z</time></trkpt><trkpt lat="43.766885370101555" lon="12.370106428366682"><ele>485.0</ele><time>2026-05-01T14:17:56Z</time></trkpt><trkpt lat="43.76695338351887" lon="12.370000288727338"><ele>487.0</ele><time>2026-05-01T14:17:57Z</time></trkpt><trkpt lat="43.767041965526296" lon="12.369932016367962"><ele>489.0</ele><time>2026-05-01T14:17:58Z</time></trkpt><trkpt lat="43.76713739505095" lon="12.369894286963074"><ele>489.0</ele><time>2026-05-01T14:17:59Z</time></trkpt><trkpt lat="43.76725047347512" lon="12.369936524437689"><ele>489.0</ele><time>2026-05-01T14:18:00Z</time></trkpt><trkpt lat="43.76735688446307" lon="12.370039975368947"><ele>489.0</ele><time>2026-05-01T14:18:01Z</time></trkpt><trkpt lat="43.767447667742445" lon="12.37018586418536"><ele>489.0</ele><time>2026-05-01T14:18:02Z</time></trkpt><trkpt lat="43.76753188845364" lon="12.370295039293401"><ele>489.0</ele><time>2026-05-01T14:18:03Z</time></trkpt><trkpt lat="43.76763414204502" lon="12.370339242236934"><ele>489.0</ele><time>2026-05-01T14:18:04Z</time></trkpt><trkpt lat="43.76775609968304" lon="12.370316269074296"><ele>489.0</ele><time>2026-05-01T14:18:05Z</time></trkpt><trkpt lat="43.767884221979756" lon="12.370225532268266"><ele>489.0</ele><time>2026-05-01T14:18:06Z</time></trkpt><trkpt lat="43.768010333089734" lon="12.370102652089997"><ele>490.5</ele><time>2026-05-01T14:18:07Z</time></trkpt><trkpt lat="43.7681392928527" lon="12.369976195056172"><ele>492.0</ele><time>2026-05-01T14:18:08Z</time></trkpt><trkpt lat="43.76825137457095" lon="12.369886770976759"><ele>493.5</ele><time>2026-05-01T14:18:09Z</time></trkpt><trkpt lat="43.76833521186917" lon="12.369801983404917"><ele>495.0</ele><time>2026-05-01T14:18:10Z</time></trkpt><trkpt lat="43.76839395662601" lon="12.369708491999871"><ele>497.8</ele><time>2026-05-01T14:18:11Z</time></trkpt><trkpt lat="43.76840303469124" lon="12.369595399277694"><ele>500.6</ele><time>2026-05-01T14:18:12Z</time></trkpt><trkpt lat="43.768355763900416" lon="12.369492077757231"><ele>503.4</ele><time>2026-05-01T14:18:13Z</time></trkpt><trkpt lat="43.7682720850702" lon="12.369427171343162"><ele>506.2</ele><time>2026-05-01T14:18:14Z</time></trkpt><trkpt lat="43.76816453174993" lon="12.36938765336594"><ele>509.0</ele><time>2026-05-01T14:18:15Z</time></trkpt><trkpt lat="43.76804744474478" lon="12.369329566224243"><ele>509.0</ele><time>2026-05-01T14:18:16Z</time></trkpt><trkpt lat="43.76797135545329" lon="12.369233879251551"><ele>509.0</ele><time>2026-05-01T14:18:17Z</time></trkpt><trkpt lat="43.767903539931915" lon="12.369111894185112"><ele>509.0</ele><time>2026-05-01T14:18:18Z</time></trkpt><trkpt lat="43.767865588435136" lon="12.368971266084774"><ele>509.0</ele><time>2026-05-01T14:18:19Z</time></trkpt><trkpt lat="43.76787441710302" lon="12.3688350277534"><ele>509.0</ele><time>2026-05-01T14:18:20Z</time></trkpt><trkpt lat="43.767928770739786" lon="12.3687358553394"><ele>509.3333333333333</ele><time>2026-05-01T14:18:21Z</time></trkpt><trkpt lat="43.76799533386747" lon="12.368666130816603"><ele>509.66666666666663</ele><time>2026-05-01T14:18:22Z</time></trkpt><trkpt lat="43.76806802638698" lon="12.368629238136418"><ele>510.0</ele><time>2026-05-01T14:18:23Z</time></trkpt><trkpt lat="43.76814160370682" lon="12.368642971753218"><ele>510.33333333333337</ele><time>2026-05-01T14:18:24Z</time></trkpt><trkpt lat="43.76821310143101" lon="12.368649042915761"><ele>510.6666666666667</ele><time>2026-05-01T14:18:25Z</time></trkpt><trkpt lat="43.76828565753913" lon="12.368656469662351"><ele>511.0</ele><time>2026-05-01T14:18:26Z</time></trkpt><trkpt lat="43.76836568137042" lon="12.36868027549815"><ele>511.0</ele><time>2026-05-01T14:18:27.001Z</time></trkpt><trkpt lat="43.7684510427496" lon="12.368702602895473"><ele>511.0</ele><time>2026-05-01T14:18:28.001Z</time></trkpt><trkpt lat="43.768542980957854" lon="12.368731604385156"><ele>511.0</ele><time>2026-05-01T14:18:29.001Z</time></trkpt><trkpt lat="43.768647179664725" lon="12.368778853484661"><ele>511.0</ele><time>2026-05-01T14:18:30.001Z</time></trkpt><trkpt lat="43.76874737154485" lon="12.368818041891146"><ele>511.0</ele><time>2026-05-01T14:18:31.001Z</time></trkpt><trkpt lat="43.76886038041602" lon="12.368861690541385"><ele>511.75</ele><time>2026-05-01T14:18:32.001Z</time></trkpt><trkpt lat="43.768986776561235" lon="12.368914387271763"><ele>512.5</ele><time>2026-05-01T14:18:33.001Z</time></trkpt><trkpt lat="43.76911676699342" lon="12.368973655831763"><ele>513.25</ele><time>2026-05-01T14:18:34.001Z</time></trkpt><trkpt lat="43.76925703236907" lon="12.36903800505774"><ele>514.0</ele><time>2026-05-01T14:18:35.001Z</time></trkpt><trkpt lat="43.76939610859399" lon="12.369096204606842"><ele>516.25</ele><time>2026-05-01T14:18:36.001Z</time></trkpt><trkpt lat="43.76952578118309" lon="12.369134573389601"><ele>518.5</ele><time>2026-05-01T14:18:37.001Z</time></trkpt><trkpt lat="43.76964225845572" lon="12.369134722853607"><ele>520.75</ele><time>2026-05-01T14:18:38.001Z</time></trkpt><trkpt lat="43.76974322377681" lon="12.369075780708622"><ele>523.0</ele><time>2026-05-01T14:18:39.001Z</time></trkpt><trkpt lat="43.7698319486204" lon="12.368965545494731"><ele>524.5</ele><time>2026-05-01T14:18:40Z</time></trkpt><trkpt lat="43.769897254227324" lon="12.368817358916582"><ele>526.0</ele><time>2026-05-01T14:18:41Z</time></trkpt><trkpt lat="43.769936750148865" lon="12.368657757875049"><ele>527.5</ele><time>2026-05-01T14:18:42Z</time></trkpt><trkpt lat="43.76992349836808" lon="12.36846223106345"><ele>529.0</ele><time>2026-05-01T14:18:43Z</time></trkpt><trkpt lat="43.769862500366685" lon="12.368257013711268"><ele>529.0</ele><time>2026-05-01T14:18:44Z</time></trkpt><trkpt lat="43.76977099048227" lon="12.368032963365717"><ele>529.0</ele><time>2026-05-01T14:18:45Z</time></trkpt><trkpt lat="43.7697012235255" lon="12.36777308290706"><ele>529.0</ele><time>2026-05-01T14:18:46Z</time></trkpt><trkpt lat="43.76961813545182" lon="12.367516026243424"><ele>531.6666666666667</ele><time>2026-05-01T14:18:47Z</time></trkpt><trkpt lat="43.769546171046905" lon="12.367287054226216"><ele>534.3333333333334</ele><time>2026-05-01T14:18:48Z</time></trkpt><trkpt lat="43.769483341712245" lon="12.367093351319356"><ele>537.0</ele><time>2026-05-01T14:18:49Z</time></trkpt><trkpt lat="43.76942659698206" lon="12.3669277046618"><ele>538.2</ele><time>2026-05-01T14:18:50Z</time></trkpt><trkpt lat="43.76938485898913" lon="12.366780185155596"><ele>539.4000000000001</ele><time>2026-05-01T14:18:51Z</time></trkpt><trkpt lat="43.769359847987126" lon="12.3666512367039"><ele>540.5999999999999</ele><time>2026-05-01T14:18:52Z</time></trkpt><trkpt lat="43.76941475836416" lon="12.366534357389563"><ele>541.8</ele><time>2026-05-01T14:18:53Z</time></trkpt><trkpt lat="43.76946853258778" lon="12.366458369385448"><ele>543.0</ele><time>2026-05-01T14:18:54Z</time></trkpt><trkpt lat="43.76956718030767" lon="12.366466774627101"><ele>543.0</ele><time>2026-05-01T14:18:55Z</time></trkpt><trkpt lat="43.76966565997733" lon="12.366540185720641"><ele>543.0</ele><time>2026-05-01T14:18:56Z</time></trkpt><trkpt lat="43.76973366265625" lon="12.366686213896203"><ele>543.0</ele><time>2026-05-01T14:18:57Z</time></trkpt><trkpt lat="43.76982195547668" lon="12.36684152980954"><ele>543.0</ele><time>2026-05-01T14:18:58Z</time></trkpt><trkpt lat="43.76990529232052" lon="12.367015722751496"><ele>543.0</ele><time>2026-05-01T14:18:59Z</time></trkpt><trkpt lat="43.77000338474562" lon="12.367166813786639"><ele>543.0</ele><time>2026-05-01T14:19:00Z</time></trkpt><trkpt lat="43.7701067294797" lon="12.367279960647245"><ele>543.0</ele><time>2026-05-01T14:19:01Z</time></trkpt><trkpt lat="43.770219741205835" lon="12.367352844899004"><ele>543.0</ele><time>2026-05-01T14:19:02Z</time></trkpt><trkpt lat="43.77035386011798" lon="12.367375954637506"><ele>544.0</ele><time>2026-05-01T14:19:03Z</time></trkpt><trkpt lat="43.770507648056785" lon="12.367356130538948"><ele>545.0</ele><time>2026-05-01T14:19:04Z</time></trkpt><trkpt lat="43.77067620920204" lon="12.367312264723857"><ele>546.0</ele><time>2026-05-01T14:19:05Z</time></trkpt><trkpt lat="43.770850385267615" lon="12.367258453055559"><ele>546.0</ele><time>2026-05-01T14:19:06Z</time></trkpt><trkpt lat="43.77102174420269" lon="12.367194897145096"><ele>546.0</ele><time>2026-05-01T14:19:07Z</time></trkpt><trkpt lat="43.77119283288336" lon="12.367103425360412"><ele>546.0</ele><time>2026-05-01T14:19:08Z</time></trkpt><trkpt lat="43.771359598759325" lon="12.366983940595015"><ele>548.3333333333334</ele><time>2026-05-01T14:19:09Z</time></trkpt><trkpt lat="43.771537318785875" lon="12.36684311033471"><ele>550.6666666666667</ele><time>2026-05-01T14:19:10Z</time></trkpt><trkpt lat="43.77171999393027" lon="12.366686840280378"><ele>553.0</ele><time>2026-05-01T14:19:11Z</time></trkpt><trkpt lat="43.77188031207612" lon="12.366541947932959"><ele>553.0</ele><time>2026-05-01T14:19:12Z</time></trkpt><trkpt lat="43.772033839268694" lon="12.366412589560603"><ele>553.0</ele><time>2026-05-01T14:19:13Z</time></trkpt><trkpt lat="43.77218328236071" lon="12.366291231517094"><ele>553.0</ele><time>2026-05-01T14:19:14Z</time></trkpt><trkpt lat="43.77231907829875" lon="12.36616507819473"><ele>556.6666666666667</ele><time>2026-05-01T14:19:15Z</time></trkpt><trkpt lat="43.772429684384896" lon="12.366010734801884"><ele>560.3333333333334</ele><time>2026-05-01T14:19:16Z</time></trkpt><trkpt lat="43.77252734410056" lon="12.365830845976399"><ele>564.0</ele><time>2026-05-01T14:19:17Z</time></trkpt><trkpt lat="43.772618209493714" lon="12.365636712212305"><ele>565.0</ele><time>2026-05-01T14:19:18Z</time></trkpt><trkpt lat="43.77265042413231" lon="12.36542305012171"><ele>566.0</ele><time>2026-05-01T14:19:19Z</time></trkpt><trkpt lat="43.77266323105263" lon="12.365156893529031"><ele>567.0</ele><time>2026-05-01T14:19:20Z</time></trkpt><trkpt lat="43.77265259993859" lon="12.36486419738319"><ele>566.6666666666666</ele><time>2026-05-01T14:19:21Z</time></trkpt><trkpt lat="43.77264760680944" lon="12.364611052014201"><ele>566.3333333333333</ele><time>2026-05-01T14:19:22Z</time></trkpt><trkpt lat="43.772650877756625" lon="12.364391312389575"><ele>566.0</ele><time>2026-05-01T14:19:23Z</time></trkpt><trkpt lat="43.77268619168144" lon="12.364206882413445"><ele>569.2</ele><time>2026-05-01T14:19:24Z</time></trkpt><trkpt lat="43.77273454362508" lon="12.364070642654413"><ele>572.4000000000001</ele><time>2026-05-01T14:19:25Z</time></trkpt><trkpt lat="43.77281615244225" lon="12.363968018551615"><ele>575.6</ele><time>2026-05-01T14:19:26Z</time></trkpt><trkpt lat="43.77291813170868" lon="12.363960175204703"><ele>578.8000000000001</ele><time>2026-05-01T14:19:27Z</time></trkpt><trkpt lat="43.77303758129694" lon="12.363924371100241"><ele>582.0</ele><time>2026-05-01T14:19:28Z</time></trkpt><trkpt lat="43.77314705517823" lon="12.364012317459588"><ele>582.0</ele><time>2026-05-01T14:19:29Z</time></trkpt><trkpt lat="43.77327739797713" lon="12.364104813597287"><ele>582.0</ele><time>2026-05-01T14:19:30Z</time></trkpt><trkpt lat="43.77342191262798" lon="12.364212277538673"><ele>582.0</ele><time>2026-05-01T14:19:31Z</time></trkpt><trkpt lat="43.773579138410454" lon="12.364308644842184"><ele>584.0</ele><time>2026-05-01T14:19:32Z</time></trkpt><trkpt lat="43.773724022966675" lon="12.36441268980444"><ele>586.0</ele><time>2026-05-01T14:19:33Z</time></trkpt><trkpt lat="43.773860026516275" lon="12.364495027582706"><ele>588.0</ele><time>2026-05-01T14:19:34Z</time></trkpt><trkpt lat="43.77398900983198" lon="12.364546025892441"><ele>590.0</ele><time>2026-05-01T14:19:35Z</time></trkpt><trkpt lat="43.774140786817895" lon="12.36456584566576"><ele>590.0</ele><time>2026-05-01T14:19:36Z</time></trkpt><trkpt lat="43.774286019568436" lon="12.364543647312063"><ele>590.0</ele><time>2026-05-01T14:19:37Z</time></trkpt><trkpt lat="43.774425012022846" lon="12.36447624466877"><ele>590.0</ele><time>2026-05-01T14:19:38Z</time></trkpt><trkpt lat="43.774564778551266" lon="12.364374376315919"><ele>590.3333333333333</ele><time>2026-05-01T14:19:39Z</time></trkpt><trkpt lat="43.77469202621295" lon="12.364234709835952"><ele>590.6666666666666</ele><time>2026-05-01T14:19:40Z</time></trkpt><trkpt lat="43.77481985359622" lon="12.364028964841188"><ele>591.0</ele><time>2026-05-01T14:19:41Z</time></trkpt><trkpt lat="43.774968006361085" lon="12.363875444643028"><ele>592.6666666666666</ele><time>2026-05-01T14:19:42Z</time></trkpt><trkpt lat="43.77511217427954" lon="12.363706581727122"><ele>594.3333333333333</ele><time>2026-05-01T14:19:43Z</time></trkpt><trkpt lat="43.775250076903724" lon="12.363515072521926"><ele>596.0</ele><time>2026-05-01T14:19:44Z</time></trkpt><trkpt lat="43.775401567560145" lon="12.363336903566239"><ele>597.3333333333333</ele><time>2026-05-01T14:19:45Z</time></trkpt><trkpt lat="43.775556479293066" lon="12.363184974598179"><ele>598.6666666666666</ele><time>2026-05-01T14:19:46Z</time></trkpt><trkpt lat="43.775682060010745" lon="12.363006009308727"><ele>600.0</ele><time>2026-05-01T14:19:47Z</time></trkpt><trkpt lat="43.77582532899703" lon="12.362887830315913"><ele>601.0</ele><time>2026-05-01T14:19:48Z</time></trkpt><trkpt lat="43.775966534401746" lon="12.36278346787286"><ele>602.0</ele><time>2026-05-01T14:19:49Z</time></trkpt><trkpt lat="43.776105893298315" lon="12.3627150675675"><ele>603.0</ele><time>2026-05-01T14:19:50Z</time></trkpt><trkpt lat="43.77625715770699" lon="12.362678378470846"><ele>604.3333333333334</ele><time>2026-05-01T14:19:51Z</time></trkpt><trkpt lat="43.776411950046906" lon="12.362646626409576"><ele>605.6666666666667</ele><time>2026-05-01T14:19:52Z</time></trkpt><trkpt lat="43.776575326957214" lon="12.362598341497957"><ele>607.0</ele><time>2026-05-01T14:19:53Z</time></trkpt><trkpt lat="43.77674909467362" lon="12.362566214789426"><ele>608.3333333333334</ele><time>2026-05-01T14:19:54Z</time></trkpt><trkpt lat="43.77693076928797" lon="12.362533932224427"><ele>609.6666666666666</ele><time>2026-05-01T14:19:55Z</time></trkpt><trkpt lat="43.77712142190204" lon="12.36250852341834"><ele>611.0</ele><time>2026-05-01T14:19:56Z</time></trkpt><trkpt lat="43.77731218565639" lon="12.36247473778394"><ele>611.0</ele><time>2026-05-01T14:19:57Z</time></trkpt><trkpt lat="43.777498042780145" lon="12.362442215491638"><ele>611.0</ele><time>2026-05-01T14:19:58Z</time></trkpt><trkpt lat="43.77766937859423" lon="12.362408439770725"><ele>611.0</ele><time>2026-05-01T14:19:59Z</time></trkpt><trkpt lat="43.77783182437785" lon="12.36236062312869"><ele>612.3333333333333</ele><time>2026-05-01T14:20:00Z</time></trkpt><trkpt lat="43.777976227979586" lon="12.362258103422104"><ele>613.6666666666666</ele><time>2026-05-01T14:20:01Z</time></trkpt><trkpt lat="43.77810527229079" lon="12.362105898376168"><ele>615.0</ele><time>2026-05-01T14:20:02Z</time></trkpt><trkpt lat="43.778222771014654" lon="12.36190981252132"><ele>615.6666666666666</ele><time>2026-05-01T14:20:03Z</time></trkpt><trkpt lat="43.778332236745186" lon="12.361720281868523"><ele>616.3333333333333</ele><time>2026-05-01T14:20:04Z</time></trkpt><trkpt lat="43.77845139881354" lon="12.361564830267369"><ele>617.0</ele><time>2026-05-01T14:20:05Z</time></trkpt><trkpt lat="43.778556062604565" lon="12.361411355081211"><ele>618.25</ele><time>2026-05-01T14:20:06Z</time></trkpt><trkpt lat="43.778665484722666" lon="12.361275548313962"><ele>619.5</ele><time>2026-05-01T14:20:07Z</time></trkpt><trkpt lat="43.7787803631579" lon="12.361169038941554"><ele>620.75</ele><time>2026-05-01T14:20:08Z</time></trkpt><trkpt lat="43.77889254304575" lon="12.361068193128748"><ele>622.0</ele><time>2026-05-01T14:20:09Z</time></trkpt><trkpt lat="43.779004427971145" lon="12.360951981263062"><ele>622.0</ele><time>2026-05-01T14:20:10Z</time></trkpt><trkpt lat="43.7791177998923" lon="12.360875673354688"><ele>622.0</ele><time>2026-05-01T14:20:11Z</time></trkpt><trkpt lat="43.77922077042584" lon="12.360772156656832"><ele>622.0</ele><time>2026-05-01T14:20:12Z</time></trkpt><trkpt lat="43.77931905221534" lon="12.360674636344982"><ele>622.0</ele><time>2026-05-01T14:20:13Z</time></trkpt><trkpt lat="43.7794107118107" lon="12.360591191847291"><ele>622.0</ele><time>2026-05-01T14:20:14Z</time></trkpt><trkpt lat="43.77949197426305" lon="12.360517754747248"><ele>622.0</ele><time>2026-05-01T14:20:15Z</time></trkpt><trkpt lat="43.77956773669462" lon="12.360440265542312"><ele>622.0</ele><time>2026-05-01T14:20:16Z</time></trkpt><trkpt lat="43.77964404788216" lon="12.360365158524077"><ele>622.0</ele><time>2026-05-01T14:20:17Z</time></trkpt><trkpt lat="43.77971586217847" lon="12.360317048845864"><ele>622.0</ele><time>2026-05-01T14:20:18Z</time></trkpt><trkpt lat="43.77976969683719" lon="12.360264521845647"><ele>622.0</ele><time>2026-05-01T14:20:19Z</time></trkpt><trkpt lat="43.77985513783264" lon="12.36017768762912"><ele>622.0</ele><time>2026-05-01T14:20:21Z</time></trkpt><trkpt lat="43.77994640745173" lon="12.360078437221546"><ele>622.0</ele><time>2026-05-01T14:20:23.001Z</time></trkpt><trkpt lat="43.77998741697334" lon="12.359998444557515"><ele>622.0</ele><time>2026-05-01T14:20:24.001Z</time></trkpt><trkpt lat="43.78004859547054" lon="12.359921190971656"><ele>622.0</ele><time>2026-05-01T14:20:25.001Z</time></trkpt><trkpt lat="43.780106038408476" lon="12.35982339762716"><ele>622.0</ele><time>2026-05-01T14:20:26.001Z</time></trkpt><trkpt lat="43.78015665756918" lon="12.359715889240567"><ele>622.5</ele><time>2026-05-01T14:20:27.001Z</time></trkpt><trkpt lat="43.78020345513986" lon="12.359573969144138"><ele>623.0</ele><time>2026-05-01T14:20:28.001Z</time></trkpt><trkpt lat="43.78024151382809" lon="12.359414541580831"><ele>623.5</ele><time>2026-05-01T14:20:29.001Z</time></trkpt><trkpt lat="43.78029399441254" lon="12.359250165138237"><ele>624.0</ele><time>2026-05-01T14:20:30.001Z</time></trkpt><trkpt lat="43.78033371230128" lon="12.359076530837584"><ele>624.0</ele><time>2026-05-01T14:20:31.001Z</time></trkpt><trkpt lat="43.78035281029786" lon="12.358919631108819"><ele>624.0</ele><time>2026-05-01T14:20:32.001Z</time></trkpt><trkpt lat="43.78039651815615" lon="12.358753128198753"><ele>624.0</ele><time>2026-05-01T14:20:33.001Z</time></trkpt><trkpt lat="43.78044246398096" lon="12.358586496381216"><ele>624.0</ele><time>2026-05-01T14:20:34.001Z</time></trkpt><trkpt lat="43.78049041185563" lon="12.35841406345819"><ele>624.75</ele><time>2026-05-01T14:20:35.001Z</time></trkpt><trkpt lat="43.780554666169316" lon="12.358248088738286"><ele>625.5</ele><time>2026-05-01T14:20:36.001Z</time></trkpt><trkpt lat="43.78064669997804" lon="12.358110566053265"><ele>626.25</ele><time>2026-05-01T14:20:37.001Z</time></trkpt><trkpt lat="43.78073894797342" lon="12.35797552347624"><ele>627.0</ele><time>2026-05-01T14:20:38.001Z</time></trkpt><trkpt lat="43.780846319967765" lon="12.3578594046716"><ele>628.25</ele><time>2026-05-01T14:20:39.001Z</time></trkpt><trkpt lat="43.78095505627597" lon="12.357720259834451"><ele>629.5</ele><time>2026-05-01T14:20:40.001Z</time></trkpt><trkpt lat="43.78107195604071" lon="12.357590540449744"><ele>630.75</ele><time>2026-05-01T14:20:41.001Z</time></trkpt><trkpt lat="43.78118919931501" lon="12.357458523953246"><ele>632.0</ele><time>2026-05-01T14:20:42.001Z</time></trkpt><trkpt lat="43.78130387265924" lon="12.3573319901231"><ele>632.75</ele><time>2026-05-01T14:20:43.001Z</time></trkpt><trkpt lat="43.78139479811559" lon="12.357211999036902"><ele>633.5</ele><time>2026-05-01T14:20:44.001Z</time></trkpt><trkpt lat="43.78145607974591" lon="12.357085712392848"><ele>634.25</ele><time>2026-05-01T14:20:45.001Z</time></trkpt><trkpt lat="43.781493766330684" lon="12.356928454328406"><ele>635.0</ele><time>2026-05-01T14:20:46Z</time></trkpt><trkpt lat="43.781502337976974" lon="12.356759103266581"><ele>637.5</ele><time>2026-05-01T14:20:47Z</time></trkpt><trkpt lat="43.78148100063383" lon="12.356578457851557"><ele>640.0</ele><time>2026-05-01T14:20:48Z</time></trkpt><trkpt lat="43.78142410157815" lon="12.356399458724463"><ele>642.5</ele><time>2026-05-01T14:20:49Z</time></trkpt><trkpt lat="43.78134987248985" lon="12.356220987160247"><ele>645.0</ele><time>2026-05-01T14:20:50Z</time></trkpt><trkpt lat="43.78128311653939" lon="12.356021999653999"><ele>647.0</ele><time>2026-05-01T14:20:51Z</time></trkpt><trkpt lat="43.78121105239895" lon="12.35583452303625"><ele>649.0</ele><time>2026-05-01T14:20:52Z</time></trkpt><trkpt lat="43.78114494400147" lon="12.355651884736076"><ele>651.0</ele><time>2026-05-01T14:20:53Z</time></trkpt><trkpt lat="43.781093190231864" lon="12.355470298359887"><ele>653.0</ele><time>2026-05-01T14:20:54Z</time></trkpt><trkpt lat="43.781058737404805" lon="12.355288392373485"><ele>654.25</ele><time>2026-05-01T14:20:55Z</time></trkpt><trkpt lat="43.78104991922406" lon="12.355112483371013"><ele>655.5</ele><time>2026-05-01T14:20:56Z</time></trkpt><trkpt lat="43.78106851601012" lon="12.354940307401911"><ele>656.75</ele><time>2026-05-01T14:20:57Z</time></trkpt><trkpt lat="43.78109568367538" lon="12.354766045974731"><ele>658.0</ele><time>2026-05-01T14:20:58Z</time></trkpt><trkpt lat="43.781150983774275" lon="12.354614212023156"><ele>658.0</ele><time>2026-05-01T14:20:59Z</time></trkpt><trkpt lat="43.78121495981157" lon="12.354474258305066"><ele>658.0</ele><time>2026-05-01T14:21:00Z</time></trkpt><trkpt lat="43.781295969265216" lon="12.354363163293307"><ele>658.0</ele><time>2026-05-01T14:21:01Z</time></trkpt><trkpt lat="43.781396309239355" lon="12.354287465633899"><ele>658.0</ele><time>2026-05-01T14:21:02Z</time></trkpt><trkpt lat="43.78148600639707" lon="12.354197174636724"><ele>658.0</ele><time>2026-05-01T14:21:03Z</time></trkpt><trkpt lat="43.78159128081222" lon="12.354142403374627"><ele>658.0</ele><time>2026-05-01T14:21:04Z</time></trkpt><trkpt lat="43.78170883310906" lon="12.354110842845062"><ele>658.0</ele><time>2026-05-01T14:21:05Z</time></trkpt><trkpt lat="43.781829685818536" lon="12.354105975349757"><ele>658.0</ele><time>2026-05-01T14:21:06Z</time></trkpt><trkpt lat="43.781953213740515" lon="12.354131289790013"><ele>659.5</ele><time>2026-05-01T14:21:07Z</time></trkpt><trkpt lat="43.78207549124497" lon="12.35417839050084"><ele>661.0</ele><time>2026-05-01T14:21:08Z</time></trkpt><trkpt lat="43.782204760984015" lon="12.354221568528839"><ele>662.5</ele><time>2026-05-01T14:21:09Z</time></trkpt><trkpt lat="43.782310862483214" lon="12.35422676663503"><ele>664.0</ele><time>2026-05-01T14:21:10Z</time></trkpt><trkpt lat="43.782421554155086" lon="12.354181828558112"><ele>664.0</ele><time>2026-05-01T14:21:11Z</time></trkpt><trkpt lat="43.782509852181775" lon="12.354090183180052"><ele>664.0</ele><time>2026-05-01T14:21:12Z</time></trkpt><trkpt lat="43.782588954143115" lon="12.353968556789019"><ele>664.0</ele><time>2026-05-01T14:21:13Z</time></trkpt><trkpt lat="43.78265083359543" lon="12.353822983058606"><ele>664.0</ele><time>2026-05-01T14:21:14Z</time></trkpt><trkpt lat="43.782700772401625" lon="12.35366808685231"><ele>663.0</ele><time>2026-05-01T14:21:15Z</time></trkpt><trkpt lat="43.782753198568464" lon="12.353515185418093"><ele>662.0</ele><time>2026-05-01T14:21:16Z</time></trkpt><trkpt lat="43.78281820460978" lon="12.353363078698226"><ele>661.0</ele><time>2026-05-01T14:21:17Z</time></trkpt><trkpt lat="43.78288552831658" lon="12.353212057878904"><ele>660.0</ele><time>2026-05-01T14:21:18Z</time></trkpt><trkpt lat="43.78294196675416" lon="12.353057202602313"><ele>660.25</ele><time>2026-05-01T14:21:19Z</time></trkpt><trkpt lat="43.78298621291641" lon="12.352898490086986"><ele>660.5</ele><time>2026-05-01T14:21:20Z</time></trkpt><trkpt lat="43.78301504261318" lon="12.352730125452673"><ele>660.75</ele><time>2026-05-01T14:21:21Z</time></trkpt><trkpt lat="43.78303367825693" lon="12.352553755935194"><ele>661.0</ele><time>2026-05-01T14:21:22Z</time></trkpt><trkpt lat="43.78303355059497" lon="12.352350129655132"><ele>661.0</ele><time>2026-05-01T14:21:23Z</time></trkpt><trkpt lat="43.783030430811685" lon="12.352146531284205"><ele>661.0</ele><time>2026-05-01T14:21:24Z</time></trkpt><trkpt lat="43.783046735624744" lon="12.351935544665832"><ele>661.0</ele><time>2026-05-01T14:21:25Z</time></trkpt><trkpt lat="43.78305277745901" lon="12.351721271786934"><ele>661.0</ele><time>2026-05-01T14:21:26Z</time></trkpt><trkpt lat="43.783067775378775" lon="12.351510703943525"><ele>661.0</ele><time>2026-05-01T14:21:27Z</time></trkpt><trkpt lat="43.783115441278966" lon="12.351326972886266"><ele>661.0</ele><time>2026-05-01T14:21:28Z</time></trkpt><trkpt lat="43.783191536565276" lon="12.35116218251755"><ele>661.0</ele><time>2026-05-01T14:21:29Z</time></trkpt><trkpt lat="43.783299528234096" lon="12.351032687526635"><ele>661.0</ele><time>2026-05-01T14:21:30Z</time></trkpt><trkpt lat="43.783416150396924" lon="12.350912515559493"><ele>661.0</ele><time>2026-05-01T14:21:31Z</time></trkpt><trkpt lat="43.78355343487879" lon="12.350843983584712"><ele>661.0</ele><time>2026-05-01T14:21:32Z</time></trkpt><trkpt lat="43.78368652786734" lon="12.35077404589016"><ele>661.0</ele><time>2026-05-01T14:21:33Z</time></trkpt><trkpt lat="43.78381364552631" lon="12.350698956954"><ele>662.5</ele><time>2026-05-01T14:21:34Z</time></trkpt><trkpt lat="43.78393207617953" lon="12.350616384682235"><ele>664.0</ele><time>2026-05-01T14:21:35Z</time></trkpt><trkpt lat="43.78405260215148" lon="12.350538577744961"><ele>665.5</ele><time>2026-05-01T14:21:36Z</time></trkpt><trkpt lat="43.7841699606614" lon="12.350461177738936"><ele>667.0</ele><time>2026-05-01T14:21:37Z</time></trkpt><trkpt lat="43.78428940811332" lon="12.35038926678358"><ele>669.75</ele><time>2026-05-01T14:21:38Z</time></trkpt><trkpt lat="43.78441189705304" lon="12.350339614297274"><ele>672.5</ele><time>2026-05-01T14:21:39Z</time></trkpt><trkpt lat="43.78453807859665" lon="12.350311828043223"><ele>675.25</ele><time>2026-05-01T14:21:40Z</time></trkpt><trkpt lat="43.784666734749656" lon="12.35028640319981"><ele>678.0</ele><time>2026-05-01T14:21:41Z</time></trkpt><trkpt lat="43.78479822054003" lon="12.350259951735742"><ele>678.0</ele><time>2026-05-01T14:21:42Z</time></trkpt><trkpt lat="43.784913565615696" lon="12.350233259952379"><ele>678.0</ele><time>2026-05-01T14:21:43Z</time></trkpt><trkpt lat="43.785007740273706" lon="12.350215984616668"><ele>678.0</ele><time>2026-05-01T14:21:44Z</time></trkpt><trkpt lat="43.785101390148434" lon="12.350214143919423"><ele>678.0</ele><time>2026-05-01T14:21:45Z</time></trkpt><trkpt lat="43.7851870572031" lon="12.350241557345853"><ele>678.0</ele><time>2026-05-01T14:21:46Z</time></trkpt><trkpt lat="43.78526412578705" lon="12.35031214000948"><ele>679.8</ele><time>2026-05-01T14:21:47Z</time></trkpt><trkpt lat="43.78532768686976" lon="12.35039619356965"><ele>681.5999999999999</ele><time>2026-05-01T14:21:48Z</time></trkpt><trkpt lat="43.78539123467759" lon="12.350505187459419"><ele>683.4000000000001</ele><time>2026-05-01T14:21:49Z</time></trkpt><trkpt lat="43.785438105374745" lon="12.35062306473044"><ele>685.2</ele><time>2026-05-01T14:21:50Z</time></trkpt><trkpt lat="43.785472962828" lon="12.350768634732042"><ele>687.0</ele><time>2026-05-01T14:21:51Z</time></trkpt><trkpt lat="43.78550763801377" lon="12.350926274046573"><ele>687.0</ele><time>2026-05-01T14:21:52Z</time></trkpt><trkpt lat="43.78554906044583" lon="12.351072257861961"><ele>687.0</ele><time>2026-05-01T14:21:53Z</time></trkpt><trkpt lat="43.785585830532604" lon="12.351222663116657"><ele>687.0</ele><time>2026-05-01T14:21:54Z</time></trkpt><trkpt lat="43.78562278470968" lon="12.351375409733583"><ele>687.0</ele><time>2026-05-01T14:21:55Z</time></trkpt><trkpt lat="43.78566392010723" lon="12.351531662761952"><ele>686.5</ele><time>2026-05-01T14:21:56Z</time></trkpt><trkpt lat="43.785702818360015" lon="12.351691558714077"><ele>686.0</ele><time>2026-05-01T14:21:57Z</time></trkpt><trkpt lat="43.78574122518139" lon="12.351852917114263"><ele>685.5</ele><time>2026-05-01T14:21:58Z</time></trkpt><trkpt lat="43.785781222048065" lon="12.352016218006185"><ele>685.0</ele><time>2026-05-01T14:21:59Z</time></trkpt><trkpt lat="43.7858217545311" lon="12.352177391543187"><ele>685.0</ele><time>2026-05-01T14:22:00Z</time></trkpt><trkpt lat="43.785858676233886" lon="12.352328170251225"><ele>685.0</ele><time>2026-05-01T14:22:01Z</time></trkpt><trkpt lat="43.78589712315867" lon="12.35245707878907"><ele>685.0</ele><time>2026-05-01T14:22:02Z</time></trkpt><trkpt lat="43.78595231404754" lon="12.352570887089962"><ele>685.0</ele><time>2026-05-01T14:22:03Z</time></trkpt><trkpt lat="43.786022704619214" lon="12.3526666388774"><ele>685.0</ele><time>2026-05-01T14:22:04Z</time></trkpt><trkpt lat="43.786109568411284" lon="12.352735176632773"><ele>687.6</ele><time>2026-05-01T14:22:05Z</time></trkpt><trkpt lat="43.78620369951896" lon="12.352753554666128"><ele>690.2</ele><time>2026-05-01T14:22:06Z</time></trkpt><trkpt lat="43.78628979449196" lon="12.352747467483058"><ele>692.8</ele><time>2026-05-01T14:22:07Z</time></trkpt><trkpt lat="43.78638528664439" lon="12.352717281549857"><ele>695.4</ele><time>2026-05-01T14:22:08Z</time></trkpt><trkpt lat="43.786477172521046" lon="12.352679488584203"><ele>698.0</ele><time>2026-05-01T14:22:09Z</time></trkpt><trkpt lat="43.78655445613076" lon="12.352646897848821"><ele>698.0</ele><time>2026-05-01T14:22:10Z</time></trkpt><trkpt lat="43.786620424125005" lon="12.352616348021469"><ele>698.0</ele><time>2026-05-01T14:22:11Z</time></trkpt><trkpt lat="43.78669430365785" lon="12.352565255696828"><ele>698.0</ele><time>2026-05-01T14:22:13Z</time></trkpt><trkpt lat="43.78673255535838" lon="12.35248212248324"><ele>698.0</ele><time>2026-05-01T14:22:23.001Z</time></trkpt><trkpt lat="43.78673279978624" lon="12.352359469156129"><ele>698.0</ele><time>2026-05-01T14:22:25.001Z</time></trkpt><trkpt lat="43.786693126436795" lon="12.352264241294765"><ele>698.0</ele><time>2026-05-01T14:22:26.001Z</time></trkpt><trkpt lat="43.78665677541663" lon="12.352173476608039"><ele>697.9999999999999</ele><time>2026-05-01T14:22:27.001Z</time></trkpt><trkpt lat="43.78662066109812" lon="12.352080950122776"><ele>698.0</ele><time>2026-05-01T14:22:28.001Z</time></trkpt><trkpt lat="43.78658636403358" lon="12.351980962454014"><ele>698.0</ele><time>2026-05-01T14:22:29.001Z</time></trkpt><trkpt lat="43.786551102619136" lon="12.35188059987109"><ele>698.0</ele><time>2026-05-01T14:22:30.001Z</time></trkpt><trkpt lat="43.78652125967134" lon="12.35178548902989"><ele>698.0</ele><time>2026-05-01T14:22:31.001Z</time></trkpt><trkpt lat="43.78649532472655" lon="12.351702449450345"><ele>697.9999999999999</ele><time>2026-05-01T14:22:32.001Z</time></trkpt><trkpt lat="43.786474561032065" lon="12.351613271423167"><ele>698.0</ele><time>2026-05-01T14:22:33.001Z</time></trkpt><trkpt lat="43.786464007360934" lon="12.351520174740253"><ele>698.0</ele><time>2026-05-01T14:22:34.001Z</time></trkpt><trkpt lat="43.7864260354731" lon="12.3513609640762"><ele>698.0</ele><time>2026-05-01T14:22:36.001Z</time></trkpt><trkpt lat="43.7863853389275" lon="12.351214052070024"><ele>698.0</ele><time>2026-05-01T14:22:38.001Z</time></trkpt><trkpt lat="43.78632984913221" lon="12.351076175969784"><ele>698.0</ele><time>2026-05-01T14:22:40.001Z</time></trkpt><trkpt lat="43.7862772859659" lon="12.350993888775948"><ele>698.0</ele><time>2026-05-01T14:22:41.001Z</time></trkpt><trkpt lat="43.786266827555544" lon="12.350882898309303"><ele>698.0</ele><time>2026-05-01T14:22:42.001Z</time></trkpt><trkpt lat="43.786224940995105" lon="12.350783701519422"><ele>698.0</ele><time>2026-05-01T14:22:43.001Z</time></trkpt><trkpt lat="43.78620057219244" lon="12.350664759294013"><ele>698.0</ele><time>2026-05-01T14:22:44.001Z</time></trkpt><trkpt lat="43.78616859242148" lon="12.350534485578137"><ele>698.0</ele><time>2026-05-01T14:22:45.001Z</time></trkpt><trkpt lat="43.786136556567726" lon="12.350388316274202"><ele>698.0</ele><time>2026-05-01T14:22:46.001Z</time></trkpt><trkpt lat="43.78610273741284" lon="12.350248694836226"><ele>698.75</ele><time>2026-05-01T14:22:47.001Z</time></trkpt><trkpt lat="43.786064866963386" lon="12.350101110566412"><ele>699.5</ele><time>2026-05-01T14:22:48.001Z</time></trkpt><trkpt lat="43.78603068969752" lon="12.349950262467805"><ele>700.25</ele><time>2026-05-01T14:22:49.001Z</time></trkpt><trkpt lat="43.785999714784666" lon="12.349801273036332"><ele>701.0</ele><time>2026-05-01T14:22:50.001Z</time></trkpt><trkpt lat="43.78596148196621" lon="12.349646068054998"><ele>699.0</ele><time>2026-05-01T14:22:51.001Z</time></trkpt><trkpt lat="43.785914066961354" lon="12.349496243993125"><ele>697.0</ele><time>2026-05-01T14:22:52Z</time></trkpt><trkpt lat="43.78587351012168" lon="12.349333141892085"><ele>695.0</ele><time>2026-05-01T14:22:53Z</time></trkpt><trkpt lat="43.785832354859785" lon="12.349174663739586"><ele>693.0</ele><time>2026-05-01T14:22:54Z</time></trkpt><trkpt lat="43.78578309374394" lon="12.349022632255474"><ele>693.0</ele><time>2026-05-01T14:22:55Z</time></trkpt><trkpt lat="43.78571818173039" lon="12.34888190647295"><ele>693.0</ele><time>2026-05-01T14:22:56Z</time></trkpt><trkpt lat="43.785636502601236" lon="12.348755161372326"><ele>693.0</ele><time>2026-05-01T14:22:57Z</time></trkpt><trkpt lat="43.785540391970905" lon="12.34862906681059"><ele>693.0</ele><time>2026-05-01T14:22:58Z</time></trkpt><trkpt lat="43.785431508390424" lon="12.348517283333946"><ele>694.0</ele><time>2026-05-01T14:22:59Z</time></trkpt><trkpt lat="43.78531223788792" lon="12.348414759379283"><ele>695.0</ele><time>2026-05-01T14:23:00Z</time></trkpt><trkpt lat="43.78519568662822" lon="12.3483008717393"><ele>696.0</ele><time>2026-05-01T14:23:01Z</time></trkpt><trkpt lat="43.78508301231938" lon="12.348169288046032"><ele>697.0</ele><time>2026-05-01T14:23:02Z</time></trkpt><trkpt lat="43.784974715729575" lon="12.348098815105896"><ele>696.5</ele><time>2026-05-01T14:23:03Z</time></trkpt><trkpt lat="43.784862266129906" lon="12.347993046045687"><ele>696.0</ele><time>2026-05-01T14:23:04Z</time></trkpt><trkpt lat="43.784756738434154" lon="12.347894639591019"><ele>695.5</ele><time>2026-05-01T14:23:05Z</time></trkpt><trkpt lat="43.78465918290339" lon="12.347805976472094"><ele>695.0</ele><time>2026-05-01T14:23:06Z</time></trkpt><trkpt lat="43.78456994939265" lon="12.347722604416512"><ele>695.0</ele><time>2026-05-01T14:23:07Z</time></trkpt><trkpt lat="43.78448249421385" lon="12.347642289001882"><ele>695.0</ele><time>2026-05-01T14:23:08Z</time></trkpt><trkpt lat="43.784391105723266" lon="12.347558116394811"><ele>695.0</ele><time>2026-05-01T14:23:09Z</time></trkpt><trkpt lat="43.78430334093982" lon="12.347477067071159"><ele>695.0</ele><time>2026-05-01T14:23:10Z</time></trkpt><trkpt lat="43.784218308734125" lon="12.34739864717104"><ele>695.0</ele><time>2026-05-01T14:23:11Z</time></trkpt><trkpt lat="43.78413586454658" lon="12.347311058538295"><ele>694.8</ele><time>2026-05-01T14:23:12Z</time></trkpt><trkpt lat="43.78404670418163" lon="12.347228613630678"><ele>694.6</ele><time>2026-05-01T14:23:13Z</time></trkpt><trkpt lat="43.78395576584667" lon="12.34714269756531"><ele>694.4000000000001</ele><time>2026-05-01T14:23:14Z</time></trkpt><trkpt lat="43.783864806894435" lon="12.347055629042915"><ele>694.2</ele><time>2026-05-01T14:23:15Z</time></trkpt><trkpt lat="43.78377192303701" lon="12.346970931198435"><ele>694.0</ele><time>2026-05-01T14:23:16Z</time></trkpt><trkpt lat="43.78368208436037" lon="12.346882562930764"><ele>692.25</ele><time>2026-05-01T14:23:17Z</time></trkpt><trkpt lat="43.78349326896628" lon="12.34671545679233"><ele>690.5</ele><time>2026-05-01T14:23:19Z</time></trkpt><trkpt lat="43.78340539363285" lon="12.346625910626951"><ele>688.75</ele><time>2026-05-01T14:23:20Z</time></trkpt><trkpt lat="43.78331773454224" lon="12.346553994362147"><ele>687.0</ele><time>2026-05-01T14:23:21Z</time></trkpt><trkpt lat="43.78323813240999" lon="12.346486306613487"><ele>687.0</ele><time>2026-05-01T14:23:22Z</time></trkpt><trkpt lat="43.783182888234755" lon="12.34640840408997"><ele>687.0</ele><time>2026-05-01T14:23:23Z</time></trkpt><trkpt lat="43.78310948553654" lon="12.346339956684371"><ele>687.0</ele><time>2026-05-01T14:23:25Z</time></trkpt><trkpt lat="43.78304595371687" lon="12.346280713912018"><ele>687.0</ele><time>2026-05-01T14:24:04Z</time></trkpt><trkpt lat="43.782943701617796" lon="12.346207599088995"><ele>687.0</ele><time>2026-05-01T14:24:06Z</time></trkpt><trkpt lat="43.78287727671683" lon="12.346118964200155"><ele>687.75</ele><time>2026-05-01T14:24:07Z</time></trkpt><trkpt lat="43.78277116448871" lon="12.346009562159463"><ele>688.5</ele><time>2026-05-01T14:24:08Z</time></trkpt><trkpt lat="43.78264732964906" lon="12.34591133643582"><ele>689.25</ele><time>2026-05-01T14:24:09Z</time></trkpt><trkpt lat="43.7825176488982" lon="12.345804875549094"><ele>690.0</ele><time>2026-05-01T14:24:10Z</time></trkpt><trkpt lat="43.78238454706127" lon="12.345682591227247"><ele>690.0</ele><time>2026-05-01T14:24:11Z</time></trkpt><trkpt lat="43.78226945762736" lon="12.345554406169683"><ele>690.0</ele><time>2026-05-01T14:24:12Z</time></trkpt><trkpt lat="43.78218509326916" lon="12.345400251462827"><ele>690.0</ele><time>2026-05-01T14:24:13Z</time></trkpt><trkpt lat="43.782105002376895" lon="12.345241418197874"><ele>690.0</ele><time>2026-05-01T14:24:14Z</time></trkpt><trkpt lat="43.782027364522975" lon="12.345071712809283"><ele>693.3333333333334</ele><time>2026-05-01T14:24:15Z</time></trkpt><trkpt lat="43.7819892994286" lon="12.344867430212666"><ele>696.6666666666667</ele><time>2026-05-01T14:24:16Z</time></trkpt><trkpt lat="43.78195401917811" lon="12.34465872097104"><ele>700.0</ele><time>2026-05-01T14:24:17Z</time></trkpt><trkpt lat="43.78192190429338" lon="12.344440672864163"><ele>700.6666666666667</ele><time>2026-05-01T14:24:18Z</time></trkpt><trkpt lat="43.781890533373364" lon="12.34420298375096"><ele>701.3333333333334</ele><time>2026-05-01T14:24:19Z</time></trkpt><trkpt lat="43.781851090061956" lon="12.343970005248355"><ele>702.0</ele><time>2026-05-01T14:24:20Z</time></trkpt><trkpt lat="43.78179267665506" lon="12.34373559129917"><ele>700.6666666666666</ele><time>2026-05-01T14:24:21Z</time></trkpt><trkpt lat="43.781717826782206" lon="12.343508180115672"><ele>699.3333333333333</ele><time>2026-05-01T14:24:22Z</time></trkpt><trkpt lat="43.781645001305826" lon="12.343280102055557"><ele>698.0</ele><time>2026-05-01T14:24:23Z</time></trkpt><trkpt lat="43.781570594571384" lon="12.343049420562794"><ele>702.0</ele><time>2026-05-01T14:24:24Z</time></trkpt><trkpt lat="43.78150684778038" lon="12.342822443346742"><ele>706.0</ele><time>2026-05-01T14:24:25.001Z</time></trkpt><trkpt lat="43.781438895571696" lon="12.342627789266597"><ele>710.0</ele><time>2026-05-01T14:24:26.001Z</time></trkpt><trkpt lat="43.78138353428679" lon="12.34244592727451"><ele>710.0</ele><time>2026-05-01T14:24:27.001Z</time></trkpt><trkpt lat="43.7813390578843" lon="12.342274689816954"><ele>710.0</ele><time>2026-05-01T14:24:28.001Z</time></trkpt><trkpt lat="43.781288121236116" lon="12.342121749792843"><ele>710.0</ele><time>2026-05-01T14:24:29.001Z</time></trkpt><trkpt lat="43.78125151319738" lon="12.34198854269169"><ele>710.0</ele><time>2026-05-01T14:24:30.001Z</time></trkpt><trkpt lat="43.78121395888134" lon="12.341869654704182"><ele>710.6</ele><time>2026-05-01T14:24:31.001Z</time></trkpt><trkpt lat="43.78116681667112" lon="12.341765972066895"><ele>711.2</ele><time>2026-05-01T14:24:32.001Z</time></trkpt><trkpt lat="43.7811028001061" lon="12.341544700379593"><ele>711.8</ele><time>2026-05-01T14:24:34.001Z</time></trkpt><trkpt lat="43.78106733513991" lon="12.34143908481679"><ele>712.4</ele><time>2026-05-01T14:24:35.001Z</time></trkpt><trkpt lat="43.78103360425951" lon="12.341333400424391"><ele>713.0</ele><time>2026-05-01T14:24:36.001Z</time></trkpt><trkpt lat="43.781000219328206" lon="12.341223942814977"><ele>713.1666666666666</ele><time>2026-05-01T14:24:37.001Z</time></trkpt><trkpt lat="43.780972105127084" lon="12.341122064375186"><ele>713.3333333333333</ele><time>2026-05-01T14:24:38.001Z</time></trkpt><trkpt lat="43.78094528216649" lon="12.341024493956724"><ele>713.5</ele><time>2026-05-01T14:24:39.001Z</time></trkpt><trkpt lat="43.78091847296617" lon="12.340940679105993"><ele>713.6666666666666</ele><time>2026-05-01T14:24:40.001Z</time></trkpt><trkpt lat="43.78089206950077" lon="12.340860230471336"><ele>713.8333333333334</ele><time>2026-05-01T14:24:41.001Z</time></trkpt><trkpt lat="43.78085209103382" lon="12.340708785813211"><ele>714.0</ele><time>2026-05-01T14:24:43.001Z</time></trkpt><trkpt lat="43.780827720649945" lon="12.340616427638597"><ele>714.5714285714286</ele><time>2026-05-01T14:24:44.001Z</time></trkpt><trkpt lat="43.78079878063028" lon="12.340517832416799"><ele>715.1428571428571</ele><time>2026-05-01T14:24:45.001Z</time></trkpt><trkpt lat="43.78076593760844" lon="12.340418194801412"><ele>715.7142857142858</ele><time>2026-05-01T14:24:46.001Z</time></trkpt><trkpt lat="43.78073197088142" lon="12.340324561720703"><ele>716.2857142857142</ele><time>2026-05-01T14:24:47.001Z</time></trkpt><trkpt lat="43.78070251148463" lon="12.340228955872155"><ele>716.8571428571429</ele><time>2026-05-01T14:24:48.001Z</time></trkpt><trkpt lat="43.780674382629925" lon="12.340139820323447"><ele>717.4285714285714</ele><time>2026-05-01T14:24:49.001Z</time></trkpt><trkpt lat="43.78064492999899" lon="12.340049126505983"><ele>718.0</ele><time>2026-05-01T14:24:50.001Z</time></trkpt><trkpt lat="43.780617631257854" lon="12.33995774171321"><ele>718.0</ele><time>2026-05-01T14:24:51.001Z</time></trkpt><trkpt lat="43.780592099841584" lon="12.339858751719948"><ele>718.0</ele><time>2026-05-01T14:24:52.001Z</time></trkpt><trkpt lat="43.7805606091258" lon="12.33975884390326"><ele>718.0</ele><time>2026-05-01T14:24:53.001Z</time></trkpt><trkpt lat="43.78052306624202" lon="12.33964756594235"><ele>718.0</ele><time>2026-05-01T14:24:54.001Z</time></trkpt><trkpt lat="43.78048993787139" lon="12.339534827059449"><ele>718.0</ele><time>2026-05-01T14:24:55.001Z</time></trkpt><trkpt lat="43.78045843071806" lon="12.339427074988729"><ele>718.0</ele><time>2026-05-01T14:24:56.001Z</time></trkpt><trkpt lat="43.780421115417106" lon="12.339312704501959"><ele>718.8</ele><time>2026-05-01T14:24:57.001Z</time></trkpt><trkpt lat="43.78038645768803" lon="12.3391977887326"><ele>719.5999999999999</ele><time>2026-05-01T14:24:58Z</time></trkpt><trkpt lat="43.78035044813253" lon="12.33908109337542"><ele>720.4000000000001</ele><time>2026-05-01T14:24:59Z</time></trkpt><trkpt lat="43.78031049904381" lon="12.338960660005602"><ele>721.2</ele><time>2026-05-01T14:25:00Z</time></trkpt><trkpt lat="43.78027362054198" lon="12.338843109740036"><ele>722.0</ele><time>2026-05-01T14:25:01Z</time></trkpt><trkpt lat="43.780241179028" lon="12.33872715707951"><ele>722.6666666666666</ele><time>2026-05-01T14:25:02Z</time></trkpt><trkpt lat="43.7802149845201" lon="12.338613611931669"><ele>723.3333333333333</ele><time>2026-05-01T14:25:03Z</time></trkpt><trkpt lat="43.780180750464524" lon="12.338507463508813"><ele>724.0</ele><time>2026-05-01T14:25:04Z</time></trkpt><trkpt lat="43.78014629478641" lon="12.338403696197703"><ele>724.6666666666666</ele><time>2026-05-01T14:25:05Z</time></trkpt><trkpt lat="43.78010821476463" lon="12.338305986729786"><ele>725.3333333333334</ele><time>2026-05-01T14:25:06Z</time></trkpt><trkpt lat="43.78007672989647" lon="12.338215638938845"><ele>726.0</ele><time>2026-05-01T14:25:07Z</time></trkpt><trkpt lat="43.7800442970821" lon="12.338122179680235"><ele>725.8333333333334</ele><time>2026-05-01T14:25:08Z</time></trkpt><trkpt lat="43.78001007299903" lon="12.33804080475174"><ele>725.6666666666666</ele><time>2026-05-01T14:25:09Z</time></trkpt><trkpt lat="43.779973257102796" lon="12.337967282382044"><ele>725.5</ele><time>2026-05-01T14:25:10Z</time></trkpt><trkpt lat="43.77992499602234" lon="12.337893876618931"><ele>725.3333333333333</ele><time>2026-05-01T14:25:11Z</time></trkpt><trkpt lat="43.77987724677524" lon="12.337825676599564"><ele>725.1666666666666</ele><time>2026-05-01T14:25:12Z</time></trkpt><trkpt lat="43.779827474171455" lon="12.33776749015342"><ele>725.0</ele><time>2026-05-01T14:25:13Z</time></trkpt><trkpt lat="43.77973471347417" lon="12.337673145842263"><ele>725.0</ele><time>2026-05-01T14:25:15Z</time></trkpt><trkpt lat="43.77968074937076" lon="12.337592373052198"><ele>725.0</ele><time>2026-05-01T14:25:17Z</time></trkpt><trkpt lat="43.77968836507723" lon="12.337487964648544"><ele>725.0</ele><time>2026-05-01T14:25:19Z</time></trkpt><trkpt lat="43.77973867198502" lon="12.337369499448103"><ele>725.0</ele><time>2026-05-01T14:25:21Z</time></trkpt><trkpt lat="43.77980996324178" lon="12.337236204472422"><ele>725.0</ele><time>2026-05-01T14:25:23Z</time></trkpt><trkpt lat="43.77984170058938" lon="12.337154130502212"><ele>725.0</ele><time>2026-05-01T14:25:24Z</time></trkpt><trkpt lat="43.77989010484875" lon="12.337082134651107"><ele>726.2857142857143</ele><time>2026-05-01T14:25:25Z</time></trkpt><trkpt lat="43.77993062902815" lon="12.336998845546367"><ele>727.5714285714287</ele><time>2026-05-01T14:25:26Z</time></trkpt><trkpt lat="43.779969685253576" lon="12.336918212929703"><ele>728.8571428571429</ele><time>2026-05-01T14:25:27Z</time></trkpt><trkpt lat="43.780009472150994" lon="12.336836213099483"><ele>730.1428571428571</ele><time>2026-05-01T14:25:28Z</time></trkpt><trkpt lat="43.78005005272758" lon="12.336752577519"><ele>731.4285714285714</ele><time>2026-05-01T14:25:29Z</time></trkpt><trkpt lat="43.78007628548197" lon="12.33666014563762"><ele>732.7142857142857</ele><time>2026-05-01T14:25:30Z</time></trkpt><trkpt lat="43.78011621982811" lon="12.336578839206865"><ele>734.0</ele><time>2026-05-01T14:25:31Z</time></trkpt><trkpt lat="43.78015645853686" lon="12.336498919146818"><ele>735.2857142857142</ele><time>2026-05-01T14:25:32Z</time></trkpt><trkpt lat="43.780197435665336" lon="12.336417353966667"><ele>736.5714285714287</ele><time>2026-05-01T14:25:33Z</time></trkpt><trkpt lat="43.780235165970396" lon="12.336341651673"><ele>737.8571428571429</ele><time>2026-05-01T14:25:34Z</time></trkpt><trkpt lat="43.78027343232776" lon="12.336260679652439"><ele>739.1428571428571</ele><time>2026-05-01T14:25:35Z</time></trkpt><trkpt lat="43.78032087436326" lon="12.336178985187352"><ele>740.4285714285713</ele><time>2026-05-01T14:25:36Z</time></trkpt><trkpt lat="43.7803636314804" lon="12.33608925971314"><ele>741.7142857142858</ele><time>2026-05-01T14:25:37Z</time></trkpt><trkpt lat="43.7804269677945" lon="12.336022798953103"><ele>743.0</ele><time>2026-05-01T14:25:38Z</time></trkpt><trkpt lat="43.780474564748324" lon="12.335949203653966"><ele>743.6666666666666</ele><time>2026-05-01T14:25:39Z</time></trkpt><trkpt lat="43.78054569774469" lon="12.33584638709911"><ele>744.3333333333333</ele><time>2026-05-01T14:25:41Z</time></trkpt><trkpt lat="43.780596017030426" lon="12.335772948917167"><ele>745.0</ele><time>2026-05-01T14:25:43Z</time></trkpt><trkpt lat="43.78063115563939" lon="12.335661721300879"><ele>745.6666666666666</ele><time>2026-05-01T14:25:46Z</time></trkpt><trkpt lat="43.780674059335865" lon="12.33559735486641"><ele>746.3333333333334</ele><time>2026-05-01T14:25:48Z</time></trkpt><trkpt lat="43.780729476589805" lon="12.335535057186735"><ele>747.0</ele><time>2026-05-01T14:25:50Z</time></trkpt><trkpt lat="43.78077897594227" lon="12.33546790374522"><ele>747.3333333333334</ele><time>2026-05-01T14:25:52Z</time></trkpt><trkpt lat="43.78083118912417" lon="12.335388649600581"><ele>747.6666666666666</ele><time>2026-05-01T14:25:55Z</time></trkpt><trkpt lat="43.780902954298966" lon="12.335324980644769"><ele>748.0</ele><time>2026-05-01T14:25:58Z</time></trkpt><trkpt lat="43.78094472630733" lon="12.335253618559454"><ele>748.3333333333333</ele><time>2026-05-01T14:26:01Z</time></trkpt><trkpt lat="43.7810079443548" lon="12.33519565817436"><ele>748.6666666666666</ele><time>2026-05-01T14:26:14Z</time></trkpt><trkpt lat="43.78095438176769" lon="12.335076531966187"><ele>749.0</ele><time>2026-05-01T14:26:15.001Z</time></trkpt><trkpt lat="43.780870606295" lon="12.334959439665635"><ele>749.0</ele><time>2026-05-01T14:26:17.001Z</time></trkpt><trkpt lat="43.78083212182396" lon="12.334885418064"><ele>749.0</ele><time>2026-05-01T14:26:18.001Z</time></trkpt><trkpt lat="43.780758508652355" lon="12.334739115868416"><ele>749.0</ele><time>2026-05-01T14:26:20.001Z</time></trkpt><trkpt lat="43.780720289721614" lon="12.334658990703176"><ele>749.0</ele><time>2026-05-01T14:26:21.001Z</time></trkpt><trkpt lat="43.780682882606506" lon="12.334573797301534"><ele>749.0</ele><time>2026-05-01T14:26:22.001Z</time></trkpt><trkpt lat="43.780645384970754" lon="12.334486221283546"><ele>749.0</ele><time>2026-05-01T14:26:23.001Z</time></trkpt><trkpt lat="43.7806054170703" lon="12.334402894009637"><ele>750.6666666666666</ele><time>2026-05-01T14:26:24.001Z</time></trkpt><trkpt lat="43.78056289348125" lon="12.334316980630986"><ele>752.3333333333333</ele><time>2026-05-01T14:26:25.001Z</time></trkpt><trkpt lat="43.780522329279776" lon="12.334217391654734"><ele>754.0</ele><time>2026-05-01T14:26:26.001Z</time></trkpt><trkpt lat="43.78047836875709" lon="12.334113492035895"><ele>755.6666666666666</ele><time>2026-05-01T14:26:27.001Z</time></trkpt><trkpt lat="43.780427335290646" lon="12.334009779205811"><ele>757.3333333333334</ele><time>2026-05-01T14:26:28.001Z</time></trkpt><trkpt lat="43.78037588004361" lon="12.33391340645341"><ele>759.0</ele><time>2026-05-01T14:26:29.001Z</time></trkpt><trkpt lat="43.780326280026294" lon="12.333822854765069"><ele>758.5</ele><time>2026-05-01T14:26:30.001Z</time></trkpt><trkpt lat="43.78027751864317" lon="12.333736468222673"><ele>758.0</ele><time>2026-05-01T14:26:31.001Z</time></trkpt><trkpt lat="43.78023387242737" lon="12.333655254156795"><ele>757.5</ele><time>2026-05-01T14:26:32.001Z</time></trkpt><trkpt lat="43.78019192663332" lon="12.3335749582134"><ele>757.0</ele><time>2026-05-01T14:26:33.001Z</time></trkpt><trkpt lat="43.78015773819213" lon="12.333481733657203"><ele>756.5</ele><time>2026-05-01T14:26:34.001Z</time></trkpt><trkpt lat="43.780129377272594" lon="12.333382781539449"><ele>756.0</ele><time>2026-05-01T14:26:35.001Z</time></trkpt><trkpt lat="43.78009939226648" lon="12.333284032863101"><ele>756.0</ele><time>2026-05-01T14:26:36.001Z</time></trkpt><trkpt lat="43.78008237416332" lon="12.333179159862247"><ele>756.0</ele><time>2026-05-01T14:26:37.001Z</time></trkpt><trkpt lat="43.7800757110029" lon="12.333072708875042"><ele>756.0</ele><time>2026-05-01T14:26:38.001Z</time></trkpt><trkpt lat="43.780071694366846" lon="12.332962839554565"><ele>756.0</ele><time>2026-05-01T14:26:39.001Z</time></trkpt><trkpt lat="43.78008345538534" lon="12.332861053063464"><ele>756.0</ele><time>2026-05-01T14:26:40.001Z</time></trkpt><trkpt lat="43.780100448287804" lon="12.332751919838007"><ele>756.0</ele><time>2026-05-01T14:26:41.001Z</time></trkpt><trkpt lat="43.78012016984645" lon="12.33264572124232"><ele>756.8</ele><time>2026-05-01T14:26:42.001Z</time></trkpt><trkpt lat="43.78014504488598" lon="12.332533049345098"><ele>757.5999999999999</ele><time>2026-05-01T14:26:43.001Z</time></trkpt><trkpt lat="43.7801652858488" lon="12.332416083607837"><ele>758.4</ele><time>2026-05-01T14:26:44.001Z</time></trkpt><trkpt lat="43.78019365784052" lon="12.332292794514983"><ele>759.2</ele><time>2026-05-01T14:26:45.001Z</time></trkpt><trkpt lat="43.78021623943003" lon="12.332162971312085"><ele>760.0</ele><time>2026-05-01T14:26:46.001Z</time></trkpt><trkpt lat="43.78024195785881" lon="12.332036513547157"><ele>762.4</ele><time>2026-05-01T14:26:47.001Z</time></trkpt><trkpt lat="43.780272657441415" lon="12.331916945062321"><ele>764.8</ele><time>2026-05-01T14:26:48.001Z</time></trkpt><trkpt lat="43.78030963787187" lon="12.331787138647396"><ele>767.2</ele><time>2026-05-01T14:26:49.001Z</time></trkpt><trkpt lat="43.78033921988715" lon="12.331663377042922"><ele>769.6</ele><time>2026-05-01T14:26:50.001Z</time></trkpt><trkpt lat="43.78036878767405" lon="12.331536020121211"><ele>772.0</ele><time>2026-05-01T14:26:51.001Z</time></trkpt><trkpt lat="43.78039182807833" lon="12.331402897955593"><ele>772.2</ele><time>2026-05-01T14:26:52.001Z</time></trkpt><trkpt lat="43.780411170517965" lon="12.331272551684924"><ele>772.4000000000001</ele><time>2026-05-01T14:26:53.001Z</time></trkpt><trkpt lat="43.7804358354572" lon="12.33114554370782"><ele>772.5999999999999</ele><time>2026-05-01T14:26:54.001Z</time></trkpt><trkpt lat="43.780468276077784" lon="12.331015506362279"><ele>772.8</ele><time>2026-05-01T14:26:55.001Z</time></trkpt><trkpt lat="43.78050620823344" lon="12.330881794266483"><ele>773.0</ele><time>2026-05-01T14:26:56.001Z</time></trkpt><trkpt lat="43.780550015953224" lon="12.330745133255865"><ele>773.0</ele><time>2026-05-01T14:26:57.001Z</time></trkpt><trkpt lat="43.78058471012115" lon="12.330614293494431"><ele>773.0</ele><time>2026-05-01T14:26:58.001Z</time></trkpt><trkpt lat="43.780621978207215" lon="12.330487211989194"><ele>773.0</ele><time>2026-05-01T14:26:59.001Z</time></trkpt><trkpt lat="43.78065372749964" lon="12.330355004918484"><ele>773.0</ele><time>2026-05-01T14:27:00.001Z</time></trkpt><trkpt lat="43.780674144556045" lon="12.330226125237083"><ele>773.0</ele><time>2026-05-01T14:27:01.001Z</time></trkpt><trkpt lat="43.78068454231945" lon="12.330114785535203"><ele>774.5999999999999</ele><time>2026-05-01T14:27:02.001Z</time></trkpt><trkpt lat="43.780698096493595" lon="12.329993963444734"><ele>776.1999999999999</ele><time>2026-05-01T14:27:03.001Z</time></trkpt><trkpt lat="43.780701274312904" lon="12.329863232217471"><ele>777.8</ele><time>2026-05-01T14:27:04Z</time></trkpt><trkpt lat="43.78068468917055" lon="12.329748488907219"><ele>779.4</ele><time>2026-05-01T14:27:05Z</time></trkpt><trkpt lat="43.78064383519095" lon="12.329628989636916"><ele>781.0</ele><time>2026-05-01T14:27:06Z</time></trkpt><trkpt lat="43.78057235754697" lon="12.32953677790064"><ele>780.1999999999999</ele><time>2026-05-01T14:27:07Z</time></trkpt><trkpt lat="43.780475774133144" lon="12.329495840553026"><ele>779.4</ele><time>2026-05-01T14:27:08Z</time></trkpt><trkpt lat="43.780375842874314" lon="12.329461077285403"><ele>778.6</ele><time>2026-05-01T14:27:09Z</time></trkpt><trkpt lat="43.78027900597179" lon="12.32939235524785"><ele>777.8</ele><time>2026-05-01T14:27:10Z</time></trkpt><trkpt lat="43.78017369854467" lon="12.329341198582133"><ele>777.0</ele><time>2026-05-01T14:27:11Z</time></trkpt><trkpt lat="43.78007332253055" lon="12.329260684701541"><ele>777.0</ele><time>2026-05-01T14:27:12Z</time></trkpt><trkpt lat="43.77996458694544" lon="12.329168722856824"><ele>777.0</ele><time>2026-05-01T14:27:13Z</time></trkpt><trkpt lat="43.779851946827" lon="12.329101471408316"><ele>777.0</ele><time>2026-05-01T14:27:14Z</time></trkpt><trkpt lat="43.779761381696396" lon="12.329010260605791"><ele>777.0</ele><time>2026-05-01T14:27:15Z</time></trkpt><trkpt lat="43.77968020791433" lon="12.328905892608324"><ele>779.4000000000001</ele><time>2026-05-01T14:27:16Z</time></trkpt><trkpt lat="43.779622111712165" lon="12.328787011668824"><ele>781.8000000000001</ele><time>2026-05-01T14:27:17Z</time></trkpt><trkpt lat="43.779589567748005" lon="12.32864838375385"><ele>784.2</ele><time>2026-05-01T14:27:18Z</time></trkpt><trkpt lat="43.779585584485304" lon="12.32849356216789"><ele>786.6</ele><time>2026-05-01T14:27:19Z</time></trkpt><trkpt lat="43.7795935461007" lon="12.328318926633388"><ele>789.0</ele><time>2026-05-01T14:27:20Z</time></trkpt><trkpt lat="43.77960101820616" lon="12.328127745983767"><ele>792.5</ele><time>2026-05-01T14:27:21Z</time></trkpt><trkpt lat="43.779599653212344" lon="12.32793315675415"><ele>796.0</ele><time>2026-05-01T14:27:22Z</time></trkpt><trkpt lat="43.779589281378385" lon="12.327760008742123"><ele>799.5</ele><time>2026-05-01T14:27:23Z</time></trkpt><trkpt lat="43.77956976979808" lon="12.327592239820783"><ele>803.0</ele><time>2026-05-01T14:27:24Z</time></trkpt><trkpt lat="43.77950775799461" lon="12.327434922132902"><ele>803.0</ele><time>2026-05-01T14:27:25Z</time></trkpt><trkpt lat="43.77939361976228" lon="12.327308778663804"><ele>803.0</ele><time>2026-05-01T14:27:26Z</time></trkpt><trkpt lat="43.77929880775031" lon="12.327166807496374"><ele>803.0</ele><time>2026-05-01T14:27:27Z</time></trkpt><trkpt lat="43.779226886084814" lon="12.326988488118415"><ele>803.0</ele><time>2026-05-01T14:27:28Z</time></trkpt><trkpt lat="43.77917296882344" lon="12.326820120746389"><ele>802.5</ele><time>2026-05-01T14:27:29Z</time></trkpt><trkpt lat="43.77914195335517" lon="12.326675570362147"><ele>802.0</ele><time>2026-05-01T14:27:30Z</time></trkpt><trkpt lat="43.779136006074545" lon="12.326538621004463"><ele>801.5</ele><time>2026-05-01T14:27:31Z</time></trkpt><trkpt lat="43.77916900346979" lon="12.326404689428475"><ele>801.0</ele><time>2026-05-01T14:27:32Z</time></trkpt><trkpt lat="43.77927968178876" lon="12.326272351846702"><ele>804.3333333333333</ele><time>2026-05-01T14:27:33Z</time></trkpt><trkpt lat="43.77941609315333" lon="12.326134034427337"><ele>807.6666666666666</ele><time>2026-05-01T14:27:34Z</time></trkpt><trkpt lat="43.77950185582117" lon="12.32594878214105"><ele>811.0</ele><time>2026-05-01T14:27:36Z</time></trkpt><trkpt lat="43.77961816671283" lon="12.325784364594071"><ele>812.5</ele><time>2026-05-01T14:27:37Z</time></trkpt><trkpt lat="43.77985841578193" lon="12.325451000049403"><ele>814.0</ele><time>2026-05-01T14:27:39Z</time></trkpt><trkpt lat="43.779982532886535" lon="12.325271963900883"><ele>814.0</ele><time>2026-05-01T14:27:40Z</time></trkpt><trkpt lat="43.780105469617084" lon="12.325110479985225"><ele>814.0</ele><time>2026-05-01T14:27:41Z</time></trkpt><trkpt lat="43.780218653510374" lon="12.324951361683832"><ele>814.0</ele><time>2026-05-01T14:27:42Z</time></trkpt><trkpt lat="43.780328164306496" lon="12.324803221347766"><ele>816.0</ele><time>2026-05-01T14:27:43Z</time></trkpt><trkpt lat="43.78041328716774" lon="12.324670177976241"><ele>818.0</ele><time>2026-05-01T14:27:44Z</time></trkpt><trkpt lat="43.78049085347812" lon="12.324560807596551"><ele>820.0</ele><time>2026-05-01T14:27:45Z</time></trkpt><trkpt lat="43.78054052050404" lon="12.324426183629855"><ele>822.0</ele><time>2026-05-01T14:27:46Z</time></trkpt><trkpt lat="43.780555032527616" lon="12.324255388701816"><ele>822.0</ele><time>2026-05-01T14:27:47Z</time></trkpt><trkpt lat="43.78056115986467" lon="12.324056282775583"><ele>822.0</ele><time>2026-05-01T14:27:48Z</time></trkpt><trkpt lat="43.78054904718153" lon="12.323835889087723"><ele>822.0</ele><time>2026-05-01T14:27:49Z</time></trkpt><trkpt lat="43.78054912786485" lon="12.32360499042605"><ele>823.3333333333333</ele><time>2026-05-01T14:27:50Z</time></trkpt><trkpt lat="43.78053725142752" lon="12.323383543327427"><ele>824.6666666666666</ele><time>2026-05-01T14:27:51Z</time></trkpt><trkpt lat="43.78051293808044" lon="12.32316313848888"><ele>826.0</ele><time>2026-05-01T14:27:52Z</time></trkpt><trkpt lat="43.780470581508084" lon="12.322941960339671"><ele>827.3333333333333</ele><time>2026-05-01T14:27:53Z</time></trkpt><trkpt lat="43.780432841303494" lon="12.322718443851194"><ele>828.6666666666667</ele><time>2026-05-01T14:27:54Z</time></trkpt><trkpt lat="43.78039623323978" lon="12.322501005191736"><ele>830.0</ele><time>2026-05-01T14:27:55Z</time></trkpt><trkpt lat="43.780363736369964" lon="12.322288498982692"><ele>831.75</ele><time>2026-05-01T14:27:56Z</time></trkpt><trkpt lat="43.78033313772878" lon="12.322089342426406"><ele>833.5</ele><time>2026-05-01T14:27:57Z</time></trkpt><trkpt lat="43.78029882251179" lon="12.321907179337913"><ele>835.25</ele><time>2026-05-01T14:27:58Z</time></trkpt><trkpt lat="43.78026788296858" lon="12.321746499411912"><ele>837.0</ele><time>2026-05-01T14:27:59Z</time></trkpt><trkpt lat="43.78025913484459" lon="12.321646227449309"><ele>837.0</ele><time>2026-05-01T14:28:00Z</time></trkpt><trkpt lat="43.780211132164055" lon="12.321563142746637"><ele>837.0</ele><time>2026-05-01T14:28:01Z</time></trkpt><trkpt lat="43.78017284272493" lon="12.321474295543132"><ele>837.0</ele><time>2026-05-01T14:28:02Z</time></trkpt><trkpt lat="43.78020407051562" lon="12.321334536833401"><ele>837.0</ele><time>2026-05-01T14:28:03Z</time></trkpt><trkpt lat="43.78018374458779" lon="12.321215087289229"><ele>837.0</ele><time>2026-05-01T14:28:04Z</time></trkpt><trkpt lat="43.78015644353377" lon="12.3210891787874"><ele>837.0</ele><time>2026-05-01T14:28:05Z</time></trkpt><trkpt lat="43.780124345964175" lon="12.32093910906558"><ele>836.5</ele><time>2026-05-01T14:28:06Z</time></trkpt><trkpt lat="43.780084028894656" lon="12.320780117413584"><ele>836.0</ele><time>2026-05-01T14:28:07Z</time></trkpt><trkpt lat="43.78003313119689" lon="12.320610876376355"><ele>835.5</ele><time>2026-05-01T14:28:08Z</time></trkpt><trkpt lat="43.77997270475537" lon="12.320420532948807"><ele>835.0</ele><time>2026-05-01T14:28:09Z</time></trkpt><trkpt lat="43.779916581446045" lon="12.320197573328205"><ele>836.0</ele><time>2026-05-01T14:28:10Z</time></trkpt><trkpt lat="43.7798751932081" lon="12.319968593999494"><ele>837.0</ele><time>2026-05-01T14:28:11Z</time></trkpt><trkpt lat="43.779876271852885" lon="12.319806412130403"><ele>838.0</ele><time>2026-05-01T14:28:12.001Z</time></trkpt><trkpt lat="43.77987784295689" lon="12.319583134635943"><ele>839.0</ele><time>2026-05-01T14:28:13.001Z</time></trkpt><trkpt lat="43.77988238269995" lon="12.319342128296054"><ele>839.6666666666667</ele><time>2026-05-01T14:28:14.001Z</time></trkpt><trkpt lat="43.77988967650897" lon="12.319091825647758"><ele>840.3333333333333</ele><time>2026-05-01T14:28:15.001Z</time></trkpt><trkpt lat="43.77990103378165" lon="12.318820569959733"><ele>841.0</ele><time>2026-05-01T14:28:16.001Z</time></trkpt><trkpt lat="43.77990286051877" lon="12.31852086845592"><ele>842.6666666666666</ele><time>2026-05-01T14:28:17.001Z</time></trkpt><trkpt lat="43.77992277416647" lon="12.31825362898127"><ele>844.3333333333333</ele><time>2026-05-01T14:28:18.001Z</time></trkpt><trkpt lat="43.779946492460375" lon="12.318020950084607"><ele>846.0</ele><time>2026-05-01T14:28:19.001Z</time></trkpt><trkpt lat="43.77996083245899" lon="12.31780037275638"><ele>847.5</ele><time>2026-05-01T14:28:20.001Z</time></trkpt><trkpt lat="43.779959216772475" lon="12.317588060857451"><ele>849.0</ele><time>2026-05-01T14:28:21.001Z</time></trkpt><trkpt lat="43.77993043955228" lon="12.317396786199547"><ele>850.5</ele><time>2026-05-01T14:28:22.001Z</time></trkpt><trkpt lat="43.779871731232376" lon="12.31722997743361"><ele>852.0</ele><time>2026-05-01T14:28:23.001Z</time></trkpt><trkpt lat="43.779785429076135" lon="12.317063300150378"><ele>854.6666666666667</ele><time>2026-05-01T14:28:24.001Z</time></trkpt><trkpt lat="43.77967913339133" lon="12.3168879878067"><ele>857.3333333333334</ele><time>2026-05-01T14:28:25.001Z</time></trkpt><trkpt lat="43.779566720780686" lon="12.316704315450448"><ele>860.0</ele><time>2026-05-01T14:28:26.001Z</time></trkpt><trkpt lat="43.779479233938694" lon="12.31655467706811"><ele>860.0</ele><time>2026-05-01T14:28:27.001Z</time></trkpt><trkpt lat="43.779411617528375" lon="12.316405371644843"><ele>860.0</ele><time>2026-05-01T14:28:28.001Z</time></trkpt><trkpt lat="43.779380171769546" lon="12.316238270407693"><ele>860.0</ele><time>2026-05-01T14:28:29.001Z</time></trkpt><trkpt lat="43.77936667371254" lon="12.316061603389588"><ele>860.0</ele><time>2026-05-01T14:28:30.001Z</time></trkpt><trkpt lat="43.77937731131681" lon="12.315862935257279"><ele>862.0</ele><time>2026-05-01T14:28:31.001Z</time></trkpt><trkpt lat="43.779422706640176" lon="12.31566803467419"><ele>864.0</ele><time>2026-05-01T14:28:32.001Z</time></trkpt><trkpt lat="43.7795065415402" lon="12.315496574066701"><ele>866.0</ele><time>2026-05-01T14:28:33.001Z</time></trkpt><trkpt lat="43.77960543859438" lon="12.315299876020475"><ele>866.6666666666667</ele><time>2026-05-01T14:28:34.001Z</time></trkpt><trkpt lat="43.77970116261832" lon="12.315131083083411"><ele>867.3333333333333</ele><time>2026-05-01T14:28:35.001Z</time></trkpt><trkpt lat="43.77976253375034" lon="12.314943247000416"><ele>868.0</ele><time>2026-05-01T14:28:36.001Z</time></trkpt><trkpt lat="43.77979366498846" lon="12.314722020936511"><ele>869.25</ele><time>2026-05-01T14:28:37.001Z</time></trkpt><trkpt lat="43.779802537019364" lon="12.314488204824992"><ele>870.5</ele><time>2026-05-01T14:28:38.001Z</time></trkpt><trkpt lat="43.77980403702168" lon="12.31428971115038"><ele>871.75</ele><time>2026-05-01T14:28:39.001Z</time></trkpt><trkpt lat="43.77978189029371" lon="12.314118429387273"><ele>873.0</ele><time>2026-05-01T14:28:40.001Z</time></trkpt><trkpt lat="43.77971678763063" lon="12.313963303354813"><ele>873.0</ele><time>2026-05-01T14:28:41.001Z</time></trkpt><trkpt lat="43.779604187234206" lon="12.31383316002628"><ele>873.0</ele><time>2026-05-01T14:28:42.001Z</time></trkpt><trkpt lat="43.77945461830328" lon="12.313721486672627"><ele>873.0</ele><time>2026-05-01T14:28:43.001Z</time></trkpt><trkpt lat="43.7792895763161" lon="12.313606323653895"><ele>873.0</ele><time>2026-05-01T14:28:44.001Z</time></trkpt><trkpt lat="43.77912975491902" lon="12.3134759049563"><ele>873.0</ele><time>2026-05-01T14:28:45.001Z</time></trkpt><trkpt lat="43.77895562811111" lon="12.31336258728291"><ele>873.0</ele><time>2026-05-01T14:28:46.001Z</time></trkpt><trkpt lat="43.77876980135607" lon="12.313280543784032"><ele>873.0</ele><time>2026-05-01T14:28:47.001Z</time></trkpt><trkpt lat="43.77858382518393" lon="12.313245298491957"><ele>873.0</ele><time>2026-05-01T14:28:48.001Z</time></trkpt><trkpt lat="43.77842099617786" lon="12.313212618571873"><ele>873.0</ele><time>2026-05-01T14:28:49.001Z</time></trkpt><trkpt lat="43.77829054124423" lon="12.313158539469883"><ele>873.0</ele><time>2026-05-01T14:28:50.001Z</time></trkpt><trkpt lat="43.77818952527832" lon="12.313079302501405"><ele>873.0</ele><time>2026-05-01T14:28:51.001Z</time></trkpt><trkpt lat="43.77808621820951" lon="12.312999782334707"><ele>873.0</ele><time>2026-05-01T14:28:52.001Z</time></trkpt><trkpt lat="43.778026910427435" lon="12.312847050358378"><ele>873.0</ele><time>2026-05-01T14:28:53.001Z</time></trkpt><trkpt lat="43.77795983458178" lon="12.312685331918788"><ele>875.3333333333333</ele><time>2026-05-01T14:28:54.001Z</time></trkpt><trkpt lat="43.77796659466307" lon="12.312493162812023"><ele>877.6666666666666</ele><time>2026-05-01T14:28:55.001Z</time></trkpt><trkpt lat="43.77795792751982" lon="12.31227885846102"><ele>880.0</ele><time>2026-05-01T14:28:56.001Z</time></trkpt><trkpt lat="43.77797979501831" lon="12.31205003484195"><ele>882.3333333333333</ele><time>2026-05-01T14:28:57.001Z</time></trkpt><trkpt lat="43.7780162951502" lon="12.311802337597324"><ele>884.6666666666667</ele><time>2026-05-01T14:28:58.001Z</time></trkpt><trkpt lat="43.77806831553312" lon="12.31154572592121"><ele>887.0</ele><time>2026-05-01T14:28:59.001Z</time></trkpt><trkpt lat="43.77812414965741" lon="12.311279154727929"><ele>889.3333333333334</ele><time>2026-05-01T14:29:00.001Z</time></trkpt><trkpt lat="43.7781834186165" lon="12.311022244273774"><ele>891.6666666666667</ele><time>2026-05-01T14:29:01.001Z</time></trkpt><trkpt lat="43.77823856892876" lon="12.310803890145436"><ele>894.0</ele><time>2026-05-01T14:29:02.001Z</time></trkpt><trkpt lat="43.77829751147158" lon="12.310610239061141"><ele>895.25</ele><time>2026-05-01T14:29:03.001Z</time></trkpt><trkpt lat="43.77838015455348" lon="12.31044816759763"><ele>896.5</ele><time>2026-05-01T14:29:04.001Z</time></trkpt><trkpt lat="43.77845933652508" lon="12.310282589562897"><ele>897.75</ele><time>2026-05-01T14:29:05.001Z</time></trkpt><trkpt lat="43.77852793120784" lon="12.310107891078168"><ele>899.0</ele><time>2026-05-01T14:29:06.001Z</time></trkpt><trkpt lat="43.77861018175682" lon="12.309939689100915"><ele>900.25</ele><time>2026-05-01T14:29:07.001Z</time></trkpt><trkpt lat="43.77869552918492" lon="12.309764031069134"><ele>901.5</ele><time>2026-05-01T14:29:08.001Z</time></trkpt><trkpt lat="43.77878168490055" lon="12.309593451516037"><ele>902.75</ele><time>2026-05-01T14:29:09.001Z</time></trkpt><trkpt lat="43.77889881766193" lon="12.309479938725742"><ele>904.0</ele><time>2026-05-01T14:29:10Z</time></trkpt><trkpt lat="43.77902678258328" lon="12.309381315006611"><ele>905.0</ele><time>2026-05-01T14:29:11Z</time></trkpt><trkpt lat="43.779167253805475" lon="12.309269738577271"><ele>906.0</ele><time>2026-05-01T14:29:12Z</time></trkpt><trkpt lat="43.77932418130339" lon="12.309170432947981"><ele>907.0</ele><time>2026-05-01T14:29:13Z</time></trkpt><trkpt lat="43.779489279285556" lon="12.30906804522202"><ele>909.0</ele><time>2026-05-01T14:29:14Z</time></trkpt><trkpt lat="43.77965602452948" lon="12.308963944902112"><ele>911.0</ele><time>2026-05-01T14:29:15Z</time></trkpt><trkpt lat="43.77980547957247" lon="12.308862424455619"><ele>913.0</ele><time>2026-05-01T14:29:16Z</time></trkpt><trkpt lat="43.7799225697673" lon="12.308777021713565"><ele>913.75</ele><time>2026-05-01T14:29:17Z</time></trkpt><trkpt lat="43.78001913557623" lon="12.308668264333475"><ele>914.5</ele><time>2026-05-01T14:29:18Z</time></trkpt><trkpt lat="43.78009938705921" lon="12.308525450416827"><ele>915.25</ele><time>2026-05-01T14:29:19Z</time></trkpt><trkpt lat="43.78015883114537" lon="12.308359034385632"><ele>916.0</ele><time>2026-05-01T14:29:20Z</time></trkpt><trkpt lat="43.78020786458068" lon="12.308145718106838"><ele>919.6666666666666</ele><time>2026-05-01T14:29:21Z</time></trkpt><trkpt lat="43.78025176211647" lon="12.30792709687173"><ele>923.3333333333333</ele><time>2026-05-01T14:29:22Z</time></trkpt><trkpt lat="43.780289203374025" lon="12.307665239027441"><ele>927.0</ele><time>2026-05-01T14:29:23Z</time></trkpt><trkpt lat="43.78033439235271" lon="12.307406954135951"><ele>929.0</ele><time>2026-05-01T14:29:24Z</time></trkpt><trkpt lat="43.78038577067819" lon="12.307111526301592"><ele>931.0</ele><time>2026-05-01T14:29:25Z</time></trkpt><trkpt lat="43.78043844869548" lon="12.306806849866158"><ele>933.0</ele><time>2026-05-01T14:29:26Z</time></trkpt><trkpt lat="43.78048744373453" lon="12.306490576801666"><ele>934.5</ele><time>2026-05-01T14:29:27Z</time></trkpt><trkpt lat="43.78054731976024" lon="12.30617739681461"><ele>936.0</ele><time>2026-05-01T14:29:28Z</time></trkpt><trkpt lat="43.780602481215695" lon="12.305871206926124"><ele>936.0</ele><time>2026-05-01T14:29:29Z</time></trkpt><trkpt lat="43.780652113022064" lon="12.305602523379969"><ele>936.0</ele><time>2026-05-01T14:29:30Z</time></trkpt><trkpt lat="43.78070014786636" lon="12.305350125041757"><ele>936.0</ele><time>2026-05-01T14:29:31Z</time></trkpt><trkpt lat="43.780745039092544" lon="12.305120447162222"><ele>937.6666666666667</ele><time>2026-05-01T14:29:32Z</time></trkpt><trkpt lat="43.78078784098315" lon="12.304903856478196"><ele>939.3333333333334</ele><time>2026-05-01T14:29:33Z</time></trkpt><trkpt lat="43.78081280559337" lon="12.30469707710748"><ele>941.0</ele><time>2026-05-01T14:29:34Z</time></trkpt><trkpt lat="43.78082726155324" lon="12.304502196686254"><ele>942.0</ele><time>2026-05-01T14:29:35Z</time></trkpt><trkpt lat="43.78081342445286" lon="12.304303794178844"><ele>943.0</ele><time>2026-05-01T14:29:36Z</time></trkpt><trkpt lat="43.78076891768131" lon="12.304088765603295"><ele>944.0</ele><time>2026-05-01T14:29:37Z</time></trkpt><trkpt lat="43.78068880367409" lon="12.303880620940967"><ele>946.3333333333334</ele><time>2026-05-01T14:29:38Z</time></trkpt><trkpt lat="43.78061401654438" lon="12.303639052178017"><ele>948.6666666666667</ele><time>2026-05-01T14:29:39Z</time></trkpt><trkpt lat="43.78055083783372" lon="12.303395283566362"><ele>951.0</ele><time>2026-05-01T14:29:40Z</time></trkpt><trkpt lat="43.78050120983219" lon="12.303174747946517"><ele>952.6666666666667</ele><time>2026-05-01T14:29:41Z</time></trkpt><trkpt lat="43.780467013855116" lon="12.30294800155856"><ele>954.3333333333334</ele><time>2026-05-01T14:29:42Z</time></trkpt><trkpt lat="43.78043852860961" lon="12.302753518744254"><ele>956.0</ele><time>2026-05-01T14:29:43Z</time></trkpt><trkpt lat="43.78047180002265" lon="12.302549984634057"><ele>956.0</ele><time>2026-05-01T14:29:44Z</time></trkpt><trkpt lat="43.780526215784946" lon="12.302370765026494"><ele>956.0</ele><time>2026-05-01T14:29:45Z</time></trkpt><trkpt lat="43.78061815384285" lon="12.302226803465205"><ele>956.0</ele><time>2026-05-01T14:29:46Z</time></trkpt><trkpt lat="43.780715208366075" lon="12.302135678654919"><ele>956.0</ele><time>2026-05-01T14:29:47Z</time></trkpt><trkpt lat="43.7808237809981" lon="12.30213187501494"><ele>955.75</ele><time>2026-05-01T14:29:48Z</time></trkpt><trkpt lat="43.78093058367365" lon="12.302146532058423"><ele>955.5</ele><time>2026-05-01T14:29:49Z</time></trkpt><trkpt lat="43.78103629245124" lon="12.302205724746123"><ele>955.25</ele><time>2026-05-01T14:29:50Z</time></trkpt><trkpt lat="43.781132870805834" lon="12.302300071294725"><ele>955.0</ele><time>2026-05-01T14:29:51Z</time></trkpt><trkpt lat="43.78123391506406" lon="12.302387077326687"><ele>957.0</ele><time>2026-05-01T14:29:52Z</time></trkpt><trkpt lat="43.78134435729373" lon="12.302441099508908"><ele>959.0</ele><time>2026-05-01T14:29:53Z</time></trkpt><trkpt lat="43.78145826491907" lon="12.302456885435806"><ele>961.0</ele><time>2026-05-01T14:29:54Z</time></trkpt><trkpt lat="43.781577900120745" lon="12.302396706696667"><ele>963.0</ele><time>2026-05-01T14:29:55Z</time></trkpt><trkpt lat="43.78169900290687" lon="12.30228757583903"><ele>963.3333333333333</ele><time>2026-05-01T14:29:56Z</time></trkpt><trkpt lat="43.781822084846695" lon="12.302151970399308"><ele>963.6666666666666</ele><time>2026-05-01T14:29:57Z</time></trkpt><trkpt lat="43.78196003760734" lon="12.30202411859249"><ele>964.0</ele><time>2026-05-01T14:29:58Z</time></trkpt><trkpt lat="43.782083339721325" lon="12.301894835715471"><ele>965.5</ele><time>2026-05-01T14:29:59Z</time></trkpt><trkpt lat="43.78220541599779" lon="12.301782623162245"><ele>967.0</ele><time>2026-05-01T14:30:00Z</time></trkpt><trkpt lat="43.78233608029957" lon="12.301731846825048"><ele>968.5</ele><time>2026-05-01T14:30:01Z</time></trkpt><trkpt lat="43.78245208524598" lon="12.301731476747348"><ele>970.0</ele><time>2026-05-01T14:30:02Z</time></trkpt><trkpt lat="43.782588502395136" lon="12.301748416089497"><ele>972.6666666666666</ele><time>2026-05-01T14:30:03Z</time></trkpt><trkpt lat="43.78271552275697" lon="12.301834213704488"><ele>975.3333333333333</ele><time>2026-05-01T14:30:04Z</time></trkpt><trkpt lat="43.782843504778675" lon="12.301954371470448"><ele>978.0</ele><time>2026-05-01T14:30:05Z</time></trkpt><trkpt lat="43.782983601424135" lon="12.302087377567787"><ele>978.0</ele><time>2026-05-01T14:30:06Z</time></trkpt><trkpt lat="43.78313938049921" lon="12.302216249029266"><ele>978.0</ele><time>2026-05-01T14:30:07Z</time></trkpt><trkpt lat="43.78330117998155" lon="12.30235533708027"><ele>978.0</ele><time>2026-05-01T14:30:08Z</time></trkpt><trkpt lat="43.78346455659897" lon="12.30250521324052"><ele>980.3333333333333</ele><time>2026-05-01T14:30:09Z</time></trkpt><trkpt lat="43.78362160506475" lon="12.302631898613214"><ele>982.6666666666666</ele><time>2026-05-01T14:30:10Z</time></trkpt><trkpt lat="43.783759051321134" lon="12.302735558952023"><ele>985.0</ele><time>2026-05-01T14:30:11Z</time></trkpt><trkpt lat="43.7838763199304" lon="12.302815094101039"><ele>985.0</ele><time>2026-05-01T14:30:12Z</time></trkpt><trkpt lat="43.78399079670697" lon="12.302843124647762"><ele>985.0</ele><time>2026-05-01T14:30:13Z</time></trkpt><trkpt lat="43.784099216364694" lon="12.302824102905092"><ele>985.0</ele><time>2026-05-01T14:30:14Z</time></trkpt><trkpt lat="43.78419897903539" lon="12.302753213348124"><ele>985.0</ele><time>2026-05-01T14:30:15Z</time></trkpt><trkpt lat="43.784301435424176" lon="12.302648687430498"><ele>987.25</ele><time>2026-05-01T14:30:16Z</time></trkpt><trkpt lat="43.78441299272905" lon="12.302534378793315"><ele>989.5</ele><time>2026-05-01T14:30:17Z</time></trkpt><trkpt lat="43.78453249249041" lon="12.302418342093933"><ele>991.75</ele><time>2026-05-01T14:30:18Z</time></trkpt><trkpt lat="43.784658012659584" lon="12.302307090629528"><ele>994.0</ele><time>2026-05-01T14:30:19Z</time></trkpt><trkpt lat="43.784804709253045" lon="12.302189522821902"><ele>994.0</ele><time>2026-05-01T14:30:20Z</time></trkpt><trkpt lat="43.784948449249" lon="12.302073964368809"><ele>994.0</ele><time>2026-05-01T14:30:21Z</time></trkpt><trkpt lat="43.78507898053235" lon="12.30197781571176"><ele>994.0</ele><time>2026-05-01T14:30:22Z</time></trkpt><trkpt lat="43.785184328396056" lon="12.301877580716882"><ele>994.0</ele><time>2026-05-01T14:30:23Z</time></trkpt><trkpt lat="43.78526684712976" lon="12.301776686175678"><ele>997.25</ele><time>2026-05-01T14:30:24.001Z</time></trkpt><trkpt lat="43.78533336278469" lon="12.301655785398141"><ele>1000.5</ele><time>2026-05-01T14:30:25.001Z</time></trkpt><trkpt lat="43.785384321117974" lon="12.301513405219776"><ele>1003.75</ele><time>2026-05-01T14:30:26.001Z</time></trkpt><trkpt lat="43.785420000030115" lon="12.301348042527843"><ele>1007.0</ele><time>2026-05-01T14:30:27.001Z</time></trkpt><trkpt lat="43.78545049108465" lon="12.301184183936492"><ele>1007.5</ele><time>2026-05-01T14:30:28.001Z</time></trkpt><trkpt lat="43.78545577781068" lon="12.301016195166557"><ele>1008.0</ele><time>2026-05-01T14:30:29.001Z</time></trkpt><trkpt lat="43.78544556057338" lon="12.300851673367296"><ele>1008.5</ele><time>2026-05-01T14:30:30.001Z</time></trkpt><trkpt lat="43.78541235428356" lon="12.300681876596457"><ele>1009.0</ele><time>2026-05-01T14:30:31.001Z</time></trkpt><trkpt lat="43.78537171992687" lon="12.300514158481633"><ele>1009.8000000000001</ele><time>2026-05-01T14:30:32.001Z</time></trkpt><trkpt lat="43.785347043749354" lon="12.300363508536009"><ele>1010.6000000000001</ele><time>2026-05-01T14:30:33.001Z</time></trkpt><trkpt lat="43.78533947814501" lon="12.300241458755005"><ele>1011.4</ele><time>2026-05-01T14:30:34.001Z</time></trkpt><trkpt lat="43.78532968952394" lon="12.300139666032551"><ele>1012.2</ele><time>2026-05-01T14:30:35.001Z</time></trkpt><trkpt lat="43.78533209264286" lon="12.300051529629053"><ele>1013.0</ele><time>2026-05-01T14:30:36.001Z</time></trkpt><trkpt lat="43.785354929434305" lon="12.299897892332115"><ele>1012.75</ele><time>2026-05-01T14:30:38.001Z</time></trkpt><trkpt lat="43.78537854804794" lon="12.299725146957492"><ele>1012.5</ele><time>2026-05-01T14:30:40.001Z</time></trkpt><trkpt lat="43.78541700125805" lon="12.29955697125878"><ele>1012.25</ele><time>2026-05-01T14:30:42.001Z</time></trkpt><trkpt lat="43.78545563842487" lon="12.29940050103258"><ele>1012.0</ele><time>2026-05-01T14:30:44.001Z</time></trkpt><trkpt lat="43.7855037056988" lon="12.299279765031033"><ele>1012.0</ele><time>2026-05-01T14:30:46.001Z</time></trkpt><trkpt lat="43.78554593146718" lon="12.299183003043748"><ele>1012.0</ele><time>2026-05-01T14:30:48.001Z</time></trkpt><trkpt lat="43.78559566241552" lon="12.299082584201175"><ele>1012.0</ele><time>2026-05-01T14:30:50.001Z</time></trkpt><trkpt lat="43.78563904379065" lon="12.298994034008341"><ele>1012.0</ele><time>2026-05-01T14:30:52.001Z</time></trkpt><trkpt lat="43.78570123819105" lon="12.298885483619777"><ele>1012.0</ele><time>2026-05-01T14:30:54.001Z</time></trkpt><trkpt lat="43.78575589799274" lon="12.298761514079061"><ele>1012.6</ele><time>2026-05-01T14:30:56.001Z</time></trkpt><trkpt lat="43.78581275309858" lon="12.298646138610042"><ele>1013.2</ele><time>2026-05-01T14:30:58.001Z</time></trkpt><trkpt lat="43.785877699333184" lon="12.298539437327097"><ele>1013.8</ele><time>2026-05-01T14:31:00.001Z</time></trkpt><trkpt lat="43.785945569752634" lon="12.298424940723644"><ele>1014.4</ele><time>2026-05-01T14:31:02.001Z</time></trkpt><trkpt lat="43.786011778076606" lon="12.29830357918833"><ele>1015.0</ele><time>2026-05-01T14:31:04.001Z</time></trkpt><trkpt lat="43.78607473119716" lon="12.29819381647979"><ele>1014.9999999999999</ele><time>2026-05-01T14:31:06.001Z</time></trkpt><trkpt lat="43.786139941771445" lon="12.298094950251796"><ele>1015.0</ele><time>2026-05-01T14:31:08.001Z</time></trkpt><trkpt lat="43.786207511843116" lon="12.298012580907704"><ele>1015.0</ele><time>2026-05-01T14:31:10.001Z</time></trkpt><trkpt lat="43.7862510926956" lon="12.297945898770758"><ele>1015.0</ele><time>2026-05-01T14:31:12.001Z</time></trkpt><trkpt lat="43.786291344851975" lon="12.297857941672786"><ele>1014.9999999999999</ele><time>2026-05-01T14:31:16Z</time></trkpt><trkpt lat="43.786217085749456" lon="12.297786834040458"><ele>1015.0</ele><time>2026-05-01T14:31:20Z</time></trkpt><trkpt lat="43.78615431024088" lon="12.297833025567089"><ele>1013.8333333333333</ele><time>2026-05-01T14:31:22Z</time></trkpt><trkpt lat="43.78608596542575" lon="12.297872583600226"><ele>1012.6666666666666</ele><time>2026-05-01T14:31:24Z</time></trkpt><trkpt lat="43.78602686630736" lon="12.29794027677527"><ele>1011.5</ele><time>2026-05-01T14:31:26Z</time></trkpt><trkpt lat="43.78596319938125" lon="12.298016806607635"><ele>1010.3333333333333</ele><time>2026-05-01T14:31:28Z</time></trkpt><trkpt lat="43.78590398272553" lon="12.298097447951815"><ele>1009.1666666666666</ele><time>2026-05-01T14:31:30Z</time></trkpt><trkpt lat="43.78585195414336" lon="12.298181206567499"><ele>1008.0</ele><time>2026-05-01T14:31:32Z</time></trkpt><trkpt lat="43.785806449448444" lon="12.298277206533614"><ele>1008.0</ele><time>2026-05-01T14:31:34Z</time></trkpt><trkpt lat="43.78580363338219" lon="12.29838945541077"><ele>1008.0</ele><time>2026-05-01T14:31:36Z</time></trkpt><trkpt lat="43.78578267994931" lon="12.298498629000493"><ele>1008.0</ele><time>2026-05-01T14:31:38Z</time></trkpt><trkpt lat="43.78578951126819" lon="12.298587465089668"><ele>1008.0</ele><time>2026-05-01T14:31:40Z</time></trkpt><trkpt lat="43.7857585394259" lon="12.298694370893402"><ele>1008.0</ele><time>2026-05-01T14:31:43Z</time></trkpt><trkpt lat="43.78572152165891" lon="12.29878887572771"><ele>1008.0</ele><time>2026-05-01T14:31:45Z</time></trkpt><trkpt lat="43.785664231179695" lon="12.298890466623158"><ele>1008.5714285714286</ele><time>2026-05-01T14:31:48Z</time></trkpt><trkpt lat="43.78561705289628" lon="12.298948354887182"><ele>1009.1428571428571</ele><time>2026-05-01T14:31:53Z</time></trkpt><trkpt lat="43.7855693400958" lon="12.299037583730483"><ele>1009.7142857142858</ele><time>2026-05-01T14:32:30.001Z</time></trkpt><trkpt lat="43.785531252584555" lon="12.299151723236585"><ele>1010.2857142857143</ele><time>2026-05-01T14:32:33.001Z</time></trkpt><trkpt lat="43.78548888120808" lon="12.299216755250876"><ele>1010.8571428571429</ele><time>2026-05-01T14:32:38.001Z</time></trkpt><trkpt lat="43.78552192825128" lon="12.29913929858515"><ele>1011.4285714285716</ele><time>2026-05-01T14:32:49.001Z</time></trkpt><trkpt lat="43.78558004976109" lon="12.299056067780146"><ele>1012.0000000000001</ele><time>2026-05-01T14:33:00.001Z</time></trkpt><trkpt lat="43.78562105634579" lon="12.298968453986557"><ele>1011.2</ele><time>2026-05-01T14:33:02.001Z</time></trkpt><trkpt lat="43.785666274879055" lon="12.298875306711832"><ele>1010.4000000000001</ele><time>2026-05-01T14:33:04.001Z</time></trkpt><trkpt lat="43.78570961637686" lon="12.298789311648537"><ele>1009.5999999999999</ele><time>2026-05-01T14:33:06.001Z</time></trkpt><trkpt lat="43.7857631766627" lon="12.29868540266438"><ele>1008.8</ele><time>2026-05-01T14:33:08.001Z</time></trkpt><trkpt lat="43.785820327917044" lon="12.298574868823723"><ele>1008.0</ele><time>2026-05-01T14:33:10.001Z</time></trkpt><trkpt lat="43.78588302924267" lon="12.298453600943555"><ele>1008.0</ele><time>2026-05-01T14:33:12.001Z</time></trkpt><trkpt lat="43.78592056984615" lon="12.298380997438933"><ele>1008.0</ele><time>2026-05-01T14:33:13.001Z</time></trkpt><trkpt lat="43.78599555208388" lon="12.29823598230537"><ele>1008.0</ele><time>2026-05-01T14:33:15.001Z</time></trkpt><trkpt lat="43.786032777068414" lon="12.298163989287838"><ele>1008.0</ele><time>2026-05-01T14:33:16.001Z</time></trkpt><trkpt lat="43.78586548506656" lon="12.298603607621056"><ele>1004.0</ele><time>2026-05-01T14:33:17.001Z</time></trkpt><trkpt lat="43.78624875405403" lon="12.297957481230805"><ele>1004.0</ele><time>2026-05-01T14:33:18.001Z</time></trkpt><trkpt lat="43.78634868247806" lon="12.297875772356994"><ele>1004.0</ele><time>2026-05-01T14:33:19.001Z</time></trkpt><trkpt lat="43.786460056280696" lon="12.297800687136666"><ele>1004.0</ele><time>2026-05-01T14:33:20.001Z</time></trkpt><trkpt lat="43.78656847582379" lon="12.297723297513445"><ele>1004.0</ele><time>2026-05-01T14:33:21.001Z</time></trkpt><trkpt lat="43.78668653543185" lon="12.297625836471694"><ele>1004.0</ele><time>2026-05-01T14:33:22Z</time></trkpt><trkpt lat="43.786794705631" lon="12.297503032291573"><ele>1004.0</ele><time>2026-05-01T14:33:23Z</time></trkpt><trkpt lat="43.78689735933173" lon="12.29738266547521"><ele>1004.0</ele><time>2026-05-01T14:33:24Z</time></trkpt><trkpt lat="43.78700039279166" lon="12.29725304077146"><ele>1004.0</ele><time>2026-05-01T14:33:25Z</time></trkpt><trkpt lat="43.78711059361501" lon="12.297100390054975"><ele>1004.0</ele><time>2026-05-01T14:33:26Z</time></trkpt><trkpt lat="43.78722398286106" lon="12.296946281125559"><ele>1004.0</ele><time>2026-05-01T14:33:27Z</time></trkpt><trkpt lat="43.78733842463225" lon="12.296791723187825"><ele>1004.0</ele><time>2026-05-01T14:33:28Z</time></trkpt><trkpt lat="43.787439857200056" lon="12.296636902889542"><ele>1004.0</ele><time>2026-05-01T14:33:29Z</time></trkpt><trkpt lat="43.78752235171767" lon="12.296514828591892"><ele>1004.0</ele><time>2026-05-01T14:33:30Z</time></trkpt><trkpt lat="43.78761785554717" lon="12.296402772346461"><ele>1004.0</ele><time>2026-05-01T14:33:31Z</time></trkpt><trkpt lat="43.78768616386872" lon="12.296262058365835"><ele>1004.0</ele><time>2026-05-01T14:33:32Z</time></trkpt><trkpt lat="43.78776528114559" lon="12.296151515288036"><ele>1003.0000000000001</ele><time>2026-05-01T14:33:33Z</time></trkpt><trkpt lat="43.78784546578112" lon="12.296085167833928"><ele>1002.0</ele><time>2026-05-01T14:33:34Z</time></trkpt><trkpt lat="43.78793266060405" lon="12.296059133868324"><ele>1001.0</ele><time>2026-05-01T14:33:35Z</time></trkpt><trkpt lat="43.788010181530076" lon="12.296064549570097"><ele>1000.0</ele><time>2026-05-01T14:33:36Z</time></trkpt><trkpt lat="43.788095255968315" lon="12.296103121997543"><ele>999.0000000000001</ele><time>2026-05-01T14:33:37Z</time></trkpt><trkpt lat="43.788174451042345" lon="12.29614236589871"><ele>998.0</ele><time>2026-05-01T14:33:38Z</time></trkpt><trkpt lat="43.788260537135514" lon="12.296175745627293"><ele>998.0</ele><time>2026-05-01T14:33:39Z</time></trkpt><trkpt lat="43.7883377508749" lon="12.296169374253"><ele>998.0</ele><time>2026-05-01T14:33:40Z</time></trkpt><trkpt lat="43.78841688875192" lon="12.296101248693496"><ele>998.0</ele><time>2026-05-01T14:33:41Z</time></trkpt><trkpt lat="43.788463286214494" lon="12.29598795739097"><ele>998.0</ele><time>2026-05-01T14:33:42Z</time></trkpt><trkpt lat="43.78848977312983" lon="12.295851032035712"><ele>998.0</ele><time>2026-05-01T14:33:43Z</time></trkpt><trkpt lat="43.78847713541407" lon="12.295698191488643"><ele>996.5999999999999</ele><time>2026-05-01T14:33:44Z</time></trkpt><trkpt lat="43.788455135537035" lon="12.295533881494256"><ele>995.1999999999999</ele><time>2026-05-01T14:33:45Z</time></trkpt><trkpt lat="43.788447795149" lon="12.295376328095811"><ele>993.8</ele><time>2026-05-01T14:33:46Z</time></trkpt><trkpt lat="43.788462016962455" lon="12.295237661677783"><ele>992.4</ele><time>2026-05-01T14:33:47Z</time></trkpt><trkpt lat="43.78850404196201" lon="12.295105308274655"><ele>991.0</ele><time>2026-05-01T14:33:48Z</time></trkpt><trkpt lat="43.78855155253789" lon="12.295007280373515"><ele>989.5999999999999</ele><time>2026-05-01T14:33:49Z</time></trkpt><trkpt lat="43.78862403081965" lon="12.294969646809873"><ele>988.1999999999999</ele><time>2026-05-01T14:33:50Z</time></trkpt><trkpt lat="43.788759451767035" lon="12.295035107264189"><ele>986.8000000000001</ele><time>2026-05-01T14:33:53Z</time></trkpt><trkpt lat="43.78880379534282" lon="12.29514979961923"><ele>985.4000000000001</ele><time>2026-05-01T14:33:54Z</time></trkpt><trkpt lat="43.78885559160742" lon="12.295306434135318"><ele>984.0</ele><time>2026-05-01T14:33:55Z</time></trkpt><trkpt lat="43.78889548681077" lon="12.295476790022978"><ele>985.0</ele><time>2026-05-01T14:33:56Z</time></trkpt><trkpt lat="43.78892222990222" lon="12.29565205727117"><ele>986.0</ele><time>2026-05-01T14:33:57Z</time></trkpt><trkpt lat="43.78894864569127" lon="12.295836530976315"><ele>987.0</ele><time>2026-05-01T14:33:58Z</time></trkpt><trkpt lat="43.78898253579163" lon="12.29605518890114"><ele>988.0</ele><time>2026-05-01T14:33:59Z</time></trkpt><trkpt lat="43.78901800838676" lon="12.29621719180595"><ele>988.0</ele><time>2026-05-01T14:34:00Z</time></trkpt><trkpt lat="43.78906283591987" lon="12.296354618288543"><ele>988.0</ele><time>2026-05-01T14:34:01Z</time></trkpt><trkpt lat="43.78914622813024" lon="12.296450149595861"><ele>988.0</ele><time>2026-05-01T14:34:02Z</time></trkpt><trkpt lat="43.789239111595705" lon="12.29651349510653"><ele>988.0</ele><time>2026-05-01T14:34:03Z</time></trkpt><trkpt lat="43.78935049037039" lon="12.296532199938753"><ele>988.0</ele><time>2026-05-01T14:34:04Z</time></trkpt><trkpt lat="43.78947012092929" lon="12.296508485354417"><ele>987.0</ele><time>2026-05-01T14:34:05Z</time></trkpt><trkpt lat="43.78958669489908" lon="12.296494573450309"><ele>986.0</ele><time>2026-05-01T14:34:06Z</time></trkpt><trkpt lat="43.789732047405835" lon="12.296507980908258"><ele>985.0</ele><time>2026-05-01T14:34:07Z</time></trkpt><trkpt lat="43.78986840225532" lon="12.29655688227013"><ele>984.0</ele><time>2026-05-01T14:34:08Z</time></trkpt><trkpt lat="43.790002034553936" lon="12.29663241612368"><ele>984.0</ele><time>2026-05-01T14:34:09Z</time></trkpt><trkpt lat="43.79013803432434" lon="12.296709978538841"><ele>984.0</ele><time>2026-05-01T14:34:10Z</time></trkpt><trkpt lat="43.790279589812066" lon="12.296790569121262"><ele>984.0</ele><time>2026-05-01T14:34:11Z</time></trkpt><trkpt lat="43.790428857799085" lon="12.296867631123801"><ele>980.3333333333333</ele><time>2026-05-01T14:34:12Z</time></trkpt><trkpt lat="43.790601866824424" lon="12.296930555187842"><ele>976.6666666666666</ele><time>2026-05-01T14:34:13Z</time></trkpt><trkpt lat="43.79078364295803" lon="12.29698498567931"><ele>973.0</ele><time>2026-05-01T14:34:14Z</time></trkpt><trkpt lat="43.790961044221774" lon="12.297028610283453"><ele>970.0</ele><time>2026-05-01T14:34:15Z</time></trkpt><trkpt lat="43.79112821233586" lon="12.29707511397087"><ele>967.0</ele><time>2026-05-01T14:34:16Z</time></trkpt><trkpt lat="43.791275166854156" lon="12.29712021136576"><ele>964.0</ele><time>2026-05-01T14:34:17Z</time></trkpt><trkpt lat="43.79142642135224" lon="12.297228508705604"><ele>968.6666666666666</ele><time>2026-05-01T14:34:18Z</time></trkpt><trkpt lat="43.79157025309564" lon="12.29735187156953"><ele>973.3333333333333</ele><time>2026-05-01T14:34:19Z</time></trkpt><trkpt lat="43.791680031551685" lon="12.29751315462558"><ele>978.0</ele><time>2026-05-01T14:34:20Z</time></trkpt><trkpt lat="43.791777277264494" lon="12.297656749927247"><ele>975.75</ele><time>2026-05-01T14:34:21Z</time></trkpt><trkpt lat="43.79188279902148" lon="12.297737475052083"><ele>973.5</ele><time>2026-05-01T14:34:22Z</time></trkpt><trkpt lat="43.79200281015114" lon="12.297832597807478"><ele>971.25</ele><time>2026-05-01T14:34:23Z</time></trkpt><trkpt lat="43.79214603519506" lon="12.29788553708042"><ele>969.0</ele><time>2026-05-01T14:34:24Z</time></trkpt><trkpt lat="43.79229675724824" lon="12.29787291876391"><ele>969.0</ele><time>2026-05-01T14:34:25Z</time></trkpt><trkpt lat="43.792461823904645" lon="12.297881458315414"><ele>969.0</ele><time>2026-05-01T14:34:26Z</time></trkpt><trkpt lat="43.792634088673424" lon="12.297856358905264"><ele>969.0</ele><time>2026-05-01T14:34:27Z</time></trkpt><trkpt lat="43.7927949623686" lon="12.29776766151085"><ele>971.0</ele><time>2026-05-01T14:34:28Z</time></trkpt><trkpt lat="43.792950328609145" lon="12.297663599655593"><ele>973.0</ele><time>2026-05-01T14:34:29Z</time></trkpt><trkpt lat="43.79308934996355" lon="12.29753477598446"><ele>975.0</ele><time>2026-05-01T14:34:30Z</time></trkpt><trkpt lat="43.793198104772316" lon="12.297375407404962"><ele>970.3333333333333</ele><time>2026-05-01T14:34:31Z</time></trkpt><trkpt lat="43.79326890725294" lon="12.297201724553323"><ele>965.6666666666666</ele><time>2026-05-01T14:34:32Z</time></trkpt><trkpt lat="43.793297575229694" lon="12.297006451591908"><ele>961.0</ele><time>2026-05-01T14:34:33Z</time></trkpt><trkpt lat="43.79333479638367" lon="12.296758146176357"><ele>961.0</ele><time>2026-05-01T14:34:34Z</time></trkpt><trkpt lat="43.793385355027546" lon="12.296533101774875"><ele>961.0</ele><time>2026-05-01T14:34:35Z</time></trkpt><trkpt lat="43.793443771167205" lon="12.296313865944395"><ele>961.0</ele><time>2026-05-01T14:34:36Z</time></trkpt><trkpt lat="43.79355080527635" lon="12.296142727699918"><ele>960.0</ele><time>2026-05-01T14:34:37Z</time></trkpt><trkpt lat="43.793670263849826" lon="12.295959709480183"><ele>959.0</ele><time>2026-05-01T14:34:38Z</time></trkpt><trkpt lat="43.79378793991291" lon="12.29575606787309"><ele>958.0</ele><time>2026-05-01T14:34:39Z</time></trkpt><trkpt lat="43.79390864329263" lon="12.295589056580434"><ele>954.75</ele><time>2026-05-01T14:34:40Z</time></trkpt><trkpt lat="43.79403268613601" lon="12.295489001290397"><ele>951.5</ele><time>2026-05-01T14:34:41Z</time></trkpt><trkpt lat="43.79413727594298" lon="12.295439144958404"><ele>948.25</ele><time>2026-05-01T14:34:42Z</time></trkpt><trkpt lat="43.794253925401094" lon="12.295455682405564"><ele>945.0</ele><time>2026-05-01T14:34:43Z</time></trkpt><trkpt lat="43.79439505958862" lon="12.29548594318717"><ele>942.75</ele><time>2026-05-01T14:34:44Z</time></trkpt><trkpt lat="43.79455514390343" lon="12.295509386881808"><ele>940.5</ele><time>2026-05-01T14:34:45Z</time></trkpt><trkpt lat="43.79469061171756" lon="12.295481975652256"><ele>938.25</ele><time>2026-05-01T14:34:46.001Z</time></trkpt><trkpt lat="43.79481947052917" lon="12.295444562751031"><ele>936.0</ele><time>2026-05-01T14:34:47.001Z</time></trkpt><trkpt lat="43.79494244354767" lon="12.295341489572621"><ele>936.0</ele><time>2026-05-01T14:34:48.001Z</time></trkpt><trkpt lat="43.79505333062254" lon="12.295211236432912"><ele>936.0</ele><time>2026-05-01T14:34:49.001Z</time></trkpt><trkpt lat="43.795148544706656" lon="12.2951071363025"><ele>936.0</ele><time>2026-05-01T14:34:50.001Z</time></trkpt><trkpt lat="43.79523344130737" lon="12.295023726766853"><ele>936.0</ele><time>2026-05-01T14:34:51.001Z</time></trkpt><trkpt lat="43.79531482082683" lon="12.29495987518438"><ele>934.5999999999999</ele><time>2026-05-01T14:34:52.001Z</time></trkpt><trkpt lat="43.79538130544063" lon="12.294929663270777"><ele>933.1999999999999</ele><time>2026-05-01T14:34:53.001Z</time></trkpt><trkpt lat="43.79545777823507" lon="12.29492526190123"><ele>931.8000000000001</ele><time>2026-05-01T14:34:54.001Z</time></trkpt><trkpt lat="43.795527063588246" lon="12.295021864956821"><ele>930.4000000000001</ele><time>2026-05-01T14:34:55.001Z</time></trkpt><trkpt lat="43.79560625247207" lon="12.295110280263296"><ele>929.0</ele><time>2026-05-01T14:34:56.001Z</time></trkpt><trkpt lat="43.795708681812634" lon="12.295149541885767"><ele>929.0</ele><time>2026-05-01T14:34:57.001Z</time></trkpt><trkpt lat="43.795824618381246" lon="12.29520851367222"><ele>929.0000000000001</ele><time>2026-05-01T14:34:58.001Z</time></trkpt><trkpt lat="43.79592423575489" lon="12.295214951549704"><ele>929.0000000000001</ele><time>2026-05-01T14:34:59.001Z</time></trkpt><trkpt lat="43.79600291075646" lon="12.29523590524349"><ele>929.0</ele><time>2026-05-01T14:35:00.001Z</time></trkpt><trkpt lat="43.79607451389225" lon="12.295303260174538"><ele>929.0</ele><time>2026-05-01T14:35:01.001Z</time></trkpt><trkpt lat="43.79613768400182" lon="12.29540300626974"><ele>927.75</ele><time>2026-05-01T14:35:02.001Z</time></trkpt><trkpt lat="43.79613311342065" lon="12.295560756363903"><ele>926.5</ele><time>2026-05-01T14:35:03.001Z</time></trkpt><trkpt lat="43.796160782554466" lon="12.295710310287467"><ele>925.25</ele><time>2026-05-01T14:35:04.001Z</time></trkpt><trkpt lat="43.796202456238746" lon="12.295862445237475"><ele>924.0</ele><time>2026-05-01T14:35:05.001Z</time></trkpt><trkpt lat="43.796284886936554" lon="12.295999032434993"><ele>924.0</ele><time>2026-05-01T14:35:06.001Z</time></trkpt><trkpt lat="43.79636879165267" lon="12.296132721571558"><ele>924.0</ele><time>2026-05-01T14:35:07.001Z</time></trkpt><trkpt lat="43.79643785741915" lon="12.296271900924122"><ele>924.0</ele><time>2026-05-01T14:35:08.001Z</time></trkpt><trkpt lat="43.79651456955846" lon="12.296408230308089"><ele>924.0</ele><time>2026-05-01T14:35:09.001Z</time></trkpt><trkpt lat="43.796578510775404" lon="12.296532866173466"><ele>924.6</ele><time>2026-05-01T14:35:10.001Z</time></trkpt><trkpt lat="43.7966513835353" lon="12.296620421861325"><ele>925.2</ele><time>2026-05-01T14:35:11.001Z</time></trkpt><trkpt lat="43.7967443434141" lon="12.296685910500134"><ele>925.8000000000001</ele><time>2026-05-01T14:35:12.001Z</time></trkpt><trkpt lat="43.79686859759388" lon="12.296659533545114"><ele>926.4000000000001</ele><time>2026-05-01T14:35:13.001Z</time></trkpt><trkpt lat="43.79698865284642" lon="12.296649461557267"><ele>927.0</ele><time>2026-05-01T14:35:14.001Z</time></trkpt><trkpt lat="43.79709869006733" lon="12.2966918870061"><ele>927.0</ele><time>2026-05-01T14:35:15.001Z</time></trkpt><trkpt lat="43.79719803586521" lon="12.296801047276036"><ele>927.0</ele><time>2026-05-01T14:35:16.001Z</time></trkpt><trkpt lat="43.79730766529091" lon="12.296887484308295"><ele>927.0</ele><time>2026-05-01T14:35:17.001Z</time></trkpt><trkpt lat="43.79739475843309" lon="12.296981377544949"><ele>927.0</ele><time>2026-05-01T14:35:18.001Z</time></trkpt><trkpt lat="43.79747148862951" lon="12.297048680272871"><ele>927.0</ele><time>2026-05-01T14:35:19.001Z</time></trkpt><trkpt lat="43.797549118085946" lon="12.297052953115294"><ele>927.0</ele><time>2026-05-01T14:35:20.001Z</time></trkpt><trkpt lat="43.79765034776932" lon="12.296977321592268"><ele>927.0</ele><time>2026-05-01T14:35:21.001Z</time></trkpt><trkpt lat="43.79775810910121" lon="12.296868205391792"><ele>927.0</ele><time>2026-05-01T14:35:22.001Z</time></trkpt><trkpt lat="43.797872551492084" lon="12.296786744347827"><ele>928.25</ele><time>2026-05-01T14:35:23.001Z</time></trkpt><trkpt lat="43.79798255358017" lon="12.29676645814615"><ele>929.5</ele><time>2026-05-01T14:35:24.001Z</time></trkpt><trkpt lat="43.798098738393094" lon="12.296818150602995"><ele>930.75</ele><time>2026-05-01T14:35:25.001Z</time></trkpt><trkpt lat="43.79822896034464" lon="12.29688022112046"><ele>932.0</ele><time>2026-05-01T14:35:26.001Z</time></trkpt><trkpt lat="43.79834332418305" lon="12.296904848127031"><ele>932.0</ele><time>2026-05-01T14:35:27.001Z</time></trkpt><trkpt lat="43.79844159795444" lon="12.296907339373519"><ele>932.0</ele><time>2026-05-01T14:35:28Z</time></trkpt><trkpt lat="43.79853013171079" lon="12.296844589423516"><ele>932.0</ele><time>2026-05-01T14:35:29Z</time></trkpt><trkpt lat="43.798595214472776" lon="12.296713980139243"><ele>932.0</ele><time>2026-05-01T14:35:30Z</time></trkpt><trkpt lat="43.798645641160604" lon="12.296566527509851"><ele>932.0</ele><time>2026-05-01T14:35:31Z</time></trkpt><trkpt lat="43.79869151953176" lon="12.296395290881847"><ele>936.6666666666667</ele><time>2026-05-01T14:35:32Z</time></trkpt><trkpt lat="43.7987150501587" lon="12.296191154983358"><ele>941.3333333333333</ele><time>2026-05-01T14:35:33Z</time></trkpt><trkpt lat="43.798720170506925" lon="12.295977268954525"><ele>946.0</ele><time>2026-05-01T14:35:34Z</time></trkpt><trkpt lat="43.79870521451547" lon="12.295774596924609"><ele>942.75</ele><time>2026-05-01T14:35:35Z</time></trkpt><trkpt lat="43.79868483179181" lon="12.295572485138276"><ele>939.5</ele><time>2026-05-01T14:35:36Z</time></trkpt><trkpt lat="43.798639727576955" lon="12.29539887226658"><ele>936.25</ele><time>2026-05-01T14:35:37Z</time></trkpt><trkpt lat="43.79859545818979" lon="12.295271125732475"><ele>933.0</ele><time>2026-05-01T14:35:38Z</time></trkpt><trkpt lat="43.798574227830734" lon="12.2951374152327"><ele>933.0</ele><time>2026-05-01T14:35:39Z</time></trkpt><trkpt lat="43.79859199409739" lon="12.29501368823884"><ele>933.0</ele><time>2026-05-01T14:35:40Z</time></trkpt><trkpt lat="43.79868846813044" lon="12.294902030417965"><ele>933.0</ele><time>2026-05-01T14:35:41Z</time></trkpt><trkpt lat="43.798790826113624" lon="12.294761961480772"><ele>933.0</ele><time>2026-05-01T14:35:42Z</time></trkpt><trkpt lat="43.7988914463965" lon="12.29462175760222"><ele>929.5</ele><time>2026-05-01T14:35:43Z</time></trkpt><trkpt lat="43.7989634683359" lon="12.294492970074488"><ele>926.0</ele><time>2026-05-01T14:35:44Z</time></trkpt><trkpt lat="43.79899895493778" lon="12.29432184463678"><ele>922.5</ele><time>2026-05-01T14:35:45Z</time></trkpt><trkpt lat="43.79901238313073" lon="12.294089322134578"><ele>919.0</ele><time>2026-05-01T14:35:46Z</time></trkpt><trkpt lat="43.799049348507964" lon="12.293859606037627"><ele>918.5</ele><time>2026-05-01T14:35:47Z</time></trkpt><trkpt lat="43.79908044917901" lon="12.293662020408732"><ele>918.0</ele><time>2026-05-01T14:35:48Z</time></trkpt><trkpt lat="43.79905986944323" lon="12.293490814400139"><ele>917.5</ele><time>2026-05-01T14:35:49Z</time></trkpt><trkpt lat="43.79902171447016" lon="12.29332898430555"><ele>917.0</ele><time>2026-05-01T14:35:50Z</time></trkpt><trkpt lat="43.79890729806231" lon="12.293208173266576"><ele>917.25</ele><time>2026-05-01T14:35:51Z</time></trkpt><trkpt lat="43.798809452064354" lon="12.293071953976261"><ele>917.5</ele><time>2026-05-01T14:35:52Z</time></trkpt><trkpt lat="43.798773419408406" lon="12.29288238830096"><ele>917.75</ele><time>2026-05-01T14:35:53Z</time></trkpt><trkpt lat="43.798749817628355" lon="12.292680411244973"><ele>918.0</ele><time>2026-05-01T14:35:54Z</time></trkpt><trkpt lat="43.798770805174" lon="12.292480555534485"><ele>918.0</ele><time>2026-05-01T14:35:55Z</time></trkpt><trkpt lat="43.79880000082715" lon="12.292293955995422"><ele>918.0</ele><time>2026-05-01T14:35:56Z</time></trkpt><trkpt lat="43.798813159174024" lon="12.292129852568376"><ele>918.0</ele><time>2026-05-01T14:35:57Z</time></trkpt><trkpt lat="43.798828433743594" lon="12.292032552831033"><ele>918.0</ele><time>2026-05-01T14:35:58Z</time></trkpt><trkpt lat="43.798773226864725" lon="12.29190003699867"><ele>918.0</ele><time>2026-05-01T14:36:00Z</time></trkpt><trkpt lat="43.79869700347655" lon="12.291876117842458"><ele>916.25</ele><time>2026-05-01T14:36:01Z</time></trkpt><trkpt lat="43.798602802164986" lon="12.291955907181727"><ele>914.5</ele><time>2026-05-01T14:36:02Z</time></trkpt><trkpt lat="43.79855849154741" lon="12.292101654940101"><ele>912.75</ele><time>2026-05-01T14:36:03Z</time></trkpt><trkpt lat="43.7985124831131" lon="12.292251861524862"><ele>911.0</ele><time>2026-05-01T14:36:04Z</time></trkpt><trkpt lat="43.79844510816021" lon="12.292407275901699"><ele>906.25</ele><time>2026-05-01T14:36:05Z</time></trkpt><trkpt lat="43.79832577550292" lon="12.292529865262035"><ele>901.5</ele><time>2026-05-01T14:36:06Z</time></trkpt><trkpt lat="43.79822449638195" lon="12.292647850953912"><ele>896.75</ele><time>2026-05-01T14:36:07Z</time></trkpt><trkpt lat="43.79814052478738" lon="12.292724526129867"><ele>892.0</ele><time>2026-05-01T14:36:08Z</time></trkpt><trkpt lat="43.798041208429844" lon="12.292787268796397"><ele>892.0</ele><time>2026-05-01T14:36:10Z</time></trkpt><trkpt lat="43.797953528859416" lon="12.292716698381621"><ele>892.0</ele><time>2026-05-01T14:36:12Z</time></trkpt><trkpt lat="43.797932471004" lon="12.29261241574021"><ele>892.0</ele><time>2026-05-01T14:36:13Z</time></trkpt><trkpt lat="43.79795087670039" lon="12.2925137136463"><ele>892.0</ele><time>2026-05-01T14:36:14Z</time></trkpt><trkpt lat="43.798022744518505" lon="12.292425166143424"><ele>892.0</ele><time>2026-05-01T14:36:15Z</time></trkpt><trkpt lat="43.79809234934985" lon="12.292289189182991"><ele>891.25</ele><time>2026-05-01T14:36:16Z</time></trkpt><trkpt lat="43.79817640476047" lon="12.292170714535716"><ele>890.5</ele><time>2026-05-01T14:36:17Z</time></trkpt><trkpt lat="43.798250284081334" lon="12.292030506366787"><ele>889.75</ele><time>2026-05-01T14:36:18Z</time></trkpt><trkpt lat="43.798278213988326" lon="12.291861303615688"><ele>889.0</ele><time>2026-05-01T14:36:19Z</time></trkpt><trkpt lat="43.7982808086299" lon="12.29167619379234"><ele>889.0</ele><time>2026-05-01T14:36:20Z</time></trkpt><trkpt lat="43.79826040631559" lon="12.291464225848271"><ele>889.0</ele><time>2026-05-01T14:36:21Z</time></trkpt><trkpt lat="43.79822563662285" lon="12.291252037504284"><ele>889.0</ele><time>2026-05-01T14:36:22Z</time></trkpt><trkpt lat="43.79818725812755" lon="12.291060952685402"><ele>887.6</ele><time>2026-05-01T14:36:23Z</time></trkpt><trkpt lat="43.798127634952635" lon="12.290900025038171"><ele>886.2</ele><time>2026-05-01T14:36:24Z</time></trkpt><trkpt lat="43.79807043408452" lon="12.290769303017544"><ele>884.8000000000001</ele><time>2026-05-01T14:36:25Z</time></trkpt><trkpt lat="43.798071964460746" lon="12.290651675306357"><ele>883.4000000000001</ele><time>2026-05-01T14:36:26Z</time></trkpt><trkpt lat="43.79808433202737" lon="12.290540522562027"><ele>882.0</ele><time>2026-05-01T14:36:27Z</time></trkpt><trkpt lat="43.79816371527795" lon="12.290442206636833"><ele>878.5</ele><time>2026-05-01T14:36:28Z</time></trkpt><trkpt lat="43.79827694268666" lon="12.290375327510692"><ele>875.0</ele><time>2026-05-01T14:36:29Z</time></trkpt><trkpt lat="43.79838838498888" lon="12.290314051222197"><ele>871.5</ele><time>2026-05-01T14:36:30Z</time></trkpt><trkpt lat="43.7984580697811" lon="12.290197793531663"><ele>868.0</ele><time>2026-05-01T14:36:31Z</time></trkpt><trkpt lat="43.79849914393948" lon="12.290036986479823"><ele>864.75</ele><time>2026-05-01T14:36:32Z</time></trkpt><trkpt lat="43.798509141918345" lon="12.289829361138294"><ele>861.5</ele><time>2026-05-01T14:36:33Z</time></trkpt><trkpt lat="43.798500527408436" lon="12.289606885855193"><ele>858.25</ele><time>2026-05-01T14:36:34Z</time></trkpt><trkpt lat="43.79848191559458" lon="12.289425315542674"><ele>855.0</ele><time>2026-05-01T14:36:35Z</time></trkpt><trkpt lat="43.798493520773675" lon="12.289269764912397"><ele>857.5</ele><time>2026-05-01T14:36:36Z</time></trkpt><trkpt lat="43.798528039838395" lon="12.28912839780761"><ele>860.0</ele><time>2026-05-01T14:36:37Z</time></trkpt><trkpt lat="43.79861550496461" lon="12.289000127304234"><ele>862.5</ele><time>2026-05-01T14:36:38Z</time></trkpt><trkpt lat="43.79872400329012" lon="12.288890021109099"><ele>865.0</ele><time>2026-05-01T14:36:39Z</time></trkpt><trkpt lat="43.79881700384478" lon="12.28877384577586"><ele>865.0</ele><time>2026-05-01T14:36:40Z</time></trkpt><trkpt lat="43.79887205322816" lon="12.288638086976917"><ele>865.0</ele><time>2026-05-01T14:36:41Z</time></trkpt><trkpt lat="43.798879444116054" lon="12.288460241784254"><ele>865.0</ele><time>2026-05-01T14:36:42Z</time></trkpt><trkpt lat="43.79885043188073" lon="12.288268594087292"><ele>865.0</ele><time>2026-05-01T14:36:43Z</time></trkpt><trkpt lat="43.79883289780714" lon="12.288079102624245"><ele>860.4999999999999</ele><time>2026-05-01T14:36:44Z</time></trkpt><trkpt lat="43.798824029610216" lon="12.287918555538406"><ele>856.0</ele><time>2026-05-01T14:36:45Z</time></trkpt><trkpt lat="43.79882609006869" lon="12.287788933461577"><ele>851.5</ele><time>2026-05-01T14:36:46Z</time></trkpt><trkpt lat="43.79882552116684" lon="12.287689778384797"><ele>847.0</ele><time>2026-05-01T14:36:47Z</time></trkpt><trkpt lat="43.798871711802384" lon="12.28761687747559"><ele>842.4999999999999</ele><time>2026-05-01T14:36:48Z</time></trkpt><trkpt lat="43.7989526259636" lon="12.287581440869486"><ele>838.0</ele><time>2026-05-01T14:36:49Z</time></trkpt><trkpt lat="43.799060159216246" lon="12.287575284164516"><ele>838.0</ele><time>2026-05-01T14:36:50Z</time></trkpt><trkpt lat="43.79919052212081" lon="12.287586770832181"><ele>838.0</ele><time>2026-05-01T14:36:51Z</time></trkpt><trkpt lat="43.79932855823246" lon="12.28761062491216"><ele>838.0</ele><time>2026-05-01T14:36:52Z</time></trkpt><trkpt lat="43.79946043090356" lon="12.287681149616782"><ele>838.0</ele><time>2026-05-01T14:36:53Z</time></trkpt><trkpt lat="43.79959755468264" lon="12.287730036039314"><ele>835.75</ele><time>2026-05-01T14:36:54Z</time></trkpt><trkpt lat="43.799734020621884" lon="12.287792990678883"><ele>833.5</ele><time>2026-05-01T14:36:55Z</time></trkpt><trkpt lat="43.79988034201357" lon="12.287848571358346"><ele>831.25</ele><time>2026-05-01T14:36:56Z</time></trkpt><trkpt lat="43.80002340787121" lon="12.28786906602135"><ele>829.0</ele><time>2026-05-01T14:36:57Z</time></trkpt><trkpt lat="43.800173491822456" lon="12.287865012435551"><ele>824.75</ele><time>2026-05-01T14:36:58Z</time></trkpt><trkpt lat="43.80031767435895" lon="12.287845655641668"><ele>820.5</ele><time>2026-05-01T14:36:59Z</time></trkpt><trkpt lat="43.80045169883589" lon="12.287837268307563"><ele>816.25</ele><time>2026-05-01T14:37:00.001Z</time></trkpt><trkpt lat="43.80057603799256" lon="12.287849097583557"><ele>812.0</ele><time>2026-05-01T14:37:01.001Z</time></trkpt><trkpt lat="43.80069003738751" lon="12.287900574460972"><ele>812.0</ele><time>2026-05-01T14:37:02.001Z</time></trkpt><trkpt lat="43.800802961609854" lon="12.287928512305188"><ele>812.0</ele><time>2026-05-01T14:37:03.001Z</time></trkpt><trkpt lat="43.800907056268144" lon="12.28790520427872"><ele>812.0</ele><time>2026-05-01T14:37:04.001Z</time></trkpt><trkpt lat="43.801012714495116" lon="12.28785177627857"><ele>812.0</ele><time>2026-05-01T14:37:05.001Z</time></trkpt><trkpt lat="43.80109569296065" lon="12.287783852533508"><ele>812.0</ele><time>2026-05-01T14:37:06.001Z</time></trkpt><trkpt lat="43.801168413836194" lon="12.28775069979572"><ele>813.0</ele><time>2026-05-01T14:37:07.001Z</time></trkpt><trkpt lat="43.8012463623243" lon="12.287775056148002"><ele>814.0</ele><time>2026-05-01T14:37:08.001Z</time></trkpt><trkpt lat="43.80129575178345" lon="12.287881994621449"><ele>815.0</ele><time>2026-05-01T14:37:09.001Z</time></trkpt><trkpt lat="43.80131830186853" lon="12.288004406874482"><ele>816.0</ele><time>2026-05-01T14:37:10.001Z</time></trkpt><trkpt lat="43.80135483892134" lon="12.288153946734717"><ele>817.0</ele><time>2026-05-01T14:37:11.001Z</time></trkpt><trkpt lat="43.801388994534705" lon="12.288311605058752"><ele>817.0</ele><time>2026-05-01T14:37:12.001Z</time></trkpt><trkpt lat="43.80144055937606" lon="12.288467161667441"><ele>817.0</ele><time>2026-05-01T14:37:13.001Z</time></trkpt><trkpt lat="43.80148344081472" lon="12.288600029632711"><ele>817.0</ele><time>2026-05-01T14:37:14.001Z</time></trkpt><trkpt lat="43.801545293984546" lon="12.288713346689041"><ele>817.0</ele><time>2026-05-01T14:37:15.001Z</time></trkpt><trkpt lat="43.8016334446116" lon="12.288818937270493"><ele>817.0</ele><time>2026-05-01T14:37:16.001Z</time></trkpt><trkpt lat="43.80173528594505" lon="12.288914234293504"><ele>818.2</ele><time>2026-05-01T14:37:17.001Z</time></trkpt><trkpt lat="43.801825746424775" lon="12.288967635438006"><ele>819.4000000000001</ele><time>2026-05-01T14:37:18.001Z</time></trkpt><trkpt lat="43.80192880682148" lon="12.288996062729236"><ele>820.5999999999999</ele><time>2026-05-01T14:37:19.001Z</time></trkpt><trkpt lat="43.80203357460404" lon="12.288951583916381"><ele>821.8</ele><time>2026-05-01T14:37:20.001Z</time></trkpt><trkpt lat="43.802133157571305" lon="12.288885279615302"><ele>823.0</ele><time>2026-05-01T14:37:21.001Z</time></trkpt><trkpt lat="43.80222579047089" lon="12.288797930026663"><ele>818.4999999999999</ele><time>2026-05-01T14:37:22.001Z</time></trkpt><trkpt lat="43.80231426270327" lon="12.288710825253736"><ele>814.0</ele><time>2026-05-01T14:37:23.001Z</time></trkpt><trkpt lat="43.80236028794545" lon="12.288649494150796"><ele>809.5</ele><time>2026-05-01T14:37:24.001Z</time></trkpt><trkpt lat="43.80242798380153" lon="12.28863799440414"><ele>805.0</ele><time>2026-05-01T14:37:25.001Z</time></trkpt><trkpt lat="43.8025078330975" lon="12.288669602892032"><ele>800.4999999999999</ele><time>2026-05-01T14:37:26.001Z</time></trkpt><trkpt lat="43.8025729471041" lon="12.288761252465031"><ele>796.0</ele><time>2026-05-01T14:37:27.001Z</time></trkpt><trkpt lat="43.80263501948635" lon="12.28889914874719"><ele>795.5</ele><time>2026-05-01T14:37:28.001Z</time></trkpt><trkpt lat="43.80270888372107" lon="12.289037554518398"><ele>795.0</ele><time>2026-05-01T14:37:29.001Z</time></trkpt><trkpt lat="43.80279550852437" lon="12.28916269040765"><ele>794.5</ele><time>2026-05-01T14:37:30.001Z</time></trkpt><trkpt lat="43.80290921145934" lon="12.289253605380067"><ele>794.0</ele><time>2026-05-01T14:37:31.001Z</time></trkpt><trkpt lat="43.8030298455838" lon="12.2893273681136"><ele>794.0</ele><time>2026-05-01T14:37:32.001Z</time></trkpt><trkpt lat="43.80313771284841" lon="12.289423859699426"><ele>794.0</ele><time>2026-05-01T14:37:33.001Z</time></trkpt><trkpt lat="43.803205698213695" lon="12.289566510787523"><ele>794.0</ele><time>2026-05-01T14:37:34Z</time></trkpt><trkpt lat="43.80329489518872" lon="12.289705042406041"><ele>794.0</ele><time>2026-05-01T14:37:35Z</time></trkpt><trkpt lat="43.8033935479716" lon="12.28985382810049"><ele>791.6666666666667</ele><time>2026-05-01T14:37:36Z</time></trkpt><trkpt lat="43.803518189302736" lon="12.289970601179325"><ele>789.3333333333333</ele><time>2026-05-01T14:37:37Z</time></trkpt><trkpt lat="43.803668083861645" lon="12.290074400393584"><ele>787.0</ele><time>2026-05-01T14:37:38Z</time></trkpt><trkpt lat="43.80381714528027" lon="12.290169032253669"><ele>787.0</ele><time>2026-05-01T14:37:39Z</time></trkpt><trkpt lat="43.80396340526556" lon="12.29027231912127"><ele>787.0</ele><time>2026-05-01T14:37:40Z</time></trkpt><trkpt lat="43.80412163035948" lon="12.290350024504505"><ele>787.0</ele><time>2026-05-01T14:37:41Z</time></trkpt><trkpt lat="43.80428683544212" lon="12.290429944053281"><ele>785.3333333333333</ele><time>2026-05-01T14:37:42Z</time></trkpt><trkpt lat="43.80446057511042" lon="12.290487701384237"><ele>783.6666666666667</ele><time>2026-05-01T14:37:43Z</time></trkpt><trkpt lat="43.80463401417447" lon="12.290517933721613"><ele>782.0</ele><time>2026-05-01T14:37:44Z</time></trkpt><trkpt lat="43.80479762062484" lon="12.290536909382999"><ele>782.0</ele><time>2026-05-01T14:37:45Z</time></trkpt><trkpt lat="43.80493995057733" lon="12.290537987272167"><ele>782.0</ele><time>2026-05-01T14:37:46Z</time></trkpt><trkpt lat="43.80506833542337" lon="12.290524487664198"><ele>782.0</ele><time>2026-05-01T14:37:47Z</time></trkpt><trkpt lat="43.80517799737677" lon="12.290429594699317"><ele>782.0</ele><time>2026-05-01T14:37:48Z</time></trkpt><trkpt lat="43.80528215324857" lon="12.290309851210626"><ele>783.0</ele><time>2026-05-01T14:37:49Z</time></trkpt><trkpt lat="43.805364554519066" lon="12.29015736134892"><ele>784.0</ele><time>2026-05-01T14:37:50Z</time></trkpt><trkpt lat="43.80541210377351" lon="12.289992770517918"><ele>785.0</ele><time>2026-05-01T14:37:51Z</time></trkpt><trkpt lat="43.805443099594555" lon="12.289801601263655"><ele>786.0</ele><time>2026-05-01T14:37:52Z</time></trkpt><trkpt lat="43.805474897785906" lon="12.289598414902851"><ele>782.25</ele><time>2026-05-01T14:37:53Z</time></trkpt><trkpt lat="43.80551629215752" lon="12.289406062685813"><ele>778.5</ele><time>2026-05-01T14:37:54Z</time></trkpt><trkpt lat="43.80557205719073" lon="12.289256701790475"><ele>774.75</ele><time>2026-05-01T14:37:55Z</time></trkpt><trkpt lat="43.805655421622326" lon="12.28914402790933"><ele>771.0</ele><time>2026-05-01T14:37:56Z</time></trkpt><trkpt lat="43.805695094846506" lon="12.289051765262675"><ele>771.0</ele><time>2026-05-01T14:37:57Z</time></trkpt><trkpt lat="43.805787901401054" lon="12.289037051090753"><ele>771.0</ele><time>2026-05-01T14:37:58Z</time></trkpt><trkpt lat="43.805878384916284" lon="12.289110252362233"><ele>771.0</ele><time>2026-05-01T14:37:59Z</time></trkpt><trkpt lat="43.80594359004707" lon="12.289219027586572"><ele>771.0</ele><time>2026-05-01T14:38:00Z</time></trkpt><trkpt lat="43.8060113465571" lon="12.28935457247381"><ele>771.0</ele><time>2026-05-01T14:38:01Z</time></trkpt><trkpt lat="43.80608728096713" lon="12.289525282980943"><ele>772.1999999999999</ele><time>2026-05-01T14:38:02Z</time></trkpt><trkpt lat="43.80616266086851" lon="12.289644928386421"><ele>773.4</ele><time>2026-05-01T14:38:03Z</time></trkpt><trkpt lat="43.80622341109828" lon="12.289735204813248"><ele>774.6</ele><time>2026-05-01T14:38:04Z</time></trkpt><trkpt lat="43.80630040020372" lon="12.289777581064449"><ele>775.8</ele><time>2026-05-01T14:38:05Z</time></trkpt><trkpt lat="43.806384889212865" lon="12.289764514582808"><ele>777.0</ele><time>2026-05-01T14:38:06Z</time></trkpt><trkpt lat="43.806471942395376" lon="12.289676252312988"><ele>771.6666666666666</ele><time>2026-05-01T14:38:07Z</time></trkpt><trkpt lat="43.80658950460592" lon="12.289598921071557"><ele>766.3333333333333</ele><time>2026-05-01T14:38:08Z</time></trkpt><trkpt lat="43.80671975423817" lon="12.289477381338315"><ele>761.0</ele><time>2026-05-01T14:38:09Z</time></trkpt><trkpt lat="43.80685599607034" lon="12.28935144583147"><ele>760.5</ele><time>2026-05-01T14:38:10Z</time></trkpt><trkpt lat="43.80698449615193" lon="12.289239703054072"><ele>760.0</ele><time>2026-05-01T14:38:11Z</time></trkpt><trkpt lat="43.80710692708087" lon="12.289150646731297"><ele>759.5</ele><time>2026-05-01T14:38:12Z</time></trkpt><trkpt lat="43.80722802073294" lon="12.289153048727213"><ele>759.0</ele><time>2026-05-01T14:38:13Z</time></trkpt><trkpt lat="43.80735946868705" lon="12.2891551746018"><ele>759.0</ele><time>2026-05-01T14:38:14Z</time></trkpt><trkpt lat="43.80751112996036" lon="12.289167267239874"><ele>759.0</ele><time>2026-05-01T14:38:15Z</time></trkpt><trkpt lat="43.80766819020263" lon="12.289189097728249"><ele>759.0</ele><time>2026-05-01T14:38:16Z</time></trkpt><trkpt lat="43.807805635557536" lon="12.289223980781639"><ele>759.0</ele><time>2026-05-01T14:38:17Z</time></trkpt><trkpt lat="43.80796119645836" lon="12.289276696544865"><ele>757.0</ele><time>2026-05-01T14:38:18Z</time></trkpt><trkpt lat="43.808085985189706" lon="12.289340494578338"><ele>755.0</ele><time>2026-05-01T14:38:19Z</time></trkpt><trkpt lat="43.80822295771588" lon="12.28937093800942"><ele>753.0</ele><time>2026-05-01T14:38:20Z</time></trkpt><trkpt lat="43.80834500121194" lon="12.28936081578127"><ele>751.0</ele><time>2026-05-01T14:38:21Z</time></trkpt><trkpt lat="43.808458344104174" lon="12.289314519623828"><ele>747.75</ele><time>2026-05-01T14:38:22Z</time></trkpt><trkpt lat="43.80855252070176" lon="12.28922991488901"><ele>744.5</ele><time>2026-05-01T14:38:23Z</time></trkpt><trkpt lat="43.80861319912367" lon="12.289095784631428"><ele>741.25</ele><time>2026-05-01T14:38:24Z</time></trkpt><trkpt lat="43.80866375590156" lon="12.288927100313268"><ele>738.0</ele><time>2026-05-01T14:38:25Z</time></trkpt><trkpt lat="43.808707051378" lon="12.288738623158526"><ele>738.0</ele><time>2026-05-01T14:38:26Z</time></trkpt><trkpt lat="43.80876329437862" lon="12.288556405362527"><ele>738.0</ele><time>2026-05-01T14:38:27Z</time></trkpt><trkpt lat="43.80885389926572" lon="12.288419454424588"><ele>738.0</ele><time>2026-05-01T14:38:28Z</time></trkpt><trkpt lat="43.80895996602449" lon="12.288304929307936"><ele>738.0</ele><time>2026-05-01T14:38:29Z</time></trkpt><trkpt lat="43.80907228225823" lon="12.288177968877504"><ele>737.5</ele><time>2026-05-01T14:38:30Z</time></trkpt><trkpt lat="43.80918962754324" lon="12.288070854413684"><ele>737.0</ele><time>2026-05-01T14:38:31Z</time></trkpt><trkpt lat="43.809281787079556" lon="12.287953045232417"><ele>736.5</ele><time>2026-05-01T14:38:32Z</time></trkpt><trkpt lat="43.80934448878385" lon="12.287787401274503"><ele>736.0</ele><time>2026-05-01T14:38:33Z</time></trkpt><trkpt lat="43.80937862806085" lon="12.287601191385138"><ele>738.3333333333334</ele><time>2026-05-01T14:38:34Z</time></trkpt><trkpt lat="43.80941758238636" lon="12.287391560143723"><ele>740.6666666666666</ele><time>2026-05-01T14:38:35Z</time></trkpt><trkpt lat="43.809505946927736" lon="12.287202698261066"><ele>743.0</ele><time>2026-05-01T14:38:36Z</time></trkpt><trkpt lat="43.80958611265964" lon="12.287028896523266"><ele>743.0</ele><time>2026-05-01T14:38:37Z</time></trkpt><trkpt lat="43.80963938541008" lon="12.286859602874594"><ele>743.0</ele><time>2026-05-01T14:38:38Z</time></trkpt><trkpt lat="43.80967505805931" lon="12.286671324271055"><ele>743.0</ele><time>2026-05-01T14:38:39Z</time></trkpt><trkpt lat="43.80966963474171" lon="12.286460332610995"><ele>743.0</ele><time>2026-05-01T14:38:40Z</time></trkpt><trkpt lat="43.8096666745997" lon="12.286277718012435"><ele>741.5</ele><time>2026-05-01T14:38:41Z</time></trkpt><trkpt lat="43.809701393671865" lon="12.286124735489095"><ele>740.0</ele><time>2026-05-01T14:38:42Z</time></trkpt><trkpt lat="43.80976953510215" lon="12.285960117129015"><ele>738.5</ele><time>2026-05-01T14:38:43Z</time></trkpt><trkpt lat="43.80983933022675" lon="12.285786029811963"><ele>737.0</ele><time>2026-05-01T14:38:44Z</time></trkpt><trkpt lat="43.809899817039906" lon="12.285615485392416"><ele>735.6</ele><time>2026-05-01T14:38:45Z</time></trkpt><trkpt lat="43.80995326438077" lon="12.285479216638997"><ele>734.2</ele><time>2026-05-01T14:38:46Z</time></trkpt><trkpt lat="43.80999921172992" lon="12.28535844531585"><ele>732.8</ele><time>2026-05-01T14:38:47Z</time></trkpt><trkpt lat="43.81007788445557" lon="12.285269957653522"><ele>731.4</ele><time>2026-05-01T14:38:48Z</time></trkpt><trkpt lat="43.8101699599976" lon="12.28520711202248"><ele>730.0</ele><time>2026-05-01T14:38:49Z</time></trkpt><trkpt lat="43.810289204923315" lon="12.285114135128472"><ele>730.0</ele><time>2026-05-01T14:38:50Z</time></trkpt><trkpt lat="43.81042919457583" lon="12.285037656237071"><ele>730.0</ele><time>2026-05-01T14:38:51Z</time></trkpt><trkpt lat="43.81058091320991" lon="12.284947367140612"><ele>730.0</ele><time>2026-05-01T14:38:52Z</time></trkpt><trkpt lat="43.81073357158768" lon="12.284836389312659"><ele>726.6666666666667</ele><time>2026-05-01T14:38:53Z</time></trkpt><trkpt lat="43.81087111058681" lon="12.284686971066384"><ele>723.3333333333334</ele><time>2026-05-01T14:38:54Z</time></trkpt><trkpt lat="43.810997118770786" lon="12.284521323562206"><ele>720.0</ele><time>2026-05-01T14:38:55Z</time></trkpt><trkpt lat="43.8111325031875" lon="12.284366708694238"><ele>720.0</ele><time>2026-05-01T14:38:56Z</time></trkpt><trkpt lat="43.81126649358391" lon="12.284239068991448"><ele>720.0</ele><time>2026-05-01T14:38:57Z</time></trkpt><trkpt lat="43.811383468166554" lon="12.284089236999256"><ele>720.0</ele><time>2026-05-01T14:38:58Z</time></trkpt><trkpt lat="43.81149469470196" lon="12.283882469621005"><ele>715.3333333333334</ele><time>2026-05-01T14:38:59.001Z</time></trkpt><trkpt lat="43.8115748212369" lon="12.283676127491969"><ele>710.6666666666667</ele><time>2026-05-01T14:39:00.001Z</time></trkpt><trkpt lat="43.811662509268956" lon="12.283494777967267"><ele>706.0</ele><time>2026-05-01T14:39:01.001Z</time></trkpt><trkpt lat="43.81174553574896" lon="12.283282556536866"><ele>708.3333333333334</ele><time>2026-05-01T14:39:02.001Z</time></trkpt><trkpt lat="43.811803988196424" lon="12.283066010548946"><ele>710.6666666666666</ele><time>2026-05-01T14:39:03.001Z</time></trkpt><trkpt lat="43.81185891742662" lon="12.282864368560832"><ele>713.0</ele><time>2026-05-01T14:39:04.001Z</time></trkpt><trkpt lat="43.8119014729354" lon="12.282685566379376"><ele>713.0</ele><time>2026-05-01T14:39:05.001Z</time></trkpt><trkpt lat="43.81194667489829" lon="12.28254410633473"><ele>713.0</ele><time>2026-05-01T14:39:06.001Z</time></trkpt><trkpt lat="43.81203877697563" lon="12.28246127169608"><ele>713.0</ele><time>2026-05-01T14:39:07.001Z</time></trkpt><trkpt lat="43.812137467605204" lon="12.282378588686889"><ele>713.0</ele><time>2026-05-01T14:39:08.001Z</time></trkpt><trkpt lat="43.81225285178306" lon="12.282276203202278"><ele>709.25</ele><time>2026-05-01T14:39:09.001Z</time></trkpt><trkpt lat="43.812389590256466" lon="12.282209198813376"><ele>705.5</ele><time>2026-05-01T14:39:10.001Z</time></trkpt><trkpt lat="43.81251992863911" lon="12.282156803078415"><ele>701.75</ele><time>2026-05-01T14:39:11.001Z</time></trkpt><trkpt lat="43.812629656304814" lon="12.282082767371303"><ele>698.0</ele><time>2026-05-01T14:39:12.001Z</time></trkpt><trkpt lat="43.812736009490294" lon="12.28200103372276"><ele>698.0</ele><time>2026-05-01T14:39:13.001Z</time></trkpt><trkpt lat="43.812830063837744" lon="12.281903733345757"><ele>698.0</ele><time>2026-05-01T14:39:14.001Z</time></trkpt><trkpt lat="43.81291102498373" lon="12.281796628051437"><ele>698.0</ele><time>2026-05-01T14:39:15.001Z</time></trkpt><trkpt lat="43.81298747665565" lon="12.281701074122873"><ele>698.0</ele><time>2026-05-01T14:39:16.001Z</time></trkpt><trkpt lat="43.81306796658868" lon="12.281646161405687"><ele>698.0</ele><time>2026-05-01T14:39:17.001Z</time></trkpt><trkpt lat="43.81317857836908" lon="12.281633052455183"><ele>698.0</ele><time>2026-05-01T14:39:18.001Z</time></trkpt><trkpt lat="43.81329808794991" lon="12.281625365887214"><ele>698.0</ele><time>2026-05-01T14:39:19.001Z</time></trkpt><trkpt lat="43.81341254790851" lon="12.281600802655749"><ele>698.0</ele><time>2026-05-01T14:39:20.001Z</time></trkpt><trkpt lat="43.81353355165851" lon="12.281530570331565"><ele>698.0</ele><time>2026-05-01T14:39:21.001Z</time></trkpt><trkpt lat="43.81368845703962" lon="12.2814428247738"><ele>688.6666666666666</ele><time>2026-05-01T14:39:22.001Z</time></trkpt><trkpt lat="43.813871096749835" lon="12.281364851774601"><ele>679.3333333333334</ele><time>2026-05-01T14:39:23.001Z</time></trkpt><trkpt lat="43.814061788312735" lon="12.281291808972153"><ele>670.0</ele><time>2026-05-01T14:39:24.001Z</time></trkpt><trkpt lat="43.81424630398881" lon="12.281231520763459"><ele>669.25</ele><time>2026-05-01T14:39:25.001Z</time></trkpt><trkpt lat="43.814408468875" lon="12.281188804305927"><ele>668.5</ele><time>2026-05-01T14:39:26.001Z</time></trkpt><trkpt lat="43.814530497161144" lon="12.281140833518595"><ele>667.75</ele><time>2026-05-01T14:39:27.001Z</time></trkpt><trkpt lat="43.81461756938342" lon="12.281088232042892"><ele>667.0</ele><time>2026-05-01T14:39:28.001Z</time></trkpt><trkpt lat="43.81469677866438" lon="12.281070348502178"><ele>667.0</ele><time>2026-05-01T14:39:29.001Z</time></trkpt><trkpt lat="43.814764139616905" lon="12.281090349981579"><ele>667.0</ele><time>2026-05-01T14:39:30.001Z</time></trkpt><trkpt lat="43.81481710504274" lon="12.281174712456293"><ele>667.0</ele><time>2026-05-01T14:39:31.001Z</time></trkpt><trkpt lat="43.814864874695715" lon="12.281305915915311"><ele>667.0</ele><time>2026-05-01T14:39:32.001Z</time></trkpt><trkpt lat="43.81489119792205" lon="12.28146776585056"><ele>667.0</ele><time>2026-05-01T14:39:33.001Z</time></trkpt><trkpt lat="43.81490455732003" lon="12.28162134050351"><ele>667.0</ele><time>2026-05-01T14:39:34.001Z</time></trkpt><trkpt lat="43.81492195256279" lon="12.281709872712355"><ele>667.0</ele><time>2026-05-01T14:39:35.001Z</time></trkpt><trkpt lat="43.81501322162198" lon="12.281786812377488"><ele>667.0</ele><time>2026-05-01T14:39:37.001Z</time></trkpt><trkpt lat="43.81508042555343" lon="12.281758065062766"><ele>667.0</ele><time>2026-05-01T14:39:38.001Z</time></trkpt><trkpt lat="43.81512798291756" lon="12.281689419356457"><ele>667.0</ele><time>2026-05-01T14:39:39.001Z</time></trkpt><trkpt lat="43.815131924250245" lon="12.281518131924457"><ele>667.0</ele><time>2026-05-01T14:39:40Z</time></trkpt><trkpt lat="43.815128740097876" lon="12.281354571075573"><ele>667.0</ele><time>2026-05-01T14:39:41Z</time></trkpt><trkpt lat="43.81514530918864" lon="12.281157016493713"><ele>667.0</ele><time>2026-05-01T14:39:42Z</time></trkpt><trkpt lat="43.815151834369374" lon="12.280934205448627"><ele>667.0</ele><time>2026-05-01T14:39:43Z</time></trkpt><trkpt lat="43.81517045657049" lon="12.280750466089884"><ele>667.0</ele><time>2026-05-01T14:39:44Z</time></trkpt><trkpt lat="43.815212865313995" lon="12.280595266765571"><ele>664.0</ele><time>2026-05-01T14:39:45Z</time></trkpt><trkpt lat="43.8152793036024" lon="12.280476214511106"><ele>661.0</ele><time>2026-05-01T14:39:46Z</time></trkpt><trkpt lat="43.815338605810474" lon="12.280371029957605"><ele>658.0</ele><time>2026-05-01T14:39:47Z</time></trkpt><trkpt lat="43.81543116676488" lon="12.280341534374577"><ele>655.0</ele><time>2026-05-01T14:39:48Z</time></trkpt><trkpt lat="43.81554666143517" lon="12.28034917501149"><ele>652.0</ele><time>2026-05-01T14:39:49Z</time></trkpt><trkpt lat="43.81566802226262" lon="12.280402962993998"><ele>652.0</ele><time>2026-05-01T14:39:50Z</time></trkpt><trkpt lat="43.81577394272873" lon="12.280487181481448"><ele>652.0</ele><time>2026-05-01T14:39:51Z</time></trkpt><trkpt lat="43.815861684620224" lon="12.28051696884266"><ele>652.0</ele><time>2026-05-01T14:39:52Z</time></trkpt><trkpt lat="43.81593636330759" lon="12.280489526680501"><ele>652.0</ele><time>2026-05-01T14:39:53Z</time></trkpt><trkpt lat="43.81600828227695" lon="12.280391233291185"><ele>652.0</ele><time>2026-05-01T14:39:54Z</time></trkpt><trkpt lat="43.816080750810166" lon="12.280230600739987"><ele>648.75</ele><time>2026-05-01T14:39:55Z</time></trkpt><trkpt lat="43.81615000260556" lon="12.280043749944179"><ele>645.5</ele><time>2026-05-01T14:39:56Z</time></trkpt><trkpt lat="43.8161923794355" lon="12.279861329824733"><ele>642.25</ele><time>2026-05-01T14:39:57Z</time></trkpt><trkpt lat="43.816219516280384" lon="12.279722877720008"><ele>639.0</ele><time>2026-05-01T14:39:58Z</time></trkpt><trkpt lat="43.81621793416038" lon="12.279613035120889"><ele>639.3333333333334</ele><time>2026-05-01T14:39:59Z</time></trkpt><trkpt lat="43.81618419241149" lon="12.279509052995303"><ele>639.6666666666666</ele><time>2026-05-01T14:40:00Z</time></trkpt><trkpt lat="43.8161335376544" lon="12.279431032010386"><ele>640.0</ele><time>2026-05-01T14:40:01Z</time></trkpt><trkpt lat="43.81607718922345" lon="12.27938212137185"><ele>640.3333333333333</ele><time>2026-05-01T14:40:02Z</time></trkpt><trkpt lat="43.81598850358573" lon="12.279383185085106"><ele>640.6666666666666</ele><time>2026-05-01T14:40:03Z</time></trkpt><trkpt lat="43.815888848832046" lon="12.279480906245192"><ele>641.0</ele><time>2026-05-01T14:40:04Z</time></trkpt><trkpt lat="43.81578615171084" lon="12.279495962533925"><ele>641.0</ele><time>2026-05-01T14:40:05Z</time></trkpt><trkpt lat="43.81568180596806" lon="12.27945449571607"><ele>641.0</ele><time>2026-05-01T14:40:06Z</time></trkpt><trkpt lat="43.81555075537714" lon="12.27940694344995"><ele>641.0</ele><time>2026-05-01T14:40:07Z</time></trkpt><trkpt lat="43.81542989823908" lon="12.279356748100874"><ele>641.0</ele><time>2026-05-01T14:40:08Z</time></trkpt><trkpt lat="43.815326597312605" lon="12.279304092236726"><ele>641.0</ele><time>2026-05-01T14:40:09Z</time></trkpt><trkpt lat="43.81526199739485" lon="12.279250542922917"><ele>641.0</ele><time>2026-05-01T14:40:10Z</time></trkpt><trkpt lat="43.815209956208726" lon="12.279184958192582"><ele>641.0</ele><time>2026-05-01T14:40:11Z</time></trkpt><trkpt lat="43.815206592469295" lon="12.279086978077936"><ele>641.0</ele><time>2026-05-01T14:40:12Z</time></trkpt><trkpt lat="43.815259027402234" lon="12.278985951949368"><ele>641.0</ele><time>2026-05-01T14:40:13Z</time></trkpt><trkpt lat="43.815333861077754" lon="12.278920605527807"><ele>641.0</ele><time>2026-05-01T14:40:14Z</time></trkpt><trkpt lat="43.81544882981034" lon="12.278890270688098"><ele>638.5999999999999</ele><time>2026-05-01T14:40:15Z</time></trkpt><trkpt lat="43.8155633846834" lon="12.27886345141653"><ele>636.1999999999999</ele><time>2026-05-01T14:40:16Z</time></trkpt><trkpt lat="43.81566998428864" lon="12.27880206365021"><ele>633.8</ele><time>2026-05-01T14:40:17Z</time></trkpt><trkpt lat="43.81575440589558" lon="12.278738094760358"><ele>631.4</ele><time>2026-05-01T14:40:18Z</time></trkpt><trkpt lat="43.81582482567696" lon="12.27865522889896"><ele>629.0</ele><time>2026-05-01T14:40:19Z</time></trkpt><trkpt lat="43.815885284811216" lon="12.27854568616062"><ele>629.0</ele><time>2026-05-01T14:40:20Z</time></trkpt><trkpt lat="43.81595367775623" lon="12.278403693143499"><ele>629.0</ele><time>2026-05-01T14:40:21Z</time></trkpt><trkpt lat="43.81602481695824" lon="12.278271740629913"><ele>629.0</ele><time>2026-05-01T14:40:22Z</time></trkpt><trkpt lat="43.816102237938594" lon="12.278129583954984"><ele>629.0</ele><time>2026-05-01T14:40:23Z</time></trkpt><trkpt lat="43.81619002656643" lon="12.277970750653083"><ele>627.0</ele><time>2026-05-01T14:40:24Z</time></trkpt><trkpt lat="43.816277860903966" lon="12.277814517869412"><ele>625.0</ele><time>2026-05-01T14:40:25Z</time></trkpt><trkpt lat="43.81636112258664" lon="12.27766467498641"><ele>623.0</ele><time>2026-05-01T14:40:26Z</time></trkpt><trkpt lat="43.816459699622364" lon="12.277507670601743"><ele>621.0</ele><time>2026-05-01T14:40:27Z</time></trkpt><trkpt lat="43.816547767157466" lon="12.277352625803438"><ele>619.5</ele><time>2026-05-01T14:40:28Z</time></trkpt><trkpt lat="43.816635906910584" lon="12.277188061316714"><ele>618.0</ele><time>2026-05-01T14:40:29Z</time></trkpt><trkpt lat="43.81672897802294" lon="12.277028744588804"><ele>616.5</ele><time>2026-05-01T14:40:30Z</time></trkpt><trkpt lat="43.81683945099148" lon="12.276901461139378"><ele>615.0</ele><time>2026-05-01T14:40:31Z</time></trkpt><trkpt lat="43.81691604504971" lon="12.276736699712918"><ele>614.75</ele><time>2026-05-01T14:40:32Z</time></trkpt><trkpt lat="43.81701077895869" lon="12.27662522992034"><ele>614.5</ele><time>2026-05-01T14:40:33Z</time></trkpt><trkpt lat="43.817116397380836" lon="12.27650734125664"><ele>614.25</ele><time>2026-05-01T14:40:34Z</time></trkpt><trkpt lat="43.81722375924236" lon="12.276378262690192"><ele>614.0</ele><time>2026-05-01T14:40:35Z</time></trkpt><trkpt lat="43.81733920699952" lon="12.276236052636452"><ele>613.3333333333333</ele><time>2026-05-01T14:40:36Z</time></trkpt><trkpt lat="43.8174621424751" lon="12.276085129178238"><ele>612.6666666666666</ele><time>2026-05-01T14:40:37Z</time></trkpt><trkpt lat="43.81758136664092" lon="12.275935368843928"><ele>612.0</ele><time>2026-05-01T14:40:38Z</time></trkpt><trkpt lat="43.81770599759955" lon="12.275776256812359"><ele>612.0</ele><time>2026-05-01T14:40:39Z</time></trkpt><trkpt lat="43.81782760565586" lon="12.275613296056301"><ele>612.0</ele><time>2026-05-01T14:40:40Z</time></trkpt><trkpt lat="43.81794574129736" lon="12.275460609720144"><ele>612.0</ele><time>2026-05-01T14:40:41Z</time></trkpt><trkpt lat="43.81805673961759" lon="12.275320662203818"><ele>611.0</ele><time>2026-05-01T14:40:42Z</time></trkpt><trkpt lat="43.818163013496005" lon="12.275186475872077"><ele>610.0</ele><time>2026-05-01T14:40:43Z</time></trkpt><trkpt lat="43.81826491127499" lon="12.275060248389432"><ele>609.0</ele><time>2026-05-01T14:40:44Z</time></trkpt><trkpt lat="43.81835965841382" lon="12.274933218941742"><ele>608.0</ele><time>2026-05-01T14:40:45Z</time></trkpt><trkpt lat="43.818459811091124" lon="12.27480899672474"><ele>606.75</ele><time>2026-05-01T14:40:46Z</time></trkpt><trkpt lat="43.818506501520766" lon="12.274651170570605"><ele>605.5</ele><time>2026-05-01T14:40:47Z</time></trkpt><trkpt lat="43.81851902643541" lon="12.274464179305792"><ele>604.25</ele><time>2026-05-01T14:40:48Z</time></trkpt><trkpt lat="43.81850268233553" lon="12.274256904809716"><ele>603.0</ele><time>2026-05-01T14:40:49Z</time></trkpt><trkpt lat="43.81847978778692" lon="12.27404909428082"><ele>606.3333333333334</ele><time>2026-05-01T14:40:50Z</time></trkpt><trkpt lat="43.818487335926285" lon="12.273812007993534"><ele>609.6666666666667</ele><time>2026-05-01T14:40:51.001Z</time></trkpt><trkpt lat="43.81850408852501" lon="12.273609379314804"><ele>613.0</ele><time>2026-05-01T14:40:52.001Z</time></trkpt><trkpt lat="43.81855264343075" lon="12.27340998022126"><ele>613.0</ele><time>2026-05-01T14:40:53.001Z</time></trkpt><trkpt lat="43.81860336851171" lon="12.273196919020279"><ele>613.0</ele><time>2026-05-01T14:40:54.001Z</time></trkpt><trkpt lat="43.81865749934533" lon="12.272991119084205"><ele>613.0</ele><time>2026-05-01T14:40:55.001Z</time></trkpt><trkpt lat="43.81870447606555" lon="12.272776351073157"><ele>611.25</ele><time>2026-05-01T14:40:56.001Z</time></trkpt><trkpt lat="43.81874364041883" lon="12.2725638712362"><ele>609.5</ele><time>2026-05-01T14:40:57.001Z</time></trkpt><trkpt lat="43.81877883908152" lon="12.272362015808698"><ele>607.75</ele><time>2026-05-01T14:40:58.001Z</time></trkpt><trkpt lat="43.81880847192041" lon="12.272176408932385"><ele>606.0</ele><time>2026-05-01T14:40:59.001Z</time></trkpt><trkpt lat="43.818808466929106" lon="12.271980009747875"><ele>604.5</ele><time>2026-05-01T14:41:00.001Z</time></trkpt><trkpt lat="43.818783224074146" lon="12.271781879424697"><ele>603.0</ele><time>2026-05-01T14:41:01.001Z</time></trkpt><trkpt lat="43.81874198916374" lon="12.271594455889899"><ele>601.5</ele><time>2026-05-01T14:41:02.001Z</time></trkpt><trkpt lat="43.818698909151856" lon="12.271420500760419"><ele>600.0</ele><time>2026-05-01T14:41:03.001Z</time></trkpt><trkpt lat="43.81865710583024" lon="12.271257785616733"><ele>598.0</ele><time>2026-05-01T14:41:04.001Z</time></trkpt><trkpt lat="43.81862007181988" lon="12.271096187022286"><ele>596.0</ele><time>2026-05-01T14:41:05.001Z</time></trkpt><trkpt lat="43.81858309751161" lon="12.270942224316077"><ele>594.0</ele><time>2026-05-01T14:41:06.001Z</time></trkpt><trkpt lat="43.81854658170993" lon="12.270793752913923"><ele>592.0</ele><time>2026-05-01T14:41:07.001Z</time></trkpt><trkpt lat="43.81851076323926" lon="12.270647241255555"><ele>590.75</ele><time>2026-05-01T14:41:08.001Z</time></trkpt><trkpt lat="43.8184758188877" lon="12.270498527424236"><ele>589.5</ele><time>2026-05-01T14:41:09.001Z</time></trkpt><trkpt lat="43.81844407669844" lon="12.270345390789997"><ele>588.25</ele><time>2026-05-01T14:41:10.001Z</time></trkpt><trkpt lat="43.81840682233964" lon="12.270191798625364"><ele>587.0</ele><time>2026-05-01T14:41:11.001Z</time></trkpt><trkpt lat="43.81836922201438" lon="12.27003754953193"><ele>587.0</ele><time>2026-05-01T14:41:12.001Z</time></trkpt><trkpt lat="43.8183313899372" lon="12.269883518445427"><ele>587.0</ele><time>2026-05-01T14:41:13.001Z</time></trkpt><trkpt lat="43.81829408663201" lon="12.269748316837484"><ele>587.0</ele><time>2026-05-01T14:41:14.001Z</time></trkpt><trkpt lat="43.81825572721478" lon="12.269590299017057"><ele>587.0</ele><time>2026-05-01T14:41:15.001Z</time></trkpt><trkpt lat="43.81825532906814" lon="12.269450953541948"><ele>587.0</ele><time>2026-05-01T14:41:16.001Z</time></trkpt><trkpt lat="43.81821051478876" lon="12.269309233912555"><ele>586.8000000000001</ele><time>2026-05-01T14:41:17.001Z</time></trkpt><trkpt lat="43.818178141552316" lon="12.269166656028597"><ele>586.6</ele><time>2026-05-01T14:41:18.001Z</time></trkpt><trkpt lat="43.818146617015145" lon="12.26901779418506"><ele>586.4000000000001</ele><time>2026-05-01T14:41:19.001Z</time></trkpt><trkpt lat="43.81811963234636" lon="12.26887324937587"><ele>586.2</ele><time>2026-05-01T14:41:20.001Z</time></trkpt><trkpt lat="43.81809112398762" lon="12.268723224921608"><ele>586.0</ele><time>2026-05-01T14:41:21.001Z</time></trkpt><trkpt lat="43.8180646805509" lon="12.268574743470777"><ele>584.8</ele><time>2026-05-01T14:41:22.001Z</time></trkpt><trkpt lat="43.81804114729427" lon="12.268434831034844"><ele>583.6</ele><time>2026-05-01T14:41:23.001Z</time></trkpt><trkpt lat="43.818014315979305" lon="12.268308734113258"><ele>582.4</ele><time>2026-05-01T14:41:24.001Z</time></trkpt><trkpt lat="43.818032950061145" lon="12.268167517475588"><ele>581.2</ele><time>2026-05-01T14:41:25.001Z</time></trkpt><trkpt lat="43.81803657068664" lon="12.268038198094285"><ele>580.0</ele><time>2026-05-01T14:41:26.001Z</time></trkpt><trkpt lat="43.818038415350465" lon="12.267911135112216"><ele>579.0</ele><time>2026-05-01T14:41:27.001Z</time></trkpt><trkpt lat="43.81805700147232" lon="12.267787695310652"><ele>578.0</ele><time>2026-05-01T14:41:28.001Z</time></trkpt><trkpt lat="43.81807373331307" lon="12.267668901255707"><ele>577.0</ele><time>2026-05-01T14:41:29.001Z</time></trkpt><trkpt lat="43.81808415090803" lon="12.26756728813586"><ele>576.0</ele><time>2026-05-01T14:41:30.001Z</time></trkpt><trkpt lat="43.818103711096356" lon="12.26747831546899"><ele>575.0</ele><time>2026-05-01T14:41:31.001Z</time></trkpt><trkpt lat="43.818105365617" lon="12.267352371140046"><ele>574.0</ele><time>2026-05-01T14:41:33.001Z</time></trkpt><trkpt lat="43.81817711102873" lon="12.267262983535684"><ele>572.6666666666667</ele><time>2026-05-01T14:41:34.001Z</time></trkpt><trkpt lat="43.818247598102786" lon="12.267214626392487"><ele>571.3333333333334</ele><time>2026-05-01T14:41:35.001Z</time></trkpt><trkpt lat="43.81831447523129" lon="12.267169371739472"><ele>570.0</ele><time>2026-05-01T14:41:36.001Z</time></trkpt><trkpt lat="43.81837499696266" lon="12.267136774860388"><ele>568.6666666666666</ele><time>2026-05-01T14:41:37.001Z</time></trkpt><trkpt lat="43.81846717811545" lon="12.267054800774446"><ele>567.3333333333333</ele><time>2026-05-01T14:41:39.001Z</time></trkpt><trkpt lat="43.81852486986037" lon="12.26700754452171"><ele>566.0</ele><time>2026-05-01T14:41:41.001Z</time></trkpt><trkpt lat="43.81841790390901" lon="12.266869530140472"><ele>566.0</ele><time>2026-05-01T14:41:44.001Z</time></trkpt><trkpt lat="43.81832710385627" lon="12.266824022681844"><ele>566.0</ele><time>2026-05-01T14:41:46Z</time></trkpt><trkpt lat="43.81821773485155" lon="12.266742753352721"><ele>566.0</ele><time>2026-05-01T14:41:48Z</time></trkpt><trkpt lat="43.81815554433546" lon="12.266680125181184"><ele>566.0</ele><time>2026-05-01T14:41:49Z</time></trkpt><trkpt lat="43.81809875618316" lon="12.266627053629673"><ele>566.0</ele><time>2026-05-01T14:41:50Z</time></trkpt><trkpt lat="43.81802478906836" lon="12.266519290379945"><ele>566.4</ele><time>2026-05-01T14:41:52Z</time></trkpt><trkpt lat="43.817952712564896" lon="12.26643502304411"><ele>566.8</ele><time>2026-05-01T14:41:54Z</time></trkpt><trkpt lat="43.817865418637474" lon="12.2663627309639"><ele>567.1999999999999</ele><time>2026-05-01T14:41:56Z</time></trkpt><trkpt lat="43.81779680450292" lon="12.266260507296607"><ele>567.6</ele><time>2026-05-01T14:41:58Z</time></trkpt><trkpt lat="43.817723640981846" lon="12.26621137934312"><ele>568.0</ele><time>2026-05-01T14:42:01Z</time></trkpt><trkpt lat="43.81764761955655" lon="12.266173058004533"><ele>568.0</ele><time>2026-05-01T14:42:03Z</time></trkpt><trkpt lat="43.81757939862304" lon="12.266145090555348"><ele>568.0</ele><time>2026-05-01T14:42:05Z</time></trkpt><trkpt lat="43.817562659809184" lon="12.26605218777361"><ele>568.0</ele><time>2026-05-01T14:42:06Z</time></trkpt><trkpt lat="43.81751661410198" lon="12.265947177183707"><ele>568.0</ele><time>2026-05-01T14:42:10Z</time></trkpt><trkpt lat="43.817477079028514" lon="12.265843491780107"><ele>568.0</ele><time>2026-05-01T14:42:12Z</time></trkpt><trkpt lat="43.81743573651363" lon="12.265732281682183"><ele>568.0</ele><time>2026-05-01T14:42:14Z</time></trkpt><trkpt lat="43.81740039565202" lon="12.265644073627314"><ele>566.5</ele><time>2026-05-01T14:42:16Z</time></trkpt><trkpt lat="43.81735435301558" lon="12.265555937767875"><ele>565.0</ele><time>2026-05-01T14:42:18Z</time></trkpt><trkpt lat="43.81733291439112" lon="12.265461642637248"><ele>563.5</ele><time>2026-05-01T14:42:20Z</time></trkpt><trkpt lat="43.817284130212066" lon="12.265377512590327"><ele>562.0</ele><time>2026-05-01T14:42:23Z</time></trkpt><trkpt lat="43.817234198781634" lon="12.265287714237296"><ele>560.5</ele><time>2026-05-01T14:42:25Z</time></trkpt><trkpt lat="43.817187951244996" lon="12.265220201670754"><ele>559.0</ele><time>2026-05-01T14:42:27Z</time></trkpt><trkpt lat="43.81710960422893" lon="12.265170787302887"><ele>559.0</ele><time>2026-05-01T14:42:30Z</time></trkpt><trkpt lat="43.817062207216196" lon="12.265108562414644"><ele>559.0</ele><time>2026-05-01T14:42:43Z</time></trkpt><trkpt lat="43.817004971500275" lon="12.265047411190658"><ele>559.0</ele><time>2026-05-01T14:42:46Z</time></trkpt><trkpt lat="43.816988079614966" lon="12.26515756164191"><ele>559.0</ele><time>2026-05-01T14:42:49Z</time></trkpt><trkpt lat="43.81707274112856" lon="12.265150624514156"><ele>559.0</ele><time>2026-05-01T14:42:54.001Z</time></trkpt><trkpt lat="43.81714163027922" lon="12.265089461390957"><ele>559.0</ele><time>2026-05-01T14:42:57.001Z</time></trkpt><trkpt lat="43.817232779101076" lon="12.265028090697157"><ele>559.0</ele><time>2026-05-01T14:43:00.001Z</time></trkpt><trkpt lat="43.81731002168781" lon="12.265005590381012"><ele>559.0</ele><time>2026-05-01T14:43:02.001Z</time></trkpt><trkpt lat="43.81739174448938" lon="12.264981165547333"><ele>559.0</ele><time>2026-05-01T14:43:04.001Z</time></trkpt><trkpt lat="43.81746769354272" lon="12.264946840410584"><ele>559.0</ele><time>2026-05-01T14:43:06.001Z</time></trkpt><trkpt lat="43.817539139415" lon="12.264928208495332"><ele>559.0</ele><time>2026-05-01T14:43:08.001Z</time></trkpt><trkpt lat="43.81760518622554" lon="12.264921047786958"><ele>559.0</ele><time>2026-05-01T14:43:17.001Z</time></trkpt><trkpt lat="43.81763538522401" lon="12.264730724897374"><ele>558.6666666666667</ele><time>2026-05-01T14:43:21.001Z</time></trkpt><trkpt lat="43.81761105465232" lon="12.264649637961757"><ele>558.3333333333334</ele><time>2026-05-01T14:43:22.001Z</time></trkpt><trkpt lat="43.81759986442926" lon="12.264487650740145"><ele>558.0</ele><time>2026-05-01T14:43:24.001Z</time></trkpt><trkpt lat="43.81757729567692" lon="12.26440017938906"><ele>557.6666666666666</ele><time>2026-05-01T14:43:25.001Z</time></trkpt><trkpt lat="43.8175722566358" lon="12.264302336127956"><ele>557.3333333333333</ele><time>2026-05-01T14:43:26.001Z</time></trkpt><trkpt lat="43.81757235206644" lon="12.264202586799902"><ele>557.0</ele><time>2026-05-01T14:43:27.001Z</time></trkpt><trkpt lat="43.81757872952864" lon="12.264093430700227"><ele>557.0</ele><time>2026-05-01T14:43:28.001Z</time></trkpt><trkpt lat="43.81758367808224" lon="12.26398722797383"><ele>557.0</ele><time>2026-05-01T14:43:29.001Z</time></trkpt><trkpt lat="43.8175991222397" lon="12.263880171029049"><ele>557.0</ele><time>2026-05-01T14:43:30.001Z</time></trkpt><trkpt lat="43.81763286995572" lon="12.26377135862744"><ele>557.0</ele><time>2026-05-01T14:43:31.001Z</time></trkpt><trkpt lat="43.81766915574987" lon="12.26365000861478"><ele>557.0</ele><time>2026-05-01T14:43:32.001Z</time></trkpt><trkpt lat="43.81770171091699" lon="12.263523475780623"><ele>557.0</ele><time>2026-05-01T14:43:33.001Z</time></trkpt><trkpt lat="43.81773242809475" lon="12.263402198624808"><ele>552.8000000000001</ele><time>2026-05-01T14:43:34.001Z</time></trkpt><trkpt lat="43.81775892337284" lon="12.263270153602882"><ele>548.6</ele><time>2026-05-01T14:43:35.001Z</time></trkpt><trkpt lat="43.81776995187113" lon="12.263124962543424"><ele>544.4000000000001</ele><time>2026-05-01T14:43:36.001Z</time></trkpt><trkpt lat="43.817758554243795" lon="12.262973206802998"><ele>540.2</ele><time>2026-05-01T14:43:37.001Z</time></trkpt><trkpt lat="43.81773813812923" lon="12.262812861071897"><ele>536.0</ele><time>2026-05-01T14:43:38.001Z</time></trkpt><trkpt lat="43.817706270944846" lon="12.262661544659926"><ele>535.75</ele><time>2026-05-01T14:43:39.001Z</time></trkpt><trkpt lat="43.817678244716696" lon="12.262497859029539"><ele>535.5</ele><time>2026-05-01T14:43:40.001Z</time></trkpt><trkpt lat="43.81764242241543" lon="12.262337846550261"><ele>535.25</ele><time>2026-05-01T14:43:41.001Z</time></trkpt><trkpt lat="43.817614263133656" lon="12.262180788215066"><ele>535.0</ele><time>2026-05-01T14:43:42.001Z</time></trkpt><trkpt lat="43.81757585927315" lon="12.262040641286225"><ele>535.0</ele><time>2026-05-01T14:43:43.001Z</time></trkpt><trkpt lat="43.817525358842886" lon="12.261913123996992"><ele>535.0</ele><time>2026-05-01T14:43:44.001Z</time></trkpt><trkpt lat="43.81747890579833" lon="12.261782922532975"><ele>535.0</ele><time>2026-05-01T14:43:45.001Z</time></trkpt><trkpt lat="43.8173952605" lon="12.261676919984616"><ele>535.0</ele><time>2026-05-01T14:43:46.001Z</time></trkpt><trkpt lat="43.81731121096261" lon="12.26157009281138"><ele>535.0</ele><time>2026-05-01T14:43:47.001Z</time></trkpt><trkpt lat="43.81721530918876" lon="12.261475733237631"><ele>531.0</ele><time>2026-05-01T14:43:48.001Z</time></trkpt><trkpt lat="43.8171141541626" lon="12.261380343303724"><ele>527.0</ele><time>2026-05-01T14:43:49.001Z</time></trkpt><trkpt lat="43.81701619296261" lon="12.261301908942526"><ele>523.0</ele><time>2026-05-01T14:43:50.001Z</time></trkpt><trkpt lat="43.81691094045076" lon="12.261233624171393"><ele>519.0</ele><time>2026-05-01T14:43:51.001Z</time></trkpt><trkpt lat="43.816794820342366" lon="12.261190773310295"><ele>519.0</ele><time>2026-05-01T14:43:52Z</time></trkpt><trkpt lat="43.816669974000995" lon="12.261161006168829"><ele>519.0</ele><time>2026-05-01T14:43:53Z</time></trkpt><trkpt lat="43.81654072693162" lon="12.261132959798553"><ele>519.0</ele><time>2026-05-01T14:43:54Z</time></trkpt><trkpt lat="43.81640837884263" lon="12.261098768902468"><ele>519.0</ele><time>2026-05-01T14:43:55Z</time></trkpt><trkpt lat="43.81627262165286" lon="12.261067538462838"><ele>519.0</ele><time>2026-05-01T14:43:56Z</time></trkpt><trkpt lat="43.81614002621643" lon="12.261037528442184"><ele>519.0</ele><time>2026-05-01T14:43:57Z</time></trkpt><trkpt lat="43.816015273171836" lon="12.261018212397538"><ele>519.0</ele><time>2026-05-01T14:43:58Z</time></trkpt><trkpt lat="43.8158956451586" lon="12.260988806839942"><ele>519.0</ele><time>2026-05-01T14:43:59Z</time></trkpt><trkpt lat="43.81577377010394" lon="12.26102110058303"><ele>518.75</ele><time>2026-05-01T14:44:00Z</time></trkpt><trkpt lat="43.81566661186677" lon="12.261096381424611"><ele>518.5</ele><time>2026-05-01T14:44:01Z</time></trkpt><trkpt lat="43.8155603114192" lon="12.261173473751459"><ele>518.25</ele><time>2026-05-01T14:44:02Z</time></trkpt><trkpt lat="43.81545362861512" lon="12.261253567885166"><ele>518.0</ele><time>2026-05-01T14:44:03Z</time></trkpt><trkpt lat="43.815346049896725" lon="12.261349519953031"><ele>518.0</ele><time>2026-05-01T14:44:04Z</time></trkpt><trkpt lat="43.815239210454834" lon="12.261447553453726"><ele>518.0</ele><time>2026-05-01T14:44:05Z</time></trkpt><trkpt lat="43.815129293444535" lon="12.261538092632081"><ele>518.0</ele><time>2026-05-01T14:44:06Z</time></trkpt><trkpt lat="43.815021498703665" lon="12.261616748614832"><ele>518.0</ele><time>2026-05-01T14:44:07Z</time></trkpt><trkpt lat="43.814909733163255" lon="12.261679019301065"><ele>520.0</ele><time>2026-05-01T14:44:08Z</time></trkpt><trkpt lat="43.81478441818466" lon="12.261712669299564"><ele>522.0</ele><time>2026-05-01T14:44:09Z</time></trkpt><trkpt lat="43.814658574549405" lon="12.261753555174714"><ele>524.0</ele><time>2026-05-01T14:44:10Z</time></trkpt><trkpt lat="43.814538209830936" lon="12.261794255047041"><ele>526.0</ele><time>2026-05-01T14:44:11Z</time></trkpt><trkpt lat="43.81442817348397" lon="12.261830197735781"><ele>526.0</ele><time>2026-05-01T14:44:12Z</time></trkpt><trkpt lat="43.814334701243745" lon="12.261860729860423"><ele>526.0</ele><time>2026-05-01T14:44:13Z</time></trkpt><trkpt lat="43.814255289671614" lon="12.26187681396661"><ele>526.0</ele><time>2026-05-01T14:44:14Z</time></trkpt><trkpt lat="43.814186918856414" lon="12.261900523026823"><ele>526.0</ele><time>2026-05-01T14:44:15Z</time></trkpt><trkpt lat="43.814126328334865" lon="12.261847298394382"><ele>526.0</ele><time>2026-05-01T14:44:16Z</time></trkpt><trkpt lat="43.81408539259769" lon="12.261746917517057"><ele>526.0</ele><time>2026-05-01T14:44:17Z</time></trkpt><trkpt lat="43.81407844630909" lon="12.261629283276777"><ele>522.25</ele><time>2026-05-01T14:44:18Z</time></trkpt><trkpt lat="43.81411349567215" lon="12.261508538363922"><ele>518.5</ele><time>2026-05-01T14:44:19Z</time></trkpt><trkpt lat="43.81417131755221" lon="12.261379188081417"><ele>514.75</ele><time>2026-05-01T14:44:20Z</time></trkpt><trkpt lat="43.81425224458614" lon="12.261226830768015"><ele>511.0</ele><time>2026-05-01T14:44:21Z</time></trkpt><trkpt lat="43.81433243524511" lon="12.261059821104638"><ele>511.0</ele><time>2026-05-01T14:44:22Z</time></trkpt><trkpt lat="43.814420349836716" lon="12.260878772991108"><ele>511.0</ele><time>2026-05-01T14:44:23Z</time></trkpt><trkpt lat="43.814508598758906" lon="12.260690944509195"><ele>511.0</ele><time>2026-05-01T14:44:24Z</time></trkpt><trkpt lat="43.814590538282005" lon="12.260503366291893"><ele>508.25</ele><time>2026-05-01T14:44:25Z</time></trkpt><trkpt lat="43.814680092305544" lon="12.260343148138057"><ele>505.5</ele><time>2026-05-01T14:44:26Z</time></trkpt><trkpt lat="43.81478543758092" lon="12.260200429583076"><ele>502.75</ele><time>2026-05-01T14:44:27Z</time></trkpt><trkpt lat="43.81489399584536" lon="12.260069576926773"><ele>500.0</ele><time>2026-05-01T14:44:28Z</time></trkpt><trkpt lat="43.81500459445917" lon="12.259959317429795"><ele>500.0</ele><time>2026-05-01T14:44:29Z</time></trkpt><trkpt lat="43.815093423307935" lon="12.259843905258561"><ele>500.0</ele><time>2026-05-01T14:44:30Z</time></trkpt><trkpt lat="43.81516311231188" lon="12.259732785225603"><ele>500.0</ele><time>2026-05-01T14:44:31Z</time></trkpt><trkpt lat="43.81520861722479" lon="12.259616613335483"><ele>500.0</ele><time>2026-05-01T14:44:32Z</time></trkpt><trkpt lat="43.81523072357824" lon="12.25947754278594"><ele>500.0</ele><time>2026-05-01T14:44:33Z</time></trkpt><trkpt lat="43.815243858571996" lon="12.259334415374086"><ele>497.25</ele><time>2026-05-01T14:44:34Z</time></trkpt><trkpt lat="43.815230379805136" lon="12.25918493771472"><ele>494.5</ele><time>2026-05-01T14:44:35Z</time></trkpt><trkpt lat="43.81517574477254" lon="12.25905176218062"><ele>491.75</ele><time>2026-05-01T14:44:36Z</time></trkpt><trkpt lat="43.81508503281067" lon="12.258945712764431"><ele>489.0</ele><time>2026-05-01T14:44:37Z</time></trkpt><trkpt lat="43.814972385465225" lon="12.258861534284092"><ele>487.5</ele><time>2026-05-01T14:44:38Z</time></trkpt><trkpt lat="43.81486427072541" lon="12.258799455874584"><ele>486.0</ele><time>2026-05-01T14:44:39Z</time></trkpt><trkpt lat="43.81477583018543" lon="12.258736834399178"><ele>484.5</ele><time>2026-05-01T14:44:40Z</time></trkpt><trkpt lat="43.814706228382356" lon="12.25866965517054"><ele>483.0</ele><time>2026-05-01T14:44:41Z</time></trkpt><trkpt lat="43.81466818130194" lon="12.25859066693044"><ele>481.5</ele><time>2026-05-01T14:44:42Z</time></trkpt><trkpt lat="43.81466859883234" lon="12.25848876224686"><ele>480.0</ele><time>2026-05-01T14:44:43Z</time></trkpt><trkpt lat="43.814711557587216" lon="12.25840018877947"><ele>480.0</ele><time>2026-05-01T14:44:44Z</time></trkpt><trkpt lat="43.8147829412345" lon="12.25834154114261"><ele>480.0</ele><time>2026-05-01T14:44:45Z</time></trkpt><trkpt lat="43.814884383423795" lon="12.25832409559712"><ele>480.0</ele><time>2026-05-01T14:44:46Z</time></trkpt><trkpt lat="43.815006687740926" lon="12.258335645797256"><ele>480.0</ele><time>2026-05-01T14:44:47Z</time></trkpt><trkpt lat="43.81514479828289" lon="12.258341534384376"><ele>480.0</ele><time>2026-05-01T14:44:48Z</time></trkpt><trkpt lat="43.81530352528601" lon="12.25833442320777"><ele>479.25</ele><time>2026-05-01T14:44:49Z</time></trkpt><trkpt lat="43.815462167493685" lon="12.258342880690886"><ele>478.5</ele><time>2026-05-01T14:44:50Z</time></trkpt><trkpt lat="43.8156046710061" lon="12.258382526698169"><ele>477.75</ele><time>2026-05-01T14:44:51Z</time></trkpt><trkpt lat="43.81573836212549" lon="12.258430440204036"><ele>477.0</ele><time>2026-05-01T14:44:52Z</time></trkpt><trkpt lat="43.81585749384897" lon="12.25848178530426"><ele>477.0</ele><time>2026-05-01T14:44:53Z</time></trkpt><trkpt lat="43.815971402388705" lon="12.258522699835416"><ele>477.0</ele><time>2026-05-01T14:44:54Z</time></trkpt><trkpt lat="43.81613636836062" lon="12.25855602518931"><ele>477.0</ele><time>2026-05-01T14:44:55Z</time></trkpt><trkpt lat="43.81624820921634" lon="12.258531076455068"><ele>477.0</ele><time>2026-05-01T14:44:56Z</time></trkpt><trkpt lat="43.816359811401526" lon="12.258492701363807"><ele>476.5</ele><time>2026-05-01T14:44:57Z</time></trkpt><trkpt lat="43.816470968859136" lon="12.258430824139083"><ele>476.0</ele><time>2026-05-01T14:44:58Z</time></trkpt><trkpt lat="43.81658456979042" lon="12.25833265328677"><ele>475.5</ele><time>2026-05-01T14:44:59.001Z</time></trkpt><trkpt lat="43.81669983233691" lon="12.258217798531676"><ele>475.0</ele><time>2026-05-01T14:45:00.001Z</time></trkpt><trkpt lat="43.816813363488386" lon="12.258084474273454"><ele>475.0</ele><time>2026-05-01T14:45:01.001Z</time></trkpt><trkpt lat="43.816916818958006" lon="12.257927152863536"><ele>475.0</ele><time>2026-05-01T14:45:02.001Z</time></trkpt><trkpt lat="43.81699611754461" lon="12.257744777850032"><ele>475.0</ele><time>2026-05-01T14:45:03.001Z</time></trkpt><trkpt lat="43.81706787027876" lon="12.257553410344418"><ele>475.0</ele><time>2026-05-01T14:45:04.001Z</time></trkpt><trkpt lat="43.81712835847042" lon="12.2573783427742"><ele>475.0</ele><time>2026-05-01T14:45:05.001Z</time></trkpt><trkpt lat="43.817178346312765" lon="12.257210402060974"><ele>475.0</ele><time>2026-05-01T14:45:06.001Z</time></trkpt><trkpt lat="43.81721241035321" lon="12.257036523269313"><ele>475.0</ele><time>2026-05-01T14:45:07.001Z</time></trkpt><trkpt lat="43.81723010819267" lon="12.25687057979307"><ele>472.5</ele><time>2026-05-01T14:45:08.001Z</time></trkpt><trkpt lat="43.817262784590326" lon="12.256707561967763"><ele>470.0</ele><time>2026-05-01T14:45:09.001Z</time></trkpt><trkpt lat="43.81732096150685" lon="12.256540154458822"><ele>467.5</ele><time>2026-05-01T14:45:10.001Z</time></trkpt><trkpt lat="43.81739950751406" lon="12.256375704501488"><ele>465.0</ele><time>2026-05-01T14:45:11.001Z</time></trkpt><trkpt lat="43.817491547580346" lon="12.256231157182878"><ele>462.8</ele><time>2026-05-01T14:45:12.001Z</time></trkpt><trkpt lat="43.81756558855294" lon="12.25610637822633"><ele>460.6</ele><time>2026-05-01T14:45:13.001Z</time></trkpt><trkpt lat="43.81763751772985" lon="12.256038852489548"><ele>458.4</ele><time>2026-05-01T14:45:14.001Z</time></trkpt><trkpt lat="43.81771684628892" lon="12.256017895283735"><ele>456.2</ele><time>2026-05-01T14:45:15.001Z</time></trkpt><trkpt lat="43.8178194032129" lon="12.256033964463763"><ele>454.0</ele><time>2026-05-01T14:45:16.001Z</time></trkpt><trkpt lat="43.81795418643303" lon="12.256039730121088"><ele>453.6666666666667</ele><time>2026-05-01T14:45:17.001Z</time></trkpt><trkpt lat="43.818100952477856" lon="12.256055397962664"><ele>453.33333333333337</ele><time>2026-05-01T14:45:18.001Z</time></trkpt><trkpt lat="43.81826723977488" lon="12.256037719298636"><ele>453.0</ele><time>2026-05-01T14:45:19.001Z</time></trkpt><trkpt lat="43.81844290981471" lon="12.255984922203094"><ele>453.0</ele><time>2026-05-01T14:45:20.001Z</time></trkpt><trkpt lat="43.81861551412681" lon="12.255917334552981"><ele>453.0</ele><time>2026-05-01T14:45:21.001Z</time></trkpt><trkpt lat="43.81876658687768" lon="12.255845440625952"><ele>453.0</ele><time>2026-05-01T14:45:22.001Z</time></trkpt><trkpt lat="43.81890339355364" lon="12.255781658044011"><ele>453.0</ele><time>2026-05-01T14:45:23.001Z</time></trkpt><trkpt lat="43.81902442913868" lon="12.255693688988352"><ele>453.0</ele><time>2026-05-01T14:45:24.001Z</time></trkpt><trkpt lat="43.819135581038324" lon="12.255589884775427"><ele>453.0</ele><time>2026-05-01T14:45:25.001Z</time></trkpt><trkpt lat="43.81923264774971" lon="12.255455496903297"><ele>453.0</ele><time>2026-05-01T14:45:26.001Z</time></trkpt><trkpt lat="43.81931918341461" lon="12.25529791160817"><ele>451.75</ele><time>2026-05-01T14:45:27.001Z</time></trkpt><trkpt lat="43.8193952039451" lon="12.2551413729938"><ele>450.5</ele><time>2026-05-01T14:45:28.001Z</time></trkpt><trkpt lat="43.81945736732811" lon="12.254990466702322"><ele>449.25</ele><time>2026-05-01T14:45:29.001Z</time></trkpt><trkpt lat="43.819494637500036" lon="12.254833658990277"><ele>448.0</ele><time>2026-05-01T14:45:30.001Z</time></trkpt><trkpt lat="43.8194784984222" lon="12.254658849941576"><ele>445.5</ele><time>2026-05-01T14:45:31.001Z</time></trkpt><trkpt lat="43.81944920347914" lon="12.25445311146215"><ele>443.0</ele><time>2026-05-01T14:45:32.001Z</time></trkpt><trkpt lat="43.819435360732" lon="12.25427867983425"><ele>440.5</ele><time>2026-05-01T14:45:33.001Z</time></trkpt><trkpt lat="43.81944247481794" lon="12.25412359273848"><ele>438.0</ele><time>2026-05-01T14:45:34.001Z</time></trkpt><trkpt lat="43.81947822295656" lon="12.253973613138808"><ele>435.75</ele><time>2026-05-01T14:45:35.001Z</time></trkpt><trkpt lat="43.81954756410094" lon="12.253844063550224"><ele>433.5</ele><time>2026-05-01T14:45:36.001Z</time></trkpt><trkpt lat="43.81965620668347" lon="12.253749430405202"><ele>431.25</ele><time>2026-05-01T14:45:37.001Z</time></trkpt><trkpt lat="43.81977368574091" lon="12.253658132969539"><ele>429.0</ele><time>2026-05-01T14:45:38.001Z</time></trkpt><trkpt lat="43.81989694185526" lon="12.253557988366518"><ele>429.0</ele><time>2026-05-01T14:45:39.001Z</time></trkpt><trkpt lat="43.82001399836588" lon="12.253461590431511"><ele>429.0</ele><time>2026-05-01T14:45:40.001Z</time></trkpt><trkpt lat="43.820106448046054" lon="12.253340259746397"><ele>429.0</ele><time>2026-05-01T14:45:41.001Z</time></trkpt><trkpt lat="43.82018247345047" lon="12.253179393163403"><ele>429.0</ele><time>2026-05-01T14:45:42.001Z</time></trkpt><trkpt lat="43.82024167425132" lon="12.252970371622766"><ele>428.0</ele><time>2026-05-01T14:45:43.001Z</time></trkpt><trkpt lat="43.82029994125332" lon="12.252771481106576"><ele>427.0</ele><time>2026-05-01T14:45:44.001Z</time></trkpt><trkpt lat="43.820371921546226" lon="12.252558773841201"><ele>426.0</ele><time>2026-05-01T14:45:45.001Z</time></trkpt><trkpt lat="43.820448226009525" lon="12.252340841583168"><ele>422.33333333333337</ele><time>2026-05-01T14:45:46.001Z</time></trkpt><trkpt lat="43.820522360251495" lon="12.252114281292437"><ele>418.6666666666667</ele><time>2026-05-01T14:45:47.001Z</time></trkpt><trkpt lat="43.82059713018908" lon="12.251892161294515"><ele>415.0</ele><time>2026-05-01T14:45:48.001Z</time></trkpt><trkpt lat="43.820669119304696" lon="12.25168349073929"><ele>415.0</ele><time>2026-05-01T14:45:49.001Z</time></trkpt><trkpt lat="43.82073279128987" lon="12.251484144601475"><ele>415.0</ele><time>2026-05-01T14:45:50.001Z</time></trkpt><trkpt lat="43.82078566775545" lon="12.251308091136687"><ele>415.0</ele><time>2026-05-01T14:45:51.001Z</time></trkpt><trkpt lat="43.82083225314282" lon="12.251175757912712"><ele>415.0</ele><time>2026-05-01T14:45:52.001Z</time></trkpt><trkpt lat="43.82084709022044" lon="12.251070319186988"><ele>413.6666666666667</ele><time>2026-05-01T14:45:53.001Z</time></trkpt><trkpt lat="43.82083474012188" lon="12.250982512195671"><ele>412.33333333333337</ele><time>2026-05-01T14:45:54.001Z</time></trkpt><trkpt lat="43.82079058130337" lon="12.250904108168303"><ele>411.0</ele><time>2026-05-01T14:45:55.001Z</time></trkpt><trkpt lat="43.8207090728321" lon="12.250862388089233"><ele>409.66666666666663</ele><time>2026-05-01T14:45:56.001Z</time></trkpt><trkpt lat="43.82062501516096" lon="12.250854748265716"><ele>408.3333333333333</ele><time>2026-05-01T14:45:57.001Z</time></trkpt><trkpt lat="43.820535712979115" lon="12.250903662065962"><ele>407.0</ele><time>2026-05-01T14:45:58Z</time></trkpt><trkpt lat="43.82044836538568" lon="12.25099807401649"><ele>407.0</ele><time>2026-05-01T14:45:59Z</time></trkpt><trkpt lat="43.82036080430159" lon="12.251124815378107"><ele>407.0</ele><time>2026-05-01T14:46:00Z</time></trkpt><trkpt lat="43.8202674180353" lon="12.251269915029868"><ele>407.0</ele><time>2026-05-01T14:46:01Z</time></trkpt><trkpt lat="43.82016683276086" lon="12.25142335231731"><ele>407.0</ele><time>2026-05-01T14:46:02Z</time></trkpt><trkpt lat="43.82005944657104" lon="12.25158011941474"><ele>408.0</ele><time>2026-05-01T14:46:03Z</time></trkpt><trkpt lat="43.81995469347916" lon="12.251722045345893"><ele>409.0</ele><time>2026-05-01T14:46:04Z</time></trkpt><trkpt lat="43.81984225694555" lon="12.251835736836952"><ele>410.0</ele><time>2026-05-01T14:46:05Z</time></trkpt><trkpt lat="43.81972909969822" lon="12.251919351197088"><ele>411.0</ele><time>2026-05-01T14:46:06Z</time></trkpt><trkpt lat="43.819613297196774" lon="12.251979737126646"><ele>411.0</ele><time>2026-05-01T14:46:07Z</time></trkpt><trkpt lat="43.81949040214102" lon="12.252009593798878"><ele>411.0</ele><time>2026-05-01T14:46:08Z</time></trkpt><trkpt lat="43.81935559555641" lon="12.251971514030144"><ele>411.0</ele><time>2026-05-01T14:46:09Z</time></trkpt><trkpt lat="43.8192153379002" lon="12.251934716334095"><ele>411.0</ele><time>2026-05-01T14:46:10Z</time></trkpt><trkpt lat="43.81908818035711" lon="12.251908401431185"><ele>409.25</ele><time>2026-05-01T14:46:11Z</time></trkpt><trkpt lat="43.818964724893824" lon="12.251921012821516"><ele>407.5</ele><time>2026-05-01T14:46:12Z</time></trkpt><trkpt lat="43.81885729967723" lon="12.251983244073013"><ele>405.75</ele><time>2026-05-01T14:46:13Z</time></trkpt><trkpt lat="43.818749113939475" lon="12.25209508063158"><ele>404.0</ele><time>2026-05-01T14:46:14Z</time></trkpt><trkpt lat="43.81863233112081" lon="12.252246481145335"><ele>404.2</ele><time>2026-05-01T14:46:15Z</time></trkpt><trkpt lat="43.818526388124745" lon="12.25237930971773"><ele>404.4</ele><time>2026-05-01T14:46:16Z</time></trkpt><trkpt lat="43.818427588025514" lon="12.25243201238961"><ele>404.6</ele><time>2026-05-01T14:46:17Z</time></trkpt><trkpt lat="43.81835406493536" lon="12.252461437754537"><ele>404.8</ele><time>2026-05-01T14:46:18Z</time></trkpt><trkpt lat="43.81829045334088" lon="12.252444590730637"><ele>405.0</ele><time>2026-05-01T14:46:19Z</time></trkpt><trkpt lat="43.81821322440017" lon="12.252416519391945"><ele>405.0</ele><time>2026-05-01T14:46:20Z</time></trkpt><trkpt lat="43.81815894070502" lon="12.25231248541125"><ele>405.0</ele><time>2026-05-01T14:46:21Z</time></trkpt><trkpt lat="43.81814234247783" lon="12.25217284874649"><ele>405.0</ele><time>2026-05-01T14:46:22Z</time></trkpt><trkpt lat="43.81816561467534" lon="12.252036376838301"><ele>405.0</ele><time>2026-05-01T14:46:23Z</time></trkpt><trkpt lat="43.81825257051475" lon="12.251923310740851"><ele>405.0</ele><time>2026-05-01T14:46:24Z</time></trkpt><trkpt lat="43.81833175183392" lon="12.25177134177414"><ele>404.75</ele><time>2026-05-01T14:46:25Z</time></trkpt><trkpt lat="43.8184182867228" lon="12.251623820388344"><ele>404.5</ele><time>2026-05-01T14:46:26Z</time></trkpt><trkpt lat="43.818501935542194" lon="12.251467482423253"><ele>404.25</ele><time>2026-05-01T14:46:27Z</time></trkpt><trkpt lat="43.818590666098494" lon="12.25130390373743"><ele>404.0</ele><time>2026-05-01T14:46:28Z</time></trkpt><trkpt lat="43.81867934070727" lon="12.251150953635914"><ele>401.5</ele><time>2026-05-01T14:46:29Z</time></trkpt><trkpt lat="43.8187879427447" lon="12.25098733808872"><ele>399.0</ele><time>2026-05-01T14:46:30Z</time></trkpt><trkpt lat="43.818842846696946" lon="12.250828782156514"><ele>396.5</ele><time>2026-05-01T14:46:31Z</time></trkpt><trkpt lat="43.81892381620776" lon="12.250664584653535"><ele>394.0</ele><time>2026-05-01T14:46:32Z</time></trkpt><trkpt lat="43.81901426300186" lon="12.250522986121412"><ele>392.25</ele><time>2026-05-01T14:46:33Z</time></trkpt><trkpt lat="43.81908507551801" lon="12.250367217679717"><ele>390.5</ele><time>2026-05-01T14:46:34Z</time></trkpt><trkpt lat="43.81915037390687" lon="12.250228941637504"><ele>388.75</ele><time>2026-05-01T14:46:35Z</time></trkpt><trkpt lat="43.819213871285456" lon="12.250074347281565"><ele>387.0</ele><time>2026-05-01T14:46:36Z</time></trkpt><trkpt lat="43.8192724100442" lon="12.249912945286049"><ele>386.25</ele><time>2026-05-01T14:46:37Z</time></trkpt><trkpt lat="43.819326971709486" lon="12.249745582469462"><ele>385.5</ele><time>2026-05-01T14:46:38Z</time></trkpt><trkpt lat="43.81937768752057" lon="12.2495745962544"><ele>384.75</ele><time>2026-05-01T14:46:39Z</time></trkpt><trkpt lat="43.8194256474448" lon="12.249415821563229"><ele>384.0</ele><time>2026-05-01T14:46:40Z</time></trkpt><trkpt lat="43.819477888687345" lon="12.249265670480531"><ele>384.0</ele><time>2026-05-01T14:46:41Z</time></trkpt><trkpt lat="43.8195300288702" lon="12.24912070335442"><ele>384.0</ele><time>2026-05-01T14:46:42Z</time></trkpt><trkpt lat="43.819583765318946" lon="12.248975053952593"><ele>384.0</ele><time>2026-05-01T14:46:43Z</time></trkpt><trkpt lat="43.81964766742794" lon="12.248831107435779"><ele>384.0</ele><time>2026-05-01T14:46:44Z</time></trkpt><trkpt lat="43.81971654670029" lon="12.248700636025967"><ele>381.79999999999995</ele><time>2026-05-01T14:46:45Z</time></trkpt><trkpt lat="43.81978695730116" lon="12.248583126644505"><ele>379.59999999999997</ele><time>2026-05-01T14:46:46Z</time></trkpt><trkpt lat="43.81985582938057" lon="12.248470896779088"><ele>377.4</ele><time>2026-05-01T14:46:47Z</time></trkpt><trkpt lat="43.81991975194815" lon="12.248375784442183"><ele>375.2</ele><time>2026-05-01T14:46:48Z</time></trkpt><trkpt lat="43.81997114292226" lon="12.248287516362273"><ele>373.0</ele><time>2026-05-01T14:46:49Z</time></trkpt><trkpt lat="43.82004510634572" lon="12.248183281677003"><ele>371.4</ele><time>2026-05-01T14:46:51Z</time></trkpt><trkpt lat="43.820082119951614" lon="12.248080261388683"><ele>369.79999999999995</ele><time>2026-05-01T14:46:54Z</time></trkpt><trkpt lat="43.82001659595211" lon="12.247930960988299"><ele>368.2</ele><time>2026-05-01T14:46:57Z</time></trkpt><trkpt lat="43.819920515058875" lon="12.247811162166288"><ele>366.6</ele><time>2026-05-01T14:46:59Z</time></trkpt><trkpt lat="43.81987785177838" lon="12.24772864780296"><ele>365.0</ele><time>2026-05-01T14:47:00Z</time></trkpt><trkpt lat="43.81983627525688" lon="12.247637506569694"><ele>365.0</ele><time>2026-05-01T14:47:01Z</time></trkpt><trkpt lat="43.819787953275956" lon="12.247531019651438"><ele>365.0</ele><time>2026-05-01T14:47:02Z</time></trkpt><trkpt lat="43.819731057233604" lon="12.247408982996358"><ele>365.0</ele><time>2026-05-01T14:47:03Z</time></trkpt><trkpt lat="43.81967261252312" lon="12.24729131051077"><ele>365.0</ele><time>2026-05-01T14:47:04Z</time></trkpt><trkpt lat="43.81961038746213" lon="12.247174276127742"><ele>365.0</ele><time>2026-05-01T14:47:05Z</time></trkpt><trkpt lat="43.81954392495805" lon="12.247042723533648"><ele>365.2</ele><time>2026-05-01T14:47:06Z</time></trkpt><trkpt lat="43.81947573250275" lon="12.24691260876883"><ele>365.4</ele><time>2026-05-01T14:47:07Z</time></trkpt><trkpt lat="43.8194128812002" lon="12.246788749800293"><ele>365.6</ele><time>2026-05-01T14:47:08.001Z</time></trkpt><trkpt lat="43.81935042099289" lon="12.246664868190788"><ele>365.8</ele><time>2026-05-01T14:47:09.001Z</time></trkpt><trkpt lat="43.81929102694839" lon="12.24653922767008"><ele>366.0</ele><time>2026-05-01T14:47:10.001Z</time></trkpt><trkpt lat="43.81922547381352" lon="12.246422238325037"><ele>366.4</ele><time>2026-05-01T14:47:11.001Z</time></trkpt><trkpt lat="43.81916500279249" lon="12.246301201569125"><ele>366.8</ele><time>2026-05-01T14:47:12.001Z</time></trkpt><trkpt lat="43.81910418473082" lon="12.246188604888095"><ele>367.2</ele><time>2026-05-01T14:47:13.001Z</time></trkpt><trkpt lat="43.81904895084781" lon="12.246076310487387"><ele>367.59999999999997</ele><time>2026-05-01T14:47:14.001Z</time></trkpt><trkpt lat="43.81900292415535" lon="12.245976119979249"><ele>368.0</ele><time>2026-05-01T14:47:15.001Z</time></trkpt><trkpt lat="43.81892840943069" lon="12.245774845996824"><ele>368.0</ele><time>2026-05-01T14:47:17.001Z</time></trkpt><trkpt lat="43.81890263903524" lon="12.245671500685951"><ele>368.0</ele><time>2026-05-01T14:47:18.001Z</time></trkpt><trkpt lat="43.81889535132131" lon="12.245569041952102"><ele>368.0</ele><time>2026-05-01T14:47:19.001Z</time></trkpt><trkpt lat="43.818898033639634" lon="12.245469745155333"><ele>368.0</ele><time>2026-05-01T14:47:20.001Z</time></trkpt><trkpt lat="43.818919575466445" lon="12.245360220066338"><ele>368.0</ele><time>2026-05-01T14:47:21.001Z</time></trkpt><trkpt lat="43.81892366124075" lon="12.245223546939572"><ele>368.0</ele><time>2026-05-01T14:47:22.001Z</time></trkpt><trkpt lat="43.818968776978046" lon="12.245091381090631"><ele>367.0</ele><time>2026-05-01T14:47:23.001Z</time></trkpt><trkpt lat="43.818993840613" lon="12.244954663861307"><ele>366.0</ele><time>2026-05-01T14:47:24.001Z</time></trkpt><trkpt lat="43.819022872851036" lon="12.244805007214584"><ele>365.0</ele><time>2026-05-01T14:47:25.001Z</time></trkpt><trkpt lat="43.81905127305571" lon="12.244650801460509"><ele>364.0</ele><time>2026-05-01T14:47:26.001Z</time></trkpt><trkpt lat="43.81909642032917" lon="12.244488763922389"><ele>363.0</ele><time>2026-05-01T14:47:27.001Z</time></trkpt><trkpt lat="43.81912568433871" lon="12.244299695818029"><ele>362.0</ele><time>2026-05-01T14:47:28.001Z</time></trkpt><trkpt lat="43.8191647414191" lon="12.244115695379419"><ele>361.0</ele><time>2026-05-01T14:47:29.001Z</time></trkpt><trkpt lat="43.819205819280825" lon="12.243929906532086"><ele>360.0</ele><time>2026-05-01T14:47:30.001Z</time></trkpt><trkpt lat="43.819238982995934" lon="12.243734124661852"><ele>359.0</ele><time>2026-05-01T14:47:31.001Z</time></trkpt><trkpt lat="43.81928105260608" lon="12.243543933998325"><ele>358.0</ele><time>2026-05-01T14:47:32.001Z</time></trkpt><trkpt lat="43.81931411436582" lon="12.243361008122708"><ele>357.0</ele><time>2026-05-01T14:47:33.001Z</time></trkpt><trkpt lat="43.81935326033787" lon="12.243181563714977"><ele>356.0</ele><time>2026-05-01T14:47:34.001Z</time></trkpt><trkpt lat="43.81939257242514" lon="12.24301238054018"><ele>355.5</ele><time>2026-05-01T14:47:35.001Z</time></trkpt><trkpt lat="43.81942338385509" lon="12.242838474935613"><ele>355.0</ele><time>2026-05-01T14:47:36.001Z</time></trkpt><trkpt lat="43.81944213106052" lon="12.242674585447597"><ele>354.5</ele><time>2026-05-01T14:47:37.001Z</time></trkpt><trkpt lat="43.819445324379416" lon="12.24251164381103"><ele>354.0</ele><time>2026-05-01T14:47:38.001Z</time></trkpt><trkpt lat="43.819433253431484" lon="12.242347740319223"><ele>353.25</ele><time>2026-05-01T14:47:39.001Z</time></trkpt><trkpt lat="43.81938356274404" lon="12.242197243448297"><ele>352.5</ele><time>2026-05-01T14:47:40.001Z</time></trkpt><trkpt lat="43.81931694512005" lon="12.24205693624339"><ele>351.75</ele><time>2026-05-01T14:47:41.001Z</time></trkpt><trkpt lat="43.819228263613" lon="12.241918931110305"><ele>351.0</ele><time>2026-05-01T14:47:42.001Z</time></trkpt><trkpt lat="43.81916276912685" lon="12.241782809698838"><ele>351.0</ele><time>2026-05-01T14:47:43.001Z</time></trkpt><trkpt lat="43.81910320919123" lon="12.24163861690553"><ele>351.0</ele><time>2026-05-01T14:47:44.001Z</time></trkpt><trkpt lat="43.81904980558244" lon="12.241485858284399"><ele>351.0</ele><time>2026-05-01T14:47:45.001Z</time></trkpt><trkpt lat="43.81901131348915" lon="12.241320686284721"><ele>351.0</ele><time>2026-05-01T14:47:46.001Z</time></trkpt><trkpt lat="43.819001552573994" lon="12.241147149568471"><ele>350.75</ele><time>2026-05-01T14:47:47.001Z</time></trkpt><trkpt lat="43.8190070306617" lon="12.240966361204755"><ele>350.5</ele><time>2026-05-01T14:47:48.001Z</time></trkpt><trkpt lat="43.819019944653" lon="12.240781843345971"><ele>350.25</ele><time>2026-05-01T14:47:49.001Z</time></trkpt><trkpt lat="43.81903420421122" lon="12.240593361377863"><ele>350.0</ele><time>2026-05-01T14:47:50.001Z</time></trkpt><trkpt lat="43.81905788559851" lon="12.240403210260475"><ele>349.75</ele><time>2026-05-01T14:47:51.001Z</time></trkpt><trkpt lat="43.819083953108645" lon="12.240207337918958"><ele>349.5</ele><time>2026-05-01T14:47:52.001Z</time></trkpt><trkpt lat="43.81910293159545" lon="12.240010328878911"><ele>349.25</ele><time>2026-05-01T14:47:53.001Z</time></trkpt><trkpt lat="43.81912135986519" lon="12.239810695442884"><ele>349.0</ele><time>2026-05-01T14:47:54.001Z</time></trkpt><trkpt lat="43.819141940977" lon="12.239608637685519"><ele>348.75</ele><time>2026-05-01T14:47:55.001Z</time></trkpt><trkpt lat="43.81916457112887" lon="12.239404819458908"><ele>348.5</ele><time>2026-05-01T14:47:56.001Z</time></trkpt><trkpt lat="43.819186763763696" lon="12.239199699497846"><ele>348.25</ele><time>2026-05-01T14:47:57.001Z</time></trkpt><trkpt lat="43.81921017481474" lon="12.23899512615358"><ele>348.0</ele><time>2026-05-01T14:47:58.001Z</time></trkpt><trkpt lat="43.81923145613867" lon="12.238793063239736"><ele>348.5</ele><time>2026-05-01T14:47:59.001Z</time></trkpt><trkpt lat="43.81925143369624" lon="12.238593114772007"><ele>349.0</ele><time>2026-05-01T14:48:00.001Z</time></trkpt><trkpt lat="43.819270295495315" lon="12.238393145676346"><ele>349.5</ele><time>2026-05-01T14:48:01.001Z</time></trkpt><trkpt lat="43.81928845085547" lon="12.238201849030833"><ele>350.0</ele><time>2026-05-01T14:48:02.001Z</time></trkpt><trkpt lat="43.81930710717437" lon="12.238025519358953"><ele>349.5</ele><time>2026-05-01T14:48:03.001Z</time></trkpt><trkpt lat="43.81932399153817" lon="12.23786204766067"><ele>349.0</ele><time>2026-05-01T14:48:04Z</time></trkpt><trkpt lat="43.81933907200301" lon="12.237695959848404"><ele>348.5</ele><time>2026-05-01T14:48:05Z</time></trkpt><trkpt lat="43.81935641940263" lon="12.237535520916882"><ele>348.0</ele><time>2026-05-01T14:48:06Z</time></trkpt><trkpt lat="43.81938189228712" lon="12.23737597281876"><ele>348.25</ele><time>2026-05-01T14:48:07Z</time></trkpt><trkpt lat="43.819419021621606" lon="12.2372173619322"><ele>348.5</ele><time>2026-05-01T14:48:08Z</time></trkpt><trkpt lat="43.8194696615658" lon="12.237058956193891"><ele>348.75</ele><time>2026-05-01T14:48:09Z</time></trkpt><trkpt lat="43.81953639272299" lon="12.236909525022021"><ele>349.0</ele><time>2026-05-01T14:48:10Z</time></trkpt><trkpt lat="43.81959768788329" lon="12.236765656853464"><ele>349.0</ele><time>2026-05-01T14:48:11Z</time></trkpt><trkpt lat="43.81966189523794" lon="12.23661653445041"><ele>349.0</ele><time>2026-05-01T14:48:12Z</time></trkpt><trkpt lat="43.81973066336928" lon="12.236465655178744"><ele>349.0</ele><time>2026-05-01T14:48:13Z</time></trkpt><trkpt lat="43.819797517895296" lon="12.236314277488507"><ele>349.0</ele><time>2026-05-01T14:48:14Z</time></trkpt><trkpt lat="43.8198612276489" lon="12.236154118765414"><ele>348.5</ele><time>2026-05-01T14:48:15Z</time></trkpt><trkpt lat="43.8199292020702" lon="12.236000115409924"><ele>348.0</ele><time>2026-05-01T14:48:16Z</time></trkpt><trkpt lat="43.820001111646356" lon="12.23584452199672"><ele>347.5</ele><time>2026-05-01T14:48:17Z</time></trkpt><trkpt lat="43.82007144771072" lon="12.235686782931747"><ele>347.0</ele><time>2026-05-01T14:48:18Z</time></trkpt><trkpt lat="43.820145080919005" lon="12.235525824978463"><ele>346.25</ele><time>2026-05-01T14:48:19Z</time></trkpt><trkpt lat="43.82021515804739" lon="12.235361339312792"><ele>345.5</ele><time>2026-05-01T14:48:20Z</time></trkpt><trkpt lat="43.820288792943096" lon="12.235199677059665"><ele>344.75</ele><time>2026-05-01T14:48:21Z</time></trkpt><trkpt lat="43.82036250514096" lon="12.235038162756293"><ele>344.0</ele><time>2026-05-01T14:48:22Z</time></trkpt><trkpt lat="43.820434849153784" lon="12.234876321866727"><ele>344.25</ele><time>2026-05-01T14:48:23Z</time></trkpt><trkpt lat="43.82050951119027" lon="12.234720066910038"><ele>344.5</ele><time>2026-05-01T14:48:24Z</time></trkpt><trkpt lat="43.82057916562783" lon="12.234562266563827"><ele>344.75</ele><time>2026-05-01T14:48:25Z</time></trkpt><trkpt lat="43.82064716503795" lon="12.23440504849598"><ele>345.0</ele><time>2026-05-01T14:48:26Z</time></trkpt><trkpt lat="43.82071346837199" lon="12.234246372155392"><ele>345.0</ele><time>2026-05-01T14:48:27Z</time></trkpt><trkpt lat="43.82078202246879" lon="12.2340899439254"><ele>345.0</ele><time>2026-05-01T14:48:28Z</time></trkpt><trkpt lat="43.820850866556974" lon="12.233936756442663"><ele>345.0</ele><time>2026-05-01T14:48:29Z</time></trkpt><trkpt lat="43.82092387797755" lon="12.233780399806095"><ele>345.0</ele><time>2026-05-01T14:48:30Z</time></trkpt><trkpt lat="43.82099672863261" lon="12.233625608461963"><ele>346.0</ele><time>2026-05-01T14:48:31Z</time></trkpt><trkpt lat="43.821067592242244" lon="12.233468998831562"><ele>347.0</ele><time>2026-05-01T14:48:32Z</time></trkpt><trkpt lat="43.821136562933425" lon="12.233318269494806"><ele>348.0</ele><time>2026-05-01T14:48:33Z</time></trkpt><trkpt lat="43.821197775990946" lon="12.233176617210205"><ele>349.0</ele><time>2026-05-01T14:48:34Z</time></trkpt><trkpt lat="43.821250574586365" lon="12.23303936424722"><ele>350.79999999999995</ele><time>2026-05-01T14:48:35Z</time></trkpt><trkpt lat="43.82128629411442" lon="12.232905539169455"><ele>352.59999999999997</ele><time>2026-05-01T14:48:36Z</time></trkpt><trkpt lat="43.82130847298347" lon="12.232781990467588"><ele>354.4</ele><time>2026-05-01T14:48:37Z</time></trkpt><trkpt lat="43.82131514282849" lon="12.232660005631685"><ele>356.2</ele><time>2026-05-01T14:48:38Z</time></trkpt><trkpt lat="43.82130498918787" lon="12.232528525554065"><ele>358.0</ele><time>2026-05-01T14:48:39Z</time></trkpt><trkpt lat="43.82128131607865" lon="12.232398379295027"><ele>359.0</ele><time>2026-05-01T14:48:40Z</time></trkpt><trkpt lat="43.82123368432494" lon="12.232274468588216"><ele>360.0</ele><time>2026-05-01T14:48:41Z</time></trkpt><trkpt lat="43.82117466645775" lon="12.232156962955042"><ele>361.0</ele><time>2026-05-01T14:48:42Z</time></trkpt><trkpt lat="43.821100579675374" lon="12.232041672318507"><ele>362.0</ele><time>2026-05-01T14:48:43Z</time></trkpt><trkpt lat="43.82100528282383" lon="12.231914318832692"><ele>363.0</ele><time>2026-05-01T14:48:44Z</time></trkpt><trkpt lat="43.82091036329753" lon="12.231774923500028"><ele>361.75</ele><time>2026-05-01T14:48:45Z</time></trkpt><trkpt lat="43.8208133071534" lon="12.231631876480328"><ele>360.5</ele><time>2026-05-01T14:48:46Z</time></trkpt><trkpt lat="43.820716575219144" lon="12.23149448550991"><ele>359.25</ele><time>2026-05-01T14:48:47Z</time></trkpt><trkpt lat="43.82061329926762" lon="12.231354788674604"><ele>358.0</ele><time>2026-05-01T14:48:48Z</time></trkpt><trkpt lat="43.82051681023667" lon="12.231218784822323"><ele>358.0</ele><time>2026-05-01T14:48:49Z</time></trkpt><trkpt lat="43.82042525420938" lon="12.231083976068646"><ele>358.0</ele><time>2026-05-01T14:48:50Z</time></trkpt><trkpt lat="43.8203396073937" lon="12.230954457721742"><ele>358.0</ele><time>2026-05-01T14:48:51Z</time></trkpt><trkpt lat="43.82025304295968" lon="12.230833271302387"><ele>358.0</ele><time>2026-05-01T14:48:52Z</time></trkpt><trkpt lat="43.82016880060279" lon="12.230712957293944"><ele>357.25</ele><time>2026-05-01T14:48:53Z</time></trkpt><trkpt lat="43.82008537595208" lon="12.230594042330294"><ele>356.5</ele><time>2026-05-01T14:48:54Z</time></trkpt><trkpt lat="43.82000303653753" lon="12.23047416905366"><ele>355.75</ele><time>2026-05-01T14:48:55Z</time></trkpt><trkpt lat="43.81992692175557" lon="12.230360577087835"><ele>355.0</ele><time>2026-05-01T14:48:56Z</time></trkpt><trkpt lat="43.819858777069626" lon="12.230245574258301"><ele>355.0</ele><time>2026-05-01T14:48:57Z</time></trkpt><trkpt lat="43.819732299337744" lon="12.230036385087901"><ele>355.0</ele><time>2026-05-01T14:48:59Z</time></trkpt><trkpt lat="43.81973794204079" lon="12.229856775835048"><ele>355.0</ele><time>2026-05-01T14:49:00Z</time></trkpt><trkpt lat="43.81972257110311" lon="12.229706257606564"><ele>355.0</ele><time>2026-05-01T14:49:01Z</time></trkpt><trkpt lat="43.819691308737525" lon="12.229555475752624"><ele>355.4</ele><time>2026-05-01T14:49:02Z</time></trkpt><trkpt lat="43.81969615054286" lon="12.22939643585572"><ele>355.8</ele><time>2026-05-01T14:49:03Z</time></trkpt><trkpt lat="43.81970231973832" lon="12.229248952815212"><ele>356.20000000000005</ele><time>2026-05-01T14:49:04Z</time></trkpt><trkpt lat="43.81973403587255" lon="12.229116884815493"><ele>356.6</ele><time>2026-05-01T14:49:05Z</time></trkpt><trkpt lat="43.81978775486347" lon="12.22900240125309"><ele>357.0</ele><time>2026-05-01T14:49:06Z</time></trkpt><trkpt lat="43.81986220635581" lon="12.228898730477663"><ele>357.5</ele><time>2026-05-01T14:49:07Z</time></trkpt><trkpt lat="43.81994629104459" lon="12.2288071105752"><ele>358.0</ele><time>2026-05-01T14:49:08.001Z</time></trkpt><trkpt lat="43.82003814870174" lon="12.228714971823045"><ele>358.5</ele><time>2026-05-01T14:49:09.001Z</time></trkpt><trkpt lat="43.82014090027909" lon="12.228629853288531"><ele>359.0</ele><time>2026-05-01T14:49:10.001Z</time></trkpt><trkpt lat="43.8202509555807" lon="12.228566947482843"><ele>361.0</ele><time>2026-05-01T14:49:11.001Z</time></trkpt><trkpt lat="43.82036734602547" lon="12.228538568341396"><ele>363.0</ele><time>2026-05-01T14:49:12.001Z</time></trkpt><trkpt lat="43.82048396937935" lon="12.2285237438994"><ele>365.0</ele><time>2026-05-01T14:49:13.001Z</time></trkpt><trkpt lat="43.820584864134524" lon="12.228493194868841"><ele>367.0</ele><time>2026-05-01T14:49:14.001Z</time></trkpt><trkpt lat="43.820671138054045" lon="12.22842872369248"><ele>369.0</ele><time>2026-05-01T14:49:15.001Z</time></trkpt><trkpt lat="43.82074609123313" lon="12.228341915086824"><ele>369.0</ele><time>2026-05-01T14:49:16.001Z</time></trkpt><trkpt lat="43.8207932559272" lon="12.228207428759008"><ele>369.0</ele><time>2026-05-01T14:49:17.001Z</time></trkpt><trkpt lat="43.82081057919406" lon="12.228030972888766"><ele>369.0</ele><time>2026-05-01T14:49:18.001Z</time></trkpt><trkpt lat="43.82081784444416" lon="12.22784693056064"><ele>369.0</ele><time>2026-05-01T14:49:19.001Z</time></trkpt><trkpt lat="43.8208098275646" lon="12.227682898103211"><ele>369.6</ele><time>2026-05-01T14:49:20.001Z</time></trkpt><trkpt lat="43.82080784912531" lon="12.227539238114971"><ele>370.2</ele><time>2026-05-01T14:49:21.001Z</time></trkpt><trkpt lat="43.820821988051954" lon="12.227404325243104"><ele>370.8</ele><time>2026-05-01T14:49:22.001Z</time></trkpt><trkpt lat="43.820863748521006" lon="12.227294326891796"><ele>371.40000000000003</ele><time>2026-05-01T14:49:23.001Z</time></trkpt><trkpt lat="43.820939422944335" lon="12.227222063098163"><ele>372.0</ele><time>2026-05-01T14:49:24.001Z</time></trkpt><trkpt lat="43.821028070830245" lon="12.22717085305579"><ele>374.25</ele><time>2026-05-01T14:49:25.001Z</time></trkpt><trkpt lat="43.82113818840641" lon="12.227150622111456"><ele>376.5</ele><time>2026-05-01T14:49:26.001Z</time></trkpt><trkpt lat="43.821276434454035" lon="12.227141591307525"><ele>378.75</ele><time>2026-05-01T14:49:27.001Z</time></trkpt><trkpt lat="43.82140060944047" lon="12.227141066246636"><ele>381.0</ele><time>2026-05-01T14:49:28.001Z</time></trkpt><trkpt lat="43.82149621565401" lon="12.227173750418293"><ele>381.0</ele><time>2026-05-01T14:49:29.001Z</time></trkpt><trkpt lat="43.82159361173551" lon="12.227238303476067"><ele>381.0</ele><time>2026-05-01T14:49:30.001Z</time></trkpt><trkpt lat="43.82169508744005" lon="12.227331871742745"><ele>381.0</ele><time>2026-05-01T14:49:31.001Z</time></trkpt><trkpt lat="43.82180412549964" lon="12.227471201368353"><ele>381.0</ele><time>2026-05-01T14:49:32.001Z</time></trkpt><trkpt lat="43.821898936398505" lon="12.227608340357463"><ele>382.25</ele><time>2026-05-01T14:49:33.001Z</time></trkpt><trkpt lat="43.82199038310478" lon="12.227742291024532"><ele>383.5</ele><time>2026-05-01T14:49:34.001Z</time></trkpt><trkpt lat="43.8220688362048" lon="12.227854869812923"><ele>384.75</ele><time>2026-05-01T14:49:35.001Z</time></trkpt><trkpt lat="43.82216771494084" lon="12.22795089252778"><ele>386.0</ele><time>2026-05-01T14:49:36.001Z</time></trkpt><trkpt lat="43.822289335212425" lon="12.22801646861506"><ele>386.0</ele><time>2026-05-01T14:49:37.001Z</time></trkpt><trkpt lat="43.822433739512014" lon="12.228037161170919"><ele>386.0</ele><time>2026-05-01T14:49:38.001Z</time></trkpt><trkpt lat="43.82258031770359" lon="12.228039061632257"><ele>386.0</ele><time>2026-05-01T14:49:39.001Z</time></trkpt><trkpt lat="43.822706203568394" lon="12.228038061357745"><ele>386.0</ele><time>2026-05-01T14:49:40.001Z</time></trkpt><trkpt lat="43.82281674854507" lon="12.228028681670237"><ele>388.0</ele><time>2026-05-01T14:49:41.001Z</time></trkpt><trkpt lat="43.82289295644966" lon="12.22804101565695"><ele>390.0</ele><time>2026-05-01T14:49:42.001Z</time></trkpt><trkpt lat="43.82294788841557" lon="12.22809650514375"><ele>392.0</ele><time>2026-05-01T14:49:43.001Z</time></trkpt><trkpt lat="43.823003445352384" lon="12.228145021332914"><ele>394.0</ele><time>2026-05-01T14:49:44.001Z</time></trkpt><trkpt lat="43.82300669075458" lon="12.228336639335181"><ele>396.0</ele><time>2026-05-01T14:49:45.001Z</time></trkpt><trkpt lat="43.823004339973444" lon="12.22851128649511"><ele>396.0</ele><time>2026-05-01T14:49:46.001Z</time></trkpt><trkpt lat="43.822990207903324" lon="12.228715705643516"><ele>396.0</ele><time>2026-05-01T14:49:47.001Z</time></trkpt><trkpt lat="43.82297576994903" lon="12.228948589119852"><ele>396.0</ele><time>2026-05-01T14:49:48.001Z</time></trkpt><trkpt lat="43.82295816767426" lon="12.229181696225398"><ele>396.25</ele><time>2026-05-01T14:49:49.001Z</time></trkpt><trkpt lat="43.82294268865448" lon="12.229369794720858"><ele>396.5</ele><time>2026-05-01T14:49:50.001Z</time></trkpt><trkpt lat="43.82295424492378" lon="12.229539157688357"><ele>396.75</ele><time>2026-05-01T14:49:51.001Z</time></trkpt><trkpt lat="43.82296448481318" lon="12.22968410000854"><ele>397.0</ele><time>2026-05-01T14:49:52.001Z</time></trkpt><trkpt lat="43.823027722088476" lon="12.229814559458866"><ele>397.40000000000003</ele><time>2026-05-01T14:49:53.001Z</time></trkpt><trkpt lat="43.82309822043339" lon="12.229925433819451"><ele>397.8</ele><time>2026-05-01T14:49:54.001Z</time></trkpt><trkpt lat="43.823170235105934" lon="12.230015517095344"><ele>398.2</ele><time>2026-05-01T14:49:55.001Z</time></trkpt><trkpt lat="43.823266199415016" lon="12.23004916740296"><ele>398.6</ele><time>2026-05-01T14:49:56.001Z</time></trkpt><trkpt lat="43.8233429900007" lon="12.230040790967811"><ele>399.0</ele><time>2026-05-01T14:49:57.001Z</time></trkpt><trkpt lat="43.82343362350755" lon="12.230039589884438"><ele>398.66666666666663</ele><time>2026-05-01T14:49:58.001Z</time></trkpt><trkpt lat="43.823643835429834" lon="12.229987289593499"><ele>398.3333333333333</ele><time>2026-05-01T14:49:59.001Z</time></trkpt><trkpt lat="43.82376847229132" lon="12.229900822074683"><ele>398.0</ele><time>2026-05-01T14:50:00.001Z</time></trkpt><trkpt lat="43.82388481396838" lon="12.229784829156602"><ele>400.3333333333333</ele><time>2026-05-01T14:50:01.001Z</time></trkpt><trkpt lat="43.82398775611722" lon="12.229647194194538"><ele>402.66666666666663</ele><time>2026-05-01T14:50:02.001Z</time></trkpt><trkpt lat="43.82408884157526" lon="12.229471864575656"><ele>405.0</ele><time>2026-05-01T14:50:03.001Z</time></trkpt><trkpt lat="43.824172476510626" lon="12.229269155191231"><ele>405.0</ele><time>2026-05-01T14:50:04.001Z</time></trkpt><trkpt lat="43.82423338859273" lon="12.229044245307549"><ele>405.0</ele><time>2026-05-01T14:50:05.001Z</time></trkpt><trkpt lat="43.824284232175685" lon="12.22882553892655"><ele>405.0</ele><time>2026-05-01T14:50:06.001Z</time></trkpt><trkpt lat="43.82433296104574" lon="12.228617846962287"><ele>407.5</ele><time>2026-05-01T14:50:07.001Z</time></trkpt><trkpt lat="43.8243978209319" lon="12.228433485867237"><ele>410.0</ele><time>2026-05-01T14:50:08.001Z</time></trkpt><trkpt lat="43.82443162920882" lon="12.228268797392023"><ele>412.5</ele><time>2026-05-01T14:50:09.001Z</time></trkpt><trkpt lat="43.8244965430206" lon="12.228141739387931"><ele>415.0</ele><time>2026-05-01T14:50:10Z</time></trkpt><trkpt lat="43.824556908620174" lon="12.228021350579512"><ele>415.0</ele><time>2026-05-01T14:50:11Z</time></trkpt><trkpt lat="43.82463384262749" lon="12.227915467966048"><ele>415.0</ele><time>2026-05-01T14:50:12Z</time></trkpt><trkpt lat="43.82472346137721" lon="12.227829333975864"><ele>415.0</ele><time>2026-05-01T14:50:13Z</time></trkpt><trkpt lat="43.824813293867216" lon="12.22777743934137"><ele>415.0</ele><time>2026-05-01T14:50:14Z</time></trkpt><trkpt lat="43.824902968024354" lon="12.227738084594668"><ele>415.0</ele><time>2026-05-01T14:50:15Z</time></trkpt><trkpt lat="43.82496837971941" lon="12.227750144629812"><ele>415.0</ele><time>2026-05-01T14:50:16Z</time></trkpt><trkpt lat="43.825050845913374" lon="12.227886595971867"><ele>415.0</ele><time>2026-05-01T14:50:18Z</time></trkpt><trkpt lat="43.82504837014254" lon="12.227985536032488"><ele>415.0</ele><time>2026-05-01T14:50:19Z</time></trkpt><trkpt lat="43.82502102487105" lon="12.22808568227162"><ele>415.0</ele><time>2026-05-01T14:50:20Z</time></trkpt><trkpt lat="43.82500591711054" lon="12.228238083476247"><ele>415.0</ele><time>2026-05-01T14:50:21Z</time></trkpt><trkpt lat="43.82498866473981" lon="12.228408554043298"><ele>415.4</ele><time>2026-05-01T14:50:22Z</time></trkpt><trkpt lat="43.824988466332556" lon="12.228552247866274"><ele>415.8</ele><time>2026-05-01T14:50:23Z</time></trkpt><trkpt lat="43.82501995000487" lon="12.228702505175688"><ele>416.20000000000005</ele><time>2026-05-01T14:50:24Z</time></trkpt><trkpt lat="43.8250683612901" lon="12.228844192381063"><ele>416.6</ele><time>2026-05-01T14:50:25Z</time></trkpt><trkpt lat="43.825119554811245" lon="12.228956515949085"><ele>417.0</ele><time>2026-05-01T14:50:26Z</time></trkpt><trkpt lat="43.82518162067357" lon="12.229039498501509"><ele>417.8333333333333</ele><time>2026-05-01T14:50:27Z</time></trkpt><trkpt lat="43.82525080028275" lon="12.229065269287668"><ele>418.66666666666663</ele><time>2026-05-01T14:50:28Z</time></trkpt><trkpt lat="43.825320478452866" lon="12.229058711295297"><ele>419.5</ele><time>2026-05-01T14:50:29Z</time></trkpt><trkpt lat="43.82538885656558" lon="12.229012729714814"><ele>420.3333333333333</ele><time>2026-05-01T14:50:30Z</time></trkpt><trkpt lat="43.8254552547361" lon="12.228935110957845"><ele>421.16666666666663</ele><time>2026-05-01T14:50:31Z</time></trkpt><trkpt lat="43.82551411303879" lon="12.228816315767567"><ele>422.0</ele><time>2026-05-01T14:50:32Z</time></trkpt><trkpt lat="43.82557352377112" lon="12.228669530247137"><ele>423.3333333333333</ele><time>2026-05-01T14:50:33Z</time></trkpt><trkpt lat="43.8256471242549" lon="12.228505581687639"><ele>424.66666666666663</ele><time>2026-05-01T14:50:34Z</time></trkpt><trkpt lat="43.825739819035626" lon="12.228315084741922"><ele>426.0</ele><time>2026-05-01T14:50:35Z</time></trkpt><trkpt lat="43.825834248040366" lon="12.228131556353858"><ele>426.0</ele><time>2026-05-01T14:50:36Z</time></trkpt><trkpt lat="43.8259348222554" lon="12.227948849251998"><ele>426.0</ele><time>2026-05-01T14:50:37Z</time></trkpt><trkpt lat="43.8260146001836" lon="12.227776081563741"><ele>426.0</ele><time>2026-05-01T14:50:38Z</time></trkpt><trkpt lat="43.826084131068185" lon="12.227582672120406"><ele>428.33333333333337</ele><time>2026-05-01T14:50:39Z</time></trkpt><trkpt lat="43.82614778760052" lon="12.22736769905405"><ele>430.6666666666667</ele><time>2026-05-01T14:50:40Z</time></trkpt><trkpt lat="43.82621216441685" lon="12.227161701882228"><ele>433.0</ele><time>2026-05-01T14:50:41Z</time></trkpt><trkpt lat="43.826275666083156" lon="12.226959941682884"><ele>434.0</ele><time>2026-05-01T14:50:42Z</time></trkpt><trkpt lat="43.826317863641734" lon="12.226761965669079"><ele>435.0</ele><time>2026-05-01T14:50:43Z</time></trkpt><trkpt lat="43.82635022849398" lon="12.226555070106755"><ele>436.0</ele><time>2026-05-01T14:50:44Z</time></trkpt><trkpt lat="43.82639063834553" lon="12.226362620290473"><ele>437.0</ele><time>2026-05-01T14:50:45Z</time></trkpt><trkpt lat="43.826413976231024" lon="12.226206069088143"><ele>438.0</ele><time>2026-05-01T14:50:46Z</time></trkpt><trkpt lat="43.82645064857324" lon="12.226056023738197"><ele>439.0</ele><time>2026-05-01T14:50:47Z</time></trkpt><trkpt lat="43.8265041584548" lon="12.225926073947077"><ele>440.0</ele><time>2026-05-01T14:50:48Z</time></trkpt><trkpt lat="43.82657498025386" lon="12.22579208723017"><ele>441.0</ele><time>2026-05-01T14:50:49Z</time></trkpt><trkpt lat="43.82665875032467" lon="12.225625680784718"><ele>441.66666666666663</ele><time>2026-05-01T14:50:50Z</time></trkpt><trkpt lat="43.82675863232785" lon="12.225453983987979"><ele>442.3333333333333</ele><time>2026-05-01T14:50:51Z</time></trkpt><trkpt lat="43.82686565861048" lon="12.22528933897425"><ele>443.0</ele><time>2026-05-01T14:50:52Z</time></trkpt><trkpt lat="43.826948514193504" lon="12.225146362217561"><ele>443.79999999999995</ele><time>2026-05-01T14:50:53Z</time></trkpt><trkpt lat="43.827009703486446" lon="12.225020258056688"><ele>444.59999999999997</ele><time>2026-05-01T14:50:54Z</time></trkpt><trkpt lat="43.82702845169228" lon="12.224880742524197"><ele>445.40000000000003</ele><time>2026-05-01T14:50:55Z</time></trkpt><trkpt lat="43.82701971902838" lon="12.224733189223903"><ele>446.20000000000005</ele><time>2026-05-01T14:50:56Z</time></trkpt><trkpt lat="43.82697236927978" lon="12.224589614645064"><ele>447.0</ele><time>2026-05-01T14:50:57Z</time></trkpt><trkpt lat="43.826928603669536" lon="12.224452800397838"><ele>447.8</ele><time>2026-05-01T14:50:58Z</time></trkpt><trkpt lat="43.8268802030988" lon="12.224314539132896"><ele>448.6</ele><time>2026-05-01T14:50:59Z</time></trkpt><trkpt lat="43.826880477034926" lon="12.224190429457703"><ele>449.40000000000003</ele><time>2026-05-01T14:51:00Z</time></trkpt><trkpt lat="43.82690833623407" lon="12.224052452025937"><ele>450.20000000000005</ele><time>2026-05-01T14:51:01Z</time></trkpt><trkpt lat="43.8269711714748" lon="12.223942595072243"><ele>451.0</ele><time>2026-05-01T14:51:02Z</time></trkpt><trkpt lat="43.82703878338968" lon="12.223816762998593"><ele>453.33333333333337</ele><time>2026-05-01T14:51:03Z</time></trkpt><trkpt lat="43.82712822474059" lon="12.223654178489838"><ele>455.66666666666663</ele><time>2026-05-01T14:51:04Z</time></trkpt><trkpt lat="43.827242331896095" lon="12.223478850531325"><ele>458.0</ele><time>2026-05-01T14:51:05Z</time></trkpt><trkpt lat="43.82735716213474" lon="12.223306115103334"><ele>457.0</ele><time>2026-05-01T14:51:06Z</time></trkpt><trkpt lat="43.827482501807225" lon="12.223137501500345"><ele>456.0</ele><time>2026-05-01T14:51:07Z</time></trkpt><trkpt lat="43.82759242911062" lon="12.222983144483722"><ele>455.0</ele><time>2026-05-01T14:51:08Z</time></trkpt><trkpt lat="43.827681035733676" lon="12.222833160144134"><ele>457.0</ele><time>2026-05-01T14:51:09Z</time></trkpt><trkpt lat="43.8277662485516" lon="12.22271232887416"><ele>459.0</ele><time>2026-05-01T14:51:10Z</time></trkpt><trkpt lat="43.82785590529334" lon="12.222580108520873"><ele>461.0</ele><time>2026-05-01T14:51:11Z</time></trkpt><trkpt lat="43.82794565653557" lon="12.2224586695912"><ele>463.0</ele><time>2026-05-01T14:51:12Z</time></trkpt><trkpt lat="43.828046990417214" lon="12.222309956790793"><ele>463.0</ele><time>2026-05-01T14:51:13Z</time></trkpt><trkpt lat="43.82813416771471" lon="12.222175253422353"><ele>462.99999999999994</ele><time>2026-05-01T14:51:14Z</time></trkpt><trkpt lat="43.82821388383383" lon="12.222077951779434"><ele>462.99999999999994</ele><time>2026-05-01T14:51:15Z</time></trkpt><trkpt lat="43.82829061130288" lon="12.222025342514927"><ele>463.0</ele><time>2026-05-01T14:51:16Z</time></trkpt><trkpt lat="43.82838149962952" lon="12.22203082675067"><ele>463.0</ele><time>2026-05-01T14:51:17Z</time></trkpt><trkpt lat="43.82846073547029" lon="12.222089714069492"><ele>464.25</ele><time>2026-05-01T14:51:18Z</time></trkpt><trkpt lat="43.828570433277775" lon="12.222153707121116"><ele>465.5</ele><time>2026-05-01T14:51:19.001Z</time></trkpt><trkpt lat="43.828677062977654" lon="12.2222405153755"><ele>466.75</ele><time>2026-05-01T14:51:20.001Z</time></trkpt><trkpt lat="43.82880885934996" lon="12.222303795418522"><ele>468.0</ele><time>2026-05-01T14:51:21.001Z</time></trkpt><trkpt lat="43.8289389093747" lon="12.222323841233028"><ele>468.75</ele><time>2026-05-01T14:51:22.001Z</time></trkpt><trkpt lat="43.82906615017576" lon="12.222314041648643"><ele>469.5</ele><time>2026-05-01T14:51:23.001Z</time></trkpt><trkpt lat="43.82918217566156" lon="12.222277542689497"><ele>470.25</ele><time>2026-05-01T14:51:24.001Z</time></trkpt><trkpt lat="43.829288729103446" lon="12.222225200008335"><ele>471.0</ele><time>2026-05-01T14:51:25.001Z</time></trkpt><trkpt lat="43.82938807979587" lon="12.222132438033402"><ele>471.5</ele><time>2026-05-01T14:51:26.001Z</time></trkpt><trkpt lat="43.82948897314128" lon="12.22201569363686"><ele>472.0</ele><time>2026-05-01T14:51:27.001Z</time></trkpt><trkpt lat="43.82958908948993" lon="12.221871340203458"><ele>472.5</ele><time>2026-05-01T14:51:28.001Z</time></trkpt><trkpt lat="43.829691073648" lon="12.221704805853744"><ele>473.0</ele><time>2026-05-01T14:51:29.001Z</time></trkpt><trkpt lat="43.82981560530927" lon="12.221557635319213"><ele>473.75</ele><time>2026-05-01T14:51:30.001Z</time></trkpt><trkpt lat="43.82991048063743" lon="12.221397525337043"><ele>474.5</ele><time>2026-05-01T14:51:31.001Z</time></trkpt><trkpt lat="43.83000736331312" lon="12.221292239038574"><ele>475.25</ele><time>2026-05-01T14:51:32.001Z</time></trkpt><trkpt lat="43.83011479606082" lon="12.221237348672275"><ele>476.0</ele><time>2026-05-01T14:51:33.001Z</time></trkpt><trkpt lat="43.830235984094166" lon="12.221172789758748"><ele>476.66666666666663</ele><time>2026-05-01T14:51:34.001Z</time></trkpt><trkpt lat="43.83036462177459" lon="12.221096116939824"><ele>477.33333333333337</ele><time>2026-05-01T14:51:35.001Z</time></trkpt><trkpt lat="43.830514454385536" lon="12.221023841590961"><ele>478.0</ele><time>2026-05-01T14:51:36.001Z</time></trkpt><trkpt lat="43.83066321086751" lon="12.220957021864617"><ele>478.0</ele><time>2026-05-01T14:51:37.001Z</time></trkpt><trkpt lat="43.83080906848063" lon="12.220880680123535"><ele>478.0</ele><time>2026-05-01T14:51:38.001Z</time></trkpt><trkpt lat="43.830930739679594" lon="12.220830165174862"><ele>478.0</ele><time>2026-05-01T14:51:39.001Z</time></trkpt><trkpt lat="43.83103313470816" lon="12.220770257809765"><ele>478.0</ele><time>2026-05-01T14:51:40.001Z</time></trkpt><trkpt lat="43.83110625114769" lon="12.220683051957135"><ele>480.0</ele><time>2026-05-01T14:51:41.001Z</time></trkpt><trkpt lat="43.831159159759856" lon="12.220582402342133"><ele>481.99999999999994</ele><time>2026-05-01T14:51:42.001Z</time></trkpt><trkpt lat="43.83118148685425" lon="12.220450200470955"><ele>483.99999999999994</ele><time>2026-05-01T14:51:43.001Z</time></trkpt><trkpt lat="43.83116437996236" lon="12.220295611459214"><ele>486.0</ele><time>2026-05-01T14:51:44.001Z</time></trkpt><trkpt lat="43.83112123096644" lon="12.220144203970959"><ele>488.0</ele><time>2026-05-01T14:51:45.001Z</time></trkpt><trkpt lat="43.831043293161535" lon="12.2200053554863"><ele>488.0</ele><time>2026-05-01T14:51:46.001Z</time></trkpt><trkpt lat="43.8309435515851" lon="12.219878085638127"><ele>488.0</ele><time>2026-05-01T14:51:47.001Z</time></trkpt><trkpt lat="43.83081805620227" lon="12.219771437114597"><ele>488.0</ele><time>2026-05-01T14:51:48.001Z</time></trkpt><trkpt lat="43.83067953932496" lon="12.219679054827406"><ele>488.0</ele><time>2026-05-01T14:51:49.001Z</time></trkpt><trkpt lat="43.83053049203905" lon="12.219579868508953"><ele>488.0</ele><time>2026-05-01T14:51:50.001Z</time></trkpt><trkpt lat="43.830394255215836" lon="12.219477151758932"><ele>488.0</ele><time>2026-05-01T14:51:51.001Z</time></trkpt><trkpt lat="43.83027576202101" lon="12.219385010374626"><ele>488.0</ele><time>2026-05-01T14:51:52.001Z</time></trkpt><trkpt lat="43.83019680304543" lon="12.21930374130208"><ele>488.0</ele><time>2026-05-01T14:51:53.001Z</time></trkpt><trkpt lat="43.83012265393378" lon="12.219184272929848"><ele>488.2</ele><time>2026-05-01T14:51:54.001Z</time></trkpt><trkpt lat="43.83009390020142" lon="12.219062146640418"><ele>488.4</ele><time>2026-05-01T14:51:55.001Z</time></trkpt><trkpt lat="43.83007069050171" lon="12.218919026257309"><ele>488.59999999999997</ele><time>2026-05-01T14:51:56.001Z</time></trkpt><trkpt lat="43.83010358612223" lon="12.218760564925592"><ele>488.79999999999995</ele><time>2026-05-01T14:51:57.001Z</time></trkpt><trkpt lat="43.83013017076903" lon="12.218601277122023"><ele>489.0</ele><time>2026-05-01T14:51:58.001Z</time></trkpt><trkpt lat="43.83019292940577" lon="12.218433004448444"><ele>491.0</ele><time>2026-05-01T14:51:59.001Z</time></trkpt><trkpt lat="43.83027961662347" lon="12.21825674313289"><ele>493.0</ele><time>2026-05-01T14:52:00.001Z</time></trkpt><trkpt lat="43.83038998982083" lon="12.218075686045278"><ele>495.0</ele><time>2026-05-01T14:52:01.001Z</time></trkpt><trkpt lat="43.83050498505924" lon="12.217908002050015"><ele>495.66666666666663</ele><time>2026-05-01T14:52:02.001Z</time></trkpt><trkpt lat="43.830607206858616" lon="12.217734898516701"><ele>496.3333333333333</ele><time>2026-05-01T14:52:03.001Z</time></trkpt><trkpt lat="43.83070706101188" lon="12.217560108782386"><ele>497.0</ele><time>2026-05-01T14:52:04.001Z</time></trkpt><trkpt lat="43.830804460530906" lon="12.217397351134267"><ele>496.0</ele><time>2026-05-01T14:52:05.001Z</time></trkpt><trkpt lat="43.830910306109594" lon="12.21722952333308"><ele>495.0</ele><time>2026-05-01T14:52:06.001Z</time></trkpt><trkpt lat="43.83101943994239" lon="12.217067083214875"><ele>494.0</ele><time>2026-05-01T14:52:07.001Z</time></trkpt><trkpt lat="43.831115615299964" lon="12.2169200174571"><ele>496.0</ele><time>2026-05-01T14:52:08.001Z</time></trkpt><trkpt lat="43.83122668940451" lon="12.216818257445963"><ele>498.0</ele><time>2026-05-01T14:52:09.001Z</time></trkpt><trkpt lat="43.831344791625654" lon="12.216724811479525"><ele>500.0</ele><time>2026-05-01T14:52:10.001Z</time></trkpt><trkpt lat="43.83148727222426" lon="12.216657460666923"><ele>502.0</ele><time>2026-05-01T14:52:11.001Z</time></trkpt><trkpt lat="43.831641729781566" lon="12.21656533164109"><ele>502.6666666666667</ele><time>2026-05-01T14:52:12.001Z</time></trkpt><trkpt lat="43.83180785735871" lon="12.216502482244316"><ele>503.33333333333337</ele><time>2026-05-01T14:52:13.001Z</time></trkpt><trkpt lat="43.83196115217866" lon="12.216421324830561"><ele>504.0</ele><time>2026-05-01T14:52:14.001Z</time></trkpt><trkpt lat="43.83211378447583" lon="12.216333345445635"><ele>504.0</ele><time>2026-05-01T14:52:15.001Z</time></trkpt><trkpt lat="43.83225341681567" lon="12.216229242747815"><ele>504.0</ele><time>2026-05-01T14:52:16Z</time></trkpt><trkpt lat="43.832373142079575" lon="12.216124533390813"><ele>504.0</ele><time>2026-05-01T14:52:17Z</time></trkpt><trkpt lat="43.83247678884739" lon="12.216035608195401"><ele>504.0</ele><time>2026-05-01T14:52:18Z</time></trkpt><trkpt lat="43.83258750447357" lon="12.215978616573354"><ele>505.25</ele><time>2026-05-01T14:52:19Z</time></trkpt><trkpt lat="43.83270415785925" lon="12.215978287590946"><ele>506.5</ele><time>2026-05-01T14:52:20Z</time></trkpt><trkpt lat="43.83283010991458" lon="12.215992588198807"><ele>507.75</ele><time>2026-05-01T14:52:21Z</time></trkpt><trkpt lat="43.83297490152103" lon="12.215992159406468"><ele>509.0</ele><time>2026-05-01T14:52:22Z</time></trkpt><trkpt lat="43.833121613168096" lon="12.21602483850335"><ele>509.0</ele><time>2026-05-01T14:52:23Z</time></trkpt><trkpt lat="43.83328154601935" lon="12.216044600398693"><ele>509.0</ele><time>2026-05-01T14:52:24Z</time></trkpt><trkpt lat="43.83344510234809" lon="12.2160646547998"><ele>509.0</ele><time>2026-05-01T14:52:25Z</time></trkpt><trkpt lat="43.83361604269496" lon="12.216089199545781"><ele>511.66666666666663</ele><time>2026-05-01T14:52:26Z</time></trkpt><trkpt lat="43.833792808565086" lon="12.216107737608441"><ele>514.3333333333334</ele><time>2026-05-01T14:52:27Z</time></trkpt><trkpt lat="43.83397656566955" lon="12.216121264864874"><ele>517.0</ele><time>2026-05-01T14:52:28Z</time></trkpt><trkpt lat="43.834164563410766" lon="12.216140451693665"><ele>519.0</ele><time>2026-05-01T14:52:29Z</time></trkpt><trkpt lat="43.83435679300712" lon="12.216160345994673"><ele>521.0</ele><time>2026-05-01T14:52:30Z</time></trkpt><trkpt lat="43.83455411819481" lon="12.216185334685585"><ele>523.0</ele><time>2026-05-01T14:52:31Z</time></trkpt><trkpt lat="43.83475073990697" lon="12.216208325311428"><ele>523.0</ele><time>2026-05-01T14:52:32Z</time></trkpt><trkpt lat="43.8349338778165" lon="12.216233733592746"><ele>523.0</ele><time>2026-05-01T14:52:33Z</time></trkpt><trkpt lat="43.835092720002336" lon="12.216260013872182"><ele>523.0</ele><time>2026-05-01T14:52:34Z</time></trkpt><trkpt lat="43.835245737631915" lon="12.216275082553187"><ele>524.5</ele><time>2026-05-01T14:52:35Z</time></trkpt><trkpt lat="43.83539341711047" lon="12.216285461523652"><ele>526.0</ele><time>2026-05-01T14:52:36Z</time></trkpt><trkpt lat="43.83553830373008" lon="12.216281330739273"><ele>527.5</ele><time>2026-05-01T14:52:37Z</time></trkpt><trkpt lat="43.83568025839117" lon="12.216251783291813"><ele>529.0</ele><time>2026-05-01T14:52:38Z</time></trkpt><trkpt lat="43.835819993602854" lon="12.216209372681483"><ele>529.0</ele><time>2026-05-01T14:52:39Z</time></trkpt><trkpt lat="43.8359684885871" lon="12.216153483474832"><ele>529.0</ele><time>2026-05-01T14:52:40Z</time></trkpt><trkpt lat="43.83612348734426" lon="12.21612747163841"><ele>529.0</ele><time>2026-05-01T14:52:41Z</time></trkpt><trkpt lat="43.83627784709116" lon="12.216080799270175"><ele>531.0</ele><time>2026-05-01T14:52:42Z</time></trkpt><trkpt lat="43.83643358867607" lon="12.216035221348866"><ele>533.0</ele><time>2026-05-01T14:52:43Z</time></trkpt><trkpt lat="43.836587108670464" lon="12.215992332647458"><ele>535.0</ele><time>2026-05-01T14:52:44Z</time></trkpt><trkpt lat="43.836738392009984" lon="12.21595920862531"><ele>537.25</ele><time>2026-05-01T14:52:45Z</time></trkpt><trkpt lat="43.83688465867322" lon="12.215940415241665"><ele>539.5</ele><time>2026-05-01T14:52:46Z</time></trkpt><trkpt lat="43.83702982483343" lon="12.21593232419407"><ele>541.75</ele><time>2026-05-01T14:52:47Z</time></trkpt><trkpt lat="43.83716841629461" lon="12.215936562514697"><ele>544.0</ele><time>2026-05-01T14:52:48Z</time></trkpt><trkpt lat="43.83730390363055" lon="12.215960322597986"><ele>544.0</ele><time>2026-05-01T14:52:49Z</time></trkpt><trkpt lat="43.83744498795561" lon="12.216000440425551"><ele>544.0</ele><time>2026-05-01T14:52:50Z</time></trkpt><trkpt lat="43.837587527320686" lon="12.216050758394447"><ele>544.0</ele><time>2026-05-01T14:52:51Z</time></trkpt><trkpt lat="43.83774140502827" lon="12.216088434788665"><ele>544.0</ele><time>2026-05-01T14:52:52Z</time></trkpt><trkpt lat="43.837899944676515" lon="12.216148526156731"><ele>546.0</ele><time>2026-05-01T14:52:53Z</time></trkpt><trkpt lat="43.83806324400042" lon="12.216213094868577"><ele>548.0</ele><time>2026-05-01T14:52:54Z</time></trkpt><trkpt lat="43.83823205982177" lon="12.216276924421484"><ele>550.0</ele><time>2026-05-01T14:52:55Z</time></trkpt><trkpt lat="43.83839926699171" lon="12.216332438095462"><ele>552.3333333333334</ele><time>2026-05-01T14:52:56Z</time></trkpt><trkpt lat="43.83856316132764" lon="12.216381801455414"><ele>554.6666666666666</ele><time>2026-05-01T14:52:57Z</time></trkpt><trkpt lat="43.83871057620787" lon="12.216428703133682"><ele>557.0</ele><time>2026-05-01T14:52:58Z</time></trkpt><trkpt lat="43.83884323627354" lon="12.216460347944473"><ele>557.0</ele><time>2026-05-01T14:52:59Z</time></trkpt><trkpt lat="43.83897058142712" lon="12.21648936654506"><ele>557.0</ele><time>2026-05-01T14:53:00Z</time></trkpt><trkpt lat="43.839094934556385" lon="12.216495580633831"><ele>557.0</ele><time>2026-05-01T14:53:01Z</time></trkpt><trkpt lat="43.83921640012575" lon="12.21648022205618"><ele>557.0</ele><time>2026-05-01T14:53:02Z</time></trkpt><trkpt lat="43.83933962331749" lon="12.216459382661329"><ele>558.4</ele><time>2026-05-01T14:53:03Z</time></trkpt><trkpt lat="43.83944499948391" lon="12.216426018922563"><ele>559.8000000000001</ele><time>2026-05-01T14:53:04Z</time></trkpt><trkpt lat="43.8395364904389" lon="12.216386782194594"><ele>561.2</ele><time>2026-05-01T14:53:05Z</time></trkpt><trkpt lat="43.83961685116159" lon="12.216325031885043"><ele>562.6</ele><time>2026-05-01T14:53:06Z</time></trkpt><trkpt lat="43.83969232552079" lon="12.216250264501886"><ele>564.0</ele><time>2026-05-01T14:53:07Z</time></trkpt><trkpt lat="43.83972009067931" lon="12.216106015202737"><ele>564.0</ele><time>2026-05-01T14:53:08Z</time></trkpt><trkpt lat="43.839740155589546" lon="12.21596552748184"><ele>564.0</ele><time>2026-05-01T14:53:09Z</time></trkpt><trkpt lat="43.839756530139034" lon="12.215823330881816"><ele>564.0</ele><time>2026-05-01T14:53:10Z</time></trkpt><trkpt lat="43.83976485835236" lon="12.21568794102375"><ele>564.0</ele><time>2026-05-01T14:53:11Z</time></trkpt><trkpt lat="43.83974220077055" lon="12.215556069459897"><ele>564.0</ele><time>2026-05-01T14:53:12Z</time></trkpt><trkpt lat="43.83968117028482" lon="12.21543154591454"><ele>565.5</ele><time>2026-05-01T14:53:13Z</time></trkpt><trkpt lat="43.83958819770708" lon="12.21531847058785"><ele>567.0</ele><time>2026-05-01T14:53:14Z</time></trkpt><trkpt lat="43.8395180932734" lon="12.215188433759774"><ele>568.5</ele><time>2026-05-01T14:53:15Z</time></trkpt><trkpt lat="43.839466747692605" lon="12.215061229482007"><ele>570.0</ele><time>2026-05-01T14:53:16Z</time></trkpt><trkpt lat="43.83943664672099" lon="12.214898855961197"><ele>572.75</ele><time>2026-05-01T14:53:17.001Z</time></trkpt><trkpt lat="43.83940242566025" lon="12.214709563679461"><ele>575.5</ele><time>2026-05-01T14:53:18.001Z</time></trkpt><trkpt lat="43.83935247866006" lon="12.214512627279467"><ele>578.25</ele><time>2026-05-01T14:53:19.001Z</time></trkpt><trkpt lat="43.83932553414575" lon="12.214333947003754"><ele>581.0</ele><time>2026-05-01T14:53:20.001Z</time></trkpt><trkpt lat="43.83931504071375" lon="12.214217606743713"><ele>581.0</ele><time>2026-05-01T14:53:21.001Z</time></trkpt><trkpt lat="43.83937494767698" lon="12.214093638306199"><ele>581.0</ele><time>2026-05-01T14:53:23.001Z</time></trkpt><trkpt lat="43.839503223939076" lon="12.214126920651099"><ele>581.0</ele><time>2026-05-01T14:53:25.001Z</time></trkpt><trkpt lat="43.83958349161266" lon="12.214195689841254"><ele>581.0</ele><time>2026-05-01T14:53:26.001Z</time></trkpt><trkpt lat="43.839671623510284" lon="12.21426549108216"><ele>581.0</ele><time>2026-05-01T14:53:27.001Z</time></trkpt><trkpt lat="43.839771289067286" lon="12.214336045758666"><ele>581.0</ele><time>2026-05-01T14:53:28.001Z</time></trkpt><trkpt lat="43.839851753269606" lon="12.214395965639321"><ele>581.0</ele><time>2026-05-01T14:53:29.001Z</time></trkpt><trkpt lat="43.83994519159272" lon="12.2144559173292"><ele>581.0</ele><time>2026-05-01T14:53:30.001Z</time></trkpt><trkpt lat="43.84004551808997" lon="12.214521371485949"><ele>581.0</ele><time>2026-05-01T14:53:31.001Z</time></trkpt><trkpt lat="43.84015483366752" lon="12.21456577909812"><ele>581.0</ele><time>2026-05-01T14:53:32.001Z</time></trkpt><trkpt lat="43.84027419536173" lon="12.214591540543028"><ele>583.0</ele><time>2026-05-01T14:53:33.001Z</time></trkpt><trkpt lat="43.84040182032851" lon="12.21459480060299"><ele>585.0</ele><time>2026-05-01T14:53:34.001Z</time></trkpt><trkpt lat="43.84050933466108" lon="12.214586909500436"><ele>587.0</ele><time>2026-05-01T14:53:35.001Z</time></trkpt><trkpt lat="43.8406067219472" lon="12.214596310745458"><ele>589.0</ele><time>2026-05-01T14:53:36.001Z</time></trkpt><trkpt lat="43.84069790175091" lon="12.214654012418205"><ele>591.0</ele><time>2026-05-01T14:53:37.001Z</time></trkpt><trkpt lat="43.840792583221585" lon="12.214751709188059"><ele>591.0</ele><time>2026-05-01T14:53:38.001Z</time></trkpt><trkpt lat="43.840881574256834" lon="12.214847607062454"><ele>591.0</ele><time>2026-05-01T14:53:39.001Z</time></trkpt><trkpt lat="43.84098020196747" lon="12.214953749332677"><ele>591.0</ele><time>2026-05-01T14:53:40.001Z</time></trkpt><trkpt lat="43.8410797373005" lon="12.215018281961115"><ele>591.0</ele><time>2026-05-01T14:53:41.001Z</time></trkpt><trkpt lat="43.84116212923615" lon="12.21506352324482"><ele>591.0</ele><time>2026-05-01T14:53:42.001Z</time></trkpt><trkpt lat="43.841240160018835" lon="12.215081223451158"><ele>591.0</ele><time>2026-05-01T14:53:43.001Z</time></trkpt><trkpt lat="43.84131439413657" lon="12.215085273619314"><ele>591.0</ele><time>2026-05-01T14:53:44.001Z</time></trkpt><trkpt lat="43.84139050248414" lon="12.215058420586473"><ele>591.0</ele><time>2026-05-01T14:53:45.001Z</time></trkpt><trkpt lat="43.84144104222288" lon="12.215000401089098"><ele>591.0</ele><time>2026-05-01T14:53:46.001Z</time></trkpt><trkpt lat="43.84146625915039" lon="12.21491407450938"><ele>591.0</ele><time>2026-05-01T14:53:47.001Z</time></trkpt><trkpt lat="43.84147093105798" lon="12.214814822579264"><ele>591.0</ele><time>2026-05-01T14:53:48.001Z</time></trkpt><trkpt lat="43.841447470735034" lon="12.214706777160401"><ele>591.0</ele><time>2026-05-01T14:53:49.001Z</time></trkpt><trkpt lat="43.84141125542987" lon="12.214583384414674"><ele>593.5</ele><time>2026-05-01T14:53:50.001Z</time></trkpt><trkpt lat="43.84135837750773" lon="12.214445182441573"><ele>596.0</ele><time>2026-05-01T14:53:51.001Z</time></trkpt><trkpt lat="43.84129459975357" lon="12.214282885972567"><ele>598.5</ele><time>2026-05-01T14:53:52.001Z</time></trkpt><trkpt lat="43.84122753929576" lon="12.214094696063666"><ele>601.0</ele><time>2026-05-01T14:53:53.001Z</time></trkpt><trkpt lat="43.841167987928046" lon="12.213926505903519"><ele>602.4</ele><time>2026-05-01T14:53:54.001Z</time></trkpt><trkpt lat="43.84110888621315" lon="12.213755213553243"><ele>603.8</ele><time>2026-05-01T14:53:55.001Z</time></trkpt><trkpt lat="43.84105326317392" lon="12.21360123603165"><ele>605.1999999999999</ele><time>2026-05-01T14:53:56.001Z</time></trkpt><trkpt lat="43.84101547524376" lon="12.213481306156844"><ele>606.6</ele><time>2026-05-01T14:53:57.001Z</time></trkpt><trkpt lat="43.841025447484725" lon="12.213378622820848"><ele>608.0</ele><time>2026-05-01T14:53:58.001Z</time></trkpt><trkpt lat="43.841104087835966" lon="12.213248914881731"><ele>608.0</ele><time>2026-05-01T14:54:00.001Z</time></trkpt><trkpt lat="43.84117971833037" lon="12.213223254361829"><ele>608.0</ele><time>2026-05-01T14:54:01.001Z</time></trkpt><trkpt lat="43.8412742203018" lon="12.213212832718407"><ele>608.0</ele><time>2026-05-01T14:54:02.001Z</time></trkpt><trkpt lat="43.841351163089655" lon="12.2132643694392"><ele>608.0</ele><time>2026-05-01T14:54:03.001Z</time></trkpt><trkpt lat="43.84142051648607" lon="12.213342521580937"><ele>608.0</ele><time>2026-05-01T14:54:04.001Z</time></trkpt><trkpt lat="43.841512270565204" lon="12.213443369289726"><ele>608.0</ele><time>2026-05-01T14:54:05.001Z</time></trkpt><trkpt lat="43.841611625773695" lon="12.213545596475997"><ele>608.0</ele><time>2026-05-01T14:54:06.001Z</time></trkpt><trkpt lat="43.84170594535881" lon="12.213656368490046"><ele>608.0</ele><time>2026-05-01T14:54:07.001Z</time></trkpt><trkpt lat="43.84179639948977" lon="12.213765722970743"><ele>608.0</ele><time>2026-05-01T14:54:08.001Z</time></trkpt><trkpt lat="43.84190084414408" lon="12.213868276493782"><ele>610.5</ele><time>2026-05-01T14:54:09.001Z</time></trkpt><trkpt lat="43.8420165834889" lon="12.21395833584577"><ele>613.0</ele><time>2026-05-01T14:54:10.001Z</time></trkpt><trkpt lat="43.8421412319117" lon="12.214026076494058"><ele>615.5</ele><time>2026-05-01T14:54:11.001Z</time></trkpt><trkpt lat="43.84226102669401" lon="12.214069937354358"><ele>618.0</ele><time>2026-05-01T14:54:12.001Z</time></trkpt><trkpt lat="43.84236565135633" lon="12.21413586182967"><ele>618.0</ele><time>2026-05-01T14:54:13.001Z</time></trkpt><trkpt lat="43.84245216202147" lon="12.214242176149734"><ele>618.0</ele><time>2026-05-01T14:54:14.001Z</time></trkpt><trkpt lat="43.842509282020735" lon="12.214394600392492"><ele>618.0</ele><time>2026-05-01T14:54:15.001Z</time></trkpt><trkpt lat="43.842565292402824" lon="12.21453957650306"><ele>618.0</ele><time>2026-05-01T14:54:16.001Z</time></trkpt><trkpt lat="43.84262972647934" lon="12.214656055975754"><ele>619.6</ele><time>2026-05-01T14:54:17.001Z</time></trkpt><trkpt lat="43.84269622070393" lon="12.214718067158397"><ele>621.1999999999999</ele><time>2026-05-01T14:54:18.001Z</time></trkpt><trkpt lat="43.84279873576851" lon="12.214701198975517"><ele>622.8</ele><time>2026-05-01T14:54:20.001Z</time></trkpt><trkpt lat="43.84284002960811" lon="12.214560973269954"><ele>624.4</ele><time>2026-05-01T14:54:22Z</time></trkpt><trkpt lat="43.84281855971852" lon="12.214454780031407"><ele>626.0</ele><time>2026-05-01T14:54:23Z</time></trkpt><trkpt lat="43.842755168808054" lon="12.214353130608568"><ele>626.0</ele><time>2026-05-01T14:54:24Z</time></trkpt><trkpt lat="43.8427051592671" lon="12.214239526975483"><ele>626.0</ele><time>2026-05-01T14:54:25Z</time></trkpt><trkpt lat="43.84265968439214" lon="12.21412653444811"><ele>626.0</ele><time>2026-05-01T14:54:26Z</time></trkpt><trkpt lat="43.84261291037081" lon="12.214004441366688"><ele>626.0</ele><time>2026-05-01T14:54:27Z</time></trkpt><trkpt lat="43.84256404269908" lon="12.213864232765866"><ele>626.0</ele><time>2026-05-01T14:54:28Z</time></trkpt><trkpt lat="43.842520154905415" lon="12.213716705680383"><ele>625.6</ele><time>2026-05-01T14:54:29Z</time></trkpt><trkpt lat="43.84247165412319" lon="12.213582594888534"><ele>625.2</ele><time>2026-05-01T14:54:30Z</time></trkpt><trkpt lat="43.842438023016044" lon="12.213473130656576"><ele>624.8</ele><time>2026-05-01T14:54:31Z</time></trkpt><trkpt lat="43.84241339451944" lon="12.213380759610398"><ele>624.4</ele><time>2026-05-01T14:54:32Z</time></trkpt><trkpt lat="43.84245401231954" lon="12.213248348465779"><ele>624.0</ele><time>2026-05-01T14:54:34Z</time></trkpt><trkpt lat="43.84255643779273" lon="12.213209650445606"><ele>626.4</ele><time>2026-05-01T14:54:36Z</time></trkpt><trkpt lat="43.84265030733319" lon="12.213335963970986"><ele>628.8</ele><time>2026-05-01T14:54:38Z</time></trkpt><trkpt lat="43.842717005658436" lon="12.21339173623661"><ele>631.2</ele><time>2026-05-01T14:54:39Z</time></trkpt><trkpt lat="43.84277014723724" lon="12.213485741738815"><ele>633.6</ele><time>2026-05-01T14:54:40Z</time></trkpt><trkpt lat="43.84283657955732" lon="12.2135907679876"><ele>636.0</ele><time>2026-05-01T14:54:41Z</time></trkpt><trkpt lat="43.84290236254573" lon="12.213692799768237"><ele>636.0</ele><time>2026-05-01T14:54:42Z</time></trkpt><trkpt lat="43.84295031802637" lon="12.213766480929694"><ele>636.0</ele><time>2026-05-01T14:54:43Z</time></trkpt><trkpt lat="43.84304051984591" lon="12.213844936685673"><ele>636.0</ele><time>2026-05-01T14:54:45Z</time></trkpt><trkpt lat="43.8431254132295" lon="12.213771132912994"><ele>636.0</ele><time>2026-05-01T14:54:47Z</time></trkpt><trkpt lat="43.84312685471361" lon="12.213636991780367"><ele>636.0</ele><time>2026-05-01T14:54:49Z</time></trkpt><trkpt lat="43.8430809040587" lon="12.213515656008887"><ele>636.0</ele><time>2026-05-01T14:54:51Z</time></trkpt><trkpt lat="43.843035222279624" lon="12.21337467238781"><ele>636.0</ele><time>2026-05-01T14:54:53Z</time></trkpt><trkpt lat="43.84298270535195" lon="12.213207152928321"><ele>636.0</ele><time>2026-05-01T14:54:55Z</time></trkpt><trkpt lat="43.8429683123287" lon="12.213119605473686"><ele>636.0</ele><time>2026-05-01T14:54:56Z</time></trkpt><trkpt lat="43.842970230060025" lon="12.21302100045183"><ele>636.0</ele><time>2026-05-01T14:54:57Z</time></trkpt><trkpt lat="43.84300846970668" lon="12.212936902926732"><ele>635.5</ele><time>2026-05-01T14:54:58Z</time></trkpt><trkpt lat="43.84305922517155" lon="12.212872059659404"><ele>635.0</ele><time>2026-05-01T14:54:59Z</time></trkpt><trkpt lat="43.84312856538478" lon="12.212823701268109"><ele>634.5</ele><time>2026-05-01T14:55:00Z</time></trkpt><trkpt lat="43.843218566097825" lon="12.212828609588922"><ele>634.0</ele><time>2026-05-01T14:55:01Z</time></trkpt><trkpt lat="43.843311109862135" lon="12.212795359941834"><ele>633.5</ele><time>2026-05-01T14:55:02Z</time></trkpt><trkpt lat="43.84341626878399" lon="12.212796523576754"><ele>633.0</ele><time>2026-05-01T14:55:03Z</time></trkpt><trkpt lat="43.84354204055027" lon="12.212786864881112"><ele>635.5</ele><time>2026-05-01T14:55:04Z</time></trkpt><trkpt lat="43.84368483667826" lon="12.212764713776208"><ele>638.0</ele><time>2026-05-01T14:55:05Z</time></trkpt><trkpt lat="43.84383052524947" lon="12.212726887154115"><ele>640.5</ele><time>2026-05-01T14:55:06Z</time></trkpt><trkpt lat="43.843965553512035" lon="12.21266017693042"><ele>643.0</ele><time>2026-05-01T14:55:07Z</time></trkpt><trkpt lat="43.84411172528127" lon="12.212618087130348"><ele>643.0</ele><time>2026-05-01T14:55:08Z</time></trkpt><trkpt lat="43.84426550040663" lon="12.212590562976832"><ele>643.0</ele><time>2026-05-01T14:55:09Z</time></trkpt><trkpt lat="43.84440458251173" lon="12.212609601460978"><ele>643.0</ele><time>2026-05-01T14:55:10Z</time></trkpt><trkpt lat="43.84453639863807" lon="12.21259310120334"><ele>643.0</ele><time>2026-05-01T14:55:11Z</time></trkpt><trkpt lat="43.84465847908399" lon="12.212541625311594"><ele>645.0</ele><time>2026-05-01T14:55:12Z</time></trkpt><trkpt lat="43.844781269934856" lon="12.212453087072094"><ele>647.0</ele><time>2026-05-01T14:55:13Z</time></trkpt><trkpt lat="43.844891775801834" lon="12.212396841367566"><ele>649.0</ele><time>2026-05-01T14:55:14Z</time></trkpt><trkpt lat="43.84500355684272" lon="12.212386722069615"><ele>651.0</ele><time>2026-05-01T14:55:15Z</time></trkpt><trkpt lat="43.845121194520985" lon="12.21241149317988"><ele>652.5</ele><time>2026-05-01T14:55:16Z</time></trkpt><trkpt lat="43.845239875947776" lon="12.212473002103133"><ele>654.0</ele><time>2026-05-01T14:55:17Z</time></trkpt><trkpt lat="43.84535427842825" lon="12.212551933307525"><ele>655.5</ele><time>2026-05-01T14:55:18Z</time></trkpt><trkpt lat="43.845463522084664" lon="12.212620032613026"><ele>657.0</ele><time>2026-05-01T14:55:19Z</time></trkpt><trkpt lat="43.84557465552119" lon="12.212646054326173"><ele>657.0</ele><time>2026-05-01T14:55:20Z</time></trkpt><trkpt lat="43.84569430448208" lon="12.212632112482856"><ele>657.0</ele><time>2026-05-01T14:55:21Z</time></trkpt><trkpt lat="43.84582696944375" lon="12.212578204497198"><ele>657.0</ele><time>2026-05-01T14:55:22Z</time></trkpt><trkpt lat="43.84597623196145" lon="12.212535524489333"><ele>657.0</ele><time>2026-05-01T14:55:23Z</time></trkpt><trkpt lat="43.84613117033899" lon="12.212509721589184"><ele>660.5</ele><time>2026-05-01T14:55:24.001Z</time></trkpt><trkpt lat="43.84628025182675" lon="12.212500018257757"><ele>664.0</ele><time>2026-05-01T14:55:25.001Z</time></trkpt><trkpt lat="43.846418626725026" lon="12.212487663416969"><ele>667.5</ele><time>2026-05-01T14:55:26.001Z</time></trkpt><trkpt lat="43.84654883405474" lon="12.212480245879313"><ele>671.0</ele><time>2026-05-01T14:55:27.001Z</time></trkpt><trkpt lat="43.846684495808844" lon="12.212459909264705"><ele>676.3333333333333</ele><time>2026-05-01T14:55:28.001Z</time></trkpt><trkpt lat="43.84682793483964" lon="12.212414294067436"><ele>681.6666666666666</ele><time>2026-05-01T14:55:29.001Z</time></trkpt><trkpt lat="43.84697778585228" lon="12.21236196697994"><ele>687.0</ele><time>2026-05-01T14:55:30.001Z</time></trkpt><trkpt lat="43.84712935183547" lon="12.212331157097825"><ele>687.0</ele><time>2026-05-01T14:55:31.001Z</time></trkpt><trkpt lat="43.84726180860006" lon="12.212328512791643"><ele>687.0</ele><time>2026-05-01T14:55:32.001Z</time></trkpt><trkpt lat="43.84736723681155" lon="12.21231903499831"><ele>687.0</ele><time>2026-05-01T14:55:33.001Z</time></trkpt><trkpt lat="43.84745989343012" lon="12.212293786461682"><ele>687.0</ele><time>2026-05-01T14:55:34.001Z</time></trkpt><trkpt lat="43.8475491677398" lon="12.212251541870842"><ele>687.0</ele><time>2026-05-01T14:55:35.001Z</time></trkpt><trkpt lat="43.8476402455367" lon="12.212193050458174"><ele>691.5</ele><time>2026-05-01T14:55:36.001Z</time></trkpt><trkpt lat="43.8477326996794" lon="12.2121306493631"><ele>696.0</ele><time>2026-05-01T14:55:37.001Z</time></trkpt><trkpt lat="43.84782739639508" lon="12.212044868875783"><ele>700.5</ele><time>2026-05-01T14:55:38.001Z</time></trkpt><trkpt lat="43.84791454912909" lon="12.21193185456782"><ele>705.0</ele><time>2026-05-01T14:55:39.001Z</time></trkpt><trkpt lat="43.847991989787594" lon="12.21178707538534"><ele>705.0</ele><time>2026-05-01T14:55:40.001Z</time></trkpt><trkpt lat="43.848054244514714" lon="12.211616988036315"><ele>705.0</ele><time>2026-05-01T14:55:41.001Z</time></trkpt><trkpt lat="43.8481151371146" lon="12.211429077016996"><ele>705.0</ele><time>2026-05-01T14:55:42.001Z</time></trkpt><trkpt lat="43.848178404635604" lon="12.211254289590919"><ele>705.0</ele><time>2026-05-01T14:55:43.001Z</time></trkpt><trkpt lat="43.84823609061678" lon="12.211078329917076"><ele>703.6</ele><time>2026-05-01T14:55:44.001Z</time></trkpt><trkpt lat="43.848291186641504" lon="12.210905982576126"><ele>702.2</ele><time>2026-05-01T14:55:45.001Z</time></trkpt><trkpt lat="43.84835488328703" lon="12.210780321248173"><ele>700.8</ele><time>2026-05-01T14:55:46.001Z</time></trkpt><trkpt lat="43.84837973163873" lon="12.210631245135655"><ele>699.4</ele><time>2026-05-01T14:55:47.001Z</time></trkpt><trkpt lat="43.84841206602585" lon="12.210523199583857"><ele>698.0</ele><time>2026-05-01T14:55:48.001Z</time></trkpt><trkpt lat="43.84843771640909" lon="12.21041197874789"><ele>697.8333333333333</ele><time>2026-05-01T14:55:49.001Z</time></trkpt><trkpt lat="43.84847110779537" lon="12.210308372512834"><ele>697.6666666666666</ele><time>2026-05-01T14:55:50.001Z</time></trkpt><trkpt lat="43.84852011413046" lon="12.210208473450049"><ele>697.5</ele><time>2026-05-01T14:55:51.001Z</time></trkpt><trkpt lat="43.84858171505568" lon="12.210128490969248"><ele>697.3333333333334</ele><time>2026-05-01T14:55:52.001Z</time></trkpt><trkpt lat="43.848651875376795" lon="12.210076467591504"><ele>697.1666666666667</ele><time>2026-05-01T14:55:53.001Z</time></trkpt><trkpt lat="43.84873660307794" lon="12.210045565072326"><ele>697.0</ele><time>2026-05-01T14:55:54.001Z</time></trkpt><trkpt lat="43.84882529248104" lon="12.210047792571773"><ele>697.0</ele><time>2026-05-01T14:55:55.001Z</time></trkpt><trkpt lat="43.84891595436455" lon="12.210117134810115"><ele>697.0</ele><time>2026-05-01T14:55:56.001Z</time></trkpt><trkpt lat="43.84902039638058" lon="12.210139701654311"><ele>697.0</ele><time>2026-05-01T14:55:57.001Z</time></trkpt><trkpt lat="43.84913901348375" lon="12.210168652819494"><ele>697.0</ele><time>2026-05-01T14:55:58.001Z</time></trkpt><trkpt lat="43.84926460910977" lon="12.210201842719234"><ele>697.5</ele><time>2026-05-01T14:55:59.001Z</time></trkpt><trkpt lat="43.84940200539295" lon="12.21022647320933"><ele>698.0</ele><time>2026-05-01T14:56:00.001Z</time></trkpt><trkpt lat="43.84951975465016" lon="12.210277309833142"><ele>698.5</ele><time>2026-05-01T14:56:01.001Z</time></trkpt><trkpt lat="43.8496429932813" lon="12.210298507486868"><ele>699.0</ele><time>2026-05-01T14:56:02.001Z</time></trkpt><trkpt lat="43.849780270630255" lon="12.210327268800238"><ele>699.0</ele><time>2026-05-01T14:56:03.001Z</time></trkpt><trkpt lat="43.84990622315035" lon="12.210323534086566"><ele>699.0</ele><time>2026-05-01T14:56:04.001Z</time></trkpt><trkpt lat="43.85000165574582" lon="12.210347474892878"><ele>699.0</ele><time>2026-05-01T14:56:05.001Z</time></trkpt><trkpt lat="43.85008372132192" lon="12.210362902203736"><ele>699.0</ele><time>2026-05-01T14:56:06.001Z</time></trkpt><trkpt lat="43.85016356963682" lon="12.21042222342661"><ele>699.0</ele><time>2026-05-01T14:56:07.001Z</time></trkpt><trkpt lat="43.85023192698735" lon="12.210504890103978"><ele>700.4000000000001</ele><time>2026-05-01T14:56:08.001Z</time></trkpt><trkpt lat="43.85027174182116" lon="12.210614921460653"><ele>701.8</ele><time>2026-05-01T14:56:09.001Z</time></trkpt><trkpt lat="43.85027080380485" lon="12.210732720412683"><ele>703.2</ele><time>2026-05-01T14:56:10.001Z</time></trkpt><trkpt lat="43.85023377499073" lon="12.210840704647806"><ele>704.5999999999999</ele><time>2026-05-01T14:56:11.001Z</time></trkpt><trkpt lat="43.85016295425646" lon="12.210968351357367"><ele>706.0</ele><time>2026-05-01T14:56:12.001Z</time></trkpt><trkpt lat="43.850136028816635" lon="12.211099976808178"><ele>706.0</ele><time>2026-05-01T14:56:13.001Z</time></trkpt><trkpt lat="43.8501384780229" lon="12.211231010183024"><ele>706.0</ele><time>2026-05-01T14:56:14.001Z</time></trkpt><trkpt lat="43.8501695488337" lon="12.211370299990282"><ele>706.0</ele><time>2026-05-01T14:56:15.001Z</time></trkpt><trkpt lat="43.85022403945727" lon="12.211524547219167"><ele>706.0</ele><time>2026-05-01T14:56:16.001Z</time></trkpt><trkpt lat="43.85033333426782" lon="12.211650086599997"><ele>709.5</ele><time>2026-05-01T14:56:17.001Z</time></trkpt><trkpt lat="43.85044913154903" lon="12.21176294547671"><ele>713.0</ele><time>2026-05-01T14:56:18.001Z</time></trkpt><trkpt lat="43.85055081068171" lon="12.211866854782974"><ele>716.5</ele><time>2026-05-01T14:56:19.001Z</time></trkpt><trkpt lat="43.85063000646944" lon="12.21200464418117"><ele>720.0</ele><time>2026-05-01T14:56:20.001Z</time></trkpt><trkpt lat="43.850688773565004" lon="12.212178018143026"><ele>723.3333333333334</ele><time>2026-05-01T14:56:21.001Z</time></trkpt><trkpt lat="43.8507410722945" lon="12.212364910528446"><ele>726.6666666666667</ele><time>2026-05-01T14:56:22.001Z</time></trkpt><trkpt lat="43.85077919839589" lon="12.212574937301762"><ele>730.0</ele><time>2026-05-01T14:56:23.001Z</time></trkpt><trkpt lat="43.8508192337457" lon="12.212801156972922"><ele>730.0</ele><time>2026-05-01T14:56:24.001Z</time></trkpt><trkpt lat="43.85085430949193" lon="12.213020361959078"><ele>730.0</ele><time>2026-05-01T14:56:25.001Z</time></trkpt><trkpt lat="43.85087582574662" lon="12.213223332475813"><ele>730.0</ele><time>2026-05-01T14:56:26.001Z</time></trkpt><trkpt lat="43.850891652716975" lon="12.213405161402656"><ele>730.0</ele><time>2026-05-01T14:56:27.001Z</time></trkpt><trkpt lat="43.850908195840134" lon="12.213569352287523"><ele>730.75</ele><time>2026-05-01T14:56:28Z</time></trkpt><trkpt lat="43.85093744940849" lon="12.213730177218206"><ele>731.5</ele><time>2026-05-01T14:56:29Z</time></trkpt><trkpt lat="43.85098902853076" lon="12.213888017629127"><ele>732.25</ele><time>2026-05-01T14:56:30Z</time></trkpt><trkpt lat="43.85105760368704" lon="12.214030655948793"><ele>733.0</ele><time>2026-05-01T14:56:31Z</time></trkpt><trkpt lat="43.85114702532337" lon="12.214151974726096"><ele>735.5</ele><time>2026-05-01T14:56:32Z</time></trkpt><trkpt lat="43.85125594557731" lon="12.214230597037362"><ele>738.0</ele><time>2026-05-01T14:56:33Z</time></trkpt><trkpt lat="43.85139031270803" lon="12.214276195798307"><ele>740.5</ele><time>2026-05-01T14:56:34Z</time></trkpt><trkpt lat="43.851541503063686" lon="12.214310201473149"><ele>743.0</ele><time>2026-05-01T14:56:35Z</time></trkpt><trkpt lat="43.85169521618921" lon="12.214372769822846"><ele>743.5</ele><time>2026-05-01T14:56:36Z</time></trkpt><trkpt lat="43.851835827143596" lon="12.21445198121495"><ele>744.0</ele><time>2026-05-01T14:56:37Z</time></trkpt><trkpt lat="43.851921822893416" lon="12.214582636940689"><ele>744.5</ele><time>2026-05-01T14:56:38Z</time></trkpt><trkpt lat="43.85196860250945" lon="12.214709364370535"><ele>745.0</ele><time>2026-05-01T14:56:39Z</time></trkpt><trkpt lat="43.852026936098845" lon="12.214861898146113"><ele>746.0</ele><time>2026-05-01T14:56:40Z</time></trkpt><trkpt lat="43.852093508268865" lon="12.215016566172482"><ele>747.0</ele><time>2026-05-01T14:56:41Z</time></trkpt><trkpt lat="43.85215433694279" lon="12.215144808195696"><ele>748.0</ele><time>2026-05-01T14:56:42Z</time></trkpt><trkpt lat="43.852233937643305" lon="12.215233328334126"><ele>749.0</ele><time>2026-05-01T14:56:43Z</time></trkpt><trkpt lat="43.85232601516755" lon="12.215263965535573"><ele>750.0</ele><time>2026-05-01T14:56:44Z</time></trkpt><trkpt lat="43.852422165771415" lon="12.21525469746728"><ele>750.0</ele><time>2026-05-01T14:56:45Z</time></trkpt><trkpt lat="43.85253271795244" lon="12.21520564402849"><ele>750.0</ele><time>2026-05-01T14:56:46Z</time></trkpt><trkpt lat="43.85264890422762" lon="12.215147641087476"><ele>750.0</ele><time>2026-05-01T14:56:47Z</time></trkpt><trkpt lat="43.85275807283643" lon="12.21510702535509"><ele>750.0</ele><time>2026-05-01T14:56:48Z</time></trkpt><trkpt lat="43.85286577890752" lon="12.215142737284394"><ele>750.0</ele><time>2026-05-01T14:56:49Z</time></trkpt><trkpt lat="43.852966298949625" lon="12.215191733752048"><ele>750.0</ele><time>2026-05-01T14:56:50Z</time></trkpt><trkpt lat="43.85304579985215" lon="12.215293820008037"><ele>750.0</ele><time>2026-05-01T14:56:51Z</time></trkpt><trkpt lat="43.8531491811063" lon="12.215419768456114"><ele>750.0</ele><time>2026-05-01T14:56:52Z</time></trkpt><trkpt lat="43.85325386419511" lon="12.21555813752622"><ele>750.6666666666666</ele><time>2026-05-01T14:56:53Z</time></trkpt><trkpt lat="43.853386127263754" lon="12.21570123298213"><ele>751.3333333333333</ele><time>2026-05-01T14:56:54Z</time></trkpt><trkpt lat="43.85349029467643" lon="12.215850553290942"><ele>752.0</ele><time>2026-05-01T14:56:55Z</time></trkpt><trkpt lat="43.85361879893525" lon="12.215972373742055"><ele>750.0</ele><time>2026-05-01T14:56:56Z</time></trkpt><trkpt lat="43.85376421893591" lon="12.216068474709797"><ele>748.0</ele><time>2026-05-01T14:56:57Z</time></trkpt><trkpt lat="43.85392506389801" lon="12.216141357416298"><ele>746.0</ele><time>2026-05-01T14:56:58Z</time></trkpt><trkpt lat="43.85411232613726" lon="12.216194155016929"><ele>746.0</ele><time>2026-05-01T14:56:59Z</time></trkpt><trkpt lat="43.85428288931684" lon="12.21624731096288"><ele>746.0</ele><time>2026-05-01T14:57:00Z</time></trkpt><trkpt lat="43.85443478958867" lon="12.216298400847844"><ele>746.0</ele><time>2026-05-01T14:57:01Z</time></trkpt><trkpt lat="43.854577157321295" lon="12.216342759353331"><ele>746.25</ele><time>2026-05-01T14:57:02Z</time></trkpt><trkpt lat="43.8547110623803" lon="12.216381453363752"><ele>746.5</ele><time>2026-05-01T14:57:03Z</time></trkpt><trkpt lat="43.854832773795394" lon="12.216421465757346"><ele>746.75</ele><time>2026-05-01T14:57:04Z</time></trkpt><trkpt lat="43.854951749918776" lon="12.216456354632621"><ele>747.0</ele><time>2026-05-01T14:57:05Z</time></trkpt><trkpt lat="43.85506703510063" lon="12.216488060239008"><ele>746.6666666666666</ele><time>2026-05-01T14:57:06Z</time></trkpt><trkpt lat="43.855182542891875" lon="12.2165171981247"><ele>746.3333333333334</ele><time>2026-05-01T14:57:07Z</time></trkpt><trkpt lat="43.85527847256459" lon="12.216528246698536"><ele>746.0</ele><time>2026-05-01T14:57:08Z</time></trkpt><trkpt lat="43.85536247019503" lon="12.216514560726782"><ele>745.6666666666667</ele><time>2026-05-01T14:57:09Z</time></trkpt><trkpt lat="43.8554365732559" lon="12.216484152040415"><ele>745.3333333333334</ele><time>2026-05-01T14:57:10Z</time></trkpt><trkpt lat="43.85549308800523" lon="12.216423638611088"><ele>745.0</ele><time>2026-05-01T14:57:11Z</time></trkpt><trkpt lat="43.85552582587007" lon="12.21633930754804"><ele>744.1666666666667</ele><time>2026-05-01T14:57:12Z</time></trkpt><trkpt lat="43.855531132939454" lon="12.216236221149714"><ele>743.3333333333334</ele><time>2026-05-01T14:57:13Z</time></trkpt><trkpt lat="43.855499763848975" lon="12.216129138375662"><ele>742.5</ele><time>2026-05-01T14:57:14Z</time></trkpt><trkpt lat="43.855456401512654" lon="12.21602809444465"><ele>741.6666666666666</ele><time>2026-05-01T14:57:15Z</time></trkpt><trkpt lat="43.85540162299129" lon="12.215929651444974"><ele>740.8333333333333</ele><time>2026-05-01T14:57:16Z</time></trkpt><trkpt lat="43.85535941863608" lon="12.215833858879112"><ele>740.0</ele><time>2026-05-01T14:57:17Z</time></trkpt><trkpt lat="43.85534281093894" lon="12.215722079795748"><ele>738.0</ele><time>2026-05-01T14:57:18Z</time></trkpt><trkpt lat="43.85535889781208" lon="12.215609730155153"><ele>736.0</ele><time>2026-05-01T14:57:19Z</time></trkpt><trkpt lat="43.85543395025843" lon="12.215522769308379"><ele>734.0</ele><time>2026-05-01T14:57:20Z</time></trkpt><trkpt lat="43.85548711001398" lon="12.215406934127598"><ele>732.0</ele><time>2026-05-01T14:57:21Z</time></trkpt><trkpt lat="43.8555480560628" lon="12.215313221065694"><ele>730.0</ele><time>2026-05-01T14:57:22Z</time></trkpt><trkpt lat="43.85559770203451" lon="12.21522462675025"><ele>730.0</ele><time>2026-05-01T14:57:23Z</time></trkpt><trkpt lat="43.8556328072815" lon="12.215131467722173"><ele>730.0</ele><time>2026-05-01T14:57:24Z</time></trkpt><trkpt lat="43.85564436717637" lon="12.215027890708757"><ele>730.0</ele><time>2026-05-01T14:57:25Z</time></trkpt><trkpt lat="43.85563289715064" lon="12.214927988150757"><ele>730.0</ele><time>2026-05-01T14:57:26Z</time></trkpt><trkpt lat="43.85558981354944" lon="12.214819932619827"><ele>730.0</ele><time>2026-05-01T14:57:27Z</time></trkpt><trkpt lat="43.85553884638011" lon="12.214703462756566"><ele>730.0</ele><time>2026-05-01T14:57:28Z</time></trkpt><trkpt lat="43.855493974171516" lon="12.214563949749895"><ele>728.5</ele><time>2026-05-01T14:57:29Z</time></trkpt><trkpt lat="43.85546992469691" lon="12.214405014490167"><ele>727.0</ele><time>2026-05-01T14:57:30Z</time></trkpt><trkpt lat="43.85550210921265" lon="12.214229651918997"><ele>725.5</ele><time>2026-05-01T14:57:31Z</time></trkpt><trkpt lat="43.85552664928348" lon="12.214043968416094"><ele>724.0</ele><time>2026-05-01T14:57:32Z</time></trkpt><trkpt lat="43.855569176684604" lon="12.213864787629698"><ele>724.0</ele><time>2026-05-01T14:57:33Z</time></trkpt><trkpt lat="43.85560414020936" lon="12.213702121156135"><ele>724.0</ele><time>2026-05-01T14:57:34.001Z</time></trkpt><trkpt lat="43.85560963169077" lon="12.213534381500923"><ele>724.0</ele><time>2026-05-01T14:57:35.001Z</time></trkpt><trkpt lat="43.855584412490416" lon="12.21335270277013"><ele>724.0</ele><time>2026-05-01T14:57:36.001Z</time></trkpt><trkpt lat="43.85555188562959" lon="12.213177906911826"><ele>723.5</ele><time>2026-05-01T14:57:37.001Z</time></trkpt><trkpt lat="43.85551884638102" lon="12.213031899702893"><ele>723.0</ele><time>2026-05-01T14:57:38.001Z</time></trkpt><trkpt lat="43.855498094465204" lon="12.212917896492423"><ele>722.5</ele><time>2026-05-01T14:57:39.001Z</time></trkpt><trkpt lat="43.85550673812174" lon="12.21281315848813"><ele>722.0</ele><time>2026-05-01T14:57:40.001Z</time></trkpt><trkpt lat="43.855538215771155" lon="12.212725077172937"><ele>721.5</ele><time>2026-05-01T14:57:41.001Z</time></trkpt><trkpt lat="43.85559561006409" lon="12.21265108122921"><ele>721.0</ele><time>2026-05-01T14:57:42.001Z</time></trkpt><trkpt lat="43.855656326166454" lon="12.212589269426566"><ele>721.0</ele><time>2026-05-01T14:57:43.001Z</time></trkpt><trkpt lat="43.85573491867073" lon="12.212586827400278"><ele>721.0</ele><time>2026-05-01T14:57:44.001Z</time></trkpt><trkpt lat="43.8557998457311" lon="12.212603196364599"><ele>721.0</ele><time>2026-05-01T14:57:45.001Z</time></trkpt><trkpt lat="43.8558411541281" lon="12.212681586221162"><ele>721.0</ele><time>2026-05-01T14:57:46.001Z</time></trkpt><trkpt lat="43.855879401076734" lon="12.212776863264503"><ele>721.0</ele><time>2026-05-01T14:57:47.001Z</time></trkpt><trkpt lat="43.855912007316434" lon="12.212870793081791"><ele>721.0</ele><time>2026-05-01T14:57:48.001Z</time></trkpt><trkpt lat="43.856026030737844" lon="12.212959165480141"><ele>718.1999999999999</ele><time>2026-05-01T14:57:50.001Z</time></trkpt><trkpt lat="43.856111606851705" lon="12.212924035359821"><ele>715.4</ele><time>2026-05-01T14:57:51.001Z</time></trkpt><trkpt lat="43.85618536839898" lon="12.212855023718072"><ele>712.6</ele><time>2026-05-01T14:57:52.001Z</time></trkpt><trkpt lat="43.856277703358195" lon="12.212751979455158"><ele>709.8</ele><time>2026-05-01T14:57:53.001Z</time></trkpt><trkpt lat="43.85636665169016" lon="12.212644442398444"><ele>707.0</ele><time>2026-05-01T14:57:54.001Z</time></trkpt><trkpt lat="43.856460027630604" lon="12.212539513860527"><ele>707.0</ele><time>2026-05-01T14:57:55.001Z</time></trkpt><trkpt lat="43.85654414812916" lon="12.212447587183561"><ele>707.0</ele><time>2026-05-01T14:57:56.001Z</time></trkpt><trkpt lat="43.856616343719345" lon="12.212367785113303"><ele>707.0</ele><time>2026-05-01T14:57:57.001Z</time></trkpt><trkpt lat="43.85667608029569" lon="12.2122444794881"><ele>707.0</ele><time>2026-05-01T14:57:58.001Z</time></trkpt><trkpt lat="43.856715511741754" lon="12.212093456837446"><ele>707.0</ele><time>2026-05-01T14:57:59.001Z</time></trkpt><trkpt lat="43.85674248323949" lon="12.211944893580707"><ele>706.0</ele><time>2026-05-01T14:58:00.001Z</time></trkpt><trkpt lat="43.8567481863377" lon="12.211805667813799"><ele>705.0</ele><time>2026-05-01T14:58:01.001Z</time></trkpt><trkpt lat="43.856762279554964" lon="12.211686804645248"><ele>704.0</ele><time>2026-05-01T14:58:02.001Z</time></trkpt><trkpt lat="43.856758391747" lon="12.211587641291135"><ele>703.0</ele><time>2026-05-01T14:58:03.001Z</time></trkpt><trkpt lat="43.856754457750405" lon="12.211494416261008"><ele>702.0</ele><time>2026-05-01T14:58:04.001Z</time></trkpt><trkpt lat="43.85670999042697" lon="12.211403274308529"><ele>701.0</ele><time>2026-05-01T14:58:05.001Z</time></trkpt><trkpt lat="43.85658709469473" lon="12.211374409009773"><ele>698.8333333333333</ele><time>2026-05-01T14:58:06.001Z</time></trkpt><trkpt lat="43.85650848672128" lon="12.211322766726784"><ele>696.6666666666666</ele><time>2026-05-01T14:58:07.001Z</time></trkpt><trkpt lat="43.856447877260194" lon="12.211283190905688"><ele>694.5</ele><time>2026-05-01T14:58:08.001Z</time></trkpt><trkpt lat="43.856395132378864" lon="12.211195042794023"><ele>692.3333333333334</ele><time>2026-05-01T14:58:10.001Z</time></trkpt><trkpt lat="43.856454894626225" lon="12.2110584631245"><ele>690.1666666666667</ele><time>2026-05-01T14:58:12.001Z</time></trkpt><trkpt lat="43.85651872723057" lon="12.211023541860294"><ele>688.0</ele><time>2026-05-01T14:58:13.001Z</time></trkpt><trkpt lat="43.85658591383464" lon="12.210998931959141"><ele>688.0</ele><time>2026-05-01T14:58:14.001Z</time></trkpt><trkpt lat="43.856704398700685" lon="12.210929132057757"><ele>688.0</ele><time>2026-05-01T14:58:16.001Z</time></trkpt><trkpt lat="43.85675669643553" lon="12.21086931402301"><ele>688.0</ele><time>2026-05-01T14:58:17.001Z</time></trkpt><trkpt lat="43.856791718775234" lon="12.210779233025622"><ele>688.0</ele><time>2026-05-01T14:58:18.001Z</time></trkpt><trkpt lat="43.856819087750864" lon="12.210662078562878"><ele>688.0</ele><time>2026-05-01T14:58:19.001Z</time></trkpt><trkpt lat="43.85678224572215" lon="12.210536854828712"><ele>685.8333333333334</ele><time>2026-05-01T14:58:20.001Z</time></trkpt><trkpt lat="43.85676692312418" lon="12.210427982372392"><ele>683.6666666666667</ele><time>2026-05-01T14:58:21.001Z</time></trkpt><trkpt lat="43.8567861904753" lon="12.21033654275141"><ele>681.5</ele><time>2026-05-01T14:58:22.001Z</time></trkpt><trkpt lat="43.85684145434079" lon="12.210268577682122"><ele>679.3333333333334</ele><time>2026-05-01T14:58:23.001Z</time></trkpt><trkpt lat="43.85692703979031" lon="12.210248360089091"><ele>677.1666666666666</ele><time>2026-05-01T14:58:24.001Z</time></trkpt><trkpt lat="43.85702084310721" lon="12.210302079039547"><ele>675.0</ele><time>2026-05-01T14:58:25.001Z</time></trkpt><trkpt lat="43.85712367195205" lon="12.210380923499429"><ele>672.25</ele><time>2026-05-01T14:58:26.001Z</time></trkpt><trkpt lat="43.85723925106865" lon="12.210440094424902"><ele>669.5</ele><time>2026-05-01T14:58:27.001Z</time></trkpt><trkpt lat="43.85734751409952" lon="12.210518057963464"><ele>666.75</ele><time>2026-05-01T14:58:28.001Z</time></trkpt><trkpt lat="43.857464096507805" lon="12.210568141132724"><ele>664.0</ele><time>2026-05-01T14:58:29.001Z</time></trkpt><trkpt lat="43.85758255283687" lon="12.210580979816843"><ele>661.0</ele><time>2026-05-01T14:58:30.001Z</time></trkpt><trkpt lat="43.857702925412326" lon="12.210559031638873"><ele>658.0</ele><time>2026-05-01T14:58:31.001Z</time></trkpt><trkpt lat="43.85782027133904" lon="12.210517315404125"><ele>655.0</ele><time>2026-05-01T14:58:32.001Z</time></trkpt><trkpt lat="43.85792933072505" lon="12.210463326926025"><ele>652.0</ele><time>2026-05-01T14:58:33.001Z</time></trkpt><trkpt lat="43.85801881945171" lon="12.210402363104635"><ele>652.0</ele><time>2026-05-01T14:58:34Z</time></trkpt><trkpt lat="43.85808925985394" lon="12.210344036483601"><ele>652.0</ele><time>2026-05-01T14:58:35Z</time></trkpt><trkpt lat="43.858143320677286" lon="12.210288807385387"><ele>652.0</ele><time>2026-05-01T14:58:36Z</time></trkpt><trkpt lat="43.85817952947849" lon="12.210212166809884"><ele>652.0</ele><time>2026-05-01T14:58:37Z</time></trkpt><trkpt lat="43.858188013493816" lon="12.210102540799573"><ele>652.0</ele><time>2026-05-01T14:58:38Z</time></trkpt><trkpt lat="43.85817986164064" lon="12.209963059072226"><ele>652.0</ele><time>2026-05-01T14:58:39Z</time></trkpt><trkpt lat="43.858179671922215" lon="12.209849360556854"><ele>652.0</ele><time>2026-05-01T14:58:40Z</time></trkpt><trkpt lat="43.858211753166046" lon="12.2097728135948"><ele>652.0</ele><time>2026-05-01T14:58:41Z</time></trkpt><trkpt lat="43.85828175823065" lon="12.2097410220371"><ele>652.0</ele><time>2026-05-01T14:58:42Z</time></trkpt><trkpt lat="43.858358073869546" lon="12.209769486923225"><ele>652.0</ele><time>2026-05-01T14:58:43Z</time></trkpt><trkpt lat="43.858413305745124" lon="12.209837552047903"><ele>652.0</ele><time>2026-05-01T14:58:44Z</time></trkpt><trkpt lat="43.85844827057773" lon="12.20993590058904"><ele>652.0</ele><time>2026-05-01T14:58:45Z</time></trkpt><trkpt lat="43.8584931522274" lon="12.210041530540735"><ele>648.8000000000001</ele><time>2026-05-01T14:58:46Z</time></trkpt><trkpt lat="43.858563846294295" lon="12.210145518133029"><ele>645.6</ele><time>2026-05-01T14:58:47Z</time></trkpt><trkpt lat="43.858658689657005" lon="12.21023234974397"><ele>642.4000000000001</ele><time>2026-05-01T14:58:48Z</time></trkpt><trkpt lat="43.8587572736802" lon="12.21030794318458"><ele>639.2</ele><time>2026-05-01T14:58:49Z</time></trkpt><trkpt lat="43.85884835236973" lon="12.21038088838828"><ele>636.0</ele><time>2026-05-01T14:58:50Z</time></trkpt><trkpt lat="43.85892546280156" lon="12.210438538911557"><ele>636.0</ele><time>2026-05-01T14:58:51Z</time></trkpt><trkpt lat="43.858995474587935" lon="12.210466995607446"><ele>636.0</ele><time>2026-05-01T14:58:52Z</time></trkpt><trkpt lat="43.85906842162587" lon="12.21046054921021"><ele>636.0</ele><time>2026-05-01T14:58:53Z</time></trkpt><trkpt lat="43.85913252143873" lon="12.210395033376601"><ele>636.0</ele><time>2026-05-01T14:58:54Z</time></trkpt><trkpt lat="43.85918087082548" lon="12.210280159143554"><ele>636.0</ele><time>2026-05-01T14:58:55Z</time></trkpt><trkpt lat="43.859213826254795" lon="12.210141469907963"><ele>636.0</ele><time>2026-05-01T14:58:56Z</time></trkpt><trkpt lat="43.859236347907924" lon="12.210001619736612"><ele>636.0</ele><time>2026-05-01T14:58:57Z</time></trkpt><trkpt lat="43.85926876487177" lon="12.209897915440354"><ele>636.0</ele><time>2026-05-01T14:58:58Z</time></trkpt><trkpt lat="43.85932154366669" lon="12.20983570048656"><ele>636.0</ele><time>2026-05-01T14:58:59Z</time></trkpt><trkpt lat="43.859399797666065" lon="12.209808990294269"><ele>636.0</ele><time>2026-05-01T14:59:00Z</time></trkpt><trkpt lat="43.859483335551346" lon="12.209812378766443"><ele>636.0</ele><time>2026-05-01T14:59:01Z</time></trkpt><trkpt lat="43.85955128771713" lon="12.209845503183846"><ele>636.0</ele><time>2026-05-01T14:59:02Z</time></trkpt><trkpt lat="43.85962048435692" lon="12.209920990397398"><ele>634.1666666666666</ele><time>2026-05-01T14:59:03Z</time></trkpt><trkpt lat="43.85966871798979" lon="12.21002601732507"><ele>632.3333333333334</ele><time>2026-05-01T14:59:04Z</time></trkpt><trkpt lat="43.859732846406075" lon="12.210123444396933"><ele>630.5</ele><time>2026-05-01T14:59:05Z</time></trkpt><trkpt lat="43.8598032808375" lon="12.210178578131078"><ele>628.6666666666667</ele><time>2026-05-01T14:59:06Z</time></trkpt><trkpt lat="43.85988347715813" lon="12.21019543934694"><ele>626.8333333333334</ele><time>2026-05-01T14:59:07Z</time></trkpt><trkpt lat="43.85997352723363" lon="12.21017012601299"><ele>625.0</ele><time>2026-05-01T14:59:08Z</time></trkpt><trkpt lat="43.860067900652204" lon="12.21012017450673"><ele>623.2</ele><time>2026-05-01T14:59:09Z</time></trkpt><trkpt lat="43.860148566114496" lon="12.210045135497015"><ele>621.4</ele><time>2026-05-01T14:59:10Z</time></trkpt><trkpt lat="43.860225862608836" lon="12.2099669251605"><ele>619.6</ele><time>2026-05-01T14:59:11Z</time></trkpt><trkpt lat="43.860281810509235" lon="12.209878781725788"><ele>617.8</ele><time>2026-05-01T14:59:12Z</time></trkpt><trkpt lat="43.860323009557334" lon="12.209774827607161"><ele>616.0</ele><time>2026-05-01T14:59:13Z</time></trkpt><trkpt lat="43.86034490418878" lon="12.209658258648448"><ele>616.0</ele><time>2026-05-01T14:59:14Z</time></trkpt><trkpt lat="43.86035763133865" lon="12.209534800326727"><ele>616.0</ele><time>2026-05-01T14:59:15Z</time></trkpt><trkpt lat="43.8603523213506" lon="12.209395945519852"><ele>616.0</ele><time>2026-05-01T14:59:16Z</time></trkpt><trkpt lat="43.86033774037535" lon="12.209248918760478"><ele>616.0</ele><time>2026-05-01T14:59:17Z</time></trkpt><trkpt lat="43.86033622154433" lon="12.209099715658905"><ele>616.0</ele><time>2026-05-01T14:59:18Z</time></trkpt><trkpt lat="43.860294063335935" lon="12.208957107764975"><ele>615.0</ele><time>2026-05-01T14:59:19Z</time></trkpt><trkpt lat="43.86026743067196" lon="12.208802179942671"><ele>614.0</ele><time>2026-05-01T14:59:20Z</time></trkpt><trkpt lat="43.86023786790654" lon="12.208653104395186"><ele>613.0</ele><time>2026-05-01T14:59:21Z</time></trkpt><trkpt lat="43.860239665638446" lon="12.208520629986332"><ele>612.0</ele><time>2026-05-01T14:59:22Z</time></trkpt><trkpt lat="43.86024112171616" lon="12.208400791350606"><ele>611.0</ele><time>2026-05-01T14:59:23Z</time></trkpt><trkpt lat="43.86026321177931" lon="12.208283175432603"><ele>611.0</ele><time>2026-05-01T14:59:24Z</time></trkpt><trkpt lat="43.86030689532212" lon="12.208200074178459"><ele>611.0</ele><time>2026-05-01T14:59:25Z</time></trkpt><trkpt lat="43.86037063196906" lon="12.208136648141457"><ele>611.0</ele><time>2026-05-01T14:59:26Z</time></trkpt><trkpt lat="43.86044901482696" lon="12.208070869476957"><ele>611.0</ele><time>2026-05-01T14:59:27Z</time></trkpt><trkpt lat="43.860531563419904" lon="12.208013810845651"><ele>611.0</ele><time>2026-05-01T14:59:28Z</time></trkpt><trkpt lat="43.860605333468776" lon="12.207999991397152"><ele>611.0</ele><time>2026-05-01T14:59:29Z</time></trkpt><trkpt lat="43.86068407218066" lon="12.208007711291897"><ele>608.0</ele><time>2026-05-01T14:59:30Z</time></trkpt><trkpt lat="43.86077034384066" lon="12.208064401846096"><ele>605.0</ele><time>2026-05-01T14:59:31Z</time></trkpt><trkpt lat="43.86086869742698" lon="12.20813349076325"><ele>602.0</ele><time>2026-05-01T14:59:32Z</time></trkpt><trkpt lat="43.86097536568477" lon="12.208177692072738"><ele>599.0</ele><time>2026-05-01T14:59:33Z</time></trkpt><trkpt lat="43.86107222469617" lon="12.208238751439165"><ele>596.0</ele><time>2026-05-01T14:59:34Z</time></trkpt><trkpt lat="43.86117577550987" lon="12.208272293668053"><ele>596.0</ele><time>2026-05-01T14:59:35Z</time></trkpt><trkpt lat="43.86126895993329" lon="12.208281648734939"><ele>596.0</ele><time>2026-05-01T14:59:36Z</time></trkpt><trkpt lat="43.86133994922951" lon="12.208297034156184"><ele>596.0</ele><time>2026-05-01T14:59:37Z</time></trkpt><trkpt lat="43.861413151827165" lon="12.208314427517236"><ele>596.0</ele><time>2026-05-01T14:59:38Z</time></trkpt><trkpt lat="43.86148669707568" lon="12.208318259590953"><ele>596.0</ele><time>2026-05-01T14:59:39Z</time></trkpt><trkpt lat="43.86156033540305" lon="12.208325969208413"><ele>596.0</ele><time>2026-05-01T14:59:40Z</time></trkpt><trkpt lat="43.86165341186922" lon="12.208331128645447"><ele>596.0</ele><time>2026-05-01T14:59:41Z</time></trkpt><trkpt lat="43.8617441806866" lon="12.208336662238118"><ele>596.0</ele><time>2026-05-01T14:59:42Z</time></trkpt><trkpt lat="43.8618327315189" lon="12.208339258553472"><ele>596.0</ele><time>2026-05-01T14:59:43Z</time></trkpt><trkpt lat="43.861931733795366" lon="12.208337840570136"><ele>596.0</ele><time>2026-05-01T14:59:44Z</time></trkpt><trkpt lat="43.86202097310196" lon="12.208359598978074"><ele>596.0</ele><time>2026-05-01T14:59:45Z</time></trkpt><trkpt lat="43.86212395616731" lon="12.208367514024362"><ele>594.3333333333333</ele><time>2026-05-01T14:59:46Z</time></trkpt><trkpt lat="43.86221005492917" lon="12.20836350547961"><ele>592.6666666666666</ele><time>2026-05-01T14:59:47Z</time></trkpt><trkpt lat="43.862298111660216" lon="12.208369041858871"><ele>591.0</ele><time>2026-05-01T14:59:48Z</time></trkpt><trkpt lat="43.862376132386935" lon="12.208364431050123"><ele>589.3333333333334</ele><time>2026-05-01T14:59:49Z</time></trkpt><trkpt lat="43.86245194762566" lon="12.208392183343623"><ele>587.6666666666667</ele><time>2026-05-01T14:59:50Z</time></trkpt><trkpt lat="43.86252314238613" lon="12.20838871911406"><ele>586.0</ele><time>2026-05-01T14:59:51Z</time></trkpt><trkpt lat="43.86258899965881" lon="12.208390644498335"><ele>585.3333333333334</ele><time>2026-05-01T14:59:52Z</time></trkpt><trkpt lat="43.862695340168884" lon="12.208395496920428"><ele>584.6666666666667</ele><time>2026-05-01T14:59:54Z</time></trkpt><trkpt lat="43.86276802210933" lon="12.208416244240041"><ele>584.0</ele><time>2026-05-01T14:59:56Z</time></trkpt><trkpt lat="43.862840109246186" lon="12.208439719326785"><ele>583.3333333333334</ele><time>2026-05-01T15:00:00.001Z</time></trkpt><trkpt lat="43.86287001876204" lon="12.208551905656375"><ele>582.6666666666666</ele><time>2026-05-01T15:00:02.001Z</time></trkpt><trkpt lat="43.86293146937046" lon="12.20861465545187"><ele>582.0</ele><time>2026-05-01T15:00:05.001Z</time></trkpt><trkpt lat="43.86299354103752" lon="12.208631906144067"><ele>582.0</ele><time>2026-05-01T15:00:07.001Z</time></trkpt><trkpt lat="43.86308387204524" lon="12.20867204930059"><ele>582.0</ele><time>2026-05-01T15:00:09.001Z</time></trkpt><trkpt lat="43.863154794794305" lon="12.208759979803718"><ele>582.0</ele><time>2026-05-01T15:00:11.001Z</time></trkpt><trkpt lat="43.863260587644525" lon="12.208836842693811"><ele>582.0</ele><time>2026-05-01T15:00:13.001Z</time></trkpt><trkpt lat="43.86335541377881" lon="12.208932729929156"><ele>582.0</ele><time>2026-05-01T15:00:15.001Z</time></trkpt><trkpt lat="43.863447887180236" lon="12.209041033732401"><ele>583.4285714285714</ele><time>2026-05-01T15:00:17.001Z</time></trkpt><trkpt lat="43.86348735916094" lon="12.209110391946965"><ele>584.8571428571428</ele><time>2026-05-01T15:00:18.001Z</time></trkpt><trkpt lat="43.86353558099046" lon="12.20918571433066"><ele>586.2857142857142</ele><time>2026-05-01T15:00:19.001Z</time></trkpt><trkpt lat="43.86356484539848" lon="12.209267694710848"><ele>587.7142857142857</ele><time>2026-05-01T15:00:20.001Z</time></trkpt><trkpt lat="43.863595264596334" lon="12.209357655078328"><ele>589.1428571428571</ele><time>2026-05-01T15:00:21.001Z</time></trkpt><trkpt lat="43.86361474225644" lon="12.20945262302768"><ele>590.5714285714286</ele><time>2026-05-01T15:00:22.001Z</time></trkpt><trkpt lat="43.86363136083342" lon="12.209551533125413"><ele>592.0</ele><time>2026-05-01T15:00:23.001Z</time></trkpt><trkpt lat="43.86365223426382" lon="12.209657458763543"><ele>592.0</ele><time>2026-05-01T15:00:24.001Z</time></trkpt><trkpt lat="43.8636608924442" lon="12.209756426307477"><ele>592.0</ele><time>2026-05-01T15:00:25.001Z</time></trkpt><trkpt lat="43.8636800688932" lon="12.209861065499581"><ele>592.0</ele><time>2026-05-01T15:00:26.001Z</time></trkpt><trkpt lat="43.86370114170139" lon="12.209964076984626"><ele>592.0</ele><time>2026-05-01T15:00:27.001Z</time></trkpt><trkpt lat="43.86372445015352" lon="12.210062761614205"><ele>592.0</ele><time>2026-05-01T15:00:28.001Z</time></trkpt><trkpt lat="43.86373581221597" lon="12.21016440095502"><ele>592.0</ele><time>2026-05-01T15:00:29.001Z</time></trkpt><trkpt lat="43.86375124226632" lon="12.210268879592174"><ele>593.5</ele><time>2026-05-01T15:00:30.001Z</time></trkpt><trkpt lat="43.86376582236079" lon="12.210369109024674"><ele>595.0</ele><time>2026-05-01T15:00:31.001Z</time></trkpt><trkpt lat="43.863793382054055" lon="12.210489188757197"><ele>596.5</ele><time>2026-05-01T15:00:32.001Z</time></trkpt><trkpt lat="43.863807749111714" lon="12.210589928795052"><ele>598.0</ele><time>2026-05-01T15:00:33.001Z</time></trkpt><trkpt lat="43.863828008176824" lon="12.210682593237319"><ele>599.5</ele><time>2026-05-01T15:00:34.001Z</time></trkpt><trkpt lat="43.86383956023232" lon="12.210800231610904"><ele>601.0</ele><time>2026-05-01T15:00:35.001Z</time></trkpt><trkpt lat="43.86385260120452" lon="12.210890367258171"><ele>602.0</ele><time>2026-05-01T15:00:36.001Z</time></trkpt><trkpt lat="43.863871548254956" lon="12.210987092036211"><ele>603.0</ele><time>2026-05-01T15:00:37.001Z</time></trkpt><trkpt lat="43.86388290219066" lon="12.211076421830164"><ele>604.0</ele><time>2026-05-01T15:00:38.001Z</time></trkpt><trkpt lat="43.86387595197036" lon="12.211198936492083"><ele>605.0</ele><time>2026-05-01T15:00:40Z</time></trkpt><trkpt lat="43.864012366111" lon="12.211213194979306"><ele>606.0</ele><time>2026-05-01T15:00:43Z</time></trkpt><trkpt lat="43.86409169351955" lon="12.211096572355409"><ele>606.0</ele><time>2026-05-01T15:00:45Z</time></trkpt><trkpt lat="43.864134993067644" lon="12.211029278579332"><ele>606.0</ele><time>2026-05-01T15:00:46Z</time></trkpt><trkpt lat="43.864192593538604" lon="12.210946286953305"><ele>606.0</ele><time>2026-05-01T15:00:47Z</time></trkpt><trkpt lat="43.864255015327196" lon="12.210882814702643"><ele>606.0</ele><time>2026-05-01T15:00:48Z</time></trkpt><trkpt lat="43.864310571980674" lon="12.21079494217067"><ele>606.0</ele><time>2026-05-01T15:00:49Z</time></trkpt><trkpt lat="43.86436172049463" lon="12.210726788091502"><ele>606.0</ele><time>2026-05-01T15:00:50Z</time></trkpt><trkpt lat="43.86441978221597" lon="12.210657646042211"><ele>606.5714285714286</ele><time>2026-05-01T15:00:51Z</time></trkpt><trkpt lat="43.86448776152592" lon="12.21060943198342"><ele>607.1428571428571</ele><time>2026-05-01T15:00:52Z</time></trkpt><trkpt lat="43.86453653136654" lon="12.210544754110533"><ele>607.7142857142858</ele><time>2026-05-01T15:00:53Z</time></trkpt><trkpt lat="43.8645908390382" lon="12.210471876245517"><ele>608.2857142857142</ele><time>2026-05-01T15:00:54Z</time></trkpt><trkpt lat="43.8646484847643" lon="12.21040019454304"><ele>608.8571428571428</ele><time>2026-05-01T15:00:55Z</time></trkpt><trkpt lat="43.86469562208184" lon="12.210323578491947"><ele>609.4285714285714</ele><time>2026-05-01T15:00:56Z</time></trkpt><trkpt lat="43.86474656376786" lon="12.210257177258715"><ele>610.0</ele><time>2026-05-01T15:00:57Z</time></trkpt><trkpt lat="43.864840347630135" lon="12.210144250507112"><ele>610.0</ele><time>2026-05-01T15:00:59Z</time></trkpt><trkpt lat="43.86488917061098" lon="12.210088157141493"><ele>610.0</ele><time>2026-05-01T15:01:00Z</time></trkpt><trkpt lat="43.86493883347599" lon="12.21002800488207"><ele>610.0</ele><time>2026-05-01T15:01:01Z</time></trkpt><trkpt lat="43.86498368107454" lon="12.209960745933852"><ele>610.0</ele><time>2026-05-01T15:01:02Z</time></trkpt><trkpt lat="43.86503057014396" lon="12.20990113932342"><ele>610.0</ele><time>2026-05-01T15:01:03Z</time></trkpt><trkpt lat="43.86511826461667" lon="12.20978151494492"><ele>610.0</ele><time>2026-05-01T15:01:05Z</time></trkpt><trkpt lat="43.865174705964996" lon="12.209736073107099"><ele>610.0</ele><time>2026-05-01T15:01:06Z</time></trkpt><trkpt lat="43.86526600607006" lon="12.20962279205327"><ele>607.4</ele><time>2026-05-01T15:01:08Z</time></trkpt><trkpt lat="43.86534342541677" lon="12.209515365159227"><ele>604.8</ele><time>2026-05-01T15:01:10Z</time></trkpt><trkpt lat="43.86542306613543" lon="12.209462528654171"><ele>602.2</ele><time>2026-05-01T15:01:12Z</time></trkpt><trkpt lat="43.865508329815825" lon="12.209429357555047"><ele>599.6</ele><time>2026-05-01T15:01:14Z</time></trkpt><trkpt lat="43.8655854208099" lon="12.209421144486894"><ele>597.0</ele><time>2026-05-01T15:01:16Z</time></trkpt><trkpt lat="43.86567415517308" lon="12.209488809452546"><ele>597.0</ele><time>2026-05-01T15:01:18Z</time></trkpt><trkpt lat="43.86574577011689" lon="12.20961987804107"><ele>597.0</ele><time>2026-05-01T15:01:20Z</time></trkpt><trkpt lat="43.865786784216404" lon="12.209688850424367"><ele>597.0</ele><time>2026-05-01T15:01:21Z</time></trkpt><trkpt lat="43.86581660210689" lon="12.209766702306755"><ele>597.0</ele><time>2026-05-01T15:01:22Z</time></trkpt><trkpt lat="43.86585160638649" lon="12.209843114804782"><ele>597.0</ele><time>2026-05-01T15:01:23Z</time></trkpt><trkpt lat="43.86590592799491" lon="12.209975505237667"><ele>597.0</ele><time>2026-05-01T15:01:25Z</time></trkpt><trkpt lat="43.86596165664842" lon="12.210101570157851"><ele>597.8000000000001</ele><time>2026-05-01T15:01:27Z</time></trkpt><trkpt lat="43.86603520669835" lon="12.210207277279707"><ele>598.6</ele><time>2026-05-01T15:01:29Z</time></trkpt><trkpt lat="43.866138541642414" lon="12.21027181612477"><ele>599.4000000000001</ele><time>2026-05-01T15:01:31Z</time></trkpt><trkpt lat="43.86624281419967" lon="12.210255545193709"><ele>600.2</ele><time>2026-05-01T15:01:33Z</time></trkpt><trkpt lat="43.866335877930425" lon="12.210196173346676"><ele>601.0</ele><time>2026-05-01T15:01:35Z</time></trkpt><trkpt lat="43.8664076947945" lon="12.210125431085443"><ele>601.0</ele><time>2026-05-01T15:01:37Z</time></trkpt><trkpt lat="43.8663694804681" lon="12.210007377452833"><ele>601.0</ele><time>2026-05-01T15:01:40Z</time></trkpt><trkpt lat="43.866330239734424" lon="12.210186886380894"><ele>601.0</ele><time>2026-05-01T15:01:59Z</time></trkpt><trkpt lat="43.86626854875574" lon="12.21022250643856"><ele>601.0</ele><time>2026-05-01T15:02:01Z</time></trkpt><trkpt lat="43.86612366318862" lon="12.210223991780975"><ele>601.0</ele><time>2026-05-01T15:02:03Z</time></trkpt><trkpt lat="43.866062395414566" lon="12.210189739757478"><ele>601.0</ele><time>2026-05-01T15:02:04Z</time></trkpt><trkpt lat="43.86600937933935" lon="12.210123833193466"><ele>601.0</ele><time>2026-05-01T15:02:05Z</time></trkpt><trkpt lat="43.86596277947935" lon="12.210024774762772"><ele>601.0</ele><time>2026-05-01T15:02:06Z</time></trkpt><trkpt lat="43.86591683992733" lon="12.209918516572563"><ele>601.0</ele><time>2026-05-01T15:02:07Z</time></trkpt><trkpt lat="43.865875038110545" lon="12.209825564984499"><ele>601.0</ele><time>2026-05-01T15:02:08Z</time></trkpt><trkpt lat="43.86583887032162" lon="12.209740337406236"><ele>601.0</ele><time>2026-05-01T15:02:09Z</time></trkpt><trkpt lat="43.86580543652644" lon="12.209643100515182"><ele>600.3333333333334</ele><time>2026-05-01T15:02:10Z</time></trkpt><trkpt lat="43.86576087917986" lon="12.209561808696277"><ele>599.6666666666667</ele><time>2026-05-01T15:02:11Z</time></trkpt><trkpt lat="43.86571192000923" lon="12.209498812993411"><ele>599.0</ele><time>2026-05-01T15:02:12Z</time></trkpt><trkpt lat="43.86561356932028" lon="12.209404068179216"><ele>598.3333333333334</ele><time>2026-05-01T15:02:14Z</time></trkpt><trkpt lat="43.865541967862676" lon="12.209392390149084"><ele>597.6666666666666</ele><time>2026-05-01T15:02:15Z</time></trkpt><trkpt lat="43.86544311771944" lon="12.209424428997359"><ele>597.0</ele><time>2026-05-01T15:02:17Z</time></trkpt><trkpt lat="43.865378263371056" lon="12.209452213410765"><ele>597.0</ele><time>2026-05-01T15:02:19Z</time></trkpt><trkpt lat="43.86530068339243" lon="12.209408239025274"><ele>597.0</ele><time>2026-05-01T15:02:31Z</time></trkpt><trkpt lat="43.86528077186016" lon="12.209324914321753"><ele>597.0</ele><time>2026-05-01T15:02:33Z</time></trkpt><trkpt lat="43.86526179445534" lon="12.20922042762512"><ele>597.0</ele><time>2026-05-01T15:02:35.001Z</time></trkpt><trkpt lat="43.86523215176214" lon="12.20911503987028"><ele>597.0</ele><time>2026-05-01T15:02:37.001Z</time></trkpt><trkpt lat="43.86520026125499" lon="12.208997998623342"><ele>597.0</ele><time>2026-05-01T15:02:39.001Z</time></trkpt><trkpt lat="43.86515721767436" lon="12.20888264664879"><ele>596.8333333333334</ele><time>2026-05-01T15:02:41.001Z</time></trkpt><trkpt lat="43.86512754965162" lon="12.208778773009133"><ele>596.6666666666666</ele><time>2026-05-01T15:02:43.001Z</time></trkpt><trkpt lat="43.86509800449356" lon="12.208663749702803"><ele>596.5</ele><time>2026-05-01T15:02:45.001Z</time></trkpt><trkpt lat="43.86505557878941" lon="12.208545124570726"><ele>596.3333333333333</ele><time>2026-05-01T15:02:47Z</time></trkpt><trkpt lat="43.86501166264035" lon="12.208447489885788"><ele>596.1666666666666</ele><time>2026-05-01T15:02:49Z</time></trkpt><trkpt lat="43.864995131188074" lon="12.208310270687242"><ele>596.0</ele><time>2026-05-01T15:02:51Z</time></trkpt><trkpt lat="43.86496951432113" lon="12.208184112437753"><ele>595.5</ele><time>2026-05-01T15:02:53Z</time></trkpt><trkpt lat="43.86494422109051" lon="12.208069797586097"><ele>595.0</ele><time>2026-05-01T15:02:55Z</time></trkpt><trkpt lat="43.86492008790327" lon="12.20797290428611"><ele>594.5</ele><time>2026-05-01T15:02:57Z</time></trkpt><trkpt lat="43.86486109497299" lon="12.207903927981794"><ele>594.0</ele><time>2026-05-01T15:02:59Z</time></trkpt><trkpt lat="43.86488300564426" lon="12.207799195590786"><ele>593.5</ele><time>2026-05-01T15:03:01Z</time></trkpt><trkpt lat="43.86487743571029" lon="12.207705284850993"><ele>593.0</ele><time>2026-05-01T15:03:04Z</time></trkpt><trkpt lat="43.86488432016865" lon="12.207610789768507"><ele>593.0</ele><time>2026-05-01T15:03:16Z</time></trkpt></trkseg><trkseg><trkpt lat="43.86487352909865" lon="12.207665345820603"><ele>593.0</ele><time>2026-05-01T15:57:48Z</time></trkpt><trkpt lat="43.86479352922487" lon="12.207698246678637"><ele>593.0</ele><time>2026-05-01T15:57:50Z</time></trkpt><trkpt lat="43.86470761167301" lon="12.207743758700115"><ele>593.0</ele><time>2026-05-01T15:57:52Z</time></trkpt><trkpt lat="43.8646355488853" lon="12.207792834938243"><ele>593.0</ele><time>2026-05-01T15:57:54Z</time></trkpt><trkpt lat="43.86457078786621" lon="12.207878374608205"><ele>593.0</ele><time>2026-05-01T15:57:56Z</time></trkpt><trkpt lat="43.86449773430006" lon="12.207909922856809"><ele>593.0</ele><time>2026-05-01T15:57:58Z</time></trkpt><trkpt lat="43.864416170156254" lon="12.207930737620702"><ele>593.0</ele><time>2026-05-01T15:58:00Z</time></trkpt><trkpt lat="43.8643535787092" lon="12.207988061461757"><ele>593.0</ele><time>2026-05-01T15:58:02Z</time></trkpt><trkpt lat="43.864297933158724" lon="12.20805607030003"><ele>593.0</ele><time>2026-05-01T15:58:04Z</time></trkpt><trkpt lat="43.86423715869841" lon="12.20812818109827"><ele>593.0</ele><time>2026-05-01T15:58:06Z</time></trkpt><trkpt lat="43.864183331006444" lon="12.208183165231869"><ele>593.0</ele><time>2026-05-01T15:58:08Z</time></trkpt><trkpt lat="43.86417219523669" lon="12.208299749566232"><ele>593.0</ele><time>2026-05-01T15:58:10Z</time></trkpt><trkpt lat="43.86413849404002" lon="12.208385674913831"><ele>592.0</ele><time>2026-05-01T15:58:12Z</time></trkpt><trkpt lat="43.86409151286831" lon="12.208447396148276"><ele>591.0</ele><time>2026-05-01T15:58:14Z</time></trkpt><trkpt lat="43.86403822588855" lon="12.208543788588932"><ele>590.0</ele><time>2026-05-01T15:58:16Z</time></trkpt><trkpt lat="43.863986235364905" lon="12.208637579134296"><ele>589.0</ele><time>2026-05-01T15:58:18Z</time></trkpt><trkpt lat="43.86393007661988" lon="12.208722855002089"><ele>588.0</ele><time>2026-05-01T15:58:20Z</time></trkpt><trkpt lat="43.86387971963778" lon="12.208805095907477"><ele>587.0</ele><time>2026-05-01T15:58:22Z</time></trkpt><trkpt lat="43.86382161334118" lon="12.208839885791503"><ele>587.0</ele><time>2026-05-01T15:58:24Z</time></trkpt><trkpt lat="43.863748368272724" lon="12.208794264010049"><ele>587.0</ele><time>2026-05-01T15:58:26Z</time></trkpt><trkpt lat="43.86368898857466" lon="12.208695571790292"><ele>587.0</ele><time>2026-05-01T15:58:28Z</time></trkpt><trkpt lat="43.86362957726954" lon="12.208600896819277"><ele>587.0</ele><time>2026-05-01T15:58:30Z</time></trkpt><trkpt lat="43.863555592843966" lon="12.208522934081364"><ele>587.0</ele><time>2026-05-01T15:58:32Z</time></trkpt><trkpt lat="43.86353349895565" lon="12.208421107492057"><ele>587.0</ele><time>2026-05-01T15:58:35Z</time></trkpt><trkpt lat="43.863568500366654" lon="12.208331955583361"><ele>587.0</ele><time>2026-05-01T15:58:37Z</time></trkpt><trkpt lat="43.8636081467488" lon="12.208233569593615"><ele>587.0</ele><time>2026-05-01T15:58:39Z</time></trkpt><trkpt lat="43.863635674102596" lon="12.20811164541108"><ele>587.0</ele><time>2026-05-01T15:58:41Z</time></trkpt><trkpt lat="43.86366557278829" lon="12.207971776229616"><ele>587.0</ele><time>2026-05-01T15:58:43Z</time></trkpt><trkpt lat="43.86369403411546" lon="12.20782106320263"><ele>587.0</ele><time>2026-05-01T15:58:45Z</time></trkpt><trkpt lat="43.863728438002816" lon="12.207678595484621"><ele>586.0</ele><time>2026-05-01T15:58:47Z</time></trkpt><trkpt lat="43.86375470691693" lon="12.207540050960805"><ele>585.0</ele><time>2026-05-01T15:58:49Z</time></trkpt><trkpt lat="43.86378284498073" lon="12.207403085296315"><ele>584.0</ele><time>2026-05-01T15:58:51Z</time></trkpt><trkpt lat="43.863809208917644" lon="12.207263549964294"><ele>583.0</ele><time>2026-05-01T15:58:53Z</time></trkpt><trkpt lat="43.86383921767969" lon="12.207118941080042"><ele>582.0</ele><time>2026-05-01T15:58:55Z</time></trkpt><trkpt lat="43.863871232892656" lon="12.206974079110516"><ele>580.6666666666666</ele><time>2026-05-01T15:58:57Z</time></trkpt><trkpt lat="43.863911947508754" lon="12.206822070756113"><ele>579.3333333333334</ele><time>2026-05-01T15:58:59Z</time></trkpt><trkpt lat="43.863928889393165" lon="12.206717743795753"><ele>578.0</ele><time>2026-05-01T15:59:00Z</time></trkpt><trkpt lat="43.86394672857994" lon="12.20662487067368"><ele>576.6666666666667</ele><time>2026-05-01T15:59:01Z</time></trkpt><trkpt lat="43.8639638189099" lon="12.206538353689247"><ele>575.3333333333334</ele><time>2026-05-01T15:59:02Z</time></trkpt><trkpt lat="43.86398418985871" lon="12.20640050798386"><ele>574.0</ele><time>2026-05-01T15:59:04Z</time></trkpt><trkpt lat="43.8640220889599" lon="12.206288639471254"><ele>572.6666666666667</ele><time>2026-05-01T15:59:06Z</time></trkpt><trkpt lat="43.86403689365803" lon="12.206154548915064"><ele>571.3333333333334</ele><time>2026-05-01T15:59:08Z</time></trkpt><trkpt lat="43.86407777167236" lon="12.206078543857995"><ele>570.0</ele><time>2026-05-01T15:59:10Z</time></trkpt><trkpt lat="43.863990589826116" lon="12.206004749496893"><ele>568.6666666666666</ele><time>2026-05-01T15:59:11Z</time></trkpt><trkpt lat="43.86391512228844" lon="12.20592937187987"><ele>567.3333333333333</ele><time>2026-05-01T15:59:13.001Z</time></trkpt><trkpt lat="43.8638487208273" lon="12.205849781750516"><ele>566.0</ele><time>2026-05-01T15:59:15.001Z</time></trkpt><trkpt lat="43.863764700756526" lon="12.205790905751432"><ele>566.0</ele><time>2026-05-01T15:59:17.001Z</time></trkpt><trkpt lat="43.863682499601595" lon="12.205706838738582"><ele>566.0</ele><time>2026-05-01T15:59:19.001Z</time></trkpt><trkpt lat="43.863588209287066" lon="12.205619755080315"><ele>566.0</ele><time>2026-05-01T15:59:21.001Z</time></trkpt><trkpt lat="43.86351403097163" lon="12.205541703130748"><ele>566.0</ele><time>2026-05-01T15:59:23.001Z</time></trkpt><trkpt lat="43.86344056648926" lon="12.20546405044007"><ele>566.0</ele><time>2026-05-01T15:59:25.001Z</time></trkpt><trkpt lat="43.863367931897656" lon="12.205402085083065"><ele>565.2</ele><time>2026-05-01T15:59:27.001Z</time></trkpt><trkpt lat="43.863290836284584" lon="12.205326326154344"><ele>564.4000000000001</ele><time>2026-05-01T15:59:29.001Z</time></trkpt><trkpt lat="43.86321062429455" lon="12.205242318173335"><ele>563.6</ele><time>2026-05-01T15:59:31.001Z</time></trkpt><trkpt lat="43.86310936727334" lon="12.205159648526857"><ele>562.8000000000001</ele><time>2026-05-01T15:59:33.001Z</time></trkpt><trkpt lat="43.86305207896685" lon="12.205109746772743"><ele>562.0</ele><time>2026-05-01T15:59:34.001Z</time></trkpt><trkpt lat="43.862993382980655" lon="12.205055926210315"><ele>562.0</ele><time>2026-05-01T15:59:35.001Z</time></trkpt><trkpt lat="43.86293179063404" lon="12.205001216227082"><ele>562.0</ele><time>2026-05-01T15:59:36.001Z</time></trkpt><trkpt lat="43.86287073287475" lon="12.204946738520054"><ele>562.0</ele><time>2026-05-01T15:59:37.001Z</time></trkpt><trkpt lat="43.862764687794694" lon="12.204850402319316"><ele>562.0</ele><time>2026-05-01T15:59:39.001Z</time></trkpt><trkpt lat="43.86268976672681" lon="12.204773216355475"><ele>562.0</ele><time>2026-05-01T15:59:41.001Z</time></trkpt><trkpt lat="43.862621751964426" lon="12.204728266360119"><ele>562.0</ele><time>2026-05-01T15:59:43.001Z</time></trkpt><trkpt lat="43.86254089629034" lon="12.204697707504982"><ele>562.6</ele><time>2026-05-01T15:59:45.001Z</time></trkpt><trkpt lat="43.86251313189527" lon="12.204550548529467"><ele>563.2</ele><time>2026-05-01T15:59:47.001Z</time></trkpt><trkpt lat="43.86240405583076" lon="12.204518605455995"><ele>563.8</ele><time>2026-05-01T15:59:48.001Z</time></trkpt><trkpt lat="43.86235598093778" lon="12.20443537053536"><ele>564.4</ele><time>2026-05-01T15:59:49.001Z</time></trkpt><trkpt lat="43.86231507733511" lon="12.204351776508101"><ele>565.0</ele><time>2026-05-01T15:59:50.001Z</time></trkpt><trkpt lat="43.86226251985781" lon="12.204262583101004"><ele>565.0</ele><time>2026-05-01T15:59:50.999Z</time></trkpt><trkpt lat="43.86220944574969" lon="12.204169040319048"><ele>565.0</ele><time>2026-05-01T15:59:51.999Z</time></trkpt><trkpt lat="43.86215937936046" lon="12.204079201987224"><ele>565.0</ele><time>2026-05-01T15:59:52.999Z</time></trkpt><trkpt lat="43.86210227182531" lon="12.20399085343432"><ele>565.0</ele><time>2026-05-01T15:59:53.999Z</time></trkpt><trkpt lat="43.86206781196924" lon="12.203891250358827"><ele>565.0</ele><time>2026-05-01T15:59:54.999Z</time></trkpt><trkpt lat="43.86203481289895" lon="12.203807281648837"><ele>565.0</ele><time>2026-05-01T15:59:55.999Z</time></trkpt><trkpt lat="43.86200907863666" lon="12.203713701504872"><ele>564.3333333333334</ele><time>2026-05-01T15:59:56.999Z</time></trkpt><trkpt lat="43.86198865912" lon="12.203610941836564"><ele>563.6666666666667</ele><time>2026-05-01T15:59:57.999Z</time></trkpt><trkpt lat="43.86197971932357" lon="12.203502605205218"><ele>563.0</ele><time>2026-05-01T15:59:58.999Z</time></trkpt><trkpt lat="43.86197746484926" lon="12.203386566944433"><ele>562.3333333333334</ele><time>2026-05-01T16:00:00Z</time></trkpt><trkpt lat="43.86198687447448" lon="12.203263929299283"><ele>561.6666666666666</ele><time>2026-05-01T16:00:01Z</time></trkpt><trkpt lat="43.862006240708254" lon="12.203142386123124"><ele>561.0</ele><time>2026-05-01T16:00:02Z</time></trkpt><trkpt lat="43.8620402786664" lon="12.203021825174176"><ele>559.2</ele><time>2026-05-01T16:00:03Z</time></trkpt><trkpt lat="43.862087365547794" lon="12.202904445108128"><ele>557.4000000000001</ele><time>2026-05-01T16:00:04Z</time></trkpt><trkpt lat="43.862132745390454" lon="12.20277863239153"><ele>555.6</ele><time>2026-05-01T16:00:05Z</time></trkpt><trkpt lat="43.86219306257192" lon="12.202659867969585"><ele>553.8000000000001</ele><time>2026-05-01T16:00:06Z</time></trkpt><trkpt lat="43.862250149817385" lon="12.202529684959451"><ele>552.0</ele><time>2026-05-01T16:00:07Z</time></trkpt><trkpt lat="43.86231411347392" lon="12.202400638059741"><ele>550.6</ele><time>2026-05-01T16:00:08Z</time></trkpt><trkpt lat="43.862379809749235" lon="12.202267508376805"><ele>549.2</ele><time>2026-05-01T16:00:09Z</time></trkpt><trkpt lat="43.86244205806552" lon="12.202150922005634"><ele>547.8</ele><time>2026-05-01T16:00:10Z</time></trkpt><trkpt lat="43.862502787808985" lon="12.202040288865966"><ele>546.4</ele><time>2026-05-01T16:00:11Z</time></trkpt><trkpt lat="43.86256788535717" lon="12.201942262959863"><ele>545.0</ele><time>2026-05-01T16:00:12Z</time></trkpt><trkpt lat="43.86264273784306" lon="12.201865472404991"><ele>544.4</ele><time>2026-05-01T16:00:13Z</time></trkpt><trkpt lat="43.8627205237348" lon="12.201789005128154"><ele>543.8</ele><time>2026-05-01T16:00:14Z</time></trkpt><trkpt lat="43.8628011301517" lon="12.20171453625512"><ele>543.2</ele><time>2026-05-01T16:00:15Z</time></trkpt><trkpt lat="43.86288391480977" lon="12.201638194344087"><ele>542.6</ele><time>2026-05-01T16:00:16Z</time></trkpt><trkpt lat="43.86297309040907" lon="12.201561117763815"><ele>542.0</ele><time>2026-05-01T16:00:17Z</time></trkpt><trkpt lat="43.86305906071056" lon="12.201480359837873"><ele>541.2</ele><time>2026-05-01T16:00:18Z</time></trkpt><trkpt lat="43.86314603778219" lon="12.201397250441348"><ele>540.4000000000001</ele><time>2026-05-01T16:00:19Z</time></trkpt><trkpt lat="43.863240784970884" lon="12.201317938253169"><ele>539.5999999999999</ele><time>2026-05-01T16:00:20Z</time></trkpt><trkpt lat="43.8633311749494" lon="12.201235880448138"><ele>538.8</ele><time>2026-05-01T16:00:21Z</time></trkpt><trkpt lat="43.86341393182184" lon="12.201144727956892"><ele>538.0</ele><time>2026-05-01T16:00:22Z</time></trkpt><trkpt lat="43.86349181180131" lon="12.201047684446221"><ele>536.6</ele><time>2026-05-01T16:00:23Z</time></trkpt><trkpt lat="43.863548269396404" lon="12.200937171149436"><ele>535.1999999999999</ele><time>2026-05-01T16:00:24Z</time></trkpt><trkpt lat="43.86360963022861" lon="12.200819130470107"><ele>533.8</ele><time>2026-05-01T16:00:25Z</time></trkpt><trkpt lat="43.863631216252934" lon="12.200675169991113"><ele>532.4</ele><time>2026-05-01T16:00:26Z</time></trkpt><trkpt lat="43.8636583028744" lon="12.200537867178781"><ele>531.0</ele><time>2026-05-01T16:00:27Z</time></trkpt><trkpt lat="43.86364533427884" lon="12.200400823249963"><ele>531.25</ele><time>2026-05-01T16:00:28Z</time></trkpt><trkpt lat="43.86359669637536" lon="12.200279122757758"><ele>531.5</ele><time>2026-05-01T16:00:29Z</time></trkpt><trkpt lat="43.86353746879287" lon="12.200152500401929"><ele>531.75</ele><time>2026-05-01T16:00:30Z</time></trkpt><trkpt lat="43.86345442831085" lon="12.200026660336304"><ele>532.0</ele><time>2026-05-01T16:00:31Z</time></trkpt><trkpt lat="43.86337800648161" lon="12.199869458369863"><ele>530.5</ele><time>2026-05-01T16:00:32Z</time></trkpt><trkpt lat="43.86326376307559" lon="12.199724432919863"><ele>529.0</ele><time>2026-05-01T16:00:33Z</time></trkpt><trkpt lat="43.86317729625752" lon="12.199574332270004"><ele>527.5</ele><time>2026-05-01T16:00:34Z</time></trkpt><trkpt lat="43.86307677347644" lon="12.199428531413465"><ele>526.0</ele><time>2026-05-01T16:00:35Z</time></trkpt><trkpt lat="43.86297176452979" lon="12.199269009360686"><ele>526.0</ele><time>2026-05-01T16:00:36Z</time></trkpt><trkpt lat="43.86286927311299" lon="12.199137934248906"><ele>526.0</ele><time>2026-05-01T16:00:37Z</time></trkpt><trkpt lat="43.862767259925135" lon="12.19901204734045"><ele>526.0</ele><time>2026-05-01T16:00:38Z</time></trkpt><trkpt lat="43.86266653525632" lon="12.198889283306013"><ele>526.0</ele><time>2026-05-01T16:00:39Z</time></trkpt><trkpt lat="43.86257480758691" lon="12.198789405173198"><ele>524.75</ele><time>2026-05-01T16:00:40Z</time></trkpt><trkpt lat="43.86247782959347" lon="12.198718620620234"><ele>523.5</ele><time>2026-05-01T16:00:41Z</time></trkpt><trkpt lat="43.86236900204418" lon="12.198678561809754"><ele>522.25</ele><time>2026-05-01T16:00:42Z</time></trkpt><trkpt lat="43.86224759418215" lon="12.198673600708476"><ele>521.0</ele><time>2026-05-01T16:00:43Z</time></trkpt><trkpt lat="43.86212553831892" lon="12.198688944472446"><ele>521.0</ele><time>2026-05-01T16:00:44Z</time></trkpt><trkpt lat="43.862020040271275" lon="12.198703207525009"><ele>521.0</ele><time>2026-05-01T16:00:45Z</time></trkpt><trkpt lat="43.861914916544464" lon="12.198704308101977"><ele>521.0</ele><time>2026-05-01T16:00:46Z</time></trkpt><trkpt lat="43.86182081052526" lon="12.198677404014237"><ele>521.0</ele><time>2026-05-01T16:00:47Z</time></trkpt><trkpt lat="43.86173429898573" lon="12.198605019680485"><ele>521.0</ele><time>2026-05-01T16:00:48Z</time></trkpt><trkpt lat="43.86165067881332" lon="12.198499422065897"><ele>521.0</ele><time>2026-05-01T16:00:49Z</time></trkpt><trkpt lat="43.86160070503424" lon="12.19834035621963"><ele>521.0</ele><time>2026-05-01T16:00:50Z</time></trkpt><trkpt lat="43.861546901189925" lon="12.198146868323944"><ele>521.0</ele><time>2026-05-01T16:00:51Z</time></trkpt><trkpt lat="43.86147600294203" lon="12.197940927786535"><ele>521.0</ele><time>2026-05-01T16:00:52Z</time></trkpt><trkpt lat="43.861420000136064" lon="12.19772100788708"><ele>520.0</ele><time>2026-05-01T16:00:53Z</time></trkpt><trkpt lat="43.86135834402078" lon="12.197509692010618"><ele>519.0</ele><time>2026-05-01T16:00:54Z</time></trkpt><trkpt lat="43.86131155108874" lon="12.197322090183036"><ele>518.0</ele><time>2026-05-01T16:00:55Z</time></trkpt><trkpt lat="43.86128257754225" lon="12.197152446799494"><ele>517.0</ele><time>2026-05-01T16:00:56Z</time></trkpt><trkpt lat="43.8612799124469" lon="12.196983220071214"><ele>516.0</ele><time>2026-05-01T16:00:57Z</time></trkpt><trkpt lat="43.86130164842881" lon="12.196819349131781"><ele>515.0</ele><time>2026-05-01T16:00:58Z</time></trkpt><trkpt lat="43.86136492992035" lon="12.196671017108303"><ele>514.0</ele><time>2026-05-01T16:00:59Z</time></trkpt><trkpt lat="43.86145303257685" lon="12.196544230874354"><ele>513.0</ele><time>2026-05-01T16:01:00Z</time></trkpt><trkpt lat="43.861541721082894" lon="12.196397772932437"><ele>510.75</ele><time>2026-05-01T16:01:01Z</time></trkpt><trkpt lat="43.861643598498276" lon="12.196232314905222"><ele>508.5</ele><time>2026-05-01T16:01:02Z</time></trkpt><trkpt lat="43.86174485237561" lon="12.196075185016182"><ele>506.25</ele><time>2026-05-01T16:01:03Z</time></trkpt><trkpt lat="43.86183702777603" lon="12.195943216013115"><ele>504.0</ele><time>2026-05-01T16:01:04Z</time></trkpt><trkpt lat="43.86194075535194" lon="12.195845140341165"><ele>503.75</ele><time>2026-05-01T16:01:05Z</time></trkpt><trkpt lat="43.86206381537281" lon="12.19576469019783"><ele>503.5</ele><time>2026-05-01T16:01:06Z</time></trkpt><trkpt lat="43.86220450520297" lon="12.195691818972994"><ele>503.25</ele><time>2026-05-01T16:01:07Z</time></trkpt><trkpt lat="43.86232593053994" lon="12.195602001911467"><ele>503.0</ele><time>2026-05-01T16:01:08Z</time></trkpt><trkpt lat="43.86242586762852" lon="12.19549367006925"><ele>502.4</ele><time>2026-05-01T16:01:09Z</time></trkpt><trkpt lat="43.86249617887251" lon="12.195393600699449"><ele>501.79999999999995</ele><time>2026-05-01T16:01:10Z</time></trkpt><trkpt lat="43.86253335045404" lon="12.195264720357866"><ele>501.2</ele><time>2026-05-01T16:01:11Z</time></trkpt><trkpt lat="43.86254311614464" lon="12.195128438243744"><ele>500.6</ele><time>2026-05-01T16:01:12Z</time></trkpt><trkpt lat="43.86252464981675" lon="12.194982191824689"><ele>500.0</ele><time>2026-05-01T16:01:13Z</time></trkpt><trkpt lat="43.862499199680336" lon="12.194823116824653"><ele>499.0</ele><time>2026-05-01T16:01:14Z</time></trkpt><trkpt lat="43.86247672562881" lon="12.194664577601376"><ele>498.0</ele><time>2026-05-01T16:01:15Z</time></trkpt><trkpt lat="43.86245587616632" lon="12.194505777394468"><ele>497.0</ele><time>2026-05-01T16:01:16Z</time></trkpt><trkpt lat="43.86243651213862" lon="12.194344267186843"><ele>496.0</ele><time>2026-05-01T16:01:17Z</time></trkpt><trkpt lat="43.86242309573234" lon="12.194187984186538"><ele>496.0</ele><time>2026-05-01T16:01:18Z</time></trkpt><trkpt lat="43.86240662115341" lon="12.194022150531717"><ele>496.0</ele><time>2026-05-01T16:01:19Z</time></trkpt><trkpt lat="43.86239473589699" lon="12.193846893176831"><ele>496.0</ele><time>2026-05-01T16:01:20Z</time></trkpt><trkpt lat="43.86241346650447" lon="12.193688602430585"><ele>496.0</ele><time>2026-05-01T16:01:21Z</time></trkpt><trkpt lat="43.86244072374027" lon="12.1935527275342"><ele>495.0</ele><time>2026-05-01T16:01:22Z</time></trkpt><trkpt lat="43.862493177999596" lon="12.193447610896397"><ele>494.0</ele><time>2026-05-01T16:01:23Z</time></trkpt><trkpt lat="43.86256429538683" lon="12.19335956764771"><ele>493.0</ele><time>2026-05-01T16:01:24Z</time></trkpt><trkpt lat="43.86266173689116" lon="12.193275698004218"><ele>492.0</ele><time>2026-05-01T16:01:25Z</time></trkpt><trkpt lat="43.862779000110656" lon="12.193191940453985"><ele>491.0</ele><time>2026-05-01T16:01:26Z</time></trkpt><trkpt lat="43.86291797060538" lon="12.193100878633413"><ele>489.75</ele><time>2026-05-01T16:01:27Z</time></trkpt><trkpt lat="43.86304494746198" lon="12.19300466878392"><ele>488.5</ele><time>2026-05-01T16:01:28Z</time></trkpt><trkpt lat="43.86316084730625" lon="12.192888955030645"><ele>487.25</ele><time>2026-05-01T16:01:29Z</time></trkpt><trkpt lat="43.86327679985759" lon="12.192771328152201"><ele>486.0</ele><time>2026-05-01T16:01:30Z</time></trkpt><trkpt lat="43.86337574577164" lon="12.19261517112109"><ele>485.66666666666663</ele><time>2026-05-01T16:01:31Z</time></trkpt><trkpt lat="43.863452726717064" lon="12.192424918502683"><ele>485.3333333333333</ele><time>2026-05-01T16:01:32Z</time></trkpt><trkpt lat="43.86353296815575" lon="12.192211311375404"><ele>485.0</ele><time>2026-05-01T16:01:33Z</time></trkpt><trkpt lat="43.86362820099991" lon="12.192013216730114"><ele>485.0</ele><time>2026-05-01T16:01:34.001Z</time></trkpt><trkpt lat="43.86372894738777" lon="12.191805291470171"><ele>485.0</ele><time>2026-05-01T16:01:35.001Z</time></trkpt><trkpt lat="43.863830605461104" lon="12.191594733981358"><ele>485.0</ele><time>2026-05-01T16:01:36.001Z</time></trkpt><trkpt lat="43.863924571715934" lon="12.191392030808903"><ele>483.0</ele><time>2026-05-01T16:01:37.001Z</time></trkpt><trkpt lat="43.86400651819536" lon="12.191200686325589"><ele>481.0</ele><time>2026-05-01T16:01:38.001Z</time></trkpt><trkpt lat="43.864074661655344" lon="12.19100667991755"><ele>479.0</ele><time>2026-05-01T16:01:39.001Z</time></trkpt><trkpt lat="43.86414570180549" lon="12.190824566907413"><ele>478.25</ele><time>2026-05-01T16:01:40.001Z</time></trkpt><trkpt lat="43.86421165321631" lon="12.190649561423163"><ele>477.5</ele><time>2026-05-01T16:01:41.001Z</time></trkpt><trkpt lat="43.86426770258411" lon="12.190476236876584"><ele>476.75</ele><time>2026-05-01T16:01:42.001Z</time></trkpt><trkpt lat="43.86430385435927" lon="12.19030370016681"><ele>476.0</ele><time>2026-05-01T16:01:43.001Z</time></trkpt><trkpt lat="43.86431522667618" lon="12.190122015287189"><ele>475.3333333333333</ele><time>2026-05-01T16:01:44.001Z</time></trkpt><trkpt lat="43.86429270204044" lon="12.189933234558561"><ele>474.66666666666663</ele><time>2026-05-01T16:01:45.001Z</time></trkpt><trkpt lat="43.86424822927935" lon="12.1897316154923"><ele>474.0</ele><time>2026-05-01T16:01:46.001Z</time></trkpt><trkpt lat="43.864190762082174" lon="12.189523292838713"><ele>474.0</ele><time>2026-05-01T16:01:47.001Z</time></trkpt><trkpt lat="43.86413912158562" lon="12.189305859168787"><ele>474.0</ele><time>2026-05-01T16:01:48.001Z</time></trkpt><trkpt lat="43.86409647495743" lon="12.189095654660319"><ele>474.0</ele><time>2026-05-01T16:01:49.001Z</time></trkpt><trkpt lat="43.86404819567231" lon="12.188889515027062"><ele>473.0</ele><time>2026-05-01T16:01:50.001Z</time></trkpt><trkpt lat="43.86400213976368" lon="12.188681476694303"><ele>472.0</ele><time>2026-05-01T16:01:51.001Z</time></trkpt><trkpt lat="43.86395763146386" lon="12.188476783554819"><ele>471.0</ele><time>2026-05-01T16:01:52.001Z</time></trkpt><trkpt lat="43.863918960098914" lon="12.188276036107032"><ele>470.5</ele><time>2026-05-01T16:01:53.001Z</time></trkpt><trkpt lat="43.86387543465767" lon="12.188079889103255"><ele>470.0</ele><time>2026-05-01T16:01:54.001Z</time></trkpt><trkpt lat="43.86382934560653" lon="12.187886695694917"><ele>469.5</ele><time>2026-05-01T16:01:55.001Z</time></trkpt><trkpt lat="43.86379199787905" lon="12.18770565152035"><ele>469.0</ele><time>2026-05-01T16:01:56.001Z</time></trkpt><trkpt lat="43.86375465636888" lon="12.187530947590215"><ele>469.0</ele><time>2026-05-01T16:01:57Z</time></trkpt><trkpt lat="43.863720961070825" lon="12.187361107279116"><ele>469.0</ele><time>2026-05-01T16:01:58Z</time></trkpt><trkpt lat="43.8637236281584" lon="12.187214022963166"><ele>469.0</ele><time>2026-05-01T16:01:59Z</time></trkpt><trkpt lat="43.86372714901615" lon="12.18710442965742"><ele>469.0</ele><time>2026-05-01T16:02:00Z</time></trkpt><trkpt lat="43.863770216157825" lon="12.187024663301553"><ele>469.0</ele><time>2026-05-01T16:02:01Z</time></trkpt><trkpt lat="43.86381222563775" lon="12.18694036567493"><ele>468.2</ele><time>2026-05-01T16:02:02Z</time></trkpt><trkpt lat="43.86386883349391" lon="12.186853683022944"><ele>467.4</ele><time>2026-05-01T16:02:03Z</time></trkpt><trkpt lat="43.863936290965064" lon="12.186752113615158"><ele>466.6</ele><time>2026-05-01T16:02:04Z</time></trkpt><trkpt lat="43.86399747583414" lon="12.186624823554714"><ele>465.8</ele><time>2026-05-01T16:02:05Z</time></trkpt><trkpt lat="43.864065930113526" lon="12.186485618861663"><ele>465.0</ele><time>2026-05-01T16:02:06Z</time></trkpt><trkpt lat="43.86411952090656" lon="12.186318963825933"><ele>462.0</ele><time>2026-05-01T16:02:07Z</time></trkpt><trkpt lat="43.864146030792135" lon="12.18610858838766"><ele>459.0</ele><time>2026-05-01T16:02:08Z</time></trkpt><trkpt lat="43.86416596599064" lon="12.1858687661193"><ele>456.0</ele><time>2026-05-01T16:02:09Z</time></trkpt><trkpt lat="43.86419960448371" lon="12.18562869487504"><ele>453.0</ele><time>2026-05-01T16:02:10Z</time></trkpt><trkpt lat="43.86423749504918" lon="12.185390499786184"><ele>450.0</ele><time>2026-05-01T16:02:11Z</time></trkpt><trkpt lat="43.86429838977306" lon="12.185178502160404"><ele>447.0</ele><time>2026-05-01T16:02:12Z</time></trkpt><trkpt lat="43.86434471074986" lon="12.184976717471264"><ele>452.0</ele><time>2026-05-01T16:02:13Z</time></trkpt><trkpt lat="43.86439013868578" lon="12.184783067310116"><ele>457.0</ele><time>2026-05-01T16:02:14Z</time></trkpt><trkpt lat="43.86440574418959" lon="12.184606649552709"><ele>462.0</ele><time>2026-05-01T16:02:15Z</time></trkpt><trkpt lat="43.86442566782433" lon="12.184443608628237"><ele>467.0</ele><time>2026-05-01T16:02:16Z</time></trkpt><trkpt lat="43.864415026487606" lon="12.184279622951252"><ele>467.0</ele><time>2026-05-01T16:02:17Z</time></trkpt><trkpt lat="43.86437894822956" lon="12.184116190985064"><ele>467.0</ele><time>2026-05-01T16:02:18Z</time></trkpt><trkpt lat="43.86433838050257" lon="12.183956735909296"><ele>467.0</ele><time>2026-05-01T16:02:19Z</time></trkpt><trkpt lat="43.86430911468566" lon="12.183791723743989"><ele>467.0</ele><time>2026-05-01T16:02:20Z</time></trkpt><trkpt lat="43.864311418157556" lon="12.183629274007904"><ele>462.0</ele><time>2026-05-01T16:02:21Z</time></trkpt><trkpt lat="43.86437041303135" lon="12.183478931451326"><ele>457.0</ele><time>2026-05-01T16:02:22Z</time></trkpt><trkpt lat="43.86442251308236" lon="12.183317163920522"><ele>452.0</ele><time>2026-05-01T16:02:23Z</time></trkpt><trkpt lat="43.86451914093748" lon="12.183181849324564"><ele>447.0</ele><time>2026-05-01T16:02:24Z</time></trkpt><trkpt lat="43.86461658754549" lon="12.183081979221653"><ele>447.0</ele><time>2026-05-01T16:02:25Z</time></trkpt><trkpt lat="43.86471779483919" lon="12.183026172609596"><ele>447.0</ele><time>2026-05-01T16:02:26Z</time></trkpt><trkpt lat="43.864825927643004" lon="12.18303758960937"><ele>447.0</ele><time>2026-05-01T16:02:27Z</time></trkpt><trkpt lat="43.86493187453877" lon="12.183119797325034"><ele>447.0</ele><time>2026-05-01T16:02:28Z</time></trkpt><trkpt lat="43.86504541215408" lon="12.183192294713647"><ele>445.5</ele><time>2026-05-01T16:02:29Z</time></trkpt><trkpt lat="43.86516819082632" lon="12.183271818293091"><ele>444.0</ele><time>2026-05-01T16:02:30Z</time></trkpt><trkpt lat="43.86529521552974" lon="12.183342036198196"><ele>442.5</ele><time>2026-05-01T16:02:31Z</time></trkpt><trkpt lat="43.8654304856773" lon="12.183368780327505"><ele>441.0</ele><time>2026-05-01T16:02:32Z</time></trkpt><trkpt lat="43.865567149738354" lon="12.183367415712523"><ele>441.0</ele><time>2026-05-01T16:02:33Z</time></trkpt><trkpt lat="43.86570894962486" lon="12.183334945239611"><ele>441.0</ele><time>2026-05-01T16:02:34Z</time></trkpt><trkpt lat="43.865851606600195" lon="12.183248911901858"><ele>441.0</ele><time>2026-05-01T16:02:35Z</time></trkpt><trkpt lat="43.865992191607894" lon="12.183144835670339"><ele>437.66666666666663</ele><time>2026-05-01T16:02:36Z</time></trkpt><trkpt lat="43.86613790061928" lon="12.183036801860025"><ele>434.3333333333333</ele><time>2026-05-01T16:02:37Z</time></trkpt><trkpt lat="43.86628521622505" lon="12.182930415687988"><ele>431.0</ele><time>2026-05-01T16:02:38Z</time></trkpt><trkpt lat="43.866428127358745" lon="12.182822257440709"><ele>431.0</ele><time>2026-05-01T16:02:39Z</time></trkpt><trkpt lat="43.866547426208506" lon="12.182685153145925"><ele>431.0</ele><time>2026-05-01T16:02:40Z</time></trkpt><trkpt lat="43.866666418547155" lon="12.182562940505724"><ele>431.0</ele><time>2026-05-01T16:02:41Z</time></trkpt><trkpt lat="43.86676268039069" lon="12.182422124584836"><ele>431.0</ele><time>2026-05-01T16:02:42Z</time></trkpt><trkpt lat="43.86684620021817" lon="12.182275427546664"><ele>431.0</ele><time>2026-05-01T16:02:43Z</time></trkpt><trkpt lat="43.866901941263556" lon="12.182155038394"><ele>431.0</ele><time>2026-05-01T16:02:44Z</time></trkpt><trkpt lat="43.86694074233845" lon="12.182033141592242"><ele>431.0</ele><time>2026-05-01T16:02:45Z</time></trkpt><trkpt lat="43.86696074862125" lon="12.181899505285461"><ele>431.0</ele><time>2026-05-01T16:02:46Z</time></trkpt><trkpt lat="43.86694671014556" lon="12.181764283583362"><ele>431.0</ele><time>2026-05-01T16:02:47Z</time></trkpt><trkpt lat="43.866893069605894" lon="12.181593944051675"><ele>427.5</ele><time>2026-05-01T16:02:48Z</time></trkpt><trkpt lat="43.86683173980706" lon="12.181432101423912"><ele>424.0</ele><time>2026-05-01T16:02:49Z</time></trkpt><trkpt lat="43.866765937714966" lon="12.181290838280072"><ele>420.5</ele><time>2026-05-01T16:02:50Z</time></trkpt><trkpt lat="43.86671698493403" lon="12.181154640733238"><ele>417.0</ele><time>2026-05-01T16:02:51Z</time></trkpt><trkpt lat="43.86671209733766" lon="12.181006871513508"><ele>415.75</ele><time>2026-05-01T16:02:52Z</time></trkpt><trkpt lat="43.86674557332148" lon="12.180841244840408"><ele>414.5</ele><time>2026-05-01T16:02:53Z</time></trkpt><trkpt lat="43.866782150722834" lon="12.180671552730777"><ele>413.25</ele><time>2026-05-01T16:02:54Z</time></trkpt><trkpt lat="43.866816127102965" lon="12.180489175856751"><ele>412.0</ele><time>2026-05-01T16:02:55Z</time></trkpt><trkpt lat="43.86685636174418" lon="12.180327730569712"><ele>411.20000000000005</ele><time>2026-05-01T16:02:56Z</time></trkpt><trkpt lat="43.86690592501717" lon="12.180206292093503"><ele>410.4</ele><time>2026-05-01T16:02:57Z</time></trkpt><trkpt lat="43.866993358564294" lon="12.180132192382642"><ele>409.6</ele><time>2026-05-01T16:02:58Z</time></trkpt><trkpt lat="43.86710781645112" lon="12.180127232665898"><ele>408.79999999999995</ele><time>2026-05-01T16:02:59Z</time></trkpt><trkpt lat="43.86722562372975" lon="12.180131477412054"><ele>408.0</ele><time>2026-05-01T16:03:00Z</time></trkpt><trkpt lat="43.8673162306363" lon="12.180255186010067"><ele>408.0</ele><time>2026-05-01T16:03:01Z</time></trkpt><trkpt lat="43.867369800467664" lon="12.18037582044154"><ele>408.0</ele><time>2026-05-01T16:03:02Z</time></trkpt><trkpt lat="43.86739723322829" lon="12.180533678737149"><ele>408.0</ele><time>2026-05-01T16:03:03Z</time></trkpt><trkpt lat="43.8674443570548" lon="12.1807092239759"><ele>408.0</ele><time>2026-05-01T16:03:04Z</time></trkpt><trkpt lat="43.86749005598378" lon="12.180869813103211"><ele>407.59999999999997</ele><time>2026-05-01T16:03:05Z</time></trkpt><trkpt lat="43.867555591851776" lon="12.180991118012685"><ele>407.2</ele><time>2026-05-01T16:03:06Z</time></trkpt><trkpt lat="43.86764147995602" lon="12.181076998294463"><ele>406.8</ele><time>2026-05-01T16:03:07Z</time></trkpt><trkpt lat="43.867744475414845" lon="12.181113995050483"><ele>406.4</ele><time>2026-05-01T16:03:08Z</time></trkpt><trkpt lat="43.86785697151444" lon="12.1810946229764"><ele>406.0</ele><time>2026-05-01T16:03:09Z</time></trkpt><trkpt lat="43.867985421618826" lon="12.18102365175831"><ele>406.0</ele><time>2026-05-01T16:03:10Z</time></trkpt><trkpt lat="43.8681141984665" lon="12.180901500503373"><ele>406.0</ele><time>2026-05-01T16:03:11Z</time></trkpt><trkpt lat="43.86826058461604" lon="12.180805298024321"><ele>406.0</ele><time>2026-05-01T16:03:12.001Z</time></trkpt><trkpt lat="43.868403733473336" lon="12.180769869074693"><ele>407.0</ele><time>2026-05-01T16:03:13.001Z</time></trkpt><trkpt lat="43.868553872265714" lon="12.18075952751968"><ele>408.0</ele><time>2026-05-01T16:03:14.001Z</time></trkpt><trkpt lat="43.868689318582426" lon="12.18071327274566"><ele>409.0</ele><time>2026-05-01T16:03:15.001Z</time></trkpt><trkpt lat="43.86879703927292" lon="12.18065848542019"><ele>410.0</ele><time>2026-05-01T16:03:16.001Z</time></trkpt><trkpt lat="43.86888431662169" lon="12.180543328267182"><ele>406.0</ele><time>2026-05-01T16:03:17.001Z</time></trkpt><trkpt lat="43.868958794790736" lon="12.18038158375962"><ele>402.0</ele><time>2026-05-01T16:03:18.001Z</time></trkpt><trkpt lat="43.86902720511276" lon="12.18021208318639"><ele>398.0</ele><time>2026-05-01T16:03:19.001Z</time></trkpt><trkpt lat="43.869112278535084" lon="12.180084567215301"><ele>394.0</ele><time>2026-05-01T16:03:20.001Z</time></trkpt><trkpt lat="43.86920872338103" lon="12.179999797498509"><ele>393.75</ele><time>2026-05-01T16:03:21.001Z</time></trkpt><trkpt lat="43.86933365965729" lon="12.17998453131203"><ele>393.5</ele><time>2026-05-01T16:03:22.001Z</time></trkpt><trkpt lat="43.869467569821865" lon="12.17996324485195"><ele>393.25</ele><time>2026-05-01T16:03:23.001Z</time></trkpt><trkpt lat="43.86958482235997" lon="12.179884861897097"><ele>393.0</ele><time>2026-05-01T16:03:24.001Z</time></trkpt><trkpt lat="43.869694043119246" lon="12.179758422534352"><ele>390.5</ele><time>2026-05-01T16:03:25.001Z</time></trkpt><trkpt lat="43.86979618678854" lon="12.179579270266299"><ele>388.0</ele><time>2026-05-01T16:03:26.001Z</time></trkpt><trkpt lat="43.86987847452229" lon="12.179405308113576"><ele>385.5</ele><time>2026-05-01T16:03:27.001Z</time></trkpt><trkpt lat="43.869970996834205" lon="12.179302293939614"><ele>383.0</ele><time>2026-05-01T16:03:28.001Z</time></trkpt><trkpt lat="43.870052938656094" lon="12.179231534766947"><ele>379.5</ele><time>2026-05-01T16:03:29.001Z</time></trkpt><trkpt lat="43.87014962281528" lon="12.179222372351578"><ele>376.0</ele><time>2026-05-01T16:03:30.001Z</time></trkpt><trkpt lat="43.87024856703943" lon="12.179272590413365"><ele>372.5</ele><time>2026-05-01T16:03:31.001Z</time></trkpt><trkpt lat="43.87032982151083" lon="12.179391854467994"><ele>369.0</ele><time>2026-05-01T16:03:32.001Z</time></trkpt><trkpt lat="43.87042371914359" lon="12.179545059125223"><ele>369.0</ele><time>2026-05-01T16:03:33.001Z</time></trkpt><trkpt lat="43.87054047640599" lon="12.179735072639547"><ele>369.0</ele><time>2026-05-01T16:03:34.001Z</time></trkpt><trkpt lat="43.87064978285775" lon="12.179925586944846"><ele>369.0</ele><time>2026-05-01T16:03:35.001Z</time></trkpt><trkpt lat="43.87073439003085" lon="12.180094130986221"><ele>369.5</ele><time>2026-05-01T16:03:36.001Z</time></trkpt><trkpt lat="43.87081504105316" lon="12.18023443445532"><ele>370.0</ele><time>2026-05-01T16:03:37.001Z</time></trkpt><trkpt lat="43.87089761069859" lon="12.18032619598255"><ele>370.5</ele><time>2026-05-01T16:03:38.001Z</time></trkpt><trkpt lat="43.871001057495526" lon="12.180390643128998"><ele>371.0</ele><time>2026-05-01T16:03:39.001Z</time></trkpt><trkpt lat="43.87114019836129" lon="12.180424299536849"><ele>371.0</ele><time>2026-05-01T16:03:40.001Z</time></trkpt><trkpt lat="43.87128360059229" lon="12.18043282067837"><ele>371.0</ele><time>2026-05-01T16:03:41.001Z</time></trkpt><trkpt lat="43.87140168545745" lon="12.180444118244614"><ele>371.0</ele><time>2026-05-01T16:03:42.001Z</time></trkpt><trkpt lat="43.87150728538561" lon="12.18040061919149"><ele>371.0</ele><time>2026-05-01T16:03:43.001Z</time></trkpt><trkpt lat="43.8716048844928" lon="12.180285508117786"><ele>371.0</ele><time>2026-05-01T16:03:44.001Z</time></trkpt><trkpt lat="43.87171352375132" lon="12.180134509205985"><ele>371.0</ele><time>2026-05-01T16:03:45.001Z</time></trkpt><trkpt lat="43.87184037349128" lon="12.179995116878036"><ele>371.0</ele><time>2026-05-01T16:03:46.001Z</time></trkpt><trkpt lat="43.8719423993525" lon="12.17986009641076"><ele>368.75</ele><time>2026-05-01T16:03:47.001Z</time></trkpt><trkpt lat="43.87202919361199" lon="12.17971051014098"><ele>366.5</ele><time>2026-05-01T16:03:48.001Z</time></trkpt><trkpt lat="43.87208816473293" lon="12.179546298080476"><ele>364.25</ele><time>2026-05-01T16:03:49.001Z</time></trkpt><trkpt lat="43.872105360078464" lon="12.17934752622861"><ele>362.0</ele><time>2026-05-01T16:03:50.001Z</time></trkpt><trkpt lat="43.87212693898374" lon="12.17912435671893"><ele>359.6666666666667</ele><time>2026-05-01T16:03:51.001Z</time></trkpt><trkpt lat="43.872157649357476" lon="12.17889432490942"><ele>357.3333333333333</ele><time>2026-05-01T16:03:52.001Z</time></trkpt><trkpt lat="43.87220538160842" lon="12.178668444568624"><ele>355.0</ele><time>2026-05-01T16:03:53.001Z</time></trkpt><trkpt lat="43.87216552054682" lon="12.178505051187713"><ele>355.0</ele><time>2026-05-01T16:03:54.001Z</time></trkpt><trkpt lat="43.87216435839168" lon="12.178333907010527"><ele>355.0</ele><time>2026-05-01T16:03:55.001Z</time></trkpt><trkpt lat="43.87212093485907" lon="12.178186112323816"><ele>355.0</ele><time>2026-05-01T16:03:56.001Z</time></trkpt><trkpt lat="43.87206312306102" lon="12.17805581380333"><ele>355.0</ele><time>2026-05-01T16:03:57.001Z</time></trkpt><trkpt lat="43.87197457955049" lon="12.177918847098955"><ele>355.0</ele><time>2026-05-01T16:03:58.001Z</time></trkpt><trkpt lat="43.87186352300739" lon="12.177772502423608"><ele>355.0</ele><time>2026-05-01T16:03:59.001Z</time></trkpt><trkpt lat="43.87173571217245" lon="12.177613032911497"><ele>355.0</ele><time>2026-05-01T16:04:00.001Z</time></trkpt><trkpt lat="43.871594602919956" lon="12.177447922569884"><ele>352.66666666666663</ele><time>2026-05-01T16:04:01.001Z</time></trkpt><trkpt lat="43.87145132124142" lon="12.177276454709329"><ele>350.3333333333333</ele><time>2026-05-01T16:04:02.001Z</time></trkpt><trkpt lat="43.87132958050656" lon="12.177113369388987"><ele>348.0</ele><time>2026-05-01T16:04:03Z</time></trkpt><trkpt lat="43.87122380591583" lon="12.176956326175118"><ele>348.0</ele><time>2026-05-01T16:04:04Z</time></trkpt><trkpt lat="43.871144592084775" lon="12.176808929213005"><ele>348.0</ele><time>2026-05-01T16:04:05Z</time></trkpt><trkpt lat="43.87108735913679" lon="12.176655311852402"><ele>348.0</ele><time>2026-05-01T16:04:06Z</time></trkpt><trkpt lat="43.8710693085908" lon="12.176530645632498"><ele>348.0</ele><time>2026-05-01T16:04:07Z</time></trkpt><trkpt lat="43.87108898396985" lon="12.176399576963128"><ele>348.0</ele><time>2026-05-01T16:04:08Z</time></trkpt><trkpt lat="43.871145399886714" lon="12.176273413268486"><ele>345.75</ele><time>2026-05-01T16:04:09Z</time></trkpt><trkpt lat="43.871228799344905" lon="12.17617757973678"><ele>343.5</ele><time>2026-05-01T16:04:10Z</time></trkpt><trkpt lat="43.8713380341259" lon="12.176160071980254"><ele>341.25</ele><time>2026-05-01T16:04:11Z</time></trkpt><trkpt lat="43.87145249363696" lon="12.176163993153548"><ele>339.0</ele><time>2026-05-01T16:04:12Z</time></trkpt><trkpt lat="43.87159246363934" lon="12.176253987670808"><ele>339.0</ele><time>2026-05-01T16:04:13Z</time></trkpt><trkpt lat="43.87176224273379" lon="12.176323129109655"><ele>339.0</ele><time>2026-05-01T16:04:14Z</time></trkpt><trkpt lat="43.87189295917691" lon="12.176413111754146"><ele>339.0</ele><time>2026-05-01T16:04:15Z</time></trkpt><trkpt lat="43.872089434202444" lon="12.176507579485495"><ele>338.6666666666667</ele><time>2026-05-01T16:04:16Z</time></trkpt><trkpt lat="43.8722891763312" lon="12.176619371460617"><ele>338.33333333333337</ele><time>2026-05-01T16:04:17Z</time></trkpt><trkpt lat="43.87248405960971" lon="12.176726369908069"><ele>338.0</ele><time>2026-05-01T16:04:18Z</time></trkpt><trkpt lat="43.87266649194224" lon="12.176817114847225"><ele>336.0</ele><time>2026-05-01T16:04:19Z</time></trkpt><trkpt lat="43.87282951764511" lon="12.176899725338814"><ele>334.0</ele><time>2026-05-01T16:04:20Z</time></trkpt><trkpt lat="43.87297459660811" lon="12.176963708709128"><ele>332.0</ele><time>2026-05-01T16:04:21Z</time></trkpt><trkpt lat="43.873103706856334" lon="12.176990924124102"><ele>332.0</ele><time>2026-05-01T16:04:22Z</time></trkpt><trkpt lat="43.873220467566206" lon="12.176964624371506"><ele>332.0</ele><time>2026-05-01T16:04:23Z</time></trkpt><trkpt lat="43.87334181194627" lon="12.176876919716882"><ele>332.0</ele><time>2026-05-01T16:04:24Z</time></trkpt><trkpt lat="43.873457799559944" lon="12.176712128139604"><ele>332.0</ele><time>2026-05-01T16:04:25Z</time></trkpt><trkpt lat="43.87357499973702" lon="12.176491668907621"><ele>329.0</ele><time>2026-05-01T16:04:26Z</time></trkpt><trkpt lat="43.87367895718008" lon="12.176327581776071"><ele>326.0</ele><time>2026-05-01T16:04:27Z</time></trkpt><trkpt lat="43.87379818463714" lon="12.176248333637592"><ele>323.0</ele><time>2026-05-01T16:04:28Z</time></trkpt><trkpt lat="43.873912608918815" lon="12.17626008775397"><ele>320.0</ele><time>2026-05-01T16:04:29Z</time></trkpt><trkpt lat="43.87400432104677" lon="12.176344504454445"><ele>320.0</ele><time>2026-05-01T16:04:30Z</time></trkpt><trkpt lat="43.874129391047155" lon="12.176457639046307"><ele>320.0</ele><time>2026-05-01T16:04:31Z</time></trkpt><trkpt lat="43.87427579102463" lon="12.176606333626454"><ele>320.0</ele><time>2026-05-01T16:04:32Z</time></trkpt><trkpt lat="43.87442233735851" lon="12.176745744245414"><ele>320.0</ele><time>2026-05-01T16:04:33Z</time></trkpt><trkpt lat="43.87456014736071" lon="12.17681703152433"><ele>320.0</ele><time>2026-05-01T16:04:34Z</time></trkpt><trkpt lat="43.874680014523314" lon="12.176855123534908"><ele>320.0</ele><time>2026-05-01T16:04:35Z</time></trkpt><trkpt lat="43.87481276564491" lon="12.17683101941441"><ele>320.0</ele><time>2026-05-01T16:04:36Z</time></trkpt><trkpt lat="43.87493680606084" lon="12.176739786874073"><ele>320.0</ele><time>2026-05-01T16:04:37Z</time></trkpt><trkpt lat="43.87504630935649" lon="12.17661285005282"><ele>320.0</ele><time>2026-05-01T16:04:38Z</time></trkpt><trkpt lat="43.87511668442268" lon="12.1764365451937"><ele>320.0</ele><time>2026-05-01T16:04:39Z</time></trkpt><trkpt lat="43.875152846587156" lon="12.176219530035047"><ele>320.0</ele><time>2026-05-01T16:04:40Z</time></trkpt><trkpt lat="43.8751785216026" lon="12.175984665484298"><ele>315.0</ele><time>2026-05-01T16:04:41Z</time></trkpt><trkpt lat="43.87519020794556" lon="12.175762493911058"><ele>310.0</ele><time>2026-05-01T16:04:42Z</time></trkpt><trkpt lat="43.875233758697085" lon="12.17557841471088"><ele>305.0</ele><time>2026-05-01T16:04:43Z</time></trkpt><trkpt lat="43.87532811344532" lon="12.175444137333239"><ele>300.0</ele><time>2026-05-01T16:04:44Z</time></trkpt><trkpt lat="43.87544844494227" lon="12.17537453764392"><ele>299.0</ele><time>2026-05-01T16:04:45Z</time></trkpt><trkpt lat="43.87557617706422" lon="12.17531838422034"><ele>298.0</ele><time>2026-05-01T16:04:46Z</time></trkpt><trkpt lat="43.87567714540747" lon="12.175319715790721"><ele>297.0</ele><time>2026-05-01T16:04:47Z</time></trkpt><trkpt lat="43.875776184546204" lon="12.17534715427461"><ele>296.0</ele><time>2026-05-01T16:04:48Z</time></trkpt><trkpt lat="43.8758722599927" lon="12.175423604264898"><ele>295.0</ele><time>2026-05-01T16:04:49Z</time></trkpt><trkpt lat="43.875989844740026" lon="12.175528737946081"><ele>292.25</ele><time>2026-05-01T16:04:50Z</time></trkpt><trkpt lat="43.8761132174677" lon="12.175616519028566"><ele>289.5</ele><time>2026-05-01T16:04:51Z</time></trkpt><trkpt lat="43.876236564052085" lon="12.175660671731551"><ele>286.75</ele><time>2026-05-01T16:04:52Z</time></trkpt><trkpt lat="43.876360933974276" lon="12.175638739716291"><ele>284.0</ele><time>2026-05-01T16:04:53Z</time></trkpt><trkpt lat="43.87647143629209" lon="12.175617114342504"><ele>284.0</ele><time>2026-05-01T16:04:54Z</time></trkpt><trkpt lat="43.87657594973438" lon="12.175549652695908"><ele>284.0</ele><time>2026-05-01T16:04:55Z</time></trkpt><trkpt lat="43.87667547977558" lon="12.17542957964067"><ele>284.0</ele><time>2026-05-01T16:04:56Z</time></trkpt><trkpt lat="43.87674673673471" lon="12.175283020115424"><ele>284.0</ele><time>2026-05-01T16:04:57Z</time></trkpt><trkpt lat="43.87677163054521" lon="12.175025807036471"><ele>283.25</ele><time>2026-05-01T16:04:58Z</time></trkpt><trkpt lat="43.876774278723204" lon="12.174798666675002"><ele>282.5</ele><time>2026-05-01T16:04:59Z</time></trkpt><trkpt lat="43.876800548044876" lon="12.174595646931104"><ele>281.75</ele><time>2026-05-01T16:05:00Z</time></trkpt><trkpt lat="43.87683961890382" lon="12.174433172668959"><ele>281.0</ele><time>2026-05-01T16:05:01Z</time></trkpt><trkpt lat="43.87688112944259" lon="12.174309300069833"><ele>281.0</ele><time>2026-05-01T16:05:02Z</time></trkpt><trkpt lat="43.876972271872674" lon="12.174249331783264"><ele>281.0</ele><time>2026-05-01T16:05:03Z</time></trkpt><trkpt lat="43.87706381665202" lon="12.174154808438098"><ele>281.0</ele><time>2026-05-01T16:05:04Z</time></trkpt><trkpt lat="43.87717223539006" lon="12.174033438184646"><ele>281.0</ele><time>2026-05-01T16:05:05Z</time></trkpt><trkpt lat="43.877306318725836" lon="12.173897047144393"><ele>280.0</ele><time>2026-05-01T16:05:06Z</time></trkpt><trkpt lat="43.87748110314927" lon="12.173754097451088"><ele>279.0</ele><time>2026-05-01T16:05:07Z</time></trkpt><trkpt lat="43.87766189618401" lon="12.173613304951495"><ele>278.0</ele><time>2026-05-01T16:05:08Z</time></trkpt><trkpt lat="43.87784129028963" lon="12.173473346259417"><ele>278.0</ele><time>2026-05-01T16:05:09Z</time></trkpt><trkpt lat="43.87800782062587" lon="12.173352074427106"><ele>278.0</ele><time>2026-05-01T16:05:10.001Z</time></trkpt><trkpt lat="43.8781650503282" lon="12.173229358284567"><ele>278.0</ele><time>2026-05-01T16:05:11.001Z</time></trkpt><trkpt lat="43.87833048622991" lon="12.173174923618305"><ele>276.0</ele><time>2026-05-01T16:05:12.001Z</time></trkpt><trkpt lat="43.8784909062189" lon="12.173122813675612"><ele>274.0</ele><time>2026-05-01T16:05:13.001Z</time></trkpt><trkpt lat="43.87862554794985" lon="12.17306361075167"><ele>272.0</ele><time>2026-05-01T16:05:14.001Z</time></trkpt><trkpt lat="43.87874690080408" lon="12.172999469002008"><ele>270.0</ele><time>2026-05-01T16:05:15.001Z</time></trkpt><trkpt lat="43.87884266426282" lon="12.172875770984147"><ele>270.0</ele><time>2026-05-01T16:05:16.001Z</time></trkpt><trkpt lat="43.87893533466208" lon="12.172705192508742"><ele>270.0</ele><time>2026-05-01T16:05:17.001Z</time></trkpt><trkpt lat="43.87901385017569" lon="12.17248953765996"><ele>270.0</ele><time>2026-05-01T16:05:18.001Z</time></trkpt><trkpt lat="43.87908623756014" lon="12.172288529632432"><ele>268.5</ele><time>2026-05-01T16:05:19.001Z</time></trkpt><trkpt lat="43.879181402489216" lon="12.172139016965275"><ele>267.0</ele><time>2026-05-01T16:05:20.001Z</time></trkpt><trkpt lat="43.87928496585936" lon="12.172016535293913"><ele>265.5</ele><time>2026-05-01T16:05:21.001Z</time></trkpt><trkpt lat="43.879420977016416" lon="12.171906193512175"><ele>264.0</ele><time>2026-05-01T16:05:22.001Z</time></trkpt><trkpt lat="43.87958907990877" lon="12.171794710605097"><ele>264.0</ele><time>2026-05-01T16:05:23.001Z</time></trkpt><trkpt lat="43.879774105701564" lon="12.171702276196788"><ele>264.0</ele><time>2026-05-01T16:05:24.001Z</time></trkpt><trkpt lat="43.879972805762236" lon="12.171604454788023"><ele>264.0</ele><time>2026-05-01T16:05:25.001Z</time></trkpt><trkpt lat="43.880187640462346" lon="12.171495823279528"><ele>270.6666666666667</ele><time>2026-05-01T16:05:26.001Z</time></trkpt><trkpt lat="43.88040251638116" lon="12.171396838132774"><ele>277.33333333333337</ele><time>2026-05-01T16:05:27.001Z</time></trkpt><trkpt lat="43.88060142335387" lon="12.171309310699264"><ele>284.0</ele><time>2026-05-01T16:05:28.001Z</time></trkpt><trkpt lat="43.88078410599161" lon="12.171243564569004"><ele>282.33333333333337</ele><time>2026-05-01T16:05:29.001Z</time></trkpt><trkpt lat="43.88098253760071" lon="12.171225690947974"><ele>280.6666666666667</ele><time>2026-05-01T16:05:30.001Z</time></trkpt><trkpt lat="43.88120654372846" lon="12.171256797646723"><ele>279.0</ele><time>2026-05-01T16:05:31.001Z</time></trkpt><trkpt lat="43.881446552965684" lon="12.171308167235146"><ele>279.0</ele><time>2026-05-01T16:05:32.001Z</time></trkpt><trkpt lat="43.88169187475294" lon="12.171346455023153"><ele>279.0</ele><time>2026-05-01T16:05:33.001Z</time></trkpt><trkpt lat="43.881910301148515" lon="12.171370463367879"><ele>278.0</ele><time>2026-05-01T16:05:34.001Z</time></trkpt><trkpt lat="43.88209543287772" lon="12.17139311474707"><ele>277.0</ele><time>2026-05-01T16:05:35.001Z</time></trkpt><trkpt lat="43.88226184762713" lon="12.171451125708494"><ele>276.0</ele><time>2026-05-01T16:05:36.001Z</time></trkpt><trkpt lat="43.882413999417224" lon="12.171509649395693"><ele>270.5</ele><time>2026-05-01T16:05:37.001Z</time></trkpt><trkpt lat="43.88256723952132" lon="12.171618173926925"><ele>265.0</ele><time>2026-05-01T16:05:38.001Z</time></trkpt><trkpt lat="43.88266625709385" lon="12.171758798834666"><ele>259.5</ele><time>2026-05-01T16:05:39.001Z</time></trkpt><trkpt lat="43.88277324920125" lon="12.171865643757915"><ele>254.0</ele><time>2026-05-01T16:05:40.001Z</time></trkpt><trkpt lat="43.88284339285906" lon="12.17194284740927"><ele>252.0</ele><time>2026-05-01T16:05:41.001Z</time></trkpt><trkpt lat="43.88291780504146" lon="12.171983912564716"><ele>249.99999999999997</ele><time>2026-05-01T16:05:42.001Z</time></trkpt><trkpt lat="43.88300687587553" lon="12.17198661493302"><ele>247.99999999999997</ele><time>2026-05-01T16:05:43.001Z</time></trkpt><trkpt lat="43.88309572132858" lon="12.171930576778742"><ele>246.0</ele><time>2026-05-01T16:05:44.001Z</time></trkpt><trkpt lat="43.88317128305519" lon="12.17180909465716"><ele>244.0</ele><time>2026-05-01T16:05:45.001Z</time></trkpt><trkpt lat="43.88322695589466" lon="12.171651612142686"><ele>247.25</ele><time>2026-05-01T16:05:46.001Z</time></trkpt><trkpt lat="43.88324439327986" lon="12.171451460091035"><ele>250.5</ele><time>2026-05-01T16:05:47.001Z</time></trkpt><trkpt lat="43.883280201788935" lon="12.171250608066323"><ele>253.75</ele><time>2026-05-01T16:05:48.001Z</time></trkpt><trkpt lat="43.88331690871002" lon="12.171067631042495"><ele>257.0</ele><time>2026-05-01T16:05:49.001Z</time></trkpt><trkpt lat="43.88338247518538" lon="12.170911299611117"><ele>253.75</ele><time>2026-05-01T16:05:50.001Z</time></trkpt><trkpt lat="43.883468687658606" lon="12.170815629435872"><ele>250.5</ele><time>2026-05-01T16:05:51.001Z</time></trkpt><trkpt lat="43.88359893676909" lon="12.17075575522913"><ele>247.25</ele><time>2026-05-01T16:05:52.001Z</time></trkpt><trkpt lat="43.88374346899" lon="12.170723525442428"><ele>244.0</ele><time>2026-05-01T16:05:53.001Z</time></trkpt><trkpt lat="43.88389065570857" lon="12.170753999063693"><ele>244.0</ele><time>2026-05-01T16:05:54.001Z</time></trkpt><trkpt lat="43.88404733958912" lon="12.170830826038198"><ele>244.0</ele><time>2026-05-01T16:05:55.001Z</time></trkpt><trkpt lat="43.884215699486795" lon="12.170888313542047"><ele>244.0</ele><time>2026-05-01T16:05:56.001Z</time></trkpt><trkpt lat="43.88434226550398" lon="12.170956106984457"><ele>242.66666666666666</ele><time>2026-05-01T16:05:57.001Z</time></trkpt><trkpt lat="43.88447627254404" lon="12.170989941555023"><ele>241.33333333333331</ele><time>2026-05-01T16:05:58.001Z</time></trkpt><trkpt lat="43.88463334813154" lon="12.170976124272388"><ele>240.0</ele><time>2026-05-01T16:05:59.001Z</time></trkpt><trkpt lat="43.88479396167663" lon="12.170909604240999"><ele>240.0</ele><time>2026-05-01T16:06:00.001Z</time></trkpt><trkpt lat="43.884967791009736" lon="12.170812963753415"><ele>240.0</ele><time>2026-05-01T16:06:01.001Z</time></trkpt><trkpt lat="43.88515509767204" lon="12.170720749596395"><ele>240.0</ele><time>2026-05-01T16:06:02.001Z</time></trkpt><trkpt lat="43.885326692472965" lon="12.170634357223454"><ele>241.0</ele><time>2026-05-01T16:06:03.001Z</time></trkpt><trkpt lat="43.88548654795539" lon="12.170546263148873"><ele>242.0</ele><time>2026-05-01T16:06:04.001Z</time></trkpt><trkpt lat="43.88562153926951" lon="12.170443496632162"><ele>243.0</ele><time>2026-05-01T16:06:05.001Z</time></trkpt><trkpt lat="43.88573937663953" lon="12.170288275020729"><ele>243.0</ele><time>2026-05-01T16:06:06.001Z</time></trkpt><trkpt lat="43.88584028526747" lon="12.170102911161667"><ele>243.0</ele><time>2026-05-01T16:06:07.001Z</time></trkpt><trkpt lat="43.885968468115" lon="12.169979182479572"><ele>243.0</ele><time>2026-05-01T16:06:08.001Z</time></trkpt><trkpt lat="43.88609852475711" lon="12.169894448730377"><ele>241.33333333333331</ele><time>2026-05-01T16:06:09Z</time></trkpt><trkpt lat="43.886241976999706" lon="12.169879988750049"><ele>239.66666666666666</ele><time>2026-05-01T16:06:10Z</time></trkpt><trkpt lat="43.886397044572426" lon="12.169899745376824"><ele>238.0</ele><time>2026-05-01T16:06:11Z</time></trkpt><trkpt lat="43.886567647320376" lon="12.169929619977191"><ele>238.0</ele><time>2026-05-01T16:06:12Z</time></trkpt><trkpt lat="43.88674528111254" lon="12.169994237220854"><ele>238.0</ele><time>2026-05-01T16:06:13Z</time></trkpt><trkpt lat="43.8869285580856" lon="12.170009265518086"><ele>238.0</ele><time>2026-05-01T16:06:14Z</time></trkpt><trkpt lat="43.88712669902469" lon="12.16996946851555"><ele>236.0</ele><time>2026-05-01T16:06:15Z</time></trkpt><trkpt lat="43.88732620884949" lon="12.169928916372669"><ele>234.0</ele><time>2026-05-01T16:06:16Z</time></trkpt><trkpt lat="43.88754561902001" lon="12.169864618422721"><ele>232.0</ele><time>2026-05-01T16:06:17Z</time></trkpt><trkpt lat="43.88774654653596" lon="12.169830118466326"><ele>237.33333333333331</ele><time>2026-05-01T16:06:18Z</time></trkpt><trkpt lat="43.887925264926736" lon="12.169796872338754"><ele>242.66666666666669</ele><time>2026-05-01T16:06:19Z</time></trkpt><trkpt lat="43.88808034406912" lon="12.169755256617547"><ele>248.0</ele><time>2026-05-01T16:06:20Z</time></trkpt><trkpt lat="43.88821372640114" lon="12.169683923514414"><ele>248.0</ele><time>2026-05-01T16:06:21Z</time></trkpt><trkpt lat="43.88835124563162" lon="12.169549107189642"><ele>248.0</ele><time>2026-05-01T16:06:22Z</time></trkpt><trkpt lat="43.88849484758475" lon="12.169373250743005"><ele>248.0</ele><time>2026-05-01T16:06:23Z</time></trkpt><trkpt lat="43.88866745814383" lon="12.169285243184941"><ele>243.0</ele><time>2026-05-01T16:06:24Z</time></trkpt><trkpt lat="43.88886446980305" lon="12.169217508567238"><ele>238.0</ele><time>2026-05-01T16:06:25Z</time></trkpt><trkpt lat="43.889074009381254" lon="12.169165093514195"><ele>233.0</ele><time>2026-05-01T16:06:26Z</time></trkpt><trkpt lat="43.88927029946802" lon="12.1691204732684"><ele>230.66666666666669</ele><time>2026-05-01T16:06:27Z</time></trkpt><trkpt lat="43.88945391914334" lon="12.169065411437979"><ele>228.33333333333331</ele><time>2026-05-01T16:06:28Z</time></trkpt><trkpt lat="43.88962891325363" lon="12.169033812781176"><ele>226.0</ele><time>2026-05-01T16:06:29Z</time></trkpt><trkpt lat="43.889786887286355" lon="12.16907636088599"><ele>226.0</ele><time>2026-05-01T16:06:30Z</time></trkpt><trkpt lat="43.8899496304275" lon="12.169114473155384"><ele>226.0</ele><time>2026-05-01T16:06:31Z</time></trkpt><trkpt lat="43.89012305777591" lon="12.16916052363539"><ele>226.0</ele><time>2026-05-01T16:06:32Z</time></trkpt><trkpt lat="43.89030223173537" lon="12.169186424938829"><ele>226.0</ele><time>2026-05-01T16:06:33Z</time></trkpt><trkpt lat="43.89048334555598" lon="12.169229721761482"><ele>226.0</ele><time>2026-05-01T16:06:34Z</time></trkpt><trkpt lat="43.89065195321569" lon="12.169277947399243"><ele>226.0</ele><time>2026-05-01T16:06:35Z</time></trkpt><trkpt lat="43.89080923208808" lon="12.169288021675774"><ele>223.0</ele><time>2026-05-01T16:06:36Z</time></trkpt><trkpt lat="43.890977899872674" lon="12.16923887163845"><ele>220.0</ele><time>2026-05-01T16:06:37Z</time></trkpt><trkpt lat="43.891144816971945" lon="12.169183276688248"><ele>217.0</ele><time>2026-05-01T16:06:38Z</time></trkpt><trkpt lat="43.89132272827122" lon="12.169098104553308"><ele>224.0</ele><time>2026-05-01T16:06:39Z</time></trkpt><trkpt lat="43.891507638915556" lon="12.169001858040962"><ele>231.0</ele><time>2026-05-01T16:06:40Z</time></trkpt><trkpt lat="43.891698339650816" lon="12.168938618696233"><ele>238.0</ele><time>2026-05-01T16:06:41Z</time></trkpt><trkpt lat="43.89187461702611" lon="12.168870110934513"><ele>238.0</ele><time>2026-05-01T16:06:42Z</time></trkpt><trkpt lat="43.892046228692806" lon="12.168827056224828"><ele>238.0</ele><time>2026-05-01T16:06:43Z</time></trkpt><trkpt lat="43.89220839745576" lon="12.168815381831264"><ele>238.0</ele><time>2026-05-01T16:06:44Z</time></trkpt><trkpt lat="43.89236434174305" lon="12.168854561296241"><ele>238.0</ele><time>2026-05-01T16:06:45Z</time></trkpt><trkpt lat="43.89253083307294" lon="12.168885841894364"><ele>238.0</ele><time>2026-05-01T16:06:46Z</time></trkpt><trkpt lat="43.89268883387813" lon="12.168976543528613"><ele>238.0</ele><time>2026-05-01T16:06:47Z</time></trkpt><trkpt lat="43.8928690288159" lon="12.169017358239262"><ele>233.33333333333331</ele><time>2026-05-01T16:06:48Z</time></trkpt><trkpt lat="43.893032892349325" lon="12.169040714734807"><ele>228.66666666666669</ele><time>2026-05-01T16:06:49Z</time></trkpt><trkpt lat="43.89313265348568" lon="12.16922532978543"><ele>224.0</ele><time>2026-05-01T16:06:50Z</time></trkpt><trkpt lat="43.89324494045679" lon="12.169312427212683"><ele>224.0</ele><time>2026-05-01T16:06:51Z</time></trkpt><trkpt lat="43.893340742515065" lon="12.169438372357442"><ele>224.0</ele><time>2026-05-01T16:06:52Z</time></trkpt><trkpt lat="43.893407381239776" lon="12.169608822419443"><ele>224.0</ele><time>2026-05-01T16:06:53Z</time></trkpt><trkpt lat="43.893484558923845" lon="12.169764211057378"><ele>224.0</ele><time>2026-05-01T16:06:54Z</time></trkpt><trkpt lat="43.89357650739165" lon="12.169871016497192"><ele>221.25</ele><time>2026-05-01T16:06:55Z</time></trkpt><trkpt lat="43.89367335598155" lon="12.16996303143421"><ele>218.5</ele><time>2026-05-01T16:06:56Z</time></trkpt><trkpt lat="43.893795127663985" lon="12.17003027299005"><ele>215.75</ele><time>2026-05-01T16:06:57Z</time></trkpt><trkpt lat="43.89392859076176" lon="12.170084814690211"><ele>213.0</ele><time>2026-05-01T16:06:58Z</time></trkpt><trkpt lat="43.894056659552234" lon="12.17006421207188"><ele>213.0</ele><time>2026-05-01T16:06:59Z</time></trkpt><trkpt lat="43.89415603196514" lon="12.169984502583885"><ele>213.0</ele><time>2026-05-01T16:07:00Z</time></trkpt><trkpt lat="43.89425099289043" lon="12.169884428302598"><ele>213.0</ele><time>2026-05-01T16:07:01Z</time></trkpt><trkpt lat="43.89434284965166" lon="12.169748609457985"><ele>213.0</ele><time>2026-05-01T16:07:02Z</time></trkpt><trkpt lat="43.89443168681472" lon="12.169572790504278"><ele>211.66666666666669</ele><time>2026-05-01T16:07:03Z</time></trkpt><trkpt lat="43.89452433360624" lon="12.16936707153291"><ele>210.33333333333334</ele><time>2026-05-01T16:07:04Z</time></trkpt><trkpt lat="43.894625126628945" lon="12.169137272668523"><ele>209.0</ele><time>2026-05-01T16:07:05Z</time></trkpt><trkpt lat="43.89472997304668" lon="12.168907173017432"><ele>209.0</ele><time>2026-05-01T16:07:06Z</time></trkpt><trkpt lat="43.894829513438864" lon="12.16870242920143"><ele>209.0</ele><time>2026-05-01T16:07:07.001Z</time></trkpt><trkpt lat="43.89491631227434" lon="12.168489717659336"><ele>209.0</ele><time>2026-05-01T16:07:08.001Z</time></trkpt><trkpt lat="43.894986092327635" lon="12.168250932092194"><ele>210.0</ele><time>2026-05-01T16:07:09.001Z</time></trkpt><trkpt lat="43.895044257235526" lon="12.167993704601097"><ele>211.0</ele><time>2026-05-01T16:07:10.001Z</time></trkpt><trkpt lat="43.895093677368415" lon="12.16773090646458"><ele>212.0</ele><time>2026-05-01T16:07:11.001Z</time></trkpt><trkpt lat="43.89514868276077" lon="12.167465257030361"><ele>209.0</ele><time>2026-05-01T16:07:12.001Z</time></trkpt><trkpt lat="43.89522544732272" lon="12.167207397467788"><ele>206.0</ele><time>2026-05-01T16:07:13.001Z</time></trkpt><trkpt lat="43.89531105607385" lon="12.166952351330414"><ele>203.0</ele><time>2026-05-01T16:07:14.001Z</time></trkpt><trkpt lat="43.89539488981687" lon="12.166721857529478"><ele>204.33333333333334</ele><time>2026-05-01T16:07:15.001Z</time></trkpt><trkpt lat="43.89547341652498" lon="12.16651625746494"><ele>205.66666666666669</ele><time>2026-05-01T16:07:16.001Z</time></trkpt><trkpt lat="43.895564796616995" lon="12.166335261190605"><ele>207.0</ele><time>2026-05-01T16:07:17.001Z</time></trkpt><trkpt lat="43.895688987074635" lon="12.166200367145562"><ele>207.0</ele><time>2026-05-01T16:07:18.001Z</time></trkpt><trkpt lat="43.89584030142302" lon="12.166106791416695"><ele>207.0</ele><time>2026-05-01T16:07:19.001Z</time></trkpt><trkpt lat="43.89599742205365" lon="12.16604930284839"><ele>207.0</ele><time>2026-05-01T16:07:20.001Z</time></trkpt><trkpt lat="43.89614857372535" lon="12.166007701733065"><ele>206.5</ele><time>2026-05-01T16:07:21.001Z</time></trkpt><trkpt lat="43.89628894237019" lon="12.165967997115713"><ele>206.0</ele><time>2026-05-01T16:07:22.001Z</time></trkpt><trkpt lat="43.89642113340663" lon="12.165911203263386"><ele>205.5</ele><time>2026-05-01T16:07:23.001Z</time></trkpt><trkpt lat="43.89655510417532" lon="12.165853303807376"><ele>205.0</ele><time>2026-05-01T16:07:24.001Z</time></trkpt><trkpt lat="43.89669406660596" lon="12.165794264058846"><ele>204.33333333333331</ele><time>2026-05-01T16:07:25.001Z</time></trkpt><trkpt lat="43.89683707811003" lon="12.165717776589778"><ele>203.66666666666669</ele><time>2026-05-01T16:07:26.001Z</time></trkpt><trkpt lat="43.89698034342059" lon="12.165634921215375"><ele>203.0</ele><time>2026-05-01T16:07:27.001Z</time></trkpt><trkpt lat="43.897120003681266" lon="12.165552320061655"><ele>204.0</ele><time>2026-05-01T16:07:28.001Z</time></trkpt><trkpt lat="43.89725590484746" lon="12.165477639235707"><ele>205.0</ele><time>2026-05-01T16:07:29.001Z</time></trkpt><trkpt lat="43.89738597295521" lon="12.165406288817676"><ele>206.0</ele><time>2026-05-01T16:07:30.001Z</time></trkpt><trkpt lat="43.8975065387935" lon="12.165339994066489"><ele>207.0</ele><time>2026-05-01T16:07:31.001Z</time></trkpt><trkpt lat="43.897618958537734" lon="12.165272610429056"><ele>205.25</ele><time>2026-05-01T16:07:32.001Z</time></trkpt><trkpt lat="43.897721150226864" lon="12.165213957142386"><ele>203.5</ele><time>2026-05-01T16:07:33.001Z</time></trkpt><trkpt lat="43.89781144910144" lon="12.16512028158857"><ele>201.75</ele><time>2026-05-01T16:07:34.001Z</time></trkpt><trkpt lat="43.89788199969875" lon="12.164984822280775"><ele>200.0</ele><time>2026-05-01T16:07:35.001Z</time></trkpt><trkpt lat="43.897935502804806" lon="12.164821901670022"><ele>200.0</ele><time>2026-05-01T16:07:36.001Z</time></trkpt><trkpt lat="43.89796998241882" lon="12.164640134781017"><ele>200.0</ele><time>2026-05-01T16:07:37.001Z</time></trkpt><trkpt lat="43.89798697784688" lon="12.164441588557995"><ele>200.0</ele><time>2026-05-01T16:07:38.001Z</time></trkpt><trkpt lat="43.89800607698246" lon="12.164244005188475"><ele>200.0</ele><time>2026-05-01T16:07:39.001Z</time></trkpt><trkpt lat="43.8980474339288" lon="12.164070709157603"><ele>198.75</ele><time>2026-05-01T16:07:40.001Z</time></trkpt><trkpt lat="43.89812184316396" lon="12.163922746253096"><ele>197.5</ele><time>2026-05-01T16:07:41.001Z</time></trkpt><trkpt lat="43.89822833080926" lon="12.16381033397782"><ele>196.25</ele><time>2026-05-01T16:07:42.001Z</time></trkpt><trkpt lat="43.89836050328677" lon="12.163742669620326"><ele>195.0</ele><time>2026-05-01T16:07:43.001Z</time></trkpt><trkpt lat="43.89850294222001" lon="12.1637168656197"><ele>195.0</ele><time>2026-05-01T16:07:44.001Z</time></trkpt><trkpt lat="43.898616030983305" lon="12.163665521046475"><ele>195.0</ele><time>2026-05-01T16:07:45.001Z</time></trkpt><trkpt lat="43.898705140446324" lon="12.163575164884826"><ele>195.0</ele><time>2026-05-01T16:07:46.001Z</time></trkpt><trkpt lat="43.8987738243523" lon="12.163424052150303"><ele>195.0</ele><time>2026-05-01T16:07:47.001Z</time></trkpt><trkpt lat="43.898827771046065" lon="12.163256262289005"><ele>195.33333333333331</ele><time>2026-05-01T16:07:48.001Z</time></trkpt><trkpt lat="43.898858220667336" lon="12.163058363115132"><ele>195.66666666666666</ele><time>2026-05-01T16:07:49.001Z</time></trkpt><trkpt lat="43.898894903076375" lon="12.162843543248071"><ele>196.0</ele><time>2026-05-01T16:07:50.001Z</time></trkpt><trkpt lat="43.89893993992544" lon="12.162613206661291"><ele>196.0</ele><time>2026-05-01T16:07:51.001Z</time></trkpt><trkpt lat="43.898994978400495" lon="12.162369314712903"><ele>196.0</ele><time>2026-05-01T16:07:52.001Z</time></trkpt><trkpt lat="43.8990762375748" lon="12.162135147860388"><ele>196.0</ele><time>2026-05-01T16:07:53.001Z</time></trkpt><trkpt lat="43.899181823062385" lon="12.16191159406117"><ele>196.66666666666666</ele><time>2026-05-01T16:07:54.001Z</time></trkpt><trkpt lat="43.89930795365059" lon="12.161697711498455"><ele>197.33333333333331</ele><time>2026-05-01T16:07:55.001Z</time></trkpt><trkpt lat="43.89945139261019" lon="12.161499060485106"><ele>198.0</ele><time>2026-05-01T16:07:56.001Z</time></trkpt><trkpt lat="43.89960920168845" lon="12.161314793155775"><ele>198.0</ele><time>2026-05-01T16:07:57.001Z</time></trkpt><trkpt lat="43.8997719537277" lon="12.161130746396996"><ele>198.0</ele><time>2026-05-01T16:07:58.001Z</time></trkpt><trkpt lat="43.89994097573911" lon="12.160951569417772"><ele>198.0</ele><time>2026-05-01T16:07:59.001Z</time></trkpt><trkpt lat="43.900107372413004" lon="12.160781195000423"><ele>200.0</ele><time>2026-05-01T16:08:00.001Z</time></trkpt><trkpt lat="43.90028160261714" lon="12.160630124258109"><ele>202.0</ele><time>2026-05-01T16:08:01.001Z</time></trkpt><trkpt lat="43.900456235359904" lon="12.160491006176988"><ele>204.0</ele><time>2026-05-01T16:08:02.001Z</time></trkpt><trkpt lat="43.90064075972351" lon="12.160368176054906"><ele>204.0</ele><time>2026-05-01T16:08:03.001Z</time></trkpt><trkpt lat="43.90082024354894" lon="12.160241644357551"><ele>204.0</ele><time>2026-05-01T16:08:04.001Z</time></trkpt><trkpt lat="43.900999362727866" lon="12.160115674895646"><ele>204.0</ele><time>2026-05-01T16:08:05.001Z</time></trkpt><trkpt lat="43.90117850907521" lon="12.159993197484404"><ele>206.33333333333331</ele><time>2026-05-01T16:08:06.001Z</time></trkpt><trkpt lat="43.901358922262645" lon="12.159859965339647"><ele>208.66666666666666</ele><time>2026-05-01T16:08:07.001Z</time></trkpt><trkpt lat="43.90153767629884" lon="12.159729121394612"><ele>211.0</ele><time>2026-05-01T16:08:08.001Z</time></trkpt><trkpt lat="43.90171413682312" lon="12.159605651882005"><ele>206.33333333333331</ele><time>2026-05-01T16:08:09.001Z</time></trkpt><trkpt lat="43.90189669139476" lon="12.159485548066897"><ele>201.66666666666669</ele><time>2026-05-01T16:08:10.001Z</time></trkpt><trkpt lat="43.90207233049427" lon="12.159364811138458"><ele>197.0</ele><time>2026-05-01T16:08:11.001Z</time></trkpt><trkpt lat="43.9022479745631" lon="12.1592369286095"><ele>197.0</ele><time>2026-05-01T16:08:12.001Z</time></trkpt><trkpt lat="43.90242161463405" lon="12.159107208788663"><ele>197.0</ele><time>2026-05-01T16:08:13.001Z</time></trkpt><trkpt lat="43.90259697043041" lon="12.158977670613119"><ele>197.0</ele><time>2026-05-01T16:08:14.001Z</time></trkpt><trkpt lat="43.9027768862372" lon="12.158848458432201"><ele>197.66666666666669</ele><time>2026-05-01T16:08:15Z</time></trkpt><trkpt lat="43.90295303785829" lon="12.158721884011916"><ele>198.33333333333331</ele><time>2026-05-01T16:08:16Z</time></trkpt><trkpt lat="43.903129498697744" lon="12.1586015359958"><ele>199.0</ele><time>2026-05-01T16:08:17Z</time></trkpt><trkpt lat="43.90329368367512" lon="12.158475919006678"><ele>196.33333333333331</ele><time>2026-05-01T16:08:18Z</time></trkpt><trkpt lat="43.90344813310028" lon="12.158332620332057"><ele>193.66666666666666</ele><time>2026-05-01T16:08:19Z</time></trkpt><trkpt lat="43.90359592898826" lon="12.158186775455986"><ele>191.0</ele><time>2026-05-01T16:08:20Z</time></trkpt><trkpt lat="43.903739213222124" lon="12.158033484047582"><ele>196.66666666666666</ele><time>2026-05-01T16:08:21Z</time></trkpt><trkpt lat="43.903880327896594" lon="12.157908189078444"><ele>202.33333333333331</ele><time>2026-05-01T16:08:22Z</time></trkpt><trkpt lat="43.90402757888572" lon="12.157810173266244"><ele>208.0</ele><time>2026-05-01T16:08:23Z</time></trkpt><trkpt lat="43.90416795794955" lon="12.157737408519967"><ele>205.5</ele><time>2026-05-01T16:08:24Z</time></trkpt><trkpt lat="43.904307842678755" lon="12.157682184021047"><ele>203.0</ele><time>2026-05-01T16:08:25Z</time></trkpt><trkpt lat="43.90444123011034" lon="12.15765239439059"><ele>200.5</ele><time>2026-05-01T16:08:26Z</time></trkpt><trkpt lat="43.90457318363491" lon="12.157640385904486"><ele>198.0</ele><time>2026-05-01T16:08:27Z</time></trkpt><trkpt lat="43.90469963737819" lon="12.157623573206958"><ele>198.0</ele><time>2026-05-01T16:08:28Z</time></trkpt><trkpt lat="43.90483072385367" lon="12.157571325585858"><ele>198.0</ele><time>2026-05-01T16:08:29Z</time></trkpt><trkpt lat="43.90495876824141" lon="12.157490668627972"><ele>198.0</ele><time>2026-05-01T16:08:30Z</time></trkpt><trkpt lat="43.90507937383402" lon="12.15739829818262"><ele>198.0</ele><time>2026-05-01T16:08:31Z</time></trkpt><trkpt lat="43.905181101940414" lon="12.15730897091101"><ele>196.5</ele><time>2026-05-01T16:08:32Z</time></trkpt><trkpt lat="43.90526872121326" lon="12.157207848152323"><ele>195.0</ele><time>2026-05-01T16:08:33Z</time></trkpt><trkpt lat="43.905334602920355" lon="12.157076078388553"><ele>193.5</ele><time>2026-05-01T16:08:34Z</time></trkpt><trkpt lat="43.90538166908981" lon="12.156916549123611"><ele>192.0</ele><time>2026-05-01T16:08:35Z</time></trkpt><trkpt lat="43.90541316760017" lon="12.15672969397557"><ele>192.75</ele><time>2026-05-01T16:08:36Z</time></trkpt><trkpt lat="43.905449957031024" lon="12.156529078731868"><ele>193.5</ele><time>2026-05-01T16:08:37Z</time></trkpt><trkpt lat="43.9055009518235" lon="12.156348442839397"><ele>194.25</ele><time>2026-05-01T16:08:38Z</time></trkpt><trkpt lat="43.90558401612892" lon="12.156200871733777"><ele>195.0</ele><time>2026-05-01T16:08:39Z</time></trkpt><trkpt lat="43.905714073656505" lon="12.156078090680968"><ele>195.0</ele><time>2026-05-01T16:08:40Z</time></trkpt><trkpt lat="43.90586539336367" lon="12.15602073886062"><ele>195.0</ele><time>2026-05-01T16:08:41Z</time></trkpt><trkpt lat="43.906032597855585" lon="12.156026045738587"><ele>195.0</ele><time>2026-05-01T16:08:42Z</time></trkpt><trkpt lat="43.906215262027814" lon="12.156039632144525"><ele>195.0</ele><time>2026-05-01T16:08:43Z</time></trkpt><trkpt lat="43.906083496695814" lon="12.156110056510474"><ele>195.0</ele><time>2026-05-01T16:08:44Z</time></trkpt><trkpt lat="43.90619012498429" lon="12.156246149274534"><ele>195.0</ele><time>2026-05-01T16:08:45Z</time></trkpt><trkpt lat="43.9063074458725" lon="12.156379561357916"><ele>195.0</ele><time>2026-05-01T16:08:46Z</time></trkpt><trkpt lat="43.90645544092619" lon="12.156461746438705"><ele>195.0</ele><time>2026-05-01T16:08:47Z</time></trkpt><trkpt lat="43.90662712160235" lon="12.156497893181571"><ele>195.0</ele><time>2026-05-01T16:08:48Z</time></trkpt><trkpt lat="43.90680750644653" lon="12.156510193168272"><ele>195.0</ele><time>2026-05-01T16:08:49Z</time></trkpt><trkpt lat="43.906973935225814" lon="12.156534314660233"><ele>193.33333333333334</ele><time>2026-05-01T16:08:50Z</time></trkpt><trkpt lat="43.90711541194454" lon="12.156620163559646"><ele>191.66666666666669</ele><time>2026-05-01T16:08:51Z</time></trkpt><trkpt lat="43.907223338827336" lon="12.156759666683891"><ele>190.0</ele><time>2026-05-01T16:08:52Z</time></trkpt><trkpt lat="43.90729685760297" lon="12.156943417046335"><ele>190.0</ele><time>2026-05-01T16:08:53Z</time></trkpt><trkpt lat="43.907357826986406" lon="12.157108621760582"><ele>190.0</ele><time>2026-05-01T16:08:54Z</time></trkpt><trkpt lat="43.90744491919956" lon="12.157222876781843"><ele>190.0</ele><time>2026-05-01T16:08:55Z</time></trkpt><trkpt lat="43.9075673084644" lon="12.157300749043731"><ele>190.0</ele><time>2026-05-01T16:08:56Z</time></trkpt><trkpt lat="43.90771763879763" lon="12.157339667108124"><ele>190.0</ele><time>2026-05-01T16:08:57Z</time></trkpt><trkpt lat="43.90787608777059" lon="12.15734232862143"><ele>190.0</ele><time>2026-05-01T16:08:58Z</time></trkpt><trkpt lat="43.908041817658216" lon="12.157315280404672"><ele>190.0</ele><time>2026-05-01T16:08:59Z</time></trkpt><trkpt lat="43.908201990522926" lon="12.157274945122541"><ele>190.0</ele><time>2026-05-01T16:09:00Z</time></trkpt><trkpt lat="43.90834397545849" lon="12.157226712237243"><ele>190.0</ele><time>2026-05-01T16:09:01Z</time></trkpt><trkpt lat="43.908465300036895" lon="12.157160542683048"><ele>190.0</ele><time>2026-05-01T16:09:02Z</time></trkpt><trkpt lat="43.90856444813909" lon="12.157048363714864"><ele>190.0</ele><time>2026-05-01T16:09:03Z</time></trkpt><trkpt lat="43.90863795981653" lon="12.156885187223162"><ele>189.0</ele><time>2026-05-01T16:09:04Z</time></trkpt><trkpt lat="43.90869575005499" lon="12.15668712095406"><ele>188.0</ele><time>2026-05-01T16:09:05Z</time></trkpt><trkpt lat="43.9087843260684" lon="12.156464881332159"><ele>187.0</ele><time>2026-05-01T16:09:06Z</time></trkpt><trkpt lat="43.9089148739417" lon="12.156357668877366"><ele>189.33333333333334</ele><time>2026-05-01T16:09:07Z</time></trkpt><trkpt lat="43.90906758102209" lon="12.156275060760192"><ele>191.66666666666669</ele><time>2026-05-01T16:09:08Z</time></trkpt><trkpt lat="43.90924652714256" lon="12.156213698360872"><ele>194.0</ele><time>2026-05-01T16:09:09Z</time></trkpt><trkpt lat="43.90944605124146" lon="12.1561717151286"><ele>194.0</ele><time>2026-05-01T16:09:10Z</time></trkpt><trkpt lat="43.90965105640258" lon="12.156145544793086"><ele>194.0</ele><time>2026-05-01T16:09:11Z</time></trkpt><trkpt lat="43.909849301087505" lon="12.156148432391518"><ele>194.0</ele><time>2026-05-01T16:09:12Z</time></trkpt><trkpt lat="43.910034394073826" lon="12.156182166340031"><ele>197.33333333333334</ele><time>2026-05-01T16:09:13Z</time></trkpt><trkpt lat="43.91020447005488" lon="12.156263104020242"><ele>200.66666666666669</ele><time>2026-05-01T16:09:14Z</time></trkpt><trkpt lat="43.91036338213969" lon="12.15636977476739"><ele>204.0</ele><time>2026-05-01T16:09:15Z</time></trkpt><trkpt lat="43.91051684274729" lon="12.156497297479875"><ele>199.33333333333334</ele><time>2026-05-01T16:09:16Z</time></trkpt><trkpt lat="43.91066224393058" lon="12.156624959982274"><ele>194.66666666666669</ele><time>2026-05-01T16:09:17.001Z</time></trkpt><trkpt lat="43.910800749125734" lon="12.156738142689871"><ele>190.0</ele><time>2026-05-01T16:09:18.001Z</time></trkpt><trkpt lat="43.91092959323676" lon="12.156832011594542"><ele>190.0</ele><time>2026-05-01T16:09:19.001Z</time></trkpt><trkpt lat="43.911068973595896" lon="12.156900954839791"><ele>190.0</ele><time>2026-05-01T16:09:20.001Z</time></trkpt><trkpt lat="43.91122479251815" lon="12.156941336207934"><ele>190.0</ele><time>2026-05-01T16:09:21.001Z</time></trkpt><trkpt lat="43.91139534404091" lon="12.15694589571125"><ele>190.0</ele><time>2026-05-01T16:09:22.001Z</time></trkpt><trkpt lat="43.91156609641052" lon="12.156913608221538"><ele>190.0</ele><time>2026-05-01T16:09:23.001Z</time></trkpt><trkpt lat="43.91174048115427" lon="12.156844057558136"><ele>190.0</ele><time>2026-05-01T16:09:24.001Z</time></trkpt><trkpt lat="43.91191337658776" lon="12.156730074935775"><ele>189.0</ele><time>2026-05-01T16:09:25.001Z</time></trkpt><trkpt lat="43.91208524836745" lon="12.156605565848649"><ele>188.0</ele><time>2026-05-01T16:09:26.001Z</time></trkpt><trkpt lat="43.912254935476064" lon="12.156471670033895"><ele>187.0</ele><time>2026-05-01T16:09:27.001Z</time></trkpt><trkpt lat="43.9124330346694" lon="12.156396272160322"><ele>192.66666666666669</ele><time>2026-05-01T16:09:28.001Z</time></trkpt><trkpt lat="43.912611913936374" lon="12.156327869113992"><ele>198.33333333333334</ele><time>2026-05-01T16:09:29.001Z</time></trkpt><trkpt lat="43.91279760902546" lon="12.156285165208404"><ele>204.0</ele><time>2026-05-01T16:09:30.001Z</time></trkpt><trkpt lat="43.91299099603488" lon="12.156256378587234"><ele>204.0</ele><time>2026-05-01T16:09:31.001Z</time></trkpt><trkpt lat="43.913182926313524" lon="12.156232862948556"><ele>204.0</ele><time>2026-05-01T16:09:32.001Z</time></trkpt><trkpt lat="43.913370487673056" lon="12.156191592997917"><ele>204.0</ele><time>2026-05-01T16:09:33.001Z</time></trkpt><trkpt lat="43.91354976460328" lon="12.156176068726978"><ele>203.0</ele><time>2026-05-01T16:09:34.001Z</time></trkpt><trkpt lat="43.91371741355171" lon="12.156142616146443"><ele>202.0</ele><time>2026-05-01T16:09:35.001Z</time></trkpt><trkpt lat="43.91387611800669" lon="12.156101788303431"><ele>201.0</ele><time>2026-05-01T16:09:36.001Z</time></trkpt><trkpt lat="43.91402678232441" lon="12.156067889035672"><ele>201.0</ele><time>2026-05-01T16:09:37.001Z</time></trkpt><trkpt lat="43.914159190464396" lon="12.156030845029589"><ele>201.0</ele><time>2026-05-01T16:09:38.001Z</time></trkpt><trkpt lat="43.91428473568892" lon="12.155964984079846"><ele>201.0</ele><time>2026-05-01T16:09:39.001Z</time></trkpt><trkpt lat="43.91440888348324" lon="12.155854968749408"><ele>201.0</ele><time>2026-05-01T16:09:40.001Z</time></trkpt><trkpt lat="43.914542398220426" lon="12.15574133314557"><ele>204.33333333333331</ele><time>2026-05-01T16:09:41.001Z</time></trkpt><trkpt lat="43.914677196341806" lon="12.155622518096726"><ele>207.66666666666666</ele><time>2026-05-01T16:09:42.001Z</time></trkpt><trkpt lat="43.91482447262938" lon="12.15554837393182"><ele>211.0</ele><time>2026-05-01T16:09:43.001Z</time></trkpt><trkpt lat="43.914965701022936" lon="12.155514260362718"><ele>212.66666666666666</ele><time>2026-05-01T16:09:44.001Z</time></trkpt><trkpt lat="43.91512553665975" lon="12.155522324773534"><ele>214.33333333333331</ele><time>2026-05-01T16:09:45.001Z</time></trkpt><trkpt lat="43.915279013510805" lon="12.155572616946504"><ele>216.0</ele><time>2026-05-01T16:09:46.001Z</time></trkpt><trkpt lat="43.91542036050229" lon="12.155643682367321"><ele>214.25</ele><time>2026-05-01T16:09:47.001Z</time></trkpt><trkpt lat="43.91555119119781" lon="12.15570536986418"><ele>212.5</ele><time>2026-05-01T16:09:48.001Z</time></trkpt><trkpt lat="43.91567509436968" lon="12.15574325113643"><ele>210.75</ele><time>2026-05-01T16:09:49.001Z</time></trkpt><trkpt lat="43.91579037819423" lon="12.155750816237726"><ele>209.0</ele><time>2026-05-01T16:09:50.001Z</time></trkpt><trkpt lat="43.91590678730366" lon="12.1557312775762"><ele>211.5</ele><time>2026-05-01T16:09:51.001Z</time></trkpt><trkpt lat="43.91602521743029" lon="12.155686629016417"><ele>214.0</ele><time>2026-05-01T16:09:52.001Z</time></trkpt><trkpt lat="43.91614549651357" lon="12.155629251859697"><ele>216.5</ele><time>2026-05-01T16:09:53.001Z</time></trkpt><trkpt lat="43.91627031104813" lon="12.155568848499376"><ele>219.0</ele><time>2026-05-01T16:09:54.001Z</time></trkpt><trkpt lat="43.91640384330971" lon="12.155504404199542"><ele>219.0</ele><time>2026-05-01T16:09:55.001Z</time></trkpt><trkpt lat="43.91654797140589" lon="12.155450565875947"><ele>219.0</ele><time>2026-05-01T16:09:56.001Z</time></trkpt><trkpt lat="43.91670126099775" lon="12.155436592368236"><ele>219.0</ele><time>2026-05-01T16:09:57.001Z</time></trkpt><trkpt lat="43.91685635395879" lon="12.155435136387888"><ele>219.0</ele><time>2026-05-01T16:09:58.001Z</time></trkpt><trkpt lat="43.91701037724744" lon="12.15545517110087"><ele>219.0</ele><time>2026-05-01T16:09:59.001Z</time></trkpt><trkpt lat="43.91716325103365" lon="12.155474543265274"><ele>219.0</ele><time>2026-05-01T16:10:00.001Z</time></trkpt><trkpt lat="43.917312225763084" lon="12.155472402128364"><ele>219.0</ele><time>2026-05-01T16:10:01.001Z</time></trkpt><trkpt lat="43.917441279734206" lon="12.155508740295563"><ele>218.99999999999997</ele><time>2026-05-01T16:10:02.001Z</time></trkpt><trkpt lat="43.91755610157773" lon="12.155515678412346"><ele>218.99999999999997</ele><time>2026-05-01T16:10:03.001Z</time></trkpt><trkpt lat="43.917656926613695" lon="12.155518462219451"><ele>219.0</ele><time>2026-05-01T16:10:04.001Z</time></trkpt><trkpt lat="43.91774625557742" lon="12.1555062074889"><ele>219.0</ele><time>2026-05-01T16:10:05.001Z</time></trkpt><trkpt lat="43.91782797642963" lon="12.155491182292"><ele>217.39999999999998</ele><time>2026-05-01T16:10:06.001Z</time></trkpt><trkpt lat="43.91789215110701" lon="12.155397484918915"><ele>215.79999999999998</ele><time>2026-05-01T16:10:07.001Z</time></trkpt><trkpt lat="43.917934571157424" lon="12.155292941841694"><ele>214.2</ele><time>2026-05-01T16:10:08.001Z</time></trkpt><trkpt lat="43.91796852754242" lon="12.155171692861696"><ele>212.60000000000002</ele><time>2026-05-01T16:10:09.001Z</time></trkpt><trkpt lat="43.917985938153656" lon="12.155032615849187"><ele>211.0</ele><time>2026-05-01T16:10:10.001Z</time></trkpt><trkpt lat="43.91798413570582" lon="12.1548701115705"><ele>207.0</ele><time>2026-05-01T16:10:11.001Z</time></trkpt><trkpt lat="43.91795703399917" lon="12.154694436923773"><ele>203.0</ele><time>2026-05-01T16:10:12.001Z</time></trkpt><trkpt lat="43.917921981666154" lon="12.154503685263858"><ele>199.0</ele><time>2026-05-01T16:10:13.001Z</time></trkpt><trkpt lat="43.91787018294699" lon="12.15431279585227"><ele>195.0</ele><time>2026-05-01T16:10:14.001Z</time></trkpt><trkpt lat="43.91780589657779" lon="12.154125788797428"><ele>192.75</ele><time>2026-05-01T16:10:15.001Z</time></trkpt><trkpt lat="43.91773614365253" lon="12.153955592611632"><ele>190.5</ele><time>2026-05-01T16:10:16.001Z</time></trkpt><trkpt lat="43.917642207553875" lon="12.153808646535547"><ele>188.25</ele><time>2026-05-01T16:10:17.001Z</time></trkpt><trkpt lat="43.917536237531934" lon="12.15367758789782"><ele>186.0</ele><time>2026-05-01T16:10:18.001Z</time></trkpt><trkpt lat="43.91742072958534" lon="12.153560959500666"><ele>189.0</ele><time>2026-05-01T16:10:19.001Z</time></trkpt><trkpt lat="43.91730405367974" lon="12.153435305790321"><ele>192.0</ele><time>2026-05-01T16:10:20.001Z</time></trkpt><trkpt lat="43.91720891623878" lon="12.153280722240476"><ele>195.0</ele><time>2026-05-01T16:10:21Z</time></trkpt><trkpt lat="43.917126607518384" lon="12.153097117358348"><ele>195.0</ele><time>2026-05-01T16:10:22Z</time></trkpt><trkpt lat="43.917055245093856" lon="12.152895986123514"><ele>195.0</ele><time>2026-05-01T16:10:23Z</time></trkpt><trkpt lat="43.91703280708074" lon="12.152676654654146"><ele>195.0</ele><time>2026-05-01T16:10:24Z</time></trkpt><trkpt lat="43.91700856859795" lon="12.152442835814018"><ele>194.33333333333331</ele><time>2026-05-01T16:10:25Z</time></trkpt><trkpt lat="43.91699149578247" lon="12.15220204327347"><ele>193.66666666666666</ele><time>2026-05-01T16:10:26Z</time></trkpt><trkpt lat="43.91697196333811" lon="12.151956088719892"><ele>193.0</ele><time>2026-05-01T16:10:27Z</time></trkpt><trkpt lat="43.91697937057776" lon="12.151713467792465"><ele>192.33333333333331</ele><time>2026-05-01T16:10:28Z</time></trkpt><trkpt lat="43.917009188433155" lon="12.151487934264678"><ele>191.66666666666666</ele><time>2026-05-01T16:10:29Z</time></trkpt><trkpt lat="43.917067096535675" lon="12.151286892438241"><ele>191.0</ele><time>2026-05-01T16:10:30Z</time></trkpt><trkpt lat="43.917112541366826" lon="12.15109759523962"><ele>191.0</ele><time>2026-05-01T16:10:31Z</time></trkpt><trkpt lat="43.91714396251233" lon="12.150903469660298"><ele>191.0</ele><time>2026-05-01T16:10:32Z</time></trkpt><trkpt lat="43.91718518234963" lon="12.150735231466182"><ele>191.0</ele><time>2026-05-01T16:10:33Z</time></trkpt><trkpt lat="43.91721463050397" lon="12.150586733601644"><ele>191.0</ele><time>2026-05-01T16:10:34Z</time></trkpt><trkpt lat="43.91722278571853" lon="12.150436284010528"><ele>189.0</ele><time>2026-05-01T16:10:35Z</time></trkpt><trkpt lat="43.91720401999076" lon="12.150286670232676"><ele>187.0</ele><time>2026-05-01T16:10:36Z</time></trkpt><trkpt lat="43.91716185603307" lon="12.15013436811788"><ele>185.0</ele><time>2026-05-01T16:10:37Z</time></trkpt><trkpt lat="43.91709523943256" lon="12.14999051969839"><ele>183.0</ele><time>2026-05-01T16:10:38Z</time></trkpt><trkpt lat="43.916996951292184" lon="12.14985885277916"><ele>183.75</ele><time>2026-05-01T16:10:39Z</time></trkpt><trkpt lat="43.916882656061084" lon="12.149744161221394"><ele>184.5</ele><time>2026-05-01T16:10:40Z</time></trkpt><trkpt lat="43.91676253271559" lon="12.149625720200667"><ele>185.25</ele><time>2026-05-01T16:10:41Z</time></trkpt><trkpt lat="43.916634416106234" lon="12.149502155936444"><ele>186.0</ele><time>2026-05-01T16:10:42Z</time></trkpt><trkpt lat="43.91650262074568" lon="12.149389546311424"><ele>186.0</ele><time>2026-05-01T16:10:43Z</time></trkpt><trkpt lat="43.916383643852804" lon="12.149290347722784"><ele>186.0</ele><time>2026-05-01T16:10:44Z</time></trkpt><trkpt lat="43.91628841577102" lon="12.149177997241978"><ele>186.0</ele><time>2026-05-01T16:10:45Z</time></trkpt><trkpt lat="43.91623013887172" lon="12.14904590502903"><ele>186.0</ele><time>2026-05-01T16:10:46Z</time></trkpt><trkpt lat="43.916208863126826" lon="12.148878721687593"><ele>184.5</ele><time>2026-05-01T16:10:47Z</time></trkpt><trkpt lat="43.91623096437659" lon="12.148685298294668"><ele>183.0</ele><time>2026-05-01T16:10:48Z</time></trkpt><trkpt lat="43.916260594244335" lon="12.148498816318174"><ele>181.5</ele><time>2026-05-01T16:10:49Z</time></trkpt><trkpt lat="43.91627125673761" lon="12.148320449865375"><ele>180.0</ele><time>2026-05-01T16:10:50Z</time></trkpt><trkpt lat="43.916252356617825" lon="12.148169228351318"><ele>178.5</ele><time>2026-05-01T16:10:51Z</time></trkpt><trkpt lat="43.91619084348064" lon="12.148021013795686"><ele>177.0</ele><time>2026-05-01T16:10:52Z</time></trkpt><trkpt lat="43.916112729470996" lon="12.147863910423563"><ele>175.5</ele><time>2026-05-01T16:10:53Z</time></trkpt><trkpt lat="43.916036131823" lon="12.147694863317836"><ele>174.0</ele><time>2026-05-01T16:10:54Z</time></trkpt><trkpt lat="43.91597245748412" lon="12.147512058309374"><ele>174.6</ele><time>2026-05-01T16:10:55Z</time></trkpt><trkpt lat="43.91596247656939" lon="12.147335831137521"><ele>175.2</ele><time>2026-05-01T16:10:56Z</time></trkpt><trkpt lat="43.91594906729988" lon="12.147179281031693"><ele>175.79999999999998</ele><time>2026-05-01T16:10:57Z</time></trkpt><trkpt lat="43.91594864958545" lon="12.147057068887285"><ele>176.39999999999998</ele><time>2026-05-01T16:10:58Z</time></trkpt><trkpt lat="43.9159449513756" lon="12.146953978176166"><ele>177.0</ele><time>2026-05-01T16:10:59Z</time></trkpt><trkpt lat="43.9159850129223" lon="12.146870726439408"><ele>177.0</ele><time>2026-05-01T16:11:00Z</time></trkpt><trkpt lat="43.91604847746308" lon="12.146799017317791"><ele>177.0</ele><time>2026-05-01T16:11:01Z</time></trkpt><trkpt lat="43.91613559682019" lon="12.146761403364668"><ele>177.0</ele><time>2026-05-01T16:11:02Z</time></trkpt><trkpt lat="43.91621712554472" lon="12.146679991661067"><ele>177.0</ele><time>2026-05-01T16:11:03Z</time></trkpt><trkpt lat="43.91631332723554" lon="12.14661352176576"><ele>177.0</ele><time>2026-05-01T16:11:04Z</time></trkpt><trkpt lat="43.91641899866195" lon="12.146532725597309"><ele>180.75</ele><time>2026-05-01T16:11:05Z</time></trkpt><trkpt lat="43.91652662020461" lon="12.146444869527373"><ele>184.5</ele><time>2026-05-01T16:11:06Z</time></trkpt><trkpt lat="43.91663200984622" lon="12.146362949058139"><ele>188.25</ele><time>2026-05-01T16:11:07Z</time></trkpt><trkpt lat="43.91675663212611" lon="12.146313852301446"><ele>192.0</ele><time>2026-05-01T16:11:08Z</time></trkpt><trkpt lat="43.91689141493148" lon="12.146281436293515"><ele>194.33333333333331</ele><time>2026-05-01T16:11:09Z</time></trkpt><trkpt lat="43.91703974634158" lon="12.146239913095917"><ele>196.66666666666666</ele><time>2026-05-01T16:11:10Z</time></trkpt><trkpt lat="43.917187430094394" lon="12.146198508736132"><ele>199.0</ele><time>2026-05-01T16:11:11Z</time></trkpt><trkpt lat="43.917347943989384" lon="12.146152874384429"><ele>199.0</ele><time>2026-05-01T16:11:12Z</time></trkpt><trkpt lat="43.91751436976228" lon="12.146101377838889"><ele>199.0</ele><time>2026-05-01T16:11:13Z</time></trkpt><trkpt lat="43.91769146655834" lon="12.146044711598746"><ele>199.0</ele><time>2026-05-01T16:11:14Z</time></trkpt><trkpt lat="43.917870073103316" lon="12.145984788446857"><ele>198.33333333333331</ele><time>2026-05-01T16:11:15Z</time></trkpt><trkpt lat="43.91803989095287" lon="12.14592642857268"><ele>197.66666666666669</ele><time>2026-05-01T16:11:16Z</time></trkpt><trkpt lat="43.918184827075905" lon="12.145874722987925"><ele>197.0</ele><time>2026-05-01T16:11:17Z</time></trkpt><trkpt lat="43.91833680479996" lon="12.14584084394076"><ele>199.33333333333334</ele><time>2026-05-01T16:11:18Z</time></trkpt><trkpt lat="43.918486681329306" lon="12.145833301573507"><ele>201.66666666666669</ele><time>2026-05-01T16:11:19Z</time></trkpt><trkpt lat="43.91863347785851" lon="12.145862521195113"><ele>204.0</ele><time>2026-05-01T16:11:20Z</time></trkpt><trkpt lat="43.91878415118758" lon="12.145913958996204"><ele>204.0</ele><time>2026-05-01T16:11:21Z</time></trkpt><trkpt lat="43.91894130412992" lon="12.145964694253628"><ele>204.0</ele><time>2026-05-01T16:11:22Z</time></trkpt><trkpt lat="43.91908815082068" lon="12.145977132318876"><ele>204.0</ele><time>2026-05-01T16:11:23.001Z</time></trkpt><trkpt lat="43.91922721410717" lon="12.145959575168293"><ele>204.0</ele><time>2026-05-01T16:11:24.001Z</time></trkpt><trkpt lat="43.91935628136295" lon="12.145946061044222"><ele>203.66666666666669</ele><time>2026-05-01T16:11:25.001Z</time></trkpt><trkpt lat="43.919585218633664" lon="12.145871920660431"><ele>203.33333333333334</ele><time>2026-05-01T16:11:27.001Z</time></trkpt><trkpt lat="43.91969268232182" lon="12.145814926167825"><ele>203.0</ele><time>2026-05-01T16:11:28.001Z</time></trkpt><trkpt lat="43.91979458129268" lon="12.145740333169533"><ele>208.60000000000002</ele><time>2026-05-01T16:11:29.001Z</time></trkpt><trkpt lat="43.91989597009134" lon="12.14566442965323"><ele>214.20000000000002</ele><time>2026-05-01T16:11:30.001Z</time></trkpt><trkpt lat="43.92000389686025" lon="12.14558725565617"><ele>219.8</ele><time>2026-05-01T16:11:31.001Z</time></trkpt><trkpt lat="43.92009201329634" lon="12.145563767063507"><ele>225.4</ele><time>2026-05-01T16:11:32.001Z</time></trkpt><trkpt lat="43.920177694295624" lon="12.145601447145614"><ele>231.0</ele><time>2026-05-01T16:11:33.001Z</time></trkpt><trkpt lat="43.92026321432672" lon="12.145657689525097"><ele>226.75</ele><time>2026-05-01T16:11:34.001Z</time></trkpt><trkpt lat="43.920341513887074" lon="12.145753536864348"><ele>222.5</ele><time>2026-05-01T16:11:35.001Z</time></trkpt><trkpt lat="43.92045242444625" lon="12.145827486949177"><ele>218.25</ele><time>2026-05-01T16:11:36.001Z</time></trkpt><trkpt lat="43.92057337402657" lon="12.145878064801183"><ele>214.0</ele><time>2026-05-01T16:11:37.001Z</time></trkpt><trkpt lat="43.92070992998523" lon="12.145868729268097"><ele>214.0</ele><time>2026-05-01T16:11:38.001Z</time></trkpt><trkpt lat="43.92084147802165" lon="12.145898914357566"><ele>214.0</ele><time>2026-05-01T16:11:39.001Z</time></trkpt><trkpt lat="43.92097543235445" lon="12.145954130720499"><ele>214.0</ele><time>2026-05-01T16:11:40.001Z</time></trkpt><trkpt lat="43.92110229373054" lon="12.146021378153087"><ele>214.0</ele><time>2026-05-01T16:11:41.001Z</time></trkpt><trkpt lat="43.92121654502493" lon="12.14614025282432"><ele>217.0</ele><time>2026-05-01T16:11:42.001Z</time></trkpt><trkpt lat="43.92133154452341" lon="12.146225047033687"><ele>220.0</ele><time>2026-05-01T16:11:43.001Z</time></trkpt><trkpt lat="43.92142974480058" lon="12.146293916000918"><ele>223.0</ele><time>2026-05-01T16:11:44.001Z</time></trkpt><trkpt lat="43.92150370737008" lon="12.14639178038926"><ele>226.0</ele><time>2026-05-01T16:11:45.001Z</time></trkpt><trkpt lat="43.92156994199901" lon="12.146517073770742"><ele>225.16666666666666</ele><time>2026-05-01T16:11:46.001Z</time></trkpt><trkpt lat="43.921607632100134" lon="12.146656579474936"><ele>224.33333333333331</ele><time>2026-05-01T16:11:47.001Z</time></trkpt><trkpt lat="43.92161681207188" lon="12.146797007885993"><ele>223.5</ele><time>2026-05-01T16:11:48.001Z</time></trkpt><trkpt lat="43.9216144167671" lon="12.14691223291763"><ele>222.66666666666669</ele><time>2026-05-01T16:11:49.001Z</time></trkpt><trkpt lat="43.921613949078115" lon="12.14700311260962"><ele>221.83333333333334</ele><time>2026-05-01T16:11:50.001Z</time></trkpt><trkpt lat="43.92164380350993" lon="12.14710287678165"><ele>221.0</ele><time>2026-05-01T16:11:52.001Z</time></trkpt><trkpt lat="43.92175992230545" lon="12.147034439626346"><ele>225.16666666666669</ele><time>2026-05-01T16:12:03.001Z</time></trkpt><trkpt lat="43.9217700502824" lon="12.14693524160587"><ele>229.33333333333334</ele><time>2026-05-01T16:12:04.001Z</time></trkpt><trkpt lat="43.92176878651676" lon="12.146818310697435"><ele>233.5</ele><time>2026-05-01T16:12:05.001Z</time></trkpt><trkpt lat="43.92177369709555" lon="12.146704840017994"><ele>237.66666666666669</ele><time>2026-05-01T16:12:06.001Z</time></trkpt><trkpt lat="43.92178273586093" lon="12.146595059973677"><ele>241.83333333333334</ele><time>2026-05-01T16:12:07.001Z</time></trkpt><trkpt lat="43.92178987519515" lon="12.146477359951225"><ele>246.0</ele><time>2026-05-01T16:12:08.001Z</time></trkpt><trkpt lat="43.9217876138027" lon="12.146344200928024"><ele>246.4</ele><time>2026-05-01T16:12:09.001Z</time></trkpt><trkpt lat="43.92178853869013" lon="12.146201297911785"><ele>246.8</ele><time>2026-05-01T16:12:10.001Z</time></trkpt><trkpt lat="43.92178983522618" lon="12.146056857905947"><ele>247.20000000000002</ele><time>2026-05-01T16:12:11.001Z</time></trkpt><trkpt lat="43.9217886272206" lon="12.145946200566597"><ele>247.60000000000002</ele><time>2026-05-01T16:12:12.001Z</time></trkpt><trkpt lat="43.92177582611927" lon="12.145838575005708"><ele>248.0</ele><time>2026-05-01T16:12:13.001Z</time></trkpt><trkpt lat="43.921734542978136" lon="12.14573231741816"><ele>247.2</ele><time>2026-05-01T16:12:14.001Z</time></trkpt><trkpt lat="43.92166693085024" lon="12.145634650531413"><ele>246.4</ele><time>2026-05-01T16:12:15.001Z</time></trkpt><trkpt lat="43.921579057526614" lon="12.145559114872562"><ele>245.59999999999997</ele><time>2026-05-01T16:12:16.001Z</time></trkpt><trkpt lat="43.92147363468293" lon="12.145512051977487"><ele>244.79999999999998</ele><time>2026-05-01T16:12:17.001Z</time></trkpt><trkpt lat="43.92136485423173" lon="12.145472888583226"><ele>244.0</ele><time>2026-05-01T16:12:18.001Z</time></trkpt><trkpt lat="43.921256304513975" lon="12.145433616056632"><ele>244.0</ele><time>2026-05-01T16:12:19.001Z</time></trkpt><trkpt lat="43.92114066362233" lon="12.145398044469427"><ele>243.99999999999997</ele><time>2026-05-01T16:12:20.001Z</time></trkpt><trkpt lat="43.92104147276334" lon="12.145345782117671"><ele>243.99999999999997</ele><time>2026-05-01T16:12:21.001Z</time></trkpt><trkpt lat="43.920944888233684" lon="12.145276786858185"><ele>244.0</ele><time>2026-05-01T16:12:22.001Z</time></trkpt><trkpt lat="43.92085194731128" lon="12.145200010967542"><ele>244.0</ele><time>2026-05-01T16:12:23.001Z</time></trkpt><trkpt lat="43.92075797863821" lon="12.145124295399217"><ele>243.0</ele><time>2026-05-01T16:12:24.001Z</time></trkpt><trkpt lat="43.920665131776545" lon="12.14505217049303"><ele>241.99999999999997</ele><time>2026-05-01T16:12:25.001Z</time></trkpt><trkpt lat="43.920575666041586" lon="12.144987394393715"><ele>240.99999999999997</ele><time>2026-05-01T16:12:26.001Z</time></trkpt><trkpt lat="43.92047722445244" lon="12.144935869521248"><ele>240.0</ele><time>2026-05-01T16:12:27Z</time></trkpt><trkpt lat="43.920377754034945" lon="12.144906157395505"><ele>239.0</ele><time>2026-05-01T16:12:28Z</time></trkpt><trkpt lat="43.920281079378896" lon="12.144877530146726"><ele>240.50000000000003</ele><time>2026-05-01T16:12:29Z</time></trkpt><trkpt lat="43.920189972626034" lon="12.144845226914791"><ele>242.0</ele><time>2026-05-01T16:12:30Z</time></trkpt><trkpt lat="43.92010189365541" lon="12.144811713360935"><ele>243.5</ele><time>2026-05-01T16:12:31Z</time></trkpt><trkpt lat="43.92001553891313" lon="12.144788372437485"><ele>245.0</ele><time>2026-05-01T16:12:32Z</time></trkpt><trkpt lat="43.91993028004253" lon="12.144780721143931"><ele>246.50000000000003</ele><time>2026-05-01T16:12:33Z</time></trkpt><trkpt lat="43.91984863738614" lon="12.144785555453876"><ele>248.0</ele><time>2026-05-01T16:12:34Z</time></trkpt><trkpt lat="43.91976258685833" lon="12.144794381906337"><ele>248.00000000000003</ele><time>2026-05-01T16:12:35Z</time></trkpt><trkpt lat="43.91967995205867" lon="12.144811090823644"><ele>248.0</ele><time>2026-05-01T16:12:36Z</time></trkpt><trkpt lat="43.91960256724632" lon="12.144814933407122"><ele>248.0</ele><time>2026-05-01T16:12:37Z</time></trkpt><trkpt lat="43.91952129631142" lon="12.144818685561022"><ele>248.0</ele><time>2026-05-01T16:12:38Z</time></trkpt><trkpt lat="43.91943580375719" lon="12.14482409858794"><ele>248.00000000000003</ele><time>2026-05-01T16:12:39Z</time></trkpt><trkpt lat="43.91935245055369" lon="12.144837597349989"><ele>248.0</ele><time>2026-05-01T16:12:40Z</time></trkpt><trkpt lat="43.91927199292028" lon="12.144857044040844"><ele>247.2</ele><time>2026-05-01T16:12:41Z</time></trkpt><trkpt lat="43.91918202366055" lon="12.14487333172891"><ele>246.4</ele><time>2026-05-01T16:12:42Z</time></trkpt><trkpt lat="43.91909907611226" lon="12.144884285958717"><ele>245.59999999999997</ele><time>2026-05-01T16:12:43Z</time></trkpt><trkpt lat="43.91901702992611" lon="12.144885189134015"><ele>244.79999999999998</ele><time>2026-05-01T16:12:44Z</time></trkpt><trkpt lat="43.91892114070684" lon="12.14488825516788"><ele>244.0</ele><time>2026-05-01T16:12:45Z</time></trkpt><trkpt lat="43.91882335675074" lon="12.144881778487623"><ele>244.0</ele><time>2026-05-01T16:12:46Z</time></trkpt><trkpt lat="43.91872641150104" lon="12.14486665129173"><ele>243.99999999999997</ele><time>2026-05-01T16:12:47Z</time></trkpt><trkpt lat="43.918627950202556" lon="12.144851145902644"><ele>243.99999999999997</ele><time>2026-05-01T16:12:48Z</time></trkpt><trkpt lat="43.91852895387704" lon="12.144848276426421"><ele>244.0</ele><time>2026-05-01T16:12:49Z</time></trkpt><trkpt lat="43.91842570154645" lon="12.144845116793025"><ele>244.0</ele><time>2026-05-01T16:12:50Z</time></trkpt><trkpt lat="43.918325902125666" lon="12.144839532214212"><ele>243.66666666666666</ele><time>2026-05-01T16:12:51Z</time></trkpt><trkpt lat="43.91823460657596" lon="12.144825636752978"><ele>243.33333333333331</ele><time>2026-05-01T16:12:52Z</time></trkpt><trkpt lat="43.91815813817797" lon="12.144809155251698"><ele>243.0</ele><time>2026-05-01T16:12:53Z</time></trkpt><trkpt lat="43.91807700865508" lon="12.144774148786441"><ele>242.66666666666669</ele><time>2026-05-01T16:12:54Z</time></trkpt><trkpt lat="43.91800653067389" lon="12.144705388752211"><ele>242.33333333333334</ele><time>2026-05-01T16:12:55Z</time></trkpt><trkpt lat="43.91794154454058" lon="12.144614658085912"><ele>242.0</ele><time>2026-05-01T16:12:56Z</time></trkpt><trkpt lat="43.91788566189712" lon="12.144509572686097"><ele>242.0</ele><time>2026-05-01T16:12:57Z</time></trkpt><trkpt lat="43.917846637072" lon="12.144383820765556"><ele>242.0</ele><time>2026-05-01T16:12:58Z</time></trkpt><trkpt lat="43.917816828393846" lon="12.144256852749574"><ele>242.0</ele><time>2026-05-01T16:12:59Z</time></trkpt><trkpt lat="43.91778993991089" lon="12.144126197682619"><ele>242.0</ele><time>2026-05-01T16:13:00Z</time></trkpt><trkpt lat="43.91777124879237" lon="12.143988106222475"><ele>242.0</ele><time>2026-05-01T16:13:01Z</time></trkpt><trkpt lat="43.91774803817102" lon="12.143856746744708"><ele>242.66666666666669</ele><time>2026-05-01T16:13:02Z</time></trkpt><trkpt lat="43.917726849379726" lon="12.14372483445626"><ele>243.33333333333334</ele><time>2026-05-01T16:13:03Z</time></trkpt><trkpt lat="43.91770827872068" lon="12.143607567596968"><ele>244.0</ele><time>2026-05-01T16:13:04Z</time></trkpt><trkpt lat="43.91768463046849" lon="12.143496186071877"><ele>244.66666666666669</ele><time>2026-05-01T16:13:05Z</time></trkpt><trkpt lat="43.91765998514679" lon="12.143397593060287"><ele>245.33333333333334</ele><time>2026-05-01T16:13:06Z</time></trkpt><trkpt lat="43.91763379035381" lon="12.143307612119013"><ele>246.0</ele><time>2026-05-01T16:13:07Z</time></trkpt><trkpt lat="43.91756372102279" lon="12.143140732068687"><ele>244.4</ele><time>2026-05-01T16:13:09Z</time></trkpt><trkpt lat="43.917526186479634" lon="12.143046605236558"><ele>242.8</ele><time>2026-05-01T16:13:10Z</time></trkpt><trkpt lat="43.9174871161498" lon="12.142944771434282"><ele>241.20000000000002</ele><time>2026-05-01T16:13:11Z</time></trkpt><trkpt lat="43.91744383817671" lon="12.142830439444868"><ele>239.60000000000002</ele><time>2026-05-01T16:13:12Z</time></trkpt><trkpt lat="43.917407774079585" lon="12.142700750135443"><ele>238.0</ele><time>2026-05-01T16:13:13Z</time></trkpt><trkpt lat="43.917362059013136" lon="12.142577134709033"><ele>238.0</ele><time>2026-05-01T16:13:14Z</time></trkpt><trkpt lat="43.917336216148755" lon="12.142456898708726"><ele>238.0</ele><time>2026-05-01T16:13:15Z</time></trkpt><trkpt lat="43.91731719731729" lon="12.142325995763857"><ele>238.0</ele><time>2026-05-01T16:13:16Z</time></trkpt><trkpt lat="43.91730187052612" lon="12.142185324718747"><ele>238.0</ele><time>2026-05-01T16:13:17Z</time></trkpt><trkpt lat="43.91729734202088" lon="12.142039958745288"><ele>238.0</ele><time>2026-05-01T16:13:18Z</time></trkpt><trkpt lat="43.917308583939125" lon="12.141889132098298"><ele>237.60000000000002</ele><time>2026-05-01T16:13:19Z</time></trkpt><trkpt lat="43.917327163573844" lon="12.14173834856448"><ele>237.20000000000002</ele><time>2026-05-01T16:13:20Z</time></trkpt><trkpt lat="43.917339240545274" lon="12.141584467617761"><ele>236.8</ele><time>2026-05-01T16:13:21Z</time></trkpt><trkpt lat="43.91734416854813" lon="12.14143371459371"><ele>236.4</ele><time>2026-05-01T16:13:22Z</time></trkpt><trkpt lat="43.91733095914354" lon="12.141276525103128"><ele>236.0</ele><time>2026-05-01T16:13:23Z</time></trkpt><trkpt lat="43.91730427386547" lon="12.14111709406899"><ele>234.5</ele><time>2026-05-01T16:13:24Z</time></trkpt><trkpt lat="43.91726267589141" lon="12.140958694210683"><ele>233.0</ele><time>2026-05-01T16:13:25Z</time></trkpt><trkpt lat="43.9172013294741" lon="12.140801655229494"><ele>231.5</ele><time>2026-05-01T16:13:26Z</time></trkpt><trkpt lat="43.91712861988859" lon="12.140654862880552"><ele>230.0</ele><time>2026-05-01T16:13:27Z</time></trkpt><trkpt lat="43.917038733118304" lon="12.140510207681645"><ele>226.5</ele><time>2026-05-01T16:13:28Z</time></trkpt><trkpt lat="43.91694972808492" lon="12.140370401201906"><ele>223.0</ele><time>2026-05-01T16:13:29Z</time></trkpt><trkpt lat="43.91685940924679" lon="12.14023433626582"><ele>219.5</ele><time>2026-05-01T16:13:30Z</time></trkpt><trkpt lat="43.91677147776204" lon="12.140102529106157"><ele>216.0</ele><time>2026-05-01T16:13:31Z</time></trkpt><trkpt lat="43.91668530670484" lon="12.139967168417847"><ele>220.0</ele><time>2026-05-01T16:13:32Z</time></trkpt><trkpt lat="43.91660086236483" lon="12.139824888577865"><ele>224.0</ele><time>2026-05-01T16:13:33Z</time></trkpt><trkpt lat="43.916516322047656" lon="12.139683209833196"><ele>228.0</ele><time>2026-05-01T16:13:34Z</time></trkpt><trkpt lat="43.916429388698695" lon="12.139548559665963"><ele>232.0</ele><time>2026-05-01T16:13:35Z</time></trkpt><trkpt lat="43.91634099952026" lon="12.139421557795421"><ele>232.0</ele><time>2026-05-01T16:13:36Z</time></trkpt><trkpt lat="43.91625620846289" lon="12.139285221149592"><ele>232.0</ele><time>2026-05-01T16:13:37Z</time></trkpt><trkpt lat="43.91616738220607" lon="12.13915307227154"><ele>232.0</ele><time>2026-05-01T16:13:38Z</time></trkpt><trkpt lat="43.91608518230805" lon="12.139010244773903"><ele>232.0</ele><time>2026-05-01T16:13:39Z</time></trkpt><trkpt lat="43.916004292110166" lon="12.13887000982174"><ele>232.2</ele><time>2026-05-01T16:13:40Z</time></trkpt><trkpt lat="43.91591277703722" lon="12.138753219991997"><ele>232.39999999999998</ele><time>2026-05-01T16:13:41Z</time></trkpt><trkpt lat="43.91582304635773" lon="12.138649706001866"><ele>232.60000000000002</ele><time>2026-05-01T16:13:42Z</time></trkpt><trkpt lat="43.91574108601747" lon="12.13856768492686"><ele>232.8</ele><time>2026-05-01T16:13:43Z</time></trkpt><trkpt lat="43.91565763358847" lon="12.13851362856853"><ele>233.0</ele><time>2026-05-01T16:13:44Z</time></trkpt><trkpt lat="43.91558708641024" lon="12.13847236574361"><ele>233.00000000000003</ele><time>2026-05-01T16:13:45.001Z</time></trkpt><trkpt lat="43.915522676213676" lon="12.138435416424137"><ele>233.0</ele><time>2026-05-01T16:13:46.001Z</time></trkpt><trkpt lat="43.915423622544125" lon="12.138367628650533"><ele>233.0</ele><time>2026-05-01T16:13:48.001Z</time></trkpt><trkpt lat="43.915361069662794" lon="12.13832889840395"><ele>233.0</ele><time>2026-05-01T16:13:50.001Z</time></trkpt><trkpt lat="43.915299044018234" lon="12.138293611423036"><ele>233.00000000000003</ele><time>2026-05-01T16:14:33Z</time></trkpt><trkpt lat="43.91521148566294" lon="12.138237002276213"><ele>233.0</ele><time>2026-05-01T16:14:35Z</time></trkpt><trkpt lat="43.91511103288554" lon="12.138124541865938"><ele>233.16666666666669</ele><time>2026-05-01T16:14:37Z</time></trkpt><trkpt lat="43.91507296915026" lon="12.138025678472522"><ele>233.33333333333334</ele><time>2026-05-01T16:14:38Z</time></trkpt><trkpt lat="43.9150603373425" lon="12.137908778595698"><ele>233.5</ele><time>2026-05-01T16:14:39Z</time></trkpt><trkpt lat="43.91505184495591" lon="12.13778571846412"><ele>233.66666666666669</ele><time>2026-05-01T16:14:40Z</time></trkpt><trkpt lat="43.9150468159696" lon="12.137654704984076"><ele>233.83333333333334</ele><time>2026-05-01T16:14:41Z</time></trkpt><trkpt lat="43.915069698808836" lon="12.137520099919625"><ele>234.0</ele><time>2026-05-01T16:14:42Z</time></trkpt><trkpt lat="43.915078548784514" lon="12.13737165742712"><ele>234.0</ele><time>2026-05-01T16:14:43Z</time></trkpt><trkpt lat="43.91508861993775" lon="12.137216957379719"><ele>233.99999999999997</ele><time>2026-05-01T16:14:44Z</time></trkpt><trkpt lat="43.915098235413" lon="12.137089808269371"><ele>233.99999999999997</ele><time>2026-05-01T16:14:45Z</time></trkpt><trkpt lat="43.91510884726536" lon="12.136954156939584"><ele>234.0</ele><time>2026-05-01T16:14:46Z</time></trkpt><trkpt lat="43.91511856508854" lon="12.136813174077156"><ele>234.0</ele><time>2026-05-01T16:14:47Z</time></trkpt><trkpt lat="43.91512471173499" lon="12.136679590498598"><ele>238.0</ele><time>2026-05-01T16:14:48Z</time></trkpt><trkpt lat="43.915129875902025" lon="12.13654402844539"><ele>241.99999999999997</ele><time>2026-05-01T16:14:49Z</time></trkpt><trkpt lat="43.91513261444935" lon="12.136406387919031"><ele>245.99999999999997</ele><time>2026-05-01T16:14:50Z</time></trkpt><trkpt lat="43.91513259766528" lon="12.136266796523126"><ele>250.0</ele><time>2026-05-01T16:14:51Z</time></trkpt><trkpt lat="43.91512630534872" lon="12.13612542792586"><ele>254.0</ele><time>2026-05-01T16:14:52Z</time></trkpt><trkpt lat="43.915099921843364" lon="12.135988918705632"><ele>254.0</ele><time>2026-05-01T16:14:53Z</time></trkpt><trkpt lat="43.91508558893041" lon="12.135847258594813"><ele>253.99999999999997</ele><time>2026-05-01T16:14:54Z</time></trkpt><trkpt lat="43.9150722088075" lon="12.135697967479107"><ele>253.99999999999997</ele><time>2026-05-01T16:14:55Z</time></trkpt><trkpt lat="43.91504888642965" lon="12.135545227113983"><ele>254.0</ele><time>2026-05-01T16:14:56Z</time></trkpt><trkpt lat="43.915018529705144" lon="12.135380331551596"><ele>254.0</ele><time>2026-05-01T16:14:57Z</time></trkpt><trkpt lat="43.914984136858116" lon="12.135205255229051"><ele>252.75</ele><time>2026-05-01T16:14:58Z</time></trkpt><trkpt lat="43.91495454815381" lon="12.135031256482387"><ele>251.5</ele><time>2026-05-01T16:14:59Z</time></trkpt><trkpt lat="43.914928728836" lon="12.134852157881788"><ele>250.25</ele><time>2026-05-01T16:15:00Z</time></trkpt><trkpt lat="43.91490615554097" lon="12.134675169449494"><ele>249.0</ele><time>2026-05-01T16:15:01Z</time></trkpt><trkpt lat="43.91488004860407" lon="12.134501919927017"><ele>249.0</ele><time>2026-05-01T16:15:02Z</time></trkpt><trkpt lat="43.914857804920544" lon="12.134326795768887"><ele>249.0</ele><time>2026-05-01T16:15:03Z</time></trkpt><trkpt lat="43.914833172593845" lon="12.134155595971494"><ele>249.0</ele><time>2026-05-01T16:15:04Z</time></trkpt><trkpt lat="43.91480106095259" lon="12.133990765792008"><ele>249.0</ele><time>2026-05-01T16:15:05Z</time></trkpt><trkpt lat="43.91476914411775" lon="12.133824883411751"><ele>251.0</ele><time>2026-05-01T16:15:06Z</time></trkpt><trkpt lat="43.914728716494636" lon="12.133666256375218"><ele>253.0</ele><time>2026-05-01T16:15:07Z</time></trkpt><trkpt lat="43.91468688492496" lon="12.133507756710808"><ele>255.0</ele><time>2026-05-01T16:15:08Z</time></trkpt><trkpt lat="43.9146440020773" lon="12.133354277191948"><ele>257.0</ele><time>2026-05-01T16:15:09Z</time></trkpt><trkpt lat="43.914591751979" lon="12.133209195724573"><ele>258.2</ele><time>2026-05-01T16:15:10Z</time></trkpt><trkpt lat="43.914544911896726" lon="12.133056453727537"><ele>259.4</ele><time>2026-05-01T16:15:11Z</time></trkpt><trkpt lat="43.914498835313765" lon="12.132911122115036"><ele>260.6</ele><time>2026-05-01T16:15:12Z</time></trkpt><trkpt lat="43.91446280524394" lon="12.132776671430193"><ele>261.8</ele><time>2026-05-01T16:15:13Z</time></trkpt><trkpt lat="43.914435503378726" lon="12.132641786749595"><ele>263.0</ele><time>2026-05-01T16:15:14Z</time></trkpt><trkpt lat="43.914415770572624" lon="12.13249306013985"><ele>263.5</ele><time>2026-05-01T16:15:15Z</time></trkpt><trkpt lat="43.91440676947161" lon="12.132329884934274"><ele>264.0</ele><time>2026-05-01T16:15:16Z</time></trkpt><trkpt lat="43.914425396993764" lon="12.132206709338847"><ele>264.5</ele><time>2026-05-01T16:15:17Z</time></trkpt><trkpt lat="43.91441988257723" lon="12.132088097014321"><ele>265.0</ele><time>2026-05-01T16:15:18Z</time></trkpt><trkpt lat="43.91442206975457" lon="12.131977506015767"><ele>265.5</ele><time>2026-05-01T16:15:19Z</time></trkpt><trkpt lat="43.914425768032096" lon="12.13188340450716"><ele>266.0</ele><time>2026-05-01T16:15:20Z</time></trkpt><trkpt lat="43.91442799773281" lon="12.13173516986953"><ele>266.0</ele><time>2026-05-01T16:15:22Z</time></trkpt><trkpt lat="43.914434601848896" lon="12.131615044786923"><ele>266.0</ele><time>2026-05-01T16:15:24Z</time></trkpt><trkpt lat="43.91443500851574" lon="12.131496370725703"><ele>266.0</ele><time>2026-05-01T16:15:27Z</time></trkpt><trkpt lat="43.91445705672522" lon="12.13138211212718"><ele>266.0</ele><time>2026-05-01T16:16:12.001Z</time></trkpt><trkpt lat="43.914450653500296" lon="12.131278941309349"><ele>266.0</ele><time>2026-05-01T16:16:14.001Z</time></trkpt><trkpt lat="43.91444402343002" lon="12.131187961415703"><ele>266.0</ele><time>2026-05-01T16:16:15.001Z</time></trkpt><trkpt lat="43.91444546666088" lon="12.131085952091665"><ele>267.33333333333337</ele><time>2026-05-01T16:16:16.001Z</time></trkpt><trkpt lat="43.9144419951907" lon="12.130988975182111"><ele>268.6666666666667</ele><time>2026-05-01T16:16:17.001Z</time></trkpt><trkpt lat="43.91443662333732" lon="12.130882148612725"><ele>270.0</ele><time>2026-05-01T16:16:18.001Z</time></trkpt><trkpt lat="43.91444452251874" lon="12.13077372608947"><ele>271.3333333333333</ele><time>2026-05-01T16:16:19.001Z</time></trkpt><trkpt lat="43.91444488563577" lon="12.130652952965967"><ele>272.66666666666663</ele><time>2026-05-01T16:16:20.001Z</time></trkpt><trkpt lat="43.9144358748033" lon="12.130525616873307"><ele>274.0</ele><time>2026-05-01T16:16:21.001Z</time></trkpt><trkpt lat="43.914438886431746" lon="12.130405442937745"><ele>275.0</ele><time>2026-05-01T16:16:22.001Z</time></trkpt><trkpt lat="43.91443704945389" lon="12.130286415810511"><ele>276.0</ele><time>2026-05-01T16:16:23.001Z</time></trkpt><trkpt lat="43.91443410822282" lon="12.130165982341726"><ele>277.0</ele><time>2026-05-01T16:16:24.001Z</time></trkpt><trkpt lat="43.91443463993419" lon="12.130048092526073"><ele>278.0</ele><time>2026-05-01T16:16:25.001Z</time></trkpt><trkpt lat="43.914431935386986" lon="12.129930191727668"><ele>279.0</ele><time>2026-05-01T16:16:26.001Z</time></trkpt><trkpt lat="43.9144208014787" lon="12.129813949591252"><ele>280.0</ele><time>2026-05-01T16:16:27.001Z</time></trkpt><trkpt lat="43.9144002617729" lon="12.129700524440981"><ele>282.6</ele><time>2026-05-01T16:16:28.001Z</time></trkpt><trkpt lat="43.91436801578302" lon="12.129589512321662"><ele>285.2</ele><time>2026-05-01T16:16:29.001Z</time></trkpt><trkpt lat="43.91432695744517" lon="12.129480044169584"><ele>287.8</ele><time>2026-05-01T16:16:30.001Z</time></trkpt><trkpt lat="43.914283646754626" lon="12.129372794213046"><ele>290.4</ele><time>2026-05-01T16:16:31.001Z</time></trkpt><trkpt lat="43.91423318658848" lon="12.129262852171985"><ele>293.0</ele><time>2026-05-01T16:16:32.001Z</time></trkpt><trkpt lat="43.914187453576794" lon="12.129148677858593"><ele>286.8</ele><time>2026-05-01T16:16:33.001Z</time></trkpt><trkpt lat="43.914141749592716" lon="12.129031144168007"><ele>280.6</ele><time>2026-05-01T16:16:34.001Z</time></trkpt><trkpt lat="43.914093800864734" lon="12.128906577862702"><ele>274.4</ele><time>2026-05-01T16:16:35.001Z</time></trkpt><trkpt lat="43.914039530629324" lon="12.128797448527907"><ele>268.2</ele><time>2026-05-01T16:16:36.001Z</time></trkpt><trkpt lat="43.91397244334954" lon="12.128691805201623"><ele>262.0</ele><time>2026-05-01T16:16:37.001Z</time></trkpt><trkpt lat="43.913886912096615" lon="12.1286019190272"><ele>262.0</ele><time>2026-05-01T16:16:38.001Z</time></trkpt><trkpt lat="43.91380017144734" lon="12.128511987820946"><ele>262.0</ele><time>2026-05-01T16:16:39Z</time></trkpt><trkpt lat="43.9137185577482" lon="12.128417793871497"><ele>262.0</ele><time>2026-05-01T16:16:40Z</time></trkpt><trkpt lat="43.91364163268281" lon="12.128314966098735"><ele>262.0</ele><time>2026-05-01T16:16:41Z</time></trkpt><trkpt lat="43.913567203001875" lon="12.128209321114877"><ele>262.0</ele><time>2026-05-01T16:16:42Z</time></trkpt><trkpt lat="43.91349175237013" lon="12.128095543158732"><ele>260.0</ele><time>2026-05-01T16:16:43Z</time></trkpt><trkpt lat="43.913416245506234" lon="12.127985578351428"><ele>258.0</ele><time>2026-05-01T16:16:44Z</time></trkpt><trkpt lat="43.91334044484097" lon="12.127873049378634"><ele>256.0</ele><time>2026-05-01T16:16:45Z</time></trkpt><trkpt lat="43.9132596937565" lon="12.127767818193915"><ele>254.0</ele><time>2026-05-01T16:16:46Z</time></trkpt><trkpt lat="43.91317592936294" lon="12.127663212620941"><ele>252.0</ele><time>2026-05-01T16:16:47Z</time></trkpt><trkpt lat="43.91309107222499" lon="12.127555747274032"><ele>252.0</ele><time>2026-05-01T16:16:48Z</time></trkpt><trkpt lat="43.913002543501804" lon="12.127450775602568"><ele>252.0</ele><time>2026-05-01T16:16:49Z</time></trkpt><trkpt lat="43.91291920392434" lon="12.127336847869598"><ele>252.0</ele><time>2026-05-01T16:16:50Z</time></trkpt><trkpt lat="43.912839166004304" lon="12.127210316472722"><ele>252.0</ele><time>2026-05-01T16:16:51Z</time></trkpt><trkpt lat="43.91276606483405" lon="12.1270719723997"><ele>250.5</ele><time>2026-05-01T16:16:52Z</time></trkpt><trkpt lat="43.912696703212674" lon="12.126929659035133"><ele>249.0</ele><time>2026-05-01T16:16:53Z</time></trkpt><trkpt lat="43.912623972467884" lon="12.126786219506362"><ele>247.5</ele><time>2026-05-01T16:16:54Z</time></trkpt><trkpt lat="43.91255500623124" lon="12.12664001693541"><ele>246.0</ele><time>2026-05-01T16:16:55Z</time></trkpt><trkpt lat="43.912484626505204" lon="12.126491419390264"><ele>246.0</ele><time>2026-05-01T16:16:56Z</time></trkpt><trkpt lat="43.91242409875534" lon="12.126345752257407"><ele>246.0</ele><time>2026-05-01T16:16:57Z</time></trkpt><trkpt lat="43.91237137826702" lon="12.126204139391083"><ele>246.0</ele><time>2026-05-01T16:16:58Z</time></trkpt><trkpt lat="43.9123343182081" lon="12.126056830545625"><ele>246.0</ele><time>2026-05-01T16:16:59Z</time></trkpt><trkpt lat="43.91231442090946" lon="12.12590875008223"><ele>246.0</ele><time>2026-05-01T16:17:00Z</time></trkpt><trkpt lat="43.91230573183329" lon="12.125761916618474"><ele>246.00000000000003</ele><time>2026-05-01T16:17:01Z</time></trkpt><trkpt lat="43.912318260082095" lon="12.125609631927095"><ele>246.00000000000003</ele><time>2026-05-01T16:17:02Z</time></trkpt><trkpt lat="43.91234226416903" lon="12.125464283543582"><ele>246.0</ele><time>2026-05-01T16:17:03Z</time></trkpt><trkpt lat="43.912373471978235" lon="12.125319114128047"><ele>246.0</ele><time>2026-05-01T16:17:04Z</time></trkpt><trkpt lat="43.91241296950766" lon="12.125172896155583"><ele>246.75</ele><time>2026-05-01T16:17:05Z</time></trkpt><trkpt lat="43.91246518198192" lon="12.125024827689483"><ele>247.5</ele><time>2026-05-01T16:17:06Z</time></trkpt><trkpt lat="43.91251738346602" lon="12.124882576063266"><ele>248.25</ele><time>2026-05-01T16:17:07Z</time></trkpt><trkpt lat="43.91255403926113" lon="12.124729383250306"><ele>249.0</ele><time>2026-05-01T16:17:08Z</time></trkpt><trkpt lat="43.912579759776165" lon="12.124583410700243"><ele>249.79999999999998</ele><time>2026-05-01T16:17:09Z</time></trkpt><trkpt lat="43.91259571180681" lon="12.124447831692018"><ele>250.59999999999997</ele><time>2026-05-01T16:17:10Z</time></trkpt><trkpt lat="43.91259566881709" lon="12.124317618942486"><ele>251.4</ele><time>2026-05-01T16:17:11Z</time></trkpt><trkpt lat="43.91257260410522" lon="12.124191546541295"><ele>252.2</ele><time>2026-05-01T16:17:12Z</time></trkpt><trkpt lat="43.912528265638684" lon="12.124073895156501"><ele>253.0</ele><time>2026-05-01T16:17:13Z</time></trkpt><trkpt lat="43.912461261785936" lon="12.123986039879997"><ele>253.0</ele><time>2026-05-01T16:17:14Z</time></trkpt><trkpt lat="43.91237309729626" lon="12.123935512291483"><ele>253.0</ele><time>2026-05-01T16:17:15Z</time></trkpt><trkpt lat="43.91227662651366" lon="12.123949728818728"><ele>253.0</ele><time>2026-05-01T16:17:16Z</time></trkpt><trkpt lat="43.912181854017604" lon="12.12400751056081"><ele>253.0</ele><time>2026-05-01T16:17:17Z</time></trkpt><trkpt lat="43.91209451629192" lon="12.124078866711972"><ele>253.0</ele><time>2026-05-01T16:17:18Z</time></trkpt><trkpt lat="43.91200319831429" lon="12.1241016515674"><ele>253.0</ele><time>2026-05-01T16:17:19Z</time></trkpt><trkpt lat="43.911909724320466" lon="12.124078981604484"><ele>253.0</ele><time>2026-05-01T16:17:20Z</time></trkpt><trkpt lat="43.91182225954546" lon="12.124004436287928"><ele>253.0</ele><time>2026-05-01T16:17:21Z</time></trkpt><trkpt lat="43.911735181929004" lon="12.123913915685034"><ele>253.0</ele><time>2026-05-01T16:17:22Z</time></trkpt><trkpt lat="43.91164889447963" lon="12.123806194468171"><ele>253.0</ele><time>2026-05-01T16:17:23Z</time></trkpt><trkpt lat="43.91157247868227" lon="12.123682495019901"><ele>254.0</ele><time>2026-05-01T16:17:24Z</time></trkpt><trkpt lat="43.91150587149315" lon="12.123554556713685"><ele>255.0</ele><time>2026-05-01T16:17:25Z</time></trkpt><trkpt lat="43.91144610423374" lon="12.123443893705993"><ele>256.0</ele><time>2026-05-01T16:17:26Z</time></trkpt><trkpt lat="43.911387204879276" lon="12.123334868360061"><ele>257.0</ele><time>2026-05-01T16:17:27Z</time></trkpt><trkpt lat="43.91133200569033" lon="12.123241282954837"><ele>258.0</ele><time>2026-05-01T16:17:28Z</time></trkpt><trkpt lat="43.9112826222646" lon="12.123151728496817"><ele>258.8333333333333</ele><time>2026-05-01T16:17:29Z</time></trkpt><trkpt lat="43.91123921717138" lon="12.123066171622412"><ele>259.6666666666667</ele><time>2026-05-01T16:17:30Z</time></trkpt><trkpt lat="43.9111994475905" lon="12.122985991850149"><ele>260.5</ele><time>2026-05-01T16:17:31Z</time></trkpt><trkpt lat="43.91113201760946" lon="12.122865269190559"><ele>261.33333333333337</ele><time>2026-05-01T16:17:33Z</time></trkpt><trkpt lat="43.91107796890289" lon="12.122818583758042"><ele>262.1666666666667</ele><time>2026-05-01T16:17:35Z</time></trkpt><trkpt lat="43.91101084461997" lon="12.122795237742778"><ele>263.0</ele><time>2026-05-01T16:17:47.001Z</time></trkpt><trkpt lat="43.91091342389133" lon="12.122805790293077"><ele>261.6</ele><time>2026-05-01T16:17:50.001Z</time></trkpt><trkpt lat="43.910826865026" lon="12.12271156303808"><ele>260.20000000000005</ele><time>2026-05-01T16:17:52.001Z</time></trkpt><trkpt lat="43.910733244502296" lon="12.122588576179917"><ele>258.8</ele><time>2026-05-01T16:17:54.001Z</time></trkpt><trkpt lat="43.91067360395202" lon="12.122532173812049"><ele>257.40000000000003</ele><time>2026-05-01T16:17:55.001Z</time></trkpt><trkpt lat="43.910608339838745" lon="12.122469594688864"><ele>256.0</ele><time>2026-05-01T16:17:56.001Z</time></trkpt><trkpt lat="43.910542542952086" lon="12.122396056884241"><ele>256.0</ele><time>2026-05-01T16:17:57.001Z</time></trkpt><trkpt lat="43.910475146245396" lon="12.122308515896114"><ele>256.0</ele><time>2026-05-01T16:17:58.001Z</time></trkpt><trkpt lat="43.910408474678064" lon="12.122215180238161"><ele>256.0</ele><time>2026-05-01T16:17:59.001Z</time></trkpt><trkpt lat="43.9103460993539" lon="12.122114243594186"><ele>256.0</ele><time>2026-05-01T16:18:00.001Z</time></trkpt><trkpt lat="43.91026281731761" lon="12.122040657062376"><ele>256.0</ele><time>2026-05-01T16:18:01.001Z</time></trkpt><trkpt lat="43.910217579174684" lon="12.12189312198856"><ele>256.0</ele><time>2026-05-01T16:18:02.001Z</time></trkpt><trkpt lat="43.910151801217054" lon="12.121764990576272"><ele>256.0</ele><time>2026-05-01T16:18:03.001Z</time></trkpt><trkpt lat="43.91008778685226" lon="12.121645220949386"><ele>256.0</ele><time>2026-05-01T16:18:04.001Z</time></trkpt><trkpt lat="43.910018125735725" lon="12.12151100964719"><ele>256.0</ele><time>2026-05-01T16:18:05.001Z</time></trkpt><trkpt lat="43.90994638300721" lon="12.12136615450402"><ele>256.25</ele><time>2026-05-01T16:18:06.001Z</time></trkpt><trkpt lat="43.90986842135588" lon="12.1212079077557"><ele>256.5</ele><time>2026-05-01T16:18:07.001Z</time></trkpt><trkpt lat="43.90978500437222" lon="12.121040084939157"><ele>256.75</ele><time>2026-05-01T16:18:08.001Z</time></trkpt><trkpt lat="43.90969959048895" lon="12.120862158861332"><ele>257.0</ele><time>2026-05-01T16:18:09.001Z</time></trkpt><trkpt lat="43.909614957662185" lon="12.120698395324732"><ele>260.6666666666667</ele><time>2026-05-01T16:18:10.001Z</time></trkpt><trkpt lat="43.90952690882759" lon="12.120524180296169"><ele>264.3333333333333</ele><time>2026-05-01T16:18:11.001Z</time></trkpt><trkpt lat="43.90943314057656" lon="12.120352107934737"><ele>268.0</ele><time>2026-05-01T16:18:12.001Z</time></trkpt><trkpt lat="43.90934443823771" lon="12.120163964361751"><ele>268.0</ele><time>2026-05-01T16:18:13.001Z</time></trkpt><trkpt lat="43.909250847809076" lon="12.119956590354992"><ele>268.0</ele><time>2026-05-01T16:18:14.001Z</time></trkpt><trkpt lat="43.90915622168399" lon="12.11975493559689"><ele>268.0</ele><time>2026-05-01T16:18:15.001Z</time></trkpt><trkpt lat="43.909059042508545" lon="12.119547676516575"><ele>268.66666666666663</ele><time>2026-05-01T16:18:16.001Z</time></trkpt><trkpt lat="43.908965488775465" lon="12.119336827164734"><ele>269.3333333333333</ele><time>2026-05-01T16:18:17.001Z</time></trkpt><trkpt lat="43.90887650728149" lon="12.119135290726657"><ele>270.0</ele><time>2026-05-01T16:18:18.001Z</time></trkpt><trkpt lat="43.90878551661936" lon="12.118929790171446"><ele>270.0</ele><time>2026-05-01T16:18:19.001Z</time></trkpt><trkpt lat="43.908691693612326" lon="12.118721374061057"><ele>270.0</ele><time>2026-05-01T16:18:20.001Z</time></trkpt><trkpt lat="43.908594104037185" lon="12.118517044860926"><ele>270.0</ele><time>2026-05-01T16:18:21.001Z</time></trkpt><trkpt lat="43.90849109409872" lon="12.118323286668392"><ele>263.0</ele><time>2026-05-01T16:18:22.001Z</time></trkpt><trkpt lat="43.9083848188558" lon="12.118125697934943"><ele>256.0</ele><time>2026-05-01T16:18:23.001Z</time></trkpt><trkpt lat="43.90827789557338" lon="12.117922241354425"><ele>249.0</ele><time>2026-05-01T16:18:24.001Z</time></trkpt><trkpt lat="43.90817488710994" lon="12.11770528815237"><ele>249.0</ele><time>2026-05-01T16:18:25.001Z</time></trkpt><trkpt lat="43.9080716374671" lon="12.117488181644989"><ele>249.0</ele><time>2026-05-01T16:18:26.001Z</time></trkpt><trkpt lat="43.90796490211011" lon="12.117267146768043"><ele>249.0</ele><time>2026-05-01T16:18:27.001Z</time></trkpt><trkpt lat="43.90785719909208" lon="12.11704501283939"><ele>251.66666666666669</ele><time>2026-05-01T16:18:28.001Z</time></trkpt><trkpt lat="43.90774655522622" lon="12.116822270697925"><ele>254.33333333333334</ele><time>2026-05-01T16:18:29.001Z</time></trkpt><trkpt lat="43.907637498750084" lon="12.116596401578537"><ele>257.0</ele><time>2026-05-01T16:18:30.001Z</time></trkpt><trkpt lat="43.90752454898243" lon="12.116365287386909"><ele>257.6666666666667</ele><time>2026-05-01T16:18:31.001Z</time></trkpt><trkpt lat="43.90740893289927" lon="12.116128768803096"><ele>258.3333333333333</ele><time>2026-05-01T16:18:32.001Z</time></trkpt><trkpt lat="43.90730057465954" lon="12.115900369353529"><ele>259.0</ele><time>2026-05-01T16:18:33.001Z</time></trkpt><trkpt lat="43.9071950959372" lon="12.115680063237171"><ele>261.0</ele><time>2026-05-01T16:18:34.001Z</time></trkpt><trkpt lat="43.90708788330811" lon="12.115459424766733"><ele>263.0</ele><time>2026-05-01T16:18:35.001Z</time></trkpt><trkpt lat="43.90697826316184" lon="12.115238937254121"><ele>265.0</ele><time>2026-05-01T16:18:36.001Z</time></trkpt><trkpt lat="43.90686306515393" lon="12.115017375087806"><ele>263.0</ele><time>2026-05-01T16:18:37.001Z</time></trkpt><trkpt lat="43.90673684879828" lon="12.114804976121189"><ele>261.0</ele><time>2026-05-01T16:18:38.001Z</time></trkpt><trkpt lat="43.90660658209744" lon="12.114596182871392"><ele>259.0</ele><time>2026-05-01T16:18:39.001Z</time></trkpt><trkpt lat="43.906469059151696" lon="12.11439058820243"><ele>259.0</ele><time>2026-05-01T16:18:40.001Z</time></trkpt><trkpt lat="43.90632926317342" lon="12.114191705511244"><ele>259.0</ele><time>2026-05-01T16:18:41.001Z</time></trkpt><trkpt lat="43.90618142131555" lon="12.11399472742128"><ele>259.0</ele><time>2026-05-01T16:18:42.001Z</time></trkpt><trkpt lat="43.90603371656677" lon="12.11380731001396"><ele>260.3333333333333</ele><time>2026-05-01T16:18:43.001Z</time></trkpt><trkpt lat="43.90588145145859" lon="12.113633410096146"><ele>261.6666666666667</ele><time>2026-05-01T16:18:44.001Z</time></trkpt><trkpt lat="43.90572693487888" lon="12.113465866195021"><ele>263.0</ele><time>2026-05-01T16:18:45Z</time></trkpt><trkpt lat="43.905568308899696" lon="12.113297605196253"><ele>267.0</ele><time>2026-05-01T16:18:46Z</time></trkpt><trkpt lat="43.905403154219904" lon="12.11312641639917"><ele>271.0</ele><time>2026-05-01T16:18:47Z</time></trkpt><trkpt lat="43.90524174437182" lon="12.112953223808928"><ele>275.0</ele><time>2026-05-01T16:18:48Z</time></trkpt><trkpt lat="43.905076539366775" lon="12.112779771466652"><ele>275.0</ele><time>2026-05-01T16:18:49Z</time></trkpt><trkpt lat="43.90491240860431" lon="12.112606406389878"><ele>275.0</ele><time>2026-05-01T16:18:50Z</time></trkpt><trkpt lat="43.90474651541878" lon="12.112434363486452"><ele>275.0</ele><time>2026-05-01T16:18:51Z</time></trkpt><trkpt lat="43.90458043633908" lon="12.112262737405878"><ele>280.6666666666667</ele><time>2026-05-01T16:18:52Z</time></trkpt><trkpt lat="43.90441313581265" lon="12.112093350729866"><ele>286.3333333333333</ele><time>2026-05-01T16:18:53Z</time></trkpt><trkpt lat="43.904245922518086" lon="12.111924339097811"><ele>292.0</ele><time>2026-05-01T16:18:54Z</time></trkpt><trkpt lat="43.904076332142324" lon="12.111751942537595"><ele>292.0</ele><time>2026-05-01T16:18:55.02Z</time></trkpt><trkpt lat="43.90390945553155" lon="12.111578850432284"><ele>292.0</ele><time>2026-05-01T16:18:56.02Z</time></trkpt><trkpt lat="43.90374151713116" lon="12.111408994182627"><ele>292.0</ele><time>2026-05-01T16:18:57.022Z</time></trkpt><trkpt lat="43.90357352357677" lon="12.11123970699542"><ele>293.0</ele><time>2026-05-01T16:18:58.021Z</time></trkpt><trkpt lat="43.90340087283187" lon="12.111065996828465"><ele>294.0</ele><time>2026-05-01T16:18:59.022Z</time></trkpt><trkpt lat="43.90323886624204" lon="12.110885572385653"><ele>295.0</ele><time>2026-05-01T16:19:00.022Z</time></trkpt><trkpt lat="43.9030744034104" lon="12.110697005742896"><ele>280.0</ele><time>2026-05-01T16:19:01.017Z</time></trkpt><trkpt lat="43.9021460758931" lon="12.109133675705742"><ele>275.0</ele><time>2026-05-01T16:19:08Z</time></trkpt><trkpt lat="43.90202459768144" lon="12.10889820470244"><ele>270.0</ele><time>2026-05-01T16:19:09Z</time></trkpt><trkpt lat="43.901906700484155" lon="12.108645121595979"><ele>265.0</ele><time>2026-05-01T16:19:10Z</time></trkpt><trkpt lat="43.9017960981845" lon="12.108396130511194"><ele>271.3333333333333</ele><time>2026-05-01T16:19:11Z</time></trkpt><trkpt lat="43.90169493215977" lon="12.108136511542098"><ele>277.6666666666667</ele><time>2026-05-01T16:19:12Z</time></trkpt><trkpt lat="43.90159419185014" lon="12.107883248211603"><ele>284.0</ele><time>2026-05-01T16:19:13Z</time></trkpt><trkpt lat="43.90149584637158" lon="12.107618328308098"><ele>288.33333333333337</ele><time>2026-05-01T16:19:14Z</time></trkpt><trkpt lat="43.901412924788616" lon="12.10735061049175"><ele>292.6666666666667</ele><time>2026-05-01T16:19:15Z</time></trkpt><trkpt lat="43.90133701442714" lon="12.10707159938681"><ele>297.0</ele><time>2026-05-01T16:19:16Z</time></trkpt><trkpt lat="43.90126315890494" lon="12.106810281229658"><ele>298.3333333333333</ele><time>2026-05-01T16:19:17Z</time></trkpt><trkpt lat="43.901188635366466" lon="12.106543503728957"><ele>299.66666666666663</ele><time>2026-05-01T16:19:18Z</time></trkpt><trkpt lat="43.90111980706453" lon="12.106269674464752"><ele>301.0</ele><time>2026-05-01T16:19:19Z</time></trkpt><trkpt lat="43.901066155244656" lon="12.105989574670454"><ele>302.3333333333333</ele><time>2026-05-01T16:19:20Z</time></trkpt><trkpt lat="43.90102047230622" lon="12.105699181287969"><ele>303.6666666666667</ele><time>2026-05-01T16:19:21Z</time></trkpt><trkpt lat="43.900983466722494" lon="12.105413352362449"><ele>305.0</ele><time>2026-05-01T16:19:22Z</time></trkpt><trkpt lat="43.90094138818395" lon="12.105125532752535"><ele>302.6666666666667</ele><time>2026-05-01T16:19:23Z</time></trkpt><trkpt lat="43.9008985029215" lon="12.104840103776006"><ele>300.3333333333333</ele><time>2026-05-01T16:19:24Z</time></trkpt><trkpt lat="43.90085670237695" lon="12.104551931096065"><ele>298.0</ele><time>2026-05-01T16:19:25Z</time></trkpt><trkpt lat="43.90081662437356" lon="12.104262874714077"><ele>300.0</ele><time>2026-05-01T16:19:26Z</time></trkpt><trkpt lat="43.90077925848026" lon="12.103971129258912"><ele>302.0</ele><time>2026-05-01T16:19:27Z</time></trkpt><trkpt lat="43.90074447826559" lon="12.103680470190646"><ele>304.0</ele><time>2026-05-01T16:19:28Z</time></trkpt><trkpt lat="43.900711734623734" lon="12.103387422342042"><ele>301.66666666666663</ele><time>2026-05-01T16:19:29Z</time></trkpt><trkpt lat="43.900683647960435" lon="12.103089852688074"><ele>299.3333333333333</ele><time>2026-05-01T16:19:30Z</time></trkpt><trkpt lat="43.900648793969076" lon="12.102811383201825"><ele>297.0</ele><time>2026-05-01T16:19:31Z</time></trkpt><trkpt lat="43.90061421201974" lon="12.102517705653364"><ele>294.3333333333333</ele><time>2026-05-01T16:19:32Z</time></trkpt><trkpt lat="43.90050919419807" lon="12.10222640517346"><ele>291.66666666666663</ele><time>2026-05-01T16:19:33Z</time></trkpt><trkpt lat="43.90046900786638" lon="12.1019680934339"><ele>289.0</ele><time>2026-05-01T16:19:34Z</time></trkpt><trkpt lat="43.900445282508414" lon="12.101659279942659"><ele>296.0</ele><time>2026-05-01T16:19:35Z</time></trkpt><trkpt lat="43.900396979889145" lon="12.1013955586165"><ele>303.0</ele><time>2026-05-01T16:19:36Z</time></trkpt><trkpt lat="43.90036640878743" lon="12.101105246162"><ele>310.0</ele><time>2026-05-01T16:19:37Z</time></trkpt><trkpt lat="43.90035819694404" lon="12.100793654765429"><ele>314.66666666666663</ele><time>2026-05-01T16:19:38Z</time></trkpt><trkpt lat="43.900247509721396" lon="12.100543815560435"><ele>319.3333333333333</ele><time>2026-05-01T16:19:39Z</time></trkpt><trkpt lat="43.90020709135942" lon="12.100243788061055"><ele>324.0</ele><time>2026-05-01T16:19:40.019Z</time></trkpt><trkpt lat="43.900167911462205" lon="12.09994838868422"><ele>324.6666666666667</ele><time>2026-05-01T16:19:41.019Z</time></trkpt><trkpt lat="43.90012830499474" lon="12.099653678352638"><ele>325.33333333333337</ele><time>2026-05-01T16:19:42.019Z</time></trkpt><trkpt lat="43.90008857913446" lon="12.099356360345745"><ele>326.0</ele><time>2026-05-01T16:19:43.027Z</time></trkpt><trkpt lat="43.89049862515544" lon="12.074574334558168"><ele>325.33333333333337</ele><time>2026-05-01T16:21:30.001Z</time></trkpt><trkpt lat="43.890331946428" lon="12.074397790605367"><ele>324.6666666666667</ele><time>2026-05-01T16:21:31.001Z</time></trkpt><trkpt lat="43.89016821575859" lon="12.0742072137902"><ele>324.0</ele><time>2026-05-01T16:21:32.001Z</time></trkpt><trkpt lat="43.89002624327574" lon="12.074003612569378"><ele>324.0</ele><time>2026-05-01T16:21:33.001Z</time></trkpt><trkpt lat="43.889893581941884" lon="12.07377926682268"><ele>324.0</ele><time>2026-05-01T16:21:34.001Z</time></trkpt><trkpt lat="43.88976333745746" lon="12.073543222218174"><ele>324.0</ele><time>2026-05-01T16:21:35.001Z</time></trkpt><trkpt lat="43.88964411010784" lon="12.073298661919695"><ele>325.3333333333333</ele><time>2026-05-01T16:21:36.001Z</time></trkpt><trkpt lat="43.88954453387762" lon="12.073047102442029"><ele>326.66666666666663</ele><time>2026-05-01T16:21:37.001Z</time></trkpt><trkpt lat="43.8894439190009" lon="12.072793215964642"><ele>328.0</ele><time>2026-05-01T16:21:38.001Z</time></trkpt><trkpt lat="43.88934984961418" lon="12.072522279157635"><ele>330.0</ele><time>2026-05-01T16:21:39.001Z</time></trkpt><trkpt lat="43.88926596719771" lon="12.072258457454526"><ele>332.0</ele><time>2026-05-01T16:21:40.001Z</time></trkpt><trkpt lat="43.88919644770242" lon="12.071979495335214"><ele>334.0</ele><time>2026-05-01T16:21:41Z</time></trkpt><trkpt lat="43.88913202964476" lon="12.07169154560553"><ele>329.66666666666663</ele><time>2026-05-01T16:21:42Z</time></trkpt><trkpt lat="43.88907601413933" lon="12.071394914611746"><ele>325.3333333333333</ele><time>2026-05-01T16:21:43Z</time></trkpt><trkpt lat="43.88902234033106" lon="12.071093332707468"><ele>321.0</ele><time>2026-05-01T16:21:44Z</time></trkpt><trkpt lat="43.888974334566484" lon="12.070793032426975"><ele>324.0</ele><time>2026-05-01T16:21:45Z</time></trkpt><trkpt lat="43.888926499386926" lon="12.070484095686655"><ele>327.0</ele><time>2026-05-01T16:21:46Z</time></trkpt><trkpt lat="43.888876701023094" lon="12.070158531971213"><ele>330.0</ele><time>2026-05-01T16:21:47Z</time></trkpt><trkpt lat="43.888825655988654" lon="12.069830311010646"><ele>333.0</ele><time>2026-05-01T16:21:48Z</time></trkpt><trkpt lat="43.88877688810155" lon="12.069500532630068"><ele>333.0</ele><time>2026-05-01T16:21:49Z</time></trkpt><trkpt lat="43.88872909862661" lon="12.069167579316806"><ele>333.0</ele><time>2026-05-01T16:21:50Z</time></trkpt><trkpt lat="43.88868693356358" lon="12.06883599471328"><ele>332.0</ele><time>2026-05-01T16:21:51Z</time></trkpt><trkpt lat="43.888655554174214" lon="12.068500431456796"><ele>331.0</ele><time>2026-05-01T16:21:52Z</time></trkpt><trkpt lat="43.88863032431888" lon="12.068167226351562"><ele>334.0</ele><time>2026-05-01T16:21:53Z</time></trkpt><trkpt lat="43.88860678763814" lon="12.06783646858198"><ele>337.0</ele><time>2026-05-01T16:21:54Z</time></trkpt><trkpt lat="43.888588405564946" lon="12.067505868940277"><ele>336.5</ele><time>2026-05-01T16:21:55Z</time></trkpt><trkpt lat="43.88856993030679" lon="12.067172180814827"><ele>336.0</ele><time>2026-05-01T16:21:56Z</time></trkpt><trkpt lat="43.88855580128573" lon="12.066839019801797"><ele>337.5</ele><time>2026-05-01T16:21:57Z</time></trkpt><trkpt lat="43.88854672734289" lon="12.066505426916825"><ele>339.0</ele><time>2026-05-01T16:21:58Z</time></trkpt><trkpt lat="43.88854372845131" lon="12.066170786960853"><ele>339.0</ele><time>2026-05-01T16:21:59Z</time></trkpt><trkpt lat="43.88854074968376" lon="12.065834713384625"><ele>339.0</ele><time>2026-05-01T16:22:00Z</time></trkpt><trkpt lat="43.888543218938445" lon="12.065500332792396"><ele>338.5</ele><time>2026-05-01T16:22:01Z</time></trkpt><trkpt lat="43.8885564647433" lon="12.065166870033453"><ele>338.0</ele><time>2026-05-01T16:22:02Z</time></trkpt><trkpt lat="43.888576261288655" lon="12.064836515402726"><ele>337.0</ele><time>2026-05-01T16:22:03Z</time></trkpt><trkpt lat="43.888594835046845" lon="12.064506854014901"><ele>336.0</ele><time>2026-05-01T16:22:04Z</time></trkpt><trkpt lat="43.888619563427945" lon="12.064182346354245"><ele>337.5</ele><time>2026-05-01T16:22:05Z</time></trkpt><trkpt lat="43.8886373270217" lon="12.06384587963982"><ele>339.0</ele><time>2026-05-01T16:22:06Z</time></trkpt><trkpt lat="43.88865449069656" lon="12.063510113398607"><ele>338.0</ele><time>2026-05-01T16:22:07Z</time></trkpt><trkpt lat="43.8886742203889" lon="12.063178092038124"><ele>337.0</ele><time>2026-05-01T16:22:08Z</time></trkpt><trkpt lat="43.888696718476616" lon="12.0628469626926"><ele>337.0</ele><time>2026-05-01T16:22:09Z</time></trkpt><trkpt lat="43.88872038626603" lon="12.062513335193637"><ele>337.0</ele><time>2026-05-01T16:22:10Z</time></trkpt><trkpt lat="43.88874464847823" lon="12.062181442354351"><ele>334.5</ele><time>2026-05-01T16:22:11Z</time></trkpt><trkpt lat="43.888762303474934" lon="12.061848014531314"><ele>332.0</ele><time>2026-05-01T16:22:12Z</time></trkpt><trkpt lat="43.888781889179114" lon="12.061514777215129"><ele>328.5</ele><time>2026-05-01T16:22:13Z</time></trkpt><trkpt lat="43.88879891304533" lon="12.061181799558245"><ele>325.0</ele><time>2026-05-01T16:22:14Z</time></trkpt><trkpt lat="43.888820951927826" lon="12.06085119667903"><ele>323.5</ele><time>2026-05-01T16:22:15Z</time></trkpt><trkpt lat="43.888842747600826" lon="12.060519450926856"><ele>322.0</ele><time>2026-05-01T16:22:16Z</time></trkpt><trkpt lat="43.88886895418678" lon="12.060191604779325"><ele>321.5</ele><time>2026-05-01T16:22:17Z</time></trkpt><trkpt lat="43.88889392833954" lon="12.059861462947227"><ele>321.0</ele><time>2026-05-01T16:22:18Z</time></trkpt><trkpt lat="43.888914574101655" lon="12.059527536502445"><ele>321.0</ele><time>2026-05-01T16:22:19Z</time></trkpt><trkpt lat="43.88893317009352" lon="12.05919647157799"><ele>321.0</ele><time>2026-05-01T16:22:20Z</time></trkpt><trkpt lat="43.88895356721734" lon="12.058863971092194"><ele>320.5</ele><time>2026-05-01T16:22:21Z</time></trkpt><trkpt lat="43.88897499771465" lon="12.058530621100749"><ele>320.0</ele><time>2026-05-01T16:22:22Z</time></trkpt><trkpt lat="43.888995037161514" lon="12.058198638555648"><ele>321.5</ele><time>2026-05-01T16:22:23Z</time></trkpt><trkpt lat="43.889016458611586" lon="12.057867325890355"><ele>323.0</ele><time>2026-05-01T16:22:24Z</time></trkpt><trkpt lat="43.88903869851121" lon="12.057536023240926"><ele>323.0</ele><time>2026-05-01T16:22:25Z</time></trkpt><trkpt lat="43.88905865221201" lon="12.057205987476658"><ele>323.0</ele><time>2026-05-01T16:22:26Z</time></trkpt><trkpt lat="43.8890792921233" lon="12.056875252717333"><ele>322.5</ele><time>2026-05-01T16:22:27Z</time></trkpt><trkpt lat="43.889100514660115" lon="12.056541635890579"><ele>322.0</ele><time>2026-05-01T16:22:28Z</time></trkpt><trkpt lat="43.88912134171617" lon="12.05620940704168"><ele>322.0</ele><time>2026-05-01T16:22:29Z</time></trkpt><trkpt lat="43.889145112131" lon="12.055882319608436"><ele>322.0</ele><time>2026-05-01T16:22:30Z</time></trkpt><trkpt lat="43.88917158169683" lon="12.05555718870416"><ele>323.0</ele><time>2026-05-01T16:22:31Z</time></trkpt><trkpt lat="43.889201834818614" lon="12.055229633166507"><ele>324.0</ele><time>2026-05-01T16:22:32Z</time></trkpt><trkpt lat="43.889235702792725" lon="12.054899360998338"><ele>333.0</ele><time>2026-05-01T16:22:33Z</time></trkpt><trkpt lat="43.889277440376546" lon="12.054570203153624"><ele>342.0</ele><time>2026-05-01T16:22:34Z</time></trkpt><trkpt lat="43.8893228537344" lon="12.05424248001144"><ele>338.5</ele><time>2026-05-01T16:22:35Z</time></trkpt><trkpt lat="43.88937658865657" lon="12.053917675635851"><ele>335.0</ele><time>2026-05-01T16:22:36Z</time></trkpt><trkpt lat="43.88943663864723" lon="12.053592612317557"><ele>332.0</ele><time>2026-05-01T16:22:37Z</time></trkpt><trkpt lat="43.88950110033679" lon="12.053268559979372"><ele>329.0</ele><time>2026-05-01T16:22:38Z</time></trkpt><trkpt lat="43.88956492139605" lon="12.05294805319745"><ele>329.0</ele><time>2026-05-01T16:22:39Z</time></trkpt><trkpt lat="43.889635541067314" lon="12.052631874437036"><ele>329.0</ele><time>2026-05-01T16:22:40Z</time></trkpt><trkpt lat="43.889712805800805" lon="12.052318930845196"><ele>329.0</ele><time>2026-05-01T16:22:41Z</time></trkpt><trkpt lat="43.88979337958506" lon="12.052000525899848"><ele>329.0</ele><time>2026-05-01T16:22:42Z</time></trkpt><trkpt lat="43.88987898830475" lon="12.05169343036429"><ele>330.5</ele><time>2026-05-01T16:22:43Z</time></trkpt><trkpt lat="43.88996994374901" lon="12.051389754366522"><ele>332.0</ele><time>2026-05-01T16:22:44Z</time></trkpt><trkpt lat="43.89006427259381" lon="12.051080276800368"><ele>337.0</ele><time>2026-05-01T16:22:45Z</time></trkpt><trkpt lat="43.89016304375604" lon="12.050777580046796"><ele>342.0</ele><time>2026-05-01T16:22:46Z</time></trkpt><trkpt lat="43.89026437000636" lon="12.050471867044614"><ele>342.0</ele><time>2026-05-01T16:22:47.001Z</time></trkpt><trkpt lat="43.890366873733434" lon="12.050167991346113"><ele>342.0</ele><time>2026-05-01T16:22:48.001Z</time></trkpt><trkpt lat="43.890469520369436" lon="12.049863681765794"><ele>338.0</ele><time>2026-05-01T16:22:49.001Z</time></trkpt><trkpt lat="43.890567563143485" lon="12.049561329810606"><ele>334.0</ele><time>2026-05-01T16:22:50.001Z</time></trkpt><trkpt lat="43.890669344150965" lon="12.04925617901537"><ele>331.0</ele><time>2026-05-01T16:22:51.001Z</time></trkpt><trkpt lat="43.89076725507529" lon="12.048943035160846"><ele>328.0</ele><time>2026-05-01T16:22:52.001Z</time></trkpt><trkpt lat="43.89085669004364" lon="12.048635713506616"><ele>332.0</ele><time>2026-05-01T16:22:53.001Z</time></trkpt><trkpt lat="43.890937555565635" lon="12.048330299361346"><ele>336.0</ele><time>2026-05-01T16:22:54.001Z</time></trkpt><trkpt lat="43.89101587746357" lon="12.048015826461603"><ele>336.0</ele><time>2026-05-01T16:22:55.001Z</time></trkpt><trkpt lat="43.89108571420735" lon="12.047698377397783"><ele>336.0</ele><time>2026-05-01T16:22:56.001Z</time></trkpt><trkpt lat="43.89116689967586" lon="12.04738517808708"><ele>330.0</ele><time>2026-05-01T16:22:57.001Z</time></trkpt><trkpt lat="43.89122257097184" lon="12.047064144677977"><ele>324.0</ele><time>2026-05-01T16:22:58.001Z</time></trkpt><trkpt lat="43.891267560495386" lon="12.046732890143081"><ele>325.0</ele><time>2026-05-01T16:22:59.001Z</time></trkpt><trkpt lat="43.89130140853288" lon="12.046407251584673"><ele>326.0</ele><time>2026-05-01T16:23:00.001Z</time></trkpt><trkpt lat="43.89132516233303" lon="12.046076080872334"><ele>328.0</ele><time>2026-05-01T16:23:01.001Z</time></trkpt><trkpt lat="43.89133673181025" lon="12.045743080000525"><ele>330.0</ele><time>2026-05-01T16:23:02.001Z</time></trkpt><trkpt lat="43.891343616061626" lon="12.045416437777158"><ele>330.0</ele><time>2026-05-01T16:23:03.001Z</time></trkpt><trkpt lat="43.89133857402761" lon="12.045081339673448"><ele>330.0</ele><time>2026-05-01T16:23:04.001Z</time></trkpt><trkpt lat="43.89132826850932" lon="12.044749212932146"><ele>330.0</ele><time>2026-05-01T16:23:05.001Z</time></trkpt><trkpt lat="43.89130643275957" lon="12.04441820948464"><ele>330.0</ele><time>2026-05-01T16:23:06.001Z</time></trkpt><trkpt lat="43.89127442409565" lon="12.044085124660466"><ele>338.0</ele><time>2026-05-01T16:23:07.001Z</time></trkpt><trkpt lat="43.89122954112883" lon="12.043758053324876"><ele>346.0</ele><time>2026-05-01T16:23:08.001Z</time></trkpt><trkpt lat="43.891176676320995" lon="12.043431432939917"><ele>353.5</ele><time>2026-05-01T16:23:09.001Z</time></trkpt><trkpt lat="43.891120629952326" lon="12.043108328826213"><ele>361.0</ele><time>2026-05-01T16:23:10.001Z</time></trkpt><trkpt lat="43.8910557427001" lon="12.042787299576604"><ele>361.0</ele><time>2026-05-01T16:23:11.001Z</time></trkpt><trkpt lat="43.89098201965785" lon="12.042475547741192"><ele>361.0</ele><time>2026-05-01T16:23:12.001Z</time></trkpt><trkpt lat="43.89090717333661" lon="12.04216356021494"><ele>347.0</ele><time>2026-05-01T16:23:13.001Z</time></trkpt><trkpt lat="43.890820014407396" lon="12.041845701819122"><ele>333.0</ele><time>2026-05-01T16:23:14.001Z</time></trkpt><trkpt lat="43.89073140354233" lon="12.041539161762836"><ele>333.0</ele><time>2026-05-01T16:23:15.001Z</time></trkpt><trkpt lat="43.89063666884361" lon="12.041224938438736"><ele>333.0</ele><time>2026-05-01T16:23:16.001Z</time></trkpt><trkpt lat="43.89053855277379" lon="12.04091143698577"><ele>341.0</ele><time>2026-05-01T16:23:17.001Z</time></trkpt><trkpt lat="43.89044148663991" lon="12.040595996908811"><ele>349.0</ele><time>2026-05-01T16:23:18.001Z</time></trkpt><trkpt lat="43.890350118610506" lon="12.040283453247412"><ele>349.0</ele><time>2026-05-01T16:23:19.001Z</time></trkpt><trkpt lat="43.89026060397411" lon="12.039977306748552"><ele>349.0</ele><time>2026-05-01T16:23:20.001Z</time></trkpt><trkpt lat="43.89016569843189" lon="12.039663622944937"><ele>345.0</ele><time>2026-05-01T16:23:21.001Z</time></trkpt><trkpt lat="43.89007351869709" lon="12.039345925210306"><ele>341.0</ele><time>2026-05-01T16:23:22.001Z</time></trkpt><trkpt lat="43.88998693608536" lon="12.039034176670416"><ele>341.0</ele><time>2026-05-01T16:23:23.001Z</time></trkpt><trkpt lat="43.88990189409041" lon="12.038726106736721"><ele>341.0</ele><time>2026-05-01T16:23:24.001Z</time></trkpt><trkpt lat="43.88981150029637" lon="12.038412665067861"><ele>344.0</ele><time>2026-05-01T16:23:25.001Z</time></trkpt><trkpt lat="43.889726210735674" lon="12.03809777518444"><ele>347.0</ele><time>2026-05-01T16:23:26.001Z</time></trkpt><trkpt lat="43.88963772748686" lon="12.03778667285046"><ele>347.0</ele><time>2026-05-01T16:23:27.001Z</time></trkpt><trkpt lat="43.889539152624515" lon="12.037481902602572"><ele>347.0</ele><time>2026-05-01T16:23:28.001Z</time></trkpt><trkpt lat="43.88944618870595" lon="12.037173642706952"><ele>352.0</ele><time>2026-05-01T16:23:29.001Z</time></trkpt><trkpt lat="43.88935668172236" lon="12.036858663068697"><ele>357.0</ele><time>2026-05-01T16:23:30.001Z</time></trkpt><trkpt lat="43.88926584117216" lon="12.036528184282208"><ele>350.5</ele><time>2026-05-01T16:23:31.001Z</time></trkpt><trkpt lat="43.88917278426866" lon="12.036179040463022"><ele>344.0</ele><time>2026-05-01T16:23:32.001Z</time></trkpt><trkpt lat="43.88907472743212" lon="12.03582854312871"><ele>347.0</ele><time>2026-05-01T16:23:33.001Z</time></trkpt><trkpt lat="43.88897640796999" lon="12.035492379849696"><ele>350.0</ele><time>2026-05-01T16:23:34.001Z</time></trkpt><trkpt lat="43.88887594485294" lon="12.03515886611799"><ele>348.5</ele><time>2026-05-01T16:23:35.001Z</time></trkpt><trkpt lat="43.88876581432335" lon="12.034827403924542"><ele>347.0</ele><time>2026-05-01T16:23:36.001Z</time></trkpt><trkpt lat="43.88865983400821" lon="12.034485417581864"><ele>347.0</ele><time>2026-05-01T16:23:37.001Z</time></trkpt><trkpt lat="43.888563131665194" lon="12.03413847418357"><ele>347.0</ele><time>2026-05-01T16:23:38.001Z</time></trkpt><trkpt lat="43.88847396585483" lon="12.033804470776865"><ele>345.5</ele><time>2026-05-01T16:23:39.001Z</time></trkpt><trkpt lat="43.888376610680645" lon="12.033468574419132"><ele>344.0</ele><time>2026-05-01T16:23:40.001Z</time></trkpt><trkpt lat="43.88827365943215" lon="12.033119070958591"><ele>348.0</ele><time>2026-05-01T16:23:41.001Z</time></trkpt><trkpt lat="43.88817175922216" lon="12.032771847299006"><ele>352.0</ele><time>2026-05-01T16:23:42Z</time></trkpt><trkpt lat="43.88807293944914" lon="12.032425921004469"><ele>356.0</ele><time>2026-05-01T16:23:43Z</time></trkpt><trkpt lat="43.887980657830596" lon="12.032089819741966"><ele>360.0</ele><time>2026-05-01T16:23:44Z</time></trkpt><trkpt lat="43.88788310792647" lon="12.031749473602044"><ele>365.5</ele><time>2026-05-01T16:23:45Z</time></trkpt><trkpt lat="43.88778214959311" lon="12.031407041534639"><ele>371.0</ele><time>2026-05-01T16:23:46Z</time></trkpt><trkpt lat="43.88767892129665" lon="12.031063141645797"><ele>365.5</ele><time>2026-05-01T16:23:47Z</time></trkpt><trkpt lat="43.887578697997185" lon="12.030723490796014"><ele>360.0</ele><time>2026-05-01T16:23:48Z</time></trkpt><trkpt lat="43.88748175805643" lon="12.030384053590844"><ele>360.0</ele><time>2026-05-01T16:23:49Z</time></trkpt><trkpt lat="43.88738291310831" lon="12.03004378843153"><ele>360.0</ele><time>2026-05-01T16:23:50Z</time></trkpt><trkpt lat="43.887282308236365" lon="12.029701834242399"><ele>366.5</ele><time>2026-05-01T16:23:51Z</time></trkpt><trkpt lat="43.88718240658866" lon="12.029352555032414"><ele>373.0</ele><time>2026-05-01T16:23:52Z</time></trkpt><trkpt lat="43.887086544397654" lon="12.029003331284036"><ele>378.0</ele><time>2026-05-01T16:23:53Z</time></trkpt><trkpt lat="43.88700509926565" lon="12.028652626336733"><ele>383.0</ele><time>2026-05-01T16:23:54Z</time></trkpt><trkpt lat="43.88694060013473" lon="12.02829398922404"><ele>384.0</ele><time>2026-05-01T16:23:55Z</time></trkpt><trkpt lat="43.88689559588787" lon="12.027930414062878"><ele>385.0</ele><time>2026-05-01T16:23:56Z</time></trkpt><trkpt lat="43.886866156904894" lon="12.027566782040797"><ele>378.5</ele><time>2026-05-01T16:23:57Z</time></trkpt><trkpt lat="43.88684599059523" lon="12.027200530703091"><ele>372.0</ele><time>2026-05-01T16:23:58Z</time></trkpt><trkpt lat="43.88682079269075" lon="12.026828767350311"><ele>371.0</ele><time>2026-05-01T16:23:59Z</time></trkpt><trkpt lat="43.88679294656659" lon="12.026461622710219"><ele>370.0</ele><time>2026-05-01T16:24:00Z</time></trkpt><trkpt lat="43.88676201123734" lon="12.0260927717302"><ele>358.5</ele><time>2026-05-01T16:24:01Z</time></trkpt><trkpt lat="43.88673647750026" lon="12.025724429138457"><ele>347.0</ele><time>2026-05-01T16:24:02Z</time></trkpt><trkpt lat="43.88670929503497" lon="12.025358288627864"><ele>347.0</ele><time>2026-05-01T16:24:03Z</time></trkpt><trkpt lat="43.88667153411143" lon="12.024996945078383"><ele>347.0</ele><time>2026-05-01T16:24:04Z</time></trkpt><trkpt lat="43.88661634355313" lon="12.024637131683544"><ele>349.0</ele><time>2026-05-01T16:24:05Z</time></trkpt><trkpt lat="43.886548798135145" lon="12.024286760345767"><ele>351.0</ele><time>2026-05-01T16:24:06Z</time></trkpt><trkpt lat="43.886469835535834" lon="12.023940702773075"><ele>352.5</ele><time>2026-05-01T16:24:07Z</time></trkpt><trkpt lat="43.886372934505125" lon="12.023601506326973"><ele>354.0</ele><time>2026-05-01T16:24:08Z</time></trkpt><trkpt lat="43.886267180316366" lon="12.023266676020029"><ele>354.5</ele><time>2026-05-01T16:24:09Z</time></trkpt><trkpt lat="43.886147841931525" lon="12.022942652601312"><ele>355.0</ele><time>2026-05-01T16:24:10Z</time></trkpt><trkpt lat="43.88600879563939" lon="12.022631708609584"><ele>352.5</ele><time>2026-05-01T16:24:11Z</time></trkpt><trkpt lat="43.88585859916275" lon="12.02232727237562"><ele>350.0</ele><time>2026-05-01T16:24:12Z</time></trkpt><trkpt lat="43.88569563451005" lon="12.022036970891643"><ele>350.0</ele><time>2026-05-01T16:24:13Z</time></trkpt><trkpt lat="43.885519598901965" lon="12.02176140683956"><ele>350.0</ele><time>2026-05-01T16:24:14Z</time></trkpt><trkpt lat="43.88533384565664" lon="12.021496153983415"><ele>353.5</ele><time>2026-05-01T16:24:15Z</time></trkpt><trkpt lat="43.885135479857254" lon="12.021250877233905"><ele>357.0</ele><time>2026-05-01T16:24:16Z</time></trkpt><trkpt lat="43.884930217551684" lon="12.02101828250276"><ele>364.0</ele><time>2026-05-01T16:24:17Z</time></trkpt><trkpt lat="43.884715391005585" lon="12.020792887934778"><ele>371.0</ele><time>2026-05-01T16:24:18Z</time></trkpt><trkpt lat="43.884496866979035" lon="12.020581062211924"><ele>371.0</ele><time>2026-05-01T16:24:19Z</time></trkpt><trkpt lat="43.88427300845397" lon="12.020380827685923"><ele>371.0</ele><time>2026-05-01T16:24:20Z</time></trkpt><trkpt lat="43.884047409203234" lon="12.020178804781855"><ele>370.0</ele><time>2026-05-01T16:24:21Z</time></trkpt><trkpt lat="43.88382954475148" lon="12.019965210141853"><ele>369.0</ele><time>2026-05-01T16:24:22Z</time></trkpt><trkpt lat="43.88362239480625" lon="12.01973553910528"><ele>364.0</ele><time>2026-05-01T16:24:23Z</time></trkpt><trkpt lat="43.88342207879982" lon="12.019495494437798"><ele>359.0</ele><time>2026-05-01T16:24:24Z</time></trkpt><trkpt lat="43.883231959201346" lon="12.01923219870132"><ele>358.5</ele><time>2026-05-01T16:24:25Z</time></trkpt><trkpt lat="43.88305871045298" lon="12.01895625732995"><ele>358.0</ele><time>2026-05-01T16:24:26Z</time></trkpt><trkpt lat="43.882898975275545" lon="12.01866736535814"><ele>358.0</ele><time>2026-05-01T16:24:27Z</time></trkpt><trkpt lat="43.88275482779327" lon="12.018361302702122"><ele>358.0</ele><time>2026-05-01T16:24:28Z</time></trkpt><trkpt lat="43.88262495041033" lon="12.018044814662836"><ele>357.5</ele><time>2026-05-01T16:24:29Z</time></trkpt><trkpt lat="43.882508168171476" lon="12.01771840985827"><ele>357.0</ele><time>2026-05-01T16:24:30Z</time></trkpt><trkpt lat="43.88240630358464" lon="12.017379993242626"><ele>357.0</ele><time>2026-05-01T16:24:31Z</time></trkpt><trkpt lat="43.882321912558254" lon="12.017033890823425"><ele>357.0</ele><time>2026-05-01T16:24:32Z</time></trkpt><trkpt lat="43.88225833734389" lon="12.01667833318388"><ele>356.5</ele><time>2026-05-01T16:24:33Z</time></trkpt><trkpt lat="43.88220738790952" lon="12.016317410599749"><ele>356.0</ele><time>2026-05-01T16:24:34Z</time></trkpt><trkpt lat="43.88218339379623" lon="12.015953121671217"><ele>358.5</ele><time>2026-05-01T16:24:35Z</time></trkpt><trkpt lat="43.88216221130591" lon="12.015582651805765"><ele>361.0</ele><time>2026-05-01T16:24:36Z</time></trkpt><trkpt lat="43.88215335077758" lon="12.015216849822009"><ele>364.0</ele><time>2026-05-01T16:24:37Z</time></trkpt><trkpt lat="43.88214461221351" lon="12.01484966817909"><ele>367.0</ele><time>2026-05-01T16:24:38Z</time></trkpt><trkpt lat="43.88213580533044" lon="12.014476903869213"><ele>367.0</ele><time>2026-05-01T16:24:39Z</time></trkpt><trkpt lat="43.88212736716968" lon="12.014103303622703"><ele>367.0</ele><time>2026-05-01T16:24:40Z</time></trkpt><trkpt lat="43.882116810527435" lon="12.013733174387953"><ele>367.0</ele><time>2026-05-01T16:24:41Z</time></trkpt><trkpt lat="43.88210468978644" lon="12.013361227552613"><ele>367.0</ele><time>2026-05-01T16:24:42Z</time></trkpt><trkpt lat="43.88209302081858" lon="12.01299106920067"><ele>366.5</ele><time>2026-05-01T16:24:43Z</time></trkpt><trkpt lat="43.88208605552008" lon="12.012620805635732"><ele>366.0</ele><time>2026-05-01T16:24:44Z</time></trkpt><trkpt lat="43.88208041301741" lon="12.012251912045103"><ele>364.5</ele><time>2026-05-01T16:24:45Z</time></trkpt><trkpt lat="43.882073835156206" lon="12.011881823437038"><ele>363.0</ele><time>2026-05-01T16:24:46Z</time></trkpt><trkpt lat="43.88206758443545" lon="12.011512328539343"><ele>363.0</ele><time>2026-05-01T16:24:47Z</time></trkpt><trkpt lat="43.882054390711225" lon="12.01114882651672"><ele>363.0</ele><time>2026-05-01T16:24:48Z</time></trkpt><trkpt lat="43.88204454773329" lon="12.010775084519416"><ele>363.5</ele><time>2026-05-01T16:24:49Z</time></trkpt><trkpt lat="43.882036768387565" lon="12.010407667230481"><ele>364.0</ele><time>2026-05-01T16:24:50Z</time></trkpt><trkpt lat="43.8820276665419" lon="12.010041816144849"><ele>365.0</ele><time>2026-05-01T16:24:51Z</time></trkpt><trkpt lat="43.88201674695915" lon="12.009673162404958"><ele>366.0</ele><time>2026-05-01T16:24:52Z</time></trkpt><trkpt lat="43.88200736471578" lon="12.00930452742783"><ele>367.0</ele><time>2026-05-01T16:24:53Z</time></trkpt><trkpt lat="43.881997234251095" lon="12.008937271443308"><ele>368.0</ele><time>2026-05-01T16:24:54Z</time></trkpt><trkpt lat="43.881988422607556" lon="12.00856967665807"><ele>371.0</ele><time>2026-05-01T16:24:55Z</time></trkpt><trkpt lat="43.881980319436906" lon="12.008201364932091"><ele>374.0</ele><time>2026-05-01T16:24:56Z</time></trkpt><trkpt lat="43.88197011897949" lon="12.007832487758314"><ele>376.0</ele><time>2026-05-01T16:24:57Z</time></trkpt><trkpt lat="43.88195980918125" lon="12.007463775676"><ele>378.0</ele><time>2026-05-01T16:24:58Z</time></trkpt><trkpt lat="43.881950893087875" lon="12.007095398448856"><ele>378.0</ele><time>2026-05-01T16:24:59Z</time></trkpt><trkpt lat="43.88194299066338" lon="12.00672599129606"><ele>378.0</ele><time>2026-05-01T16:25:00Z</time></trkpt><trkpt lat="43.881934343696614" lon="12.006358873358387"><ele>379.0</ele><time>2026-05-01T16:25:01Z</time></trkpt><trkpt lat="43.881924987916804" lon="12.005989881985766"><ele>380.0</ele><time>2026-05-01T16:25:02Z</time></trkpt><trkpt lat="43.88191585884059" lon="12.005620807350537"><ele>380.5</ele><time>2026-05-01T16:25:03Z</time></trkpt><trkpt lat="43.88190687130596" lon="12.005253374709525"><ele>381.0</ele><time>2026-05-01T16:25:04Z</time></trkpt><trkpt lat="43.88189570534278" lon="12.004889784557589"><ele>381.0</ele><time>2026-05-01T16:25:05Z</time></trkpt><trkpt lat="43.88188615294671" lon="12.004522903303203"><ele>381.0</ele><time>2026-05-01T16:25:06Z</time></trkpt><trkpt lat="43.88187503491182" lon="12.00415544423266"><ele>380.0</ele><time>2026-05-01T16:25:07Z</time></trkpt><trkpt lat="43.881865167568435" lon="12.003789737960304"><ele>379.0</ele><time>2026-05-01T16:25:08Z</time></trkpt><trkpt lat="43.881854866268995" lon="12.003422181780795"><ele>380.0</ele><time>2026-05-01T16:25:09Z</time></trkpt><trkpt lat="43.8818439642258" lon="12.003061573446148"><ele>381.0</ele><time>2026-05-01T16:25:10Z</time></trkpt><trkpt lat="43.88182830584776" lon="12.002700570867226"><ele>382.5</ele><time>2026-05-01T16:25:11Z</time></trkpt><trkpt lat="43.88180192743895" lon="12.002336045932118"><ele>384.0</ele><time>2026-05-01T16:25:12Z</time></trkpt><trkpt lat="43.88176936212849" lon="12.001978347179355"><ele>382.0</ele><time>2026-05-01T16:25:13Z</time></trkpt><trkpt lat="43.88172293707294" lon="12.001622867360727"><ele>380.0</ele><time>2026-05-01T16:25:14Z</time></trkpt><trkpt lat="43.881656366089004" lon="12.001270919166334"><ele>380.0</ele><time>2026-05-01T16:25:15Z</time></trkpt><trkpt lat="43.88157422098586" lon="12.000927923309185"><ele>380.0</ele><time>2026-05-01T16:25:16Z</time></trkpt><trkpt lat="43.881481084250105" lon="12.00059500098566"><ele>384.5</ele><time>2026-05-01T16:25:17Z</time></trkpt><trkpt lat="43.881375998188" lon="12.000273511605323"><ele>389.0</ele><time>2026-05-01T16:25:18Z</time></trkpt><trkpt lat="43.88125682423024" lon="11.999958566800455"><ele>389.0</ele><time>2026-05-01T16:25:19Z</time></trkpt><trkpt lat="43.8811274851426" lon="11.999654337239821"><ele>389.0</ele><time>2026-05-01T16:25:20Z</time></trkpt><trkpt lat="43.88098640898902" lon="11.999358414040165"><ele>386.5</ele><time>2026-05-01T16:25:21Z</time></trkpt><trkpt lat="43.88083232634585" lon="11.999080850315934"><ele>384.0</ele><time>2026-05-01T16:25:22Z</time></trkpt><trkpt lat="43.88066623043284" lon="11.998807652017645"><ele>384.0</ele><time>2026-05-01T16:25:23Z</time></trkpt><trkpt lat="43.88049066032963" lon="11.998544132566469"><ele>384.0</ele><time>2026-05-01T16:25:24Z</time></trkpt><trkpt lat="43.880303938320935" lon="11.998295295631294"><ele>386.5</ele><time>2026-05-01T16:25:25.001Z</time></trkpt><trkpt lat="43.88011465123719" lon="11.99804907697307"><ele>389.0</ele><time>2026-05-01T16:25:26.001Z</time></trkpt><trkpt lat="43.879922941581256" lon="11.997806979184782"><ele>391.0</ele><time>2026-05-01T16:25:27.001Z</time></trkpt><trkpt lat="43.87973098281672" lon="11.997566833810435"><ele>393.0</ele><time>2026-05-01T16:25:28.001Z</time></trkpt><trkpt lat="43.87954054741066" lon="11.997325252159346"><ele>397.0</ele><time>2026-05-01T16:25:29.001Z</time></trkpt><trkpt lat="43.879350816653556" lon="11.997084346698411"><ele>401.0</ele><time>2026-05-01T16:25:30.001Z</time></trkpt><trkpt lat="43.87916813519407" lon="11.996854050518655"><ele>407.0</ele><time>2026-05-01T16:25:31.001Z</time></trkpt><trkpt lat="43.87899410088406" lon="11.996634572315363"><ele>413.0</ele><time>2026-05-01T16:25:32.001Z</time></trkpt><trkpt lat="43.87882934624914" lon="11.996427795779505"><ele>413.0</ele><time>2026-05-01T16:25:33.001Z</time></trkpt><trkpt lat="43.87865778802118" lon="11.996206428827298"><ele>413.0</ele><time>2026-05-01T16:25:34.001Z</time></trkpt><trkpt lat="43.87849299300585" lon="11.995980340945342"><ele>414.5</ele><time>2026-05-01T16:25:35.001Z</time></trkpt><trkpt lat="43.87833153115901" lon="11.995759049234623"><ele>416.0</ele><time>2026-05-01T16:25:36.001Z</time></trkpt><trkpt lat="43.87817153700459" lon="11.995533380682133"><ele>416.0</ele><time>2026-05-01T16:25:37.001Z</time></trkpt><trkpt lat="43.87801192817746" lon="11.995307337387517"><ele>416.0</ele><time>2026-05-01T16:25:38.001Z</time></trkpt><trkpt lat="43.877854778615784" lon="11.995077991566594"><ele>415.0</ele><time>2026-05-01T16:25:39.001Z</time></trkpt><trkpt lat="43.87769375156287" lon="11.994845652487403"><ele>414.0</ele><time>2026-05-01T16:25:40.001Z</time></trkpt><trkpt lat="43.87753688385603" lon="11.99461202975747"><ele>414.0</ele><time>2026-05-01T16:25:41.001Z</time></trkpt><trkpt lat="43.877379492295226" lon="11.994370450355275"><ele>414.0</ele><time>2026-05-01T16:25:42.001Z</time></trkpt><trkpt lat="43.87722808082378" lon="11.99413197789241"><ele>421.0</ele><time>2026-05-01T16:25:43.001Z</time></trkpt><trkpt lat="43.87707398255799" lon="11.993888995189966"><ele>428.0</ele><time>2026-05-01T16:25:44.001Z</time></trkpt><trkpt lat="43.87692203309815" lon="11.993645716078994"><ele>428.0</ele><time>2026-05-01T16:25:45.001Z</time></trkpt><trkpt lat="43.87677012466878" lon="11.993398037669975"><ele>428.0</ele><time>2026-05-01T16:25:46.001Z</time></trkpt><trkpt lat="43.87661935119279" lon="11.993151353890514"><ele>423.5</ele><time>2026-05-01T16:25:47.001Z</time></trkpt><trkpt lat="43.876471036063144" lon="11.992898618795074"><ele>419.0</ele><time>2026-05-01T16:25:48Z</time></trkpt><trkpt lat="43.87632546903089" lon="11.992646824517522"><ele>429.0</ele><time>2026-05-01T16:25:49Z</time></trkpt><trkpt lat="43.876176260187705" lon="11.99239325042527"><ele>439.0</ele><time>2026-05-01T16:25:50Z</time></trkpt><trkpt lat="43.87603254433894" lon="11.992136371282065"><ele>433.5</ele><time>2026-05-01T16:25:51Z</time></trkpt><trkpt lat="43.87589409627568" lon="11.991879905421234"><ele>428.0</ele><time>2026-05-01T16:25:52Z</time></trkpt><trkpt lat="43.87575627705098" lon="11.991621278653183"><ele>428.0</ele><time>2026-05-01T16:25:53Z</time></trkpt><trkpt lat="43.875616979534584" lon="11.991361148096855"><ele>428.0</ele><time>2026-05-01T16:25:54Z</time></trkpt><trkpt lat="43.87547870788403" lon="11.991099963451607"><ele>436.0</ele><time>2026-05-01T16:25:55Z</time></trkpt><trkpt lat="43.87534601578338" lon="11.990837021676164"><ele>444.0</ele><time>2026-05-01T16:25:56Z</time></trkpt><trkpt lat="43.87521215452935" lon="11.990574125598606"><ele>434.5</ele><time>2026-05-01T16:25:57Z</time></trkpt><trkpt lat="43.87507661068307" lon="11.990310691525483"><ele>425.0</ele><time>2026-05-01T16:25:58Z</time></trkpt><trkpt lat="43.87494462052221" lon="11.990046708434177"><ele>434.0</ele><time>2026-05-01T16:25:59Z</time></trkpt><trkpt lat="43.874814264796626" lon="11.98977829654814"><ele>443.0</ele><time>2026-05-01T16:26:00Z</time></trkpt><trkpt lat="43.874690585294516" lon="11.989505970854141"><ele>443.0</ele><time>2026-05-01T16:26:01Z</time></trkpt><trkpt lat="43.87456909377907" lon="11.989233983715684"><ele>443.0</ele><time>2026-05-01T16:26:02Z</time></trkpt><trkpt lat="43.87444696510374" lon="11.988962020359034"><ele>439.5</ele><time>2026-05-01T16:26:03Z</time></trkpt><trkpt lat="43.87432267161212" lon="11.988680788674472"><ele>436.0</ele><time>2026-05-01T16:26:04Z</time></trkpt><trkpt lat="43.87420073745777" lon="11.988401825599576"><ele>442.5</ele><time>2026-05-01T16:26:05Z</time></trkpt><trkpt lat="43.87408257200206" lon="11.988121034368309"><ele>449.0</ele><time>2026-05-01T16:26:06Z</time></trkpt><trkpt lat="43.873962923563724" lon="11.987845074671538"><ele>449.0</ele><time>2026-05-01T16:26:07Z</time></trkpt><trkpt lat="43.8738408108656" lon="11.987570540312484"><ele>449.0</ele><time>2026-05-01T16:26:08Z</time></trkpt><trkpt lat="43.87371868499782" lon="11.987293450261461"><ele>453.0</ele><time>2026-05-01T16:26:09Z</time></trkpt><trkpt lat="43.87359428924025" lon="11.98701570511849"><ele>457.0</ele><time>2026-05-01T16:26:10Z</time></trkpt><trkpt lat="43.873470842077595" lon="11.986733418835659"><ele>447.0</ele><time>2026-05-01T16:26:11Z</time></trkpt><trkpt lat="43.873350663891486" lon="11.986454135233515"><ele>437.0</ele><time>2026-05-01T16:26:12Z</time></trkpt><trkpt lat="43.87323156008055" lon="11.986175571735657"><ele>437.0</ele><time>2026-05-01T16:26:13Z</time></trkpt><trkpt lat="43.87311199489286" lon="11.985897432472735"><ele>437.0</ele><time>2026-05-01T16:26:14Z</time></trkpt><trkpt lat="43.87298846661682" lon="11.985618370668904"><ele>445.0</ele><time>2026-05-01T16:26:15Z</time></trkpt><trkpt lat="43.87286598824202" lon="11.985340523702561"><ele>453.0</ele><time>2026-05-01T16:26:16Z</time></trkpt><trkpt lat="43.87274579825438" lon="11.985067810046234"><ele>449.5</ele><time>2026-05-01T16:26:17Z</time></trkpt><trkpt lat="43.872624054911554" lon="11.984791213042007"><ele>446.0</ele><time>2026-05-01T16:26:18Z</time></trkpt><trkpt lat="43.87250216990921" lon="11.984513595196738"><ele>446.0</ele><time>2026-05-01T16:26:19Z</time></trkpt><trkpt lat="43.872379902958265" lon="11.984236221436127"><ele>446.0</ele><time>2026-05-01T16:26:20Z</time></trkpt><trkpt lat="43.87225987973483" lon="11.983958649781778"><ele>453.5</ele><time>2026-05-01T16:26:21Z</time></trkpt><trkpt lat="43.872137346078645" lon="11.983681599251511"><ele>461.0</ele><time>2026-05-01T16:26:22Z</time></trkpt><trkpt lat="43.8720163973081" lon="11.983422752222454"><ele>465.3333333333333</ele><time>2026-05-01T16:26:23Z</time></trkpt><trkpt lat="43.87190057195711" lon="11.983173963616675"><ele>469.66666666666663</ele><time>2026-05-01T16:26:24Z</time></trkpt><trkpt lat="43.87179431808921" lon="11.982928194778196"><ele>474.0</ele><time>2026-05-01T16:26:25Z</time></trkpt><trkpt lat="43.871694663217255" lon="11.98269289798509"><ele>464.5</ele><time>2026-05-01T16:26:26Z</time></trkpt><trkpt lat="43.87160576451545" lon="11.982468164547836"><ele>455.0</ele><time>2026-05-01T16:26:27Z</time></trkpt><trkpt lat="43.87137376835966" lon="11.982142779823462"><ele>455.0</ele><time>2026-05-01T16:26:29Z</time></trkpt><trkpt lat="43.87122462405735" lon="11.981957962469385"><ele>455.0</ele><time>2026-05-01T16:26:30Z</time></trkpt><trkpt lat="43.87116414054987" lon="11.981781512284005"><ele>455.0</ele><time>2026-05-01T16:26:31Z</time></trkpt><trkpt lat="43.87109801497721" lon="11.981702582804179"><ele>455.0</ele><time>2026-05-01T16:26:32Z</time></trkpt><trkpt lat="43.8710056976076" lon="11.981559590678753"><ele>455.25</ele><time>2026-05-01T16:26:33Z</time></trkpt><trkpt lat="43.87091735040312" lon="11.981418435884128"><ele>455.5</ele><time>2026-05-01T16:26:34Z</time></trkpt><trkpt lat="43.87084334484662" lon="11.981296183525352"><ele>455.75</ele><time>2026-05-01T16:26:35Z</time></trkpt><trkpt lat="43.870767407822406" lon="11.981171498317575"><ele>456.0</ele><time>2026-05-01T16:26:36Z</time></trkpt><trkpt lat="43.87069270830198" lon="11.981054648613322"><ele>456.0</ele><time>2026-05-01T16:26:37Z</time></trkpt><trkpt lat="43.87062119870723" lon="11.980937165511307"><ele>456.0</ele><time>2026-05-01T16:26:38Z</time></trkpt><trkpt lat="43.87054602229416" lon="11.980819806439627"><ele>456.0</ele><time>2026-05-01T16:26:39Z</time></trkpt><trkpt lat="43.87047388332531" lon="11.980705902694341"><ele>456.0</ele><time>2026-05-01T16:26:40Z</time></trkpt><trkpt lat="43.870413046262136" lon="11.980592245613042"><ele>456.0</ele><time>2026-05-01T16:26:41Z</time></trkpt><trkpt lat="43.8703600015541" lon="11.980474558939722"><ele>457.0</ele><time>2026-05-01T16:26:42Z</time></trkpt><trkpt lat="43.87032263716408" lon="11.980341660817615"><ele>458.0</ele><time>2026-05-01T16:26:43Z</time></trkpt><trkpt lat="43.87031531718865" lon="11.980185770465384"><ele>459.0</ele><time>2026-05-01T16:26:44Z</time></trkpt><trkpt lat="43.870299580209235" lon="11.980036113375256"><ele>460.0</ele><time>2026-05-01T16:26:45Z</time></trkpt><trkpt lat="43.87026535785943" lon="11.979873945475632"><ele>461.0</ele><time>2026-05-01T16:26:46Z</time></trkpt><trkpt lat="43.87025122251818" lon="11.9797293637837"><ele>461.6</ele><time>2026-05-01T16:26:47Z</time></trkpt><trkpt lat="43.8702316295715" lon="11.979591620641546"><ele>462.20000000000005</ele><time>2026-05-01T16:26:48Z</time></trkpt><trkpt lat="43.87018574777194" lon="11.979479931886395"><ele>462.79999999999995</ele><time>2026-05-01T16:26:49Z</time></trkpt><trkpt lat="43.87017474788456" lon="11.979343655370593"><ele>463.4</ele><time>2026-05-01T16:26:50Z</time></trkpt><trkpt lat="43.87012386776521" lon="11.979244663724465"><ele>464.0</ele><time>2026-05-01T16:26:51Z</time></trkpt><trkpt lat="43.87005339471278" lon="11.97916730641169"><ele>464.0</ele><time>2026-05-01T16:26:52Z</time></trkpt><trkpt lat="43.86996301882985" lon="11.979110677282222"><ele>464.0</ele><time>2026-05-01T16:26:53Z</time></trkpt><trkpt lat="43.86986357791286" lon="11.97908601956907"><ele>464.0</ele><time>2026-05-01T16:26:54Z</time></trkpt><trkpt lat="43.86977121328173" lon="11.97909536821835"><ele>464.0</ele><time>2026-05-01T16:26:55Z</time></trkpt><trkpt lat="43.86967003098447" lon="11.979135201437122"><ele>464.0</ele><time>2026-05-01T16:26:56Z</time></trkpt><trkpt lat="43.86952786725424" lon="11.979183181949255"><ele>462.75</ele><time>2026-05-01T16:26:57Z</time></trkpt><trkpt lat="43.869418490335335" lon="11.979244072851099"><ele>461.5</ele><time>2026-05-01T16:26:58Z</time></trkpt><trkpt lat="43.86931196344966" lon="11.979293670161304"><ele>460.25</ele><time>2026-05-01T16:26:59Z</time></trkpt><trkpt lat="43.86919961703143" lon="11.979345110380354"><ele>459.0</ele><time>2026-05-01T16:27:00Z</time></trkpt><trkpt lat="43.86908637204065" lon="11.979401889930305"><ele>459.0</ele><time>2026-05-01T16:27:01Z</time></trkpt><trkpt lat="43.868981988007924" lon="11.979451882738093"><ele>459.0</ele><time>2026-05-01T16:27:02Z</time></trkpt><trkpt lat="43.86888107533077" lon="11.979499648653313"><ele>459.0</ele><time>2026-05-01T16:27:03Z</time></trkpt><trkpt lat="43.86881387976735" lon="11.979511249936309"><ele>459.0</ele><time>2026-05-01T16:27:04Z</time></trkpt><trkpt lat="43.8687032008789" lon="11.979444576238633"><ele>459.0</ele><time>2026-05-01T16:27:06Z</time></trkpt><trkpt lat="43.868672077382826" lon="11.97936816758656"><ele>459.0</ele><time>2026-05-01T16:27:07Z</time></trkpt><trkpt lat="43.868653017877485" lon="11.979233739725709"><ele>459.0</ele><time>2026-05-01T16:27:09Z</time></trkpt><trkpt lat="43.86865758962459" lon="11.979144892089858"><ele>459.0</ele><time>2026-05-01T16:27:11Z</time></trkpt><trkpt lat="43.86859442494822" lon="11.979077628055466"><ele>459.0</ele><time>2026-05-01T16:27:14Z</time></trkpt><trkpt lat="43.86851617313409" lon="11.979002950070655"><ele>459.0</ele><time>2026-05-01T16:27:17Z</time></trkpt><trkpt lat="43.86844958701605" lon="11.979016838398431"><ele>459.0</ele><time>2026-05-01T16:27:18Z</time></trkpt><trkpt lat="43.86837345248402" lon="11.979035507237"><ele>460.6</ele><time>2026-05-01T16:27:19Z</time></trkpt><trkpt lat="43.86829892179536" lon="11.979047585857426"><ele>462.2</ele><time>2026-05-01T16:27:20Z</time></trkpt><trkpt lat="43.86821666661757" lon="11.979056008044754"><ele>463.80000000000007</ele><time>2026-05-01T16:27:21Z</time></trkpt><trkpt lat="43.86812363136889" lon="11.979056375789154"><ele>465.40000000000003</ele><time>2026-05-01T16:27:22Z</time></trkpt><trkpt lat="43.86801264382644" lon="11.979063807359884"><ele>467.0</ele><time>2026-05-01T16:27:23Z</time></trkpt><trkpt lat="43.86789902710476" lon="11.979080100334029"><ele>467.0</ele><time>2026-05-01T16:27:24Z</time></trkpt><trkpt lat="43.86778723264482" lon="11.979100602847398"><ele>467.0</ele><time>2026-05-01T16:27:25Z</time></trkpt><trkpt lat="43.867673393716395" lon="11.979117737993247"><ele>467.0</ele><time>2026-05-01T16:27:26Z</time></trkpt><trkpt lat="43.86755398621922" lon="11.979129205945009"><ele>467.0</ele><time>2026-05-01T16:27:27Z</time></trkpt><trkpt lat="43.86743231339051" lon="11.979137925628498"><ele>466.5</ele><time>2026-05-01T16:27:28Z</time></trkpt><trkpt lat="43.86731269752288" lon="11.979132559957948"><ele>466.0</ele><time>2026-05-01T16:27:29Z</time></trkpt><trkpt lat="43.86720141624669" lon="11.979103746731969"><ele>465.5</ele><time>2026-05-01T16:27:30Z</time></trkpt><trkpt lat="43.86709341115708" lon="11.979052227362198"><ele>465.0</ele><time>2026-05-01T16:27:31Z</time></trkpt><trkpt lat="43.86698656264448" lon="11.97898996375269"><ele>465.0</ele><time>2026-05-01T16:27:32Z</time></trkpt><trkpt lat="43.86687821116547" lon="11.978916610989065"><ele>465.0</ele><time>2026-05-01T16:27:33Z</time></trkpt><trkpt lat="43.866771444826014" lon="11.978836422540795"><ele>465.0</ele><time>2026-05-01T16:27:34Z</time></trkpt><trkpt lat="43.86667075329763" lon="11.978746900022056"><ele>465.0</ele><time>2026-05-01T16:27:35Z</time></trkpt><trkpt lat="43.866572695319405" lon="11.978654746179199"><ele>464.5</ele><time>2026-05-01T16:27:36Z</time></trkpt><trkpt lat="43.866477622455605" lon="11.978563164310607"><ele>464.0</ele><time>2026-05-01T16:27:37Z</time></trkpt><trkpt lat="43.86637947191632" lon="11.978471973927519"><ele>463.5</ele><time>2026-05-01T16:27:38Z</time></trkpt><trkpt lat="43.86627537704076" lon="11.978387023965892"><ele>463.0</ele><time>2026-05-01T16:27:39Z</time></trkpt><trkpt lat="43.86617355114538" lon="11.97830013815609"><ele>463.75</ele><time>2026-05-01T16:27:40Z</time></trkpt><trkpt lat="43.86607219145092" lon="11.978216171587018"><ele>464.5</ele><time>2026-05-01T16:27:41Z</time></trkpt><trkpt lat="43.86596983556499" lon="11.978128469837968"><ele>465.25</ele><time>2026-05-01T16:27:42Z</time></trkpt><trkpt lat="43.86587145900499" lon="11.978031312101475"><ele>466.0</ele><time>2026-05-01T16:27:43Z</time></trkpt><trkpt lat="43.86577321026622" lon="11.977956419679076"><ele>466.0</ele><time>2026-05-01T16:27:44Z</time></trkpt><trkpt lat="43.86567341143976" lon="11.977873625590595"><ele>466.0</ele><time>2026-05-01T16:27:45Z</time></trkpt><trkpt lat="43.865579668212085" lon="11.977791932025019"><ele>466.0</ele><time>2026-05-01T16:27:46Z</time></trkpt><trkpt lat="43.865496104869464" lon="11.977718371601016"><ele>466.0</ele><time>2026-05-01T16:27:47Z</time></trkpt><trkpt lat="43.86541546733937" lon="11.97765399550646"><ele>466.0</ele><time>2026-05-01T16:27:48.001Z</time></trkpt><trkpt lat="43.86535176662251" lon="11.977585427099068"><ele>466.8</ele><time>2026-05-01T16:27:49.001Z</time></trkpt><trkpt lat="43.86527727385691" lon="11.977486227776875"><ele>467.6</ele><time>2026-05-01T16:27:51.001Z</time></trkpt><trkpt lat="43.865327584454526" lon="11.977347231518587"><ele>468.4</ele><time>2026-05-01T16:27:54Z</time></trkpt><trkpt lat="43.86540910145397" lon="11.977377899324813"><ele>469.2</ele><time>2026-05-01T16:27:56Z</time></trkpt><trkpt lat="43.86554272357593" lon="11.977353131097052"><ele>470.0</ele><time>2026-05-01T16:27:58Z</time></trkpt><trkpt lat="43.86562442465292" lon="11.977337068186253"><ele>470.0</ele><time>2026-05-01T16:27:59Z</time></trkpt><trkpt lat="43.86571395763463" lon="11.977300564257208"><ele>470.0</ele><time>2026-05-01T16:28:00Z</time></trkpt><trkpt lat="43.865815683322914" lon="11.977279423124266"><ele>470.0</ele><time>2026-05-01T16:28:01Z</time></trkpt><trkpt lat="43.86591194170422" lon="11.977222246147933"><ele>470.0</ele><time>2026-05-01T16:28:02Z</time></trkpt><trkpt lat="43.866003807116286" lon="11.977161365365458"><ele>470.0</ele><time>2026-05-01T16:28:03Z</time></trkpt><trkpt lat="43.866095255020795" lon="11.977075710528936"><ele>471.0</ele><time>2026-05-01T16:28:04Z</time></trkpt><trkpt lat="43.86620170337469" lon="11.977007699314422"><ele>472.0</ele><time>2026-05-01T16:28:05Z</time></trkpt><trkpt lat="43.86631997403026" lon="11.976953771860535"><ele>473.0</ele><time>2026-05-01T16:28:06Z</time></trkpt><trkpt lat="43.866441949527406" lon="11.976874891247101"><ele>474.0</ele><time>2026-05-01T16:28:07Z</time></trkpt><trkpt lat="43.86657828867218" lon="11.976786248862982"><ele>475.66666666666663</ele><time>2026-05-01T16:28:08Z</time></trkpt><trkpt lat="43.866731764719475" lon="11.976683551654144"><ele>477.3333333333333</ele><time>2026-05-01T16:28:09Z</time></trkpt><trkpt lat="43.866905554779144" lon="11.976541721570996"><ele>479.0</ele><time>2026-05-01T16:28:10Z</time></trkpt><trkpt lat="43.86709664046377" lon="11.976415674515854"><ele>480.0</ele><time>2026-05-01T16:28:11Z</time></trkpt><trkpt lat="43.86729861901697" lon="11.976279185303879"><ele>481.0</ele><time>2026-05-01T16:28:12Z</time></trkpt><trkpt lat="43.86751820022745" lon="11.97615819881657"><ele>483.5</ele><time>2026-05-01T16:28:13Z</time></trkpt><trkpt lat="43.867740826430186" lon="11.976010354176738"><ele>486.0</ele><time>2026-05-01T16:28:14Z</time></trkpt><trkpt lat="43.86796855838132" lon="11.975859118526442"><ele>489.0</ele><time>2026-05-01T16:28:15Z</time></trkpt><trkpt lat="43.868199292202256" lon="11.975705889251795"><ele>492.0</ele><time>2026-05-01T16:28:16Z</time></trkpt><trkpt lat="43.86842396917133" lon="11.975558192741481"><ele>492.33333333333337</ele><time>2026-05-01T16:28:17Z</time></trkpt><trkpt lat="43.8686253162955" lon="11.975425909655245"><ele>492.6666666666667</ele><time>2026-05-01T16:28:18Z</time></trkpt><trkpt lat="43.86881162260635" lon="11.975303507989917"><ele>493.0</ele><time>2026-05-01T16:28:19Z</time></trkpt><trkpt lat="43.868983688957535" lon="11.975190462105886"><ele>493.0</ele><time>2026-05-01T16:28:20Z</time></trkpt><trkpt lat="43.8691334252643" lon="11.975091943941885"><ele>493.0</ele><time>2026-05-01T16:28:21Z</time></trkpt><trkpt lat="43.86927853798123" lon="11.974995883327068"><ele>493.0</ele><time>2026-05-01T16:28:22Z</time></trkpt><trkpt lat="43.86940809041641" lon="11.97491188330459"><ele>496.25</ele><time>2026-05-01T16:28:23Z</time></trkpt><trkpt lat="43.86953041005567" lon="11.974833790840478"><ele>499.5</ele><time>2026-05-01T16:28:24Z</time></trkpt><trkpt lat="43.86964402896897" lon="11.974704209458615"><ele>502.75</ele><time>2026-05-01T16:28:25Z</time></trkpt><trkpt lat="43.86974057344699" lon="11.974523476508454"><ele>506.0</ele><time>2026-05-01T16:28:26Z</time></trkpt><trkpt lat="43.86984240191421" lon="11.974335384187041"><ele>507.3333333333333</ele><time>2026-05-01T16:28:27Z</time></trkpt><trkpt lat="43.86995883848071" lon="11.974110630308257"><ele>508.66666666666663</ele><time>2026-05-01T16:28:28Z</time></trkpt><trkpt lat="43.87009881217622" lon="11.973884969949252"><ele>510.0</ele><time>2026-05-01T16:28:29Z</time></trkpt><trkpt lat="43.87024548656062" lon="11.973629581533695"><ele>512.5</ele><time>2026-05-01T16:28:30Z</time></trkpt><trkpt lat="43.87040209439102" lon="11.97334866065326"><ele>515.0</ele><time>2026-05-01T16:28:31Z</time></trkpt><trkpt lat="43.87056049278225" lon="11.973053879848896"><ele>515.0</ele><time>2026-05-01T16:28:32Z</time></trkpt><trkpt lat="43.8707202800182" lon="11.972755991555168"><ele>515.0</ele><time>2026-05-01T16:28:33Z</time></trkpt><trkpt lat="43.870866921025474" lon="11.972482611453408"><ele>517.0</ele><time>2026-05-01T16:28:34Z</time></trkpt><trkpt lat="43.87098395192566" lon="11.972228192552235"><ele>519.0</ele><time>2026-05-01T16:28:35Z</time></trkpt><trkpt lat="43.87111439932048" lon="11.97203038917156"><ele>521.0</ele><time>2026-05-01T16:28:36Z</time></trkpt><trkpt lat="43.87123517686341" lon="11.971848678486184"><ele>521.0</ele><time>2026-05-01T16:28:37Z</time></trkpt><trkpt lat="43.87137095826512" lon="11.971706647115298"><ele>521.0</ele><time>2026-05-01T16:28:38Z</time></trkpt><trkpt lat="43.87154162708344" lon="11.97158312536253"><ele>521.0</ele><time>2026-05-01T16:28:39Z</time></trkpt><trkpt lat="43.871732781537894" lon="11.971450326734795"><ele>524.0</ele><time>2026-05-01T16:28:40Z</time></trkpt><trkpt lat="43.87193220625391" lon="11.971289938240128"><ele>527.0</ele><time>2026-05-01T16:28:41Z</time></trkpt><trkpt lat="43.87214651623393" lon="11.971140920322036"><ele>527.0</ele><time>2026-05-01T16:28:42Z</time></trkpt><trkpt lat="43.87236853629609" lon="11.970987170164387"><ele>527.0</ele><time>2026-05-01T16:28:43Z</time></trkpt><trkpt lat="43.872600062453586" lon="11.9708242682823"><ele>532.5</ele><time>2026-05-01T16:28:44Z</time></trkpt><trkpt lat="43.87282722446984" lon="11.970692381355208"><ele>538.0</ele><time>2026-05-01T16:28:45Z</time></trkpt><trkpt lat="43.87301662020988" lon="11.970561016858069"><ele>538.0</ele><time>2026-05-01T16:28:46Z</time></trkpt><trkpt lat="43.87317719869861" lon="11.97042511292168"><ele>538.0</ele><time>2026-05-01T16:28:47Z</time></trkpt><trkpt lat="43.87331972721316" lon="11.97032513837981"><ele>538.0</ele><time>2026-05-01T16:28:48Z</time></trkpt><trkpt lat="43.87344631787155" lon="11.970233049316702"><ele>538.6</ele><time>2026-05-01T16:28:49Z</time></trkpt><trkpt lat="43.873544252829035" lon="11.970142427009987"><ele>539.1999999999999</ele><time>2026-05-01T16:28:50Z</time></trkpt><trkpt lat="43.87362047809996" lon="11.970042769615173"><ele>539.8</ele><time>2026-05-01T16:28:51Z</time></trkpt><trkpt lat="43.87367092966946" lon="11.969923333780102"><ele>540.4</ele><time>2026-05-01T16:28:52Z</time></trkpt><trkpt lat="43.87369685036655" lon="11.969772905014697"><ele>541.0</ele><time>2026-05-01T16:28:53Z</time></trkpt><trkpt lat="43.87368212441477" lon="11.969608240249203"><ele>541.5</ele><time>2026-05-01T16:28:54Z</time></trkpt><trkpt lat="43.87366451756752" lon="11.969457850775232"><ele>542.0</ele><time>2026-05-01T16:28:55Z</time></trkpt><trkpt lat="43.873569872393176" lon="11.969340261722321"><ele>542.5</ele><time>2026-05-01T16:28:56Z</time></trkpt><trkpt lat="43.87347396903151" lon="11.969258639125645"><ele>543.0</ele><time>2026-05-01T16:28:57Z</time></trkpt><trkpt lat="43.87335100087149" lon="11.969213369106747"><ele>546.0</ele><time>2026-05-01T16:28:58Z</time></trkpt><trkpt lat="43.87321142097944" lon="11.969192280500803"><ele>549.0</ele><time>2026-05-01T16:28:59Z</time></trkpt><trkpt lat="43.873066211318765" lon="11.969168938423966"><ele>552.0</ele><time>2026-05-01T16:29:00Z</time></trkpt><trkpt lat="43.87289927028137" lon="11.969138939907884"><ele>552.0</ele><time>2026-05-01T16:29:01Z</time></trkpt><trkpt lat="43.87271364211549" lon="11.96910087192781"><ele>552.0</ele><time>2026-05-01T16:29:02Z</time></trkpt><trkpt lat="43.87253634172748" lon="11.969089099709235"><ele>552.0</ele><time>2026-05-01T16:29:03Z</time></trkpt><trkpt lat="43.87240572560525" lon="11.969098001027755"><ele>552.8333333333334</ele><time>2026-05-01T16:29:04Z</time></trkpt><trkpt lat="43.8723079731334" lon="11.969106338724085"><ele>553.6666666666666</ele><time>2026-05-01T16:29:05Z</time></trkpt><trkpt lat="43.8722388948948" lon="11.969084505422048"><ele>554.5</ele><time>2026-05-01T16:29:06Z</time></trkpt><trkpt lat="43.87219062950151" lon="11.96892943396434"><ele>555.3333333333333</ele><time>2026-05-01T16:29:08Z</time></trkpt><trkpt lat="43.87221073255315" lon="11.968838557917886"><ele>556.1666666666666</ele><time>2026-05-01T16:29:09Z</time></trkpt><trkpt lat="43.8722780825407" lon="11.968766201630208"><ele>557.0</ele><time>2026-05-01T16:29:10Z</time></trkpt><trkpt lat="43.87238154529783" lon="11.968740090932801"><ele>557.0</ele><time>2026-05-01T16:29:11Z</time></trkpt><trkpt lat="43.87249107555975" lon="11.968674194727544"><ele>557.0</ele><time>2026-05-01T16:29:12Z</time></trkpt><trkpt lat="43.872616008225066" lon="11.968582437456192"><ele>557.0</ele><time>2026-05-01T16:29:13Z</time></trkpt><trkpt lat="43.87277412306828" lon="11.968493443685853"><ele>557.0</ele><time>2026-05-01T16:29:14Z</time></trkpt><trkpt lat="43.87294562519919" lon="11.968397480597401"><ele>559.0</ele><time>2026-05-01T16:29:15Z</time></trkpt><trkpt lat="43.87309444701041" lon="11.968328002040492"><ele>561.0</ele><time>2026-05-01T16:29:16Z</time></trkpt><trkpt lat="43.873218801853035" lon="11.968255675592957"><ele>563.0</ele><time>2026-05-01T16:29:17Z</time></trkpt><trkpt lat="43.87332579030617" lon="11.96818945291286"><ele>565.0</ele><time>2026-05-01T16:29:18Z</time></trkpt><trkpt lat="43.87340518851078" lon="11.968127289379398"><ele>565.4</ele><time>2026-05-01T16:29:19Z</time></trkpt><trkpt lat="43.87349089440358" lon="11.96804681608743"><ele>565.8</ele><time>2026-05-01T16:29:20Z</time></trkpt><trkpt lat="43.87356364392056" lon="11.967936842529378"><ele>566.2</ele><time>2026-05-01T16:29:21Z</time></trkpt><trkpt lat="43.873608800060715" lon="11.96780701443883"><ele>566.6</ele><time>2026-05-01T16:29:22Z</time></trkpt><trkpt lat="43.87361663659792" lon="11.967659669291344"><ele>567.0</ele><time>2026-05-01T16:29:23Z</time></trkpt><trkpt lat="43.873595448150674" lon="11.967503058401018"><ele>569.6666666666666</ele><time>2026-05-01T16:29:24Z</time></trkpt><trkpt lat="43.873512075230636" lon="11.967320666747332"><ele>572.3333333333333</ele><time>2026-05-01T16:29:25Z</time></trkpt><trkpt lat="43.873368919253" lon="11.96714185969296"><ele>575.0</ele><time>2026-05-01T16:29:26Z</time></trkpt><trkpt lat="43.87325233336708" lon="11.966996678911698"><ele>575.0</ele><time>2026-05-01T16:29:27Z</time></trkpt><trkpt lat="43.87316955700555" lon="11.966883179261277"><ele>575.0</ele><time>2026-05-01T16:29:28Z</time></trkpt><trkpt lat="43.8731083577662" lon="11.966762081883822"><ele>575.0</ele><time>2026-05-01T16:29:29Z</time></trkpt><trkpt lat="43.87309889519945" lon="11.966647320130305"><ele>575.0</ele><time>2026-05-01T16:29:31Z</time></trkpt><trkpt lat="43.87319040282329" lon="11.966582035044528"><ele>575.0</ele><time>2026-05-01T16:29:32Z</time></trkpt><trkpt lat="43.87327767925512" lon="11.966548400964312"><ele>577.0</ele><time>2026-05-01T16:29:33Z</time></trkpt><trkpt lat="43.873379475060744" lon="11.966575413258205"><ele>579.0</ele><time>2026-05-01T16:29:34Z</time></trkpt><trkpt lat="43.87348331426772" lon="11.966684353118493"><ele>581.0</ele><time>2026-05-01T16:29:35Z</time></trkpt><trkpt lat="43.87362567604136" lon="11.966775557060407"><ele>583.0</ele><time>2026-05-01T16:29:36Z</time></trkpt><trkpt lat="43.87376865204722" lon="11.966807512516121"><ele>583.0</ele><time>2026-05-01T16:29:37Z</time></trkpt><trkpt lat="43.87392574065163" lon="11.9667817971545"><ele>583.0</ele><time>2026-05-01T16:29:38Z</time></trkpt><trkpt lat="43.8740910645342" lon="11.966717040315462"><ele>583.0</ele><time>2026-05-01T16:29:39Z</time></trkpt><trkpt lat="43.87424119004479" lon="11.966635465780021"><ele>587.0</ele><time>2026-05-01T16:29:40Z</time></trkpt><trkpt lat="43.87436869480438" lon="11.966538503421319"><ele>591.0</ele><time>2026-05-01T16:29:41Z</time></trkpt><trkpt lat="43.87447529662863" lon="11.96641225921507"><ele>595.0</ele><time>2026-05-01T16:29:42Z</time></trkpt><trkpt lat="43.87454389035535" lon="11.966279486242122"><ele>599.0</ele><time>2026-05-01T16:29:43Z</time></trkpt><trkpt lat="43.87457354974001" lon="11.96613869066062"><ele>599.0</ele><time>2026-05-01T16:29:44Z</time></trkpt><trkpt lat="43.874541024094654" lon="11.965957605370942"><ele>599.0</ele><time>2026-05-01T16:29:45Z</time></trkpt><trkpt lat="43.87451775912055" lon="11.965781166190258"><ele>599.0</ele><time>2026-05-01T16:29:46Z</time></trkpt><trkpt lat="43.874507548451064" lon="11.965625540590375"><ele>599.0</ele><time>2026-05-01T16:29:47Z</time></trkpt><trkpt lat="43.87457948887857" lon="11.96552192282835"><ele>600.25</ele><time>2026-05-01T16:29:48Z</time></trkpt><trkpt lat="43.87467429321597" lon="11.96548324534041"><ele>601.5</ele><time>2026-05-01T16:29:49Z</time></trkpt><trkpt lat="43.87478742405444" lon="11.965430603049965"><ele>602.75</ele><time>2026-05-01T16:29:50Z</time></trkpt><trkpt lat="43.87490176124704" lon="11.965325032882326"><ele>604.0</ele><time>2026-05-01T16:29:51Z</time></trkpt><trkpt lat="43.87498696309213" lon="11.96515184679524"><ele>603.25</ele><time>2026-05-01T16:29:52Z</time></trkpt><trkpt lat="43.87505984715733" lon="11.964993242466953"><ele>602.5</ele><time>2026-05-01T16:29:53.001Z</time></trkpt><trkpt lat="43.87514539450573" lon="11.964924995235059"><ele>601.75</ele><time>2026-05-01T16:29:54.001Z</time></trkpt><trkpt lat="43.875253459442185" lon="11.964915030164773"><ele>601.0</ele><time>2026-05-01T16:29:55.001Z</time></trkpt><trkpt lat="43.875388715775884" lon="11.964918887183325"><ele>605.75</ele><time>2026-05-01T16:29:56.001Z</time></trkpt><trkpt lat="43.875509162537014" lon="11.964884261968608"><ele>610.5</ele><time>2026-05-01T16:29:57.001Z</time></trkpt><trkpt lat="43.87559651381277" lon="11.964777247328557"><ele>615.25</ele><time>2026-05-01T16:29:58.001Z</time></trkpt><trkpt lat="43.8756683859081" lon="11.964627273472797"><ele>620.0</ele><time>2026-05-01T16:29:59.001Z</time></trkpt><trkpt lat="43.87573923785881" lon="11.964440803477057"><ele>620.0</ele><time>2026-05-01T16:30:00Z</time></trkpt><trkpt lat="43.87583511708196" lon="11.964261944551701"><ele>620.0</ele><time>2026-05-01T16:30:01Z</time></trkpt><trkpt lat="43.87596462123103" lon="11.964082044905776"><ele>620.0</ele><time>2026-05-01T16:30:02Z</time></trkpt><trkpt lat="43.876094789299934" lon="11.963905192963104"><ele>624.2</ele><time>2026-05-01T16:30:03Z</time></trkpt><trkpt lat="43.876197030332165" lon="11.963743607514846"><ele>628.4</ele><time>2026-05-01T16:30:04Z</time></trkpt><trkpt lat="43.876276089879894" lon="11.963609823314865"><ele>632.5999999999999</ele><time>2026-05-01T16:30:05Z</time></trkpt><trkpt lat="43.87635352050181" lon="11.963534508259782"><ele>636.8</ele><time>2026-05-01T16:30:06Z</time></trkpt><trkpt lat="43.87641046004944" lon="11.963490127775865"><ele>641.0</ele><time>2026-05-01T16:30:07Z</time></trkpt><trkpt lat="43.87646695479906" lon="11.963615960687665"><ele>641.0</ele><time>2026-05-01T16:30:09Z</time></trkpt><trkpt lat="43.8764027030895" lon="11.963767025713462"><ele>641.0</ele><time>2026-05-01T16:30:11Z</time></trkpt><trkpt lat="43.87633660710421" lon="11.963824484617641"><ele>641.0</ele><time>2026-05-01T16:30:12Z</time></trkpt><trkpt lat="43.87628371082467" lon="11.963888700996536"><ele>641.0</ele><time>2026-05-01T16:30:13Z</time></trkpt><trkpt lat="43.87626752177355" lon="11.963987502121249"><ele>641.0</ele><time>2026-05-01T16:30:14Z</time></trkpt><trkpt lat="43.87628824286157" lon="11.964103107896921"><ele>641.0</ele><time>2026-05-01T16:30:15Z</time></trkpt><trkpt lat="43.87637337945768" lon="11.964186393582168"><ele>641.0</ele><time>2026-05-01T16:30:16Z</time></trkpt><trkpt lat="43.876519485405595" lon="11.964180870110642"><ele>641.0</ele><time>2026-05-01T16:30:17Z</time></trkpt><trkpt lat="43.876660093957454" lon="11.964199625219376"><ele>641.0</ele><time>2026-05-01T16:30:18Z</time></trkpt><trkpt lat="43.87681015395143" lon="11.964233451531268"><ele>641.0</ele><time>2026-05-01T16:30:19Z</time></trkpt><trkpt lat="43.87696264188009" lon="11.964281093678238"><ele>642.4</ele><time>2026-05-01T16:30:20Z</time></trkpt><trkpt lat="43.877084072797786" lon="11.964301075442954"><ele>643.8</ele><time>2026-05-01T16:30:21Z</time></trkpt><trkpt lat="43.87717694909195" lon="11.964298886807605"><ele>645.1999999999999</ele><time>2026-05-01T16:30:22Z</time></trkpt><trkpt lat="43.87724433916744" lon="11.964244909991264"><ele>646.5999999999999</ele><time>2026-05-01T16:30:23Z</time></trkpt><trkpt lat="43.877299519179076" lon="11.964156638054948"><ele>648.0</ele><time>2026-05-01T16:30:24Z</time></trkpt><trkpt lat="43.87727894034093" lon="11.963993472447294"><ele>648.0</ele><time>2026-05-01T16:30:25Z</time></trkpt><trkpt lat="43.87722965551496" lon="11.963822532545807"><ele>648.0</ele><time>2026-05-01T16:30:26Z</time></trkpt><trkpt lat="43.877171769851905" lon="11.963656562760322"><ele>648.0</ele><time>2026-05-01T16:30:27Z</time></trkpt><trkpt lat="43.877167768331674" lon="11.963524201486253"><ele>648.0</ele><time>2026-05-01T16:30:28Z</time></trkpt><trkpt lat="43.87718978663657" lon="11.96339792308552"><ele>648.0</ele><time>2026-05-01T16:30:30Z</time></trkpt><trkpt lat="43.87726168921432" lon="11.963373843958918"><ele>648.0</ele><time>2026-05-01T16:30:31Z</time></trkpt><trkpt lat="43.87734923247529" lon="11.963452662330768"><ele>648.0</ele><time>2026-05-01T16:30:32Z</time></trkpt><trkpt lat="43.87746057871756" lon="11.963545319780255"><ele>648.0</ele><time>2026-05-01T16:30:33Z</time></trkpt><trkpt lat="43.87758961702694" lon="11.9636120640305"><ele>648.0</ele><time>2026-05-01T16:30:34Z</time></trkpt><trkpt lat="43.877709269773405" lon="11.963663075638255"><ele>646.3333333333334</ele><time>2026-05-01T16:30:35Z</time></trkpt><trkpt lat="43.87785633163108" lon="11.96365907310785"><ele>644.6666666666667</ele><time>2026-05-01T16:30:36Z</time></trkpt><trkpt lat="43.87801830726439" lon="11.963597016881513"><ele>643.0</ele><time>2026-05-01T16:30:37Z</time></trkpt><trkpt lat="43.878184848374936" lon="11.963484702937244"><ele>643.0</ele><time>2026-05-01T16:30:38Z</time></trkpt><trkpt lat="43.87831739203026" lon="11.963397641035437"><ele>643.0</ele><time>2026-05-01T16:30:39Z</time></trkpt><trkpt lat="43.8784163788747" lon="11.963332218332944"><ele>643.0</ele><time>2026-05-01T16:30:40Z</time></trkpt><trkpt lat="43.878498099794776" lon="11.963254391300541"><ele>643.0</ele><time>2026-05-01T16:30:41Z</time></trkpt><trkpt lat="43.878553436026245" lon="11.963109338234304"><ele>647.0</ele><time>2026-05-01T16:30:42Z</time></trkpt><trkpt lat="43.87858756628327" lon="11.96292602836859"><ele>651.0</ele><time>2026-05-01T16:30:43Z</time></trkpt><trkpt lat="43.878644622143874" lon="11.962749478877942"><ele>655.0</ele><time>2026-05-01T16:30:44Z</time></trkpt><trkpt lat="43.878715433594394" lon="11.962630372617966"><ele>659.0</ele><time>2026-05-01T16:30:45Z</time></trkpt><trkpt lat="43.878827785581926" lon="11.962574346846486"><ele>660.0</ele><time>2026-05-01T16:30:46Z</time></trkpt><trkpt lat="43.87897532630536" lon="11.962521644140061"><ele>661.0</ele><time>2026-05-01T16:30:47Z</time></trkpt><trkpt lat="43.87911055873972" lon="11.962454818207123"><ele>662.0</ele><time>2026-05-01T16:30:48Z</time></trkpt><trkpt lat="43.87924182660218" lon="11.962390935912163"><ele>663.0</ele><time>2026-05-01T16:30:49Z</time></trkpt><trkpt lat="43.879346455937714" lon="11.96227058840302"><ele>663.0</ele><time>2026-05-01T16:30:50Z</time></trkpt><trkpt lat="43.87941886311408" lon="11.962089528824034"><ele>663.0</ele><time>2026-05-01T16:30:51Z</time></trkpt><trkpt lat="43.87947086852908" lon="11.961879775989209"><ele>663.0</ele><time>2026-05-01T16:30:52Z</time></trkpt><trkpt lat="43.87955408910987" lon="11.961737290016307"><ele>663.0</ele><time>2026-05-01T16:30:53Z</time></trkpt><trkpt lat="43.879655131160895" lon="11.961651545828586"><ele>666.75</ele><time>2026-05-01T16:30:54Z</time></trkpt><trkpt lat="43.87979203328423" lon="11.96162653850328"><ele>670.5</ele><time>2026-05-01T16:30:55Z</time></trkpt><trkpt lat="43.87994155772719" lon="11.961632140771956"><ele>674.25</ele><time>2026-05-01T16:30:56Z</time></trkpt><trkpt lat="43.88008491761741" lon="11.961596918191182"><ele>678.0</ele><time>2026-05-01T16:30:57Z</time></trkpt><trkpt lat="43.88019538458126" lon="11.96150647590986"><ele>678.0</ele><time>2026-05-01T16:30:58Z</time></trkpt><trkpt lat="43.88030197196012" lon="11.961344328014166"><ele>678.0</ele><time>2026-05-01T16:30:59Z</time></trkpt><trkpt lat="43.880415009071555" lon="11.961147592405366"><ele>678.0</ele><time>2026-05-01T16:31:00Z</time></trkpt><trkpt lat="43.880580551916964" lon="11.961053135138789"><ele>678.0</ele><time>2026-05-01T16:31:01Z</time></trkpt><trkpt lat="43.88076678720523" lon="11.960945468638158"><ele>678.0</ele><time>2026-05-01T16:31:02Z</time></trkpt><trkpt lat="43.88091065001304" lon="11.960783442593135"><ele>678.0</ele><time>2026-05-01T16:31:03Z</time></trkpt><trkpt lat="43.88104241277926" lon="11.960662549687786"><ele>683.6666666666666</ele><time>2026-05-01T16:31:04Z</time></trkpt><trkpt lat="43.88116821148814" lon="11.96060854117402"><ele>689.3333333333333</ele><time>2026-05-01T16:31:05Z</time></trkpt><trkpt lat="43.8813204354777" lon="11.96060089404009"><ele>695.0</ele><time>2026-05-01T16:31:06Z</time></trkpt><trkpt lat="43.88148917572689" lon="11.960543736754257"><ele>695.0</ele><time>2026-05-01T16:31:07Z</time></trkpt><trkpt lat="43.881648060224194" lon="11.96049208880666"><ele>695.0</ele><time>2026-05-01T16:31:08Z</time></trkpt><trkpt lat="43.881766395565315" lon="11.96040694942181"><ele>695.0</ele><time>2026-05-01T16:31:09Z</time></trkpt><trkpt lat="43.88186651482693" lon="11.960303160076013"><ele>695.0</ele><time>2026-05-01T16:31:10Z</time></trkpt><trkpt lat="43.88195460035344" lon="11.960141927789184"><ele>699.25</ele><time>2026-05-01T16:31:11Z</time></trkpt><trkpt lat="43.882038294853196" lon="11.959969232158025"><ele>703.5</ele><time>2026-05-01T16:31:12Z</time></trkpt><trkpt lat="43.882134437857815" lon="11.959842607684221"><ele>707.75</ele><time>2026-05-01T16:31:13Z</time></trkpt><trkpt lat="43.882258239677064" lon="11.959772900641381"><ele>712.0</ele><time>2026-05-01T16:31:14Z</time></trkpt><trkpt lat="43.88242296788136" lon="11.959775243928119"><ele>715.3333333333334</ele><time>2026-05-01T16:31:15Z</time></trkpt><trkpt lat="43.88261300451677" lon="11.95982946780357"><ele>718.6666666666666</ele><time>2026-05-01T16:31:16Z</time></trkpt><trkpt lat="43.882828388082864" lon="11.959822519936301"><ele>722.0</ele><time>2026-05-01T16:31:17Z</time></trkpt><trkpt lat="43.88304193041139" lon="11.959807246249932"><ele>722.0</ele><time>2026-05-01T16:31:18Z</time></trkpt><trkpt lat="43.88320825496817" lon="11.959778501620054"><ele>722.0</ele><time>2026-05-01T16:31:19Z</time></trkpt><trkpt lat="43.88334005134497" lon="11.959769777110825"><ele>722.0</ele><time>2026-05-01T16:31:20Z</time></trkpt><trkpt lat="43.883477577833006" lon="11.95980870043193"><ele>722.0</ele><time>2026-05-01T16:31:21Z</time></trkpt><trkpt lat="43.88364843950556" lon="11.959875194454698"><ele>723.0</ele><time>2026-05-01T16:31:22Z</time></trkpt><trkpt lat="43.883826428480205" lon="11.959945196931516"><ele>724.0</ele><time>2026-05-01T16:31:23Z</time></trkpt><trkpt lat="43.883990852238256" lon="11.960007981256647"><ele>725.0</ele><time>2026-05-01T16:31:24Z</time></trkpt><trkpt lat="43.884132947137154" lon="11.96006039077378"><ele>725.0</ele><time>2026-05-01T16:31:25Z</time></trkpt><trkpt lat="43.88424688785731" lon="11.960114065878926"><ele>725.0</ele><time>2026-05-01T16:31:26Z</time></trkpt><trkpt lat="43.88433509160379" lon="11.960190396602872"><ele>725.0</ele><time>2026-05-01T16:31:27Z</time></trkpt><trkpt lat="43.8844127955116" lon="11.960295353445202"><ele>725.0</ele><time>2026-05-01T16:31:28Z</time></trkpt><trkpt lat="43.88447041647736" lon="11.960430535152112"><ele>725.0</ele><time>2026-05-01T16:31:29Z</time></trkpt><trkpt lat="43.88450021271889" lon="11.960575212686551"><ele>727.1666666666666</ele><time>2026-05-01T16:31:30Z</time></trkpt><trkpt lat="43.88452270054618" lon="11.960680752372467"><ele>729.3333333333333</ele><time>2026-05-01T16:31:31Z</time></trkpt><trkpt lat="43.88456271383858" lon="11.960749916752253"><ele>731.5</ele><time>2026-05-01T16:31:32Z</time></trkpt><trkpt lat="43.88461614802932" lon="11.960807755269279"><ele>733.6666666666666</ele><time>2026-05-01T16:31:33Z</time></trkpt><trkpt lat="43.88471428742363" lon="11.960783295636213"><ele>735.8333333333334</ele><time>2026-05-01T16:31:34Z</time></trkpt><trkpt lat="43.884805419056484" lon="11.960694332287657"><ele>738.0</ele><time>2026-05-01T16:31:35Z</time></trkpt><trkpt lat="43.88488956613733" lon="11.960587134049891"><ele>738.0</ele><time>2026-05-01T16:31:36Z</time></trkpt><trkpt lat="43.884965571436574" lon="11.96046712511117"><ele>738.0</ele><time>2026-05-01T16:31:37Z</time></trkpt><trkpt lat="43.88504367285198" lon="11.960368611995818"><ele>738.0</ele><time>2026-05-01T16:31:38Z</time></trkpt><trkpt lat="43.88510350556646" lon="11.960290460202149"><ele>738.0</ele><time>2026-05-01T16:31:39Z</time></trkpt><trkpt lat="43.88514906040373" lon="11.960218358846173"><ele>738.0</ele><time>2026-05-01T16:31:40Z</time></trkpt><trkpt lat="43.88517826251842" lon="11.960134640490944"><ele>738.0</ele><time>2026-05-01T16:31:41Z</time></trkpt><trkpt lat="43.885179100112296" lon="11.96002822732407"><ele>740.75</ele><time>2026-05-01T16:31:42.001Z</time></trkpt><trkpt lat="43.885145889807134" lon="11.959890718538201"><ele>743.5</ele><time>2026-05-01T16:31:43.001Z</time></trkpt><trkpt lat="43.88506531963349" lon="11.959739259230616"><ele>746.25</ele><time>2026-05-01T16:31:44.001Z</time></trkpt><trkpt lat="43.884957862514646" lon="11.959597920629221"><ele>749.0</ele><time>2026-05-01T16:31:45.001Z</time></trkpt><trkpt lat="43.88484589573173" lon="11.959470265227022"><ele>749.0</ele><time>2026-05-01T16:31:46.001Z</time></trkpt><trkpt lat="43.88474852307962" lon="11.959351675016572"><ele>749.0</ele><time>2026-05-01T16:31:47.001Z</time></trkpt><trkpt lat="43.88465548021019" lon="11.959239884194597"><ele>749.0</ele><time>2026-05-01T16:31:48.001Z</time></trkpt><trkpt lat="43.88456636600314" lon="11.959134428388934"><ele>749.0</ele><time>2026-05-01T16:31:49.001Z</time></trkpt><trkpt lat="43.884477340829854" lon="11.9590299396709"><ele>748.75</ele><time>2026-05-01T16:31:50.001Z</time></trkpt><trkpt lat="43.884405928450924" lon="11.958896590373891"><ele>748.5</ele><time>2026-05-01T16:31:51.001Z</time></trkpt><trkpt lat="43.884331949961464" lon="11.958760764111425"><ele>748.25</ele><time>2026-05-01T16:31:52.001Z</time></trkpt><trkpt lat="43.88427487297675" lon="11.958596562249971"><ele>748.0</ele><time>2026-05-01T16:31:53.001Z</time></trkpt><trkpt lat="43.88422179877801" lon="11.958407584605476"><ele>750.0</ele><time>2026-05-01T16:31:54.001Z</time></trkpt><trkpt lat="43.88415952787293" lon="11.958232730227301"><ele>752.0</ele><time>2026-05-01T16:31:55.001Z</time></trkpt><trkpt lat="43.88413193138402" lon="11.958085524135276"><ele>754.0</ele><time>2026-05-01T16:31:56.001Z</time></trkpt><trkpt lat="43.88409904547965" lon="11.957968580761092"><ele>756.0</ele><time>2026-05-01T16:31:57.001Z</time></trkpt><trkpt lat="43.884083634764785" lon="11.957876402365391"><ele>758.0</ele><time>2026-05-01T16:31:58.001Z</time></trkpt><trkpt lat="43.88412849819103" lon="11.957717551825802"><ele>758.0</ele><time>2026-05-01T16:32:00.001Z</time></trkpt><trkpt lat="43.88417594716922" lon="11.957650315871717"><ele>758.0</ele><time>2026-05-01T16:32:01.001Z</time></trkpt><trkpt lat="43.88425068179665" lon="11.95763026580903"><ele>758.0</ele><time>2026-05-01T16:32:02.001Z</time></trkpt><trkpt lat="43.88432694965605" lon="11.957661159116162"><ele>758.0</ele><time>2026-05-01T16:32:03.001Z</time></trkpt><trkpt lat="43.88438819294506" lon="11.957762352666292"><ele>758.0</ele><time>2026-05-01T16:32:04.001Z</time></trkpt><trkpt lat="43.88447773689675" lon="11.957858470790669"><ele>758.0</ele><time>2026-05-01T16:32:05.001Z</time></trkpt><trkpt lat="43.88456872630081" lon="11.957988898907368"><ele>758.6666666666666</ele><time>2026-05-01T16:32:06Z</time></trkpt><trkpt lat="43.884672337361" lon="11.95814993702782"><ele>759.3333333333334</ele><time>2026-05-01T16:32:07Z</time></trkpt><trkpt lat="43.88480022050103" lon="11.958306584118814"><ele>760.0</ele><time>2026-05-01T16:32:08Z</time></trkpt><trkpt lat="43.88495098346612" lon="11.958474646713995"><ele>763.3333333333334</ele><time>2026-05-01T16:32:09Z</time></trkpt><trkpt lat="43.885111610877516" lon="11.958596957673167"><ele>766.6666666666667</ele><time>2026-05-01T16:32:10Z</time></trkpt><trkpt lat="43.88525243771665" lon="11.95873278736627"><ele>770.0</ele><time>2026-05-01T16:32:11Z</time></trkpt><trkpt lat="43.885373139910904" lon="11.958863143645138"><ele>770.0</ele><time>2026-05-01T16:32:12Z</time></trkpt><trkpt lat="43.885485327497165" lon="11.95897186323755"><ele>770.0</ele><time>2026-05-01T16:32:13Z</time></trkpt><trkpt lat="43.88558889922739" lon="11.95906477439499"><ele>770.0</ele><time>2026-05-01T16:32:14Z</time></trkpt><trkpt lat="43.885677246255376" lon="11.959151726586542"><ele>770.0</ele><time>2026-05-01T16:32:15Z</time></trkpt><trkpt lat="43.88577387805605" lon="11.959233483201947"><ele>768.5</ele><time>2026-05-01T16:32:16Z</time></trkpt><trkpt lat="43.8858889719092" lon="11.959299867592806"><ele>767.0</ele><time>2026-05-01T16:32:17Z</time></trkpt><trkpt lat="43.88601519488574" lon="11.959301731624366"><ele>765.5</ele><time>2026-05-01T16:32:18Z</time></trkpt><trkpt lat="43.88615481201616" lon="11.959266204291962"><ele>764.0</ele><time>2026-05-01T16:32:19Z</time></trkpt><trkpt lat="43.88626675616382" lon="11.959144684743952"><ele>768.25</ele><time>2026-05-01T16:32:20Z</time></trkpt><trkpt lat="43.8863828451797" lon="11.959017390611399"><ele>772.5</ele><time>2026-05-01T16:32:21Z</time></trkpt><trkpt lat="43.88648920802665" lon="11.958875111055397"><ele>776.75</ele><time>2026-05-01T16:32:22Z</time></trkpt><trkpt lat="43.88659321158351" lon="11.958756217276147"><ele>781.0</ele><time>2026-05-01T16:32:23Z</time></trkpt><trkpt lat="43.88673186889009" lon="11.958701768514455"><ele>783.75</ele><time>2026-05-01T16:32:24Z</time></trkpt><trkpt lat="43.88687526675871" lon="11.958645828216172"><ele>786.5</ele><time>2026-05-01T16:32:25Z</time></trkpt><trkpt lat="43.886963500547125" lon="11.958552242475918"><ele>789.25</ele><time>2026-05-01T16:32:26Z</time></trkpt><trkpt lat="43.88708562188772" lon="11.958512412747774"><ele>792.0</ele><time>2026-05-01T16:32:27Z</time></trkpt><trkpt lat="43.88720367148211" lon="11.958499121525438"><ele>792.0</ele><time>2026-05-01T16:32:28Z</time></trkpt><trkpt lat="43.88732252570857" lon="11.958507548658524"><ele>792.0</ele><time>2026-05-01T16:32:29Z</time></trkpt><trkpt lat="43.88743823395111" lon="11.958536312260518"><ele>792.0</ele><time>2026-05-01T16:32:30Z</time></trkpt><trkpt lat="43.887554592287884" lon="11.958570710696813"><ele>792.0</ele><time>2026-05-01T16:32:31Z</time></trkpt><trkpt lat="43.88767098455761" lon="11.958604111722972"><ele>795.5</ele><time>2026-05-01T16:32:32Z</time></trkpt><trkpt lat="43.887786076388785" lon="11.958592269648339"><ele>799.0</ele><time>2026-05-01T16:32:33Z</time></trkpt><trkpt lat="43.887906313057336" lon="11.958570829644101"><ele>802.5</ele><time>2026-05-01T16:32:34Z</time></trkpt><trkpt lat="43.8880251692195" lon="11.958504382235796"><ele>806.0</ele><time>2026-05-01T16:32:35Z</time></trkpt><trkpt lat="43.88814872626433" lon="11.958398379655623"><ele>804.0</ele><time>2026-05-01T16:32:36Z</time></trkpt><trkpt lat="43.888258953460465" lon="11.9582732123663"><ele>802.0</ele><time>2026-05-01T16:32:37Z</time></trkpt><trkpt lat="43.88836240777304" lon="11.958142912541975"><ele>800.0</ele><time>2026-05-01T16:32:38Z</time></trkpt><trkpt lat="43.88845947149773" lon="11.958002686241045"><ele>798.0</ele><time>2026-05-01T16:32:39Z</time></trkpt><trkpt lat="43.888552923655254" lon="11.95784045589406"><ele>798.0</ele><time>2026-05-01T16:32:40Z</time></trkpt><trkpt lat="43.88863230033697" lon="11.957642916410277"><ele>798.0</ele><time>2026-05-01T16:32:41Z</time></trkpt><trkpt lat="43.88869720701947" lon="11.95739350218896"><ele>798.0</ele><time>2026-05-01T16:32:42Z</time></trkpt><trkpt lat="43.88875190741206" lon="11.957103302516273"><ele>796.3333333333333</ele><time>2026-05-01T16:32:43Z</time></trkpt><trkpt lat="43.888799886367444" lon="11.956800208244427"><ele>794.6666666666666</ele><time>2026-05-01T16:32:44Z</time></trkpt><trkpt lat="43.88888263150641" lon="11.956520003985982"><ele>793.0</ele><time>2026-05-01T16:32:45Z</time></trkpt><trkpt lat="43.88895770958868" lon="11.956263666763846"><ele>793.0</ele><time>2026-05-01T16:32:46Z</time></trkpt><trkpt lat="43.88902620899461" lon="11.956044796022137"><ele>793.0</ele><time>2026-05-01T16:32:47Z</time></trkpt><trkpt lat="43.88909895559485" lon="11.955870242715928"><ele>793.0</ele><time>2026-05-01T16:32:48Z</time></trkpt><trkpt lat="43.88916538950591" lon="11.955759367816905"><ele>793.0</ele><time>2026-05-01T16:32:49Z</time></trkpt><trkpt lat="43.88926580877652" lon="11.955658797970221"><ele>793.0</ele><time>2026-05-01T16:32:50Z</time></trkpt><trkpt lat="43.8893954622136" lon="11.955596199262787"><ele>793.0</ele><time>2026-05-01T16:32:51Z</time></trkpt><trkpt lat="43.88955954147069" lon="11.955580087504327"><ele>793.0</ele><time>2026-05-01T16:32:52Z</time></trkpt><trkpt lat="43.889766803418745" lon="11.955551592567598"><ele>793.0</ele><time>2026-05-01T16:32:53Z</time></trkpt><trkpt lat="43.88997239293047" lon="11.955508174297757"><ele>793.0</ele><time>2026-05-01T16:32:54Z</time></trkpt><trkpt lat="43.890164105346564" lon="11.955498516807626"><ele>793.0</ele><time>2026-05-01T16:32:55Z</time></trkpt><trkpt lat="43.890338977919306" lon="11.955459982817217"><ele>792.3333333333333</ele><time>2026-05-01T16:32:56Z</time></trkpt><trkpt lat="43.890493747793286" lon="11.9553863250192"><ele>791.6666666666667</ele><time>2026-05-01T16:32:57Z</time></trkpt><trkpt lat="43.890635101796946" lon="11.95527976642701"><ele>791.0</ele><time>2026-05-01T16:32:58Z</time></trkpt><trkpt lat="43.89076869867859" lon="11.955223450700311"><ele>791.0</ele><time>2026-05-01T16:32:59Z</time></trkpt><trkpt lat="43.89092050495475" lon="11.955206724016891"><ele>791.0</ele><time>2026-05-01T16:33:00Z</time></trkpt><trkpt lat="43.89110692350074" lon="11.955218756162894"><ele>791.0</ele><time>2026-05-01T16:33:01Z</time></trkpt><trkpt lat="43.89132078758955" lon="11.955183086519279"><ele>788.3333333333334</ele><time>2026-05-01T16:33:02Z</time></trkpt><trkpt lat="43.89154894764754" lon="11.955161365001837"><ele>785.6666666666667</ele><time>2026-05-01T16:33:03Z</time></trkpt><trkpt lat="43.891757451269754" lon="11.955199550681675"><ele>783.0</ele><time>2026-05-01T16:33:04Z</time></trkpt><trkpt lat="43.89193082785662" lon="11.955220521716289"><ele>782.5</ele><time>2026-05-01T16:33:05Z</time></trkpt><trkpt lat="43.892080402746736" lon="11.955273229277365"><ele>782.0</ele><time>2026-05-01T16:33:06Z</time></trkpt><trkpt lat="43.892212498410224" lon="11.955358630315029"><ele>781.5</ele><time>2026-05-01T16:33:07Z</time></trkpt><trkpt lat="43.892340204952774" lon="11.95543201277798"><ele>781.0</ele><time>2026-05-01T16:33:08Z</time></trkpt><trkpt lat="43.89243919579641" lon="11.955513143110872"><ele>781.0</ele><time>2026-05-01T16:33:09Z</time></trkpt><trkpt lat="43.89253021823878" lon="11.955540073630363"><ele>781.0</ele><time>2026-05-01T16:33:10Z</time></trkpt><trkpt lat="43.89261237510807" lon="11.9555007603464"><ele>781.0</ele><time>2026-05-01T16:33:11Z</time></trkpt><trkpt lat="43.892693409864386" lon="11.95540476283941"><ele>781.0</ele><time>2026-05-01T16:33:12Z</time></trkpt><trkpt lat="43.89273814103087" lon="11.955222012554364"><ele>781.0</ele><time>2026-05-01T16:33:13Z</time></trkpt><trkpt lat="43.89278951876428" lon="11.955022996659974"><ele>778.0</ele><time>2026-05-01T16:33:14Z</time></trkpt><trkpt lat="43.89286039412746" lon="11.954852640649401"><ele>775.0</ele><time>2026-05-01T16:33:15Z</time></trkpt><trkpt lat="43.892941714742676" lon="11.954731909653084"><ele>772.0</ele><time>2026-05-01T16:33:16Z</time></trkpt><trkpt lat="43.89302691540736" lon="11.954642483317013"><ele>769.0</ele><time>2026-05-01T16:33:17Z</time></trkpt><trkpt lat="43.89313149119836" lon="11.954602813150975"><ele>769.0</ele><time>2026-05-01T16:33:18Z</time></trkpt><trkpt lat="43.89324887470917" lon="11.954590972902963"><ele>769.0</ele><time>2026-05-01T16:33:19Z</time></trkpt><trkpt lat="43.893366308113485" lon="11.954612235736644"><ele>769.0</ele><time>2026-05-01T16:33:20Z</time></trkpt><trkpt lat="43.89350093377892" lon="11.954692632587614"><ele>769.0</ele><time>2026-05-01T16:33:21Z</time></trkpt><trkpt lat="43.893650807525916" lon="11.954798427801304"><ele>770.0</ele><time>2026-05-01T16:33:22Z</time></trkpt><trkpt lat="43.893816586689674" lon="11.954931527269748"><ele>771.0</ele><time>2026-05-01T16:33:23Z</time></trkpt><trkpt lat="43.89398109247651" lon="11.955096446767227"><ele>772.0</ele><time>2026-05-01T16:33:24Z</time></trkpt><trkpt lat="43.89414637488502" lon="11.955271713530555"><ele>764.6666666666666</ele><time>2026-05-01T16:33:25Z</time></trkpt><trkpt lat="43.894294760339044" lon="11.95542758889838"><ele>757.3333333333333</ele><time>2026-05-01T16:33:26Z</time></trkpt><trkpt lat="43.8944349553119" lon="11.955562422310402"><ele>750.0</ele><time>2026-05-01T16:33:27Z</time></trkpt><trkpt lat="43.89455545006114" lon="11.955690180103682"><ele>750.0</ele><time>2026-05-01T16:33:28Z</time></trkpt><trkpt lat="43.894643653358834" lon="11.955841305049244"><ele>750.0</ele><time>2026-05-01T16:33:29Z</time></trkpt><trkpt lat="43.89472929956431" lon="11.955983776414264"><ele>750.0</ele><time>2026-05-01T16:33:30Z</time></trkpt><trkpt lat="43.89481803794937" lon="11.956129241749823"><ele>750.0</ele><time>2026-05-01T16:33:31Z</time></trkpt><trkpt lat="43.894886511326185" lon="11.956286258246848"><ele>752.8</ele><time>2026-05-01T16:33:32Z</time></trkpt><trkpt lat="43.89494721995615" lon="11.956421275544884"><ele>755.6</ele><time>2026-05-01T16:33:33Z</time></trkpt><trkpt lat="43.894991521971114" lon="11.956525421911138"><ele>758.4000000000001</ele><time>2026-05-01T16:33:34Z</time></trkpt><trkpt lat="43.89506271298531" lon="11.956580457848863"><ele>761.2</ele><time>2026-05-01T16:33:35Z</time></trkpt><trkpt lat="43.89514299460072" lon="11.956619201508728"><ele>764.0</ele><time>2026-05-01T16:33:36.001Z</time></trkpt><trkpt lat="43.89524192087903" lon="11.956619702752729"><ele>764.0</ele><time>2026-05-01T16:33:37.001Z</time></trkpt><trkpt lat="43.89535061082911" lon="11.95659147598579"><ele>764.0</ele><time>2026-05-01T16:33:38.001Z</time></trkpt><trkpt lat="43.895469824007414" lon="11.95658761087527"><ele>764.0</ele><time>2026-05-01T16:33:39.001Z</time></trkpt><trkpt lat="43.89560334594672" lon="11.95655837505656"><ele>764.0</ele><time>2026-05-01T16:33:40.001Z</time></trkpt><trkpt lat="43.89574372499608" lon="11.956512965665175"><ele>764.0</ele><time>2026-05-01T16:33:41.001Z</time></trkpt><trkpt lat="43.89589690055635" lon="11.956439612070714"><ele>764.0</ele><time>2026-05-01T16:33:42.001Z</time></trkpt><trkpt lat="43.89606349413323" lon="11.95638991240923"><ele>764.0</ele><time>2026-05-01T16:33:43.001Z</time></trkpt><trkpt lat="43.896242900782475" lon="11.956334177951248"><ele>764.3333333333333</ele><time>2026-05-01T16:33:44.001Z</time></trkpt><trkpt lat="43.89642152697465" lon="11.956304762317544"><ele>764.6666666666666</ele><time>2026-05-01T16:33:45.001Z</time></trkpt><trkpt lat="43.89659098985657" lon="11.956270902528594"><ele>765.0</ele><time>2026-05-01T16:33:46.001Z</time></trkpt><trkpt lat="43.896737663314134" lon="11.956244616388858"><ele>762.25</ele><time>2026-05-01T16:33:47.001Z</time></trkpt><trkpt lat="43.896871159804114" lon="11.956230412896073"><ele>759.5</ele><time>2026-05-01T16:33:48.001Z</time></trkpt><trkpt lat="43.89699319497938" lon="11.956275470173438"><ele>756.75</ele><time>2026-05-01T16:33:49.001Z</time></trkpt><trkpt lat="43.897119071177784" lon="11.956347447115881"><ele>754.0</ele><time>2026-05-01T16:33:50.001Z</time></trkpt><trkpt lat="43.897251057949255" lon="11.956446178880718"><ele>754.0</ele><time>2026-05-01T16:33:51.001Z</time></trkpt><trkpt lat="43.8973553096974" lon="11.956602017467963"><ele>754.0</ele><time>2026-05-01T16:33:52.001Z</time></trkpt><trkpt lat="43.89747703775042" lon="11.956755709887917"><ele>754.0</ele><time>2026-05-01T16:33:53.001Z</time></trkpt><trkpt lat="43.897582069321764" lon="11.956870638850045"><ele>755.8000000000001</ele><time>2026-05-01T16:33:54.001Z</time></trkpt><trkpt lat="43.897651788519084" lon="11.956984112412192"><ele>757.6</ele><time>2026-05-01T16:33:55.001Z</time></trkpt><trkpt lat="43.89774732773929" lon="11.957050215444157"><ele>759.4</ele><time>2026-05-01T16:33:56.001Z</time></trkpt><trkpt lat="43.89782789071097" lon="11.957054869458744"><ele>761.2</ele><time>2026-05-01T16:33:57.001Z</time></trkpt><trkpt lat="43.89791067621104" lon="11.957020567928364"><ele>763.0</ele><time>2026-05-01T16:33:58.001Z</time></trkpt><trkpt lat="43.898002985351134" lon="11.956954525277409"><ele>763.0</ele><time>2026-05-01T16:33:59.001Z</time></trkpt><trkpt lat="43.898085429960425" lon="11.95683293454425"><ele>763.0</ele><time>2026-05-01T16:34:00.001Z</time></trkpt><trkpt lat="43.89814972883777" lon="11.956685697362017"><ele>763.0</ele><time>2026-05-01T16:34:01.001Z</time></trkpt><trkpt lat="43.898208944907246" lon="11.956547216244584"><ele>763.0</ele><time>2026-05-01T16:34:02.001Z</time></trkpt><trkpt lat="43.89830584414854" lon="11.956467783311004"><ele>759.5</ele><time>2026-05-01T16:34:03.001Z</time></trkpt><trkpt lat="43.89840956317929" lon="11.956407097566109"><ele>756.0</ele><time>2026-05-01T16:34:04.001Z</time></trkpt><trkpt lat="43.89851593035953" lon="11.95640944778848"><ele>752.5</ele><time>2026-05-01T16:34:05.001Z</time></trkpt><trkpt lat="43.8986263415725" lon="11.956422714299132"><ele>749.0</ele><time>2026-05-01T16:34:06.001Z</time></trkpt><trkpt lat="43.89872071547109" lon="11.956545643606676"><ele>747.25</ele><time>2026-05-01T16:34:07.001Z</time></trkpt><trkpt lat="43.898838985789794" lon="11.956637759670325"><ele>745.5</ele><time>2026-05-01T16:34:08.001Z</time></trkpt><trkpt lat="43.89894975521272" lon="11.956733092477137"><ele>743.75</ele><time>2026-05-01T16:34:09.001Z</time></trkpt><trkpt lat="43.899079820289884" lon="11.95676568613395"><ele>742.0</ele><time>2026-05-01T16:34:10.001Z</time></trkpt><trkpt lat="43.89922242894999" lon="11.956757686538689"><ele>741.3333333333334</ele><time>2026-05-01T16:34:11.001Z</time></trkpt><trkpt lat="43.89936632843296" lon="11.956689946389146"><ele>740.6666666666666</ele><time>2026-05-01T16:34:12Z</time></trkpt><trkpt lat="43.89951455414724" lon="11.956600206910974"><ele>740.0</ele><time>2026-05-01T16:34:13Z</time></trkpt><trkpt lat="43.89965463017479" lon="11.956518044939543"><ele>740.0</ele><time>2026-05-01T16:34:14Z</time></trkpt><trkpt lat="43.89978621934696" lon="11.95644804437411"><ele>740.0</ele><time>2026-05-01T16:34:15Z</time></trkpt><trkpt lat="43.89992082785111" lon="11.956411631613394"><ele>740.0</ele><time>2026-05-01T16:34:16Z</time></trkpt><trkpt lat="43.900055528831366" lon="11.956380378425536"><ele>740.0</ele><time>2026-05-01T16:34:17Z</time></trkpt><trkpt lat="43.900193092335925" lon="11.95637502271576"><ele>737.75</ele><time>2026-05-01T16:34:18Z</time></trkpt><trkpt lat="43.90032792325252" lon="11.956400650861926"><ele>735.5</ele><time>2026-05-01T16:34:19Z</time></trkpt><trkpt lat="43.90045172879587" lon="11.956458033965358"><ele>733.25</ele><time>2026-05-01T16:34:20Z</time></trkpt><trkpt lat="43.90058107690187" lon="11.956545357303193"><ele>731.0</ele><time>2026-05-01T16:34:21Z</time></trkpt><trkpt lat="43.90068464240876" lon="11.956732585808153"><ele>731.0</ele><time>2026-05-01T16:34:22Z</time></trkpt><trkpt lat="43.90076206232529" lon="11.956959670268363"><ele>731.0</ele><time>2026-05-01T16:34:23Z</time></trkpt><trkpt lat="43.900821919245615" lon="11.957082117920576"><ele>731.0</ele><time>2026-05-01T16:34:24Z</time></trkpt><trkpt lat="43.900875479186105" lon="11.957268695452543"><ele>731.0</ele><time>2026-05-01T16:34:25Z</time></trkpt><trkpt lat="43.900923569283144" lon="11.957397191635458"><ele>730.5</ele><time>2026-05-01T16:34:26Z</time></trkpt><trkpt lat="43.9009736174631" lon="11.957482258609533"><ele>730.0</ele><time>2026-05-01T16:34:27Z</time></trkpt><trkpt lat="43.90102624215669" lon="11.957542897953878"><ele>729.5</ele><time>2026-05-01T16:34:28Z</time></trkpt><trkpt lat="43.901097181814016" lon="11.957597361289203"><ele>729.0</ele><time>2026-05-01T16:34:29Z</time></trkpt><trkpt lat="43.90120632187349" lon="11.95756285771948"><ele>728.5</ele><time>2026-05-01T16:34:30Z</time></trkpt><trkpt lat="43.901286466710076" lon="11.957539977863092"><ele>728.0</ele><time>2026-05-01T16:34:31Z</time></trkpt><trkpt lat="43.9013670885388" lon="11.957452986603366"><ele>728.0</ele><time>2026-05-01T16:34:32Z</time></trkpt><trkpt lat="43.90139894086567" lon="11.957297558064617"><ele>728.0</ele><time>2026-05-01T16:34:33Z</time></trkpt><trkpt lat="43.9014153187788" lon="11.957132306212854"><ele>728.0</ele><time>2026-05-01T16:34:34Z</time></trkpt><trkpt lat="43.90141909318075" lon="11.956945058697606"><ele>728.0</ele><time>2026-05-01T16:34:35Z</time></trkpt><trkpt lat="43.90142578239733" lon="11.956735241779409"><ele>723.8</ele><time>2026-05-01T16:34:36Z</time></trkpt><trkpt lat="43.90143367875489" lon="11.956554244285712"><ele>719.5999999999999</ele><time>2026-05-01T16:34:37Z</time></trkpt><trkpt lat="43.90144367100756" lon="11.956404875053979"><ele>715.4000000000001</ele><time>2026-05-01T16:34:38Z</time></trkpt><trkpt lat="43.901482296437024" lon="11.956303543632794"><ele>711.2</ele><time>2026-05-01T16:34:39Z</time></trkpt><trkpt lat="43.901520552996224" lon="11.956218274182024"><ele>707.0</ele><time>2026-05-01T16:34:40Z</time></trkpt><trkpt lat="43.901597700159805" lon="11.956176764941217"><ele>707.0</ele><time>2026-05-01T16:34:41Z</time></trkpt><trkpt lat="43.90168685496822" lon="11.956198688342289"><ele>707.0</ele><time>2026-05-01T16:34:42Z</time></trkpt><trkpt lat="43.90176747460042" lon="11.956289705343831"><ele>707.0</ele><time>2026-05-01T16:34:43Z</time></trkpt><trkpt lat="43.90180058584147" lon="11.956453730009795"><ele>707.0</ele><time>2026-05-01T16:34:44Z</time></trkpt><trkpt lat="43.90187172112735" lon="11.956587123456858"><ele>707.0</ele><time>2026-05-01T16:34:45Z</time></trkpt><trkpt lat="43.90194500228217" lon="11.95671633404736"><ele>711.0</ele><time>2026-05-01T16:34:46Z</time></trkpt><trkpt lat="43.902054946499455" lon="11.956794801995763"><ele>715.0</ele><time>2026-05-01T16:34:47Z</time></trkpt><trkpt lat="43.902189749954545" lon="11.95681370084134"><ele>719.0</ele><time>2026-05-01T16:34:48Z</time></trkpt><trkpt lat="43.90234200528558" lon="11.956790230174276"><ele>723.0</ele><time>2026-05-01T16:34:49Z</time></trkpt><trkpt lat="43.902512538817604" lon="11.956756181914153"><ele>722.3333333333334</ele><time>2026-05-01T16:34:50Z</time></trkpt><trkpt lat="43.902690381134505" lon="11.956713475343367"><ele>721.6666666666667</ele><time>2026-05-01T16:34:51Z</time></trkpt><trkpt lat="43.90286151992441" lon="11.956673497327547"><ele>721.0</ele><time>2026-05-01T16:34:52Z</time></trkpt><trkpt lat="43.90301334855826" lon="11.956642811515746"><ele>713.75</ele><time>2026-05-01T16:34:53Z</time></trkpt><trkpt lat="43.90316468970631" lon="11.95657556317853"><ele>706.5</ele><time>2026-05-01T16:34:54Z</time></trkpt><trkpt lat="43.903305614332346" lon="11.956554893567079"><ele>699.25</ele><time>2026-05-01T16:34:55Z</time></trkpt><trkpt lat="43.90344903159287" lon="11.956536555704284"><ele>692.0</ele><time>2026-05-01T16:34:56Z</time></trkpt><trkpt lat="43.903609011108145" lon="11.956584924043042"><ele>690.0</ele><time>2026-05-01T16:34:57Z</time></trkpt><trkpt lat="43.90376070485165" lon="11.95663647416707"><ele>688.0</ele><time>2026-05-01T16:34:58Z</time></trkpt><trkpt lat="43.903884364703835" lon="11.95665961037504"><ele>686.0</ele><time>2026-05-01T16:34:59Z</time></trkpt><trkpt lat="43.90399674001291" lon="11.956622805106598"><ele>684.0</ele><time>2026-05-01T16:35:00Z</time></trkpt><trkpt lat="43.90411667851746" lon="11.956556076230562"><ele>684.0</ele><time>2026-05-01T16:35:01Z</time></trkpt><trkpt lat="43.9042022469162" lon="11.956459933026139"><ele>684.0</ele><time>2026-05-01T16:35:02Z</time></trkpt><trkpt lat="43.9042711823975" lon="11.956331661916563"><ele>684.0</ele><time>2026-05-01T16:35:03Z</time></trkpt><trkpt lat="43.90431763194269" lon="11.956155876575284"><ele>684.0</ele><time>2026-05-01T16:35:04Z</time></trkpt><trkpt lat="43.904356466912475" lon="11.955953046316553"><ele>682.6666666666666</ele><time>2026-05-01T16:35:05Z</time></trkpt><trkpt lat="43.904335554735894" lon="11.955708353738135"><ele>681.3333333333333</ele><time>2026-05-01T16:35:06Z</time></trkpt><trkpt lat="43.90432698630648" lon="11.955473024224055"><ele>680.0</ele><time>2026-05-01T16:35:07Z</time></trkpt><trkpt lat="43.904327332372695" lon="11.95525493334149"><ele>680.0</ele><time>2026-05-01T16:35:08Z</time></trkpt><trkpt lat="43.90434538330392" lon="11.955050320298414"><ele>680.0</ele><time>2026-05-01T16:35:09Z</time></trkpt><trkpt lat="43.9043684408955" lon="11.954825406821055"><ele>680.0</ele><time>2026-05-01T16:35:10Z</time></trkpt><trkpt lat="43.904415163641275" lon="11.954610751979251"><ele>677.6666666666666</ele><time>2026-05-01T16:35:11Z</time></trkpt><trkpt lat="43.90449772878731" lon="11.954421172703903"><ele>675.3333333333334</ele><time>2026-05-01T16:35:12Z</time></trkpt><trkpt lat="43.904584656511936" lon="11.954232433385164"><ele>673.0</ele><time>2026-05-01T16:35:13Z</time></trkpt><trkpt lat="43.90468636468011" lon="11.954050680174163"><ele>671.3333333333334</ele><time>2026-05-01T16:35:14Z</time></trkpt><trkpt lat="43.90476194422026" lon="11.9538572994127"><ele>669.6666666666666</ele><time>2026-05-01T16:35:15Z</time></trkpt><trkpt lat="43.904833867132346" lon="11.953663789089301"><ele>668.0</ele><time>2026-05-01T16:35:16Z</time></trkpt><trkpt lat="43.904874725874116" lon="11.953437948668586"><ele>668.6666666666666</ele><time>2026-05-01T16:35:17Z</time></trkpt><trkpt lat="43.9049019114412" lon="11.953175232719783"><ele>669.3333333333334</ele><time>2026-05-01T16:35:18Z</time></trkpt><trkpt lat="43.90491857893093" lon="11.952884528673476"><ele>670.0</ele><time>2026-05-01T16:35:19Z</time></trkpt><trkpt lat="43.90493304972651" lon="11.952589433296453"><ele>670.5</ele><time>2026-05-01T16:35:20Z</time></trkpt><trkpt lat="43.904945747547146" lon="11.952275431663011"><ele>671.0</ele><time>2026-05-01T16:35:21Z</time></trkpt><trkpt lat="43.904981246712005" lon="11.951966466825438"><ele>668.6666666666666</ele><time>2026-05-01T16:35:22Z</time></trkpt><trkpt lat="43.905030107974476" lon="11.951668874920655"><ele>666.3333333333334</ele><time>2026-05-01T16:35:23Z</time></trkpt><trkpt lat="43.90507160668308" lon="11.951377135169116"><ele>664.0</ele><time>2026-05-01T16:35:24Z</time></trkpt><trkpt lat="43.905105529492516" lon="11.951125866102268"><ele>668.25</ele><time>2026-05-01T16:35:25Z</time></trkpt><trkpt lat="43.90513917704545" lon="11.950905947198235"><ele>672.5</ele><time>2026-05-01T16:35:26Z</time></trkpt><trkpt lat="43.90519235709587" lon="11.950733535772123"><ele>676.75</ele><time>2026-05-01T16:35:27Z</time></trkpt><trkpt lat="43.905264340433476" lon="11.95058607937848"><ele>681.0</ele><time>2026-05-01T16:35:28Z</time></trkpt><trkpt lat="43.90536646101507" lon="11.950442877984019"><ele>681.0</ele><time>2026-05-01T16:35:29Z</time></trkpt><trkpt lat="43.90549241464335" lon="11.95028902067211"><ele>681.0</ele><time>2026-05-01T16:35:30Z</time></trkpt><trkpt lat="43.90562977745935" lon="11.950119838928602"><ele>681.0</ele><time>2026-05-01T16:35:31Z</time></trkpt><trkpt lat="43.90577745898919" lon="11.949935792919653"><ele>684.6666666666666</ele><time>2026-05-01T16:35:32Z</time></trkpt><trkpt lat="43.90592793086494" lon="11.949750762295295"><ele>688.3333333333333</ele><time>2026-05-01T16:35:33Z</time></trkpt><trkpt lat="43.906039622960606" lon="11.949560245810654"><ele>692.0</ele><time>2026-05-01T16:35:34Z</time></trkpt><trkpt lat="43.906154568458845" lon="11.94939619020559"><ele>691.0</ele><time>2026-05-01T16:35:35Z</time></trkpt><trkpt lat="43.906249740193275" lon="11.949197848373524"><ele>690.0</ele><time>2026-05-01T16:35:36Z</time></trkpt><trkpt lat="43.90632135436592" lon="11.948968260073924"><ele>689.0</ele><time>2026-05-01T16:35:37Z</time></trkpt><trkpt lat="43.90639337738557" lon="11.948726520295253"><ele>689.0</ele><time>2026-05-01T16:35:38Z</time></trkpt><trkpt lat="43.90647216605239" lon="11.948460521524233"><ele>689.0</ele><time>2026-05-01T16:35:39Z</time></trkpt><trkpt lat="43.90656420907741" lon="11.948171997243966"><ele>689.0</ele><time>2026-05-01T16:35:40Z</time></trkpt><trkpt lat="43.90667154480468" lon="11.94786238206116"><ele>693.6666666666666</ele><time>2026-05-01T16:35:41Z</time></trkpt><trkpt lat="43.90677118428725" lon="11.947569078146874"><ele>698.3333333333334</ele><time>2026-05-01T16:35:42Z</time></trkpt><trkpt lat="43.90685195595209" lon="11.947302472380574"><ele>703.0</ele><time>2026-05-01T16:35:43Z</time></trkpt><trkpt lat="43.90692714855817" lon="11.947053611353695"><ele>703.0</ele><time>2026-05-01T16:35:44Z</time></trkpt><trkpt lat="43.90700077882914" lon="11.946806303087559"><ele>703.0</ele><time>2026-05-01T16:35:45Z</time></trkpt><trkpt lat="43.90707307719169" lon="11.946554352292294"><ele>703.0</ele><time>2026-05-01T16:35:46.001Z</time></trkpt><trkpt lat="43.90713921911829" lon="11.94629409639846"><ele>699.6666666666667</ele><time>2026-05-01T16:35:47.001Z</time></trkpt><trkpt lat="43.907205030262986" lon="11.94605720894879"><ele>696.3333333333334</ele><time>2026-05-01T16:35:48.001Z</time></trkpt><trkpt lat="43.90726094708538" lon="11.94584401427267"><ele>693.0</ele><time>2026-05-01T16:35:49.001Z</time></trkpt><trkpt lat="43.90732459864863" lon="11.945665239619446"><ele>693.3333333333334</ele><time>2026-05-01T16:35:50.001Z</time></trkpt><trkpt lat="43.90741356280105" lon="11.945505437209782"><ele>693.6666666666667</ele><time>2026-05-01T16:35:51.001Z</time></trkpt><trkpt lat="43.90753293948568" lon="11.945376859871514"><ele>694.0</ele><time>2026-05-01T16:35:52.001Z</time></trkpt><trkpt lat="43.90766626959769" lon="11.94526047792405"><ele>694.0</ele><time>2026-05-01T16:35:53.001Z</time></trkpt><trkpt lat="43.90781658396905" lon="11.945156957002897"><ele>694.0</ele><time>2026-05-01T16:35:54.001Z</time></trkpt><trkpt lat="43.907995545000716" lon="11.94511202409793"><ele>694.0</ele><time>2026-05-01T16:35:55.001Z</time></trkpt><trkpt lat="43.908184847242495" lon="11.94507094648976"><ele>694.0</ele><time>2026-05-01T16:35:56.001Z</time></trkpt><trkpt lat="43.908393646523436" lon="11.9450477036095"><ele>694.0</ele><time>2026-05-01T16:35:57.001Z</time></trkpt><trkpt lat="43.90858530735009" lon="11.945018342395807"><ele>694.0</ele><time>2026-05-01T16:35:58.001Z</time></trkpt><trkpt lat="43.90876907056571" lon="11.944984702032183"><ele>688.3333333333334</ele><time>2026-05-01T16:35:59.001Z</time></trkpt><trkpt lat="43.90895844543131" lon="11.944908423712818"><ele>682.6666666666666</ele><time>2026-05-01T16:36:00.001Z</time></trkpt><trkpt lat="43.90915134734265" lon="11.944776706858015"><ele>677.0</ele><time>2026-05-01T16:36:01.001Z</time></trkpt><trkpt lat="43.90936410370334" lon="11.94462915264027"><ele>677.0</ele><time>2026-05-01T16:36:02.001Z</time></trkpt><trkpt lat="43.90960196372051" lon="11.944488462072036"><ele>677.0</ele><time>2026-05-01T16:36:03.001Z</time></trkpt><trkpt lat="43.909864237659335" lon="11.94433501570926"><ele>670.0</ele><time>2026-05-01T16:36:04.001Z</time></trkpt><trkpt lat="43.91013601978938" lon="11.944185274844127"><ele>663.0</ele><time>2026-05-01T16:36:05.001Z</time></trkpt><trkpt lat="43.91039628544899" lon="11.944018166369279"><ele>663.0</ele><time>2026-05-01T16:36:06.001Z</time></trkpt><trkpt lat="43.91063423378897" lon="11.943876711909187"><ele>663.0</ele><time>2026-05-01T16:36:07.001Z</time></trkpt><trkpt lat="43.910865686297505" lon="11.94374528653191"><ele>665.6666666666666</ele><time>2026-05-01T16:36:08.001Z</time></trkpt><trkpt lat="43.91107878197519" lon="11.943618546173584"><ele>668.3333333333333</ele><time>2026-05-01T16:36:09.001Z</time></trkpt><trkpt lat="43.91127074125921" lon="11.943501685418902"><ele>671.0</ele><time>2026-05-01T16:36:10.001Z</time></trkpt><trkpt lat="43.911435499468006" lon="11.943416238587973"><ele>670.6666666666666</ele><time>2026-05-01T16:36:11.001Z</time></trkpt><trkpt lat="43.911581316712564" lon="11.94331556428861"><ele>670.3333333333334</ele><time>2026-05-01T16:36:12.001Z</time></trkpt><trkpt lat="43.91171310136174" lon="11.943211788533365"><ele>670.0</ele><time>2026-05-01T16:36:13.001Z</time></trkpt><trkpt lat="43.91181449151715" lon="11.943077336001735"><ele>670.0</ele><time>2026-05-01T16:36:14.001Z</time></trkpt><trkpt lat="43.911909677927724" lon="11.942890786194914"><ele>670.0</ele><time>2026-05-01T16:36:15.001Z</time></trkpt><trkpt lat="43.91198733485441" lon="11.942680486848229"><ele>670.0</ele><time>2026-05-01T16:36:16.001Z</time></trkpt><trkpt lat="43.912065379967665" lon="11.942426937410055"><ele>667.3333333333334</ele><time>2026-05-01T16:36:17.001Z</time></trkpt><trkpt lat="43.91213103352036" lon="11.9421615988099"><ele>664.6666666666666</ele><time>2026-05-01T16:36:18Z</time></trkpt><trkpt lat="43.91219121608362" lon="11.941910560786342"><ele>662.0</ele><time>2026-05-01T16:36:19Z</time></trkpt><trkpt lat="43.912246474967425" lon="11.94169681833127"><ele>658.6666666666666</ele><time>2026-05-01T16:36:20Z</time></trkpt><trkpt lat="43.912317528739955" lon="11.94150900464047"><ele>655.3333333333334</ele><time>2026-05-01T16:36:21Z</time></trkpt><trkpt lat="43.912411312026215" lon="11.941343111856103"><ele>652.0</ele><time>2026-05-01T16:36:22Z</time></trkpt><trkpt lat="43.91253731585487" lon="11.941197214529558"><ele>652.6666666666667</ele><time>2026-05-01T16:36:23Z</time></trkpt><trkpt lat="43.91267514665936" lon="11.941070523764388"><ele>653.3333333333334</ele><time>2026-05-01T16:36:24Z</time></trkpt><trkpt lat="43.91284299027484" lon="11.940977119162412"><ele>654.0</ele><time>2026-05-01T16:36:25Z</time></trkpt><trkpt lat="43.91303213113423" lon="11.940915498086412"><ele>651.3333333333334</ele><time>2026-05-01T16:36:26Z</time></trkpt><trkpt lat="43.91322724040254" lon="11.940860927354501"><ele>648.6666666666667</ele><time>2026-05-01T16:36:27Z</time></trkpt><trkpt lat="43.91340340632615" lon="11.940796846853482"><ele>646.0</ele><time>2026-05-01T16:36:28Z</time></trkpt><trkpt lat="43.913567943517755" lon="11.940709451491465"><ele>646.0</ele><time>2026-05-01T16:36:29Z</time></trkpt><trkpt lat="43.913717778640205" lon="11.940595149885691"><ele>646.0</ele><time>2026-05-01T16:36:30Z</time></trkpt><trkpt lat="43.91384978068948" lon="11.940464152340008"><ele>646.0</ele><time>2026-05-01T16:36:31Z</time></trkpt><trkpt lat="43.91396003381268" lon="11.940316517764346"><ele>646.0</ele><time>2026-05-01T16:36:32Z</time></trkpt><trkpt lat="43.91412121495528" lon="11.940154838072266"><ele>646.0</ele><time>2026-05-01T16:36:33Z</time></trkpt><trkpt lat="43.914242031319176" lon="11.939955813353231"><ele>646.0</ele><time>2026-05-01T16:36:34Z</time></trkpt><trkpt lat="43.91434207399653" lon="11.93976286583434"><ele>645.6666666666667</ele><time>2026-05-01T16:36:35Z</time></trkpt><trkpt lat="43.91443791526496" lon="11.939582043294095"><ele>645.3333333333334</ele><time>2026-05-01T16:36:36Z</time></trkpt><trkpt lat="43.91453551412572" lon="11.93941885876435"><ele>645.0</ele><time>2026-05-01T16:36:37Z</time></trkpt><trkpt lat="43.91463267339003" lon="11.939275026859294"><ele>642.0</ele><time>2026-05-01T16:36:38Z</time></trkpt><trkpt lat="43.914743529589124" lon="11.939141863836554"><ele>639.0</ele><time>2026-05-01T16:36:39Z</time></trkpt><trkpt lat="43.914883761391465" lon="11.939032384609325"><ele>636.0</ele><time>2026-05-01T16:36:40Z</time></trkpt><trkpt lat="43.91504637473295" lon="11.938927703683367"><ele>636.3333333333334</ele><time>2026-05-01T16:36:41Z</time></trkpt><trkpt lat="43.9152247164618" lon="11.938826366207097"><ele>636.6666666666667</ele><time>2026-05-01T16:36:42Z</time></trkpt><trkpt lat="43.9154027580612" lon="11.938732110194119"><ele>637.0</ele><time>2026-05-01T16:36:43Z</time></trkpt><trkpt lat="43.91554517895878" lon="11.938651582451405"><ele>637.0</ele><time>2026-05-01T16:36:44Z</time></trkpt><trkpt lat="43.91565713163496" lon="11.938583117447267"><ele>637.0</ele><time>2026-05-01T16:36:45Z</time></trkpt><trkpt lat="43.91573964720191" lon="11.938503857141956"><ele>637.0</ele><time>2026-05-01T16:36:46Z</time></trkpt><trkpt lat="43.91581404258145" lon="11.938410563033175"><ele>637.0</ele><time>2026-05-01T16:36:47Z</time></trkpt><trkpt lat="43.91585462687753" lon="11.938272250819555"><ele>637.0</ele><time>2026-05-01T16:36:48Z</time></trkpt><trkpt lat="43.91587536653744" lon="11.93811060033846"><ele>634.5</ele><time>2026-05-01T16:36:49Z</time></trkpt><trkpt lat="43.91586017990294" lon="11.937937647349985"><ele>632.0</ele><time>2026-05-01T16:36:50Z</time></trkpt><trkpt lat="43.91579396034264" lon="11.937772912097003"><ele>629.5</ele><time>2026-05-01T16:36:51Z</time></trkpt><trkpt lat="43.91569542582751" lon="11.93761430887769"><ele>627.0</ele><time>2026-05-01T16:36:52Z</time></trkpt><trkpt lat="43.915571416244234" lon="11.93745805475956"><ele>625.3333333333334</ele><time>2026-05-01T16:36:53Z</time></trkpt><trkpt lat="43.915430506329415" lon="11.937288404693438"><ele>623.6666666666667</ele><time>2026-05-01T16:36:54Z</time></trkpt><trkpt lat="43.91528611985468" lon="11.937096007338496"><ele>622.0</ele><time>2026-05-01T16:36:55Z</time></trkpt><trkpt lat="43.91515014886638" lon="11.93689966956951"><ele>619.3333333333334</ele><time>2026-05-01T16:36:56Z</time></trkpt><trkpt lat="43.91502561341038" lon="11.936718863721891"><ele>616.6666666666666</ele><time>2026-05-01T16:36:57Z</time></trkpt><trkpt lat="43.91491383247579" lon="11.936551081266565"><ele>614.0</ele><time>2026-05-01T16:36:58Z</time></trkpt><trkpt lat="43.914829165013664" lon="11.936372110698962"><ele>614.0</ele><time>2026-05-01T16:36:59Z</time></trkpt><trkpt lat="43.914767074100496" lon="11.936173259912525"><ele>614.0</ele><time>2026-05-01T16:37:00Z</time></trkpt><trkpt lat="43.91472250660597" lon="11.935952293009311"><ele>614.0</ele><time>2026-05-01T16:37:01Z</time></trkpt><trkpt lat="43.914697764434834" lon="11.935736749747248"><ele>613.0</ele><time>2026-05-01T16:37:02Z</time></trkpt><trkpt lat="43.914690490432534" lon="11.935529102145587"><ele>612.0</ele><time>2026-05-01T16:37:03Z</time></trkpt><trkpt lat="43.91471126334469" lon="11.93533022039393"><ele>611.0</ele><time>2026-05-01T16:37:04Z</time></trkpt><trkpt lat="43.91476460463281" lon="11.935145601641896"><ele>610.0</ele><time>2026-05-01T16:37:05Z</time></trkpt><trkpt lat="43.91482874363763" lon="11.934948105342635"><ele>607.3333333333334</ele><time>2026-05-01T16:37:06Z</time></trkpt><trkpt lat="43.91490858952641" lon="11.934748303313715"><ele>604.6666666666666</ele><time>2026-05-01T16:37:07Z</time></trkpt><trkpt lat="43.91498525521949" lon="11.934541456399359"><ele>602.0</ele><time>2026-05-01T16:37:08Z</time></trkpt><trkpt lat="43.91505867444193" lon="11.934332649857645"><ele>599.3333333333333</ele><time>2026-05-01T16:37:09Z</time></trkpt><trkpt lat="43.91512650835969" lon="11.934116435993849"><ele>596.6666666666666</ele><time>2026-05-01T16:37:10Z</time></trkpt><trkpt lat="43.915187655878306" lon="11.93389120513621"><ele>594.0</ele><time>2026-05-01T16:37:11Z</time></trkpt><trkpt lat="43.91523177023617" lon="11.93365803347564"><ele>594.0</ele><time>2026-05-01T16:37:12Z</time></trkpt><trkpt lat="43.91525793954227" lon="11.933414898818636"><ele>594.0</ele><time>2026-05-01T16:37:13Z</time></trkpt><trkpt lat="43.915274699319006" lon="11.933185681704911"><ele>594.0</ele><time>2026-05-01T16:37:14Z</time></trkpt><trkpt lat="43.91528740948152" lon="11.932970480654694"><ele>593.5</ele><time>2026-05-01T16:37:15Z</time></trkpt><trkpt lat="43.915294132131486" lon="11.932763955885003"><ele>593.0</ele><time>2026-05-01T16:37:16Z</time></trkpt><trkpt lat="43.91528383575955" lon="11.932580842890845"><ele>592.5</ele><time>2026-05-01T16:37:17Z</time></trkpt><trkpt lat="43.91524387145978" lon="11.932388723177302"><ele>592.0</ele><time>2026-05-01T16:37:18Z</time></trkpt><trkpt lat="43.91516305979557" lon="11.932176299722219"><ele>589.6666666666667</ele><time>2026-05-01T16:37:19Z</time></trkpt><trkpt lat="43.9150467146224" lon="11.931947252722436"><ele>587.3333333333334</ele><time>2026-05-01T16:37:20Z</time></trkpt><trkpt lat="43.914896404163166" lon="11.931699468577559"><ele>585.0</ele><time>2026-05-01T16:37:21Z</time></trkpt><trkpt lat="43.914741259097006" lon="11.931434931652623"><ele>582.5</ele><time>2026-05-01T16:37:22Z</time></trkpt><trkpt lat="43.914591415815636" lon="11.931173299145291"><ele>580.0</ele><time>2026-05-01T16:37:23Z</time></trkpt><trkpt lat="43.914454130987586" lon="11.930929989867822"><ele>577.0</ele><time>2026-05-01T16:37:24Z</time></trkpt><trkpt lat="43.91431869963082" lon="11.930701405453355"><ele>574.0</ele><time>2026-05-01T16:37:25Z</time></trkpt><trkpt lat="43.91418408252526" lon="11.9304767521109"><ele>571.0</ele><time>2026-05-01T16:37:26Z</time></trkpt><trkpt lat="43.914085843410966" lon="11.930234712313334"><ele>570.3333333333334</ele><time>2026-05-01T16:37:27Z</time></trkpt><trkpt lat="43.91399560485431" lon="11.92999271302755"><ele>569.6666666666666</ele><time>2026-05-01T16:37:28Z</time></trkpt><trkpt lat="43.91391981393082" lon="11.929727139157253"><ele>569.0</ele><time>2026-05-01T16:37:29Z</time></trkpt><trkpt lat="43.913857888054565" lon="11.929439368382397"><ele>566.5</ele><time>2026-05-01T16:37:30Z</time></trkpt><trkpt lat="43.913800285777114" lon="11.92912740268703"><ele>564.0</ele><time>2026-05-01T16:37:31Z</time></trkpt><trkpt lat="43.91372690739514" lon="11.928805175598047"><ele>564.0</ele><time>2026-05-01T16:37:32Z</time></trkpt><trkpt lat="43.91366383457344" lon="11.928470971881596"><ele>564.0</ele><time>2026-05-01T16:37:33Z</time></trkpt><trkpt lat="43.913608446265336" lon="11.928153376198871"><ele>562.0</ele><time>2026-05-01T16:37:34Z</time></trkpt><trkpt lat="43.9135605405677" lon="11.927861149731054"><ele>560.0</ele><time>2026-05-01T16:37:35Z</time></trkpt><trkpt lat="43.9135192187189" lon="11.927577727436574"><ele>558.0</ele><time>2026-05-01T16:37:36Z</time></trkpt><trkpt lat="43.91349620639541" lon="11.927308923741787"><ele>555.6666666666666</ele><time>2026-05-01T16:37:37Z</time></trkpt><trkpt lat="43.913512945360964" lon="11.927044200618166"><ele>553.3333333333333</ele><time>2026-05-01T16:37:38Z</time></trkpt><trkpt lat="43.913539603844136" lon="11.926800715067019"><ele>551.0</ele><time>2026-05-01T16:37:39Z</time></trkpt><trkpt lat="43.91357790720403" lon="11.926553236331046"><ele>550.3333333333333</ele><time>2026-05-01T16:37:40Z</time></trkpt><trkpt lat="43.91362085125462" lon="11.926311935244675"><ele>549.6666666666666</ele><time>2026-05-01T16:37:41Z</time></trkpt><trkpt lat="43.913659148450144" lon="11.926060619367489"><ele>549.0</ele><time>2026-05-01T16:37:42Z</time></trkpt><trkpt lat="43.913726359156946" lon="11.925818520733415"><ele>550.3333333333334</ele><time>2026-05-01T16:37:43Z</time></trkpt><trkpt lat="43.91382561652069" lon="11.925591807176101"><ele>551.6666666666667</ele><time>2026-05-01T16:37:44Z</time></trkpt><trkpt lat="43.91392066691398" lon="11.925349183387311"><ele>553.0</ele><time>2026-05-01T16:37:45Z</time></trkpt><trkpt lat="43.91401074133494" lon="11.925092478633577"><ele>551.3333333333334</ele><time>2026-05-01T16:37:46Z</time></trkpt><trkpt lat="43.91411288495932" lon="11.924835460046905"><ele>549.6666666666666</ele><time>2026-05-01T16:37:47Z</time></trkpt><trkpt lat="43.914206995253174" lon="11.924583633548648"><ele>548.0</ele><time>2026-05-01T16:37:48Z</time></trkpt><trkpt lat="43.914303321409484" lon="11.924353730884002"><ele>551.3333333333333</ele><time>2026-05-01T16:37:49Z</time></trkpt><trkpt lat="43.91438477261403" lon="11.924151056306355"><ele>554.6666666666666</ele><time>2026-05-01T16:37:50Z</time></trkpt><trkpt lat="43.91449761832446" lon="11.923993733787292"><ele>558.0</ele><time>2026-05-01T16:37:51Z</time></trkpt><trkpt lat="43.91461104302897" lon="11.923879070070935"><ele>558.0</ele><time>2026-05-01T16:37:52Z</time></trkpt><trkpt lat="43.91474299801585" lon="11.923802883056918"><ele>558.0</ele><time>2026-05-01T16:37:53Z</time></trkpt><trkpt lat="43.91488750624916" lon="11.923701512976411"><ele>558.0</ele><time>2026-05-01T16:37:54Z</time></trkpt><trkpt lat="43.915051407785924" lon="11.923627406191404"><ele>558.3333333333334</ele><time>2026-05-01T16:37:55Z</time></trkpt><trkpt lat="43.91521189471306" lon="11.923529519413702"><ele>558.6666666666667</ele><time>2026-05-01T16:37:56Z</time></trkpt><trkpt lat="43.91537304391135" lon="11.923423290939875"><ele>559.0</ele><time>2026-05-01T16:37:57Z</time></trkpt><trkpt lat="43.91551638180657" lon="11.923262112820428"><ele>559.0</ele><time>2026-05-01T16:37:58Z</time></trkpt><trkpt lat="43.91566201086456" lon="11.92308941013727"><ele>559.0</ele><time>2026-05-01T16:37:59Z</time></trkpt><trkpt lat="43.915794876933425" lon="11.922891747302135"><ele>559.0</ele><time>2026-05-01T16:38:00Z</time></trkpt><trkpt lat="43.91594507936997" lon="11.922704140454066"><ele>557.0</ele><time>2026-05-01T16:38:01Z</time></trkpt><trkpt lat="43.91608876213821" lon="11.922494660572902"><ele>555.0</ele><time>2026-05-01T16:38:02Z</time></trkpt><trkpt lat="43.91623137550151" lon="11.92228673980861"><ele>553.0</ele><time>2026-05-01T16:38:03Z</time></trkpt><trkpt lat="43.916361997992546" lon="11.92209321126496"><ele>553.0</ele><time>2026-05-01T16:38:04Z</time></trkpt><trkpt lat="43.916475019695326" lon="11.921900655841723"><ele>553.0</ele><time>2026-05-01T16:38:05Z</time></trkpt><trkpt lat="43.91657230909003" lon="11.9216886688635"><ele>553.0</ele><time>2026-05-01T16:38:06Z</time></trkpt><trkpt lat="43.91666104497366" lon="11.921464205506345"><ele>552.0</ele><time>2026-05-01T16:38:07Z</time></trkpt><trkpt lat="43.91674626023111" lon="11.921232132918027"><ele>551.0</ele><time>2026-05-01T16:38:08Z</time></trkpt><trkpt lat="43.91683442594451" lon="11.921009160134068"><ele>550.0</ele><time>2026-05-01T16:38:09Z</time></trkpt><trkpt lat="43.91694055554823" lon="11.920811316422856"><ele>550.0</ele><time>2026-05-01T16:38:10Z</time></trkpt><trkpt lat="43.917060066076786" lon="11.920621480850407"><ele>550.0</ele><time>2026-05-01T16:38:11Z</time></trkpt><trkpt lat="43.91717514609151" lon="11.920442497478303"><ele>550.0</ele><time>2026-05-01T16:38:12Z</time></trkpt><trkpt lat="43.917274520732995" lon="11.920257077460713"><ele>550.0</ele><time>2026-05-01T16:38:13Z</time></trkpt><trkpt lat="43.917415876240014" lon="11.920103357499393"><ele>550.0</ele><time>2026-05-01T16:38:14Z</time></trkpt><trkpt lat="43.91757902832292" lon="11.919956856595249"><ele>550.0</ele><time>2026-05-01T16:38:15Z</time></trkpt><trkpt lat="43.917771042046276" lon="11.919841773084007"><ele>548.0</ele><time>2026-05-01T16:38:16Z</time></trkpt><trkpt lat="43.917947006158315" lon="11.919666806274234"><ele>546.0</ele><time>2026-05-01T16:38:17.001Z</time></trkpt><trkpt lat="43.91812095274634" lon="11.919502402222289"><ele>544.0</ele><time>2026-05-01T16:38:18.001Z</time></trkpt><trkpt lat="43.91824164683125" lon="11.919323693138553"><ele>546.3333333333334</ele><time>2026-05-01T16:38:20.001Z</time></trkpt><trkpt lat="43.91838530513586" lon="11.919220452377296"><ele>548.6666666666666</ele><time>2026-05-01T16:38:21.001Z</time></trkpt><trkpt lat="43.91853732869916" lon="11.919139220220666"><ele>551.0</ele><time>2026-05-01T16:38:22.001Z</time></trkpt><trkpt lat="43.918694308522355" lon="11.919084988056913"><ele>551.0</ele><time>2026-05-01T16:38:23.001Z</time></trkpt><trkpt lat="43.91885983357431" lon="11.91903500664123"><ele>551.0</ele><time>2026-05-01T16:38:24Z</time></trkpt><trkpt lat="43.9190149559576" lon="11.918984426747759"><ele>551.0</ele><time>2026-05-01T16:38:25Z</time></trkpt><trkpt lat="43.919155601780076" lon="11.918909898759415"><ele>547.3333333333333</ele><time>2026-05-01T16:38:26Z</time></trkpt><trkpt lat="43.91928344676858" lon="11.918830012123596"><ele>543.6666666666666</ele><time>2026-05-01T16:38:27Z</time></trkpt><trkpt lat="43.91940318518268" lon="11.918695638059912"><ele>540.0</ele><time>2026-05-01T16:38:28Z</time></trkpt><trkpt lat="43.91950831696904" lon="11.918512765779473"><ele>545.3333333333334</ele><time>2026-05-01T16:38:29Z</time></trkpt><trkpt lat="43.91960320521523" lon="11.918302275485061"><ele>550.6666666666667</ele><time>2026-05-01T16:38:30Z</time></trkpt><trkpt lat="43.91968780646763" lon="11.918102152512114"><ele>556.0</ele><time>2026-05-01T16:38:31Z</time></trkpt><trkpt lat="43.919781775813604" lon="11.917936230767257"><ele>556.0</ele><time>2026-05-01T16:38:32Z</time></trkpt><trkpt lat="43.91990509958114" lon="11.917818259811956"><ele>556.0</ele><time>2026-05-01T16:38:33Z</time></trkpt><trkpt lat="43.920039008154006" lon="11.917725897712597"><ele>556.0</ele><time>2026-05-01T16:38:34Z</time></trkpt><trkpt lat="43.92019437187481" lon="11.917652757700003"><ele>554.6666666666667</ele><time>2026-05-01T16:38:35Z</time></trkpt><trkpt lat="43.920377687125516" lon="11.917583786317495"><ele>553.3333333333334</ele><time>2026-05-01T16:38:36Z</time></trkpt><trkpt lat="43.92057356938733" lon="11.917508904313838"><ele>552.0</ele><time>2026-05-01T16:38:37Z</time></trkpt><trkpt lat="43.92077121110994" lon="11.917429261013904"><ele>549.0</ele><time>2026-05-01T16:38:38Z</time></trkpt><trkpt lat="43.920949328961406" lon="11.917354710206105"><ele>546.0</ele><time>2026-05-01T16:38:39Z</time></trkpt><trkpt lat="43.921115030175656" lon="11.91726342525971"><ele>543.0</ele><time>2026-05-01T16:38:40Z</time></trkpt><trkpt lat="43.92128899453545" lon="11.917191478339289"><ele>543.0</ele><time>2026-05-01T16:38:41Z</time></trkpt><trkpt lat="43.92146211429909" lon="11.917111651161605"><ele>543.0</ele><time>2026-05-01T16:38:42Z</time></trkpt><trkpt lat="43.921631595656144" lon="11.917029708019818"><ele>543.0</ele><time>2026-05-01T16:38:43Z</time></trkpt><trkpt lat="43.921792503777745" lon="11.916937133300037"><ele>539.0</ele><time>2026-05-01T16:38:44Z</time></trkpt><trkpt lat="43.92194747830183" lon="11.916846228223193"><ele>535.0</ele><time>2026-05-01T16:38:45Z</time></trkpt><trkpt lat="43.922098650844376" lon="11.91677114658635"><ele>531.0</ele><time>2026-05-01T16:38:46Z</time></trkpt><trkpt lat="43.92225369270202" lon="11.916752017299046"><ele>531.0</ele><time>2026-05-01T16:38:47Z</time></trkpt><trkpt lat="43.92239521244936" lon="11.91675307723467"><ele>531.0</ele><time>2026-05-01T16:38:48Z</time></trkpt><trkpt lat="43.922533315386666" lon="11.91676119771817"><ele>531.0</ele><time>2026-05-01T16:38:49Z</time></trkpt><trkpt lat="43.922652218290466" lon="11.916741340015946"><ele>531.0</ele><time>2026-05-01T16:38:50Z</time></trkpt><trkpt lat="43.922757899209934" lon="11.916724208016136"><ele>529.8</ele><time>2026-05-01T16:38:51Z</time></trkpt><trkpt lat="43.922840991211245" lon="11.916679135447328"><ele>528.6</ele><time>2026-05-01T16:38:52Z</time></trkpt><trkpt lat="43.92292161098156" lon="11.916597339206858"><ele>527.4</ele><time>2026-05-01T16:38:53Z</time></trkpt><trkpt lat="43.922987652361435" lon="11.916464338981797"><ele>526.2</ele><time>2026-05-01T16:38:54Z</time></trkpt><trkpt lat="43.923045068479894" lon="11.916306669803781"><ele>525.0</ele><time>2026-05-01T16:38:55Z</time></trkpt><trkpt lat="43.92310336738188" lon="11.916133518313108"><ele>525.0</ele><time>2026-05-01T16:38:56Z</time></trkpt><trkpt lat="43.923152678128766" lon="11.91594246286923"><ele>525.0</ele><time>2026-05-01T16:38:57Z</time></trkpt><trkpt lat="43.92319792792365" lon="11.915731951868333"><ele>525.0</ele><time>2026-05-01T16:38:58Z</time></trkpt><trkpt lat="43.923245118518196" lon="11.91554773875328"><ele>525.0</ele><time>2026-05-01T16:38:59Z</time></trkpt><trkpt lat="43.9233091317164" lon="11.915395244607044"><ele>523.75</ele><time>2026-05-01T16:39:00Z</time></trkpt><trkpt lat="43.92340894440042" lon="11.915299728431497"><ele>522.5</ele><time>2026-05-01T16:39:01Z</time></trkpt><trkpt lat="43.92350938272573" lon="11.915211889084272"><ele>521.25</ele><time>2026-05-01T16:39:02Z</time></trkpt><trkpt lat="43.923621830557494" lon="11.915198681613251"><ele>520.0</ele><time>2026-05-01T16:39:03Z</time></trkpt><trkpt lat="43.92374396038475" lon="11.915199532809412"><ele>520.0</ele><time>2026-05-01T16:39:04Z</time></trkpt><trkpt lat="43.92387124916067" lon="11.915199532808758"><ele>520.0</ele><time>2026-05-01T16:39:05Z</time></trkpt><trkpt lat="43.92398574182491" lon="11.91517620723339"><ele>520.0</ele><time>2026-05-01T16:39:06Z</time></trkpt><trkpt lat="43.92409995206197" lon="11.915129029419923"><ele>520.0</ele><time>2026-05-01T16:39:07Z</time></trkpt><trkpt lat="43.92420948163665" lon="11.91503140231511"><ele>522.0</ele><time>2026-05-01T16:39:08Z</time></trkpt><trkpt lat="43.92430696548151" lon="11.914888783924098"><ele>524.0</ele><time>2026-05-01T16:39:09Z</time></trkpt><trkpt lat="43.92439990381103" lon="11.914719259306112"><ele>526.0</ele><time>2026-05-01T16:39:10Z</time></trkpt><trkpt lat="43.9245097011914" lon="11.91458733181298"><ele>528.0</ele><time>2026-05-01T16:39:11Z</time></trkpt><trkpt lat="43.92463777869377" lon="11.914485901741093"><ele>528.0</ele><time>2026-05-01T16:39:12Z</time></trkpt><trkpt lat="43.92478199594455" lon="11.914452956070852"><ele>528.0</ele><time>2026-05-01T16:39:13Z</time></trkpt><trkpt lat="43.92495000853954" lon="11.914448879383903"><ele>528.0</ele><time>2026-05-01T16:39:14Z</time></trkpt><trkpt lat="43.92511803660151" lon="11.914459187466152"><ele>527.3333333333334</ele><time>2026-05-01T16:39:15Z</time></trkpt><trkpt lat="43.92527525969295" lon="11.914436612167966"><ele>526.6666666666667</ele><time>2026-05-01T16:39:16Z</time></trkpt><trkpt lat="43.92544655296329" lon="11.914383923022188"><ele>526.0</ele><time>2026-05-01T16:39:17Z</time></trkpt><trkpt lat="43.92563550744284" lon="11.914297845193218"><ele>529.0</ele><time>2026-05-01T16:39:18Z</time></trkpt><trkpt lat="43.925806247590344" lon="11.914213742306522"><ele>532.0</ele><time>2026-05-01T16:39:19Z</time></trkpt><trkpt lat="43.92595926579732" lon="11.914150727224719"><ele>535.0</ele><time>2026-05-01T16:39:20Z</time></trkpt><trkpt lat="43.926094823181316" lon="11.914091121812598"><ele>535.0</ele><time>2026-05-01T16:39:21Z</time></trkpt><trkpt lat="43.926223607122054" lon="11.91399668529745"><ele>535.0</ele><time>2026-05-01T16:39:22Z</time></trkpt><trkpt lat="43.92635533954563" lon="11.91384696116244"><ele>535.0</ele><time>2026-05-01T16:39:23Z</time></trkpt><trkpt lat="43.926480137562564" lon="11.91363422896969"><ele>534.6666666666667</ele><time>2026-05-01T16:39:24Z</time></trkpt><trkpt lat="43.92660811065183" lon="11.913378539165702"><ele>534.3333333333334</ele><time>2026-05-01T16:39:25Z</time></trkpt><trkpt lat="43.926748684498" lon="11.913146659974345"><ele>534.0</ele><time>2026-05-01T16:39:26Z</time></trkpt><trkpt lat="43.926876276335115" lon="11.912946611696977"><ele>534.0</ele><time>2026-05-01T16:39:27Z</time></trkpt><trkpt lat="43.927017994998636" lon="11.91282922623421"><ele>534.0</ele><time>2026-05-01T16:39:28Z</time></trkpt><trkpt lat="43.92716328637428" lon="11.912736144371397"><ele>534.0</ele><time>2026-05-01T16:39:29Z</time></trkpt><trkpt lat="43.927307402265036" lon="11.912647878505028"><ele>535.0</ele><time>2026-05-01T16:39:30Z</time></trkpt><trkpt lat="43.927462203552295" lon="11.912522991337296"><ele>536.0</ele><time>2026-05-01T16:39:31Z</time></trkpt><trkpt lat="43.92764121427365" lon="11.912435763354567"><ele>537.0</ele><time>2026-05-01T16:39:32Z</time></trkpt><trkpt lat="43.92780042863431" lon="11.912367101079878"><ele>537.0</ele><time>2026-05-01T16:39:33Z</time></trkpt><trkpt lat="43.927959028093085" lon="11.912347634924826"><ele>537.0</ele><time>2026-05-01T16:39:34Z</time></trkpt><trkpt lat="43.92813564374138" lon="11.912325485798526"><ele>537.0</ele><time>2026-05-01T16:39:35Z</time></trkpt><trkpt lat="43.928328148266516" lon="11.912300326291907"><ele>533.3333333333334</ele><time>2026-05-01T16:39:36Z</time></trkpt><trkpt lat="43.92851533153493" lon="11.912258746529776"><ele>529.6666666666667</ele><time>2026-05-01T16:39:37Z</time></trkpt><trkpt lat="43.92868551905648" lon="11.912231066415686"><ele>526.0</ele><time>2026-05-01T16:39:38Z</time></trkpt><trkpt lat="43.92885033507379" lon="11.91222613815515"><ele>526.0</ele><time>2026-05-01T16:39:39Z</time></trkpt><trkpt lat="43.92898960222721" lon="11.91220010659069"><ele>526.0</ele><time>2026-05-01T16:39:40Z</time></trkpt><trkpt lat="43.92909806880516" lon="11.912138493276181"><ele>526.0</ele><time>2026-05-01T16:39:41Z</time></trkpt><trkpt lat="43.929217550865495" lon="11.91207195856016"><ele>526.0</ele><time>2026-05-01T16:39:42Z</time></trkpt><trkpt lat="43.929329972578124" lon="11.911968502484545"><ele>524.6666666666667</ele><time>2026-05-01T16:39:43Z</time></trkpt><trkpt lat="43.92944291618496" lon="11.911823651776672"><ele>523.3333333333334</ele><time>2026-05-01T16:39:44Z</time></trkpt><trkpt lat="43.92955586543443" lon="11.911635868760317"><ele>522.0</ele><time>2026-05-01T16:39:45Z</time></trkpt><trkpt lat="43.92970652960178" lon="11.911468394266796"><ele>522.0</ele><time>2026-05-01T16:39:46Z</time></trkpt><trkpt lat="43.92983944213814" lon="11.911333182322924"><ele>522.0</ele><time>2026-05-01T16:39:47Z</time></trkpt><trkpt lat="43.92997678895249" lon="11.91125053551906"><ele>522.0</ele><time>2026-05-01T16:39:48Z</time></trkpt><trkpt lat="43.93014185744253" lon="11.911193976396774"><ele>517.0</ele><time>2026-05-01T16:39:49Z</time></trkpt><trkpt lat="43.930342964497726" lon="11.911143280873384"><ele>512.0</ele><time>2026-05-01T16:39:50Z</time></trkpt><trkpt lat="43.93055872698616" lon="11.911086683830893"><ele>507.0</ele><time>2026-05-01T16:39:51Z</time></trkpt><trkpt lat="43.93077973713951" lon="11.911001366946625"><ele>508.66666666666663</ele><time>2026-05-01T16:39:52Z</time></trkpt><trkpt lat="43.93099616686262" lon="11.910965307396273"><ele>510.3333333333333</ele><time>2026-05-01T16:39:53Z</time></trkpt><trkpt lat="43.93119110647403" lon="11.910912357364575"><ele>512.0</ele><time>2026-05-01T16:39:54Z</time></trkpt><trkpt lat="43.9313585225478" lon="11.910861082455456"><ele>512.0</ele><time>2026-05-01T16:39:55Z</time></trkpt><trkpt lat="43.93149020800122" lon="11.910813768219858"><ele>512.0</ele><time>2026-05-01T16:39:56Z</time></trkpt><trkpt lat="43.93159515047222" lon="11.910771121357639"><ele>512.0</ele><time>2026-05-01T16:39:57Z</time></trkpt><trkpt lat="43.931690690993236" lon="11.910734060464844"><ele>512.0</ele><time>2026-05-01T16:39:58Z</time></trkpt><trkpt lat="43.931765817460914" lon="11.910717843869682"><ele>512.0</ele><time>2026-05-01T16:39:59Z</time></trkpt><trkpt lat="43.93187321371677" lon="11.910755200357809"><ele>510.25</ele><time>2026-05-01T16:40:01Z</time></trkpt><trkpt lat="43.93187282856567" lon="11.910925673488437"><ele>508.5</ele><time>2026-05-01T16:40:03Z</time></trkpt><trkpt lat="43.93180241749876" lon="11.911016059350938"><ele>506.75</ele><time>2026-05-01T16:40:04Z</time></trkpt><trkpt lat="43.93168633179415" lon="11.911099258499757"><ele>505.0</ele><time>2026-05-01T16:40:05Z</time></trkpt><trkpt lat="43.93155248318909" lon="11.91119140918023"><ele>503.33333333333337</ele><time>2026-05-01T16:40:06Z</time></trkpt><trkpt lat="43.93140090825407" lon="11.911303909041324"><ele>501.66666666666663</ele><time>2026-05-01T16:40:07Z</time></trkpt><trkpt lat="43.9312301535523" lon="11.911419613151935"><ele>500.0</ele><time>2026-05-01T16:40:08Z</time></trkpt><trkpt lat="43.93106904840535" lon="11.911531104853507"><ele>500.0</ele><time>2026-05-01T16:40:09Z</time></trkpt><trkpt lat="43.930930934854025" lon="11.911626751328951"><ele>500.0</ele><time>2026-05-01T16:40:10Z</time></trkpt><trkpt lat="43.93081791388203" lon="11.911719986379866"><ele>500.0</ele><time>2026-05-01T16:40:11Z</time></trkpt><trkpt lat="43.93072269432095" lon="11.911821134601226"><ele>500.0</ele><time>2026-05-01T16:40:12Z</time></trkpt><trkpt lat="43.930655932859366" lon="11.911943663871126"><ele>499.0</ele><time>2026-05-01T16:40:13Z</time></trkpt><trkpt lat="43.93060050098083" lon="11.912113272421475"><ele>498.0</ele><time>2026-05-01T16:40:14Z</time></trkpt><trkpt lat="43.93056038713686" lon="11.91231969367046"><ele>497.0</ele><time>2026-05-01T16:40:15Z</time></trkpt><trkpt lat="43.93052445263847" lon="11.912554304748078"><ele>495.40000000000003</ele><time>2026-05-01T16:40:16Z</time></trkpt><trkpt lat="43.93048605960528" lon="11.912751645056618"><ele>493.80000000000007</ele><time>2026-05-01T16:40:17.001Z</time></trkpt><trkpt lat="43.93045317738636" lon="11.91289726244936"><ele>492.2</ele><time>2026-05-01T16:40:18.001Z</time></trkpt><trkpt lat="43.930430512405145" lon="11.913000159072897"><ele>490.6</ele><time>2026-05-01T16:40:19.001Z</time></trkpt><trkpt lat="43.93041855187792" lon="11.913093960147853"><ele>489.0</ele><time>2026-05-01T16:40:20.001Z</time></trkpt><trkpt lat="43.93043409958425" lon="11.913181840925281"><ele>489.0</ele><time>2026-05-01T16:40:21.001Z</time></trkpt><trkpt lat="43.93048087676296" lon="11.913254134719352"><ele>489.0</ele><time>2026-05-01T16:40:22.001Z</time></trkpt><trkpt lat="43.930544121877574" lon="11.913301843939106"><ele>489.0</ele><time>2026-05-01T16:40:23.001Z</time></trkpt><trkpt lat="43.930638115369" lon="11.913273817475336"><ele>489.0</ele><time>2026-05-01T16:40:24.001Z</time></trkpt><trkpt lat="43.93071141293462" lon="11.913126355352585"><ele>489.0</ele><time>2026-05-01T16:40:25.001Z</time></trkpt><trkpt lat="43.93075004712118" lon="11.912929266845424"><ele>489.0</ele><time>2026-05-01T16:40:26.001Z</time></trkpt><trkpt lat="43.930800740458466" lon="11.912721850254865"><ele>489.0</ele><time>2026-05-01T16:40:27.001Z</time></trkpt><trkpt lat="43.93086842202497" lon="11.912564175866722"><ele>489.0</ele><time>2026-05-01T16:40:28.001Z</time></trkpt><trkpt lat="43.93091999205051" lon="11.912428276404428"><ele>489.0</ele><time>2026-05-01T16:40:29.001Z</time></trkpt><trkpt lat="43.93100713825346" lon="11.912355846919306"><ele>488.25</ele><time>2026-05-01T16:40:30Z</time></trkpt><trkpt lat="43.931114922281225" lon="11.91230257124317"><ele>487.5</ele><time>2026-05-01T16:40:31Z</time></trkpt><trkpt lat="43.931258340508" lon="11.91231410911129"><ele>486.75</ele><time>2026-05-01T16:40:32Z</time></trkpt><trkpt lat="43.931430785475285" lon="11.912284398096594"><ele>486.0</ele><time>2026-05-01T16:40:33Z</time></trkpt><trkpt lat="43.93159635970934" lon="11.912291178693872"><ele>487.0</ele><time>2026-05-01T16:40:34Z</time></trkpt><trkpt lat="43.931740818273404" lon="11.912287636760151"><ele>488.0</ele><time>2026-05-01T16:40:35Z</time></trkpt><trkpt lat="43.93186308725392" lon="11.912328496337148"><ele>489.0</ele><time>2026-05-01T16:40:36Z</time></trkpt><trkpt lat="43.93198609393285" lon="11.912416574537861"><ele>490.0</ele><time>2026-05-01T16:40:37Z</time></trkpt><trkpt lat="43.932118556693" lon="11.912560163002082"><ele>486.0</ele><time>2026-05-01T16:40:38Z</time></trkpt><trkpt lat="43.9322599436067" lon="11.912736045579324"><ele>482.0</ele><time>2026-05-01T16:40:39Z</time></trkpt><trkpt lat="43.93238673426679" lon="11.91292747103482"><ele>478.0</ele><time>2026-05-01T16:40:40Z</time></trkpt><trkpt lat="43.93247787740167" lon="11.913122153377836"><ele>478.0</ele><time>2026-05-01T16:40:41Z</time></trkpt><trkpt lat="43.93255192170512" lon="11.913316485942772"><ele>478.0</ele><time>2026-05-01T16:40:42Z</time></trkpt><trkpt lat="43.93262205201958" lon="11.913499091105974"><ele>478.0</ele><time>2026-05-01T16:40:43Z</time></trkpt><trkpt lat="43.932700759370604" lon="11.913666541035001"><ele>475.33333333333337</ele><time>2026-05-01T16:40:44Z</time></trkpt><trkpt lat="43.93280148226628" lon="11.91379772878988"><ele>472.66666666666663</ele><time>2026-05-01T16:40:45Z</time></trkpt><trkpt lat="43.93293286495574" lon="11.91391390378717"><ele>470.0</ele><time>2026-05-01T16:40:46Z</time></trkpt><trkpt lat="43.933098616038976" lon="11.914017143050478"><ele>470.0</ele><time>2026-05-01T16:40:47Z</time></trkpt><trkpt lat="43.933274096974706" lon="11.91411895138233"><ele>470.0</ele><time>2026-05-01T16:40:48Z</time></trkpt><trkpt lat="43.93342507860937" lon="11.91424381780477"><ele>470.0</ele><time>2026-05-01T16:40:49Z</time></trkpt><trkpt lat="43.933556820417664" lon="11.91433433690002"><ele>465.2</ele><time>2026-05-01T16:40:50Z</time></trkpt><trkpt lat="43.9336720358261" lon="11.914388078137181"><ele>460.4</ele><time>2026-05-01T16:40:51Z</time></trkpt><trkpt lat="43.93377103442433" lon="11.914429154744056"><ele>455.6</ele><time>2026-05-01T16:40:52Z</time></trkpt><trkpt lat="43.933865559542795" lon="11.914440029322016"><ele>450.8</ele><time>2026-05-01T16:40:53Z</time></trkpt><trkpt lat="43.93396876819283" lon="11.914415609969321"><ele>446.0</ele><time>2026-05-01T16:40:54Z</time></trkpt><trkpt lat="43.93405282051844" lon="11.914287323679298"><ele>446.25</ele><time>2026-05-01T16:40:55Z</time></trkpt><trkpt lat="43.934133361667655" lon="11.914132342696846"><ele>446.5</ele><time>2026-05-01T16:40:56Z</time></trkpt><trkpt lat="43.934225867269944" lon="11.913976340401888"><ele>446.75</ele><time>2026-05-01T16:40:57Z</time></trkpt><trkpt lat="43.934301766889455" lon="11.913845653079273"><ele>447.0</ele><time>2026-05-01T16:40:58Z</time></trkpt><trkpt lat="43.93438724148647" lon="11.913706524848479"><ele>447.0</ele><time>2026-05-01T16:40:59Z</time></trkpt><trkpt lat="43.93452761156844" lon="11.913609270356831"><ele>447.0</ele><time>2026-05-01T16:41:00Z</time></trkpt><trkpt lat="43.934705944867254" lon="11.913557238036978"><ele>447.0</ele><time>2026-05-01T16:41:01Z</time></trkpt><trkpt lat="43.93487917312474" lon="11.913501352443868"><ele>447.0</ele><time>2026-05-01T16:41:02Z</time></trkpt><trkpt lat="43.9350323877151" lon="11.913439059883965"><ele>447.0</ele><time>2026-05-01T16:41:03Z</time></trkpt><trkpt lat="43.93517196520298" lon="11.91339734893885"><ele>447.0</ele><time>2026-05-01T16:41:04Z</time></trkpt><trkpt lat="43.93532040150594" lon="11.913407917384024"><ele>445.33333333333337</ele><time>2026-05-01T16:41:05Z</time></trkpt><trkpt lat="43.93547854409306" lon="11.91345811001982"><ele>443.6666666666667</ele><time>2026-05-01T16:41:06Z</time></trkpt><trkpt lat="43.93565766707619" lon="11.913491098554971"><ele>442.0</ele><time>2026-05-01T16:41:07Z</time></trkpt><trkpt lat="43.935854448982916" lon="11.91348556710636"><ele>441.33333333333337</ele><time>2026-05-01T16:41:08Z</time></trkpt><trkpt lat="43.93602608711367" lon="11.913469422836952"><ele>440.66666666666663</ele><time>2026-05-01T16:41:09Z</time></trkpt><trkpt lat="43.93617326603422" lon="11.913472642570486"><ele>440.0</ele><time>2026-05-01T16:41:10Z</time></trkpt><trkpt lat="43.93630416831547" lon="11.913493069139914"><ele>440.0</ele><time>2026-05-01T16:41:11Z</time></trkpt><trkpt lat="43.936463625613996" lon="11.913570329190032"><ele>440.0</ele><time>2026-05-01T16:41:12Z</time></trkpt><trkpt lat="43.936610106775554" lon="11.913652950431874"><ele>440.0</ele><time>2026-05-01T16:41:13Z</time></trkpt><trkpt lat="43.93675084869458" lon="11.913724907704054"><ele>439.0</ele><time>2026-05-01T16:41:14Z</time></trkpt><trkpt lat="43.93687645314305" lon="11.91378011663194"><ele>438.0</ele><time>2026-05-01T16:41:15Z</time></trkpt><trkpt lat="43.937013760863074" lon="11.913798835812303"><ele>437.0</ele><time>2026-05-01T16:41:16Z</time></trkpt><trkpt lat="43.93715698376815" lon="11.913816749849188"><ele>436.0</ele><time>2026-05-01T16:41:17Z</time></trkpt><trkpt lat="43.93730473823814" lon="11.913800067210603"><ele>436.0</ele><time>2026-05-01T16:41:18Z</time></trkpt><trkpt lat="43.93747323483776" lon="11.913751191595393"><ele>436.0</ele><time>2026-05-01T16:41:19Z</time></trkpt><trkpt lat="43.93764661736683" lon="11.913700687082454"><ele>436.0</ele><time>2026-05-01T16:41:20Z</time></trkpt><trkpt lat="43.937817494035016" lon="11.913653075865543"><ele>436.0</ele><time>2026-05-01T16:41:21Z</time></trkpt><trkpt lat="43.93796163578595" lon="11.913635047806244"><ele>436.0</ele><time>2026-05-01T16:41:22Z</time></trkpt><trkpt lat="43.938064392911365" lon="11.913577057866805"><ele>436.0</ele><time>2026-05-01T16:41:23Z</time></trkpt><trkpt lat="43.93813927577725" lon="11.91354094301791"><ele>436.0</ele><time>2026-05-01T16:41:24Z</time></trkpt><trkpt lat="43.93822969172571" lon="11.91341543916416"><ele>438.5</ele><time>2026-05-01T16:41:26Z</time></trkpt><trkpt lat="43.93824494535244" lon="11.91329539568577"><ele>441.0</ele><time>2026-05-01T16:41:27Z</time></trkpt><trkpt lat="43.93822379412755" lon="11.913143860496742"><ele>443.5</ele><time>2026-05-01T16:41:28Z</time></trkpt><trkpt lat="43.93818446088788" lon="11.912970513803344"><ele>446.0</ele><time>2026-05-01T16:41:29Z</time></trkpt><trkpt lat="43.93811918414719" lon="11.91275160670417"><ele>443.25</ele><time>2026-05-01T16:41:30Z</time></trkpt><trkpt lat="43.93805495639206" lon="11.912554946945843"><ele>440.5</ele><time>2026-05-01T16:41:31Z</time></trkpt><trkpt lat="43.93798667278069" lon="11.912383659177435"><ele>437.75</ele><time>2026-05-01T16:41:32Z</time></trkpt><trkpt lat="43.93791862807803" lon="11.912231245784024"><ele>435.0</ele><time>2026-05-01T16:41:33Z</time></trkpt><trkpt lat="43.93787458884296" lon="11.912049572022468"><ele>435.0</ele><time>2026-05-01T16:41:34Z</time></trkpt><trkpt lat="43.937887811837335" lon="11.91188838156168"><ele>435.0</ele><time>2026-05-01T16:41:35Z</time></trkpt><trkpt lat="43.93789339117053" lon="11.911756261844454"><ele>435.0</ele><time>2026-05-01T16:41:36Z</time></trkpt><trkpt lat="43.937881802952106" lon="11.911655083666137"><ele>435.0</ele><time>2026-05-01T16:41:37Z</time></trkpt><trkpt lat="43.93784247364707" lon="11.911571118999934"><ele>435.0</ele><time>2026-05-01T16:41:38Z</time></trkpt><trkpt lat="43.93772922781964" lon="11.911531084321568"><ele>434.75</ele><time>2026-05-01T16:41:39Z</time></trkpt><trkpt lat="43.93761248229592" lon="11.911515457003699"><ele>434.5</ele><time>2026-05-01T16:41:40Z</time></trkpt><trkpt lat="43.937464072535064" lon="11.911529910413236"><ele>434.25</ele><time>2026-05-01T16:41:41Z</time></trkpt><trkpt lat="43.93730109347667" lon="11.911521164711477"><ele>434.0</ele><time>2026-05-01T16:41:42Z</time></trkpt><trkpt lat="43.937132115603376" lon="11.911471711070114"><ele>434.0</ele><time>2026-05-01T16:41:43Z</time></trkpt><trkpt lat="43.93698886136448" lon="11.911387547493947"><ele>434.0</ele><time>2026-05-01T16:41:44Z</time></trkpt><trkpt lat="43.936850933954986" lon="11.91129855364969"><ele>434.0</ele><time>2026-05-01T16:41:45Z</time></trkpt><trkpt lat="43.936694094383164" lon="11.911206747255562"><ele>439.0</ele><time>2026-05-01T16:41:46Z</time></trkpt><trkpt lat="43.93653160027559" lon="11.911050652112204"><ele>444.0</ele><time>2026-05-01T16:41:47Z</time></trkpt><trkpt lat="43.93636976580071" lon="11.910893335786728"><ele>449.0</ele><time>2026-05-01T16:41:48Z</time></trkpt><trkpt lat="43.93621737399805" lon="11.910764578293419"><ele>446.4</ele><time>2026-05-01T16:41:49Z</time></trkpt><trkpt lat="43.9360883222293" lon="11.910659793261528"><ele>443.79999999999995</ele><time>2026-05-01T16:41:50Z</time></trkpt><trkpt lat="43.93599256371443" lon="11.910581055412381"><ele>441.20000000000005</ele><time>2026-05-01T16:41:51Z</time></trkpt><trkpt lat="43.935914911607135" lon="11.910486357295884"><ele>438.6</ele><time>2026-05-01T16:41:52Z</time></trkpt><trkpt lat="43.93586116887555" lon="11.910407895258114"><ele>436.0</ele><time>2026-05-01T16:41:54Z</time></trkpt><trkpt lat="43.93593014692292" lon="11.91029526157014"><ele>432.6</ele><time>2026-05-01T16:41:56Z</time></trkpt><trkpt lat="43.93600341463185" lon="11.910347970877432"><ele>429.20000000000005</ele><time>2026-05-01T16:41:57Z</time></trkpt><trkpt lat="43.936074573912954" lon="11.910384098976685"><ele>425.79999999999995</ele><time>2026-05-01T16:41:58Z</time></trkpt><trkpt lat="43.9361767071286" lon="11.9104121705426"><ele>422.4</ele><time>2026-05-01T16:41:59Z</time></trkpt><trkpt lat="43.93628000321688" lon="11.910405579978786"><ele>419.0</ele><time>2026-05-01T16:42:00Z</time></trkpt><trkpt lat="43.93638459398459" lon="11.910345909988159"><ele>419.0</ele><time>2026-05-01T16:42:01Z</time></trkpt><trkpt lat="43.93648300985128" lon="11.910248212998443"><ele>419.0</ele><time>2026-05-01T16:42:02Z</time></trkpt><trkpt lat="43.93655845748065" lon="11.910145559795598"><ele>419.0</ele><time>2026-05-01T16:42:03Z</time></trkpt><trkpt lat="43.936621856417304" lon="11.910114118809659"><ele>419.0</ele><time>2026-05-01T16:42:04Z</time></trkpt><trkpt lat="43.93669826923351" lon="11.910126587939128"><ele>419.0</ele><time>2026-05-01T16:42:05Z</time></trkpt><trkpt lat="43.93677457481995" lon="11.91021543641666"><ele>416.2</ele><time>2026-05-01T16:42:06Z</time></trkpt><trkpt lat="43.936869420079354" lon="11.9103169129925"><ele>413.4</ele><time>2026-05-01T16:42:07Z</time></trkpt><trkpt lat="43.93694958185312" lon="11.910376531563173"><ele>410.6</ele><time>2026-05-01T16:42:08Z</time></trkpt><trkpt lat="43.93699926120603" lon="11.910448706237528"><ele>407.8</ele><time>2026-05-01T16:42:09Z</time></trkpt><trkpt lat="43.93711934879375" lon="11.910410749199094"><ele>405.0</ele><time>2026-05-01T16:42:11Z</time></trkpt><trkpt lat="43.93715039096978" lon="11.910325923517442"><ele>405.0</ele><time>2026-05-01T16:42:12Z</time></trkpt><trkpt lat="43.937147627788725" lon="11.910227770318247"><ele>405.0</ele><time>2026-05-01T16:42:13Z</time></trkpt><trkpt lat="43.93706944446545" lon="11.910129557246275"><ele>405.0</ele><time>2026-05-01T16:42:14Z</time></trkpt><trkpt lat="43.936995886320226" lon="11.910031277274772"><ele>405.0</ele><time>2026-05-01T16:42:15Z</time></trkpt><trkpt lat="43.93692988313223" lon="11.909908968936879"><ele>405.0</ele><time>2026-05-01T16:42:16Z</time></trkpt><trkpt lat="43.93686819048422" lon="11.909772524437304"><ele>398.5</ele><time>2026-05-01T16:42:17Z</time></trkpt><trkpt lat="43.936828278843706" lon="11.909614773095312"><ele>392.0</ele><time>2026-05-01T16:42:18Z</time></trkpt><trkpt lat="43.936800064863874" lon="11.90946009590386"><ele>385.5</ele><time>2026-05-01T16:42:19Z</time></trkpt><trkpt lat="43.93677350397053" lon="11.909311047455232"><ele>379.0</ele><time>2026-05-01T16:42:20Z</time></trkpt><trkpt lat="43.93673222431831" lon="11.9091697780277"><ele>380.75</ele><time>2026-05-01T16:42:21Z</time></trkpt><trkpt lat="43.93667705593874" lon="11.909047990734535"><ele>382.5</ele><time>2026-05-01T16:42:22Z</time></trkpt><trkpt lat="43.93659364740139" lon="11.908965484007389"><ele>384.25</ele><time>2026-05-01T16:42:23Z</time></trkpt><trkpt lat="43.93647951518914" lon="11.908902393772427"><ele>386.0</ele><time>2026-05-01T16:42:24Z</time></trkpt><trkpt lat="43.936344164734656" lon="11.908867762943219"><ele>386.0</ele><time>2026-05-01T16:42:25Z</time></trkpt><trkpt lat="43.93618351602267" lon="11.908845480011987"><ele>386.0</ele><time>2026-05-01T16:42:26Z</time></trkpt><trkpt lat="43.936014799305234" lon="11.908814171831871"><ele>386.0</ele><time>2026-05-01T16:42:27Z</time></trkpt><trkpt lat="43.93584090370766" lon="11.908775715705234"><ele>385.75</ele><time>2026-05-01T16:42:28Z</time></trkpt><trkpt lat="43.93567975561923" lon="11.908742767415953"><ele>385.5</ele><time>2026-05-01T16:42:29Z</time></trkpt><trkpt lat="43.935554026441295" lon="11.908707480621526"><ele>385.25</ele><time>2026-05-01T16:42:30Z</time></trkpt><trkpt lat="43.93544789291095" lon="11.908666349952549"><ele>385.0</ele><time>2026-05-01T16:42:31Z</time></trkpt><trkpt lat="43.935361970494654" lon="11.90858064124943"><ele>385.0</ele><time>2026-05-01T16:42:32Z</time></trkpt><trkpt lat="43.93531476348536" lon="11.908419328536889"><ele>385.0</ele><time>2026-05-01T16:42:33Z</time></trkpt><trkpt lat="43.93523815892483" lon="11.908226023254533"><ele>385.0</ele><time>2026-05-01T16:42:34Z</time></trkpt><trkpt lat="43.93519524855526" lon="11.90799272947177"><ele>378.6666666666667</ele><time>2026-05-01T16:42:35Z</time></trkpt><trkpt lat="43.935156702605546" lon="11.907753435302903"><ele>372.33333333333337</ele><time>2026-05-01T16:42:36Z</time></trkpt><trkpt lat="43.935132376592485" lon="11.907524210809362"><ele>366.0</ele><time>2026-05-01T16:42:37Z</time></trkpt><trkpt lat="43.935099929481495" lon="11.907330435395101"><ele>363.0</ele><time>2026-05-01T16:42:38Z</time></trkpt><trkpt lat="43.935093607433565" lon="11.9071575882735"><ele>360.0</ele><time>2026-05-01T16:42:39Z</time></trkpt><trkpt lat="43.93507816644255" lon="11.90701383179979"><ele>357.0</ele><time>2026-05-01T16:42:40Z</time></trkpt><trkpt lat="43.93507211415435" lon="11.906911398826816"><ele>354.0</ele><time>2026-05-01T16:42:41Z</time></trkpt><trkpt lat="43.93508724550351" lon="11.906769070246453"><ele>351.0</ele><time>2026-05-01T16:42:43Z</time></trkpt><trkpt lat="43.93516495802054" lon="11.906734455409314"><ele>351.0</ele><time>2026-05-01T16:42:46Z</time></trkpt><trkpt lat="43.93526050595791" lon="11.906832072603615"><ele>351.0</ele><time>2026-05-01T16:42:48Z</time></trkpt><trkpt lat="43.93527342185489" lon="11.906980681166047"><ele>351.0</ele><time>2026-05-01T16:42:49Z</time></trkpt><trkpt lat="43.93531998419711" lon="11.90710759638381"><ele>351.0</ele><time>2026-05-01T16:42:50Z</time></trkpt><trkpt lat="43.93536157381706" lon="11.907217693077989"><ele>351.0</ele><time>2026-05-01T16:42:51Z</time></trkpt><trkpt lat="43.935409570113755" lon="11.907295052461565"><ele>351.0</ele><time>2026-05-01T16:42:52Z</time></trkpt><trkpt lat="43.93545875511805" lon="11.907374027926192"><ele>351.0</ele><time>2026-05-01T16:42:53Z</time></trkpt><trkpt lat="43.93554479874633" lon="11.9074039932163"><ele>351.0</ele><time>2026-05-01T16:42:54Z</time></trkpt><trkpt lat="43.93565643587254" lon="11.90732470152043"><ele>351.0</ele><time>2026-05-01T16:42:55Z</time></trkpt><trkpt lat="43.935767707817796" lon="11.907255623301886"><ele>351.0</ele><time>2026-05-01T16:42:56Z</time></trkpt><trkpt lat="43.93587281275366" lon="11.907210890486779"><ele>347.75</ele><time>2026-05-01T16:42:57Z</time></trkpt><trkpt lat="43.93597083374521" lon="11.907206939165535"><ele>344.5</ele><time>2026-05-01T16:42:58Z</time></trkpt><trkpt lat="43.93607663515247" lon="11.907270572228466"><ele>341.25</ele><time>2026-05-01T16:42:59Z</time></trkpt><trkpt lat="43.93620565727756" lon="11.907384489159288"><ele>338.0</ele><time>2026-05-01T16:43:00Z</time></trkpt><trkpt lat="43.93635001838274" lon="11.907509870646471"><ele>336.6666666666667</ele><time>2026-05-01T16:43:01Z</time></trkpt><trkpt lat="43.93650123687862" lon="11.9076493781907"><ele>335.3333333333333</ele><time>2026-05-01T16:43:02Z</time></trkpt><trkpt lat="43.936634165234594" lon="11.907787112142763"><ele>334.0</ele><time>2026-05-01T16:43:03Z</time></trkpt><trkpt lat="43.936762028096524" lon="11.907928531391935"><ele>334.0</ele><time>2026-05-01T16:43:04Z</time></trkpt><trkpt lat="43.936889658602155" lon="11.908043264557566"><ele>334.0</ele><time>2026-05-01T16:43:05Z</time></trkpt><trkpt lat="43.93697876241287" lon="11.908146063565296"><ele>334.0</ele><time>2026-05-01T16:43:06Z</time></trkpt><trkpt lat="43.937028430432484" lon="11.908247315907294"><ele>334.0</ele><time>2026-05-01T16:43:07Z</time></trkpt><trkpt lat="43.93708506137515" lon="11.908289610005237"><ele>334.0</ele><time>2026-05-01T16:43:08Z</time></trkpt><trkpt lat="43.93718837028139" lon="11.90828781495888"><ele>334.0</ele><time>2026-05-01T16:43:10Z</time></trkpt><trkpt lat="43.93719798027333" lon="11.908130990111651"><ele>334.0</ele><time>2026-05-01T16:43:12Z</time></trkpt><trkpt lat="43.93715217569517" lon="11.908058214444967"><ele>334.0</ele><time>2026-05-01T16:43:13Z</time></trkpt><trkpt lat="43.93708265367354" lon="11.907989880186198"><ele>334.0</ele><time>2026-05-01T16:43:14Z</time></trkpt><trkpt lat="43.936987014735045" lon="11.907893691307246"><ele>334.0</ele><time>2026-05-01T16:43:15Z</time></trkpt><trkpt lat="43.93688485145012" lon="11.907782287818705"><ele>334.0</ele><time>2026-05-01T16:43:16Z</time></trkpt><trkpt lat="43.936780152629254" lon="11.907615020766677"><ele>334.0</ele><time>2026-05-01T16:43:17Z</time></trkpt><trkpt lat="43.936689814684755" lon="11.907444128447512"><ele>334.0</ele><time>2026-05-01T16:43:18Z</time></trkpt><trkpt lat="43.93660380824364" lon="11.907297037122897"><ele>334.0</ele><time>2026-05-01T16:43:19Z</time></trkpt><trkpt lat="43.936541450952674" lon="11.907183772082211"><ele>334.79999999999995</ele><time>2026-05-01T16:43:20Z</time></trkpt><trkpt lat="43.93652149557289" lon="11.907083262812156"><ele>335.59999999999997</ele><time>2026-05-01T16:43:21Z</time></trkpt><trkpt lat="43.936553337601076" lon="11.906977619627572"><ele>336.4</ele><time>2026-05-01T16:43:24Z</time></trkpt><trkpt lat="43.93663446454256" lon="11.907040809477275"><ele>337.2</ele><time>2026-05-01T16:43:26Z</time></trkpt><trkpt lat="43.93671498656908" lon="11.907228040671487"><ele>338.0</ele><time>2026-05-01T16:43:28Z</time></trkpt><trkpt lat="43.93680198374835" lon="11.907329972237644"><ele>337.0</ele><time>2026-05-01T16:43:29Z</time></trkpt><trkpt lat="43.93690135538071" lon="11.907449102175137"><ele>336.0</ele><time>2026-05-01T16:43:30Z</time></trkpt><trkpt lat="43.937026453954694" lon="11.907553595442891"><ele>335.0</ele><time>2026-05-01T16:43:31Z</time></trkpt><trkpt lat="43.93716383762686" lon="11.907668686025561"><ele>334.0</ele><time>2026-05-01T16:43:32Z</time></trkpt><trkpt lat="43.93732691406767" lon="11.9077833168619"><ele>334.0</ele><time>2026-05-01T16:43:33Z</time></trkpt><trkpt lat="43.937495472122" lon="11.907899598064292"><ele>334.0</ele><time>2026-05-01T16:43:34Z</time></trkpt><trkpt lat="43.93767153271809" lon="11.908021690143217"><ele>334.0</ele><time>2026-05-01T16:43:35Z</time></trkpt><trkpt lat="43.93785024394471" lon="11.90815334296678"><ele>334.3333333333333</ele><time>2026-05-01T16:43:36Z</time></trkpt><trkpt lat="43.938020032756555" lon="11.908284023154811"><ele>334.6666666666667</ele><time>2026-05-01T16:43:37Z</time></trkpt><trkpt lat="43.93818255990882" lon="11.908407791367372"><ele>335.0</ele><time>2026-05-01T16:43:38Z</time></trkpt><trkpt lat="43.9383338870553" lon="11.908525270905326"><ele>328.0</ele><time>2026-05-01T16:43:39Z</time></trkpt><trkpt lat="43.9384793633351" lon="11.908646695774198"><ele>321.0</ele><time>2026-05-01T16:43:40Z</time></trkpt><trkpt lat="43.93862292033478" lon="11.90877307023659"><ele>314.0</ele><time>2026-05-01T16:43:41Z</time></trkpt><trkpt lat="43.938755263761884" lon="11.90888926588803"><ele>314.0</ele><time>2026-05-01T16:43:42Z</time></trkpt><trkpt lat="43.93887605160273" lon="11.908988178146016"><ele>314.0</ele><time>2026-05-01T16:43:43Z</time></trkpt><trkpt lat="43.939005162116146" lon="11.909080112109763"><ele>314.0</ele><time>2026-05-01T16:43:44Z</time></trkpt><trkpt lat="43.939143057726916" lon="11.909154908868155"><ele>314.0</ele><time>2026-05-01T16:43:45Z</time></trkpt><trkpt lat="43.939280514077296" lon="11.909190740130752"><ele>314.25</ele><time>2026-05-01T16:43:46Z</time></trkpt><trkpt lat="43.939416480864885" lon="11.9092394218065"><ele>314.5</ele><time>2026-05-01T16:43:47Z</time></trkpt><trkpt lat="43.93956283500759" lon="11.909271122636383"><ele>314.75</ele><time>2026-05-01T16:43:48Z</time></trkpt><trkpt lat="43.93970885462523" lon="11.90930150590196"><ele>315.0</ele><time>2026-05-01T16:43:49Z</time></trkpt><trkpt lat="43.939852919596134" lon="11.909354662803901"><ele>315.0</ele><time>2026-05-01T16:43:50Z</time></trkpt><trkpt lat="43.93999501413526" lon="11.909387619385129"><ele>315.0</ele><time>2026-05-01T16:43:51Z</time></trkpt><trkpt lat="43.94013292462512" lon="11.909419605550035"><ele>315.0</ele><time>2026-05-01T16:43:52Z</time></trkpt><trkpt lat="43.94026884555283" lon="11.909451716853132"><ele>315.0</ele><time>2026-05-01T16:43:53Z</time></trkpt><trkpt lat="43.940403309311804" lon="11.909484097824715"><ele>310.75</ele><time>2026-05-01T16:43:54Z</time></trkpt><trkpt lat="43.94053837586676" lon="11.909495861099476"><ele>306.5</ele><time>2026-05-01T16:43:55Z</time></trkpt><trkpt lat="43.94066155153565" lon="11.909546286563856"><ele>302.25</ele><time>2026-05-01T16:43:56Z</time></trkpt><trkpt lat="43.94078273974824" lon="11.909570363819025"><ele>298.0</ele><time>2026-05-01T16:43:57Z</time></trkpt><trkpt lat="43.940886950439264" lon="11.909562893474835"><ele>295.6</ele><time>2026-05-01T16:43:58Z</time></trkpt><trkpt lat="43.94097970468142" lon="11.90955188899803"><ele>293.20000000000005</ele><time>2026-05-01T16:43:59Z</time></trkpt><trkpt lat="43.941074764647446" lon="11.909524815087217"><ele>290.8</ele><time>2026-05-01T16:44:00Z</time></trkpt><trkpt lat="43.94115312008536" lon="11.909440443371643"><ele>288.40000000000003</ele><time>2026-05-01T16:44:01Z</time></trkpt><trkpt lat="43.94122023446627" lon="11.90934098934395"><ele>286.0</ele><time>2026-05-01T16:44:02Z</time></trkpt><trkpt lat="43.94129038695102" lon="11.909245579651659"><ele>285.6</ele><time>2026-05-01T16:44:03Z</time></trkpt><trkpt lat="43.94136068790376" lon="11.909158394524908"><ele>285.20000000000005</ele><time>2026-05-01T16:44:04Z</time></trkpt><trkpt lat="43.941420903109766" lon="11.909087112776632"><ele>284.79999999999995</ele><time>2026-05-01T16:44:05Z</time></trkpt><trkpt lat="43.9414762777245" lon="11.909019168051554"><ele>284.4</ele><time>2026-05-01T16:44:06Z</time></trkpt><trkpt lat="43.94156844521396" lon="11.90891748026268"><ele>284.0</ele><time>2026-05-01T16:44:08Z</time></trkpt><trkpt lat="43.94167202406105" lon="11.908805764962366"><ele>282.83333333333337</ele><time>2026-05-01T16:44:10Z</time></trkpt><trkpt lat="43.94173431536077" lon="11.908744188614525"><ele>281.6666666666667</ele><time>2026-05-01T16:44:11Z</time></trkpt><trkpt lat="43.94179983786363" lon="11.90867730780148"><ele>280.5</ele><time>2026-05-01T16:44:12Z</time></trkpt><trkpt lat="43.94186937115138" lon="11.908610426092883"><ele>279.3333333333333</ele><time>2026-05-01T16:44:13Z</time></trkpt><trkpt lat="43.94193964804439" lon="11.908532286969441"><ele>278.16666666666663</ele><time>2026-05-01T16:44:14Z</time></trkpt><trkpt lat="43.942013489585186" lon="11.908475744420793"><ele>277.0</ele><time>2026-05-01T16:44:15Z</time></trkpt><trkpt lat="43.94207708573834" lon="11.908417204858404"><ele>277.0</ele><time>2026-05-01T16:44:16Z</time></trkpt><trkpt lat="43.94213658126521" lon="11.908366277607554"><ele>277.0</ele><time>2026-05-01T16:44:17Z</time></trkpt><trkpt lat="43.942198009870744" lon="11.908323432484579"><ele>277.0</ele><time>2026-05-01T16:44:18Z</time></trkpt><trkpt lat="43.9422588891167" lon="11.90827090462816"><ele>277.0</ele><time>2026-05-01T16:44:19Z</time></trkpt><trkpt lat="43.94233181375897" lon="11.90827203377859"><ele>277.0</ele><time>2026-05-01T16:44:20Z</time></trkpt><trkpt lat="43.94240390600155" lon="11.908308978241868"><ele>277.0</ele><time>2026-05-01T16:44:21Z</time></trkpt><trkpt lat="43.94246088462997" lon="11.908386170469374"><ele>277.0</ele><time>2026-05-01T16:44:22Z</time></trkpt><trkpt lat="43.942522359965935" lon="11.908448554443247"><ele>276.16666666666663</ele><time>2026-05-01T16:44:23Z</time></trkpt><trkpt lat="43.9425879956448" lon="11.908513013063065"><ele>275.3333333333333</ele><time>2026-05-01T16:44:24Z</time></trkpt><trkpt lat="43.94265414403125" lon="11.908576188147661"><ele>274.5</ele><time>2026-05-01T16:44:25Z</time></trkpt><trkpt lat="43.94272430400082" lon="11.908643194528025"><ele>273.6666666666667</ele><time>2026-05-01T16:44:26Z</time></trkpt><trkpt lat="43.9428031518243" lon="11.908691182633705"><ele>272.83333333333337</ele><time>2026-05-01T16:44:27Z</time></trkpt><trkpt lat="43.942870101670124" lon="11.908763521911718"><ele>272.0</ele><time>2026-05-01T16:44:28Z</time></trkpt><trkpt lat="43.94294339188945" lon="11.908831325962105"><ele>272.0</ele><time>2026-05-01T16:44:29Z</time></trkpt><trkpt lat="43.94301697382708" lon="11.908903192981384"><ele>272.0</ele><time>2026-05-01T16:44:30Z</time></trkpt><trkpt lat="43.94309538590549" lon="11.908978830920786"><ele>272.0</ele><time>2026-05-01T16:44:31Z</time></trkpt><trkpt lat="43.943165844592414" lon="11.909063118625715"><ele>272.0</ele><time>2026-05-01T16:44:32Z</time></trkpt><trkpt lat="43.94325683002328" lon="11.909123292892659"><ele>272.0</ele><time>2026-05-01T16:44:33Z</time></trkpt><trkpt lat="43.94333751445541" lon="11.90920904721567"><ele>271.4</ele><time>2026-05-01T16:44:34Z</time></trkpt><trkpt lat="43.94342062317324" lon="11.909300948228262"><ele>270.79999999999995</ele><time>2026-05-01T16:44:35Z</time></trkpt><trkpt lat="43.94351097238289" lon="11.909381727997175"><ele>270.2</ele><time>2026-05-01T16:44:36Z</time></trkpt><trkpt lat="43.94360214757737" lon="11.909465785092287"><ele>269.59999999999997</ele><time>2026-05-01T16:44:37Z</time></trkpt><trkpt lat="43.94368325367355" lon="11.909536200808617"><ele>269.0</ele><time>2026-05-01T16:44:38Z</time></trkpt><trkpt lat="43.943758745760164" lon="11.909613848282016"><ele>269.0</ele><time>2026-05-01T16:44:39Z</time></trkpt><trkpt lat="43.94383922832041" lon="11.90969372901387"><ele>269.0</ele><time>2026-05-01T16:44:40Z</time></trkpt><trkpt lat="43.94391979297752" lon="11.909778683857429"><ele>269.0</ele><time>2026-05-01T16:44:41Z</time></trkpt><trkpt lat="43.94400398964083" lon="11.909857437565066"><ele>269.0</ele><time>2026-05-01T16:44:42Z</time></trkpt><trkpt lat="43.944089159911414" lon="11.909935553566184"><ele>269.0</ele><time>2026-05-01T16:44:43Z</time></trkpt><trkpt lat="43.94417103112788" lon="11.910019024173415"><ele>269.0</ele><time>2026-05-01T16:44:44Z</time></trkpt><trkpt lat="43.94425362974571" lon="11.91009435264037"><ele>269.0</ele><time>2026-05-01T16:44:45Z</time></trkpt><trkpt lat="43.94433865162756" lon="11.910164338015527"><ele>269.0</ele><time>2026-05-01T16:44:46Z</time></trkpt><trkpt lat="43.94442872354631" lon="11.910218213583526"><ele>269.0</ele><time>2026-05-01T16:44:47Z</time></trkpt><trkpt lat="43.94452384128792" lon="11.910274873969461"><ele>269.0</ele><time>2026-05-01T16:44:48Z</time></trkpt><trkpt lat="43.94461604565395" lon="11.910295994666141"><ele>269.0</ele><time>2026-05-01T16:44:49Z</time></trkpt><trkpt lat="43.94470035799694" lon="11.910297822454122"><ele>269.0</ele><time>2026-05-01T16:44:50Z</time></trkpt><trkpt lat="43.94478065438616" lon="11.910310948183922"><ele>269.0</ele><time>2026-05-01T16:44:51Z</time></trkpt><trkpt lat="43.94485632779671" lon="11.910330980021433"><ele>269.0</ele><time>2026-05-01T16:44:52Z</time></trkpt><trkpt lat="43.94493967599276" lon="11.910342013735853"><ele>269.0</ele><time>2026-05-01T16:44:53Z</time></trkpt><trkpt lat="43.945024887050664" lon="11.910363167991767"><ele>269.0</ele><time>2026-05-01T16:44:54Z</time></trkpt><trkpt lat="43.94511241726638" lon="11.91038284934802"><ele>268.2</ele><time>2026-05-01T16:44:55Z</time></trkpt><trkpt lat="43.94520042482462" lon="11.910404623129338"><ele>267.4</ele><time>2026-05-01T16:44:56Z</time></trkpt><trkpt lat="43.945294445423706" lon="11.910412618857157"><ele>266.6</ele><time>2026-05-01T16:44:57Z</time></trkpt><trkpt lat="43.94538472163752" lon="11.910445990473155"><ele>265.8</ele><time>2026-05-01T16:44:58Z</time></trkpt><trkpt lat="43.94547188056046" lon="11.910462497844055"><ele>265.0</ele><time>2026-05-01T16:44:59Z</time></trkpt><trkpt lat="43.945563146854205" lon="11.910479783402554"><ele>265.0</ele><time>2026-05-01T16:45:00Z</time></trkpt><trkpt lat="43.94564860375886" lon="11.910495963672412"><ele>265.0</ele><time>2026-05-01T16:45:01Z</time></trkpt><trkpt lat="43.94572829411148" lon="11.910511052098414"><ele>265.0</ele><time>2026-05-01T16:45:02Z</time></trkpt><trkpt lat="43.94580683846775" lon="11.91051868296894"><ele>265.0</ele><time>2026-05-01T16:45:03Z</time></trkpt><trkpt lat="43.945876295500376" lon="11.91050996027087"><ele>265.0</ele><time>2026-05-01T16:45:04Z</time></trkpt><trkpt lat="43.945949398803705" lon="11.910474238481985"><ele>265.0</ele><time>2026-05-01T16:45:05Z</time></trkpt><trkpt lat="43.94600966112448" lon="11.910406534734554"><ele>265.2</ele><time>2026-05-01T16:45:06Z</time></trkpt><trkpt lat="43.9460722096737" lon="11.91037816881232"><ele>265.4</ele><time>2026-05-01T16:45:07Z</time></trkpt><trkpt lat="43.94618169992654" lon="11.91027142861404"><ele>265.6</ele><time>2026-05-01T16:45:09Z</time></trkpt><trkpt lat="43.9462345795248" lon="11.910221060562519"><ele>265.8</ele><time>2026-05-01T16:45:10Z</time></trkpt><trkpt lat="43.94633138580211" lon="11.91012629669593"><ele>266.0</ele><time>2026-05-01T16:45:12Z</time></trkpt><trkpt lat="43.9463987979974" lon="11.91005887196793"><ele>261.0</ele><time>2026-05-01T16:45:14Z</time></trkpt><trkpt lat="43.94645322173185" lon="11.909993732115204"><ele>261.0</ele><time>2026-05-01T16:45:18Z</time></trkpt></trkseg><trkseg><trkpt lat="44.00230589611713" lon="11.975032851701783"><ele>395.0</ele><time>2026-05-01T20:17:43Z</time></trkpt><trkpt lat="44.00221757613085" lon="11.975040920774124"><ele>395.0</ele><time>2026-05-01T20:18:18Z</time></trkpt></trkseg></trk></gpx>